<?xml version="1.0" encoding="UTF-8" standalone="no" ?>
<gpx xmlns="http://www.topografix.com/GPX/1/1" xmlns:xsi="http://www.w3.org/2001/XMLSchema-instance" xsi:schemaLocation="http://www.topografix.com/GPX/1/1 http://www.topografix.com/GPX/1/1/gpx.xsd" version="1.1" creator="VisuGPX - https://www.visugpx.com">
  <metadata>
    <name>Mozas -&gt; Arol</name>
  </metadata>
  <trk>
    <name><![CDATA[Mozas -> Arol_1]]></name>
    <trkseg>
      <trkpt lat="45.61502" lon="5.27462">
        <ele>254</ele>
        <time>2021-07-20T04:48:37.574Z</time>
      </trkpt>
      <trkpt lat="45.61502" lon="5.27462">
        <ele>254</ele>
        <time>2021-07-20T04:48:38.575Z</time>
      </trkpt>
      <trkpt lat="45.61502" lon="5.27462">
        <ele>254</ele>
        <time>2021-07-20T04:48:39.575Z</time>
      </trkpt>
      <trkpt lat="45.61502" lon="5.27462">
        <ele>254</ele>
        <time>2021-07-20T04:48:40.575Z</time>
      </trkpt>
      <trkpt lat="45.61502" lon="5.27462">
        <ele>254</ele>
        <time>2021-07-20T04:48:41.575Z</time>
      </trkpt>
      <trkpt lat="45.61502" lon="5.27461">
        <ele>254</ele>
        <time>2021-07-20T04:48:42.575Z</time>
      </trkpt>
      <trkpt lat="45.61502" lon="5.27461">
        <ele>254</ele>
        <time>2021-07-20T04:48:43.575Z</time>
      </trkpt>
      <trkpt lat="45.61502" lon="5.2746">
        <ele>254</ele>
        <time>2021-07-20T04:48:44.575Z</time>
      </trkpt>
      <trkpt lat="45.61502" lon="5.2746">
        <ele>254</ele>
        <time>2021-07-20T04:48:45.575Z</time>
      </trkpt>
      <trkpt lat="45.61502" lon="5.2746">
        <ele>254</ele>
        <time>2021-07-20T04:48:46.575Z</time>
      </trkpt>
      <trkpt lat="45.61502" lon="5.2746">
        <ele>254</ele>
        <time>2021-07-20T04:48:47.576Z</time>
      </trkpt>
      <trkpt lat="45.61502" lon="5.27459">
        <ele>255</ele>
        <time>2021-07-20T04:48:48.575Z</time>
      </trkpt>
      <trkpt lat="45.61503" lon="5.27458">
        <ele>255</ele>
        <time>2021-07-20T04:48:49.575Z</time>
      </trkpt>
      <trkpt lat="45.61504" lon="5.27457">
        <ele>255</ele>
        <time>2021-07-20T04:48:50.576Z</time>
      </trkpt>
      <trkpt lat="45.61505" lon="5.27457">
        <ele>256</ele>
        <time>2021-07-20T04:48:51.575Z</time>
      </trkpt>
      <trkpt lat="45.61507" lon="5.27457">
        <ele>256</ele>
        <time>2021-07-20T04:48:52.575Z</time>
      </trkpt>
      <trkpt lat="45.61509" lon="5.27458">
        <ele>256</ele>
        <time>2021-07-20T04:48:53.576Z</time>
      </trkpt>
      <trkpt lat="45.61511" lon="5.2746">
        <ele>255</ele>
        <time>2021-07-20T04:48:54.575Z</time>
      </trkpt>
      <trkpt lat="45.61515" lon="5.27462">
        <ele>255</ele>
        <time>2021-07-20T04:48:55.575Z</time>
      </trkpt>
      <trkpt lat="45.61519" lon="5.27464">
        <ele>254</ele>
        <time>2021-07-20T04:48:56.575Z</time>
      </trkpt>
      <trkpt lat="45.61523" lon="5.27466">
        <ele>254</ele>
        <time>2021-07-20T04:48:57.576Z</time>
      </trkpt>
      <trkpt lat="45.61528" lon="5.27468">
        <ele>253</ele>
        <time>2021-07-20T04:48:58.576Z</time>
      </trkpt>
      <trkpt lat="45.61532" lon="5.2747">
        <ele>252</ele>
        <time>2021-07-20T04:48:59.576Z</time>
      </trkpt>
      <trkpt lat="45.61537" lon="5.27472">
        <ele>252</ele>
        <time>2021-07-20T04:49:00.575Z</time>
      </trkpt>
      <trkpt lat="45.6154" lon="5.27476">
        <ele>251</ele>
        <time>2021-07-20T04:49:01.575Z</time>
      </trkpt>
      <trkpt lat="45.61543" lon="5.2748">
        <ele>250</ele>
        <time>2021-07-20T04:49:02.575Z</time>
      </trkpt>
      <trkpt lat="45.61544" lon="5.27485">
        <ele>250</ele>
        <time>2021-07-20T04:49:03.576Z</time>
      </trkpt>
      <trkpt lat="45.61544" lon="5.2749">
        <ele>249</ele>
        <time>2021-07-20T04:49:04.575Z</time>
      </trkpt>
      <trkpt lat="45.61543" lon="5.27496">
        <ele>249</ele>
        <time>2021-07-20T04:49:05.575Z</time>
      </trkpt>
      <trkpt lat="45.61542" lon="5.27502">
        <ele>249</ele>
        <time>2021-07-20T04:49:06.575Z</time>
      </trkpt>
      <trkpt lat="45.61541" lon="5.27508">
        <ele>249</ele>
        <time>2021-07-20T04:49:07.576Z</time>
      </trkpt>
      <trkpt lat="45.61541" lon="5.27516">
        <ele>249</ele>
        <time>2021-07-20T04:49:08.576Z</time>
      </trkpt>
      <trkpt lat="45.6154" lon="5.27523">
        <ele>249</ele>
        <time>2021-07-20T04:49:09.576Z</time>
      </trkpt>
      <trkpt lat="45.61539" lon="5.27529">
        <ele>249</ele>
        <time>2021-07-20T04:49:10.576Z</time>
      </trkpt>
      <trkpt lat="45.61538" lon="5.27535">
        <ele>249</ele>
        <time>2021-07-20T04:49:11.576Z</time>
      </trkpt>
      <trkpt lat="45.61536" lon="5.27541">
        <ele>249</ele>
        <time>2021-07-20T04:49:12.575Z</time>
      </trkpt>
      <trkpt lat="45.61534" lon="5.27548">
        <ele>249</ele>
        <time>2021-07-20T04:49:13.575Z</time>
      </trkpt>
      <trkpt lat="45.61532" lon="5.27554">
        <ele>248</ele>
        <time>2021-07-20T04:49:14.575Z</time>
      </trkpt>
      <trkpt lat="45.6153" lon="5.27559">
        <ele>249</ele>
        <time>2021-07-20T04:49:15.575Z</time>
      </trkpt>
      <trkpt lat="45.61528" lon="5.27565">
        <ele>249</ele>
        <time>2021-07-20T04:49:16.575Z</time>
      </trkpt>
      <trkpt lat="45.61527" lon="5.2757">
        <ele>249</ele>
        <time>2021-07-20T04:49:17.575Z</time>
      </trkpt>
      <trkpt lat="45.61527" lon="5.27575">
        <ele>249</ele>
        <time>2021-07-20T04:49:18.575Z</time>
      </trkpt>
      <trkpt lat="45.61529" lon="5.27578">
        <ele>248</ele>
        <time>2021-07-20T04:49:19.575Z</time>
      </trkpt>
      <trkpt lat="45.61531" lon="5.27581">
        <ele>248</ele>
        <time>2021-07-20T04:49:20.575Z</time>
      </trkpt>
      <trkpt lat="45.61535" lon="5.27583">
        <ele>248</ele>
        <time>2021-07-20T04:49:21.575Z</time>
      </trkpt>
      <trkpt lat="45.6154" lon="5.27585">
        <ele>248</ele>
        <time>2021-07-20T04:49:22.575Z</time>
      </trkpt>
      <trkpt lat="45.61546" lon="5.27587">
        <ele>248</ele>
        <time>2021-07-20T04:49:23.576Z</time>
      </trkpt>
      <trkpt lat="45.61551" lon="5.27589">
        <ele>248</ele>
        <time>2021-07-20T04:49:24.575Z</time>
      </trkpt>
      <trkpt lat="45.61557" lon="5.27592">
        <ele>248</ele>
        <time>2021-07-20T04:49:25.575Z</time>
      </trkpt>
      <trkpt lat="45.61563" lon="5.27594">
        <ele>248</ele>
        <time>2021-07-20T04:49:26.576Z</time>
      </trkpt>
      <trkpt lat="45.61568" lon="5.27596">
        <ele>248</ele>
        <time>2021-07-20T04:49:27.576Z</time>
      </trkpt>
      <trkpt lat="45.61574" lon="5.27599">
        <ele>248</ele>
        <time>2021-07-20T04:49:28.576Z</time>
      </trkpt>
      <trkpt lat="45.61579" lon="5.27602">
        <ele>248</ele>
        <time>2021-07-20T04:49:29.576Z</time>
      </trkpt>
      <trkpt lat="45.61585" lon="5.27604">
        <ele>248</ele>
        <time>2021-07-20T04:49:30.575Z</time>
      </trkpt>
      <trkpt lat="45.61591" lon="5.27607">
        <ele>248</ele>
        <time>2021-07-20T04:49:31.576Z</time>
      </trkpt>
      <trkpt lat="45.61597" lon="5.27609">
        <ele>248</ele>
        <time>2021-07-20T04:49:32.575Z</time>
      </trkpt>
      <trkpt lat="45.61603" lon="5.27612">
        <ele>248</ele>
        <time>2021-07-20T04:49:33.576Z</time>
      </trkpt>
      <trkpt lat="45.61609" lon="5.27614">
        <ele>248</ele>
        <time>2021-07-20T04:49:34.576Z</time>
      </trkpt>
      <trkpt lat="45.61615" lon="5.27616">
        <ele>248</ele>
        <time>2021-07-20T04:49:35.576Z</time>
      </trkpt>
      <trkpt lat="45.6162" lon="5.27618">
        <ele>248</ele>
        <time>2021-07-20T04:49:36.576Z</time>
      </trkpt>
      <trkpt lat="45.61626" lon="5.27621">
        <ele>248</ele>
        <time>2021-07-20T04:49:37.576Z</time>
      </trkpt>
      <trkpt lat="45.61632" lon="5.27623">
        <ele>248</ele>
        <time>2021-07-20T04:49:38.576Z</time>
      </trkpt>
      <trkpt lat="45.61638" lon="5.27626">
        <ele>248</ele>
        <time>2021-07-20T04:49:39.576Z</time>
      </trkpt>
      <trkpt lat="45.61644" lon="5.27629">
        <ele>248</ele>
        <time>2021-07-20T04:49:40.576Z</time>
      </trkpt>
      <trkpt lat="45.6165" lon="5.27632">
        <ele>248</ele>
        <time>2021-07-20T04:49:41.576Z</time>
      </trkpt>
      <trkpt lat="45.61657" lon="5.27635">
        <ele>248</ele>
        <time>2021-07-20T04:49:42.576Z</time>
      </trkpt>
      <trkpt lat="45.61663" lon="5.27638">
        <ele>248</ele>
        <time>2021-07-20T04:49:43.576Z</time>
      </trkpt>
      <trkpt lat="45.61669" lon="5.27641">
        <ele>248</ele>
        <time>2021-07-20T04:49:44.576Z</time>
      </trkpt>
      <trkpt lat="45.61676" lon="5.27645">
        <ele>248</ele>
        <time>2021-07-20T04:49:45.575Z</time>
      </trkpt>
      <trkpt lat="45.61682" lon="5.27648">
        <ele>248</ele>
        <time>2021-07-20T04:49:46.575Z</time>
      </trkpt>
      <trkpt lat="45.61689" lon="5.27652">
        <ele>247</ele>
        <time>2021-07-20T04:49:47.576Z</time>
      </trkpt>
      <trkpt lat="45.61695" lon="5.27655">
        <ele>247</ele>
        <time>2021-07-20T04:49:48.576Z</time>
      </trkpt>
      <trkpt lat="45.61702" lon="5.27658">
        <ele>246</ele>
        <time>2021-07-20T04:49:49.576Z</time>
      </trkpt>
      <trkpt lat="45.61708" lon="5.27662">
        <ele>245</ele>
        <time>2021-07-20T04:49:50.576Z</time>
      </trkpt>
      <trkpt lat="45.61715" lon="5.27665">
        <ele>244</ele>
        <time>2021-07-20T04:49:51.576Z</time>
      </trkpt>
      <trkpt lat="45.61722" lon="5.27668">
        <ele>244</ele>
        <time>2021-07-20T04:49:52.576Z</time>
      </trkpt>
      <trkpt lat="45.61728" lon="5.27672">
        <ele>242</ele>
        <time>2021-07-20T04:49:53.576Z</time>
      </trkpt>
      <trkpt lat="45.61735" lon="5.27675">
        <ele>242</ele>
        <time>2021-07-20T04:49:54.576Z</time>
      </trkpt>
      <trkpt lat="45.61741" lon="5.27678">
        <ele>241</ele>
        <time>2021-07-20T04:49:55.576Z</time>
      </trkpt>
      <trkpt lat="45.61747" lon="5.27681">
        <ele>240</ele>
        <time>2021-07-20T04:49:56.575Z</time>
      </trkpt>
      <trkpt lat="45.61754" lon="5.27684">
        <ele>239</ele>
        <time>2021-07-20T04:49:57.576Z</time>
      </trkpt>
      <trkpt lat="45.6176" lon="5.27687">
        <ele>238</ele>
        <time>2021-07-20T04:49:58.575Z</time>
      </trkpt>
      <trkpt lat="45.61766" lon="5.2769">
        <ele>237</ele>
        <time>2021-07-20T04:49:59.576Z</time>
      </trkpt>
      <trkpt lat="45.61771" lon="5.27691">
        <ele>236</ele>
        <time>2021-07-20T04:50:00.576Z</time>
      </trkpt>
      <trkpt lat="45.61776" lon="5.27689">
        <ele>236</ele>
        <time>2021-07-20T04:50:01.576Z</time>
      </trkpt>
      <trkpt lat="45.61781" lon="5.27685">
        <ele>235</ele>
        <time>2021-07-20T04:50:02.576Z</time>
      </trkpt>
      <trkpt lat="45.61785" lon="5.27679">
        <ele>235</ele>
        <time>2021-07-20T04:50:03.576Z</time>
      </trkpt>
      <trkpt lat="45.61788" lon="5.27671">
        <ele>234</ele>
        <time>2021-07-20T04:50:04.576Z</time>
      </trkpt>
      <trkpt lat="45.61791" lon="5.27662">
        <ele>233</ele>
        <time>2021-07-20T04:50:05.576Z</time>
      </trkpt>
      <trkpt lat="45.61794" lon="5.27653">
        <ele>233</ele>
        <time>2021-07-20T04:50:06.576Z</time>
      </trkpt>
      <trkpt lat="45.61797" lon="5.27643">
        <ele>232</ele>
        <time>2021-07-20T04:50:07.576Z</time>
      </trkpt>
      <trkpt lat="45.61799" lon="5.27632">
        <ele>231</ele>
        <time>2021-07-20T04:50:08.576Z</time>
      </trkpt>
      <trkpt lat="45.61801" lon="5.27622">
        <ele>230</ele>
        <time>2021-07-20T04:50:09.575Z</time>
      </trkpt>
      <trkpt lat="45.61803" lon="5.27611">
        <ele>230</ele>
        <time>2021-07-20T04:50:10.576Z</time>
      </trkpt>
      <trkpt lat="45.61805" lon="5.27601">
        <ele>229</ele>
        <time>2021-07-20T04:50:11.576Z</time>
      </trkpt>
      <trkpt lat="45.61808" lon="5.2759">
        <ele>228</ele>
        <time>2021-07-20T04:50:12.576Z</time>
      </trkpt>
      <trkpt lat="45.61811" lon="5.27579">
        <ele>228</ele>
        <time>2021-07-20T04:50:13.576Z</time>
      </trkpt>
      <trkpt lat="45.61814" lon="5.27568">
        <ele>228</ele>
        <time>2021-07-20T04:50:14.576Z</time>
      </trkpt>
      <trkpt lat="45.61817" lon="5.27558">
        <ele>227</ele>
        <time>2021-07-20T04:50:15.575Z</time>
      </trkpt>
      <trkpt lat="45.6182" lon="5.27548">
        <ele>227</ele>
        <time>2021-07-20T04:50:16.575Z</time>
      </trkpt>
      <trkpt lat="45.61822" lon="5.27538">
        <ele>227</ele>
        <time>2021-07-20T04:50:17.575Z</time>
      </trkpt>
      <trkpt lat="45.61825" lon="5.27528">
        <ele>227</ele>
        <time>2021-07-20T04:50:18.576Z</time>
      </trkpt>
      <trkpt lat="45.61828" lon="5.27519">
        <ele>227</ele>
        <time>2021-07-20T04:50:19.575Z</time>
      </trkpt>
      <trkpt lat="45.6183" lon="5.27509">
        <ele>227</ele>
        <time>2021-07-20T04:50:20.576Z</time>
      </trkpt>
      <trkpt lat="45.61833" lon="5.27501">
        <ele>227</ele>
        <time>2021-07-20T04:50:21.576Z</time>
      </trkpt>
      <trkpt lat="45.61837" lon="5.27493">
        <ele>227</ele>
        <time>2021-07-20T04:50:22.576Z</time>
      </trkpt>
      <trkpt lat="45.61842" lon="5.27488">
        <ele>226</ele>
        <time>2021-07-20T04:50:23.576Z</time>
      </trkpt>
      <trkpt lat="45.61848" lon="5.27485">
        <ele>226</ele>
        <time>2021-07-20T04:50:24.576Z</time>
      </trkpt>
      <trkpt lat="45.61854" lon="5.27486">
        <ele>226</ele>
        <time>2021-07-20T04:50:25.575Z</time>
      </trkpt>
      <trkpt lat="45.6186" lon="5.27488">
        <ele>226</ele>
        <time>2021-07-20T04:50:26.576Z</time>
      </trkpt>
      <trkpt lat="45.61866" lon="5.27492">
        <ele>225</ele>
        <time>2021-07-20T04:50:27.576Z</time>
      </trkpt>
      <trkpt lat="45.61872" lon="5.27496">
        <ele>225</ele>
        <time>2021-07-20T04:50:28.576Z</time>
      </trkpt>
      <trkpt lat="45.61878" lon="5.27502">
        <ele>225</ele>
        <time>2021-07-20T04:50:29.575Z</time>
      </trkpt>
      <trkpt lat="45.61884" lon="5.27508">
        <ele>225</ele>
        <time>2021-07-20T04:50:30.575Z</time>
      </trkpt>
      <trkpt lat="45.6189" lon="5.27513">
        <ele>225</ele>
        <time>2021-07-20T04:50:31.576Z</time>
      </trkpt>
      <trkpt lat="45.61896" lon="5.27519">
        <ele>225</ele>
        <time>2021-07-20T04:50:32.576Z</time>
      </trkpt>
      <trkpt lat="45.61902" lon="5.27525">
        <ele>224</ele>
        <time>2021-07-20T04:50:33.576Z</time>
      </trkpt>
      <trkpt lat="45.61908" lon="5.2753">
        <ele>224</ele>
        <time>2021-07-20T04:50:34.576Z</time>
      </trkpt>
      <trkpt lat="45.61914" lon="5.27535">
        <ele>224</ele>
        <time>2021-07-20T04:50:35.575Z</time>
      </trkpt>
      <trkpt lat="45.61919" lon="5.2754">
        <ele>224</ele>
        <time>2021-07-20T04:50:36.576Z</time>
      </trkpt>
      <trkpt lat="45.61925" lon="5.27546">
        <ele>224</ele>
        <time>2021-07-20T04:50:37.576Z</time>
      </trkpt>
      <trkpt lat="45.61931" lon="5.27551">
        <ele>223</ele>
        <time>2021-07-20T04:50:38.576Z</time>
      </trkpt>
      <trkpt lat="45.61937" lon="5.27557">
        <ele>223</ele>
        <time>2021-07-20T04:50:39.576Z</time>
      </trkpt>
      <trkpt lat="45.61942" lon="5.27562">
        <ele>223</ele>
        <time>2021-07-20T04:50:40.576Z</time>
      </trkpt>
      <trkpt lat="45.61947" lon="5.27568">
        <ele>223</ele>
        <time>2021-07-20T04:50:41.576Z</time>
      </trkpt>
      <trkpt lat="45.61952" lon="5.27574">
        <ele>223</ele>
        <time>2021-07-20T04:50:42.576Z</time>
      </trkpt>
      <trkpt lat="45.61958" lon="5.27579">
        <ele>224</ele>
        <time>2021-07-20T04:50:43.576Z</time>
      </trkpt>
      <trkpt lat="45.61963" lon="5.27586">
        <ele>224</ele>
        <time>2021-07-20T04:50:44.576Z</time>
      </trkpt>
      <trkpt lat="45.61967" lon="5.27593">
        <ele>224</ele>
        <time>2021-07-20T04:50:45.575Z</time>
      </trkpt>
      <trkpt lat="45.61972" lon="5.276">
        <ele>223</ele>
        <time>2021-07-20T04:50:46.576Z</time>
      </trkpt>
      <trkpt lat="45.61976" lon="5.27607">
        <ele>223</ele>
        <time>2021-07-20T04:50:47.576Z</time>
      </trkpt>
      <trkpt lat="45.6198" lon="5.27614">
        <ele>223</ele>
        <time>2021-07-20T04:50:48.576Z</time>
      </trkpt>
      <trkpt lat="45.61984" lon="5.2762">
        <ele>223</ele>
        <time>2021-07-20T04:50:49.575Z</time>
      </trkpt>
      <trkpt lat="45.61988" lon="5.27625">
        <ele>223</ele>
        <time>2021-07-20T04:50:50.576Z</time>
      </trkpt>
      <trkpt lat="45.61992" lon="5.27629">
        <ele>223</ele>
        <time>2021-07-20T04:50:51.575Z</time>
      </trkpt>
      <trkpt lat="45.61996" lon="5.27634">
        <ele>223</ele>
        <time>2021-07-20T04:50:52.576Z</time>
      </trkpt>
      <trkpt lat="45.61999" lon="5.27639">
        <ele>223</ele>
        <time>2021-07-20T04:50:53.575Z</time>
      </trkpt>
      <trkpt lat="45.62002" lon="5.27646">
        <ele>223</ele>
        <time>2021-07-20T04:50:54.576Z</time>
      </trkpt>
      <trkpt lat="45.62004" lon="5.27652">
        <ele>223</ele>
        <time>2021-07-20T04:50:55.576Z</time>
      </trkpt>
      <trkpt lat="45.62006" lon="5.27659">
        <ele>222</ele>
        <time>2021-07-20T04:50:56.576Z</time>
      </trkpt>
      <trkpt lat="45.62009" lon="5.27666">
        <ele>222</ele>
        <time>2021-07-20T04:50:57.576Z</time>
      </trkpt>
      <trkpt lat="45.62011" lon="5.27674">
        <ele>222</ele>
        <time>2021-07-20T04:50:58.575Z</time>
      </trkpt>
      <trkpt lat="45.62013" lon="5.27681">
        <ele>222</ele>
        <time>2021-07-20T04:50:59.576Z</time>
      </trkpt>
      <trkpt lat="45.62015" lon="5.27689">
        <ele>222</ele>
        <time>2021-07-20T04:51:00.575Z</time>
      </trkpt>
      <trkpt lat="45.62018" lon="5.27696">
        <ele>222</ele>
        <time>2021-07-20T04:51:01.576Z</time>
      </trkpt>
      <trkpt lat="45.6202" lon="5.27704">
        <ele>222</ele>
        <time>2021-07-20T04:51:02.576Z</time>
      </trkpt>
      <trkpt lat="45.62022" lon="5.27712">
        <ele>222</ele>
        <time>2021-07-20T04:51:03.575Z</time>
      </trkpt>
      <trkpt lat="45.62024" lon="5.27719">
        <ele>222</ele>
        <time>2021-07-20T04:51:04.576Z</time>
      </trkpt>
      <trkpt lat="45.62027" lon="5.27727">
        <ele>222</ele>
        <time>2021-07-20T04:51:05.576Z</time>
      </trkpt>
      <trkpt lat="45.62029" lon="5.27734">
        <ele>222</ele>
        <time>2021-07-20T04:51:06.576Z</time>
      </trkpt>
      <trkpt lat="45.62031" lon="5.27741">
        <ele>222</ele>
        <time>2021-07-20T04:51:07.576Z</time>
      </trkpt>
      <trkpt lat="45.62034" lon="5.27749">
        <ele>222</ele>
        <time>2021-07-20T04:51:08.576Z</time>
      </trkpt>
      <trkpt lat="45.62036" lon="5.27756">
        <ele>222</ele>
        <time>2021-07-20T04:51:09.575Z</time>
      </trkpt>
      <trkpt lat="45.62038" lon="5.27763">
        <ele>222</ele>
        <time>2021-07-20T04:51:10.576Z</time>
      </trkpt>
      <trkpt lat="45.62041" lon="5.2777">
        <ele>223</ele>
        <time>2021-07-20T04:51:11.575Z</time>
      </trkpt>
      <trkpt lat="45.62043" lon="5.27778">
        <ele>223</ele>
        <time>2021-07-20T04:51:12.575Z</time>
      </trkpt>
      <trkpt lat="45.62046" lon="5.27785">
        <ele>223</ele>
        <time>2021-07-20T04:51:13.576Z</time>
      </trkpt>
      <trkpt lat="45.62049" lon="5.27792">
        <ele>224</ele>
        <time>2021-07-20T04:51:14.576Z</time>
      </trkpt>
      <trkpt lat="45.62051" lon="5.27799">
        <ele>224</ele>
        <time>2021-07-20T04:51:15.576Z</time>
      </trkpt>
      <trkpt lat="45.62054" lon="5.27806">
        <ele>223</ele>
        <time>2021-07-20T04:51:16.576Z</time>
      </trkpt>
      <trkpt lat="45.62056" lon="5.27813">
        <ele>224</ele>
        <time>2021-07-20T04:51:17.576Z</time>
      </trkpt>
      <trkpt lat="45.62059" lon="5.27819">
        <ele>224</ele>
        <time>2021-07-20T04:51:18.576Z</time>
      </trkpt>
      <trkpt lat="45.62062" lon="5.27826">
        <ele>224</ele>
        <time>2021-07-20T04:51:19.575Z</time>
      </trkpt>
      <trkpt lat="45.62064" lon="5.27833">
        <ele>225</ele>
        <time>2021-07-20T04:51:20.576Z</time>
      </trkpt>
      <trkpt lat="45.62067" lon="5.2784">
        <ele>226</ele>
        <time>2021-07-20T04:51:21.576Z</time>
      </trkpt>
      <trkpt lat="45.6207" lon="5.27846">
        <ele>226</ele>
        <time>2021-07-20T04:51:22.576Z</time>
      </trkpt>
      <trkpt lat="45.62073" lon="5.27853">
        <ele>226</ele>
        <time>2021-07-20T04:51:23.575Z</time>
      </trkpt>
      <trkpt lat="45.62076" lon="5.27859">
        <ele>226</ele>
        <time>2021-07-20T04:51:24.576Z</time>
      </trkpt>
      <trkpt lat="45.62079" lon="5.27865">
        <ele>227</ele>
        <time>2021-07-20T04:51:25.576Z</time>
      </trkpt>
      <trkpt lat="45.62082" lon="5.27872">
        <ele>227</ele>
        <time>2021-07-20T04:51:26.575Z</time>
      </trkpt>
      <trkpt lat="45.62084" lon="5.27878">
        <ele>227</ele>
        <time>2021-07-20T04:51:27.576Z</time>
      </trkpt>
      <trkpt lat="45.62087" lon="5.27885">
        <ele>227</ele>
        <time>2021-07-20T04:51:28.576Z</time>
      </trkpt>
      <trkpt lat="45.6209" lon="5.27891">
        <ele>227</ele>
        <time>2021-07-20T04:51:29.576Z</time>
      </trkpt>
      <trkpt lat="45.62093" lon="5.27897">
        <ele>227</ele>
        <time>2021-07-20T04:51:30.575Z</time>
      </trkpt>
      <trkpt lat="45.62096" lon="5.27904">
        <ele>227</ele>
        <time>2021-07-20T04:51:31.576Z</time>
      </trkpt>
      <trkpt lat="45.62099" lon="5.2791">
        <ele>228</ele>
        <time>2021-07-20T04:51:32.576Z</time>
      </trkpt>
      <trkpt lat="45.62103" lon="5.27917">
        <ele>228</ele>
        <time>2021-07-20T04:51:33.576Z</time>
      </trkpt>
      <trkpt lat="45.62106" lon="5.27923">
        <ele>227</ele>
        <time>2021-07-20T04:51:34.575Z</time>
      </trkpt>
      <trkpt lat="45.62109" lon="5.27929">
        <ele>227</ele>
        <time>2021-07-20T04:51:35.575Z</time>
      </trkpt>
      <trkpt lat="45.62112" lon="5.27935">
        <ele>227</ele>
        <time>2021-07-20T04:51:36.575Z</time>
      </trkpt>
      <trkpt lat="45.62116" lon="5.27942">
        <ele>227</ele>
        <time>2021-07-20T04:51:37.576Z</time>
      </trkpt>
      <trkpt lat="45.62119" lon="5.27948">
        <ele>227</ele>
        <time>2021-07-20T04:51:38.576Z</time>
      </trkpt>
      <trkpt lat="45.62123" lon="5.27954">
        <ele>227</ele>
        <time>2021-07-20T04:51:39.575Z</time>
      </trkpt>
      <trkpt lat="45.62127" lon="5.27961">
        <ele>227</ele>
        <time>2021-07-20T04:51:40.575Z</time>
      </trkpt>
      <trkpt lat="45.6213" lon="5.27967">
        <ele>227</ele>
        <time>2021-07-20T04:51:41.576Z</time>
      </trkpt>
      <trkpt lat="45.62134" lon="5.27973">
        <ele>227</ele>
        <time>2021-07-20T04:51:42.576Z</time>
      </trkpt>
      <trkpt lat="45.62138" lon="5.2798">
        <ele>227</ele>
        <time>2021-07-20T04:51:43.575Z</time>
      </trkpt>
      <trkpt lat="45.62142" lon="5.27986">
        <ele>227</ele>
        <time>2021-07-20T04:51:44.576Z</time>
      </trkpt>
      <trkpt lat="45.62146" lon="5.27993">
        <ele>227</ele>
        <time>2021-07-20T04:51:45.576Z</time>
      </trkpt>
      <trkpt lat="45.62151" lon="5.27999">
        <ele>227</ele>
        <time>2021-07-20T04:51:46.576Z</time>
      </trkpt>
      <trkpt lat="45.62155" lon="5.28006">
        <ele>227</ele>
        <time>2021-07-20T04:51:47.576Z</time>
      </trkpt>
      <trkpt lat="45.6216" lon="5.28014">
        <ele>227</ele>
        <time>2021-07-20T04:51:48.576Z</time>
      </trkpt>
      <trkpt lat="45.62164" lon="5.28019">
        <ele>227</ele>
        <time>2021-07-20T04:51:49.576Z</time>
      </trkpt>
      <trkpt lat="45.62169" lon="5.28026">
        <ele>227</ele>
        <time>2021-07-20T04:51:50.576Z</time>
      </trkpt>
      <trkpt lat="45.62175" lon="5.28034">
        <ele>227</ele>
        <time>2021-07-20T04:51:51.576Z</time>
      </trkpt>
      <trkpt lat="45.62179" lon="5.28039">
        <ele>227</ele>
        <time>2021-07-20T04:51:52.576Z</time>
      </trkpt>
      <trkpt lat="45.62186" lon="5.28047">
        <ele>228</ele>
        <time>2021-07-20T04:51:53.575Z</time>
      </trkpt>
      <trkpt lat="45.6219" lon="5.28053">
        <ele>228</ele>
        <time>2021-07-20T04:51:54.575Z</time>
      </trkpt>
      <trkpt lat="45.62196" lon="5.28061">
        <ele>228</ele>
        <time>2021-07-20T04:51:55.575Z</time>
      </trkpt>
      <trkpt lat="45.62202" lon="5.28068">
        <ele>228</ele>
        <time>2021-07-20T04:51:56.576Z</time>
      </trkpt>
      <trkpt lat="45.62208" lon="5.28076">
        <ele>228</ele>
        <time>2021-07-20T04:51:57.576Z</time>
      </trkpt>
      <trkpt lat="45.62214" lon="5.28084">
        <ele>227</ele>
        <time>2021-07-20T04:51:58.575Z</time>
      </trkpt>
      <trkpt lat="45.62221" lon="5.28092">
        <ele>227</ele>
        <time>2021-07-20T04:51:59.575Z</time>
      </trkpt>
      <trkpt lat="45.62227" lon="5.28101">
        <ele>227</ele>
        <time>2021-07-20T04:52:00.576Z</time>
      </trkpt>
      <trkpt lat="45.62234" lon="5.28109">
        <ele>227</ele>
        <time>2021-07-20T04:52:01.575Z</time>
      </trkpt>
      <trkpt lat="45.62241" lon="5.28117">
        <ele>227</ele>
        <time>2021-07-20T04:52:02.576Z</time>
      </trkpt>
      <trkpt lat="45.62248" lon="5.28126">
        <ele>227</ele>
        <time>2021-07-20T04:52:03.576Z</time>
      </trkpt>
      <trkpt lat="45.62255" lon="5.28134">
        <ele>226</ele>
        <time>2021-07-20T04:52:04.575Z</time>
      </trkpt>
      <trkpt lat="45.62262" lon="5.28143">
        <ele>226</ele>
        <time>2021-07-20T04:52:05.576Z</time>
      </trkpt>
      <trkpt lat="45.62269" lon="5.28152">
        <ele>225</ele>
        <time>2021-07-20T04:52:06.576Z</time>
      </trkpt>
      <trkpt lat="45.62276" lon="5.28161">
        <ele>225</ele>
        <time>2021-07-20T04:52:07.576Z</time>
      </trkpt>
      <trkpt lat="45.62284" lon="5.2817">
        <ele>226</ele>
        <time>2021-07-20T04:52:08.575Z</time>
      </trkpt>
      <trkpt lat="45.62291" lon="5.28179">
        <ele>226</ele>
        <time>2021-07-20T04:52:09.576Z</time>
      </trkpt>
      <trkpt lat="45.62298" lon="5.28188">
        <ele>226</ele>
        <time>2021-07-20T04:52:10.575Z</time>
      </trkpt>
      <trkpt lat="45.62305" lon="5.28197">
        <ele>226</ele>
        <time>2021-07-20T04:52:11.575Z</time>
      </trkpt>
      <trkpt lat="45.62313" lon="5.28206">
        <ele>226</ele>
        <time>2021-07-20T04:52:12.575Z</time>
      </trkpt>
      <trkpt lat="45.6232" lon="5.28215">
        <ele>226</ele>
        <time>2021-07-20T04:52:13.576Z</time>
      </trkpt>
      <trkpt lat="45.62327" lon="5.28225">
        <ele>225</ele>
        <time>2021-07-20T04:52:14.576Z</time>
      </trkpt>
      <trkpt lat="45.62334" lon="5.28234">
        <ele>225</ele>
        <time>2021-07-20T04:52:15.576Z</time>
      </trkpt>
      <trkpt lat="45.62342" lon="5.28243">
        <ele>225</ele>
        <time>2021-07-20T04:52:16.576Z</time>
      </trkpt>
      <trkpt lat="45.62349" lon="5.28252">
        <ele>225</ele>
        <time>2021-07-20T04:52:17.576Z</time>
      </trkpt>
      <trkpt lat="45.62356" lon="5.28262">
        <ele>225</ele>
        <time>2021-07-20T04:52:18.575Z</time>
      </trkpt>
      <trkpt lat="45.62363" lon="5.28271">
        <ele>224</ele>
        <time>2021-07-20T04:52:19.576Z</time>
      </trkpt>
      <trkpt lat="45.6237" lon="5.2828">
        <ele>224</ele>
        <time>2021-07-20T04:52:20.575Z</time>
      </trkpt>
      <trkpt lat="45.62377" lon="5.28289">
        <ele>223</ele>
        <time>2021-07-20T04:52:21.575Z</time>
      </trkpt>
      <trkpt lat="45.62384" lon="5.28298">
        <ele>223</ele>
        <time>2021-07-20T04:52:22.576Z</time>
      </trkpt>
      <trkpt lat="45.62391" lon="5.28306">
        <ele>222</ele>
        <time>2021-07-20T04:52:23.575Z</time>
      </trkpt>
      <trkpt lat="45.62398" lon="5.28315">
        <ele>222</ele>
        <time>2021-07-20T04:52:24.575Z</time>
      </trkpt>
      <trkpt lat="45.62405" lon="5.28324">
        <ele>222</ele>
        <time>2021-07-20T04:52:25.576Z</time>
      </trkpt>
      <trkpt lat="45.62412" lon="5.28333">
        <ele>222</ele>
        <time>2021-07-20T04:52:26.575Z</time>
      </trkpt>
      <trkpt lat="45.62419" lon="5.28342">
        <ele>222</ele>
        <time>2021-07-20T04:52:27.575Z</time>
      </trkpt>
      <trkpt lat="45.62426" lon="5.2835">
        <ele>222</ele>
        <time>2021-07-20T04:52:28.576Z</time>
      </trkpt>
      <trkpt lat="45.62432" lon="5.28359">
        <ele>222</ele>
        <time>2021-07-20T04:52:29.575Z</time>
      </trkpt>
      <trkpt lat="45.62439" lon="5.28367">
        <ele>222</ele>
        <time>2021-07-20T04:52:30.576Z</time>
      </trkpt>
      <trkpt lat="45.62445" lon="5.28375">
        <ele>221</ele>
        <time>2021-07-20T04:52:31.576Z</time>
      </trkpt>
      <trkpt lat="45.62451" lon="5.28384">
        <ele>222</ele>
        <time>2021-07-20T04:52:32.576Z</time>
      </trkpt>
      <trkpt lat="45.62457" lon="5.28393">
        <ele>222</ele>
        <time>2021-07-20T04:52:33.576Z</time>
      </trkpt>
      <trkpt lat="45.62462" lon="5.28403">
        <ele>222</ele>
        <time>2021-07-20T04:52:34.576Z</time>
      </trkpt>
      <trkpt lat="45.62467" lon="5.28413">
        <ele>222</ele>
        <time>2021-07-20T04:52:35.575Z</time>
      </trkpt>
      <trkpt lat="45.62472" lon="5.28423">
        <ele>222</ele>
        <time>2021-07-20T04:52:36.575Z</time>
      </trkpt>
      <trkpt lat="45.62475" lon="5.28434">
        <ele>222</ele>
        <time>2021-07-20T04:52:37.576Z</time>
      </trkpt>
      <trkpt lat="45.62479" lon="5.28445">
        <ele>222</ele>
        <time>2021-07-20T04:52:38.576Z</time>
      </trkpt>
      <trkpt lat="45.62481" lon="5.28457">
        <ele>222</ele>
        <time>2021-07-20T04:52:39.575Z</time>
      </trkpt>
      <trkpt lat="45.62483" lon="5.28468">
        <ele>222</ele>
        <time>2021-07-20T04:52:40.575Z</time>
      </trkpt>
      <trkpt lat="45.62485" lon="5.2848">
        <ele>222</ele>
        <time>2021-07-20T04:52:41.576Z</time>
      </trkpt>
      <trkpt lat="45.62487" lon="5.28491">
        <ele>221</ele>
        <time>2021-07-20T04:52:42.576Z</time>
      </trkpt>
      <trkpt lat="45.62488" lon="5.28503">
        <ele>221</ele>
        <time>2021-07-20T04:52:43.575Z</time>
      </trkpt>
      <trkpt lat="45.6249" lon="5.28513">
        <ele>221</ele>
        <time>2021-07-20T04:52:44.576Z</time>
      </trkpt>
      <trkpt lat="45.62492" lon="5.28524">
        <ele>221</ele>
        <time>2021-07-20T04:52:45.575Z</time>
      </trkpt>
      <trkpt lat="45.62495" lon="5.28534">
        <ele>221</ele>
        <time>2021-07-20T04:52:46.576Z</time>
      </trkpt>
      <trkpt lat="45.62498" lon="5.28544">
        <ele>221</ele>
        <time>2021-07-20T04:52:47.576Z</time>
      </trkpt>
      <trkpt lat="45.62502" lon="5.28553">
        <ele>221</ele>
        <time>2021-07-20T04:52:48.575Z</time>
      </trkpt>
      <trkpt lat="45.62506" lon="5.28561">
        <ele>221</ele>
        <time>2021-07-20T04:52:49.576Z</time>
      </trkpt>
      <trkpt lat="45.62511" lon="5.28569">
        <ele>221</ele>
        <time>2021-07-20T04:52:50.576Z</time>
      </trkpt>
      <trkpt lat="45.62516" lon="5.28577">
        <ele>221</ele>
        <time>2021-07-20T04:52:51.575Z</time>
      </trkpt>
      <trkpt lat="45.62521" lon="5.28584">
        <ele>221</ele>
        <time>2021-07-20T04:52:52.575Z</time>
      </trkpt>
      <trkpt lat="45.62526" lon="5.28592">
        <ele>221</ele>
        <time>2021-07-20T04:52:53.575Z</time>
      </trkpt>
      <trkpt lat="45.62531" lon="5.286">
        <ele>221</ele>
        <time>2021-07-20T04:52:54.575Z</time>
      </trkpt>
      <trkpt lat="45.62536" lon="5.28608">
        <ele>221</ele>
        <time>2021-07-20T04:52:55.576Z</time>
      </trkpt>
      <trkpt lat="45.62541" lon="5.28617">
        <ele>221</ele>
        <time>2021-07-20T04:52:56.575Z</time>
      </trkpt>
      <trkpt lat="45.62546" lon="5.28625">
        <ele>221</ele>
        <time>2021-07-20T04:52:57.576Z</time>
      </trkpt>
      <trkpt lat="45.62551" lon="5.28633">
        <ele>221</ele>
        <time>2021-07-20T04:52:58.575Z</time>
      </trkpt>
      <trkpt lat="45.62555" lon="5.28642">
        <ele>221</ele>
        <time>2021-07-20T04:52:59.576Z</time>
      </trkpt>
      <trkpt lat="45.6256" lon="5.2865">
        <ele>221</ele>
        <time>2021-07-20T04:53:00.575Z</time>
      </trkpt>
      <trkpt lat="45.62565" lon="5.28658">
        <ele>221</ele>
        <time>2021-07-20T04:53:01.575Z</time>
      </trkpt>
      <trkpt lat="45.6257" lon="5.28667">
        <ele>221</ele>
        <time>2021-07-20T04:53:02.576Z</time>
      </trkpt>
      <trkpt lat="45.62574" lon="5.28675">
        <ele>222</ele>
        <time>2021-07-20T04:53:03.576Z</time>
      </trkpt>
      <trkpt lat="45.62577" lon="5.28685">
        <ele>222</ele>
        <time>2021-07-20T04:53:04.576Z</time>
      </trkpt>
      <trkpt lat="45.6258" lon="5.28694">
        <ele>222</ele>
        <time>2021-07-20T04:53:05.576Z</time>
      </trkpt>
      <trkpt lat="45.62583" lon="5.28703">
        <ele>222</ele>
        <time>2021-07-20T04:53:06.576Z</time>
      </trkpt>
      <trkpt lat="45.62588" lon="5.2871">
        <ele>222</ele>
        <time>2021-07-20T04:53:07.575Z</time>
      </trkpt>
      <trkpt lat="45.62594" lon="5.28715">
        <ele>221</ele>
        <time>2021-07-20T04:53:08.576Z</time>
      </trkpt>
      <trkpt lat="45.62601" lon="5.28716">
        <ele>221</ele>
        <time>2021-07-20T04:53:09.575Z</time>
      </trkpt>
      <trkpt lat="45.62607" lon="5.28716">
        <ele>221</ele>
        <time>2021-07-20T04:53:10.576Z</time>
      </trkpt>
      <trkpt lat="45.62615" lon="5.28715">
        <ele>221</ele>
        <time>2021-07-20T04:53:11.575Z</time>
      </trkpt>
      <trkpt lat="45.62622" lon="5.28713">
        <ele>221</ele>
        <time>2021-07-20T04:53:12.575Z</time>
      </trkpt>
      <trkpt lat="45.6263" lon="5.28713">
        <ele>221</ele>
        <time>2021-07-20T04:53:13.576Z</time>
      </trkpt>
      <trkpt lat="45.62638" lon="5.28713">
        <ele>221</ele>
        <time>2021-07-20T04:53:14.576Z</time>
      </trkpt>
      <trkpt lat="45.62646" lon="5.28713">
        <ele>221</ele>
        <time>2021-07-20T04:53:15.575Z</time>
      </trkpt>
      <trkpt lat="45.62654" lon="5.28713">
        <ele>221</ele>
        <time>2021-07-20T04:53:16.576Z</time>
      </trkpt>
      <trkpt lat="45.62663" lon="5.28714">
        <ele>221</ele>
        <time>2021-07-20T04:53:17.575Z</time>
      </trkpt>
      <trkpt lat="45.62671" lon="5.28715">
        <ele>221</ele>
        <time>2021-07-20T04:53:18.575Z</time>
      </trkpt>
      <trkpt lat="45.62679" lon="5.28716">
        <ele>221</ele>
        <time>2021-07-20T04:53:19.575Z</time>
      </trkpt>
      <trkpt lat="45.62687" lon="5.28717">
        <ele>221</ele>
        <time>2021-07-20T04:53:20.575Z</time>
      </trkpt>
      <trkpt lat="45.62694" lon="5.28718">
        <ele>221</ele>
        <time>2021-07-20T04:53:21.576Z</time>
      </trkpt>
      <trkpt lat="45.62702" lon="5.2872">
        <ele>221</ele>
        <time>2021-07-20T04:53:22.576Z</time>
      </trkpt>
      <trkpt lat="45.62709" lon="5.28723">
        <ele>221</ele>
        <time>2021-07-20T04:53:23.576Z</time>
      </trkpt>
      <trkpt lat="45.62716" lon="5.28727">
        <ele>221</ele>
        <time>2021-07-20T04:53:24.575Z</time>
      </trkpt>
      <trkpt lat="45.62723" lon="5.28732">
        <ele>221</ele>
        <time>2021-07-20T04:53:25.575Z</time>
      </trkpt>
      <trkpt lat="45.6273" lon="5.28737">
        <ele>221</ele>
        <time>2021-07-20T04:53:26.575Z</time>
      </trkpt>
      <trkpt lat="45.62736" lon="5.28744">
        <ele>220</ele>
        <time>2021-07-20T04:53:27.575Z</time>
      </trkpt>
      <trkpt lat="45.62743" lon="5.28752">
        <ele>220</ele>
        <time>2021-07-20T04:53:28.575Z</time>
      </trkpt>
      <trkpt lat="45.62748" lon="5.28758">
        <ele>221</ele>
        <time>2021-07-20T04:53:29.575Z</time>
      </trkpt>
      <trkpt lat="45.62754" lon="5.28765">
        <ele>220</ele>
        <time>2021-07-20T04:53:30.576Z</time>
      </trkpt>
      <trkpt lat="45.62759" lon="5.28773">
        <ele>220</ele>
        <time>2021-07-20T04:53:31.575Z</time>
      </trkpt>
      <trkpt lat="45.62765" lon="5.2878">
        <ele>221</ele>
        <time>2021-07-20T04:53:32.576Z</time>
      </trkpt>
      <trkpt lat="45.62772" lon="5.28788">
        <ele>221</ele>
        <time>2021-07-20T04:53:33.576Z</time>
      </trkpt>
      <trkpt lat="45.62778" lon="5.28795">
        <ele>221</ele>
        <time>2021-07-20T04:53:34.576Z</time>
      </trkpt>
      <trkpt lat="45.62784" lon="5.28803">
        <ele>221</ele>
        <time>2021-07-20T04:53:35.576Z</time>
      </trkpt>
      <trkpt lat="45.6279" lon="5.28811">
        <ele>221</ele>
        <time>2021-07-20T04:53:36.575Z</time>
      </trkpt>
      <trkpt lat="45.62796" lon="5.28818">
        <ele>221</ele>
        <time>2021-07-20T04:53:37.576Z</time>
      </trkpt>
      <trkpt lat="45.62802" lon="5.28826">
        <ele>221</ele>
        <time>2021-07-20T04:53:38.576Z</time>
      </trkpt>
      <trkpt lat="45.62808" lon="5.28834">
        <ele>221</ele>
        <time>2021-07-20T04:53:39.576Z</time>
      </trkpt>
      <trkpt lat="45.62813" lon="5.28841">
        <ele>221</ele>
        <time>2021-07-20T04:53:40.576Z</time>
      </trkpt>
      <trkpt lat="45.62819" lon="5.28849">
        <ele>221</ele>
        <time>2021-07-20T04:53:41.576Z</time>
      </trkpt>
      <trkpt lat="45.62825" lon="5.28856">
        <ele>221</ele>
        <time>2021-07-20T04:53:42.576Z</time>
      </trkpt>
      <trkpt lat="45.6283" lon="5.28864">
        <ele>221</ele>
        <time>2021-07-20T04:53:43.576Z</time>
      </trkpt>
      <trkpt lat="45.62836" lon="5.28871">
        <ele>221</ele>
        <time>2021-07-20T04:53:44.576Z</time>
      </trkpt>
      <trkpt lat="45.62842" lon="5.28879">
        <ele>221</ele>
        <time>2021-07-20T04:53:45.576Z</time>
      </trkpt>
      <trkpt lat="45.62848" lon="5.28886">
        <ele>221</ele>
        <time>2021-07-20T04:53:46.576Z</time>
      </trkpt>
      <trkpt lat="45.62854" lon="5.28894">
        <ele>221</ele>
        <time>2021-07-20T04:53:47.575Z</time>
      </trkpt>
      <trkpt lat="45.6286" lon="5.28902">
        <ele>221</ele>
        <time>2021-07-20T04:53:48.576Z</time>
      </trkpt>
      <trkpt lat="45.62866" lon="5.28909">
        <ele>221</ele>
        <time>2021-07-20T04:53:49.575Z</time>
      </trkpt>
      <trkpt lat="45.62872" lon="5.28917">
        <ele>222</ele>
        <time>2021-07-20T04:53:50.576Z</time>
      </trkpt>
      <trkpt lat="45.62879" lon="5.28925">
        <ele>222</ele>
        <time>2021-07-20T04:53:51.575Z</time>
      </trkpt>
      <trkpt lat="45.62884" lon="5.28932">
        <ele>222</ele>
        <time>2021-07-20T04:53:52.575Z</time>
      </trkpt>
      <trkpt lat="45.6289" lon="5.2894">
        <ele>222</ele>
        <time>2021-07-20T04:53:53.576Z</time>
      </trkpt>
      <trkpt lat="45.62896" lon="5.28948">
        <ele>222</ele>
        <time>2021-07-20T04:53:54.576Z</time>
      </trkpt>
      <trkpt lat="45.62902" lon="5.28955">
        <ele>222</ele>
        <time>2021-07-20T04:53:55.576Z</time>
      </trkpt>
      <trkpt lat="45.62908" lon="5.28963">
        <ele>222</ele>
        <time>2021-07-20T04:53:56.575Z</time>
      </trkpt>
      <trkpt lat="45.62914" lon="5.2897">
        <ele>222</ele>
        <time>2021-07-20T04:53:57.576Z</time>
      </trkpt>
      <trkpt lat="45.6292" lon="5.28978">
        <ele>222</ele>
        <time>2021-07-20T04:53:58.575Z</time>
      </trkpt>
      <trkpt lat="45.62927" lon="5.28986">
        <ele>222</ele>
        <time>2021-07-20T04:53:59.576Z</time>
      </trkpt>
      <trkpt lat="45.62932" lon="5.28993">
        <ele>223</ele>
        <time>2021-07-20T04:54:00.576Z</time>
      </trkpt>
      <trkpt lat="45.62938" lon="5.29001">
        <ele>223</ele>
        <time>2021-07-20T04:54:01.576Z</time>
      </trkpt>
      <trkpt lat="45.62944" lon="5.29008">
        <ele>223</ele>
        <time>2021-07-20T04:54:02.576Z</time>
      </trkpt>
      <trkpt lat="45.6295" lon="5.29016">
        <ele>223</ele>
        <time>2021-07-20T04:54:03.576Z</time>
      </trkpt>
      <trkpt lat="45.62956" lon="5.29023">
        <ele>223</ele>
        <time>2021-07-20T04:54:04.575Z</time>
      </trkpt>
      <trkpt lat="45.62962" lon="5.29031">
        <ele>223</ele>
        <time>2021-07-20T04:54:05.575Z</time>
      </trkpt>
      <trkpt lat="45.62968" lon="5.29038">
        <ele>222</ele>
        <time>2021-07-20T04:54:06.576Z</time>
      </trkpt>
      <trkpt lat="45.62973" lon="5.29046">
        <ele>222</ele>
        <time>2021-07-20T04:54:07.576Z</time>
      </trkpt>
      <trkpt lat="45.62979" lon="5.29054">
        <ele>221</ele>
        <time>2021-07-20T04:54:08.576Z</time>
      </trkpt>
      <trkpt lat="45.62985" lon="5.29061">
        <ele>220</ele>
        <time>2021-07-20T04:54:09.575Z</time>
      </trkpt>
      <trkpt lat="45.62991" lon="5.29068">
        <ele>220</ele>
        <time>2021-07-20T04:54:10.576Z</time>
      </trkpt>
      <trkpt lat="45.62997" lon="5.29076">
        <ele>220</ele>
        <time>2021-07-20T04:54:11.576Z</time>
      </trkpt>
      <trkpt lat="45.63003" lon="5.29084">
        <ele>220</ele>
        <time>2021-07-20T04:54:12.575Z</time>
      </trkpt>
      <trkpt lat="45.63009" lon="5.29091">
        <ele>220</ele>
        <time>2021-07-20T04:54:13.575Z</time>
      </trkpt>
      <trkpt lat="45.63015" lon="5.29099">
        <ele>220</ele>
        <time>2021-07-20T04:54:14.575Z</time>
      </trkpt>
      <trkpt lat="45.63021" lon="5.29106">
        <ele>220</ele>
        <time>2021-07-20T04:54:15.576Z</time>
      </trkpt>
      <trkpt lat="45.63026" lon="5.29113">
        <ele>220</ele>
        <time>2021-07-20T04:54:16.576Z</time>
      </trkpt>
      <trkpt lat="45.63032" lon="5.29121">
        <ele>220</ele>
        <time>2021-07-20T04:54:17.575Z</time>
      </trkpt>
      <trkpt lat="45.63038" lon="5.29128">
        <ele>220</ele>
        <time>2021-07-20T04:54:18.576Z</time>
      </trkpt>
      <trkpt lat="45.63044" lon="5.29136">
        <ele>221</ele>
        <time>2021-07-20T04:54:19.575Z</time>
      </trkpt>
      <trkpt lat="45.6305" lon="5.29143">
        <ele>221</ele>
        <time>2021-07-20T04:54:20.575Z</time>
      </trkpt>
      <trkpt lat="45.63056" lon="5.29151">
        <ele>221</ele>
        <time>2021-07-20T04:54:21.576Z</time>
      </trkpt>
      <trkpt lat="45.63061" lon="5.29158">
        <ele>221</ele>
        <time>2021-07-20T04:54:22.575Z</time>
      </trkpt>
      <trkpt lat="45.63067" lon="5.29165">
        <ele>221</ele>
        <time>2021-07-20T04:54:23.575Z</time>
      </trkpt>
      <trkpt lat="45.63073" lon="5.29172">
        <ele>220</ele>
        <time>2021-07-20T04:54:24.576Z</time>
      </trkpt>
      <trkpt lat="45.63079" lon="5.2918">
        <ele>220</ele>
        <time>2021-07-20T04:54:25.575Z</time>
      </trkpt>
      <trkpt lat="45.63084" lon="5.29187">
        <ele>220</ele>
        <time>2021-07-20T04:54:26.576Z</time>
      </trkpt>
      <trkpt lat="45.6309" lon="5.29194">
        <ele>220</ele>
        <time>2021-07-20T04:54:27.576Z</time>
      </trkpt>
      <trkpt lat="45.63096" lon="5.29202">
        <ele>220</ele>
        <time>2021-07-20T04:54:28.576Z</time>
      </trkpt>
      <trkpt lat="45.63102" lon="5.29209">
        <ele>220</ele>
        <time>2021-07-20T04:54:29.575Z</time>
      </trkpt>
      <trkpt lat="45.63108" lon="5.29216">
        <ele>220</ele>
        <time>2021-07-20T04:54:30.575Z</time>
      </trkpt>
      <trkpt lat="45.63113" lon="5.29223">
        <ele>221</ele>
        <time>2021-07-20T04:54:31.576Z</time>
      </trkpt>
      <trkpt lat="45.63119" lon="5.29231">
        <ele>221</ele>
        <time>2021-07-20T04:54:32.575Z</time>
      </trkpt>
      <trkpt lat="45.63124" lon="5.29237">
        <ele>222</ele>
        <time>2021-07-20T04:54:33.575Z</time>
      </trkpt>
      <trkpt lat="45.6313" lon="5.29244">
        <ele>222</ele>
        <time>2021-07-20T04:54:34.575Z</time>
      </trkpt>
      <trkpt lat="45.63135" lon="5.29251">
        <ele>222</ele>
        <time>2021-07-20T04:54:35.576Z</time>
      </trkpt>
      <trkpt lat="45.63141" lon="5.29258">
        <ele>222</ele>
        <time>2021-07-20T04:54:36.575Z</time>
      </trkpt>
      <trkpt lat="45.63146" lon="5.29266">
        <ele>222</ele>
        <time>2021-07-20T04:54:37.576Z</time>
      </trkpt>
      <trkpt lat="45.63151" lon="5.29273">
        <ele>222</ele>
        <time>2021-07-20T04:54:38.576Z</time>
      </trkpt>
      <trkpt lat="45.63157" lon="5.2928">
        <ele>222</ele>
        <time>2021-07-20T04:54:39.575Z</time>
      </trkpt>
      <trkpt lat="45.63163" lon="5.29286">
        <ele>221</ele>
        <time>2021-07-20T04:54:40.576Z</time>
      </trkpt>
      <trkpt lat="45.63168" lon="5.29294">
        <ele>221</ele>
        <time>2021-07-20T04:54:41.575Z</time>
      </trkpt>
      <trkpt lat="45.63174" lon="5.29301">
        <ele>221</ele>
        <time>2021-07-20T04:54:42.575Z</time>
      </trkpt>
      <trkpt lat="45.63179" lon="5.29308">
        <ele>221</ele>
        <time>2021-07-20T04:54:43.576Z</time>
      </trkpt>
      <trkpt lat="45.63185" lon="5.29315">
        <ele>221</ele>
        <time>2021-07-20T04:54:44.576Z</time>
      </trkpt>
      <trkpt lat="45.63191" lon="5.29322">
        <ele>220</ele>
        <time>2021-07-20T04:54:45.576Z</time>
      </trkpt>
      <trkpt lat="45.63197" lon="5.2933">
        <ele>220</ele>
        <time>2021-07-20T04:54:46.576Z</time>
      </trkpt>
      <trkpt lat="45.63202" lon="5.29337">
        <ele>220</ele>
        <time>2021-07-20T04:54:47.576Z</time>
      </trkpt>
      <trkpt lat="45.63208" lon="5.29344">
        <ele>220</ele>
        <time>2021-07-20T04:54:48.575Z</time>
      </trkpt>
      <trkpt lat="45.63214" lon="5.29352">
        <ele>220</ele>
        <time>2021-07-20T04:54:49.576Z</time>
      </trkpt>
      <trkpt lat="45.63219" lon="5.29359">
        <ele>220</ele>
        <time>2021-07-20T04:54:50.576Z</time>
      </trkpt>
      <trkpt lat="45.63225" lon="5.29366">
        <ele>220</ele>
        <time>2021-07-20T04:54:51.576Z</time>
      </trkpt>
      <trkpt lat="45.63231" lon="5.29373">
        <ele>220</ele>
        <time>2021-07-20T04:54:52.576Z</time>
      </trkpt>
      <trkpt lat="45.63237" lon="5.29381">
        <ele>220</ele>
        <time>2021-07-20T04:54:53.576Z</time>
      </trkpt>
      <trkpt lat="45.63243" lon="5.29388">
        <ele>220</ele>
        <time>2021-07-20T04:54:54.575Z</time>
      </trkpt>
      <trkpt lat="45.63248" lon="5.29395">
        <ele>221</ele>
        <time>2021-07-20T04:54:55.575Z</time>
      </trkpt>
      <trkpt lat="45.63254" lon="5.29402">
        <ele>221</ele>
        <time>2021-07-20T04:54:56.575Z</time>
      </trkpt>
      <trkpt lat="45.63259" lon="5.29409">
        <ele>221</ele>
        <time>2021-07-20T04:54:57.575Z</time>
      </trkpt>
      <trkpt lat="45.63265" lon="5.29416">
        <ele>221</ele>
        <time>2021-07-20T04:54:58.576Z</time>
      </trkpt>
      <trkpt lat="45.6327" lon="5.29424">
        <ele>220</ele>
        <time>2021-07-20T04:54:59.576Z</time>
      </trkpt>
      <trkpt lat="45.63276" lon="5.2943">
        <ele>220</ele>
        <time>2021-07-20T04:55:00.576Z</time>
      </trkpt>
      <trkpt lat="45.63281" lon="5.29437">
        <ele>220</ele>
        <time>2021-07-20T04:55:01.576Z</time>
      </trkpt>
      <trkpt lat="45.63286" lon="5.29444">
        <ele>220</ele>
        <time>2021-07-20T04:55:02.575Z</time>
      </trkpt>
      <trkpt lat="45.63291" lon="5.29451">
        <ele>220</ele>
        <time>2021-07-20T04:55:03.575Z</time>
      </trkpt>
      <trkpt lat="45.63297" lon="5.29458">
        <ele>220</ele>
        <time>2021-07-20T04:55:04.576Z</time>
      </trkpt>
      <trkpt lat="45.63302" lon="5.29465">
        <ele>220</ele>
        <time>2021-07-20T04:55:05.576Z</time>
      </trkpt>
      <trkpt lat="45.63308" lon="5.29472">
        <ele>219</ele>
        <time>2021-07-20T04:55:06.575Z</time>
      </trkpt>
      <trkpt lat="45.63313" lon="5.29479">
        <ele>219</ele>
        <time>2021-07-20T04:55:07.576Z</time>
      </trkpt>
      <trkpt lat="45.63318" lon="5.29486">
        <ele>219</ele>
        <time>2021-07-20T04:55:08.575Z</time>
      </trkpt>
      <trkpt lat="45.63324" lon="5.29493">
        <ele>219</ele>
        <time>2021-07-20T04:55:09.576Z</time>
      </trkpt>
      <trkpt lat="45.63329" lon="5.29499">
        <ele>219</ele>
        <time>2021-07-20T04:55:10.576Z</time>
      </trkpt>
      <trkpt lat="45.63335" lon="5.29506">
        <ele>219</ele>
        <time>2021-07-20T04:55:11.575Z</time>
      </trkpt>
      <trkpt lat="45.6334" lon="5.29513">
        <ele>219</ele>
        <time>2021-07-20T04:55:12.576Z</time>
      </trkpt>
      <trkpt lat="45.63346" lon="5.29519">
        <ele>219</ele>
        <time>2021-07-20T04:55:13.576Z</time>
      </trkpt>
      <trkpt lat="45.63353" lon="5.29526">
        <ele>219</ele>
        <time>2021-07-20T04:55:14.575Z</time>
      </trkpt>
      <trkpt lat="45.63359" lon="5.29532">
        <ele>219</ele>
        <time>2021-07-20T04:55:15.576Z</time>
      </trkpt>
      <trkpt lat="45.63365" lon="5.29537">
        <ele>219</ele>
        <time>2021-07-20T04:55:16.576Z</time>
      </trkpt>
      <trkpt lat="45.63372" lon="5.29542">
        <ele>219</ele>
        <time>2021-07-20T04:55:17.576Z</time>
      </trkpt>
      <trkpt lat="45.63378" lon="5.29548">
        <ele>220</ele>
        <time>2021-07-20T04:55:18.576Z</time>
      </trkpt>
      <trkpt lat="45.63385" lon="5.29552">
        <ele>220</ele>
        <time>2021-07-20T04:55:19.576Z</time>
      </trkpt>
      <trkpt lat="45.63392" lon="5.29557">
        <ele>220</ele>
        <time>2021-07-20T04:55:20.576Z</time>
      </trkpt>
      <trkpt lat="45.63399" lon="5.29561">
        <ele>220</ele>
        <time>2021-07-20T04:55:21.576Z</time>
      </trkpt>
      <trkpt lat="45.63405" lon="5.29565">
        <ele>220</ele>
        <time>2021-07-20T04:55:22.576Z</time>
      </trkpt>
      <trkpt lat="45.63412" lon="5.29568">
        <ele>220</ele>
        <time>2021-07-20T04:55:23.576Z</time>
      </trkpt>
      <trkpt lat="45.6342" lon="5.29571">
        <ele>220</ele>
        <time>2021-07-20T04:55:24.575Z</time>
      </trkpt>
      <trkpt lat="45.63427" lon="5.29574">
        <ele>221</ele>
        <time>2021-07-20T04:55:25.576Z</time>
      </trkpt>
      <trkpt lat="45.63434" lon="5.29576">
        <ele>221</ele>
        <time>2021-07-20T04:55:26.576Z</time>
      </trkpt>
      <trkpt lat="45.63441" lon="5.29578">
        <ele>221</ele>
        <time>2021-07-20T04:55:27.576Z</time>
      </trkpt>
      <trkpt lat="45.63449" lon="5.2958">
        <ele>221</ele>
        <time>2021-07-20T04:55:28.575Z</time>
      </trkpt>
      <trkpt lat="45.63456" lon="5.29582">
        <ele>221</ele>
        <time>2021-07-20T04:55:29.576Z</time>
      </trkpt>
      <trkpt lat="45.63464" lon="5.29583">
        <ele>221</ele>
        <time>2021-07-20T04:55:30.576Z</time>
      </trkpt>
      <trkpt lat="45.63471" lon="5.29585">
        <ele>221</ele>
        <time>2021-07-20T04:55:31.576Z</time>
      </trkpt>
      <trkpt lat="45.63479" lon="5.29586">
        <ele>220</ele>
        <time>2021-07-20T04:55:32.576Z</time>
      </trkpt>
      <trkpt lat="45.63486" lon="5.29587">
        <ele>220</ele>
        <time>2021-07-20T04:55:33.576Z</time>
      </trkpt>
      <trkpt lat="45.63494" lon="5.29588">
        <ele>220</ele>
        <time>2021-07-20T04:55:34.575Z</time>
      </trkpt>
      <trkpt lat="45.63501" lon="5.29589">
        <ele>220</ele>
        <time>2021-07-20T04:55:35.576Z</time>
      </trkpt>
      <trkpt lat="45.63509" lon="5.29591">
        <ele>220</ele>
        <time>2021-07-20T04:55:36.576Z</time>
      </trkpt>
      <trkpt lat="45.63516" lon="5.29592">
        <ele>220</ele>
        <time>2021-07-20T04:55:37.576Z</time>
      </trkpt>
      <trkpt lat="45.63524" lon="5.29593">
        <ele>221</ele>
        <time>2021-07-20T04:55:38.576Z</time>
      </trkpt>
      <trkpt lat="45.63531" lon="5.29594">
        <ele>221</ele>
        <time>2021-07-20T04:55:39.576Z</time>
      </trkpt>
      <trkpt lat="45.63539" lon="5.29595">
        <ele>221</ele>
        <time>2021-07-20T04:55:40.576Z</time>
      </trkpt>
      <trkpt lat="45.63546" lon="5.29596">
        <ele>220</ele>
        <time>2021-07-20T04:55:41.576Z</time>
      </trkpt>
      <trkpt lat="45.63554" lon="5.29597">
        <ele>221</ele>
        <time>2021-07-20T04:55:42.576Z</time>
      </trkpt>
      <trkpt lat="45.63561" lon="5.29598">
        <ele>221</ele>
        <time>2021-07-20T04:55:43.576Z</time>
      </trkpt>
      <trkpt lat="45.63568" lon="5.29599">
        <ele>220</ele>
        <time>2021-07-20T04:55:44.575Z</time>
      </trkpt>
      <trkpt lat="45.63575" lon="5.296">
        <ele>220</ele>
        <time>2021-07-20T04:55:45.576Z</time>
      </trkpt>
      <trkpt lat="45.63582" lon="5.29601">
        <ele>221</ele>
        <time>2021-07-20T04:55:46.575Z</time>
      </trkpt>
      <trkpt lat="45.63589" lon="5.29602">
        <ele>221</ele>
        <time>2021-07-20T04:55:47.576Z</time>
      </trkpt>
      <trkpt lat="45.63596" lon="5.29603">
        <ele>221</ele>
        <time>2021-07-20T04:55:48.576Z</time>
      </trkpt>
      <trkpt lat="45.63603" lon="5.29604">
        <ele>221</ele>
        <time>2021-07-20T04:55:49.575Z</time>
      </trkpt>
      <trkpt lat="45.63611" lon="5.29605">
        <ele>221</ele>
        <time>2021-07-20T04:55:50.576Z</time>
      </trkpt>
      <trkpt lat="45.63618" lon="5.29606">
        <ele>222</ele>
        <time>2021-07-20T04:55:51.575Z</time>
      </trkpt>
      <trkpt lat="45.63625" lon="5.29607">
        <ele>222</ele>
        <time>2021-07-20T04:55:52.576Z</time>
      </trkpt>
      <trkpt lat="45.63632" lon="5.29608">
        <ele>222</ele>
        <time>2021-07-20T04:55:53.576Z</time>
      </trkpt>
      <trkpt lat="45.63639" lon="5.29609">
        <ele>223</ele>
        <time>2021-07-20T04:55:54.575Z</time>
      </trkpt>
      <trkpt lat="45.63646" lon="5.2961">
        <ele>223</ele>
        <time>2021-07-20T04:55:55.575Z</time>
      </trkpt>
      <trkpt lat="45.63653" lon="5.29611">
        <ele>223</ele>
        <time>2021-07-20T04:55:56.575Z</time>
      </trkpt>
      <trkpt lat="45.63661" lon="5.29612">
        <ele>222</ele>
        <time>2021-07-20T04:55:57.575Z</time>
      </trkpt>
      <trkpt lat="45.63668" lon="5.29613">
        <ele>222</ele>
        <time>2021-07-20T04:55:58.576Z</time>
      </trkpt>
      <trkpt lat="45.63675" lon="5.29614">
        <ele>222</ele>
        <time>2021-07-20T04:55:59.576Z</time>
      </trkpt>
      <trkpt lat="45.63682" lon="5.29615">
        <ele>222</ele>
        <time>2021-07-20T04:56:00.575Z</time>
      </trkpt>
      <trkpt lat="45.63689" lon="5.29617">
        <ele>222</ele>
        <time>2021-07-20T04:56:01.576Z</time>
      </trkpt>
      <trkpt lat="45.63696" lon="5.29618">
        <ele>222</ele>
        <time>2021-07-20T04:56:02.575Z</time>
      </trkpt>
      <trkpt lat="45.63705" lon="5.29619">
        <ele>222</ele>
        <time>2021-07-20T04:56:03.575Z</time>
      </trkpt>
      <trkpt lat="45.6371" lon="5.29619">
        <ele>222</ele>
        <time>2021-07-20T04:56:04.576Z</time>
      </trkpt>
      <trkpt lat="45.63717" lon="5.2962">
        <ele>223</ele>
        <time>2021-07-20T04:56:05.576Z</time>
      </trkpt>
      <trkpt lat="45.63724" lon="5.29621">
        <ele>223</ele>
        <time>2021-07-20T04:56:06.576Z</time>
      </trkpt>
      <trkpt lat="45.63731" lon="5.29623">
        <ele>224</ele>
        <time>2021-07-20T04:56:07.576Z</time>
      </trkpt>
      <trkpt lat="45.63738" lon="5.29624">
        <ele>224</ele>
        <time>2021-07-20T04:56:08.576Z</time>
      </trkpt>
      <trkpt lat="45.63746" lon="5.29625">
        <ele>224</ele>
        <time>2021-07-20T04:56:09.576Z</time>
      </trkpt>
      <trkpt lat="45.63753" lon="5.29626">
        <ele>224</ele>
        <time>2021-07-20T04:56:10.576Z</time>
      </trkpt>
      <trkpt lat="45.6376" lon="5.29628">
        <ele>224</ele>
        <time>2021-07-20T04:56:11.576Z</time>
      </trkpt>
      <trkpt lat="45.63768" lon="5.29629">
        <ele>223</ele>
        <time>2021-07-20T04:56:12.575Z</time>
      </trkpt>
      <trkpt lat="45.63775" lon="5.2963">
        <ele>223</ele>
        <time>2021-07-20T04:56:13.576Z</time>
      </trkpt>
      <trkpt lat="45.63783" lon="5.29631">
        <ele>222</ele>
        <time>2021-07-20T04:56:14.575Z</time>
      </trkpt>
      <trkpt lat="45.6379" lon="5.29632">
        <ele>222</ele>
        <time>2021-07-20T04:56:15.575Z</time>
      </trkpt>
      <trkpt lat="45.63798" lon="5.29633">
        <ele>223</ele>
        <time>2021-07-20T04:56:16.575Z</time>
      </trkpt>
      <trkpt lat="45.63806" lon="5.29634">
        <ele>223</ele>
        <time>2021-07-20T04:56:17.576Z</time>
      </trkpt>
      <trkpt lat="45.63813" lon="5.29635">
        <ele>223</ele>
        <time>2021-07-20T04:56:18.576Z</time>
      </trkpt>
      <trkpt lat="45.63821" lon="5.29636">
        <ele>223</ele>
        <time>2021-07-20T04:56:19.576Z</time>
      </trkpt>
      <trkpt lat="45.63828" lon="5.29638">
        <ele>223</ele>
        <time>2021-07-20T04:56:20.575Z</time>
      </trkpt>
      <trkpt lat="45.63836" lon="5.29639">
        <ele>222</ele>
        <time>2021-07-20T04:56:21.576Z</time>
      </trkpt>
      <trkpt lat="45.63844" lon="5.2964">
        <ele>222</ele>
        <time>2021-07-20T04:56:22.576Z</time>
      </trkpt>
      <trkpt lat="45.63852" lon="5.29641">
        <ele>222</ele>
        <time>2021-07-20T04:56:23.576Z</time>
      </trkpt>
      <trkpt lat="45.6386" lon="5.29643">
        <ele>222</ele>
        <time>2021-07-20T04:56:24.575Z</time>
      </trkpt>
      <trkpt lat="45.63868" lon="5.29644">
        <ele>222</ele>
        <time>2021-07-20T04:56:25.576Z</time>
      </trkpt>
      <trkpt lat="45.63876" lon="5.29645">
        <ele>222</ele>
        <time>2021-07-20T04:56:26.575Z</time>
      </trkpt>
      <trkpt lat="45.63884" lon="5.29646">
        <ele>222</ele>
        <time>2021-07-20T04:56:27.576Z</time>
      </trkpt>
      <trkpt lat="45.63892" lon="5.29648">
        <ele>222</ele>
        <time>2021-07-20T04:56:28.576Z</time>
      </trkpt>
      <trkpt lat="45.639" lon="5.29649">
        <ele>221</ele>
        <time>2021-07-20T04:56:29.576Z</time>
      </trkpt>
      <trkpt lat="45.63908" lon="5.2965">
        <ele>221</ele>
        <time>2021-07-20T04:56:30.576Z</time>
      </trkpt>
      <trkpt lat="45.63916" lon="5.29651">
        <ele>220</ele>
        <time>2021-07-20T04:56:31.576Z</time>
      </trkpt>
      <trkpt lat="45.63924" lon="5.29652">
        <ele>221</ele>
        <time>2021-07-20T04:56:32.575Z</time>
      </trkpt>
      <trkpt lat="45.63932" lon="5.29654">
        <ele>221</ele>
        <time>2021-07-20T04:56:33.576Z</time>
      </trkpt>
      <trkpt lat="45.6394" lon="5.29655">
        <ele>221</ele>
        <time>2021-07-20T04:56:34.575Z</time>
      </trkpt>
      <trkpt lat="45.63948" lon="5.29656">
        <ele>221</ele>
        <time>2021-07-20T04:56:35.576Z</time>
      </trkpt>
      <trkpt lat="45.63956" lon="5.29658">
        <ele>222</ele>
        <time>2021-07-20T04:56:36.575Z</time>
      </trkpt>
      <trkpt lat="45.63966" lon="5.29659">
        <ele>222</ele>
        <time>2021-07-20T04:56:37.576Z</time>
      </trkpt>
      <trkpt lat="45.63974" lon="5.2966">
        <ele>222</ele>
        <time>2021-07-20T04:56:38.576Z</time>
      </trkpt>
      <trkpt lat="45.63982" lon="5.29661">
        <ele>221</ele>
        <time>2021-07-20T04:56:39.576Z</time>
      </trkpt>
      <trkpt lat="45.63988" lon="5.29662">
        <ele>221</ele>
        <time>2021-07-20T04:56:40.575Z</time>
      </trkpt>
      <trkpt lat="45.63996" lon="5.29663">
        <ele>221</ele>
        <time>2021-07-20T04:56:41.576Z</time>
      </trkpt>
      <trkpt lat="45.64004" lon="5.29664">
        <ele>222</ele>
        <time>2021-07-20T04:56:42.576Z</time>
      </trkpt>
      <trkpt lat="45.64014" lon="5.29666">
        <ele>222</ele>
        <time>2021-07-20T04:56:43.576Z</time>
      </trkpt>
      <trkpt lat="45.64022" lon="5.29667">
        <ele>222</ele>
        <time>2021-07-20T04:56:44.576Z</time>
      </trkpt>
      <trkpt lat="45.64028" lon="5.29668">
        <ele>222</ele>
        <time>2021-07-20T04:56:45.575Z</time>
      </trkpt>
      <trkpt lat="45.64036" lon="5.29669">
        <ele>222</ele>
        <time>2021-07-20T04:56:46.576Z</time>
      </trkpt>
      <trkpt lat="45.64045" lon="5.2967">
        <ele>221</ele>
        <time>2021-07-20T04:56:47.575Z</time>
      </trkpt>
      <trkpt lat="45.64053" lon="5.29671">
        <ele>221</ele>
        <time>2021-07-20T04:56:48.576Z</time>
      </trkpt>
      <trkpt lat="45.64059" lon="5.29672">
        <ele>221</ele>
        <time>2021-07-20T04:56:49.576Z</time>
      </trkpt>
      <trkpt lat="45.64067" lon="5.29673">
        <ele>221</ele>
        <time>2021-07-20T04:56:50.575Z</time>
      </trkpt>
      <trkpt lat="45.64076" lon="5.29675">
        <ele>221</ele>
        <time>2021-07-20T04:56:51.576Z</time>
      </trkpt>
      <trkpt lat="45.64083" lon="5.29676">
        <ele>221</ele>
        <time>2021-07-20T04:56:52.576Z</time>
      </trkpt>
      <trkpt lat="45.64089" lon="5.29677">
        <ele>221</ele>
        <time>2021-07-20T04:56:53.575Z</time>
      </trkpt>
      <trkpt lat="45.64097" lon="5.29678">
        <ele>221</ele>
        <time>2021-07-20T04:56:54.576Z</time>
      </trkpt>
      <trkpt lat="45.64104" lon="5.29679">
        <ele>221</ele>
        <time>2021-07-20T04:56:55.575Z</time>
      </trkpt>
      <trkpt lat="45.64111" lon="5.2968">
        <ele>221</ele>
        <time>2021-07-20T04:56:56.575Z</time>
      </trkpt>
      <trkpt lat="45.64118" lon="5.29681">
        <ele>221</ele>
        <time>2021-07-20T04:56:57.576Z</time>
      </trkpt>
      <trkpt lat="45.64125" lon="5.29682">
        <ele>221</ele>
        <time>2021-07-20T04:56:58.576Z</time>
      </trkpt>
      <trkpt lat="45.64132" lon="5.29683">
        <ele>221</ele>
        <time>2021-07-20T04:56:59.576Z</time>
      </trkpt>
      <trkpt lat="45.6414" lon="5.29684">
        <ele>221</ele>
        <time>2021-07-20T04:57:00.576Z</time>
      </trkpt>
      <trkpt lat="45.64147" lon="5.29686">
        <ele>221</ele>
        <time>2021-07-20T04:57:01.576Z</time>
      </trkpt>
      <trkpt lat="45.64155" lon="5.29687">
        <ele>221</ele>
        <time>2021-07-20T04:57:02.576Z</time>
      </trkpt>
      <trkpt lat="45.64161" lon="5.29688">
        <ele>221</ele>
        <time>2021-07-20T04:57:03.576Z</time>
      </trkpt>
      <trkpt lat="45.64169" lon="5.29689">
        <ele>222</ele>
        <time>2021-07-20T04:57:04.575Z</time>
      </trkpt>
      <trkpt lat="45.64176" lon="5.29691">
        <ele>222</ele>
        <time>2021-07-20T04:57:05.576Z</time>
      </trkpt>
      <trkpt lat="45.64183" lon="5.29692">
        <ele>222</ele>
        <time>2021-07-20T04:57:06.576Z</time>
      </trkpt>
      <trkpt lat="45.64192" lon="5.29694">
        <ele>222</ele>
        <time>2021-07-20T04:57:07.576Z</time>
      </trkpt>
      <trkpt lat="45.64198" lon="5.29696">
        <ele>222</ele>
        <time>2021-07-20T04:57:08.576Z</time>
      </trkpt>
      <trkpt lat="45.64205" lon="5.29698">
        <ele>222</ele>
        <time>2021-07-20T04:57:09.576Z</time>
      </trkpt>
      <trkpt lat="45.64214" lon="5.29701">
        <ele>222</ele>
        <time>2021-07-20T04:57:10.575Z</time>
      </trkpt>
      <trkpt lat="45.6422" lon="5.29704">
        <ele>222</ele>
        <time>2021-07-20T04:57:11.576Z</time>
      </trkpt>
      <trkpt lat="45.64227" lon="5.29707">
        <ele>222</ele>
        <time>2021-07-20T04:57:12.575Z</time>
      </trkpt>
      <trkpt lat="45.64234" lon="5.29711">
        <ele>222</ele>
        <time>2021-07-20T04:57:13.576Z</time>
      </trkpt>
      <trkpt lat="45.64241" lon="5.29714">
        <ele>222</ele>
        <time>2021-07-20T04:57:14.575Z</time>
      </trkpt>
      <trkpt lat="45.64247" lon="5.29719">
        <ele>222</ele>
        <time>2021-07-20T04:57:15.576Z</time>
      </trkpt>
      <trkpt lat="45.64254" lon="5.29724">
        <ele>222</ele>
        <time>2021-07-20T04:57:16.576Z</time>
      </trkpt>
      <trkpt lat="45.6426" lon="5.29729">
        <ele>222</ele>
        <time>2021-07-20T04:57:17.576Z</time>
      </trkpt>
      <trkpt lat="45.64267" lon="5.29734">
        <ele>222</ele>
        <time>2021-07-20T04:57:18.575Z</time>
      </trkpt>
      <trkpt lat="45.64273" lon="5.2974">
        <ele>222</ele>
        <time>2021-07-20T04:57:19.575Z</time>
      </trkpt>
      <trkpt lat="45.6428" lon="5.29748">
        <ele>222</ele>
        <time>2021-07-20T04:57:20.575Z</time>
      </trkpt>
      <trkpt lat="45.64285" lon="5.29753">
        <ele>222</ele>
        <time>2021-07-20T04:57:21.575Z</time>
      </trkpt>
      <trkpt lat="45.6429" lon="5.29759">
        <ele>222</ele>
        <time>2021-07-20T04:57:22.575Z</time>
      </trkpt>
      <trkpt lat="45.64296" lon="5.29766">
        <ele>222</ele>
        <time>2021-07-20T04:57:23.575Z</time>
      </trkpt>
      <trkpt lat="45.64301" lon="5.29773">
        <ele>222</ele>
        <time>2021-07-20T04:57:24.576Z</time>
      </trkpt>
      <trkpt lat="45.64306" lon="5.2978">
        <ele>222</ele>
        <time>2021-07-20T04:57:25.575Z</time>
      </trkpt>
      <trkpt lat="45.64311" lon="5.29787">
        <ele>222</ele>
        <time>2021-07-20T04:57:26.576Z</time>
      </trkpt>
      <trkpt lat="45.64316" lon="5.29794">
        <ele>223</ele>
        <time>2021-07-20T04:57:27.576Z</time>
      </trkpt>
      <trkpt lat="45.64321" lon="5.298">
        <ele>223</ele>
        <time>2021-07-20T04:57:28.576Z</time>
      </trkpt>
      <trkpt lat="45.64326" lon="5.29807">
        <ele>223</ele>
        <time>2021-07-20T04:57:29.576Z</time>
      </trkpt>
      <trkpt lat="45.64331" lon="5.29814">
        <ele>223</ele>
        <time>2021-07-20T04:57:30.575Z</time>
      </trkpt>
      <trkpt lat="45.64336" lon="5.29821">
        <ele>223</ele>
        <time>2021-07-20T04:57:31.575Z</time>
      </trkpt>
      <trkpt lat="45.6434" lon="5.29829">
        <ele>223</ele>
        <time>2021-07-20T04:57:32.575Z</time>
      </trkpt>
      <trkpt lat="45.64345" lon="5.29836">
        <ele>223</ele>
        <time>2021-07-20T04:57:33.576Z</time>
      </trkpt>
      <trkpt lat="45.6435" lon="5.29843">
        <ele>223</ele>
        <time>2021-07-20T04:57:34.575Z</time>
      </trkpt>
      <trkpt lat="45.64354" lon="5.2985">
        <ele>223</ele>
        <time>2021-07-20T04:57:35.575Z</time>
      </trkpt>
      <trkpt lat="45.64359" lon="5.29857">
        <ele>223</ele>
        <time>2021-07-20T04:57:36.576Z</time>
      </trkpt>
      <trkpt lat="45.64364" lon="5.29864">
        <ele>223</ele>
        <time>2021-07-20T04:57:37.576Z</time>
      </trkpt>
      <trkpt lat="45.64368" lon="5.29871">
        <ele>223</ele>
        <time>2021-07-20T04:57:38.576Z</time>
      </trkpt>
      <trkpt lat="45.64373" lon="5.29878">
        <ele>223</ele>
        <time>2021-07-20T04:57:39.576Z</time>
      </trkpt>
      <trkpt lat="45.64378" lon="5.29885">
        <ele>223</ele>
        <time>2021-07-20T04:57:40.576Z</time>
      </trkpt>
      <trkpt lat="45.64383" lon="5.29892">
        <ele>223</ele>
        <time>2021-07-20T04:57:41.576Z</time>
      </trkpt>
      <trkpt lat="45.64388" lon="5.29899">
        <ele>223</ele>
        <time>2021-07-20T04:57:42.575Z</time>
      </trkpt>
      <trkpt lat="45.64393" lon="5.29907">
        <ele>223</ele>
        <time>2021-07-20T04:57:43.576Z</time>
      </trkpt>
      <trkpt lat="45.64399" lon="5.29914">
        <ele>223</ele>
        <time>2021-07-20T04:57:44.576Z</time>
      </trkpt>
      <trkpt lat="45.64404" lon="5.29921">
        <ele>223</ele>
        <time>2021-07-20T04:57:45.576Z</time>
      </trkpt>
      <trkpt lat="45.64409" lon="5.29928">
        <ele>223</ele>
        <time>2021-07-20T04:57:46.575Z</time>
      </trkpt>
      <trkpt lat="45.64415" lon="5.29936">
        <ele>222</ele>
        <time>2021-07-20T04:57:47.575Z</time>
      </trkpt>
      <trkpt lat="45.6442" lon="5.29943">
        <ele>222</ele>
        <time>2021-07-20T04:57:48.576Z</time>
      </trkpt>
      <trkpt lat="45.64426" lon="5.29951">
        <ele>223</ele>
        <time>2021-07-20T04:57:49.575Z</time>
      </trkpt>
      <trkpt lat="45.64431" lon="5.29959">
        <ele>223</ele>
        <time>2021-07-20T04:57:50.576Z</time>
      </trkpt>
      <trkpt lat="45.64437" lon="5.29967">
        <ele>223</ele>
        <time>2021-07-20T04:57:51.576Z</time>
      </trkpt>
      <trkpt lat="45.64442" lon="5.29975">
        <ele>222</ele>
        <time>2021-07-20T04:57:52.576Z</time>
      </trkpt>
      <trkpt lat="45.64448" lon="5.29983">
        <ele>222</ele>
        <time>2021-07-20T04:57:53.576Z</time>
      </trkpt>
      <trkpt lat="45.64453" lon="5.2999">
        <ele>222</ele>
        <time>2021-07-20T04:57:54.575Z</time>
      </trkpt>
      <trkpt lat="45.64459" lon="5.29999">
        <ele>222</ele>
        <time>2021-07-20T04:57:55.575Z</time>
      </trkpt>
      <trkpt lat="45.64465" lon="5.30007">
        <ele>222</ele>
        <time>2021-07-20T04:57:56.576Z</time>
      </trkpt>
      <trkpt lat="45.6447" lon="5.30015">
        <ele>222</ele>
        <time>2021-07-20T04:57:57.576Z</time>
      </trkpt>
      <trkpt lat="45.64476" lon="5.30023">
        <ele>221</ele>
        <time>2021-07-20T04:57:58.576Z</time>
      </trkpt>
      <trkpt lat="45.64481" lon="5.30031">
        <ele>221</ele>
        <time>2021-07-20T04:57:59.576Z</time>
      </trkpt>
      <trkpt lat="45.64487" lon="5.3004">
        <ele>221</ele>
        <time>2021-07-20T04:58:00.575Z</time>
      </trkpt>
      <trkpt lat="45.64492" lon="5.30048">
        <ele>221</ele>
        <time>2021-07-20T04:58:01.575Z</time>
      </trkpt>
      <trkpt lat="45.64497" lon="5.30056">
        <ele>221</ele>
        <time>2021-07-20T04:58:02.576Z</time>
      </trkpt>
      <trkpt lat="45.64502" lon="5.30065">
        <ele>221</ele>
        <time>2021-07-20T04:58:03.576Z</time>
      </trkpt>
      <trkpt lat="45.64508" lon="5.30073">
        <ele>221</ele>
        <time>2021-07-20T04:58:04.576Z</time>
      </trkpt>
      <trkpt lat="45.64513" lon="5.30081">
        <ele>221</ele>
        <time>2021-07-20T04:58:05.575Z</time>
      </trkpt>
      <trkpt lat="45.64519" lon="5.30089">
        <ele>221</ele>
        <time>2021-07-20T04:58:06.576Z</time>
      </trkpt>
      <trkpt lat="45.64524" lon="5.30097">
        <ele>221</ele>
        <time>2021-07-20T04:58:07.576Z</time>
      </trkpt>
      <trkpt lat="45.64529" lon="5.30105">
        <ele>221</ele>
        <time>2021-07-20T04:58:08.575Z</time>
      </trkpt>
      <trkpt lat="45.64534" lon="5.30114">
        <ele>221</ele>
        <time>2021-07-20T04:58:09.575Z</time>
      </trkpt>
      <trkpt lat="45.64539" lon="5.30125">
        <ele>221</ele>
        <time>2021-07-20T04:58:10.575Z</time>
      </trkpt>
      <trkpt lat="45.64543" lon="5.30132">
        <ele>221</ele>
        <time>2021-07-20T04:58:11.576Z</time>
      </trkpt>
      <trkpt lat="45.64548" lon="5.30142">
        <ele>221</ele>
        <time>2021-07-20T04:58:12.576Z</time>
      </trkpt>
      <trkpt lat="45.64553" lon="5.3015">
        <ele>221</ele>
        <time>2021-07-20T04:58:13.575Z</time>
      </trkpt>
      <trkpt lat="45.64558" lon="5.30156">
        <ele>221</ele>
        <time>2021-07-20T04:58:14.575Z</time>
      </trkpt>
      <trkpt lat="45.64564" lon="5.30163">
        <ele>221</ele>
        <time>2021-07-20T04:58:15.576Z</time>
      </trkpt>
      <trkpt lat="45.64569" lon="5.30171">
        <ele>221</ele>
        <time>2021-07-20T04:58:16.575Z</time>
      </trkpt>
      <trkpt lat="45.64573" lon="5.3018">
        <ele>221</ele>
        <time>2021-07-20T04:58:17.576Z</time>
      </trkpt>
      <trkpt lat="45.64575" lon="5.3019">
        <ele>221</ele>
        <time>2021-07-20T04:58:18.575Z</time>
      </trkpt>
      <trkpt lat="45.64575" lon="5.302">
        <ele>221</ele>
        <time>2021-07-20T04:58:19.575Z</time>
      </trkpt>
      <trkpt lat="45.64576" lon="5.3021">
        <ele>221</ele>
        <time>2021-07-20T04:58:20.576Z</time>
      </trkpt>
      <trkpt lat="45.64578" lon="5.3022">
        <ele>221</ele>
        <time>2021-07-20T04:58:21.575Z</time>
      </trkpt>
      <trkpt lat="45.64581" lon="5.30228">
        <ele>220</ele>
        <time>2021-07-20T04:58:22.576Z</time>
      </trkpt>
      <trkpt lat="45.64586" lon="5.30235">
        <ele>220</ele>
        <time>2021-07-20T04:58:23.575Z</time>
      </trkpt>
      <trkpt lat="45.64592" lon="5.30239">
        <ele>220</ele>
        <time>2021-07-20T04:58:24.575Z</time>
      </trkpt>
      <trkpt lat="45.64599" lon="5.30242">
        <ele>220</ele>
        <time>2021-07-20T04:58:25.575Z</time>
      </trkpt>
      <trkpt lat="45.64606" lon="5.30244">
        <ele>219</ele>
        <time>2021-07-20T04:58:26.576Z</time>
      </trkpt>
      <trkpt lat="45.64614" lon="5.30247">
        <ele>220</ele>
        <time>2021-07-20T04:58:27.576Z</time>
      </trkpt>
      <trkpt lat="45.64621" lon="5.30251">
        <ele>220</ele>
        <time>2021-07-20T04:58:28.575Z</time>
      </trkpt>
      <trkpt lat="45.64627" lon="5.30257">
        <ele>220</ele>
        <time>2021-07-20T04:58:29.575Z</time>
      </trkpt>
      <trkpt lat="45.64633" lon="5.30263">
        <ele>220</ele>
        <time>2021-07-20T04:58:30.576Z</time>
      </trkpt>
      <trkpt lat="45.64638" lon="5.3027">
        <ele>220</ele>
        <time>2021-07-20T04:58:31.576Z</time>
      </trkpt>
      <trkpt lat="45.64644" lon="5.30276">
        <ele>221</ele>
        <time>2021-07-20T04:58:32.576Z</time>
      </trkpt>
      <trkpt lat="45.6465" lon="5.30283">
        <ele>221</ele>
        <time>2021-07-20T04:58:33.575Z</time>
      </trkpt>
      <trkpt lat="45.64655" lon="5.30291">
        <ele>221</ele>
        <time>2021-07-20T04:58:34.575Z</time>
      </trkpt>
      <trkpt lat="45.64661" lon="5.30298">
        <ele>221</ele>
        <time>2021-07-20T04:58:35.576Z</time>
      </trkpt>
      <trkpt lat="45.64666" lon="5.30305">
        <ele>222</ele>
        <time>2021-07-20T04:58:36.576Z</time>
      </trkpt>
      <trkpt lat="45.64672" lon="5.30312">
        <ele>222</ele>
        <time>2021-07-20T04:58:37.576Z</time>
      </trkpt>
      <trkpt lat="45.64677" lon="5.3032">
        <ele>222</ele>
        <time>2021-07-20T04:58:38.576Z</time>
      </trkpt>
      <trkpt lat="45.64683" lon="5.30327">
        <ele>222</ele>
        <time>2021-07-20T04:58:39.575Z</time>
      </trkpt>
      <trkpt lat="45.64689" lon="5.30334">
        <ele>222</ele>
        <time>2021-07-20T04:58:40.576Z</time>
      </trkpt>
      <trkpt lat="45.64694" lon="5.30342">
        <ele>222</ele>
        <time>2021-07-20T04:58:41.576Z</time>
      </trkpt>
      <trkpt lat="45.647" lon="5.30349">
        <ele>222</ele>
        <time>2021-07-20T04:58:42.576Z</time>
      </trkpt>
      <trkpt lat="45.64706" lon="5.30358">
        <ele>221</ele>
        <time>2021-07-20T04:58:43.575Z</time>
      </trkpt>
      <trkpt lat="45.6471" lon="5.30364">
        <ele>221</ele>
        <time>2021-07-20T04:58:44.576Z</time>
      </trkpt>
      <trkpt lat="45.64715" lon="5.30371">
        <ele>221</ele>
        <time>2021-07-20T04:58:45.576Z</time>
      </trkpt>
      <trkpt lat="45.64721" lon="5.30379">
        <ele>221</ele>
        <time>2021-07-20T04:58:46.576Z</time>
      </trkpt>
      <trkpt lat="45.64727" lon="5.30388">
        <ele>221</ele>
        <time>2021-07-20T04:58:47.575Z</time>
      </trkpt>
      <trkpt lat="45.64731" lon="5.30394">
        <ele>221</ele>
        <time>2021-07-20T04:58:48.576Z</time>
      </trkpt>
      <trkpt lat="45.64737" lon="5.30401">
        <ele>221</ele>
        <time>2021-07-20T04:58:49.575Z</time>
      </trkpt>
      <trkpt lat="45.64742" lon="5.30409">
        <ele>220</ele>
        <time>2021-07-20T04:58:50.575Z</time>
      </trkpt>
      <trkpt lat="45.64747" lon="5.30416">
        <ele>220</ele>
        <time>2021-07-20T04:58:51.576Z</time>
      </trkpt>
      <trkpt lat="45.64752" lon="5.30424">
        <ele>220</ele>
        <time>2021-07-20T04:58:52.576Z</time>
      </trkpt>
      <trkpt lat="45.64758" lon="5.30431">
        <ele>220</ele>
        <time>2021-07-20T04:58:53.575Z</time>
      </trkpt>
      <trkpt lat="45.64763" lon="5.30438">
        <ele>221</ele>
        <time>2021-07-20T04:58:54.576Z</time>
      </trkpt>
      <trkpt lat="45.64768" lon="5.30446">
        <ele>221</ele>
        <time>2021-07-20T04:58:55.576Z</time>
      </trkpt>
      <trkpt lat="45.64773" lon="5.30453">
        <ele>221</ele>
        <time>2021-07-20T04:58:56.576Z</time>
      </trkpt>
      <trkpt lat="45.64778" lon="5.30461">
        <ele>221</ele>
        <time>2021-07-20T04:58:57.575Z</time>
      </trkpt>
      <trkpt lat="45.64783" lon="5.30468">
        <ele>220</ele>
        <time>2021-07-20T04:58:58.575Z</time>
      </trkpt>
      <trkpt lat="45.64789" lon="5.30476">
        <ele>220</ele>
        <time>2021-07-20T04:58:59.576Z</time>
      </trkpt>
      <trkpt lat="45.64794" lon="5.30483">
        <ele>220</ele>
        <time>2021-07-20T04:59:00.575Z</time>
      </trkpt>
      <trkpt lat="45.648" lon="5.30492">
        <ele>220</ele>
        <time>2021-07-20T04:59:01.576Z</time>
      </trkpt>
      <trkpt lat="45.64804" lon="5.30498">
        <ele>220</ele>
        <time>2021-07-20T04:59:02.576Z</time>
      </trkpt>
      <trkpt lat="45.64809" lon="5.30505">
        <ele>220</ele>
        <time>2021-07-20T04:59:03.576Z</time>
      </trkpt>
      <trkpt lat="45.64814" lon="5.30512">
        <ele>220</ele>
        <time>2021-07-20T04:59:04.575Z</time>
      </trkpt>
      <trkpt lat="45.64819" lon="5.3052">
        <ele>220</ele>
        <time>2021-07-20T04:59:05.576Z</time>
      </trkpt>
      <trkpt lat="45.64824" lon="5.30527">
        <ele>221</ele>
        <time>2021-07-20T04:59:06.576Z</time>
      </trkpt>
      <trkpt lat="45.64829" lon="5.30534">
        <ele>221</ele>
        <time>2021-07-20T04:59:07.576Z</time>
      </trkpt>
      <trkpt lat="45.64834" lon="5.30541">
        <ele>221</ele>
        <time>2021-07-20T04:59:08.576Z</time>
      </trkpt>
      <trkpt lat="45.64839" lon="5.30548">
        <ele>221</ele>
        <time>2021-07-20T04:59:09.576Z</time>
      </trkpt>
      <trkpt lat="45.64844" lon="5.30555">
        <ele>221</ele>
        <time>2021-07-20T04:59:10.576Z</time>
      </trkpt>
      <trkpt lat="45.64849" lon="5.30562">
        <ele>221</ele>
        <time>2021-07-20T04:59:11.576Z</time>
      </trkpt>
      <trkpt lat="45.64853" lon="5.30569">
        <ele>221</ele>
        <time>2021-07-20T04:59:12.576Z</time>
      </trkpt>
      <trkpt lat="45.64858" lon="5.30577">
        <ele>221</ele>
        <time>2021-07-20T04:59:13.576Z</time>
      </trkpt>
      <trkpt lat="45.64863" lon="5.30584">
        <ele>221</ele>
        <time>2021-07-20T04:59:14.576Z</time>
      </trkpt>
      <trkpt lat="45.64868" lon="5.30591">
        <ele>221</ele>
        <time>2021-07-20T04:59:15.575Z</time>
      </trkpt>
      <trkpt lat="45.64873" lon="5.30598">
        <ele>220</ele>
        <time>2021-07-20T04:59:16.576Z</time>
      </trkpt>
      <trkpt lat="45.64878" lon="5.30605">
        <ele>220</ele>
        <time>2021-07-20T04:59:17.575Z</time>
      </trkpt>
      <trkpt lat="45.64883" lon="5.30611">
        <ele>220</ele>
        <time>2021-07-20T04:59:18.576Z</time>
      </trkpt>
      <trkpt lat="45.64887" lon="5.30618">
        <ele>221</ele>
        <time>2021-07-20T04:59:19.576Z</time>
      </trkpt>
      <trkpt lat="45.64892" lon="5.30625">
        <ele>221</ele>
        <time>2021-07-20T04:59:20.576Z</time>
      </trkpt>
      <trkpt lat="45.64897" lon="5.30633">
        <ele>221</ele>
        <time>2021-07-20T04:59:21.576Z</time>
      </trkpt>
      <trkpt lat="45.64902" lon="5.3064">
        <ele>221</ele>
        <time>2021-07-20T04:59:22.576Z</time>
      </trkpt>
      <trkpt lat="45.64907" lon="5.30647">
        <ele>221</ele>
        <time>2021-07-20T04:59:23.576Z</time>
      </trkpt>
      <trkpt lat="45.64912" lon="5.30654">
        <ele>221</ele>
        <time>2021-07-20T04:59:24.575Z</time>
      </trkpt>
      <trkpt lat="45.64917" lon="5.30661">
        <ele>221</ele>
        <time>2021-07-20T04:59:25.576Z</time>
      </trkpt>
      <trkpt lat="45.64922" lon="5.30668">
        <ele>221</ele>
        <time>2021-07-20T04:59:26.575Z</time>
      </trkpt>
      <trkpt lat="45.64927" lon="5.30675">
        <ele>221</ele>
        <time>2021-07-20T04:59:27.575Z</time>
      </trkpt>
      <trkpt lat="45.64932" lon="5.30682">
        <ele>221</ele>
        <time>2021-07-20T04:59:28.575Z</time>
      </trkpt>
      <trkpt lat="45.64937" lon="5.3069">
        <ele>221</ele>
        <time>2021-07-20T04:59:29.575Z</time>
      </trkpt>
      <trkpt lat="45.64942" lon="5.30697">
        <ele>221</ele>
        <time>2021-07-20T04:59:30.576Z</time>
      </trkpt>
      <trkpt lat="45.64947" lon="5.30704">
        <ele>221</ele>
        <time>2021-07-20T04:59:31.575Z</time>
      </trkpt>
      <trkpt lat="45.64952" lon="5.30711">
        <ele>221</ele>
        <time>2021-07-20T04:59:32.576Z</time>
      </trkpt>
      <trkpt lat="45.64957" lon="5.30719">
        <ele>222</ele>
        <time>2021-07-20T04:59:33.575Z</time>
      </trkpt>
      <trkpt lat="45.64963" lon="5.30727">
        <ele>222</ele>
        <time>2021-07-20T04:59:34.575Z</time>
      </trkpt>
      <trkpt lat="45.64967" lon="5.30733">
        <ele>222</ele>
        <time>2021-07-20T04:59:35.576Z</time>
      </trkpt>
      <trkpt lat="45.64973" lon="5.30742">
        <ele>222</ele>
        <time>2021-07-20T04:59:36.576Z</time>
      </trkpt>
      <trkpt lat="45.64978" lon="5.30749">
        <ele>222</ele>
        <time>2021-07-20T04:59:37.576Z</time>
      </trkpt>
      <trkpt lat="45.64982" lon="5.30754">
        <ele>222</ele>
        <time>2021-07-20T04:59:38.576Z</time>
      </trkpt>
      <trkpt lat="45.64987" lon="5.30761">
        <ele>222</ele>
        <time>2021-07-20T04:59:39.575Z</time>
      </trkpt>
      <trkpt lat="45.64992" lon="5.30768">
        <ele>222</ele>
        <time>2021-07-20T04:59:40.576Z</time>
      </trkpt>
      <trkpt lat="45.64997" lon="5.30775">
        <ele>221</ele>
        <time>2021-07-20T04:59:41.576Z</time>
      </trkpt>
      <trkpt lat="45.65003" lon="5.30784">
        <ele>221</ele>
        <time>2021-07-20T04:59:42.575Z</time>
      </trkpt>
      <trkpt lat="45.65007" lon="5.30789">
        <ele>221</ele>
        <time>2021-07-20T04:59:43.576Z</time>
      </trkpt>
      <trkpt lat="45.65011" lon="5.30796">
        <ele>221</ele>
        <time>2021-07-20T04:59:44.575Z</time>
      </trkpt>
      <trkpt lat="45.65016" lon="5.30803">
        <ele>221</ele>
        <time>2021-07-20T04:59:45.575Z</time>
      </trkpt>
      <trkpt lat="45.65021" lon="5.3081">
        <ele>221</ele>
        <time>2021-07-20T04:59:46.575Z</time>
      </trkpt>
      <trkpt lat="45.65026" lon="5.30817">
        <ele>221</ele>
        <time>2021-07-20T04:59:47.576Z</time>
      </trkpt>
      <trkpt lat="45.65031" lon="5.30824">
        <ele>221</ele>
        <time>2021-07-20T04:59:48.576Z</time>
      </trkpt>
      <trkpt lat="45.65037" lon="5.30832">
        <ele>221</ele>
        <time>2021-07-20T04:59:49.576Z</time>
      </trkpt>
      <trkpt lat="45.65041" lon="5.30838">
        <ele>221</ele>
        <time>2021-07-20T04:59:50.576Z</time>
      </trkpt>
      <trkpt lat="45.65046" lon="5.30845">
        <ele>222</ele>
        <time>2021-07-20T04:59:51.576Z</time>
      </trkpt>
      <trkpt lat="45.65051" lon="5.30851">
        <ele>222</ele>
        <time>2021-07-20T04:59:52.576Z</time>
      </trkpt>
      <trkpt lat="45.65056" lon="5.30858">
        <ele>222</ele>
        <time>2021-07-20T04:59:53.575Z</time>
      </trkpt>
      <trkpt lat="45.6506" lon="5.30865">
        <ele>222</ele>
        <time>2021-07-20T04:59:54.575Z</time>
      </trkpt>
      <trkpt lat="45.65065" lon="5.30873">
        <ele>222</ele>
        <time>2021-07-20T04:59:55.575Z</time>
      </trkpt>
      <trkpt lat="45.6507" lon="5.3088">
        <ele>222</ele>
        <time>2021-07-20T04:59:56.576Z</time>
      </trkpt>
      <trkpt lat="45.65075" lon="5.30887">
        <ele>221</ele>
        <time>2021-07-20T04:59:57.575Z</time>
      </trkpt>
      <trkpt lat="45.65079" lon="5.30894">
        <ele>221</ele>
        <time>2021-07-20T04:59:58.576Z</time>
      </trkpt>
      <trkpt lat="45.65084" lon="5.30901">
        <ele>221</ele>
        <time>2021-07-20T04:59:59.575Z</time>
      </trkpt>
      <trkpt lat="45.65089" lon="5.30908">
        <ele>221</ele>
        <time>2021-07-20T05:00:00.576Z</time>
      </trkpt>
      <trkpt lat="45.65094" lon="5.30915">
        <ele>221</ele>
        <time>2021-07-20T05:00:01.576Z</time>
      </trkpt>
      <trkpt lat="45.65098" lon="5.30922">
        <ele>221</ele>
        <time>2021-07-20T05:00:02.575Z</time>
      </trkpt>
      <trkpt lat="45.65103" lon="5.30928">
        <ele>221</ele>
        <time>2021-07-20T05:00:03.576Z</time>
      </trkpt>
      <trkpt lat="45.65108" lon="5.30935">
        <ele>222</ele>
        <time>2021-07-20T05:00:04.575Z</time>
      </trkpt>
      <trkpt lat="45.65113" lon="5.30942">
        <ele>222</ele>
        <time>2021-07-20T05:00:05.575Z</time>
      </trkpt>
      <trkpt lat="45.65118" lon="5.30949">
        <ele>223</ele>
        <time>2021-07-20T05:00:06.576Z</time>
      </trkpt>
      <trkpt lat="45.65123" lon="5.30956">
        <ele>223</ele>
        <time>2021-07-20T05:00:07.575Z</time>
      </trkpt>
      <trkpt lat="45.65128" lon="5.30963">
        <ele>223</ele>
        <time>2021-07-20T05:00:08.575Z</time>
      </trkpt>
      <trkpt lat="45.65132" lon="5.3097">
        <ele>223</ele>
        <time>2021-07-20T05:00:09.575Z</time>
      </trkpt>
      <trkpt lat="45.65137" lon="5.30977">
        <ele>223</ele>
        <time>2021-07-20T05:00:10.575Z</time>
      </trkpt>
      <trkpt lat="45.65142" lon="5.30984">
        <ele>224</ele>
        <time>2021-07-20T05:00:11.576Z</time>
      </trkpt>
      <trkpt lat="45.65147" lon="5.3099">
        <ele>224</ele>
        <time>2021-07-20T05:00:12.576Z</time>
      </trkpt>
      <trkpt lat="45.65151" lon="5.30997">
        <ele>223</ele>
        <time>2021-07-20T05:00:13.576Z</time>
      </trkpt>
      <trkpt lat="45.65156" lon="5.31004">
        <ele>223</ele>
        <time>2021-07-20T05:00:14.576Z</time>
      </trkpt>
      <trkpt lat="45.65161" lon="5.31011">
        <ele>223</ele>
        <time>2021-07-20T05:00:15.576Z</time>
      </trkpt>
      <trkpt lat="45.65165" lon="5.31018">
        <ele>223</ele>
        <time>2021-07-20T05:00:16.576Z</time>
      </trkpt>
      <trkpt lat="45.6517" lon="5.31024">
        <ele>223</ele>
        <time>2021-07-20T05:00:17.576Z</time>
      </trkpt>
      <trkpt lat="45.65175" lon="5.31031">
        <ele>223</ele>
        <time>2021-07-20T05:00:18.576Z</time>
      </trkpt>
      <trkpt lat="45.6518" lon="5.31038">
        <ele>223</ele>
        <time>2021-07-20T05:00:19.576Z</time>
      </trkpt>
      <trkpt lat="45.65185" lon="5.31045">
        <ele>223</ele>
        <time>2021-07-20T05:00:20.576Z</time>
      </trkpt>
      <trkpt lat="45.65189" lon="5.31052">
        <ele>223</ele>
        <time>2021-07-20T05:00:21.576Z</time>
      </trkpt>
      <trkpt lat="45.65194" lon="5.31059">
        <ele>223</ele>
        <time>2021-07-20T05:00:22.576Z</time>
      </trkpt>
      <trkpt lat="45.65199" lon="5.31066">
        <ele>223</ele>
        <time>2021-07-20T05:00:23.576Z</time>
      </trkpt>
      <trkpt lat="45.65204" lon="5.31073">
        <ele>223</ele>
        <time>2021-07-20T05:00:24.576Z</time>
      </trkpt>
      <trkpt lat="45.65209" lon="5.3108">
        <ele>223</ele>
        <time>2021-07-20T05:00:25.576Z</time>
      </trkpt>
      <trkpt lat="45.65213" lon="5.31087">
        <ele>223</ele>
        <time>2021-07-20T05:00:26.576Z</time>
      </trkpt>
      <trkpt lat="45.65219" lon="5.31094">
        <ele>223</ele>
        <time>2021-07-20T05:00:27.576Z</time>
      </trkpt>
      <trkpt lat="45.65224" lon="5.31101">
        <ele>223</ele>
        <time>2021-07-20T05:00:28.576Z</time>
      </trkpt>
      <trkpt lat="45.65229" lon="5.31108">
        <ele>223</ele>
        <time>2021-07-20T05:00:29.575Z</time>
      </trkpt>
      <trkpt lat="45.65233" lon="5.31115">
        <ele>223</ele>
        <time>2021-07-20T05:00:30.576Z</time>
      </trkpt>
      <trkpt lat="45.65239" lon="5.31124">
        <ele>223</ele>
        <time>2021-07-20T05:00:31.576Z</time>
      </trkpt>
      <trkpt lat="45.65244" lon="5.31131">
        <ele>222</ele>
        <time>2021-07-20T05:00:32.576Z</time>
      </trkpt>
      <trkpt lat="45.65249" lon="5.31138">
        <ele>222</ele>
        <time>2021-07-20T05:00:33.575Z</time>
      </trkpt>
      <trkpt lat="45.65253" lon="5.31143">
        <ele>222</ele>
        <time>2021-07-20T05:00:34.575Z</time>
      </trkpt>
      <trkpt lat="45.65258" lon="5.31151">
        <ele>222</ele>
        <time>2021-07-20T05:00:35.576Z</time>
      </trkpt>
      <trkpt lat="45.65263" lon="5.31158">
        <ele>223</ele>
        <time>2021-07-20T05:00:36.576Z</time>
      </trkpt>
      <trkpt lat="45.65268" lon="5.31165">
        <ele>223</ele>
        <time>2021-07-20T05:00:37.575Z</time>
      </trkpt>
      <trkpt lat="45.65272" lon="5.31172">
        <ele>223</ele>
        <time>2021-07-20T05:00:38.576Z</time>
      </trkpt>
      <trkpt lat="45.65277" lon="5.31179">
        <ele>223</ele>
        <time>2021-07-20T05:00:39.575Z</time>
      </trkpt>
      <trkpt lat="45.65282" lon="5.31186">
        <ele>223</ele>
        <time>2021-07-20T05:00:40.576Z</time>
      </trkpt>
      <trkpt lat="45.65287" lon="5.31193">
        <ele>223</ele>
        <time>2021-07-20T05:00:41.576Z</time>
      </trkpt>
      <trkpt lat="45.65292" lon="5.312">
        <ele>223</ele>
        <time>2021-07-20T05:00:42.575Z</time>
      </trkpt>
      <trkpt lat="45.65297" lon="5.31207">
        <ele>223</ele>
        <time>2021-07-20T05:00:43.576Z</time>
      </trkpt>
      <trkpt lat="45.65301" lon="5.31214">
        <ele>223</ele>
        <time>2021-07-20T05:00:44.576Z</time>
      </trkpt>
      <trkpt lat="45.65306" lon="5.3122">
        <ele>223</ele>
        <time>2021-07-20T05:00:45.575Z</time>
      </trkpt>
      <trkpt lat="45.65311" lon="5.31227">
        <ele>223</ele>
        <time>2021-07-20T05:00:46.576Z</time>
      </trkpt>
      <trkpt lat="45.65316" lon="5.31234">
        <ele>223</ele>
        <time>2021-07-20T05:00:47.575Z</time>
      </trkpt>
      <trkpt lat="45.65321" lon="5.31241">
        <ele>224</ele>
        <time>2021-07-20T05:00:48.575Z</time>
      </trkpt>
      <trkpt lat="45.65326" lon="5.31248">
        <ele>224</ele>
        <time>2021-07-20T05:00:49.576Z</time>
      </trkpt>
      <trkpt lat="45.65331" lon="5.31255">
        <ele>224</ele>
        <time>2021-07-20T05:00:50.575Z</time>
      </trkpt>
      <trkpt lat="45.65336" lon="5.31262">
        <ele>224</ele>
        <time>2021-07-20T05:00:51.576Z</time>
      </trkpt>
      <trkpt lat="45.65341" lon="5.31269">
        <ele>224</ele>
        <time>2021-07-20T05:00:52.576Z</time>
      </trkpt>
      <trkpt lat="45.65346" lon="5.31276">
        <ele>224</ele>
        <time>2021-07-20T05:00:53.576Z</time>
      </trkpt>
      <trkpt lat="45.6535" lon="5.31283">
        <ele>224</ele>
        <time>2021-07-20T05:00:54.576Z</time>
      </trkpt>
      <trkpt lat="45.65355" lon="5.31291">
        <ele>223</ele>
        <time>2021-07-20T05:00:55.576Z</time>
      </trkpt>
      <trkpt lat="45.6536" lon="5.31298">
        <ele>223</ele>
        <time>2021-07-20T05:00:56.575Z</time>
      </trkpt>
      <trkpt lat="45.65364" lon="5.31303">
        <ele>223</ele>
        <time>2021-07-20T05:00:57.576Z</time>
      </trkpt>
      <trkpt lat="45.6537" lon="5.31311">
        <ele>223</ele>
        <time>2021-07-20T05:00:58.576Z</time>
      </trkpt>
      <trkpt lat="45.65375" lon="5.31318">
        <ele>223</ele>
        <time>2021-07-20T05:00:59.575Z</time>
      </trkpt>
      <trkpt lat="45.6538" lon="5.31325">
        <ele>223</ele>
        <time>2021-07-20T05:01:00.575Z</time>
      </trkpt>
      <trkpt lat="45.65385" lon="5.31332">
        <ele>223</ele>
        <time>2021-07-20T05:01:01.575Z</time>
      </trkpt>
      <trkpt lat="45.6539" lon="5.31339">
        <ele>223</ele>
        <time>2021-07-20T05:01:02.575Z</time>
      </trkpt>
      <trkpt lat="45.65394" lon="5.31346">
        <ele>223</ele>
        <time>2021-07-20T05:01:03.576Z</time>
      </trkpt>
      <trkpt lat="45.65399" lon="5.31353">
        <ele>223</ele>
        <time>2021-07-20T05:01:04.576Z</time>
      </trkpt>
      <trkpt lat="45.65404" lon="5.3136">
        <ele>223</ele>
        <time>2021-07-20T05:01:05.576Z</time>
      </trkpt>
      <trkpt lat="45.65409" lon="5.31367">
        <ele>223</ele>
        <time>2021-07-20T05:01:06.576Z</time>
      </trkpt>
      <trkpt lat="45.65414" lon="5.31374">
        <ele>223</ele>
        <time>2021-07-20T05:01:07.575Z</time>
      </trkpt>
      <trkpt lat="45.65419" lon="5.31381">
        <ele>223</ele>
        <time>2021-07-20T05:01:08.576Z</time>
      </trkpt>
      <trkpt lat="45.65423" lon="5.31388">
        <ele>223</ele>
        <time>2021-07-20T05:01:09.576Z</time>
      </trkpt>
      <trkpt lat="45.65428" lon="5.31395">
        <ele>223</ele>
        <time>2021-07-20T05:01:10.575Z</time>
      </trkpt>
      <trkpt lat="45.65433" lon="5.31402">
        <ele>223</ele>
        <time>2021-07-20T05:01:11.575Z</time>
      </trkpt>
      <trkpt lat="45.65438" lon="5.3141">
        <ele>223</ele>
        <time>2021-07-20T05:01:12.576Z</time>
      </trkpt>
      <trkpt lat="45.65443" lon="5.31417">
        <ele>223</ele>
        <time>2021-07-20T05:01:13.575Z</time>
      </trkpt>
      <trkpt lat="45.65448" lon="5.31424">
        <ele>223</ele>
        <time>2021-07-20T05:01:14.575Z</time>
      </trkpt>
      <trkpt lat="45.65453" lon="5.31431">
        <ele>223</ele>
        <time>2021-07-20T05:01:15.576Z</time>
      </trkpt>
      <trkpt lat="45.65458" lon="5.31438">
        <ele>223</ele>
        <time>2021-07-20T05:01:16.576Z</time>
      </trkpt>
      <trkpt lat="45.65462" lon="5.31445">
        <ele>222</ele>
        <time>2021-07-20T05:01:17.575Z</time>
      </trkpt>
      <trkpt lat="45.65467" lon="5.31452">
        <ele>222</ele>
        <time>2021-07-20T05:01:18.576Z</time>
      </trkpt>
      <trkpt lat="45.65472" lon="5.31459">
        <ele>222</ele>
        <time>2021-07-20T05:01:19.576Z</time>
      </trkpt>
      <trkpt lat="45.65477" lon="5.31466">
        <ele>222</ele>
        <time>2021-07-20T05:01:20.576Z</time>
      </trkpt>
      <trkpt lat="45.65482" lon="5.31473">
        <ele>223</ele>
        <time>2021-07-20T05:01:21.576Z</time>
      </trkpt>
      <trkpt lat="45.65487" lon="5.3148">
        <ele>223</ele>
        <time>2021-07-20T05:01:22.575Z</time>
      </trkpt>
      <trkpt lat="45.65492" lon="5.31487">
        <ele>223</ele>
        <time>2021-07-20T05:01:23.576Z</time>
      </trkpt>
      <trkpt lat="45.65496" lon="5.31494">
        <ele>223</ele>
        <time>2021-07-20T05:01:24.576Z</time>
      </trkpt>
      <trkpt lat="45.65501" lon="5.31501">
        <ele>223</ele>
        <time>2021-07-20T05:01:25.575Z</time>
      </trkpt>
      <trkpt lat="45.65506" lon="5.31509">
        <ele>223</ele>
        <time>2021-07-20T05:01:26.576Z</time>
      </trkpt>
      <trkpt lat="45.65511" lon="5.31516">
        <ele>222</ele>
        <time>2021-07-20T05:01:27.576Z</time>
      </trkpt>
      <trkpt lat="45.65516" lon="5.31523">
        <ele>222</ele>
        <time>2021-07-20T05:01:28.576Z</time>
      </trkpt>
      <trkpt lat="45.65521" lon="5.3153">
        <ele>222</ele>
        <time>2021-07-20T05:01:29.576Z</time>
      </trkpt>
      <trkpt lat="45.65526" lon="5.31537">
        <ele>222</ele>
        <time>2021-07-20T05:01:30.576Z</time>
      </trkpt>
      <trkpt lat="45.65531" lon="5.31544">
        <ele>222</ele>
        <time>2021-07-20T05:01:31.575Z</time>
      </trkpt>
      <trkpt lat="45.65536" lon="5.31552">
        <ele>222</ele>
        <time>2021-07-20T05:01:32.576Z</time>
      </trkpt>
      <trkpt lat="45.65541" lon="5.31559">
        <ele>222</ele>
        <time>2021-07-20T05:01:33.576Z</time>
      </trkpt>
      <trkpt lat="45.65546" lon="5.31566">
        <ele>222</ele>
        <time>2021-07-20T05:01:34.576Z</time>
      </trkpt>
      <trkpt lat="45.65551" lon="5.31573">
        <ele>223</ele>
        <time>2021-07-20T05:01:35.576Z</time>
      </trkpt>
      <trkpt lat="45.65556" lon="5.3158">
        <ele>223</ele>
        <time>2021-07-20T05:01:36.576Z</time>
      </trkpt>
      <trkpt lat="45.6556" lon="5.31588">
        <ele>223</ele>
        <time>2021-07-20T05:01:37.576Z</time>
      </trkpt>
      <trkpt lat="45.65564" lon="5.31595">
        <ele>223</ele>
        <time>2021-07-20T05:01:38.575Z</time>
      </trkpt>
      <trkpt lat="45.65569" lon="5.31602">
        <ele>223</ele>
        <time>2021-07-20T05:01:39.576Z</time>
      </trkpt>
      <trkpt lat="45.65574" lon="5.31609">
        <ele>223</ele>
        <time>2021-07-20T05:01:40.576Z</time>
      </trkpt>
      <trkpt lat="45.65579" lon="5.31616">
        <ele>223</ele>
        <time>2021-07-20T05:01:41.576Z</time>
      </trkpt>
      <trkpt lat="45.65584" lon="5.31623">
        <ele>222</ele>
        <time>2021-07-20T05:01:42.576Z</time>
      </trkpt>
      <trkpt lat="45.65589" lon="5.3163">
        <ele>222</ele>
        <time>2021-07-20T05:01:43.576Z</time>
      </trkpt>
      <trkpt lat="45.65594" lon="5.31638">
        <ele>222</ele>
        <time>2021-07-20T05:01:44.575Z</time>
      </trkpt>
      <trkpt lat="45.65599" lon="5.31645">
        <ele>222</ele>
        <time>2021-07-20T05:01:45.576Z</time>
      </trkpt>
      <trkpt lat="45.65604" lon="5.31652">
        <ele>222</ele>
        <time>2021-07-20T05:01:46.576Z</time>
      </trkpt>
      <trkpt lat="45.65609" lon="5.31659">
        <ele>222</ele>
        <time>2021-07-20T05:01:47.575Z</time>
      </trkpt>
      <trkpt lat="45.65615" lon="5.31666">
        <ele>222</ele>
        <time>2021-07-20T05:01:48.576Z</time>
      </trkpt>
      <trkpt lat="45.6562" lon="5.31674">
        <ele>222</ele>
        <time>2021-07-20T05:01:49.576Z</time>
      </trkpt>
      <trkpt lat="45.65625" lon="5.31681">
        <ele>222</ele>
        <time>2021-07-20T05:01:50.576Z</time>
      </trkpt>
      <trkpt lat="45.65631" lon="5.31689">
        <ele>222</ele>
        <time>2021-07-20T05:01:51.576Z</time>
      </trkpt>
      <trkpt lat="45.65636" lon="5.31696">
        <ele>222</ele>
        <time>2021-07-20T05:01:52.575Z</time>
      </trkpt>
      <trkpt lat="45.65641" lon="5.31704">
        <ele>222</ele>
        <time>2021-07-20T05:01:53.576Z</time>
      </trkpt>
      <trkpt lat="45.65647" lon="5.31711">
        <ele>223</ele>
        <time>2021-07-20T05:01:54.575Z</time>
      </trkpt>
      <trkpt lat="45.65652" lon="5.31718">
        <ele>222</ele>
        <time>2021-07-20T05:01:55.575Z</time>
      </trkpt>
      <trkpt lat="45.65658" lon="5.31726">
        <ele>222</ele>
        <time>2021-07-20T05:01:56.575Z</time>
      </trkpt>
      <trkpt lat="45.65663" lon="5.31734">
        <ele>223</ele>
        <time>2021-07-20T05:01:57.575Z</time>
      </trkpt>
      <trkpt lat="45.65669" lon="5.31742">
        <ele>223</ele>
        <time>2021-07-20T05:01:58.576Z</time>
      </trkpt>
      <trkpt lat="45.65674" lon="5.3175">
        <ele>223</ele>
        <time>2021-07-20T05:01:59.576Z</time>
      </trkpt>
      <trkpt lat="45.6568" lon="5.31758">
        <ele>223</ele>
        <time>2021-07-20T05:02:00.576Z</time>
      </trkpt>
      <trkpt lat="45.65685" lon="5.31765">
        <ele>223</ele>
        <time>2021-07-20T05:02:01.576Z</time>
      </trkpt>
      <trkpt lat="45.65691" lon="5.31773">
        <ele>223</ele>
        <time>2021-07-20T05:02:02.576Z</time>
      </trkpt>
      <trkpt lat="45.65696" lon="5.31781">
        <ele>223</ele>
        <time>2021-07-20T05:02:03.576Z</time>
      </trkpt>
      <trkpt lat="45.65702" lon="5.31789">
        <ele>222</ele>
        <time>2021-07-20T05:02:04.576Z</time>
      </trkpt>
      <trkpt lat="45.65707" lon="5.31797">
        <ele>222</ele>
        <time>2021-07-20T05:02:05.576Z</time>
      </trkpt>
      <trkpt lat="45.65713" lon="5.31805">
        <ele>222</ele>
        <time>2021-07-20T05:02:06.576Z</time>
      </trkpt>
      <trkpt lat="45.65718" lon="5.31813">
        <ele>222</ele>
        <time>2021-07-20T05:02:07.576Z</time>
      </trkpt>
      <trkpt lat="45.65724" lon="5.31821">
        <ele>222</ele>
        <time>2021-07-20T05:02:08.576Z</time>
      </trkpt>
      <trkpt lat="45.65729" lon="5.31829">
        <ele>222</ele>
        <time>2021-07-20T05:02:09.576Z</time>
      </trkpt>
      <trkpt lat="45.65734" lon="5.31837">
        <ele>222</ele>
        <time>2021-07-20T05:02:10.576Z</time>
      </trkpt>
      <trkpt lat="45.6574" lon="5.31844">
        <ele>222</ele>
        <time>2021-07-20T05:02:11.576Z</time>
      </trkpt>
      <trkpt lat="45.65745" lon="5.31852">
        <ele>222</ele>
        <time>2021-07-20T05:02:12.576Z</time>
      </trkpt>
      <trkpt lat="45.6575" lon="5.3186">
        <ele>223</ele>
        <time>2021-07-20T05:02:13.575Z</time>
      </trkpt>
      <trkpt lat="45.65756" lon="5.31868">
        <ele>223</ele>
        <time>2021-07-20T05:02:14.576Z</time>
      </trkpt>
      <trkpt lat="45.65761" lon="5.31876">
        <ele>223</ele>
        <time>2021-07-20T05:02:15.576Z</time>
      </trkpt>
      <trkpt lat="45.65767" lon="5.31883">
        <ele>223</ele>
        <time>2021-07-20T05:02:16.576Z</time>
      </trkpt>
      <trkpt lat="45.65772" lon="5.31891">
        <ele>223</ele>
        <time>2021-07-20T05:02:17.576Z</time>
      </trkpt>
      <trkpt lat="45.65777" lon="5.31899">
        <ele>223</ele>
        <time>2021-07-20T05:02:18.576Z</time>
      </trkpt>
      <trkpt lat="45.65783" lon="5.31907">
        <ele>223</ele>
        <time>2021-07-20T05:02:19.576Z</time>
      </trkpt>
      <trkpt lat="45.65788" lon="5.31915">
        <ele>223</ele>
        <time>2021-07-20T05:02:20.576Z</time>
      </trkpt>
      <trkpt lat="45.65793" lon="5.31922">
        <ele>223</ele>
        <time>2021-07-20T05:02:21.575Z</time>
      </trkpt>
      <trkpt lat="45.65799" lon="5.3193">
        <ele>223</ele>
        <time>2021-07-20T05:02:22.576Z</time>
      </trkpt>
      <trkpt lat="45.65804" lon="5.31938">
        <ele>223</ele>
        <time>2021-07-20T05:02:23.575Z</time>
      </trkpt>
      <trkpt lat="45.65809" lon="5.31945">
        <ele>222</ele>
        <time>2021-07-20T05:02:24.576Z</time>
      </trkpt>
      <trkpt lat="45.65815" lon="5.31953">
        <ele>222</ele>
        <time>2021-07-20T05:02:25.576Z</time>
      </trkpt>
      <trkpt lat="45.6582" lon="5.31961">
        <ele>222</ele>
        <time>2021-07-20T05:02:26.575Z</time>
      </trkpt>
      <trkpt lat="45.65826" lon="5.31968">
        <ele>222</ele>
        <time>2021-07-20T05:02:27.575Z</time>
      </trkpt>
      <trkpt lat="45.65831" lon="5.31976">
        <ele>222</ele>
        <time>2021-07-20T05:02:28.575Z</time>
      </trkpt>
      <trkpt lat="45.65836" lon="5.31984">
        <ele>222</ele>
        <time>2021-07-20T05:02:29.576Z</time>
      </trkpt>
      <trkpt lat="45.65842" lon="5.31991">
        <ele>222</ele>
        <time>2021-07-20T05:02:30.576Z</time>
      </trkpt>
      <trkpt lat="45.65847" lon="5.31999">
        <ele>222</ele>
        <time>2021-07-20T05:02:31.575Z</time>
      </trkpt>
      <trkpt lat="45.65852" lon="5.32007">
        <ele>222</ele>
        <time>2021-07-20T05:02:32.575Z</time>
      </trkpt>
      <trkpt lat="45.65857" lon="5.32014">
        <ele>222</ele>
        <time>2021-07-20T05:02:33.576Z</time>
      </trkpt>
      <trkpt lat="45.65862" lon="5.32021">
        <ele>222</ele>
        <time>2021-07-20T05:02:34.576Z</time>
      </trkpt>
      <trkpt lat="45.65868" lon="5.3203">
        <ele>221</ele>
        <time>2021-07-20T05:02:35.576Z</time>
      </trkpt>
      <trkpt lat="45.65873" lon="5.32037">
        <ele>221</ele>
        <time>2021-07-20T05:02:36.576Z</time>
      </trkpt>
      <trkpt lat="45.65878" lon="5.32045">
        <ele>221</ele>
        <time>2021-07-20T05:02:37.576Z</time>
      </trkpt>
      <trkpt lat="45.65883" lon="5.32052">
        <ele>221</ele>
        <time>2021-07-20T05:02:38.576Z</time>
      </trkpt>
      <trkpt lat="45.65888" lon="5.32059">
        <ele>221</ele>
        <time>2021-07-20T05:02:39.576Z</time>
      </trkpt>
      <trkpt lat="45.65893" lon="5.32067">
        <ele>221</ele>
        <time>2021-07-20T05:02:40.576Z</time>
      </trkpt>
      <trkpt lat="45.65898" lon="5.32074">
        <ele>221</ele>
        <time>2021-07-20T05:02:41.575Z</time>
      </trkpt>
      <trkpt lat="45.65903" lon="5.32081">
        <ele>221</ele>
        <time>2021-07-20T05:02:42.575Z</time>
      </trkpt>
      <trkpt lat="45.65908" lon="5.32088">
        <ele>221</ele>
        <time>2021-07-20T05:02:43.576Z</time>
      </trkpt>
      <trkpt lat="45.65913" lon="5.32095">
        <ele>222</ele>
        <time>2021-07-20T05:02:44.576Z</time>
      </trkpt>
      <trkpt lat="45.65918" lon="5.32103">
        <ele>222</ele>
        <time>2021-07-20T05:02:45.575Z</time>
      </trkpt>
      <trkpt lat="45.65923" lon="5.3211">
        <ele>222</ele>
        <time>2021-07-20T05:02:46.576Z</time>
      </trkpt>
      <trkpt lat="45.65928" lon="5.32117">
        <ele>222</ele>
        <time>2021-07-20T05:02:47.576Z</time>
      </trkpt>
      <trkpt lat="45.65933" lon="5.32124">
        <ele>222</ele>
        <time>2021-07-20T05:02:48.575Z</time>
      </trkpt>
      <trkpt lat="45.65939" lon="5.32131">
        <ele>222</ele>
        <time>2021-07-20T05:02:49.576Z</time>
      </trkpt>
      <trkpt lat="45.65944" lon="5.32138">
        <ele>222</ele>
        <time>2021-07-20T05:02:50.575Z</time>
      </trkpt>
      <trkpt lat="45.65949" lon="5.32145">
        <ele>222</ele>
        <time>2021-07-20T05:02:51.575Z</time>
      </trkpt>
      <trkpt lat="45.65954" lon="5.32153">
        <ele>222</ele>
        <time>2021-07-20T05:02:52.576Z</time>
      </trkpt>
      <trkpt lat="45.65959" lon="5.3216">
        <ele>222</ele>
        <time>2021-07-20T05:02:53.576Z</time>
      </trkpt>
      <trkpt lat="45.65964" lon="5.32167">
        <ele>222</ele>
        <time>2021-07-20T05:02:54.576Z</time>
      </trkpt>
      <trkpt lat="45.65969" lon="5.32174">
        <ele>222</ele>
        <time>2021-07-20T05:02:55.576Z</time>
      </trkpt>
      <trkpt lat="45.65973" lon="5.3218">
        <ele>222</ele>
        <time>2021-07-20T05:02:56.576Z</time>
      </trkpt>
      <trkpt lat="45.65978" lon="5.32189">
        <ele>222</ele>
        <time>2021-07-20T05:02:57.575Z</time>
      </trkpt>
      <trkpt lat="45.65983" lon="5.32196">
        <ele>222</ele>
        <time>2021-07-20T05:02:58.576Z</time>
      </trkpt>
      <trkpt lat="45.65988" lon="5.32203">
        <ele>222</ele>
        <time>2021-07-20T05:02:59.575Z</time>
      </trkpt>
      <trkpt lat="45.65993" lon="5.32211">
        <ele>222</ele>
        <time>2021-07-20T05:03:00.576Z</time>
      </trkpt>
      <trkpt lat="45.65998" lon="5.32217">
        <ele>222</ele>
        <time>2021-07-20T05:03:01.575Z</time>
      </trkpt>
      <trkpt lat="45.66002" lon="5.32225">
        <ele>222</ele>
        <time>2021-07-20T05:03:02.576Z</time>
      </trkpt>
      <trkpt lat="45.66007" lon="5.32232">
        <ele>222</ele>
        <time>2021-07-20T05:03:03.575Z</time>
      </trkpt>
      <trkpt lat="45.66012" lon="5.32239">
        <ele>222</ele>
        <time>2021-07-20T05:03:04.575Z</time>
      </trkpt>
      <trkpt lat="45.66016" lon="5.32246">
        <ele>222</ele>
        <time>2021-07-20T05:03:05.576Z</time>
      </trkpt>
      <trkpt lat="45.66021" lon="5.32253">
        <ele>222</ele>
        <time>2021-07-20T05:03:06.576Z</time>
      </trkpt>
      <trkpt lat="45.66026" lon="5.32261">
        <ele>222</ele>
        <time>2021-07-20T05:03:07.576Z</time>
      </trkpt>
      <trkpt lat="45.66031" lon="5.32268">
        <ele>223</ele>
        <time>2021-07-20T05:03:08.576Z</time>
      </trkpt>
      <trkpt lat="45.66035" lon="5.32274">
        <ele>223</ele>
        <time>2021-07-20T05:03:09.576Z</time>
      </trkpt>
      <trkpt lat="45.6604" lon="5.32284">
        <ele>222</ele>
        <time>2021-07-20T05:03:10.576Z</time>
      </trkpt>
      <trkpt lat="45.66045" lon="5.32292">
        <ele>223</ele>
        <time>2021-07-20T05:03:11.576Z</time>
      </trkpt>
      <trkpt lat="45.66049" lon="5.323">
        <ele>223</ele>
        <time>2021-07-20T05:03:12.575Z</time>
      </trkpt>
      <trkpt lat="45.66054" lon="5.32308">
        <ele>223</ele>
        <time>2021-07-20T05:03:13.576Z</time>
      </trkpt>
      <trkpt lat="45.66059" lon="5.32316">
        <ele>223</ele>
        <time>2021-07-20T05:03:14.576Z</time>
      </trkpt>
      <trkpt lat="45.66063" lon="5.32324">
        <ele>223</ele>
        <time>2021-07-20T05:03:15.575Z</time>
      </trkpt>
      <trkpt lat="45.66068" lon="5.32332">
        <ele>223</ele>
        <time>2021-07-20T05:03:16.575Z</time>
      </trkpt>
      <trkpt lat="45.66071" lon="5.32338">
        <ele>223</ele>
        <time>2021-07-20T05:03:17.575Z</time>
      </trkpt>
      <trkpt lat="45.66076" lon="5.32346">
        <ele>223</ele>
        <time>2021-07-20T05:03:18.576Z</time>
      </trkpt>
      <trkpt lat="45.66082" lon="5.32355">
        <ele>223</ele>
        <time>2021-07-20T05:03:19.575Z</time>
      </trkpt>
      <trkpt lat="45.66087" lon="5.32362">
        <ele>223</ele>
        <time>2021-07-20T05:03:20.576Z</time>
      </trkpt>
      <trkpt lat="45.66092" lon="5.32369">
        <ele>223</ele>
        <time>2021-07-20T05:03:21.576Z</time>
      </trkpt>
      <trkpt lat="45.66096" lon="5.32374">
        <ele>223</ele>
        <time>2021-07-20T05:03:22.576Z</time>
      </trkpt>
      <trkpt lat="45.66103" lon="5.32381">
        <ele>223</ele>
        <time>2021-07-20T05:03:23.575Z</time>
      </trkpt>
      <trkpt lat="45.66109" lon="5.32387">
        <ele>223</ele>
        <time>2021-07-20T05:03:24.575Z</time>
      </trkpt>
      <trkpt lat="45.66114" lon="5.32393">
        <ele>223</ele>
        <time>2021-07-20T05:03:25.575Z</time>
      </trkpt>
      <trkpt lat="45.6612" lon="5.32399">
        <ele>223</ele>
        <time>2021-07-20T05:03:26.575Z</time>
      </trkpt>
      <trkpt lat="45.66124" lon="5.32405">
        <ele>223</ele>
        <time>2021-07-20T05:03:27.575Z</time>
      </trkpt>
      <trkpt lat="45.66131" lon="5.32413">
        <ele>223</ele>
        <time>2021-07-20T05:03:28.576Z</time>
      </trkpt>
      <trkpt lat="45.66136" lon="5.32421">
        <ele>223</ele>
        <time>2021-07-20T05:03:29.576Z</time>
      </trkpt>
      <trkpt lat="45.66141" lon="5.32428">
        <ele>222</ele>
        <time>2021-07-20T05:03:30.576Z</time>
      </trkpt>
      <trkpt lat="45.66146" lon="5.32436">
        <ele>222</ele>
        <time>2021-07-20T05:03:31.576Z</time>
      </trkpt>
      <trkpt lat="45.66151" lon="5.32443">
        <ele>223</ele>
        <time>2021-07-20T05:03:32.576Z</time>
      </trkpt>
      <trkpt lat="45.66156" lon="5.32451">
        <ele>223</ele>
        <time>2021-07-20T05:03:33.575Z</time>
      </trkpt>
      <trkpt lat="45.6616" lon="5.3246">
        <ele>223</ele>
        <time>2021-07-20T05:03:34.576Z</time>
      </trkpt>
      <trkpt lat="45.66164" lon="5.32467">
        <ele>223</ele>
        <time>2021-07-20T05:03:35.575Z</time>
      </trkpt>
      <trkpt lat="45.66168" lon="5.32478">
        <ele>223</ele>
        <time>2021-07-20T05:03:36.576Z</time>
      </trkpt>
      <trkpt lat="45.66173" lon="5.32487">
        <ele>223</ele>
        <time>2021-07-20T05:03:37.576Z</time>
      </trkpt>
      <trkpt lat="45.66176" lon="5.32493">
        <ele>222</ele>
        <time>2021-07-20T05:03:38.576Z</time>
      </trkpt>
      <trkpt lat="45.66181" lon="5.32501">
        <ele>222</ele>
        <time>2021-07-20T05:03:39.575Z</time>
      </trkpt>
      <trkpt lat="45.66187" lon="5.32509">
        <ele>222</ele>
        <time>2021-07-20T05:03:40.576Z</time>
      </trkpt>
      <trkpt lat="45.66192" lon="5.32516">
        <ele>222</ele>
        <time>2021-07-20T05:03:41.576Z</time>
      </trkpt>
      <trkpt lat="45.66198" lon="5.32522">
        <ele>222</ele>
        <time>2021-07-20T05:03:42.575Z</time>
      </trkpt>
      <trkpt lat="45.66204" lon="5.32528">
        <ele>222</ele>
        <time>2021-07-20T05:03:43.576Z</time>
      </trkpt>
      <trkpt lat="45.6621" lon="5.32534">
        <ele>222</ele>
        <time>2021-07-20T05:03:44.576Z</time>
      </trkpt>
      <trkpt lat="45.66216" lon="5.32539">
        <ele>222</ele>
        <time>2021-07-20T05:03:45.575Z</time>
      </trkpt>
      <trkpt lat="45.66222" lon="5.32545">
        <ele>222</ele>
        <time>2021-07-20T05:03:46.576Z</time>
      </trkpt>
      <trkpt lat="45.66228" lon="5.32551">
        <ele>222</ele>
        <time>2021-07-20T05:03:47.576Z</time>
      </trkpt>
      <trkpt lat="45.66234" lon="5.32558">
        <ele>222</ele>
        <time>2021-07-20T05:03:48.576Z</time>
      </trkpt>
      <trkpt lat="45.66239" lon="5.32565">
        <ele>222</ele>
        <time>2021-07-20T05:03:49.575Z</time>
      </trkpt>
      <trkpt lat="45.66244" lon="5.32572">
        <ele>222</ele>
        <time>2021-07-20T05:03:50.575Z</time>
      </trkpt>
      <trkpt lat="45.66249" lon="5.32578">
        <ele>222</ele>
        <time>2021-07-20T05:03:51.576Z</time>
      </trkpt>
      <trkpt lat="45.66254" lon="5.32585">
        <ele>223</ele>
        <time>2021-07-20T05:03:52.575Z</time>
      </trkpt>
      <trkpt lat="45.66259" lon="5.32592">
        <ele>223</ele>
        <time>2021-07-20T05:03:53.576Z</time>
      </trkpt>
      <trkpt lat="45.66263" lon="5.32599">
        <ele>223</ele>
        <time>2021-07-20T05:03:54.576Z</time>
      </trkpt>
      <trkpt lat="45.66268" lon="5.32605">
        <ele>223</ele>
        <time>2021-07-20T05:03:55.575Z</time>
      </trkpt>
      <trkpt lat="45.66273" lon="5.32612">
        <ele>223</ele>
        <time>2021-07-20T05:03:56.576Z</time>
      </trkpt>
      <trkpt lat="45.66277" lon="5.32619">
        <ele>223</ele>
        <time>2021-07-20T05:03:57.576Z</time>
      </trkpt>
      <trkpt lat="45.66282" lon="5.32625">
        <ele>223</ele>
        <time>2021-07-20T05:03:58.576Z</time>
      </trkpt>
      <trkpt lat="45.66286" lon="5.32632">
        <ele>224</ele>
        <time>2021-07-20T05:03:59.575Z</time>
      </trkpt>
      <trkpt lat="45.66291" lon="5.32638">
        <ele>224</ele>
        <time>2021-07-20T05:04:00.575Z</time>
      </trkpt>
      <trkpt lat="45.66295" lon="5.32644">
        <ele>224</ele>
        <time>2021-07-20T05:04:01.576Z</time>
      </trkpt>
      <trkpt lat="45.66299" lon="5.32651">
        <ele>224</ele>
        <time>2021-07-20T05:04:02.576Z</time>
      </trkpt>
      <trkpt lat="45.66304" lon="5.32657">
        <ele>225</ele>
        <time>2021-07-20T05:04:03.576Z</time>
      </trkpt>
      <trkpt lat="45.66308" lon="5.32663">
        <ele>225</ele>
        <time>2021-07-20T05:04:04.576Z</time>
      </trkpt>
      <trkpt lat="45.66312" lon="5.32669">
        <ele>225</ele>
        <time>2021-07-20T05:04:05.576Z</time>
      </trkpt>
      <trkpt lat="45.66316" lon="5.32675">
        <ele>226</ele>
        <time>2021-07-20T05:04:06.576Z</time>
      </trkpt>
      <trkpt lat="45.6632" lon="5.32681">
        <ele>226</ele>
        <time>2021-07-20T05:04:07.576Z</time>
      </trkpt>
      <trkpt lat="45.66325" lon="5.32686">
        <ele>225</ele>
        <time>2021-07-20T05:04:08.576Z</time>
      </trkpt>
      <trkpt lat="45.66329" lon="5.32692">
        <ele>225</ele>
        <time>2021-07-20T05:04:09.576Z</time>
      </trkpt>
      <trkpt lat="45.66334" lon="5.32698">
        <ele>226</ele>
        <time>2021-07-20T05:04:10.576Z</time>
      </trkpt>
      <trkpt lat="45.66337" lon="5.32702">
        <ele>226</ele>
        <time>2021-07-20T05:04:11.576Z</time>
      </trkpt>
      <trkpt lat="45.66342" lon="5.32707">
        <ele>226</ele>
        <time>2021-07-20T05:04:12.575Z</time>
      </trkpt>
      <trkpt lat="45.66346" lon="5.32712">
        <ele>227</ele>
        <time>2021-07-20T05:04:13.575Z</time>
      </trkpt>
      <trkpt lat="45.66351" lon="5.32717">
        <ele>227</ele>
        <time>2021-07-20T05:04:14.575Z</time>
      </trkpt>
      <trkpt lat="45.66356" lon="5.32721">
        <ele>227</ele>
        <time>2021-07-20T05:04:15.575Z</time>
      </trkpt>
      <trkpt lat="45.66361" lon="5.32725">
        <ele>228</ele>
        <time>2021-07-20T05:04:16.575Z</time>
      </trkpt>
      <trkpt lat="45.66365" lon="5.3273">
        <ele>228</ele>
        <time>2021-07-20T05:04:17.575Z</time>
      </trkpt>
      <trkpt lat="45.6637" lon="5.32733">
        <ele>228</ele>
        <time>2021-07-20T05:04:18.576Z</time>
      </trkpt>
      <trkpt lat="45.66376" lon="5.32737">
        <ele>228</ele>
        <time>2021-07-20T05:04:19.576Z</time>
      </trkpt>
      <trkpt lat="45.66381" lon="5.32741">
        <ele>228</ele>
        <time>2021-07-20T05:04:20.576Z</time>
      </trkpt>
      <trkpt lat="45.66386" lon="5.32745">
        <ele>228</ele>
        <time>2021-07-20T05:04:21.576Z</time>
      </trkpt>
      <trkpt lat="45.66391" lon="5.32749">
        <ele>228</ele>
        <time>2021-07-20T05:04:22.576Z</time>
      </trkpt>
      <trkpt lat="45.66396" lon="5.32753">
        <ele>229</ele>
        <time>2021-07-20T05:04:23.576Z</time>
      </trkpt>
      <trkpt lat="45.66401" lon="5.32756">
        <ele>229</ele>
        <time>2021-07-20T05:04:24.575Z</time>
      </trkpt>
      <trkpt lat="45.66406" lon="5.3276">
        <ele>229</ele>
        <time>2021-07-20T05:04:25.575Z</time>
      </trkpt>
      <trkpt lat="45.66411" lon="5.32764">
        <ele>229</ele>
        <time>2021-07-20T05:04:26.576Z</time>
      </trkpt>
      <trkpt lat="45.66416" lon="5.32768">
        <ele>229</ele>
        <time>2021-07-20T05:04:27.575Z</time>
      </trkpt>
      <trkpt lat="45.66422" lon="5.32771">
        <ele>229</ele>
        <time>2021-07-20T05:04:28.575Z</time>
      </trkpt>
      <trkpt lat="45.66427" lon="5.32775">
        <ele>229</ele>
        <time>2021-07-20T05:04:29.576Z</time>
      </trkpt>
      <trkpt lat="45.66432" lon="5.32779">
        <ele>228</ele>
        <time>2021-07-20T05:04:30.576Z</time>
      </trkpt>
      <trkpt lat="45.66438" lon="5.32783">
        <ele>229</ele>
        <time>2021-07-20T05:04:31.576Z</time>
      </trkpt>
      <trkpt lat="45.66443" lon="5.32787">
        <ele>229</ele>
        <time>2021-07-20T05:04:32.575Z</time>
      </trkpt>
      <trkpt lat="45.66449" lon="5.32791">
        <ele>229</ele>
        <time>2021-07-20T05:04:33.576Z</time>
      </trkpt>
      <trkpt lat="45.66454" lon="5.32795">
        <ele>229</ele>
        <time>2021-07-20T05:04:34.576Z</time>
      </trkpt>
      <trkpt lat="45.6646" lon="5.32799">
        <ele>229</ele>
        <time>2021-07-20T05:04:35.575Z</time>
      </trkpt>
      <trkpt lat="45.66466" lon="5.32803">
        <ele>229</ele>
        <time>2021-07-20T05:04:36.576Z</time>
      </trkpt>
      <trkpt lat="45.66471" lon="5.32807">
        <ele>230</ele>
        <time>2021-07-20T05:04:37.576Z</time>
      </trkpt>
      <trkpt lat="45.66477" lon="5.32812">
        <ele>230</ele>
        <time>2021-07-20T05:04:38.575Z</time>
      </trkpt>
      <trkpt lat="45.66483" lon="5.32816">
        <ele>230</ele>
        <time>2021-07-20T05:04:39.576Z</time>
      </trkpt>
      <trkpt lat="45.66488" lon="5.3282">
        <ele>230</ele>
        <time>2021-07-20T05:04:40.576Z</time>
      </trkpt>
      <trkpt lat="45.66494" lon="5.32824">
        <ele>230</ele>
        <time>2021-07-20T05:04:41.576Z</time>
      </trkpt>
      <trkpt lat="45.665" lon="5.32829">
        <ele>230</ele>
        <time>2021-07-20T05:04:42.576Z</time>
      </trkpt>
      <trkpt lat="45.66506" lon="5.32833">
        <ele>230</ele>
        <time>2021-07-20T05:04:43.576Z</time>
      </trkpt>
      <trkpt lat="45.66512" lon="5.32837">
        <ele>229</ele>
        <time>2021-07-20T05:04:44.576Z</time>
      </trkpt>
      <trkpt lat="45.66518" lon="5.32841">
        <ele>229</ele>
        <time>2021-07-20T05:04:45.575Z</time>
      </trkpt>
      <trkpt lat="45.66524" lon="5.32845">
        <ele>229</ele>
        <time>2021-07-20T05:04:46.575Z</time>
      </trkpt>
      <trkpt lat="45.6653" lon="5.3285">
        <ele>228</ele>
        <time>2021-07-20T05:04:47.576Z</time>
      </trkpt>
      <trkpt lat="45.66536" lon="5.32854">
        <ele>228</ele>
        <time>2021-07-20T05:04:48.576Z</time>
      </trkpt>
      <trkpt lat="45.66541" lon="5.32859">
        <ele>228</ele>
        <time>2021-07-20T05:04:49.576Z</time>
      </trkpt>
      <trkpt lat="45.66547" lon="5.32863">
        <ele>228</ele>
        <time>2021-07-20T05:04:50.576Z</time>
      </trkpt>
      <trkpt lat="45.66553" lon="5.32868">
        <ele>228</ele>
        <time>2021-07-20T05:04:51.575Z</time>
      </trkpt>
      <trkpt lat="45.66559" lon="5.32872">
        <ele>229</ele>
        <time>2021-07-20T05:04:52.575Z</time>
      </trkpt>
      <trkpt lat="45.66565" lon="5.32877">
        <ele>230</ele>
        <time>2021-07-20T05:04:53.575Z</time>
      </trkpt>
      <trkpt lat="45.66571" lon="5.32881">
        <ele>230</ele>
        <time>2021-07-20T05:04:54.576Z</time>
      </trkpt>
      <trkpt lat="45.66578" lon="5.32886">
        <ele>230</ele>
        <time>2021-07-20T05:04:55.576Z</time>
      </trkpt>
      <trkpt lat="45.66584" lon="5.3289">
        <ele>230</ele>
        <time>2021-07-20T05:04:56.576Z</time>
      </trkpt>
      <trkpt lat="45.6659" lon="5.32895">
        <ele>230</ele>
        <time>2021-07-20T05:04:57.576Z</time>
      </trkpt>
      <trkpt lat="45.66596" lon="5.329">
        <ele>231</ele>
        <time>2021-07-20T05:04:58.575Z</time>
      </trkpt>
      <trkpt lat="45.66602" lon="5.32904">
        <ele>231</ele>
        <time>2021-07-20T05:04:59.576Z</time>
      </trkpt>
      <trkpt lat="45.66608" lon="5.3291">
        <ele>231</ele>
        <time>2021-07-20T05:05:00.575Z</time>
      </trkpt>
      <trkpt lat="45.66614" lon="5.32915">
        <ele>231</ele>
        <time>2021-07-20T05:05:01.576Z</time>
      </trkpt>
      <trkpt lat="45.6662" lon="5.3292">
        <ele>231</ele>
        <time>2021-07-20T05:05:02.576Z</time>
      </trkpt>
      <trkpt lat="45.66625" lon="5.32925">
        <ele>231</ele>
        <time>2021-07-20T05:05:03.576Z</time>
      </trkpt>
      <trkpt lat="45.66631" lon="5.32931">
        <ele>231</ele>
        <time>2021-07-20T05:05:04.575Z</time>
      </trkpt>
      <trkpt lat="45.66638" lon="5.32938">
        <ele>231</ele>
        <time>2021-07-20T05:05:05.575Z</time>
      </trkpt>
      <trkpt lat="45.66644" lon="5.32944">
        <ele>231</ele>
        <time>2021-07-20T05:05:06.576Z</time>
      </trkpt>
      <trkpt lat="45.6665" lon="5.32951">
        <ele>231</ele>
        <time>2021-07-20T05:05:07.575Z</time>
      </trkpt>
      <trkpt lat="45.66656" lon="5.32957">
        <ele>232</ele>
        <time>2021-07-20T05:05:08.575Z</time>
      </trkpt>
      <trkpt lat="45.66661" lon="5.32965">
        <ele>232</ele>
        <time>2021-07-20T05:05:09.575Z</time>
      </trkpt>
      <trkpt lat="45.66667" lon="5.32972">
        <ele>232</ele>
        <time>2021-07-20T05:05:10.576Z</time>
      </trkpt>
      <trkpt lat="45.66672" lon="5.3298">
        <ele>232</ele>
        <time>2021-07-20T05:05:11.575Z</time>
      </trkpt>
      <trkpt lat="45.66677" lon="5.32989">
        <ele>232</ele>
        <time>2021-07-20T05:05:12.575Z</time>
      </trkpt>
      <trkpt lat="45.66681" lon="5.32998">
        <ele>232</ele>
        <time>2021-07-20T05:05:13.576Z</time>
      </trkpt>
      <trkpt lat="45.66686" lon="5.33006">
        <ele>231</ele>
        <time>2021-07-20T05:05:14.575Z</time>
      </trkpt>
      <trkpt lat="45.6669" lon="5.33016">
        <ele>231</ele>
        <time>2021-07-20T05:05:15.575Z</time>
      </trkpt>
      <trkpt lat="45.66695" lon="5.33025">
        <ele>231</ele>
        <time>2021-07-20T05:05:16.576Z</time>
      </trkpt>
      <trkpt lat="45.66699" lon="5.33035">
        <ele>231</ele>
        <time>2021-07-20T05:05:17.576Z</time>
      </trkpt>
      <trkpt lat="45.66703" lon="5.33044">
        <ele>231</ele>
        <time>2021-07-20T05:05:18.575Z</time>
      </trkpt>
      <trkpt lat="45.66707" lon="5.33054">
        <ele>231</ele>
        <time>2021-07-20T05:05:19.576Z</time>
      </trkpt>
      <trkpt lat="45.6671" lon="5.33063">
        <ele>232</ele>
        <time>2021-07-20T05:05:20.576Z</time>
      </trkpt>
      <trkpt lat="45.66713" lon="5.33073">
        <ele>232</ele>
        <time>2021-07-20T05:05:21.576Z</time>
      </trkpt>
      <trkpt lat="45.66718" lon="5.33085">
        <ele>232</ele>
        <time>2021-07-20T05:05:22.575Z</time>
      </trkpt>
      <trkpt lat="45.66721" lon="5.33095">
        <ele>232</ele>
        <time>2021-07-20T05:05:23.575Z</time>
      </trkpt>
      <trkpt lat="45.66725" lon="5.33105">
        <ele>232</ele>
        <time>2021-07-20T05:05:24.576Z</time>
      </trkpt>
      <trkpt lat="45.66729" lon="5.33115">
        <ele>232</ele>
        <time>2021-07-20T05:05:25.576Z</time>
      </trkpt>
      <trkpt lat="45.66732" lon="5.33125">
        <ele>232</ele>
        <time>2021-07-20T05:05:26.576Z</time>
      </trkpt>
      <trkpt lat="45.66735" lon="5.33135">
        <ele>232</ele>
        <time>2021-07-20T05:05:27.576Z</time>
      </trkpt>
      <trkpt lat="45.66739" lon="5.33145">
        <ele>233</ele>
        <time>2021-07-20T05:05:28.575Z</time>
      </trkpt>
      <trkpt lat="45.66742" lon="5.33155">
        <ele>233</ele>
        <time>2021-07-20T05:05:29.576Z</time>
      </trkpt>
      <trkpt lat="45.66745" lon="5.33163">
        <ele>233</ele>
        <time>2021-07-20T05:05:30.576Z</time>
      </trkpt>
      <trkpt lat="45.66749" lon="5.33174">
        <ele>233</ele>
        <time>2021-07-20T05:05:31.576Z</time>
      </trkpt>
      <trkpt lat="45.66752" lon="5.33183">
        <ele>233</ele>
        <time>2021-07-20T05:05:32.576Z</time>
      </trkpt>
      <trkpt lat="45.66754" lon="5.33192">
        <ele>232</ele>
        <time>2021-07-20T05:05:33.575Z</time>
      </trkpt>
      <trkpt lat="45.66757" lon="5.33199">
        <ele>232</ele>
        <time>2021-07-20T05:05:34.576Z</time>
      </trkpt>
      <trkpt lat="45.6676" lon="5.3321">
        <ele>232</ele>
        <time>2021-07-20T05:05:35.576Z</time>
      </trkpt>
      <trkpt lat="45.66763" lon="5.33218">
        <ele>232</ele>
        <time>2021-07-20T05:05:36.576Z</time>
      </trkpt>
      <trkpt lat="45.66765" lon="5.33227">
        <ele>232</ele>
        <time>2021-07-20T05:05:37.576Z</time>
      </trkpt>
      <trkpt lat="45.66768" lon="5.33235">
        <ele>232</ele>
        <time>2021-07-20T05:05:38.575Z</time>
      </trkpt>
      <trkpt lat="45.6677" lon="5.33242">
        <ele>233</ele>
        <time>2021-07-20T05:05:39.576Z</time>
      </trkpt>
      <trkpt lat="45.66773" lon="5.33252">
        <ele>233</ele>
        <time>2021-07-20T05:05:40.575Z</time>
      </trkpt>
      <trkpt lat="45.66776" lon="5.3326">
        <ele>233</ele>
        <time>2021-07-20T05:05:41.575Z</time>
      </trkpt>
      <trkpt lat="45.66779" lon="5.33268">
        <ele>233</ele>
        <time>2021-07-20T05:05:42.575Z</time>
      </trkpt>
      <trkpt lat="45.66781" lon="5.33276">
        <ele>233</ele>
        <time>2021-07-20T05:05:43.576Z</time>
      </trkpt>
      <trkpt lat="45.66784" lon="5.33284">
        <ele>234</ele>
        <time>2021-07-20T05:05:44.575Z</time>
      </trkpt>
      <trkpt lat="45.66787" lon="5.33292">
        <ele>234</ele>
        <time>2021-07-20T05:05:45.576Z</time>
      </trkpt>
      <trkpt lat="45.66789" lon="5.333">
        <ele>235</ele>
        <time>2021-07-20T05:05:46.576Z</time>
      </trkpt>
      <trkpt lat="45.66792" lon="5.33308">
        <ele>235</ele>
        <time>2021-07-20T05:05:47.575Z</time>
      </trkpt>
      <trkpt lat="45.66794" lon="5.33316">
        <ele>235</ele>
        <time>2021-07-20T05:05:48.576Z</time>
      </trkpt>
      <trkpt lat="45.66797" lon="5.33324">
        <ele>236</ele>
        <time>2021-07-20T05:05:49.576Z</time>
      </trkpt>
      <trkpt lat="45.66799" lon="5.33332">
        <ele>236</ele>
        <time>2021-07-20T05:05:50.575Z</time>
      </trkpt>
      <trkpt lat="45.66801" lon="5.33339">
        <ele>235</ele>
        <time>2021-07-20T05:05:51.576Z</time>
      </trkpt>
      <trkpt lat="45.66804" lon="5.33347">
        <ele>235</ele>
        <time>2021-07-20T05:05:52.576Z</time>
      </trkpt>
      <trkpt lat="45.66806" lon="5.33355">
        <ele>235</ele>
        <time>2021-07-20T05:05:53.576Z</time>
      </trkpt>
      <trkpt lat="45.66809" lon="5.33362">
        <ele>235</ele>
        <time>2021-07-20T05:05:54.575Z</time>
      </trkpt>
      <trkpt lat="45.66811" lon="5.3337">
        <ele>235</ele>
        <time>2021-07-20T05:05:55.576Z</time>
      </trkpt>
      <trkpt lat="45.66814" lon="5.33378">
        <ele>235</ele>
        <time>2021-07-20T05:05:56.576Z</time>
      </trkpt>
      <trkpt lat="45.66816" lon="5.33385">
        <ele>235</ele>
        <time>2021-07-20T05:05:57.576Z</time>
      </trkpt>
      <trkpt lat="45.66818" lon="5.33393">
        <ele>235</ele>
        <time>2021-07-20T05:05:58.576Z</time>
      </trkpt>
      <trkpt lat="45.66821" lon="5.33401">
        <ele>236</ele>
        <time>2021-07-20T05:05:59.576Z</time>
      </trkpt>
      <trkpt lat="45.66823" lon="5.33408">
        <ele>236</ele>
        <time>2021-07-20T05:06:00.575Z</time>
      </trkpt>
      <trkpt lat="45.66825" lon="5.33416">
        <ele>236</ele>
        <time>2021-07-20T05:06:01.576Z</time>
      </trkpt>
      <trkpt lat="45.66828" lon="5.33423">
        <ele>237</ele>
        <time>2021-07-20T05:06:02.576Z</time>
      </trkpt>
      <trkpt lat="45.6683" lon="5.33431">
        <ele>237</ele>
        <time>2021-07-20T05:06:03.576Z</time>
      </trkpt>
      <trkpt lat="45.66833" lon="5.33439">
        <ele>237</ele>
        <time>2021-07-20T05:06:04.576Z</time>
      </trkpt>
      <trkpt lat="45.66835" lon="5.33446">
        <ele>238</ele>
        <time>2021-07-20T05:06:05.575Z</time>
      </trkpt>
      <trkpt lat="45.66837" lon="5.33454">
        <ele>238</ele>
        <time>2021-07-20T05:06:06.576Z</time>
      </trkpt>
      <trkpt lat="45.6684" lon="5.33462">
        <ele>238</ele>
        <time>2021-07-20T05:06:07.576Z</time>
      </trkpt>
      <trkpt lat="45.66842" lon="5.3347">
        <ele>239</ele>
        <time>2021-07-20T05:06:08.576Z</time>
      </trkpt>
      <trkpt lat="45.66844" lon="5.33477">
        <ele>239</ele>
        <time>2021-07-20T05:06:09.576Z</time>
      </trkpt>
      <trkpt lat="45.66846" lon="5.33486">
        <ele>239</ele>
        <time>2021-07-20T05:06:10.576Z</time>
      </trkpt>
      <trkpt lat="45.66848" lon="5.33494">
        <ele>239</ele>
        <time>2021-07-20T05:06:11.576Z</time>
      </trkpt>
      <trkpt lat="45.6685" lon="5.33502">
        <ele>239</ele>
        <time>2021-07-20T05:06:12.575Z</time>
      </trkpt>
      <trkpt lat="45.66851" lon="5.3351">
        <ele>239</ele>
        <time>2021-07-20T05:06:13.576Z</time>
      </trkpt>
      <trkpt lat="45.66852" lon="5.33517">
        <ele>239</ele>
        <time>2021-07-20T05:06:14.576Z</time>
      </trkpt>
      <trkpt lat="45.66853" lon="5.33526">
        <ele>239</ele>
        <time>2021-07-20T05:06:15.575Z</time>
      </trkpt>
      <trkpt lat="45.66854" lon="5.33536">
        <ele>239</ele>
        <time>2021-07-20T05:06:16.576Z</time>
      </trkpt>
      <trkpt lat="45.66855" lon="5.33545">
        <ele>240</ele>
        <time>2021-07-20T05:06:17.576Z</time>
      </trkpt>
      <trkpt lat="45.66856" lon="5.33553">
        <ele>240</ele>
        <time>2021-07-20T05:06:18.575Z</time>
      </trkpt>
      <trkpt lat="45.66856" lon="5.33562">
        <ele>241</ele>
        <time>2021-07-20T05:06:19.576Z</time>
      </trkpt>
      <trkpt lat="45.66856" lon="5.3357">
        <ele>241</ele>
        <time>2021-07-20T05:06:20.576Z</time>
      </trkpt>
      <trkpt lat="45.66856" lon="5.33579">
        <ele>241</ele>
        <time>2021-07-20T05:06:21.576Z</time>
      </trkpt>
      <trkpt lat="45.66856" lon="5.33588">
        <ele>241</ele>
        <time>2021-07-20T05:06:22.576Z</time>
      </trkpt>
      <trkpt lat="45.66855" lon="5.33596">
        <ele>242</ele>
        <time>2021-07-20T05:06:23.576Z</time>
      </trkpt>
      <trkpt lat="45.66855" lon="5.33605">
        <ele>242</ele>
        <time>2021-07-20T05:06:24.576Z</time>
      </trkpt>
      <trkpt lat="45.66855" lon="5.33613">
        <ele>242</ele>
        <time>2021-07-20T05:06:25.575Z</time>
      </trkpt>
      <trkpt lat="45.66855" lon="5.3362">
        <ele>242</ele>
        <time>2021-07-20T05:06:26.576Z</time>
      </trkpt>
      <trkpt lat="45.66855" lon="5.33629">
        <ele>243</ele>
        <time>2021-07-20T05:06:27.576Z</time>
      </trkpt>
      <trkpt lat="45.66854" lon="5.33637">
        <ele>243</ele>
        <time>2021-07-20T05:06:28.576Z</time>
      </trkpt>
      <trkpt lat="45.66854" lon="5.33645">
        <ele>243</ele>
        <time>2021-07-20T05:06:29.576Z</time>
      </trkpt>
      <trkpt lat="45.66853" lon="5.33654">
        <ele>243</ele>
        <time>2021-07-20T05:06:30.576Z</time>
      </trkpt>
      <trkpt lat="45.66853" lon="5.33662">
        <ele>243</ele>
        <time>2021-07-20T05:06:31.575Z</time>
      </trkpt>
      <trkpt lat="45.66852" lon="5.3367">
        <ele>243</ele>
        <time>2021-07-20T05:06:32.576Z</time>
      </trkpt>
      <trkpt lat="45.66852" lon="5.33678">
        <ele>243</ele>
        <time>2021-07-20T05:06:33.575Z</time>
      </trkpt>
      <trkpt lat="45.66851" lon="5.33687">
        <ele>243</ele>
        <time>2021-07-20T05:06:34.575Z</time>
      </trkpt>
      <trkpt lat="45.6685" lon="5.33695">
        <ele>243</ele>
        <time>2021-07-20T05:06:35.576Z</time>
      </trkpt>
      <trkpt lat="45.6685" lon="5.33705">
        <ele>244</ele>
        <time>2021-07-20T05:06:36.576Z</time>
      </trkpt>
      <trkpt lat="45.66849" lon="5.33712">
        <ele>244</ele>
        <time>2021-07-20T05:06:37.575Z</time>
      </trkpt>
      <trkpt lat="45.66849" lon="5.3372">
        <ele>245</ele>
        <time>2021-07-20T05:06:38.575Z</time>
      </trkpt>
      <trkpt lat="45.66848" lon="5.33731">
        <ele>245</ele>
        <time>2021-07-20T05:06:39.575Z</time>
      </trkpt>
      <trkpt lat="45.66848" lon="5.33738">
        <ele>245</ele>
        <time>2021-07-20T05:06:40.576Z</time>
      </trkpt>
      <trkpt lat="45.66848" lon="5.33747">
        <ele>246</ele>
        <time>2021-07-20T05:06:41.576Z</time>
      </trkpt>
      <trkpt lat="45.66847" lon="5.33756">
        <ele>246</ele>
        <time>2021-07-20T05:06:42.575Z</time>
      </trkpt>
      <trkpt lat="45.66847" lon="5.33765">
        <ele>246</ele>
        <time>2021-07-20T05:06:43.576Z</time>
      </trkpt>
      <trkpt lat="45.66847" lon="5.33774">
        <ele>246</ele>
        <time>2021-07-20T05:06:44.576Z</time>
      </trkpt>
      <trkpt lat="45.66846" lon="5.33783">
        <ele>246</ele>
        <time>2021-07-20T05:06:45.575Z</time>
      </trkpt>
      <trkpt lat="45.66846" lon="5.33792">
        <ele>246</ele>
        <time>2021-07-20T05:06:46.575Z</time>
      </trkpt>
      <trkpt lat="45.66846" lon="5.33801">
        <ele>245</ele>
        <time>2021-07-20T05:06:47.576Z</time>
      </trkpt>
      <trkpt lat="45.66845" lon="5.33812">
        <ele>245</ele>
        <time>2021-07-20T05:06:48.576Z</time>
      </trkpt>
      <trkpt lat="45.66845" lon="5.3382">
        <ele>245</ele>
        <time>2021-07-20T05:06:49.575Z</time>
      </trkpt>
      <trkpt lat="45.66844" lon="5.3383">
        <ele>245</ele>
        <time>2021-07-20T05:06:50.576Z</time>
      </trkpt>
      <trkpt lat="45.66844" lon="5.3384">
        <ele>245</ele>
        <time>2021-07-20T05:06:51.576Z</time>
      </trkpt>
      <trkpt lat="45.66844" lon="5.3385">
        <ele>245</ele>
        <time>2021-07-20T05:06:52.576Z</time>
      </trkpt>
      <trkpt lat="45.66844" lon="5.3386">
        <ele>245</ele>
        <time>2021-07-20T05:06:53.575Z</time>
      </trkpt>
      <trkpt lat="45.66843" lon="5.33872">
        <ele>246</ele>
        <time>2021-07-20T05:06:54.576Z</time>
      </trkpt>
      <trkpt lat="45.66843" lon="5.33881">
        <ele>246</ele>
        <time>2021-07-20T05:06:55.576Z</time>
      </trkpt>
      <trkpt lat="45.66842" lon="5.33891">
        <ele>246</ele>
        <time>2021-07-20T05:06:56.575Z</time>
      </trkpt>
      <trkpt lat="45.66842" lon="5.33904">
        <ele>246</ele>
        <time>2021-07-20T05:06:57.576Z</time>
      </trkpt>
      <trkpt lat="45.66841" lon="5.33915">
        <ele>246</ele>
        <time>2021-07-20T05:06:58.576Z</time>
      </trkpt>
      <trkpt lat="45.66841" lon="5.33925">
        <ele>246</ele>
        <time>2021-07-20T05:06:59.576Z</time>
      </trkpt>
      <trkpt lat="45.66841" lon="5.33936">
        <ele>245</ele>
        <time>2021-07-20T05:07:00.575Z</time>
      </trkpt>
      <trkpt lat="45.6684" lon="5.33948">
        <ele>245</ele>
        <time>2021-07-20T05:07:01.575Z</time>
      </trkpt>
      <trkpt lat="45.6684" lon="5.33959">
        <ele>245</ele>
        <time>2021-07-20T05:07:02.576Z</time>
      </trkpt>
      <trkpt lat="45.66839" lon="5.33973">
        <ele>245</ele>
        <time>2021-07-20T05:07:03.575Z</time>
      </trkpt>
      <trkpt lat="45.66839" lon="5.33983">
        <ele>246</ele>
        <time>2021-07-20T05:07:04.575Z</time>
      </trkpt>
      <trkpt lat="45.66839" lon="5.33994">
        <ele>246</ele>
        <time>2021-07-20T05:07:05.576Z</time>
      </trkpt>
      <trkpt lat="45.66838" lon="5.34006">
        <ele>246</ele>
        <time>2021-07-20T05:07:06.575Z</time>
      </trkpt>
      <trkpt lat="45.66837" lon="5.3402">
        <ele>246</ele>
        <time>2021-07-20T05:07:07.576Z</time>
      </trkpt>
      <trkpt lat="45.66837" lon="5.34029">
        <ele>245</ele>
        <time>2021-07-20T05:07:08.575Z</time>
      </trkpt>
      <trkpt lat="45.66837" lon="5.34041">
        <ele>245</ele>
        <time>2021-07-20T05:07:09.576Z</time>
      </trkpt>
      <trkpt lat="45.66836" lon="5.34055">
        <ele>245</ele>
        <time>2021-07-20T05:07:10.576Z</time>
      </trkpt>
      <trkpt lat="45.66836" lon="5.34066">
        <ele>245</ele>
        <time>2021-07-20T05:07:11.576Z</time>
      </trkpt>
      <trkpt lat="45.66835" lon="5.34077">
        <ele>245</ele>
        <time>2021-07-20T05:07:12.576Z</time>
      </trkpt>
      <trkpt lat="45.66835" lon="5.34089">
        <ele>245</ele>
        <time>2021-07-20T05:07:13.576Z</time>
      </trkpt>
      <trkpt lat="45.66834" lon="5.341">
        <ele>246</ele>
        <time>2021-07-20T05:07:14.575Z</time>
      </trkpt>
      <trkpt lat="45.66834" lon="5.34111">
        <ele>245</ele>
        <time>2021-07-20T05:07:15.576Z</time>
      </trkpt>
      <trkpt lat="45.66833" lon="5.34122">
        <ele>245</ele>
        <time>2021-07-20T05:07:16.575Z</time>
      </trkpt>
      <trkpt lat="45.66833" lon="5.34132">
        <ele>245</ele>
        <time>2021-07-20T05:07:17.575Z</time>
      </trkpt>
      <trkpt lat="45.66832" lon="5.34143">
        <ele>245</ele>
        <time>2021-07-20T05:07:18.575Z</time>
      </trkpt>
      <trkpt lat="45.66832" lon="5.34153">
        <ele>245</ele>
        <time>2021-07-20T05:07:19.575Z</time>
      </trkpt>
      <trkpt lat="45.66831" lon="5.34164">
        <ele>245</ele>
        <time>2021-07-20T05:07:20.576Z</time>
      </trkpt>
      <trkpt lat="45.66831" lon="5.34174">
        <ele>245</ele>
        <time>2021-07-20T05:07:21.576Z</time>
      </trkpt>
      <trkpt lat="45.66831" lon="5.34184">
        <ele>245</ele>
        <time>2021-07-20T05:07:22.576Z</time>
      </trkpt>
      <trkpt lat="45.66831" lon="5.34193">
        <ele>245</ele>
        <time>2021-07-20T05:07:23.576Z</time>
      </trkpt>
      <trkpt lat="45.6683" lon="5.34203">
        <ele>245</ele>
        <time>2021-07-20T05:07:24.576Z</time>
      </trkpt>
      <trkpt lat="45.6683" lon="5.34213">
        <ele>245</ele>
        <time>2021-07-20T05:07:25.576Z</time>
      </trkpt>
      <trkpt lat="45.66829" lon="5.34222">
        <ele>245</ele>
        <time>2021-07-20T05:07:26.575Z</time>
      </trkpt>
      <trkpt lat="45.66829" lon="5.34232">
        <ele>245</ele>
        <time>2021-07-20T05:07:27.576Z</time>
      </trkpt>
      <trkpt lat="45.66829" lon="5.34241">
        <ele>245</ele>
        <time>2021-07-20T05:07:28.575Z</time>
      </trkpt>
      <trkpt lat="45.66829" lon="5.34251">
        <ele>245</ele>
        <time>2021-07-20T05:07:29.576Z</time>
      </trkpt>
      <trkpt lat="45.66828" lon="5.34261">
        <ele>245</ele>
        <time>2021-07-20T05:07:30.575Z</time>
      </trkpt>
      <trkpt lat="45.66828" lon="5.34271">
        <ele>246</ele>
        <time>2021-07-20T05:07:31.575Z</time>
      </trkpt>
      <trkpt lat="45.66827" lon="5.3428">
        <ele>246</ele>
        <time>2021-07-20T05:07:32.576Z</time>
      </trkpt>
      <trkpt lat="45.66827" lon="5.3429">
        <ele>246</ele>
        <time>2021-07-20T05:07:33.575Z</time>
      </trkpt>
      <trkpt lat="45.66826" lon="5.34299">
        <ele>245</ele>
        <time>2021-07-20T05:07:34.575Z</time>
      </trkpt>
      <trkpt lat="45.66826" lon="5.34308">
        <ele>245</ele>
        <time>2021-07-20T05:07:35.575Z</time>
      </trkpt>
      <trkpt lat="45.66826" lon="5.34318">
        <ele>245</ele>
        <time>2021-07-20T05:07:36.576Z</time>
      </trkpt>
      <trkpt lat="45.66825" lon="5.34327">
        <ele>246</ele>
        <time>2021-07-20T05:07:37.576Z</time>
      </trkpt>
      <trkpt lat="45.66825" lon="5.34336">
        <ele>246</ele>
        <time>2021-07-20T05:07:38.576Z</time>
      </trkpt>
      <trkpt lat="45.66825" lon="5.34346">
        <ele>246</ele>
        <time>2021-07-20T05:07:39.576Z</time>
      </trkpt>
      <trkpt lat="45.66824" lon="5.34355">
        <ele>246</ele>
        <time>2021-07-20T05:07:40.575Z</time>
      </trkpt>
      <trkpt lat="45.66824" lon="5.34365">
        <ele>246</ele>
        <time>2021-07-20T05:07:41.576Z</time>
      </trkpt>
      <trkpt lat="45.66824" lon="5.34375">
        <ele>245</ele>
        <time>2021-07-20T05:07:42.576Z</time>
      </trkpt>
      <trkpt lat="45.66823" lon="5.34384">
        <ele>245</ele>
        <time>2021-07-20T05:07:43.576Z</time>
      </trkpt>
      <trkpt lat="45.66823" lon="5.34394">
        <ele>245</ele>
        <time>2021-07-20T05:07:44.576Z</time>
      </trkpt>
      <trkpt lat="45.66823" lon="5.34404">
        <ele>245</ele>
        <time>2021-07-20T05:07:45.576Z</time>
      </trkpt>
      <trkpt lat="45.66822" lon="5.34414">
        <ele>245</ele>
        <time>2021-07-20T05:07:46.575Z</time>
      </trkpt>
      <trkpt lat="45.66822" lon="5.34424">
        <ele>246</ele>
        <time>2021-07-20T05:07:47.576Z</time>
      </trkpt>
      <trkpt lat="45.66822" lon="5.34434">
        <ele>246</ele>
        <time>2021-07-20T05:07:48.576Z</time>
      </trkpt>
      <trkpt lat="45.66821" lon="5.34444">
        <ele>246</ele>
        <time>2021-07-20T05:07:49.575Z</time>
      </trkpt>
      <trkpt lat="45.66821" lon="5.34454">
        <ele>246</ele>
        <time>2021-07-20T05:07:50.576Z</time>
      </trkpt>
      <trkpt lat="45.66821" lon="5.34464">
        <ele>246</ele>
        <time>2021-07-20T05:07:51.576Z</time>
      </trkpt>
      <trkpt lat="45.6682" lon="5.34474">
        <ele>246</ele>
        <time>2021-07-20T05:07:52.576Z</time>
      </trkpt>
      <trkpt lat="45.6682" lon="5.34483">
        <ele>246</ele>
        <time>2021-07-20T05:07:53.576Z</time>
      </trkpt>
      <trkpt lat="45.6682" lon="5.34493">
        <ele>246</ele>
        <time>2021-07-20T05:07:54.575Z</time>
      </trkpt>
      <trkpt lat="45.66819" lon="5.34503">
        <ele>246</ele>
        <time>2021-07-20T05:07:55.576Z</time>
      </trkpt>
      <trkpt lat="45.66819" lon="5.34513">
        <ele>246</ele>
        <time>2021-07-20T05:07:56.576Z</time>
      </trkpt>
      <trkpt lat="45.66819" lon="5.34524">
        <ele>247</ele>
        <time>2021-07-20T05:07:57.576Z</time>
      </trkpt>
      <trkpt lat="45.66818" lon="5.34534">
        <ele>247</ele>
        <time>2021-07-20T05:07:58.576Z</time>
      </trkpt>
      <trkpt lat="45.66818" lon="5.34544">
        <ele>247</ele>
        <time>2021-07-20T05:07:59.576Z</time>
      </trkpt>
      <trkpt lat="45.66818" lon="5.34554">
        <ele>247</ele>
        <time>2021-07-20T05:08:00.575Z</time>
      </trkpt>
      <trkpt lat="45.66817" lon="5.34564">
        <ele>246</ele>
        <time>2021-07-20T05:08:01.575Z</time>
      </trkpt>
      <trkpt lat="45.66817" lon="5.34575">
        <ele>247</ele>
        <time>2021-07-20T05:08:02.576Z</time>
      </trkpt>
      <trkpt lat="45.66817" lon="5.34586">
        <ele>247</ele>
        <time>2021-07-20T05:08:03.576Z</time>
      </trkpt>
      <trkpt lat="45.66817" lon="5.34596">
        <ele>247</ele>
        <time>2021-07-20T05:08:04.575Z</time>
      </trkpt>
      <trkpt lat="45.66816" lon="5.34607">
        <ele>247</ele>
        <time>2021-07-20T05:08:05.576Z</time>
      </trkpt>
      <trkpt lat="45.66816" lon="5.34618">
        <ele>247</ele>
        <time>2021-07-20T05:08:06.576Z</time>
      </trkpt>
      <trkpt lat="45.66815" lon="5.34629">
        <ele>247</ele>
        <time>2021-07-20T05:08:07.576Z</time>
      </trkpt>
      <trkpt lat="45.66815" lon="5.3464">
        <ele>247</ele>
        <time>2021-07-20T05:08:08.576Z</time>
      </trkpt>
      <trkpt lat="45.66815" lon="5.3465">
        <ele>247</ele>
        <time>2021-07-20T05:08:09.575Z</time>
      </trkpt>
      <trkpt lat="45.66814" lon="5.34661">
        <ele>247</ele>
        <time>2021-07-20T05:08:10.576Z</time>
      </trkpt>
      <trkpt lat="45.66814" lon="5.34672">
        <ele>247</ele>
        <time>2021-07-20T05:08:11.575Z</time>
      </trkpt>
      <trkpt lat="45.66813" lon="5.34682">
        <ele>247</ele>
        <time>2021-07-20T05:08:12.576Z</time>
      </trkpt>
      <trkpt lat="45.66813" lon="5.34693">
        <ele>246</ele>
        <time>2021-07-20T05:08:13.575Z</time>
      </trkpt>
      <trkpt lat="45.66813" lon="5.34703">
        <ele>247</ele>
        <time>2021-07-20T05:08:14.575Z</time>
      </trkpt>
      <trkpt lat="45.66813" lon="5.34714">
        <ele>247</ele>
        <time>2021-07-20T05:08:15.575Z</time>
      </trkpt>
      <trkpt lat="45.66812" lon="5.34724">
        <ele>246</ele>
        <time>2021-07-20T05:08:16.575Z</time>
      </trkpt>
      <trkpt lat="45.66812" lon="5.34733">
        <ele>246</ele>
        <time>2021-07-20T05:08:17.575Z</time>
      </trkpt>
      <trkpt lat="45.66811" lon="5.34745">
        <ele>246</ele>
        <time>2021-07-20T05:08:18.575Z</time>
      </trkpt>
      <trkpt lat="45.66811" lon="5.34755">
        <ele>246</ele>
        <time>2021-07-20T05:08:19.576Z</time>
      </trkpt>
      <trkpt lat="45.66812" lon="5.34765">
        <ele>246</ele>
        <time>2021-07-20T05:08:20.575Z</time>
      </trkpt>
      <trkpt lat="45.66812" lon="5.34775">
        <ele>246</ele>
        <time>2021-07-20T05:08:21.576Z</time>
      </trkpt>
      <trkpt lat="45.66812" lon="5.34785">
        <ele>246</ele>
        <time>2021-07-20T05:08:22.576Z</time>
      </trkpt>
      <trkpt lat="45.66812" lon="5.34795">
        <ele>246</ele>
        <time>2021-07-20T05:08:23.576Z</time>
      </trkpt>
      <trkpt lat="45.66813" lon="5.34805">
        <ele>246</ele>
        <time>2021-07-20T05:08:24.576Z</time>
      </trkpt>
      <trkpt lat="45.66814" lon="5.34815">
        <ele>246</ele>
        <time>2021-07-20T05:08:25.576Z</time>
      </trkpt>
      <trkpt lat="45.66815" lon="5.34825">
        <ele>247</ele>
        <time>2021-07-20T05:08:26.575Z</time>
      </trkpt>
      <trkpt lat="45.66817" lon="5.34832">
        <ele>247</ele>
        <time>2021-07-20T05:08:27.576Z</time>
      </trkpt>
      <trkpt lat="45.66819" lon="5.34843">
        <ele>247</ele>
        <time>2021-07-20T05:08:28.576Z</time>
      </trkpt>
      <trkpt lat="45.66821" lon="5.3485">
        <ele>247</ele>
        <time>2021-07-20T05:08:29.576Z</time>
      </trkpt>
      <trkpt lat="45.66824" lon="5.3486">
        <ele>246</ele>
        <time>2021-07-20T05:08:30.576Z</time>
      </trkpt>
      <trkpt lat="45.66827" lon="5.34869">
        <ele>246</ele>
        <time>2021-07-20T05:08:31.576Z</time>
      </trkpt>
      <trkpt lat="45.6683" lon="5.34878">
        <ele>246</ele>
        <time>2021-07-20T05:08:32.576Z</time>
      </trkpt>
      <trkpt lat="45.66833" lon="5.34888">
        <ele>246</ele>
        <time>2021-07-20T05:08:33.576Z</time>
      </trkpt>
      <trkpt lat="45.66836" lon="5.34897">
        <ele>247</ele>
        <time>2021-07-20T05:08:34.576Z</time>
      </trkpt>
      <trkpt lat="45.66839" lon="5.34907">
        <ele>247</ele>
        <time>2021-07-20T05:08:35.575Z</time>
      </trkpt>
      <trkpt lat="45.66842" lon="5.34917">
        <ele>248</ele>
        <time>2021-07-20T05:08:36.575Z</time>
      </trkpt>
      <trkpt lat="45.66845" lon="5.34927">
        <ele>248</ele>
        <time>2021-07-20T05:08:37.576Z</time>
      </trkpt>
      <trkpt lat="45.66848" lon="5.34939">
        <ele>249</ele>
        <time>2021-07-20T05:08:38.576Z</time>
      </trkpt>
      <trkpt lat="45.6685" lon="5.3495">
        <ele>249</ele>
        <time>2021-07-20T05:08:39.576Z</time>
      </trkpt>
      <trkpt lat="45.66852" lon="5.3496">
        <ele>249</ele>
        <time>2021-07-20T05:08:40.576Z</time>
      </trkpt>
      <trkpt lat="45.66854" lon="5.34971">
        <ele>249</ele>
        <time>2021-07-20T05:08:41.576Z</time>
      </trkpt>
      <trkpt lat="45.66856" lon="5.34982">
        <ele>248</ele>
        <time>2021-07-20T05:08:42.575Z</time>
      </trkpt>
      <trkpt lat="45.66857" lon="5.34992">
        <ele>248</ele>
        <time>2021-07-20T05:08:43.576Z</time>
      </trkpt>
      <trkpt lat="45.66859" lon="5.35003">
        <ele>248</ele>
        <time>2021-07-20T05:08:44.576Z</time>
      </trkpt>
      <trkpt lat="45.6686" lon="5.35012">
        <ele>248</ele>
        <time>2021-07-20T05:08:45.575Z</time>
      </trkpt>
      <trkpt lat="45.66862" lon="5.35024">
        <ele>248</ele>
        <time>2021-07-20T05:08:46.576Z</time>
      </trkpt>
      <trkpt lat="45.66864" lon="5.35035">
        <ele>248</ele>
        <time>2021-07-20T05:08:47.576Z</time>
      </trkpt>
      <trkpt lat="45.66865" lon="5.35046">
        <ele>248</ele>
        <time>2021-07-20T05:08:48.576Z</time>
      </trkpt>
      <trkpt lat="45.66866" lon="5.35057">
        <ele>248</ele>
        <time>2021-07-20T05:08:49.576Z</time>
      </trkpt>
      <trkpt lat="45.66868" lon="5.35069">
        <ele>247</ele>
        <time>2021-07-20T05:08:50.576Z</time>
      </trkpt>
      <trkpt lat="45.66869" lon="5.3508">
        <ele>247</ele>
        <time>2021-07-20T05:08:51.575Z</time>
      </trkpt>
      <trkpt lat="45.6687" lon="5.35091">
        <ele>247</ele>
        <time>2021-07-20T05:08:52.576Z</time>
      </trkpt>
      <trkpt lat="45.66872" lon="5.35103">
        <ele>246</ele>
        <time>2021-07-20T05:08:53.576Z</time>
      </trkpt>
      <trkpt lat="45.66873" lon="5.35114">
        <ele>246</ele>
        <time>2021-07-20T05:08:54.575Z</time>
      </trkpt>
      <trkpt lat="45.66875" lon="5.35126">
        <ele>246</ele>
        <time>2021-07-20T05:08:55.575Z</time>
      </trkpt>
      <trkpt lat="45.66877" lon="5.3514">
        <ele>246</ele>
        <time>2021-07-20T05:08:56.576Z</time>
      </trkpt>
      <trkpt lat="45.66879" lon="5.35151">
        <ele>246</ele>
        <time>2021-07-20T05:08:57.576Z</time>
      </trkpt>
      <trkpt lat="45.6688" lon="5.35163">
        <ele>246</ele>
        <time>2021-07-20T05:08:58.576Z</time>
      </trkpt>
      <trkpt lat="45.66882" lon="5.35173">
        <ele>246</ele>
        <time>2021-07-20T05:08:59.575Z</time>
      </trkpt>
      <trkpt lat="45.66884" lon="5.35188">
        <ele>245</ele>
        <time>2021-07-20T05:09:00.575Z</time>
      </trkpt>
      <trkpt lat="45.66885" lon="5.352">
        <ele>245</ele>
        <time>2021-07-20T05:09:01.576Z</time>
      </trkpt>
      <trkpt lat="45.66886" lon="5.3521">
        <ele>245</ele>
        <time>2021-07-20T05:09:02.575Z</time>
      </trkpt>
      <trkpt lat="45.66888" lon="5.35222">
        <ele>245</ele>
        <time>2021-07-20T05:09:03.576Z</time>
      </trkpt>
      <trkpt lat="45.6689" lon="5.35235">
        <ele>244</ele>
        <time>2021-07-20T05:09:04.576Z</time>
      </trkpt>
      <trkpt lat="45.66891" lon="5.35247">
        <ele>244</ele>
        <time>2021-07-20T05:09:05.575Z</time>
      </trkpt>
      <trkpt lat="45.66893" lon="5.35262">
        <ele>244</ele>
        <time>2021-07-20T05:09:06.575Z</time>
      </trkpt>
      <trkpt lat="45.66895" lon="5.35271">
        <ele>244</ele>
        <time>2021-07-20T05:09:07.576Z</time>
      </trkpt>
      <trkpt lat="45.66895" lon="5.35271">
        <ele>244</ele>
        <time>2021-07-20T05:09:08.575Z</time>
      </trkpt>
      <trkpt lat="45.66898" lon="5.35295">
        <ele>243</ele>
        <time>2021-07-20T05:09:09.576Z</time>
      </trkpt>
      <trkpt lat="45.669" lon="5.35307">
        <ele>243</ele>
        <time>2021-07-20T05:09:10.575Z</time>
      </trkpt>
      <trkpt lat="45.669" lon="5.35307">
        <ele>243</ele>
        <time>2021-07-20T05:09:11.575Z</time>
      </trkpt>
      <trkpt lat="45.66903" lon="5.3533">
        <ele>243</ele>
        <time>2021-07-20T05:09:12.576Z</time>
      </trkpt>
      <trkpt lat="45.66904" lon="5.35342">
        <ele>243</ele>
        <time>2021-07-20T05:09:13.575Z</time>
      </trkpt>
      <trkpt lat="45.66906" lon="5.35355">
        <ele>243</ele>
        <time>2021-07-20T05:09:14.575Z</time>
      </trkpt>
      <trkpt lat="45.66907" lon="5.35366">
        <ele>242</ele>
        <time>2021-07-20T05:09:15.575Z</time>
      </trkpt>
      <trkpt lat="45.66908" lon="5.35377">
        <ele>242</ele>
        <time>2021-07-20T05:09:16.575Z</time>
      </trkpt>
      <trkpt lat="45.66909" lon="5.35386">
        <ele>242</ele>
        <time>2021-07-20T05:09:17.576Z</time>
      </trkpt>
      <trkpt lat="45.6691" lon="5.35397">
        <ele>242</ele>
        <time>2021-07-20T05:09:18.576Z</time>
      </trkpt>
      <trkpt lat="45.66911" lon="5.3541">
        <ele>241</ele>
        <time>2021-07-20T05:09:19.576Z</time>
      </trkpt>
      <trkpt lat="45.66911" lon="5.35421">
        <ele>241</ele>
        <time>2021-07-20T05:09:20.576Z</time>
      </trkpt>
      <trkpt lat="45.66911" lon="5.35432">
        <ele>240</ele>
        <time>2021-07-20T05:09:21.576Z</time>
      </trkpt>
      <trkpt lat="45.66911" lon="5.35443">
        <ele>240</ele>
        <time>2021-07-20T05:09:22.576Z</time>
      </trkpt>
      <trkpt lat="45.66912" lon="5.35454">
        <ele>239</ele>
        <time>2021-07-20T05:09:23.576Z</time>
      </trkpt>
      <trkpt lat="45.66912" lon="5.35465">
        <ele>239</ele>
        <time>2021-07-20T05:09:24.576Z</time>
      </trkpt>
      <trkpt lat="45.66912" lon="5.35477">
        <ele>239</ele>
        <time>2021-07-20T05:09:25.575Z</time>
      </trkpt>
      <trkpt lat="45.66912" lon="5.35488">
        <ele>239</ele>
        <time>2021-07-20T05:09:26.576Z</time>
      </trkpt>
      <trkpt lat="45.66911" lon="5.35499">
        <ele>239</ele>
        <time>2021-07-20T05:09:27.575Z</time>
      </trkpt>
      <trkpt lat="45.66911" lon="5.35511">
        <ele>240</ele>
        <time>2021-07-20T05:09:28.576Z</time>
      </trkpt>
      <trkpt lat="45.6691" lon="5.3552">
        <ele>240</ele>
        <time>2021-07-20T05:09:29.575Z</time>
      </trkpt>
      <trkpt lat="45.66909" lon="5.35532">
        <ele>241</ele>
        <time>2021-07-20T05:09:30.576Z</time>
      </trkpt>
      <trkpt lat="45.66907" lon="5.35544">
        <ele>241</ele>
        <time>2021-07-20T05:09:31.576Z</time>
      </trkpt>
      <trkpt lat="45.66905" lon="5.35556">
        <ele>241</ele>
        <time>2021-07-20T05:09:32.575Z</time>
      </trkpt>
      <trkpt lat="45.66902" lon="5.35568">
        <ele>241</ele>
        <time>2021-07-20T05:09:33.576Z</time>
      </trkpt>
      <trkpt lat="45.669" lon="5.3558">
        <ele>241</ele>
        <time>2021-07-20T05:09:34.576Z</time>
      </trkpt>
      <trkpt lat="45.66897" lon="5.35592">
        <ele>241</ele>
        <time>2021-07-20T05:09:35.576Z</time>
      </trkpt>
      <trkpt lat="45.66894" lon="5.35605">
        <ele>240</ele>
        <time>2021-07-20T05:09:36.576Z</time>
      </trkpt>
      <trkpt lat="45.66888" lon="5.35617">
        <ele>240</ele>
        <time>2021-07-20T05:09:37.576Z</time>
      </trkpt>
      <trkpt lat="45.66884" lon="5.3563">
        <ele>240</ele>
        <time>2021-07-20T05:09:38.576Z</time>
      </trkpt>
      <trkpt lat="45.66881" lon="5.35643">
        <ele>239</ele>
        <time>2021-07-20T05:09:39.576Z</time>
      </trkpt>
      <trkpt lat="45.66878" lon="5.35656">
        <ele>239</ele>
        <time>2021-07-20T05:09:40.576Z</time>
      </trkpt>
      <trkpt lat="45.66876" lon="5.35671">
        <ele>238</ele>
        <time>2021-07-20T05:09:41.576Z</time>
      </trkpt>
      <trkpt lat="45.66874" lon="5.35685">
        <ele>237</ele>
        <time>2021-07-20T05:09:42.576Z</time>
      </trkpt>
      <trkpt lat="45.66875" lon="5.35699">
        <ele>237</ele>
        <time>2021-07-20T05:09:43.576Z</time>
      </trkpt>
      <trkpt lat="45.66876" lon="5.35712">
        <ele>236</ele>
        <time>2021-07-20T05:09:44.576Z</time>
      </trkpt>
      <trkpt lat="45.66879" lon="5.35723">
        <ele>235</ele>
        <time>2021-07-20T05:09:45.576Z</time>
      </trkpt>
      <trkpt lat="45.66884" lon="5.35739">
        <ele>235</ele>
        <time>2021-07-20T05:09:46.576Z</time>
      </trkpt>
      <trkpt lat="45.66889" lon="5.35752">
        <ele>235</ele>
        <time>2021-07-20T05:09:47.575Z</time>
      </trkpt>
      <trkpt lat="45.66894" lon="5.35765">
        <ele>235</ele>
        <time>2021-07-20T05:09:48.575Z</time>
      </trkpt>
      <trkpt lat="45.66899" lon="5.35775">
        <ele>235</ele>
        <time>2021-07-20T05:09:49.576Z</time>
      </trkpt>
      <trkpt lat="45.66908" lon="5.35786">
        <ele>234</ele>
        <time>2021-07-20T05:09:50.576Z</time>
      </trkpt>
      <trkpt lat="45.66915" lon="5.35798">
        <ele>234</ele>
        <time>2021-07-20T05:09:51.575Z</time>
      </trkpt>
      <trkpt lat="45.6692" lon="5.35813">
        <ele>233</ele>
        <time>2021-07-20T05:09:52.575Z</time>
      </trkpt>
      <trkpt lat="45.66922" lon="5.35826">
        <ele>233</ele>
        <time>2021-07-20T05:09:53.575Z</time>
      </trkpt>
      <trkpt lat="45.66922" lon="5.35836">
        <ele>232</ele>
        <time>2021-07-20T05:09:54.575Z</time>
      </trkpt>
      <trkpt lat="45.66922" lon="5.35849">
        <ele>231</ele>
        <time>2021-07-20T05:09:55.576Z</time>
      </trkpt>
      <trkpt lat="45.66922" lon="5.35862">
        <ele>231</ele>
        <time>2021-07-20T05:09:56.575Z</time>
      </trkpt>
      <trkpt lat="45.66921" lon="5.35875">
        <ele>230</ele>
        <time>2021-07-20T05:09:57.576Z</time>
      </trkpt>
      <trkpt lat="45.6692" lon="5.35888">
        <ele>229</ele>
        <time>2021-07-20T05:09:58.576Z</time>
      </trkpt>
      <trkpt lat="45.66919" lon="5.359">
        <ele>229</ele>
        <time>2021-07-20T05:09:59.576Z</time>
      </trkpt>
      <trkpt lat="45.66919" lon="5.35913">
        <ele>228</ele>
        <time>2021-07-20T05:10:00.575Z</time>
      </trkpt>
      <trkpt lat="45.66918" lon="5.35928">
        <ele>228</ele>
        <time>2021-07-20T05:10:01.575Z</time>
      </trkpt>
      <trkpt lat="45.66917" lon="5.3594">
        <ele>228</ele>
        <time>2021-07-20T05:10:02.575Z</time>
      </trkpt>
      <trkpt lat="45.66917" lon="5.35949">
        <ele>228</ele>
        <time>2021-07-20T05:10:03.576Z</time>
      </trkpt>
      <trkpt lat="45.66917" lon="5.3596">
        <ele>228</ele>
        <time>2021-07-20T05:10:04.576Z</time>
      </trkpt>
      <trkpt lat="45.66916" lon="5.35971">
        <ele>228</ele>
        <time>2021-07-20T05:10:05.576Z</time>
      </trkpt>
      <trkpt lat="45.66915" lon="5.35984">
        <ele>228</ele>
        <time>2021-07-20T05:10:06.576Z</time>
      </trkpt>
      <trkpt lat="45.66914" lon="5.35995">
        <ele>228</ele>
        <time>2021-07-20T05:10:07.576Z</time>
      </trkpt>
      <trkpt lat="45.66913" lon="5.36006">
        <ele>227</ele>
        <time>2021-07-20T05:10:08.576Z</time>
      </trkpt>
      <trkpt lat="45.66913" lon="5.36015">
        <ele>227</ele>
        <time>2021-07-20T05:10:09.575Z</time>
      </trkpt>
      <trkpt lat="45.66912" lon="5.36025">
        <ele>227</ele>
        <time>2021-07-20T05:10:10.576Z</time>
      </trkpt>
      <trkpt lat="45.66912" lon="5.36036">
        <ele>227</ele>
        <time>2021-07-20T05:10:11.576Z</time>
      </trkpt>
      <trkpt lat="45.66911" lon="5.36046">
        <ele>227</ele>
        <time>2021-07-20T05:10:12.576Z</time>
      </trkpt>
      <trkpt lat="45.66911" lon="5.36057">
        <ele>227</ele>
        <time>2021-07-20T05:10:13.575Z</time>
      </trkpt>
      <trkpt lat="45.6691" lon="5.36069">
        <ele>227</ele>
        <time>2021-07-20T05:10:14.575Z</time>
      </trkpt>
      <trkpt lat="45.66909" lon="5.36077">
        <ele>227</ele>
        <time>2021-07-20T05:10:15.575Z</time>
      </trkpt>
      <trkpt lat="45.66909" lon="5.36088">
        <ele>227</ele>
        <time>2021-07-20T05:10:16.576Z</time>
      </trkpt>
      <trkpt lat="45.66908" lon="5.36099">
        <ele>227</ele>
        <time>2021-07-20T05:10:17.576Z</time>
      </trkpt>
      <trkpt lat="45.66907" lon="5.36109">
        <ele>227</ele>
        <time>2021-07-20T05:10:18.576Z</time>
      </trkpt>
      <trkpt lat="45.66907" lon="5.36121">
        <ele>227</ele>
        <time>2021-07-20T05:10:19.575Z</time>
      </trkpt>
      <trkpt lat="45.66907" lon="5.36131">
        <ele>227</ele>
        <time>2021-07-20T05:10:20.576Z</time>
      </trkpt>
      <trkpt lat="45.66907" lon="5.36138">
        <ele>227</ele>
        <time>2021-07-20T05:10:21.576Z</time>
      </trkpt>
      <trkpt lat="45.66906" lon="5.36148">
        <ele>227</ele>
        <time>2021-07-20T05:10:22.575Z</time>
      </trkpt>
      <trkpt lat="45.66906" lon="5.3616">
        <ele>227</ele>
        <time>2021-07-20T05:10:23.576Z</time>
      </trkpt>
      <trkpt lat="45.66905" lon="5.36169">
        <ele>227</ele>
        <time>2021-07-20T05:10:24.575Z</time>
      </trkpt>
      <trkpt lat="45.66904" lon="5.36179">
        <ele>227</ele>
        <time>2021-07-20T05:10:25.576Z</time>
      </trkpt>
      <trkpt lat="45.66903" lon="5.3619">
        <ele>226</ele>
        <time>2021-07-20T05:10:26.575Z</time>
      </trkpt>
      <trkpt lat="45.66903" lon="5.36201">
        <ele>226</ele>
        <time>2021-07-20T05:10:27.576Z</time>
      </trkpt>
      <trkpt lat="45.66902" lon="5.36214">
        <ele>225</ele>
        <time>2021-07-20T05:10:28.576Z</time>
      </trkpt>
      <trkpt lat="45.66902" lon="5.36223">
        <ele>225</ele>
        <time>2021-07-20T05:10:29.575Z</time>
      </trkpt>
      <trkpt lat="45.66901" lon="5.36236">
        <ele>225</ele>
        <time>2021-07-20T05:10:30.576Z</time>
      </trkpt>
      <trkpt lat="45.669" lon="5.36247">
        <ele>225</ele>
        <time>2021-07-20T05:10:31.576Z</time>
      </trkpt>
      <trkpt lat="45.669" lon="5.36256">
        <ele>225</ele>
        <time>2021-07-20T05:10:32.576Z</time>
      </trkpt>
      <trkpt lat="45.66899" lon="5.36269">
        <ele>225</ele>
        <time>2021-07-20T05:10:33.575Z</time>
      </trkpt>
      <trkpt lat="45.66899" lon="5.3628">
        <ele>225</ele>
        <time>2021-07-20T05:10:34.575Z</time>
      </trkpt>
      <trkpt lat="45.66898" lon="5.36291">
        <ele>225</ele>
        <time>2021-07-20T05:10:35.575Z</time>
      </trkpt>
      <trkpt lat="45.66898" lon="5.36299">
        <ele>226</ele>
        <time>2021-07-20T05:10:36.575Z</time>
      </trkpt>
      <trkpt lat="45.66898" lon="5.3631">
        <ele>226</ele>
        <time>2021-07-20T05:10:37.576Z</time>
      </trkpt>
      <trkpt lat="45.66897" lon="5.36321">
        <ele>226</ele>
        <time>2021-07-20T05:10:38.576Z</time>
      </trkpt>
      <trkpt lat="45.66897" lon="5.36332">
        <ele>226</ele>
        <time>2021-07-20T05:10:39.576Z</time>
      </trkpt>
      <trkpt lat="45.66896" lon="5.36346">
        <ele>226</ele>
        <time>2021-07-20T05:10:40.576Z</time>
      </trkpt>
      <trkpt lat="45.66896" lon="5.36355">
        <ele>226</ele>
        <time>2021-07-20T05:10:41.576Z</time>
      </trkpt>
      <trkpt lat="45.66895" lon="5.36368">
        <ele>226</ele>
        <time>2021-07-20T05:10:42.576Z</time>
      </trkpt>
      <trkpt lat="45.66894" lon="5.36379">
        <ele>226</ele>
        <time>2021-07-20T05:10:43.576Z</time>
      </trkpt>
      <trkpt lat="45.66893" lon="5.36391">
        <ele>226</ele>
        <time>2021-07-20T05:10:44.576Z</time>
      </trkpt>
      <trkpt lat="45.66893" lon="5.364">
        <ele>226</ele>
        <time>2021-07-20T05:10:45.576Z</time>
      </trkpt>
      <trkpt lat="45.66892" lon="5.36413">
        <ele>226</ele>
        <time>2021-07-20T05:10:46.576Z</time>
      </trkpt>
      <trkpt lat="45.66892" lon="5.36425">
        <ele>226</ele>
        <time>2021-07-20T05:10:47.575Z</time>
      </trkpt>
      <trkpt lat="45.66891" lon="5.36434">
        <ele>226</ele>
        <time>2021-07-20T05:10:48.576Z</time>
      </trkpt>
      <trkpt lat="45.6689" lon="5.36445">
        <ele>225</ele>
        <time>2021-07-20T05:10:49.576Z</time>
      </trkpt>
      <trkpt lat="45.6689" lon="5.36456">
        <ele>225</ele>
        <time>2021-07-20T05:10:50.576Z</time>
      </trkpt>
      <trkpt lat="45.66889" lon="5.36467">
        <ele>226</ele>
        <time>2021-07-20T05:10:51.576Z</time>
      </trkpt>
      <trkpt lat="45.66889" lon="5.36478">
        <ele>226</ele>
        <time>2021-07-20T05:10:52.576Z</time>
      </trkpt>
      <trkpt lat="45.66888" lon="5.36489">
        <ele>226</ele>
        <time>2021-07-20T05:10:53.575Z</time>
      </trkpt>
      <trkpt lat="45.66887" lon="5.365">
        <ele>226</ele>
        <time>2021-07-20T05:10:54.575Z</time>
      </trkpt>
      <trkpt lat="45.66887" lon="5.365">
        <ele>226</ele>
        <time>2021-07-20T05:10:55.575Z</time>
      </trkpt>
      <trkpt lat="45.66886" lon="5.36521">
        <ele>226</ele>
        <time>2021-07-20T05:10:56.576Z</time>
      </trkpt>
      <trkpt lat="45.66885" lon="5.36532">
        <ele>225</ele>
        <time>2021-07-20T05:10:57.575Z</time>
      </trkpt>
      <trkpt lat="45.66885" lon="5.36542">
        <ele>225</ele>
        <time>2021-07-20T05:10:58.576Z</time>
      </trkpt>
      <trkpt lat="45.66884" lon="5.36552">
        <ele>226</ele>
        <time>2021-07-20T05:10:59.575Z</time>
      </trkpt>
      <trkpt lat="45.66884" lon="5.36562">
        <ele>226</ele>
        <time>2021-07-20T05:11:00.575Z</time>
      </trkpt>
      <trkpt lat="45.66883" lon="5.36573">
        <ele>226</ele>
        <time>2021-07-20T05:11:01.576Z</time>
      </trkpt>
      <trkpt lat="45.66883" lon="5.36583">
        <ele>226</ele>
        <time>2021-07-20T05:11:02.576Z</time>
      </trkpt>
      <trkpt lat="45.66883" lon="5.36593">
        <ele>226</ele>
        <time>2021-07-20T05:11:03.576Z</time>
      </trkpt>
      <trkpt lat="45.66882" lon="5.36603">
        <ele>226</ele>
        <time>2021-07-20T05:11:04.576Z</time>
      </trkpt>
      <trkpt lat="45.66882" lon="5.36612">
        <ele>226</ele>
        <time>2021-07-20T05:11:05.576Z</time>
      </trkpt>
      <trkpt lat="45.66882" lon="5.36622">
        <ele>226</ele>
        <time>2021-07-20T05:11:06.576Z</time>
      </trkpt>
      <trkpt lat="45.66881" lon="5.36632">
        <ele>226</ele>
        <time>2021-07-20T05:11:07.576Z</time>
      </trkpt>
      <trkpt lat="45.66881" lon="5.36642">
        <ele>226</ele>
        <time>2021-07-20T05:11:08.576Z</time>
      </trkpt>
      <trkpt lat="45.66881" lon="5.36652">
        <ele>226</ele>
        <time>2021-07-20T05:11:09.576Z</time>
      </trkpt>
      <trkpt lat="45.66881" lon="5.36662">
        <ele>226</ele>
        <time>2021-07-20T05:11:10.576Z</time>
      </trkpt>
      <trkpt lat="45.66881" lon="5.36672">
        <ele>226</ele>
        <time>2021-07-20T05:11:11.575Z</time>
      </trkpt>
      <trkpt lat="45.66881" lon="5.36682">
        <ele>226</ele>
        <time>2021-07-20T05:11:12.576Z</time>
      </trkpt>
      <trkpt lat="45.66881" lon="5.36691">
        <ele>225</ele>
        <time>2021-07-20T05:11:13.576Z</time>
      </trkpt>
      <trkpt lat="45.6688" lon="5.36701">
        <ele>225</ele>
        <time>2021-07-20T05:11:14.575Z</time>
      </trkpt>
      <trkpt lat="45.6688" lon="5.3671">
        <ele>225</ele>
        <time>2021-07-20T05:11:15.576Z</time>
      </trkpt>
      <trkpt lat="45.6688" lon="5.3672">
        <ele>225</ele>
        <time>2021-07-20T05:11:16.575Z</time>
      </trkpt>
      <trkpt lat="45.6688" lon="5.3673">
        <ele>226</ele>
        <time>2021-07-20T05:11:17.575Z</time>
      </trkpt>
      <trkpt lat="45.6688" lon="5.3674">
        <ele>226</ele>
        <time>2021-07-20T05:11:18.576Z</time>
      </trkpt>
      <trkpt lat="45.6688" lon="5.3675">
        <ele>226</ele>
        <time>2021-07-20T05:11:19.575Z</time>
      </trkpt>
      <trkpt lat="45.6688" lon="5.36759">
        <ele>226</ele>
        <time>2021-07-20T05:11:20.576Z</time>
      </trkpt>
      <trkpt lat="45.6688" lon="5.36769">
        <ele>226</ele>
        <time>2021-07-20T05:11:21.576Z</time>
      </trkpt>
      <trkpt lat="45.6688" lon="5.36779">
        <ele>225</ele>
        <time>2021-07-20T05:11:22.576Z</time>
      </trkpt>
      <trkpt lat="45.6688" lon="5.36789">
        <ele>225</ele>
        <time>2021-07-20T05:11:23.576Z</time>
      </trkpt>
      <trkpt lat="45.66879" lon="5.36798">
        <ele>225</ele>
        <time>2021-07-20T05:11:24.575Z</time>
      </trkpt>
      <trkpt lat="45.66879" lon="5.36808">
        <ele>225</ele>
        <time>2021-07-20T05:11:25.575Z</time>
      </trkpt>
      <trkpt lat="45.66879" lon="5.36818">
        <ele>225</ele>
        <time>2021-07-20T05:11:26.576Z</time>
      </trkpt>
      <trkpt lat="45.66879" lon="5.36827">
        <ele>225</ele>
        <time>2021-07-20T05:11:27.575Z</time>
      </trkpt>
      <trkpt lat="45.66879" lon="5.36837">
        <ele>226</ele>
        <time>2021-07-20T05:11:28.576Z</time>
      </trkpt>
      <trkpt lat="45.66879" lon="5.36846">
        <ele>226</ele>
        <time>2021-07-20T05:11:29.575Z</time>
      </trkpt>
      <trkpt lat="45.66879" lon="5.36855">
        <ele>226</ele>
        <time>2021-07-20T05:11:30.576Z</time>
      </trkpt>
      <trkpt lat="45.66878" lon="5.36865">
        <ele>227</ele>
        <time>2021-07-20T05:11:31.576Z</time>
      </trkpt>
      <trkpt lat="45.66878" lon="5.36874">
        <ele>227</ele>
        <time>2021-07-20T05:11:32.576Z</time>
      </trkpt>
      <trkpt lat="45.66878" lon="5.36882">
        <ele>226</ele>
        <time>2021-07-20T05:11:33.576Z</time>
      </trkpt>
      <trkpt lat="45.66878" lon="5.36891">
        <ele>226</ele>
        <time>2021-07-20T05:11:34.576Z</time>
      </trkpt>
      <trkpt lat="45.66878" lon="5.369">
        <ele>226</ele>
        <time>2021-07-20T05:11:35.576Z</time>
      </trkpt>
      <trkpt lat="45.66878" lon="5.36909">
        <ele>226</ele>
        <time>2021-07-20T05:11:36.576Z</time>
      </trkpt>
      <trkpt lat="45.66878" lon="5.36918">
        <ele>225</ele>
        <time>2021-07-20T05:11:37.575Z</time>
      </trkpt>
      <trkpt lat="45.66878" lon="5.36927">
        <ele>225</ele>
        <time>2021-07-20T05:11:38.576Z</time>
      </trkpt>
      <trkpt lat="45.66878" lon="5.36936">
        <ele>225</ele>
        <time>2021-07-20T05:11:39.575Z</time>
      </trkpt>
      <trkpt lat="45.66878" lon="5.36945">
        <ele>225</ele>
        <time>2021-07-20T05:11:40.576Z</time>
      </trkpt>
      <trkpt lat="45.66878" lon="5.36954">
        <ele>225</ele>
        <time>2021-07-20T05:11:41.576Z</time>
      </trkpt>
      <trkpt lat="45.66877" lon="5.36963">
        <ele>225</ele>
        <time>2021-07-20T05:11:42.575Z</time>
      </trkpt>
      <trkpt lat="45.66877" lon="5.36973">
        <ele>225</ele>
        <time>2021-07-20T05:11:43.576Z</time>
      </trkpt>
      <trkpt lat="45.66877" lon="5.36982">
        <ele>225</ele>
        <time>2021-07-20T05:11:44.575Z</time>
      </trkpt>
      <trkpt lat="45.66877" lon="5.36992">
        <ele>225</ele>
        <time>2021-07-20T05:11:45.576Z</time>
      </trkpt>
      <trkpt lat="45.66877" lon="5.37001">
        <ele>225</ele>
        <time>2021-07-20T05:11:46.576Z</time>
      </trkpt>
      <trkpt lat="45.66877" lon="5.3701">
        <ele>225</ele>
        <time>2021-07-20T05:11:47.576Z</time>
      </trkpt>
      <trkpt lat="45.66877" lon="5.37019">
        <ele>225</ele>
        <time>2021-07-20T05:11:48.575Z</time>
      </trkpt>
      <trkpt lat="45.66877" lon="5.37028">
        <ele>225</ele>
        <time>2021-07-20T05:11:49.576Z</time>
      </trkpt>
      <trkpt lat="45.66877" lon="5.37037">
        <ele>226</ele>
        <time>2021-07-20T05:11:50.576Z</time>
      </trkpt>
      <trkpt lat="45.66876" lon="5.37047">
        <ele>226</ele>
        <time>2021-07-20T05:11:51.576Z</time>
      </trkpt>
      <trkpt lat="45.66876" lon="5.37056">
        <ele>226</ele>
        <time>2021-07-20T05:11:52.576Z</time>
      </trkpt>
      <trkpt lat="45.66876" lon="5.37065">
        <ele>226</ele>
        <time>2021-07-20T05:11:53.576Z</time>
      </trkpt>
      <trkpt lat="45.66876" lon="5.37074">
        <ele>227</ele>
        <time>2021-07-20T05:11:54.575Z</time>
      </trkpt>
      <trkpt lat="45.66875" lon="5.37083">
        <ele>227</ele>
        <time>2021-07-20T05:11:55.576Z</time>
      </trkpt>
      <trkpt lat="45.66875" lon="5.37092">
        <ele>228</ele>
        <time>2021-07-20T05:11:56.576Z</time>
      </trkpt>
      <trkpt lat="45.66875" lon="5.37102">
        <ele>228</ele>
        <time>2021-07-20T05:11:57.576Z</time>
      </trkpt>
      <trkpt lat="45.66874" lon="5.37111">
        <ele>228</ele>
        <time>2021-07-20T05:11:58.575Z</time>
      </trkpt>
      <trkpt lat="45.66874" lon="5.37121">
        <ele>229</ele>
        <time>2021-07-20T05:11:59.576Z</time>
      </trkpt>
      <trkpt lat="45.66874" lon="5.37131">
        <ele>229</ele>
        <time>2021-07-20T05:12:00.575Z</time>
      </trkpt>
      <trkpt lat="45.66873" lon="5.37141">
        <ele>229</ele>
        <time>2021-07-20T05:12:01.576Z</time>
      </trkpt>
      <trkpt lat="45.66873" lon="5.37151">
        <ele>228</ele>
        <time>2021-07-20T05:12:02.576Z</time>
      </trkpt>
      <trkpt lat="45.66873" lon="5.37161">
        <ele>228</ele>
        <time>2021-07-20T05:12:03.576Z</time>
      </trkpt>
      <trkpt lat="45.66873" lon="5.37171">
        <ele>228</ele>
        <time>2021-07-20T05:12:04.576Z</time>
      </trkpt>
      <trkpt lat="45.66872" lon="5.37182">
        <ele>228</ele>
        <time>2021-07-20T05:12:05.576Z</time>
      </trkpt>
      <trkpt lat="45.66872" lon="5.37192">
        <ele>228</ele>
        <time>2021-07-20T05:12:06.576Z</time>
      </trkpt>
      <trkpt lat="45.66872" lon="5.37202">
        <ele>228</ele>
        <time>2021-07-20T05:12:07.576Z</time>
      </trkpt>
      <trkpt lat="45.66872" lon="5.37212">
        <ele>228</ele>
        <time>2021-07-20T05:12:08.575Z</time>
      </trkpt>
      <trkpt lat="45.66872" lon="5.37222">
        <ele>228</ele>
        <time>2021-07-20T05:12:09.576Z</time>
      </trkpt>
      <trkpt lat="45.66872" lon="5.37231">
        <ele>228</ele>
        <time>2021-07-20T05:12:10.575Z</time>
      </trkpt>
      <trkpt lat="45.66873" lon="5.37241">
        <ele>228</ele>
        <time>2021-07-20T05:12:11.576Z</time>
      </trkpt>
      <trkpt lat="45.66874" lon="5.37251">
        <ele>228</ele>
        <time>2021-07-20T05:12:12.575Z</time>
      </trkpt>
      <trkpt lat="45.66876" lon="5.3726">
        <ele>228</ele>
        <time>2021-07-20T05:12:13.576Z</time>
      </trkpt>
      <trkpt lat="45.66877" lon="5.37269">
        <ele>228</ele>
        <time>2021-07-20T05:12:14.576Z</time>
      </trkpt>
      <trkpt lat="45.66879" lon="5.37278">
        <ele>228</ele>
        <time>2021-07-20T05:12:15.576Z</time>
      </trkpt>
      <trkpt lat="45.66881" lon="5.37287">
        <ele>228</ele>
        <time>2021-07-20T05:12:16.575Z</time>
      </trkpt>
      <trkpt lat="45.66884" lon="5.37296">
        <ele>228</ele>
        <time>2021-07-20T05:12:17.575Z</time>
      </trkpt>
      <trkpt lat="45.66886" lon="5.37304">
        <ele>228</ele>
        <time>2021-07-20T05:12:18.576Z</time>
      </trkpt>
      <trkpt lat="45.66888" lon="5.37312">
        <ele>228</ele>
        <time>2021-07-20T05:12:19.575Z</time>
      </trkpt>
      <trkpt lat="45.6689" lon="5.3732">
        <ele>228</ele>
        <time>2021-07-20T05:12:20.575Z</time>
      </trkpt>
      <trkpt lat="45.66893" lon="5.37328">
        <ele>229</ele>
        <time>2021-07-20T05:12:21.575Z</time>
      </trkpt>
      <trkpt lat="45.66895" lon="5.37336">
        <ele>229</ele>
        <time>2021-07-20T05:12:22.576Z</time>
      </trkpt>
      <trkpt lat="45.66897" lon="5.37344">
        <ele>229</ele>
        <time>2021-07-20T05:12:23.575Z</time>
      </trkpt>
      <trkpt lat="45.66899" lon="5.37351">
        <ele>229</ele>
        <time>2021-07-20T05:12:24.575Z</time>
      </trkpt>
      <trkpt lat="45.66901" lon="5.37359">
        <ele>230</ele>
        <time>2021-07-20T05:12:25.576Z</time>
      </trkpt>
      <trkpt lat="45.66903" lon="5.37366">
        <ele>230</ele>
        <time>2021-07-20T05:12:26.576Z</time>
      </trkpt>
      <trkpt lat="45.66904" lon="5.37374">
        <ele>230</ele>
        <time>2021-07-20T05:12:27.576Z</time>
      </trkpt>
      <trkpt lat="45.66905" lon="5.37382">
        <ele>230</ele>
        <time>2021-07-20T05:12:28.576Z</time>
      </trkpt>
      <trkpt lat="45.66906" lon="5.3739">
        <ele>230</ele>
        <time>2021-07-20T05:12:29.575Z</time>
      </trkpt>
      <trkpt lat="45.66907" lon="5.37398">
        <ele>229</ele>
        <time>2021-07-20T05:12:30.575Z</time>
      </trkpt>
      <trkpt lat="45.66909" lon="5.37405">
        <ele>229</ele>
        <time>2021-07-20T05:12:31.575Z</time>
      </trkpt>
      <trkpt lat="45.66911" lon="5.37413">
        <ele>229</ele>
        <time>2021-07-20T05:12:32.575Z</time>
      </trkpt>
      <trkpt lat="45.66913" lon="5.37421">
        <ele>229</ele>
        <time>2021-07-20T05:12:33.575Z</time>
      </trkpt>
      <trkpt lat="45.66915" lon="5.37429">
        <ele>229</ele>
        <time>2021-07-20T05:12:34.576Z</time>
      </trkpt>
      <trkpt lat="45.66916" lon="5.37437">
        <ele>229</ele>
        <time>2021-07-20T05:12:35.575Z</time>
      </trkpt>
      <trkpt lat="45.66919" lon="5.37446">
        <ele>229</ele>
        <time>2021-07-20T05:12:36.575Z</time>
      </trkpt>
      <trkpt lat="45.6692" lon="5.37455">
        <ele>229</ele>
        <time>2021-07-20T05:12:37.575Z</time>
      </trkpt>
      <trkpt lat="45.66922" lon="5.37464">
        <ele>229</ele>
        <time>2021-07-20T05:12:38.576Z</time>
      </trkpt>
      <trkpt lat="45.66924" lon="5.37472">
        <ele>229</ele>
        <time>2021-07-20T05:12:39.576Z</time>
      </trkpt>
      <trkpt lat="45.66926" lon="5.37481">
        <ele>229</ele>
        <time>2021-07-20T05:12:40.576Z</time>
      </trkpt>
      <trkpt lat="45.66928" lon="5.3749">
        <ele>229</ele>
        <time>2021-07-20T05:12:41.575Z</time>
      </trkpt>
      <trkpt lat="45.66929" lon="5.37499">
        <ele>230</ele>
        <time>2021-07-20T05:12:42.575Z</time>
      </trkpt>
      <trkpt lat="45.66931" lon="5.37507">
        <ele>230</ele>
        <time>2021-07-20T05:12:43.576Z</time>
      </trkpt>
      <trkpt lat="45.66933" lon="5.37516">
        <ele>231</ele>
        <time>2021-07-20T05:12:44.576Z</time>
      </trkpt>
      <trkpt lat="45.66935" lon="5.37525">
        <ele>231</ele>
        <time>2021-07-20T05:12:45.576Z</time>
      </trkpt>
      <trkpt lat="45.66937" lon="5.37533">
        <ele>231</ele>
        <time>2021-07-20T05:12:46.575Z</time>
      </trkpt>
      <trkpt lat="45.66939" lon="5.37542">
        <ele>231</ele>
        <time>2021-07-20T05:12:47.575Z</time>
      </trkpt>
      <trkpt lat="45.66941" lon="5.37551">
        <ele>231</ele>
        <time>2021-07-20T05:12:48.576Z</time>
      </trkpt>
      <trkpt lat="45.66943" lon="5.3756">
        <ele>231</ele>
        <time>2021-07-20T05:12:49.575Z</time>
      </trkpt>
      <trkpt lat="45.66945" lon="5.37569">
        <ele>232</ele>
        <time>2021-07-20T05:12:50.575Z</time>
      </trkpt>
      <trkpt lat="45.66947" lon="5.37578">
        <ele>232</ele>
        <time>2021-07-20T05:12:51.575Z</time>
      </trkpt>
      <trkpt lat="45.66949" lon="5.37587">
        <ele>232</ele>
        <time>2021-07-20T05:12:52.575Z</time>
      </trkpt>
      <trkpt lat="45.66951" lon="5.37595">
        <ele>232</ele>
        <time>2021-07-20T05:12:53.575Z</time>
      </trkpt>
      <trkpt lat="45.66952" lon="5.37604">
        <ele>232</ele>
        <time>2021-07-20T05:12:54.576Z</time>
      </trkpt>
      <trkpt lat="45.66954" lon="5.37613">
        <ele>232</ele>
        <time>2021-07-20T05:12:55.575Z</time>
      </trkpt>
      <trkpt lat="45.66957" lon="5.37622">
        <ele>233</ele>
        <time>2021-07-20T05:12:56.575Z</time>
      </trkpt>
      <trkpt lat="45.66959" lon="5.37631">
        <ele>233</ele>
        <time>2021-07-20T05:12:57.575Z</time>
      </trkpt>
      <trkpt lat="45.66961" lon="5.3764">
        <ele>233</ele>
        <time>2021-07-20T05:12:58.575Z</time>
      </trkpt>
      <trkpt lat="45.66963" lon="5.37649">
        <ele>234</ele>
        <time>2021-07-20T05:12:59.576Z</time>
      </trkpt>
      <trkpt lat="45.66965" lon="5.37658">
        <ele>234</ele>
        <time>2021-07-20T05:13:00.576Z</time>
      </trkpt>
      <trkpt lat="45.66967" lon="5.37666">
        <ele>234</ele>
        <time>2021-07-20T05:13:01.575Z</time>
      </trkpt>
      <trkpt lat="45.66969" lon="5.37677">
        <ele>234</ele>
        <time>2021-07-20T05:13:02.575Z</time>
      </trkpt>
      <trkpt lat="45.66971" lon="5.37686">
        <ele>235</ele>
        <time>2021-07-20T05:13:03.576Z</time>
      </trkpt>
      <trkpt lat="45.66973" lon="5.37694">
        <ele>235</ele>
        <time>2021-07-20T05:13:04.576Z</time>
      </trkpt>
      <trkpt lat="45.66975" lon="5.37703">
        <ele>235</ele>
        <time>2021-07-20T05:13:05.576Z</time>
      </trkpt>
      <trkpt lat="45.66977" lon="5.37712">
        <ele>235</ele>
        <time>2021-07-20T05:13:06.575Z</time>
      </trkpt>
      <trkpt lat="45.66979" lon="5.37721">
        <ele>235</ele>
        <time>2021-07-20T05:13:07.575Z</time>
      </trkpt>
      <trkpt lat="45.66981" lon="5.3773">
        <ele>235</ele>
        <time>2021-07-20T05:13:08.575Z</time>
      </trkpt>
      <trkpt lat="45.66983" lon="5.37739">
        <ele>235</ele>
        <time>2021-07-20T05:13:09.576Z</time>
      </trkpt>
      <trkpt lat="45.66985" lon="5.37748">
        <ele>235</ele>
        <time>2021-07-20T05:13:10.576Z</time>
      </trkpt>
      <trkpt lat="45.66987" lon="5.37757">
        <ele>235</ele>
        <time>2021-07-20T05:13:11.576Z</time>
      </trkpt>
      <trkpt lat="45.66989" lon="5.37766">
        <ele>235</ele>
        <time>2021-07-20T05:13:12.575Z</time>
      </trkpt>
      <trkpt lat="45.66991" lon="5.37775">
        <ele>235</ele>
        <time>2021-07-20T05:13:13.575Z</time>
      </trkpt>
      <trkpt lat="45.66993" lon="5.37785">
        <ele>235</ele>
        <time>2021-07-20T05:13:14.575Z</time>
      </trkpt>
      <trkpt lat="45.66995" lon="5.37794">
        <ele>236</ele>
        <time>2021-07-20T05:13:15.576Z</time>
      </trkpt>
      <trkpt lat="45.66997" lon="5.37803">
        <ele>236</ele>
        <time>2021-07-20T05:13:16.576Z</time>
      </trkpt>
      <trkpt lat="45.66999" lon="5.37812">
        <ele>236</ele>
        <time>2021-07-20T05:13:17.575Z</time>
      </trkpt>
      <trkpt lat="45.67001" lon="5.37821">
        <ele>236</ele>
        <time>2021-07-20T05:13:18.576Z</time>
      </trkpt>
      <trkpt lat="45.67003" lon="5.3783">
        <ele>237</ele>
        <time>2021-07-20T05:13:19.576Z</time>
      </trkpt>
      <trkpt lat="45.67005" lon="5.37839">
        <ele>236</ele>
        <time>2021-07-20T05:13:20.576Z</time>
      </trkpt>
      <trkpt lat="45.67008" lon="5.37848">
        <ele>236</ele>
        <time>2021-07-20T05:13:21.576Z</time>
      </trkpt>
      <trkpt lat="45.6701" lon="5.37857">
        <ele>237</ele>
        <time>2021-07-20T05:13:22.575Z</time>
      </trkpt>
      <trkpt lat="45.67012" lon="5.37867">
        <ele>237</ele>
        <time>2021-07-20T05:13:23.576Z</time>
      </trkpt>
      <trkpt lat="45.67014" lon="5.37876">
        <ele>237</ele>
        <time>2021-07-20T05:13:24.575Z</time>
      </trkpt>
      <trkpt lat="45.67016" lon="5.37885">
        <ele>237</ele>
        <time>2021-07-20T05:13:25.575Z</time>
      </trkpt>
      <trkpt lat="45.67018" lon="5.37894">
        <ele>237</ele>
        <time>2021-07-20T05:13:26.576Z</time>
      </trkpt>
      <trkpt lat="45.6702" lon="5.37904">
        <ele>237</ele>
        <time>2021-07-20T05:13:27.575Z</time>
      </trkpt>
      <trkpt lat="45.67022" lon="5.37913">
        <ele>236</ele>
        <time>2021-07-20T05:13:28.576Z</time>
      </trkpt>
      <trkpt lat="45.67024" lon="5.37922">
        <ele>236</ele>
        <time>2021-07-20T05:13:29.575Z</time>
      </trkpt>
      <trkpt lat="45.67025" lon="5.37931">
        <ele>236</ele>
        <time>2021-07-20T05:13:30.575Z</time>
      </trkpt>
      <trkpt lat="45.67027" lon="5.37941">
        <ele>235</ele>
        <time>2021-07-20T05:13:31.575Z</time>
      </trkpt>
      <trkpt lat="45.67029" lon="5.3795">
        <ele>235</ele>
        <time>2021-07-20T05:13:32.575Z</time>
      </trkpt>
      <trkpt lat="45.67031" lon="5.37959">
        <ele>234</ele>
        <time>2021-07-20T05:13:33.576Z</time>
      </trkpt>
      <trkpt lat="45.67033" lon="5.37968">
        <ele>235</ele>
        <time>2021-07-20T05:13:34.576Z</time>
      </trkpt>
      <trkpt lat="45.67035" lon="5.37977">
        <ele>235</ele>
        <time>2021-07-20T05:13:35.575Z</time>
      </trkpt>
      <trkpt lat="45.67037" lon="5.37986">
        <ele>235</ele>
        <time>2021-07-20T05:13:36.576Z</time>
      </trkpt>
      <trkpt lat="45.67039" lon="5.37995">
        <ele>236</ele>
        <time>2021-07-20T05:13:37.575Z</time>
      </trkpt>
      <trkpt lat="45.67041" lon="5.38004">
        <ele>236</ele>
        <time>2021-07-20T05:13:38.576Z</time>
      </trkpt>
      <trkpt lat="45.67043" lon="5.38013">
        <ele>236</ele>
        <time>2021-07-20T05:13:39.576Z</time>
      </trkpt>
      <trkpt lat="45.67045" lon="5.38022">
        <ele>236</ele>
        <time>2021-07-20T05:13:40.576Z</time>
      </trkpt>
      <trkpt lat="45.67047" lon="5.38031">
        <ele>236</ele>
        <time>2021-07-20T05:13:41.576Z</time>
      </trkpt>
      <trkpt lat="45.67048" lon="5.3804">
        <ele>236</ele>
        <time>2021-07-20T05:13:42.575Z</time>
      </trkpt>
      <trkpt lat="45.6705" lon="5.38049">
        <ele>236</ele>
        <time>2021-07-20T05:13:43.576Z</time>
      </trkpt>
      <trkpt lat="45.67052" lon="5.38058">
        <ele>236</ele>
        <time>2021-07-20T05:13:44.576Z</time>
      </trkpt>
      <trkpt lat="45.67054" lon="5.38068">
        <ele>236</ele>
        <time>2021-07-20T05:13:45.575Z</time>
      </trkpt>
      <trkpt lat="45.67056" lon="5.38077">
        <ele>236</ele>
        <time>2021-07-20T05:13:46.576Z</time>
      </trkpt>
      <trkpt lat="45.67058" lon="5.38086">
        <ele>237</ele>
        <time>2021-07-20T05:13:47.576Z</time>
      </trkpt>
      <trkpt lat="45.6706" lon="5.38095">
        <ele>237</ele>
        <time>2021-07-20T05:13:48.575Z</time>
      </trkpt>
      <trkpt lat="45.67061" lon="5.38105">
        <ele>238</ele>
        <time>2021-07-20T05:13:49.576Z</time>
      </trkpt>
      <trkpt lat="45.67063" lon="5.38114">
        <ele>238</ele>
        <time>2021-07-20T05:13:50.576Z</time>
      </trkpt>
      <trkpt lat="45.67064" lon="5.38124">
        <ele>238</ele>
        <time>2021-07-20T05:13:51.575Z</time>
      </trkpt>
      <trkpt lat="45.67065" lon="5.38133">
        <ele>238</ele>
        <time>2021-07-20T05:13:52.576Z</time>
      </trkpt>
      <trkpt lat="45.67065" lon="5.38143">
        <ele>239</ele>
        <time>2021-07-20T05:13:53.575Z</time>
      </trkpt>
      <trkpt lat="45.67065" lon="5.38153">
        <ele>239</ele>
        <time>2021-07-20T05:13:54.576Z</time>
      </trkpt>
      <trkpt lat="45.67065" lon="5.38163">
        <ele>239</ele>
        <time>2021-07-20T05:13:55.575Z</time>
      </trkpt>
      <trkpt lat="45.67065" lon="5.38172">
        <ele>238</ele>
        <time>2021-07-20T05:13:56.575Z</time>
      </trkpt>
      <trkpt lat="45.67064" lon="5.38182">
        <ele>238</ele>
        <time>2021-07-20T05:13:57.576Z</time>
      </trkpt>
      <trkpt lat="45.67063" lon="5.38191">
        <ele>238</ele>
        <time>2021-07-20T05:13:58.576Z</time>
      </trkpt>
      <trkpt lat="45.67062" lon="5.38201">
        <ele>238</ele>
        <time>2021-07-20T05:13:59.576Z</time>
      </trkpt>
      <trkpt lat="45.67061" lon="5.3821">
        <ele>238</ele>
        <time>2021-07-20T05:14:00.575Z</time>
      </trkpt>
      <trkpt lat="45.67059" lon="5.3822">
        <ele>238</ele>
        <time>2021-07-20T05:14:01.575Z</time>
      </trkpt>
      <trkpt lat="45.67058" lon="5.3823">
        <ele>238</ele>
        <time>2021-07-20T05:14:02.575Z</time>
      </trkpt>
      <trkpt lat="45.67056" lon="5.38239">
        <ele>238</ele>
        <time>2021-07-20T05:14:03.576Z</time>
      </trkpt>
      <trkpt lat="45.67055" lon="5.38249">
        <ele>239</ele>
        <time>2021-07-20T05:14:04.575Z</time>
      </trkpt>
      <trkpt lat="45.67053" lon="5.38259">
        <ele>239</ele>
        <time>2021-07-20T05:14:05.575Z</time>
      </trkpt>
      <trkpt lat="45.67051" lon="5.38268">
        <ele>240</ele>
        <time>2021-07-20T05:14:06.575Z</time>
      </trkpt>
      <trkpt lat="45.6705" lon="5.38278">
        <ele>239</ele>
        <time>2021-07-20T05:14:07.575Z</time>
      </trkpt>
      <trkpt lat="45.67048" lon="5.38287">
        <ele>239</ele>
        <time>2021-07-20T05:14:08.576Z</time>
      </trkpt>
      <trkpt lat="45.67046" lon="5.38296">
        <ele>239</ele>
        <time>2021-07-20T05:14:09.576Z</time>
      </trkpt>
      <trkpt lat="45.67045" lon="5.38306">
        <ele>239</ele>
        <time>2021-07-20T05:14:10.575Z</time>
      </trkpt>
      <trkpt lat="45.67044" lon="5.38315">
        <ele>239</ele>
        <time>2021-07-20T05:14:11.575Z</time>
      </trkpt>
      <trkpt lat="45.67042" lon="5.38324">
        <ele>239</ele>
        <time>2021-07-20T05:14:12.576Z</time>
      </trkpt>
      <trkpt lat="45.67041" lon="5.38334">
        <ele>239</ele>
        <time>2021-07-20T05:14:13.576Z</time>
      </trkpt>
      <trkpt lat="45.67039" lon="5.38343">
        <ele>238</ele>
        <time>2021-07-20T05:14:14.576Z</time>
      </trkpt>
      <trkpt lat="45.67037" lon="5.38352">
        <ele>238</ele>
        <time>2021-07-20T05:14:15.575Z</time>
      </trkpt>
      <trkpt lat="45.67036" lon="5.38362">
        <ele>238</ele>
        <time>2021-07-20T05:14:16.575Z</time>
      </trkpt>
      <trkpt lat="45.67034" lon="5.38371">
        <ele>238</ele>
        <time>2021-07-20T05:14:17.575Z</time>
      </trkpt>
      <trkpt lat="45.67033" lon="5.38381">
        <ele>238</ele>
        <time>2021-07-20T05:14:18.576Z</time>
      </trkpt>
      <trkpt lat="45.67031" lon="5.3839">
        <ele>238</ele>
        <time>2021-07-20T05:14:19.576Z</time>
      </trkpt>
      <trkpt lat="45.6703" lon="5.384">
        <ele>238</ele>
        <time>2021-07-20T05:14:20.575Z</time>
      </trkpt>
      <trkpt lat="45.67028" lon="5.38409">
        <ele>238</ele>
        <time>2021-07-20T05:14:21.576Z</time>
      </trkpt>
      <trkpt lat="45.67027" lon="5.38418">
        <ele>238</ele>
        <time>2021-07-20T05:14:22.576Z</time>
      </trkpt>
      <trkpt lat="45.67025" lon="5.38428">
        <ele>238</ele>
        <time>2021-07-20T05:14:23.576Z</time>
      </trkpt>
      <trkpt lat="45.67023" lon="5.38438">
        <ele>238</ele>
        <time>2021-07-20T05:14:24.576Z</time>
      </trkpt>
      <trkpt lat="45.67022" lon="5.38447">
        <ele>238</ele>
        <time>2021-07-20T05:14:25.575Z</time>
      </trkpt>
      <trkpt lat="45.67021" lon="5.38457">
        <ele>239</ele>
        <time>2021-07-20T05:14:26.575Z</time>
      </trkpt>
      <trkpt lat="45.67019" lon="5.38467">
        <ele>239</ele>
        <time>2021-07-20T05:14:27.575Z</time>
      </trkpt>
      <trkpt lat="45.67017" lon="5.38476">
        <ele>239</ele>
        <time>2021-07-20T05:14:28.576Z</time>
      </trkpt>
      <trkpt lat="45.67016" lon="5.38485">
        <ele>239</ele>
        <time>2021-07-20T05:14:29.575Z</time>
      </trkpt>
      <trkpt lat="45.67014" lon="5.38495">
        <ele>238</ele>
        <time>2021-07-20T05:14:30.576Z</time>
      </trkpt>
      <trkpt lat="45.67013" lon="5.38505">
        <ele>239</ele>
        <time>2021-07-20T05:14:31.575Z</time>
      </trkpt>
      <trkpt lat="45.67012" lon="5.38514">
        <ele>239</ele>
        <time>2021-07-20T05:14:32.575Z</time>
      </trkpt>
      <trkpt lat="45.6701" lon="5.38524">
        <ele>239</ele>
        <time>2021-07-20T05:14:33.576Z</time>
      </trkpt>
      <trkpt lat="45.67009" lon="5.38534">
        <ele>239</ele>
        <time>2021-07-20T05:14:34.576Z</time>
      </trkpt>
      <trkpt lat="45.67007" lon="5.38544">
        <ele>239</ele>
        <time>2021-07-20T05:14:35.575Z</time>
      </trkpt>
      <trkpt lat="45.67006" lon="5.38554">
        <ele>239</ele>
        <time>2021-07-20T05:14:36.575Z</time>
      </trkpt>
      <trkpt lat="45.67004" lon="5.38563">
        <ele>239</ele>
        <time>2021-07-20T05:14:37.576Z</time>
      </trkpt>
      <trkpt lat="45.67003" lon="5.38573">
        <ele>239</ele>
        <time>2021-07-20T05:14:38.576Z</time>
      </trkpt>
      <trkpt lat="45.67002" lon="5.38584">
        <ele>240</ele>
        <time>2021-07-20T05:14:39.576Z</time>
      </trkpt>
      <trkpt lat="45.67" lon="5.38594">
        <ele>240</ele>
        <time>2021-07-20T05:14:40.575Z</time>
      </trkpt>
      <trkpt lat="45.66998" lon="5.38604">
        <ele>240</ele>
        <time>2021-07-20T05:14:41.575Z</time>
      </trkpt>
      <trkpt lat="45.66996" lon="5.38614">
        <ele>240</ele>
        <time>2021-07-20T05:14:42.575Z</time>
      </trkpt>
      <trkpt lat="45.66994" lon="5.38624">
        <ele>240</ele>
        <time>2021-07-20T05:14:43.576Z</time>
      </trkpt>
      <trkpt lat="45.66993" lon="5.38633">
        <ele>240</ele>
        <time>2021-07-20T05:14:44.575Z</time>
      </trkpt>
      <trkpt lat="45.6699" lon="5.38645">
        <ele>240</ele>
        <time>2021-07-20T05:14:45.575Z</time>
      </trkpt>
      <trkpt lat="45.66989" lon="5.38653">
        <ele>240</ele>
        <time>2021-07-20T05:14:46.575Z</time>
      </trkpt>
      <trkpt lat="45.66987" lon="5.38664">
        <ele>240</ele>
        <time>2021-07-20T05:14:47.575Z</time>
      </trkpt>
      <trkpt lat="45.66986" lon="5.38674">
        <ele>240</ele>
        <time>2021-07-20T05:14:48.575Z</time>
      </trkpt>
      <trkpt lat="45.66985" lon="5.38684">
        <ele>239</ele>
        <time>2021-07-20T05:14:49.575Z</time>
      </trkpt>
      <trkpt lat="45.66985" lon="5.38692">
        <ele>239</ele>
        <time>2021-07-20T05:14:50.575Z</time>
      </trkpt>
      <trkpt lat="45.66984" lon="5.38703">
        <ele>238</ele>
        <time>2021-07-20T05:14:51.575Z</time>
      </trkpt>
      <trkpt lat="45.66985" lon="5.38713">
        <ele>238</ele>
        <time>2021-07-20T05:14:52.575Z</time>
      </trkpt>
      <trkpt lat="45.66986" lon="5.38723">
        <ele>238</ele>
        <time>2021-07-20T05:14:53.576Z</time>
      </trkpt>
      <trkpt lat="45.66987" lon="5.38733">
        <ele>238</ele>
        <time>2021-07-20T05:14:54.576Z</time>
      </trkpt>
      <trkpt lat="45.66988" lon="5.38743">
        <ele>238</ele>
        <time>2021-07-20T05:14:55.575Z</time>
      </trkpt>
      <trkpt lat="45.66989" lon="5.38753">
        <ele>238</ele>
        <time>2021-07-20T05:14:56.575Z</time>
      </trkpt>
      <trkpt lat="45.6699" lon="5.38762">
        <ele>238</ele>
        <time>2021-07-20T05:14:57.575Z</time>
      </trkpt>
      <trkpt lat="45.66991" lon="5.38772">
        <ele>238</ele>
        <time>2021-07-20T05:14:58.575Z</time>
      </trkpt>
      <trkpt lat="45.66992" lon="5.3878">
        <ele>237</ele>
        <time>2021-07-20T05:14:59.576Z</time>
      </trkpt>
      <trkpt lat="45.66993" lon="5.38792">
        <ele>237</ele>
        <time>2021-07-20T05:15:00.576Z</time>
      </trkpt>
      <trkpt lat="45.66994" lon="5.38802">
        <ele>236</ele>
        <time>2021-07-20T05:15:01.575Z</time>
      </trkpt>
      <trkpt lat="45.66995" lon="5.38812">
        <ele>236</ele>
        <time>2021-07-20T05:15:02.576Z</time>
      </trkpt>
      <trkpt lat="45.66996" lon="5.38822">
        <ele>236</ele>
        <time>2021-07-20T05:15:03.576Z</time>
      </trkpt>
      <trkpt lat="45.66997" lon="5.38833">
        <ele>237</ele>
        <time>2021-07-20T05:15:04.576Z</time>
      </trkpt>
      <trkpt lat="45.66998" lon="5.38843">
        <ele>237</ele>
        <time>2021-07-20T05:15:05.575Z</time>
      </trkpt>
      <trkpt lat="45.67" lon="5.38854">
        <ele>238</ele>
        <time>2021-07-20T05:15:06.575Z</time>
      </trkpt>
      <trkpt lat="45.67001" lon="5.38862">
        <ele>238</ele>
        <time>2021-07-20T05:15:07.576Z</time>
      </trkpt>
      <trkpt lat="45.67002" lon="5.38872">
        <ele>239</ele>
        <time>2021-07-20T05:15:08.576Z</time>
      </trkpt>
      <trkpt lat="45.67003" lon="5.38881">
        <ele>239</ele>
        <time>2021-07-20T05:15:09.576Z</time>
      </trkpt>
      <trkpt lat="45.67004" lon="5.38891">
        <ele>239</ele>
        <time>2021-07-20T05:15:10.575Z</time>
      </trkpt>
      <trkpt lat="45.67005" lon="5.389">
        <ele>238</ele>
        <time>2021-07-20T05:15:11.575Z</time>
      </trkpt>
      <trkpt lat="45.67006" lon="5.3891">
        <ele>238</ele>
        <time>2021-07-20T05:15:12.576Z</time>
      </trkpt>
      <trkpt lat="45.67008" lon="5.3892">
        <ele>238</ele>
        <time>2021-07-20T05:15:13.575Z</time>
      </trkpt>
      <trkpt lat="45.67009" lon="5.3893">
        <ele>238</ele>
        <time>2021-07-20T05:15:14.576Z</time>
      </trkpt>
      <trkpt lat="45.6701" lon="5.3894">
        <ele>238</ele>
        <time>2021-07-20T05:15:15.576Z</time>
      </trkpt>
      <trkpt lat="45.67011" lon="5.38951">
        <ele>237</ele>
        <time>2021-07-20T05:15:16.575Z</time>
      </trkpt>
      <trkpt lat="45.67013" lon="5.3896">
        <ele>237</ele>
        <time>2021-07-20T05:15:17.575Z</time>
      </trkpt>
      <trkpt lat="45.67014" lon="5.3897">
        <ele>237</ele>
        <time>2021-07-20T05:15:18.576Z</time>
      </trkpt>
      <trkpt lat="45.67015" lon="5.3898">
        <ele>237</ele>
        <time>2021-07-20T05:15:19.576Z</time>
      </trkpt>
      <trkpt lat="45.67016" lon="5.3899">
        <ele>237</ele>
        <time>2021-07-20T05:15:20.576Z</time>
      </trkpt>
      <trkpt lat="45.67017" lon="5.38999">
        <ele>237</ele>
        <time>2021-07-20T05:15:21.575Z</time>
      </trkpt>
      <trkpt lat="45.67018" lon="5.39009">
        <ele>237</ele>
        <time>2021-07-20T05:15:22.575Z</time>
      </trkpt>
      <trkpt lat="45.67019" lon="5.39018">
        <ele>237</ele>
        <time>2021-07-20T05:15:23.575Z</time>
      </trkpt>
      <trkpt lat="45.6702" lon="5.39028">
        <ele>237</ele>
        <time>2021-07-20T05:15:24.575Z</time>
      </trkpt>
      <trkpt lat="45.67021" lon="5.39037">
        <ele>237</ele>
        <time>2021-07-20T05:15:25.575Z</time>
      </trkpt>
      <trkpt lat="45.67022" lon="5.39047">
        <ele>237</ele>
        <time>2021-07-20T05:15:26.575Z</time>
      </trkpt>
      <trkpt lat="45.67023" lon="5.39056">
        <ele>237</ele>
        <time>2021-07-20T05:15:27.575Z</time>
      </trkpt>
      <trkpt lat="45.67025" lon="5.39066">
        <ele>238</ele>
        <time>2021-07-20T05:15:28.575Z</time>
      </trkpt>
      <trkpt lat="45.67026" lon="5.39076">
        <ele>238</ele>
        <time>2021-07-20T05:15:29.576Z</time>
      </trkpt>
      <trkpt lat="45.67027" lon="5.39087">
        <ele>238</ele>
        <time>2021-07-20T05:15:30.576Z</time>
      </trkpt>
      <trkpt lat="45.67028" lon="5.39096">
        <ele>237</ele>
        <time>2021-07-20T05:15:31.576Z</time>
      </trkpt>
      <trkpt lat="45.67029" lon="5.39106">
        <ele>237</ele>
        <time>2021-07-20T05:15:32.575Z</time>
      </trkpt>
      <trkpt lat="45.6703" lon="5.39115">
        <ele>237</ele>
        <time>2021-07-20T05:15:33.576Z</time>
      </trkpt>
      <trkpt lat="45.67031" lon="5.39125">
        <ele>237</ele>
        <time>2021-07-20T05:15:34.576Z</time>
      </trkpt>
      <trkpt lat="45.67032" lon="5.39134">
        <ele>237</ele>
        <time>2021-07-20T05:15:35.575Z</time>
      </trkpt>
      <trkpt lat="45.67033" lon="5.39142">
        <ele>237</ele>
        <time>2021-07-20T05:15:36.576Z</time>
      </trkpt>
      <trkpt lat="45.67034" lon="5.39151">
        <ele>237</ele>
        <time>2021-07-20T05:15:37.575Z</time>
      </trkpt>
      <trkpt lat="45.67036" lon="5.39162">
        <ele>238</ele>
        <time>2021-07-20T05:15:38.576Z</time>
      </trkpt>
      <trkpt lat="45.67037" lon="5.39171">
        <ele>238</ele>
        <time>2021-07-20T05:15:39.575Z</time>
      </trkpt>
      <trkpt lat="45.67038" lon="5.39181">
        <ele>238</ele>
        <time>2021-07-20T05:15:40.575Z</time>
      </trkpt>
      <trkpt lat="45.67039" lon="5.3919">
        <ele>238</ele>
        <time>2021-07-20T05:15:41.575Z</time>
      </trkpt>
      <trkpt lat="45.6704" lon="5.392">
        <ele>239</ele>
        <time>2021-07-20T05:15:42.575Z</time>
      </trkpt>
      <trkpt lat="45.67041" lon="5.3921">
        <ele>238</ele>
        <time>2021-07-20T05:15:43.576Z</time>
      </trkpt>
      <trkpt lat="45.67042" lon="5.39219">
        <ele>238</ele>
        <time>2021-07-20T05:15:44.575Z</time>
      </trkpt>
      <trkpt lat="45.67043" lon="5.39227">
        <ele>238</ele>
        <time>2021-07-20T05:15:45.575Z</time>
      </trkpt>
      <trkpt lat="45.67044" lon="5.39238">
        <ele>238</ele>
        <time>2021-07-20T05:15:46.575Z</time>
      </trkpt>
      <trkpt lat="45.67045" lon="5.39248">
        <ele>238</ele>
        <time>2021-07-20T05:15:47.575Z</time>
      </trkpt>
      <trkpt lat="45.67046" lon="5.39258">
        <ele>238</ele>
        <time>2021-07-20T05:15:48.575Z</time>
      </trkpt>
      <trkpt lat="45.67047" lon="5.39267">
        <ele>238</ele>
        <time>2021-07-20T05:15:49.576Z</time>
      </trkpt>
      <trkpt lat="45.67048" lon="5.39274">
        <ele>238</ele>
        <time>2021-07-20T05:15:50.575Z</time>
      </trkpt>
      <trkpt lat="45.67049" lon="5.39285">
        <ele>238</ele>
        <time>2021-07-20T05:15:51.575Z</time>
      </trkpt>
      <trkpt lat="45.6705" lon="5.39295">
        <ele>238</ele>
        <time>2021-07-20T05:15:52.575Z</time>
      </trkpt>
      <trkpt lat="45.67051" lon="5.39302">
        <ele>238</ele>
        <time>2021-07-20T05:15:53.576Z</time>
      </trkpt>
      <trkpt lat="45.67053" lon="5.39313">
        <ele>238</ele>
        <time>2021-07-20T05:15:54.575Z</time>
      </trkpt>
      <trkpt lat="45.67053" lon="5.39321">
        <ele>238</ele>
        <time>2021-07-20T05:15:55.575Z</time>
      </trkpt>
      <trkpt lat="45.67054" lon="5.3933">
        <ele>238</ele>
        <time>2021-07-20T05:15:56.575Z</time>
      </trkpt>
      <trkpt lat="45.67055" lon="5.39339">
        <ele>238</ele>
        <time>2021-07-20T05:15:57.575Z</time>
      </trkpt>
      <trkpt lat="45.67057" lon="5.39348">
        <ele>239</ele>
        <time>2021-07-20T05:15:58.576Z</time>
      </trkpt>
      <trkpt lat="45.67057" lon="5.39354">
        <ele>239</ele>
        <time>2021-07-20T05:15:59.575Z</time>
      </trkpt>
      <trkpt lat="45.67058" lon="5.39364">
        <ele>239</ele>
        <time>2021-07-20T05:16:00.576Z</time>
      </trkpt>
      <trkpt lat="45.67059" lon="5.39371">
        <ele>240</ele>
        <time>2021-07-20T05:16:01.576Z</time>
      </trkpt>
      <trkpt lat="45.6706" lon="5.39378">
        <ele>240</ele>
        <time>2021-07-20T05:16:02.575Z</time>
      </trkpt>
      <trkpt lat="45.67061" lon="5.39384">
        <ele>240</ele>
        <time>2021-07-20T05:16:03.576Z</time>
      </trkpt>
      <trkpt lat="45.67062" lon="5.39392">
        <ele>240</ele>
        <time>2021-07-20T05:16:04.576Z</time>
      </trkpt>
      <trkpt lat="45.67063" lon="5.39397">
        <ele>241</ele>
        <time>2021-07-20T05:16:05.575Z</time>
      </trkpt>
      <trkpt lat="45.67064" lon="5.39405">
        <ele>241</ele>
        <time>2021-07-20T05:16:06.575Z</time>
      </trkpt>
      <trkpt lat="45.67064" lon="5.3941">
        <ele>241</ele>
        <time>2021-07-20T05:16:07.575Z</time>
      </trkpt>
      <trkpt lat="45.67065" lon="5.39416">
        <ele>241</ele>
        <time>2021-07-20T05:16:08.576Z</time>
      </trkpt>
      <trkpt lat="45.67065" lon="5.39423">
        <ele>241</ele>
        <time>2021-07-20T05:16:09.575Z</time>
      </trkpt>
      <trkpt lat="45.67066" lon="5.39429">
        <ele>241</ele>
        <time>2021-07-20T05:16:10.575Z</time>
      </trkpt>
      <trkpt lat="45.67067" lon="5.39435">
        <ele>241</ele>
        <time>2021-07-20T05:16:11.576Z</time>
      </trkpt>
      <trkpt lat="45.67068" lon="5.39441">
        <ele>241</ele>
        <time>2021-07-20T05:16:12.575Z</time>
      </trkpt>
      <trkpt lat="45.67069" lon="5.39446">
        <ele>241</ele>
        <time>2021-07-20T05:16:13.575Z</time>
      </trkpt>
      <trkpt lat="45.6707" lon="5.39451">
        <ele>242</ele>
        <time>2021-07-20T05:16:14.575Z</time>
      </trkpt>
      <trkpt lat="45.6707" lon="5.39457">
        <ele>242</ele>
        <time>2021-07-20T05:16:15.576Z</time>
      </trkpt>
      <trkpt lat="45.6707" lon="5.39461">
        <ele>242</ele>
        <time>2021-07-20T05:16:16.575Z</time>
      </trkpt>
      <trkpt lat="45.67072" lon="5.39467">
        <ele>243</ele>
        <time>2021-07-20T05:16:17.575Z</time>
      </trkpt>
      <trkpt lat="45.67073" lon="5.39473">
        <ele>243</ele>
        <time>2021-07-20T05:16:18.576Z</time>
      </trkpt>
      <trkpt lat="45.67074" lon="5.39477">
        <ele>243</ele>
        <time>2021-07-20T05:16:19.575Z</time>
      </trkpt>
      <trkpt lat="45.67076" lon="5.39482">
        <ele>244</ele>
        <time>2021-07-20T05:16:20.575Z</time>
      </trkpt>
      <trkpt lat="45.67078" lon="5.39486">
        <ele>244</ele>
        <time>2021-07-20T05:16:21.575Z</time>
      </trkpt>
      <trkpt lat="45.6708" lon="5.3949">
        <ele>245</ele>
        <time>2021-07-20T05:16:22.575Z</time>
      </trkpt>
      <trkpt lat="45.67082" lon="5.39495">
        <ele>245</ele>
        <time>2021-07-20T05:16:23.576Z</time>
      </trkpt>
      <trkpt lat="45.67084" lon="5.39499">
        <ele>246</ele>
        <time>2021-07-20T05:16:24.576Z</time>
      </trkpt>
      <trkpt lat="45.67087" lon="5.39503">
        <ele>246</ele>
        <time>2021-07-20T05:16:25.575Z</time>
      </trkpt>
      <trkpt lat="45.67089" lon="5.39508">
        <ele>247</ele>
        <time>2021-07-20T05:16:26.575Z</time>
      </trkpt>
      <trkpt lat="45.67091" lon="5.39512">
        <ele>248</ele>
        <time>2021-07-20T05:16:27.575Z</time>
      </trkpt>
      <trkpt lat="45.67094" lon="5.39516">
        <ele>249</ele>
        <time>2021-07-20T05:16:28.575Z</time>
      </trkpt>
      <trkpt lat="45.67096" lon="5.39521">
        <ele>250</ele>
        <time>2021-07-20T05:16:29.575Z</time>
      </trkpt>
      <trkpt lat="45.67098" lon="5.39525">
        <ele>251</ele>
        <time>2021-07-20T05:16:30.575Z</time>
      </trkpt>
      <trkpt lat="45.671" lon="5.3953">
        <ele>252</ele>
        <time>2021-07-20T05:16:31.575Z</time>
      </trkpt>
      <trkpt lat="45.67102" lon="5.39535">
        <ele>252</ele>
        <time>2021-07-20T05:16:32.575Z</time>
      </trkpt>
      <trkpt lat="45.67103" lon="5.3954">
        <ele>252</ele>
        <time>2021-07-20T05:16:33.575Z</time>
      </trkpt>
      <trkpt lat="45.67105" lon="5.39544">
        <ele>253</ele>
        <time>2021-07-20T05:16:34.575Z</time>
      </trkpt>
      <trkpt lat="45.67107" lon="5.39549">
        <ele>253</ele>
        <time>2021-07-20T05:16:35.575Z</time>
      </trkpt>
      <trkpt lat="45.67108" lon="5.39553">
        <ele>254</ele>
        <time>2021-07-20T05:16:36.575Z</time>
      </trkpt>
      <trkpt lat="45.67109" lon="5.39558">
        <ele>254</ele>
        <time>2021-07-20T05:16:37.575Z</time>
      </trkpt>
      <trkpt lat="45.6711" lon="5.39562">
        <ele>254</ele>
        <time>2021-07-20T05:16:38.576Z</time>
      </trkpt>
      <trkpt lat="45.67112" lon="5.39567">
        <ele>255</ele>
        <time>2021-07-20T05:16:39.575Z</time>
      </trkpt>
      <trkpt lat="45.67113" lon="5.39572">
        <ele>255</ele>
        <time>2021-07-20T05:16:40.575Z</time>
      </trkpt>
      <trkpt lat="45.67114" lon="5.39577">
        <ele>255</ele>
        <time>2021-07-20T05:16:41.575Z</time>
      </trkpt>
      <trkpt lat="45.67115" lon="5.39581">
        <ele>255</ele>
        <time>2021-07-20T05:16:42.575Z</time>
      </trkpt>
      <trkpt lat="45.67117" lon="5.39586">
        <ele>256</ele>
        <time>2021-07-20T05:16:43.576Z</time>
      </trkpt>
      <trkpt lat="45.67118" lon="5.39591">
        <ele>256</ele>
        <time>2021-07-20T05:16:44.576Z</time>
      </trkpt>
      <trkpt lat="45.6712" lon="5.39597">
        <ele>257</ele>
        <time>2021-07-20T05:16:45.575Z</time>
      </trkpt>
      <trkpt lat="45.67121" lon="5.39602">
        <ele>257</ele>
        <time>2021-07-20T05:16:46.575Z</time>
      </trkpt>
      <trkpt lat="45.67122" lon="5.39606">
        <ele>256</ele>
        <time>2021-07-20T05:16:47.575Z</time>
      </trkpt>
      <trkpt lat="45.67124" lon="5.39611">
        <ele>256</ele>
        <time>2021-07-20T05:16:48.576Z</time>
      </trkpt>
      <trkpt lat="45.67125" lon="5.39615">
        <ele>255</ele>
        <time>2021-07-20T05:16:49.575Z</time>
      </trkpt>
      <trkpt lat="45.67126" lon="5.3962">
        <ele>254</ele>
        <time>2021-07-20T05:16:50.576Z</time>
      </trkpt>
      <trkpt lat="45.67128" lon="5.39625">
        <ele>253</ele>
        <time>2021-07-20T05:16:51.575Z</time>
      </trkpt>
      <trkpt lat="45.67129" lon="5.39629">
        <ele>252</ele>
        <time>2021-07-20T05:16:52.576Z</time>
      </trkpt>
      <trkpt lat="45.67131" lon="5.39634">
        <ele>252</ele>
        <time>2021-07-20T05:16:53.575Z</time>
      </trkpt>
      <trkpt lat="45.67132" lon="5.39639">
        <ele>252</ele>
        <time>2021-07-20T05:16:54.575Z</time>
      </trkpt>
      <trkpt lat="45.67134" lon="5.39644">
        <ele>253</ele>
        <time>2021-07-20T05:16:55.575Z</time>
      </trkpt>
      <trkpt lat="45.67135" lon="5.39649">
        <ele>253</ele>
        <time>2021-07-20T05:16:56.575Z</time>
      </trkpt>
      <trkpt lat="45.67138" lon="5.39654">
        <ele>254</ele>
        <time>2021-07-20T05:16:57.576Z</time>
      </trkpt>
      <trkpt lat="45.67139" lon="5.39659">
        <ele>254</ele>
        <time>2021-07-20T05:16:58.575Z</time>
      </trkpt>
      <trkpt lat="45.6714" lon="5.39665">
        <ele>255</ele>
        <time>2021-07-20T05:16:59.576Z</time>
      </trkpt>
      <trkpt lat="45.67142" lon="5.39671">
        <ele>255</ele>
        <time>2021-07-20T05:17:00.575Z</time>
      </trkpt>
      <trkpt lat="45.67143" lon="5.39676">
        <ele>256</ele>
        <time>2021-07-20T05:17:01.575Z</time>
      </trkpt>
      <trkpt lat="45.67144" lon="5.39681">
        <ele>256</ele>
        <time>2021-07-20T05:17:02.575Z</time>
      </trkpt>
      <trkpt lat="45.67144" lon="5.39686">
        <ele>257</ele>
        <time>2021-07-20T05:17:03.575Z</time>
      </trkpt>
      <trkpt lat="45.67144" lon="5.39692">
        <ele>257</ele>
        <time>2021-07-20T05:17:04.576Z</time>
      </trkpt>
      <trkpt lat="45.67144" lon="5.39697">
        <ele>258</ele>
        <time>2021-07-20T05:17:05.575Z</time>
      </trkpt>
      <trkpt lat="45.67144" lon="5.39702">
        <ele>258</ele>
        <time>2021-07-20T05:17:06.575Z</time>
      </trkpt>
      <trkpt lat="45.67143" lon="5.39707">
        <ele>258</ele>
        <time>2021-07-20T05:17:07.575Z</time>
      </trkpt>
      <trkpt lat="45.67142" lon="5.39711">
        <ele>259</ele>
        <time>2021-07-20T05:17:08.576Z</time>
      </trkpt>
      <trkpt lat="45.67142" lon="5.39716">
        <ele>260</ele>
        <time>2021-07-20T05:17:09.576Z</time>
      </trkpt>
      <trkpt lat="45.67141" lon="5.3972">
        <ele>261</ele>
        <time>2021-07-20T05:17:10.575Z</time>
      </trkpt>
      <trkpt lat="45.6714" lon="5.39726">
        <ele>261</ele>
        <time>2021-07-20T05:17:11.575Z</time>
      </trkpt>
      <trkpt lat="45.67139" lon="5.3973">
        <ele>262</ele>
        <time>2021-07-20T05:17:12.575Z</time>
      </trkpt>
      <trkpt lat="45.67137" lon="5.39735">
        <ele>263</ele>
        <time>2021-07-20T05:17:13.576Z</time>
      </trkpt>
      <trkpt lat="45.67136" lon="5.39739">
        <ele>263</ele>
        <time>2021-07-20T05:17:14.576Z</time>
      </trkpt>
      <trkpt lat="45.67135" lon="5.39742">
        <ele>263</ele>
        <time>2021-07-20T05:17:15.576Z</time>
      </trkpt>
      <trkpt lat="45.67134" lon="5.39748">
        <ele>263</ele>
        <time>2021-07-20T05:17:16.575Z</time>
      </trkpt>
      <trkpt lat="45.67133" lon="5.39752">
        <ele>263</ele>
        <time>2021-07-20T05:17:17.575Z</time>
      </trkpt>
      <trkpt lat="45.67132" lon="5.39756">
        <ele>263</ele>
        <time>2021-07-20T05:17:18.576Z</time>
      </trkpt>
      <trkpt lat="45.67132" lon="5.39761">
        <ele>263</ele>
        <time>2021-07-20T05:17:19.576Z</time>
      </trkpt>
      <trkpt lat="45.67132" lon="5.39765">
        <ele>263</ele>
        <time>2021-07-20T05:17:20.575Z</time>
      </trkpt>
      <trkpt lat="45.67132" lon="5.3977">
        <ele>264</ele>
        <time>2021-07-20T05:17:21.575Z</time>
      </trkpt>
      <trkpt lat="45.67132" lon="5.39774">
        <ele>264</ele>
        <time>2021-07-20T05:17:22.575Z</time>
      </trkpt>
      <trkpt lat="45.67132" lon="5.39778">
        <ele>264</ele>
        <time>2021-07-20T05:17:23.576Z</time>
      </trkpt>
      <trkpt lat="45.67132" lon="5.39783">
        <ele>264</ele>
        <time>2021-07-20T05:17:24.576Z</time>
      </trkpt>
      <trkpt lat="45.67132" lon="5.39787">
        <ele>264</ele>
        <time>2021-07-20T05:17:25.575Z</time>
      </trkpt>
      <trkpt lat="45.67133" lon="5.39792">
        <ele>265</ele>
        <time>2021-07-20T05:17:26.576Z</time>
      </trkpt>
      <trkpt lat="45.67134" lon="5.39796">
        <ele>266</ele>
        <time>2021-07-20T05:17:27.575Z</time>
      </trkpt>
      <trkpt lat="45.67134" lon="5.39801">
        <ele>267</ele>
        <time>2021-07-20T05:17:28.576Z</time>
      </trkpt>
      <trkpt lat="45.67135" lon="5.39806">
        <ele>267</ele>
        <time>2021-07-20T05:17:29.576Z</time>
      </trkpt>
      <trkpt lat="45.67136" lon="5.3981">
        <ele>268</ele>
        <time>2021-07-20T05:17:30.575Z</time>
      </trkpt>
      <trkpt lat="45.67137" lon="5.39814">
        <ele>268</ele>
        <time>2021-07-20T05:17:31.575Z</time>
      </trkpt>
      <trkpt lat="45.67138" lon="5.39818">
        <ele>268</ele>
        <time>2021-07-20T05:17:32.575Z</time>
      </trkpt>
      <trkpt lat="45.67139" lon="5.39821">
        <ele>269</ele>
        <time>2021-07-20T05:17:33.575Z</time>
      </trkpt>
      <trkpt lat="45.67141" lon="5.39826">
        <ele>269</ele>
        <time>2021-07-20T05:17:34.576Z</time>
      </trkpt>
      <trkpt lat="45.67142" lon="5.3983">
        <ele>269</ele>
        <time>2021-07-20T05:17:35.575Z</time>
      </trkpt>
      <trkpt lat="45.67144" lon="5.39834">
        <ele>269</ele>
        <time>2021-07-20T05:17:36.575Z</time>
      </trkpt>
      <trkpt lat="45.67145" lon="5.39838">
        <ele>269</ele>
        <time>2021-07-20T05:17:37.575Z</time>
      </trkpt>
      <trkpt lat="45.67146" lon="5.39842">
        <ele>269</ele>
        <time>2021-07-20T05:17:38.576Z</time>
      </trkpt>
      <trkpt lat="45.67148" lon="5.39847">
        <ele>269</ele>
        <time>2021-07-20T05:17:39.575Z</time>
      </trkpt>
      <trkpt lat="45.67149" lon="5.39851">
        <ele>270</ele>
        <time>2021-07-20T05:17:40.575Z</time>
      </trkpt>
      <trkpt lat="45.67151" lon="5.39855">
        <ele>270</ele>
        <time>2021-07-20T05:17:41.575Z</time>
      </trkpt>
      <trkpt lat="45.67152" lon="5.39859">
        <ele>271</ele>
        <time>2021-07-20T05:17:42.575Z</time>
      </trkpt>
      <trkpt lat="45.67153" lon="5.39864">
        <ele>272</ele>
        <time>2021-07-20T05:17:43.575Z</time>
      </trkpt>
      <trkpt lat="45.67155" lon="5.39868">
        <ele>272</ele>
        <time>2021-07-20T05:17:44.575Z</time>
      </trkpt>
      <trkpt lat="45.67156" lon="5.39872">
        <ele>273</ele>
        <time>2021-07-20T05:17:45.575Z</time>
      </trkpt>
      <trkpt lat="45.67157" lon="5.39876">
        <ele>273</ele>
        <time>2021-07-20T05:17:46.576Z</time>
      </trkpt>
      <trkpt lat="45.67159" lon="5.3988">
        <ele>274</ele>
        <time>2021-07-20T05:17:47.575Z</time>
      </trkpt>
      <trkpt lat="45.67161" lon="5.39886">
        <ele>274</ele>
        <time>2021-07-20T05:17:48.575Z</time>
      </trkpt>
      <trkpt lat="45.67162" lon="5.3989">
        <ele>275</ele>
        <time>2021-07-20T05:17:49.575Z</time>
      </trkpt>
      <trkpt lat="45.67164" lon="5.39895">
        <ele>275</ele>
        <time>2021-07-20T05:17:50.575Z</time>
      </trkpt>
      <trkpt lat="45.67166" lon="5.39899">
        <ele>276</ele>
        <time>2021-07-20T05:17:51.575Z</time>
      </trkpt>
      <trkpt lat="45.67167" lon="5.39903">
        <ele>276</ele>
        <time>2021-07-20T05:17:52.575Z</time>
      </trkpt>
      <trkpt lat="45.67169" lon="5.39907">
        <ele>276</ele>
        <time>2021-07-20T05:17:53.576Z</time>
      </trkpt>
      <trkpt lat="45.6717" lon="5.39912">
        <ele>276</ele>
        <time>2021-07-20T05:17:54.576Z</time>
      </trkpt>
      <trkpt lat="45.67172" lon="5.39917">
        <ele>276</ele>
        <time>2021-07-20T05:17:55.575Z</time>
      </trkpt>
      <trkpt lat="45.67173" lon="5.3992">
        <ele>276</ele>
        <time>2021-07-20T05:17:56.575Z</time>
      </trkpt>
      <trkpt lat="45.67175" lon="5.39925">
        <ele>276</ele>
        <time>2021-07-20T05:17:57.575Z</time>
      </trkpt>
      <trkpt lat="45.67177" lon="5.39929">
        <ele>276</ele>
        <time>2021-07-20T05:17:58.575Z</time>
      </trkpt>
      <trkpt lat="45.67178" lon="5.39933">
        <ele>276</ele>
        <time>2021-07-20T05:17:59.575Z</time>
      </trkpt>
      <trkpt lat="45.6718" lon="5.39937">
        <ele>276</ele>
        <time>2021-07-20T05:18:00.575Z</time>
      </trkpt>
      <trkpt lat="45.67182" lon="5.39941">
        <ele>276</ele>
        <time>2021-07-20T05:18:01.576Z</time>
      </trkpt>
      <trkpt lat="45.67184" lon="5.39945">
        <ele>276</ele>
        <time>2021-07-20T05:18:02.575Z</time>
      </trkpt>
      <trkpt lat="45.67186" lon="5.39949">
        <ele>277</ele>
        <time>2021-07-20T05:18:03.575Z</time>
      </trkpt>
      <trkpt lat="45.67188" lon="5.39952">
        <ele>277</ele>
        <time>2021-07-20T05:18:04.575Z</time>
      </trkpt>
      <trkpt lat="45.6719" lon="5.39956">
        <ele>278</ele>
        <time>2021-07-20T05:18:05.575Z</time>
      </trkpt>
      <trkpt lat="45.67192" lon="5.39959">
        <ele>278</ele>
        <time>2021-07-20T05:18:06.576Z</time>
      </trkpt>
      <trkpt lat="45.67195" lon="5.39963">
        <ele>279</ele>
        <time>2021-07-20T05:18:07.576Z</time>
      </trkpt>
      <trkpt lat="45.67197" lon="5.39967">
        <ele>279</ele>
        <time>2021-07-20T05:18:08.576Z</time>
      </trkpt>
      <trkpt lat="45.67199" lon="5.3997">
        <ele>280</ele>
        <time>2021-07-20T05:18:09.576Z</time>
      </trkpt>
      <trkpt lat="45.67202" lon="5.39974">
        <ele>280</ele>
        <time>2021-07-20T05:18:10.576Z</time>
      </trkpt>
      <trkpt lat="45.67204" lon="5.39977">
        <ele>280</ele>
        <time>2021-07-20T05:18:11.575Z</time>
      </trkpt>
      <trkpt lat="45.67206" lon="5.3998">
        <ele>280</ele>
        <time>2021-07-20T05:18:12.575Z</time>
      </trkpt>
      <trkpt lat="45.67208" lon="5.39983">
        <ele>281</ele>
        <time>2021-07-20T05:18:13.575Z</time>
      </trkpt>
      <trkpt lat="45.67211" lon="5.39986">
        <ele>281</ele>
        <time>2021-07-20T05:18:14.575Z</time>
      </trkpt>
      <trkpt lat="45.67213" lon="5.3999">
        <ele>282</ele>
        <time>2021-07-20T05:18:15.576Z</time>
      </trkpt>
      <trkpt lat="45.67216" lon="5.39993">
        <ele>282</ele>
        <time>2021-07-20T05:18:16.576Z</time>
      </trkpt>
      <trkpt lat="45.67218" lon="5.39996">
        <ele>283</ele>
        <time>2021-07-20T05:18:17.575Z</time>
      </trkpt>
      <trkpt lat="45.6722" lon="5.39999">
        <ele>283</ele>
        <time>2021-07-20T05:18:18.576Z</time>
      </trkpt>
      <trkpt lat="45.67222" lon="5.40002">
        <ele>283</ele>
        <time>2021-07-20T05:18:19.575Z</time>
      </trkpt>
      <trkpt lat="45.67225" lon="5.40006">
        <ele>283</ele>
        <time>2021-07-20T05:18:20.575Z</time>
      </trkpt>
      <trkpt lat="45.67227" lon="5.40009">
        <ele>283</ele>
        <time>2021-07-20T05:18:21.575Z</time>
      </trkpt>
      <trkpt lat="45.6723" lon="5.40012">
        <ele>284</ele>
        <time>2021-07-20T05:18:22.575Z</time>
      </trkpt>
      <trkpt lat="45.67233" lon="5.40016">
        <ele>284</ele>
        <time>2021-07-20T05:18:23.575Z</time>
      </trkpt>
      <trkpt lat="45.67235" lon="5.40019">
        <ele>284</ele>
        <time>2021-07-20T05:18:24.575Z</time>
      </trkpt>
      <trkpt lat="45.67238" lon="5.40023">
        <ele>284</ele>
        <time>2021-07-20T05:18:25.575Z</time>
      </trkpt>
      <trkpt lat="45.67241" lon="5.40026">
        <ele>285</ele>
        <time>2021-07-20T05:18:26.575Z</time>
      </trkpt>
      <trkpt lat="45.67243" lon="5.4003">
        <ele>285</ele>
        <time>2021-07-20T05:18:27.576Z</time>
      </trkpt>
      <trkpt lat="45.67245" lon="5.40033">
        <ele>285</ele>
        <time>2021-07-20T05:18:28.575Z</time>
      </trkpt>
      <trkpt lat="45.67248" lon="5.40038">
        <ele>285</ele>
        <time>2021-07-20T05:18:29.575Z</time>
      </trkpt>
      <trkpt lat="45.6725" lon="5.40041">
        <ele>285</ele>
        <time>2021-07-20T05:18:30.575Z</time>
      </trkpt>
      <trkpt lat="45.67252" lon="5.40045">
        <ele>284</ele>
        <time>2021-07-20T05:18:31.575Z</time>
      </trkpt>
      <trkpt lat="45.67255" lon="5.40049">
        <ele>284</ele>
        <time>2021-07-20T05:18:32.575Z</time>
      </trkpt>
      <trkpt lat="45.67257" lon="5.40053">
        <ele>284</ele>
        <time>2021-07-20T05:18:33.576Z</time>
      </trkpt>
      <trkpt lat="45.6726" lon="5.40058">
        <ele>284</ele>
        <time>2021-07-20T05:18:34.575Z</time>
      </trkpt>
      <trkpt lat="45.67262" lon="5.40062">
        <ele>284</ele>
        <time>2021-07-20T05:18:35.575Z</time>
      </trkpt>
      <trkpt lat="45.67265" lon="5.40066">
        <ele>284</ele>
        <time>2021-07-20T05:18:36.575Z</time>
      </trkpt>
      <trkpt lat="45.67267" lon="5.4007">
        <ele>284</ele>
        <time>2021-07-20T05:18:37.576Z</time>
      </trkpt>
      <trkpt lat="45.67269" lon="5.40074">
        <ele>284</ele>
        <time>2021-07-20T05:18:38.576Z</time>
      </trkpt>
      <trkpt lat="45.67272" lon="5.40078">
        <ele>283</ele>
        <time>2021-07-20T05:18:39.575Z</time>
      </trkpt>
      <trkpt lat="45.67275" lon="5.40083">
        <ele>284</ele>
        <time>2021-07-20T05:18:40.575Z</time>
      </trkpt>
      <trkpt lat="45.67278" lon="5.40088">
        <ele>284</ele>
        <time>2021-07-20T05:18:41.576Z</time>
      </trkpt>
      <trkpt lat="45.6728" lon="5.40092">
        <ele>285</ele>
        <time>2021-07-20T05:18:42.576Z</time>
      </trkpt>
      <trkpt lat="45.67282" lon="5.40097">
        <ele>286</ele>
        <time>2021-07-20T05:18:43.576Z</time>
      </trkpt>
      <trkpt lat="45.67284" lon="5.40101">
        <ele>286</ele>
        <time>2021-07-20T05:18:44.576Z</time>
      </trkpt>
      <trkpt lat="45.67286" lon="5.40106">
        <ele>287</ele>
        <time>2021-07-20T05:18:45.575Z</time>
      </trkpt>
      <trkpt lat="45.67287" lon="5.4011">
        <ele>287</ele>
        <time>2021-07-20T05:18:46.575Z</time>
      </trkpt>
      <trkpt lat="45.67288" lon="5.40115">
        <ele>287</ele>
        <time>2021-07-20T05:18:47.576Z</time>
      </trkpt>
      <trkpt lat="45.67289" lon="5.40121">
        <ele>288</ele>
        <time>2021-07-20T05:18:48.576Z</time>
      </trkpt>
      <trkpt lat="45.6729" lon="5.40126">
        <ele>288</ele>
        <time>2021-07-20T05:18:49.576Z</time>
      </trkpt>
      <trkpt lat="45.6729" lon="5.40132">
        <ele>288</ele>
        <time>2021-07-20T05:18:50.576Z</time>
      </trkpt>
      <trkpt lat="45.6729" lon="5.40137">
        <ele>288</ele>
        <time>2021-07-20T05:18:51.576Z</time>
      </trkpt>
      <trkpt lat="45.6729" lon="5.40142">
        <ele>288</ele>
        <time>2021-07-20T05:18:52.576Z</time>
      </trkpt>
      <trkpt lat="45.67289" lon="5.40148">
        <ele>288</ele>
        <time>2021-07-20T05:18:53.576Z</time>
      </trkpt>
      <trkpt lat="45.67289" lon="5.40153">
        <ele>288</ele>
        <time>2021-07-20T05:18:54.576Z</time>
      </trkpt>
      <trkpt lat="45.67289" lon="5.40158">
        <ele>288</ele>
        <time>2021-07-20T05:18:55.575Z</time>
      </trkpt>
      <trkpt lat="45.67288" lon="5.40163">
        <ele>288</ele>
        <time>2021-07-20T05:18:56.576Z</time>
      </trkpt>
      <trkpt lat="45.67288" lon="5.40169">
        <ele>288</ele>
        <time>2021-07-20T05:18:57.576Z</time>
      </trkpt>
      <trkpt lat="45.67287" lon="5.40174">
        <ele>288</ele>
        <time>2021-07-20T05:18:58.576Z</time>
      </trkpt>
      <trkpt lat="45.67287" lon="5.40179">
        <ele>288</ele>
        <time>2021-07-20T05:18:59.576Z</time>
      </trkpt>
      <trkpt lat="45.67286" lon="5.40184">
        <ele>289</ele>
        <time>2021-07-20T05:19:00.576Z</time>
      </trkpt>
      <trkpt lat="45.67285" lon="5.4019">
        <ele>289</ele>
        <time>2021-07-20T05:19:01.576Z</time>
      </trkpt>
      <trkpt lat="45.67285" lon="5.40195">
        <ele>290</ele>
        <time>2021-07-20T05:19:02.576Z</time>
      </trkpt>
      <trkpt lat="45.67284" lon="5.402">
        <ele>290</ele>
        <time>2021-07-20T05:19:03.575Z</time>
      </trkpt>
      <trkpt lat="45.67283" lon="5.40205">
        <ele>289</ele>
        <time>2021-07-20T05:19:04.576Z</time>
      </trkpt>
      <trkpt lat="45.67283" lon="5.4021">
        <ele>290</ele>
        <time>2021-07-20T05:19:05.575Z</time>
      </trkpt>
      <trkpt lat="45.67282" lon="5.40217">
        <ele>291</ele>
        <time>2021-07-20T05:19:06.576Z</time>
      </trkpt>
      <trkpt lat="45.67282" lon="5.40222">
        <ele>292</ele>
        <time>2021-07-20T05:19:07.576Z</time>
      </trkpt>
      <trkpt lat="45.67282" lon="5.40228">
        <ele>293</ele>
        <time>2021-07-20T05:19:08.576Z</time>
      </trkpt>
      <trkpt lat="45.67281" lon="5.40232">
        <ele>293</ele>
        <time>2021-07-20T05:19:09.575Z</time>
      </trkpt>
      <trkpt lat="45.67281" lon="5.40238">
        <ele>293</ele>
        <time>2021-07-20T05:19:10.576Z</time>
      </trkpt>
      <trkpt lat="45.67281" lon="5.40242">
        <ele>293</ele>
        <time>2021-07-20T05:19:11.576Z</time>
      </trkpt>
      <trkpt lat="45.67281" lon="5.40248">
        <ele>294</ele>
        <time>2021-07-20T05:19:12.576Z</time>
      </trkpt>
      <trkpt lat="45.6728" lon="5.40253">
        <ele>294</ele>
        <time>2021-07-20T05:19:13.576Z</time>
      </trkpt>
      <trkpt lat="45.6728" lon="5.40258">
        <ele>294</ele>
        <time>2021-07-20T05:19:14.575Z</time>
      </trkpt>
      <trkpt lat="45.6728" lon="5.40263">
        <ele>294</ele>
        <time>2021-07-20T05:19:15.576Z</time>
      </trkpt>
      <trkpt lat="45.67279" lon="5.4027">
        <ele>294</ele>
        <time>2021-07-20T05:19:16.576Z</time>
      </trkpt>
      <trkpt lat="45.67279" lon="5.40275">
        <ele>295</ele>
        <time>2021-07-20T05:19:17.576Z</time>
      </trkpt>
      <trkpt lat="45.67278" lon="5.40279">
        <ele>294</ele>
        <time>2021-07-20T05:19:18.576Z</time>
      </trkpt>
      <trkpt lat="45.67278" lon="5.40284">
        <ele>294</ele>
        <time>2021-07-20T05:19:19.576Z</time>
      </trkpt>
      <trkpt lat="45.67277" lon="5.4029">
        <ele>294</ele>
        <time>2021-07-20T05:19:20.576Z</time>
      </trkpt>
      <trkpt lat="45.67276" lon="5.40295">
        <ele>294</ele>
        <time>2021-07-20T05:19:21.576Z</time>
      </trkpt>
      <trkpt lat="45.67276" lon="5.403">
        <ele>294</ele>
        <time>2021-07-20T05:19:22.576Z</time>
      </trkpt>
      <trkpt lat="45.67275" lon="5.40305">
        <ele>294</ele>
        <time>2021-07-20T05:19:23.576Z</time>
      </trkpt>
      <trkpt lat="45.67275" lon="5.4031">
        <ele>294</ele>
        <time>2021-07-20T05:19:24.576Z</time>
      </trkpt>
      <trkpt lat="45.67275" lon="5.40315">
        <ele>295</ele>
        <time>2021-07-20T05:19:25.576Z</time>
      </trkpt>
      <trkpt lat="45.67274" lon="5.4032">
        <ele>295</ele>
        <time>2021-07-20T05:19:26.576Z</time>
      </trkpt>
      <trkpt lat="45.67274" lon="5.40325">
        <ele>295</ele>
        <time>2021-07-20T05:19:27.575Z</time>
      </trkpt>
      <trkpt lat="45.67273" lon="5.4033">
        <ele>296</ele>
        <time>2021-07-20T05:19:28.576Z</time>
      </trkpt>
      <trkpt lat="45.67273" lon="5.40335">
        <ele>296</ele>
        <time>2021-07-20T05:19:29.576Z</time>
      </trkpt>
      <trkpt lat="45.67273" lon="5.4034">
        <ele>296</ele>
        <time>2021-07-20T05:19:30.575Z</time>
      </trkpt>
      <trkpt lat="45.67273" lon="5.40345">
        <ele>296</ele>
        <time>2021-07-20T05:19:31.575Z</time>
      </trkpt>
      <trkpt lat="45.67272" lon="5.4035">
        <ele>297</ele>
        <time>2021-07-20T05:19:32.575Z</time>
      </trkpt>
      <trkpt lat="45.67272" lon="5.40355">
        <ele>297</ele>
        <time>2021-07-20T05:19:33.575Z</time>
      </trkpt>
      <trkpt lat="45.67272" lon="5.4036">
        <ele>297</ele>
        <time>2021-07-20T05:19:34.575Z</time>
      </trkpt>
      <trkpt lat="45.67272" lon="5.40365">
        <ele>297</ele>
        <time>2021-07-20T05:19:35.576Z</time>
      </trkpt>
      <trkpt lat="45.67272" lon="5.4037">
        <ele>297</ele>
        <time>2021-07-20T05:19:36.576Z</time>
      </trkpt>
      <trkpt lat="45.67272" lon="5.40375">
        <ele>297</ele>
        <time>2021-07-20T05:19:37.575Z</time>
      </trkpt>
      <trkpt lat="45.67272" lon="5.4038">
        <ele>298</ele>
        <time>2021-07-20T05:19:38.575Z</time>
      </trkpt>
      <trkpt lat="45.67271" lon="5.40385">
        <ele>298</ele>
        <time>2021-07-20T05:19:39.575Z</time>
      </trkpt>
      <trkpt lat="45.67271" lon="5.4039">
        <ele>298</ele>
        <time>2021-07-20T05:19:40.576Z</time>
      </trkpt>
      <trkpt lat="45.67271" lon="5.40395">
        <ele>298</ele>
        <time>2021-07-20T05:19:41.576Z</time>
      </trkpt>
      <trkpt lat="45.67271" lon="5.404">
        <ele>298</ele>
        <time>2021-07-20T05:19:42.575Z</time>
      </trkpt>
      <trkpt lat="45.67272" lon="5.40404">
        <ele>299</ele>
        <time>2021-07-20T05:19:43.576Z</time>
      </trkpt>
      <trkpt lat="45.67272" lon="5.40409">
        <ele>299</ele>
        <time>2021-07-20T05:19:44.576Z</time>
      </trkpt>
      <trkpt lat="45.67272" lon="5.40414">
        <ele>300</ele>
        <time>2021-07-20T05:19:45.575Z</time>
      </trkpt>
      <trkpt lat="45.67272" lon="5.40419">
        <ele>300</ele>
        <time>2021-07-20T05:19:46.575Z</time>
      </trkpt>
      <trkpt lat="45.67272" lon="5.40423">
        <ele>301</ele>
        <time>2021-07-20T05:19:47.576Z</time>
      </trkpt>
      <trkpt lat="45.67272" lon="5.40428">
        <ele>301</ele>
        <time>2021-07-20T05:19:48.576Z</time>
      </trkpt>
      <trkpt lat="45.67271" lon="5.40433">
        <ele>301</ele>
        <time>2021-07-20T05:19:49.576Z</time>
      </trkpt>
      <trkpt lat="45.67271" lon="5.40438">
        <ele>301</ele>
        <time>2021-07-20T05:19:50.575Z</time>
      </trkpt>
      <trkpt lat="45.6727" lon="5.40442">
        <ele>301</ele>
        <time>2021-07-20T05:19:51.575Z</time>
      </trkpt>
      <trkpt lat="45.6727" lon="5.40447">
        <ele>301</ele>
        <time>2021-07-20T05:19:52.576Z</time>
      </trkpt>
      <trkpt lat="45.6727" lon="5.40452">
        <ele>301</ele>
        <time>2021-07-20T05:19:53.576Z</time>
      </trkpt>
      <trkpt lat="45.67269" lon="5.40457">
        <ele>301</ele>
        <time>2021-07-20T05:19:54.576Z</time>
      </trkpt>
      <trkpt lat="45.67269" lon="5.40462">
        <ele>301</ele>
        <time>2021-07-20T05:19:55.576Z</time>
      </trkpt>
      <trkpt lat="45.67269" lon="5.40467">
        <ele>302</ele>
        <time>2021-07-20T05:19:56.575Z</time>
      </trkpt>
      <trkpt lat="45.67268" lon="5.40471">
        <ele>302</ele>
        <time>2021-07-20T05:19:57.575Z</time>
      </trkpt>
      <trkpt lat="45.67268" lon="5.40475">
        <ele>303</ele>
        <time>2021-07-20T05:19:58.575Z</time>
      </trkpt>
      <trkpt lat="45.67267" lon="5.4048">
        <ele>303</ele>
        <time>2021-07-20T05:19:59.575Z</time>
      </trkpt>
      <trkpt lat="45.67266" lon="5.40485">
        <ele>303</ele>
        <time>2021-07-20T05:20:00.575Z</time>
      </trkpt>
      <trkpt lat="45.67265" lon="5.40489">
        <ele>303</ele>
        <time>2021-07-20T05:20:01.575Z</time>
      </trkpt>
      <trkpt lat="45.67263" lon="5.40494">
        <ele>304</ele>
        <time>2021-07-20T05:20:02.575Z</time>
      </trkpt>
      <trkpt lat="45.67262" lon="5.40499">
        <ele>304</ele>
        <time>2021-07-20T05:20:03.575Z</time>
      </trkpt>
      <trkpt lat="45.6726" lon="5.40503">
        <ele>304</ele>
        <time>2021-07-20T05:20:04.575Z</time>
      </trkpt>
      <trkpt lat="45.67259" lon="5.40508">
        <ele>304</ele>
        <time>2021-07-20T05:20:05.575Z</time>
      </trkpt>
      <trkpt lat="45.67258" lon="5.40512">
        <ele>304</ele>
        <time>2021-07-20T05:20:06.576Z</time>
      </trkpt>
      <trkpt lat="45.67257" lon="5.40517">
        <ele>305</ele>
        <time>2021-07-20T05:20:07.576Z</time>
      </trkpt>
      <trkpt lat="45.67255" lon="5.40521">
        <ele>305</ele>
        <time>2021-07-20T05:20:08.576Z</time>
      </trkpt>
      <trkpt lat="45.67254" lon="5.40526">
        <ele>305</ele>
        <time>2021-07-20T05:20:09.576Z</time>
      </trkpt>
      <trkpt lat="45.67253" lon="5.4053">
        <ele>305</ele>
        <time>2021-07-20T05:20:10.576Z</time>
      </trkpt>
      <trkpt lat="45.67251" lon="5.40534">
        <ele>305</ele>
        <time>2021-07-20T05:20:11.576Z</time>
      </trkpt>
      <trkpt lat="45.6725" lon="5.40539">
        <ele>305</ele>
        <time>2021-07-20T05:20:12.576Z</time>
      </trkpt>
      <trkpt lat="45.67249" lon="5.40543">
        <ele>305</ele>
        <time>2021-07-20T05:20:13.576Z</time>
      </trkpt>
      <trkpt lat="45.67247" lon="5.40548">
        <ele>305</ele>
        <time>2021-07-20T05:20:14.576Z</time>
      </trkpt>
      <trkpt lat="45.67246" lon="5.40552">
        <ele>306</ele>
        <time>2021-07-20T05:20:15.576Z</time>
      </trkpt>
      <trkpt lat="45.67244" lon="5.40557">
        <ele>306</ele>
        <time>2021-07-20T05:20:16.576Z</time>
      </trkpt>
      <trkpt lat="45.67243" lon="5.40561">
        <ele>306</ele>
        <time>2021-07-20T05:20:17.575Z</time>
      </trkpt>
      <trkpt lat="45.67241" lon="5.40565">
        <ele>306</ele>
        <time>2021-07-20T05:20:18.575Z</time>
      </trkpt>
      <trkpt lat="45.6724" lon="5.4057">
        <ele>306</ele>
        <time>2021-07-20T05:20:19.576Z</time>
      </trkpt>
      <trkpt lat="45.67238" lon="5.40574">
        <ele>306</ele>
        <time>2021-07-20T05:20:20.575Z</time>
      </trkpt>
      <trkpt lat="45.67237" lon="5.40579">
        <ele>306</ele>
        <time>2021-07-20T05:20:21.576Z</time>
      </trkpt>
      <trkpt lat="45.67236" lon="5.40584">
        <ele>307</ele>
        <time>2021-07-20T05:20:22.575Z</time>
      </trkpt>
      <trkpt lat="45.67235" lon="5.40588">
        <ele>307</ele>
        <time>2021-07-20T05:20:23.576Z</time>
      </trkpt>
      <trkpt lat="45.67234" lon="5.40593">
        <ele>307</ele>
        <time>2021-07-20T05:20:24.575Z</time>
      </trkpt>
      <trkpt lat="45.67233" lon="5.40598">
        <ele>308</ele>
        <time>2021-07-20T05:20:25.576Z</time>
      </trkpt>
      <trkpt lat="45.67232" lon="5.40602">
        <ele>308</ele>
        <time>2021-07-20T05:20:26.576Z</time>
      </trkpt>
      <trkpt lat="45.67231" lon="5.40607">
        <ele>308</ele>
        <time>2021-07-20T05:20:27.575Z</time>
      </trkpt>
      <trkpt lat="45.6723" lon="5.40611">
        <ele>309</ele>
        <time>2021-07-20T05:20:28.575Z</time>
      </trkpt>
      <trkpt lat="45.67229" lon="5.40616">
        <ele>309</ele>
        <time>2021-07-20T05:20:29.576Z</time>
      </trkpt>
      <trkpt lat="45.67228" lon="5.4062">
        <ele>309</ele>
        <time>2021-07-20T05:20:30.576Z</time>
      </trkpt>
      <trkpt lat="45.67227" lon="5.40625">
        <ele>310</ele>
        <time>2021-07-20T05:20:31.575Z</time>
      </trkpt>
      <trkpt lat="45.67226" lon="5.40629">
        <ele>310</ele>
        <time>2021-07-20T05:20:32.575Z</time>
      </trkpt>
      <trkpt lat="45.67225" lon="5.40634">
        <ele>310</ele>
        <time>2021-07-20T05:20:33.575Z</time>
      </trkpt>
      <trkpt lat="45.67224" lon="5.40639">
        <ele>310</ele>
        <time>2021-07-20T05:20:34.575Z</time>
      </trkpt>
      <trkpt lat="45.67223" lon="5.40644">
        <ele>311</ele>
        <time>2021-07-20T05:20:35.576Z</time>
      </trkpt>
      <trkpt lat="45.67222" lon="5.40648">
        <ele>311</ele>
        <time>2021-07-20T05:20:36.575Z</time>
      </trkpt>
      <trkpt lat="45.67221" lon="5.40653">
        <ele>312</ele>
        <time>2021-07-20T05:20:37.576Z</time>
      </trkpt>
      <trkpt lat="45.6722" lon="5.40658">
        <ele>312</ele>
        <time>2021-07-20T05:20:38.576Z</time>
      </trkpt>
      <trkpt lat="45.67219" lon="5.40663">
        <ele>312</ele>
        <time>2021-07-20T05:20:39.576Z</time>
      </trkpt>
      <trkpt lat="45.67218" lon="5.40668">
        <ele>312</ele>
        <time>2021-07-20T05:20:40.576Z</time>
      </trkpt>
      <trkpt lat="45.67217" lon="5.40673">
        <ele>313</ele>
        <time>2021-07-20T05:20:41.576Z</time>
      </trkpt>
      <trkpt lat="45.67216" lon="5.40677">
        <ele>313</ele>
        <time>2021-07-20T05:20:42.576Z</time>
      </trkpt>
      <trkpt lat="45.67215" lon="5.40682">
        <ele>314</ele>
        <time>2021-07-20T05:20:43.576Z</time>
      </trkpt>
      <trkpt lat="45.67214" lon="5.40687">
        <ele>314</ele>
        <time>2021-07-20T05:20:44.576Z</time>
      </trkpt>
      <trkpt lat="45.67213" lon="5.40692">
        <ele>314</ele>
        <time>2021-07-20T05:20:45.575Z</time>
      </trkpt>
      <trkpt lat="45.67212" lon="5.40697">
        <ele>314</ele>
        <time>2021-07-20T05:20:46.576Z</time>
      </trkpt>
      <trkpt lat="45.6721" lon="5.40702">
        <ele>314</ele>
        <time>2021-07-20T05:20:47.575Z</time>
      </trkpt>
      <trkpt lat="45.67209" lon="5.40707">
        <ele>314</ele>
        <time>2021-07-20T05:20:48.575Z</time>
      </trkpt>
      <trkpt lat="45.67207" lon="5.40712">
        <ele>314</ele>
        <time>2021-07-20T05:20:49.575Z</time>
      </trkpt>
      <trkpt lat="45.67206" lon="5.40718">
        <ele>314</ele>
        <time>2021-07-20T05:20:50.575Z</time>
      </trkpt>
      <trkpt lat="45.67204" lon="5.40723">
        <ele>314</ele>
        <time>2021-07-20T05:20:51.576Z</time>
      </trkpt>
      <trkpt lat="45.67203" lon="5.40728">
        <ele>314</ele>
        <time>2021-07-20T05:20:52.576Z</time>
      </trkpt>
      <trkpt lat="45.67202" lon="5.40734">
        <ele>315</ele>
        <time>2021-07-20T05:20:53.576Z</time>
      </trkpt>
      <trkpt lat="45.67201" lon="5.4074">
        <ele>315</ele>
        <time>2021-07-20T05:20:54.575Z</time>
      </trkpt>
      <trkpt lat="45.672" lon="5.40746">
        <ele>316</ele>
        <time>2021-07-20T05:20:55.576Z</time>
      </trkpt>
      <trkpt lat="45.67199" lon="5.40752">
        <ele>316</ele>
        <time>2021-07-20T05:20:56.576Z</time>
      </trkpt>
      <trkpt lat="45.67198" lon="5.40758">
        <ele>316</ele>
        <time>2021-07-20T05:20:57.576Z</time>
      </trkpt>
      <trkpt lat="45.67197" lon="5.40763">
        <ele>316</ele>
        <time>2021-07-20T05:20:58.576Z</time>
      </trkpt>
      <trkpt lat="45.67196" lon="5.40769">
        <ele>316</ele>
        <time>2021-07-20T05:20:59.576Z</time>
      </trkpt>
      <trkpt lat="45.67195" lon="5.40775">
        <ele>316</ele>
        <time>2021-07-20T05:21:00.575Z</time>
      </trkpt>
      <trkpt lat="45.67194" lon="5.40781">
        <ele>316</ele>
        <time>2021-07-20T05:21:01.576Z</time>
      </trkpt>
      <trkpt lat="45.67193" lon="5.40787">
        <ele>317</ele>
        <time>2021-07-20T05:21:02.576Z</time>
      </trkpt>
      <trkpt lat="45.67192" lon="5.40793">
        <ele>316</ele>
        <time>2021-07-20T05:21:03.576Z</time>
      </trkpt>
      <trkpt lat="45.67191" lon="5.40799">
        <ele>316</ele>
        <time>2021-07-20T05:21:04.576Z</time>
      </trkpt>
      <trkpt lat="45.6719" lon="5.40805">
        <ele>316</ele>
        <time>2021-07-20T05:21:05.575Z</time>
      </trkpt>
      <trkpt lat="45.67189" lon="5.40812">
        <ele>316</ele>
        <time>2021-07-20T05:21:06.575Z</time>
      </trkpt>
      <trkpt lat="45.67188" lon="5.40818">
        <ele>316</ele>
        <time>2021-07-20T05:21:07.575Z</time>
      </trkpt>
      <trkpt lat="45.67187" lon="5.40825">
        <ele>317</ele>
        <time>2021-07-20T05:21:08.575Z</time>
      </trkpt>
      <trkpt lat="45.67186" lon="5.40831">
        <ele>317</ele>
        <time>2021-07-20T05:21:09.576Z</time>
      </trkpt>
      <trkpt lat="45.67185" lon="5.40837">
        <ele>317</ele>
        <time>2021-07-20T05:21:10.576Z</time>
      </trkpt>
      <trkpt lat="45.67184" lon="5.40843">
        <ele>317</ele>
        <time>2021-07-20T05:21:11.576Z</time>
      </trkpt>
      <trkpt lat="45.67183" lon="5.40849">
        <ele>317</ele>
        <time>2021-07-20T05:21:12.576Z</time>
      </trkpt>
      <trkpt lat="45.67183" lon="5.40855">
        <ele>317</ele>
        <time>2021-07-20T05:21:13.576Z</time>
      </trkpt>
      <trkpt lat="45.67182" lon="5.40861">
        <ele>317</ele>
        <time>2021-07-20T05:21:14.576Z</time>
      </trkpt>
      <trkpt lat="45.67182" lon="5.40868">
        <ele>318</ele>
        <time>2021-07-20T05:21:15.575Z</time>
      </trkpt>
      <trkpt lat="45.67181" lon="5.40874">
        <ele>318</ele>
        <time>2021-07-20T05:21:16.576Z</time>
      </trkpt>
      <trkpt lat="45.6718" lon="5.40881">
        <ele>318</ele>
        <time>2021-07-20T05:21:17.576Z</time>
      </trkpt>
      <trkpt lat="45.6718" lon="5.40888">
        <ele>318</ele>
        <time>2021-07-20T05:21:18.576Z</time>
      </trkpt>
      <trkpt lat="45.67179" lon="5.40895">
        <ele>319</ele>
        <time>2021-07-20T05:21:19.576Z</time>
      </trkpt>
      <trkpt lat="45.67178" lon="5.40902">
        <ele>319</ele>
        <time>2021-07-20T05:21:20.576Z</time>
      </trkpt>
      <trkpt lat="45.67178" lon="5.40909">
        <ele>319</ele>
        <time>2021-07-20T05:21:21.576Z</time>
      </trkpt>
      <trkpt lat="45.67177" lon="5.40916">
        <ele>319</ele>
        <time>2021-07-20T05:21:22.576Z</time>
      </trkpt>
      <trkpt lat="45.67177" lon="5.40923">
        <ele>319</ele>
        <time>2021-07-20T05:21:23.575Z</time>
      </trkpt>
      <trkpt lat="45.67176" lon="5.4093">
        <ele>319</ele>
        <time>2021-07-20T05:21:24.576Z</time>
      </trkpt>
      <trkpt lat="45.67175" lon="5.40937">
        <ele>318</ele>
        <time>2021-07-20T05:21:25.576Z</time>
      </trkpt>
      <trkpt lat="45.67174" lon="5.40944">
        <ele>318</ele>
        <time>2021-07-20T05:21:26.575Z</time>
      </trkpt>
      <trkpt lat="45.67174" lon="5.40951">
        <ele>319</ele>
        <time>2021-07-20T05:21:27.575Z</time>
      </trkpt>
      <trkpt lat="45.67173" lon="5.40958">
        <ele>318</ele>
        <time>2021-07-20T05:21:28.576Z</time>
      </trkpt>
      <trkpt lat="45.67172" lon="5.40965">
        <ele>318</ele>
        <time>2021-07-20T05:21:29.576Z</time>
      </trkpt>
      <trkpt lat="45.67172" lon="5.40972">
        <ele>318</ele>
        <time>2021-07-20T05:21:30.575Z</time>
      </trkpt>
      <trkpt lat="45.67171" lon="5.40979">
        <ele>318</ele>
        <time>2021-07-20T05:21:31.575Z</time>
      </trkpt>
      <trkpt lat="45.67171" lon="5.40986">
        <ele>318</ele>
        <time>2021-07-20T05:21:32.575Z</time>
      </trkpt>
      <trkpt lat="45.6717" lon="5.40993">
        <ele>318</ele>
        <time>2021-07-20T05:21:33.575Z</time>
      </trkpt>
      <trkpt lat="45.6717" lon="5.41">
        <ele>318</ele>
        <time>2021-07-20T05:21:34.576Z</time>
      </trkpt>
      <trkpt lat="45.6717" lon="5.41007">
        <ele>318</ele>
        <time>2021-07-20T05:21:35.576Z</time>
      </trkpt>
      <trkpt lat="45.6717" lon="5.41015">
        <ele>319</ele>
        <time>2021-07-20T05:21:36.575Z</time>
      </trkpt>
      <trkpt lat="45.6717" lon="5.41022">
        <ele>319</ele>
        <time>2021-07-20T05:21:37.576Z</time>
      </trkpt>
      <trkpt lat="45.6717" lon="5.41029">
        <ele>319</ele>
        <time>2021-07-20T05:21:38.575Z</time>
      </trkpt>
      <trkpt lat="45.6717" lon="5.41036">
        <ele>319</ele>
        <time>2021-07-20T05:21:39.576Z</time>
      </trkpt>
      <trkpt lat="45.67169" lon="5.41043">
        <ele>319</ele>
        <time>2021-07-20T05:21:40.576Z</time>
      </trkpt>
      <trkpt lat="45.67169" lon="5.4105">
        <ele>320</ele>
        <time>2021-07-20T05:21:41.576Z</time>
      </trkpt>
      <trkpt lat="45.67169" lon="5.41057">
        <ele>320</ele>
        <time>2021-07-20T05:21:42.576Z</time>
      </trkpt>
      <trkpt lat="45.67168" lon="5.41064">
        <ele>320</ele>
        <time>2021-07-20T05:21:43.576Z</time>
      </trkpt>
      <trkpt lat="45.67168" lon="5.41071">
        <ele>321</ele>
        <time>2021-07-20T05:21:44.576Z</time>
      </trkpt>
      <trkpt lat="45.67167" lon="5.41078">
        <ele>321</ele>
        <time>2021-07-20T05:21:45.576Z</time>
      </trkpt>
      <trkpt lat="45.67167" lon="5.41084">
        <ele>321</ele>
        <time>2021-07-20T05:21:46.575Z</time>
      </trkpt>
      <trkpt lat="45.67167" lon="5.4109">
        <ele>321</ele>
        <time>2021-07-20T05:21:47.576Z</time>
      </trkpt>
      <trkpt lat="45.67167" lon="5.41097">
        <ele>321</ele>
        <time>2021-07-20T05:21:48.576Z</time>
      </trkpt>
      <trkpt lat="45.67167" lon="5.41103">
        <ele>321</ele>
        <time>2021-07-20T05:21:49.576Z</time>
      </trkpt>
      <trkpt lat="45.67167" lon="5.4111">
        <ele>322</ele>
        <time>2021-07-20T05:21:50.575Z</time>
      </trkpt>
      <trkpt lat="45.67166" lon="5.41116">
        <ele>322</ele>
        <time>2021-07-20T05:21:51.575Z</time>
      </trkpt>
      <trkpt lat="45.67165" lon="5.41123">
        <ele>322</ele>
        <time>2021-07-20T05:21:52.575Z</time>
      </trkpt>
      <trkpt lat="45.67163" lon="5.4113">
        <ele>322</ele>
        <time>2021-07-20T05:21:53.575Z</time>
      </trkpt>
      <trkpt lat="45.67162" lon="5.41138">
        <ele>322</ele>
        <time>2021-07-20T05:21:54.575Z</time>
      </trkpt>
      <trkpt lat="45.67161" lon="5.41145">
        <ele>322</ele>
        <time>2021-07-20T05:21:55.576Z</time>
      </trkpt>
      <trkpt lat="45.6716" lon="5.41152">
        <ele>322</ele>
        <time>2021-07-20T05:21:56.576Z</time>
      </trkpt>
      <trkpt lat="45.67158" lon="5.4116">
        <ele>322</ele>
        <time>2021-07-20T05:21:57.576Z</time>
      </trkpt>
      <trkpt lat="45.67157" lon="5.41168">
        <ele>322</ele>
        <time>2021-07-20T05:21:58.576Z</time>
      </trkpt>
      <trkpt lat="45.67155" lon="5.41176">
        <ele>322</ele>
        <time>2021-07-20T05:21:59.576Z</time>
      </trkpt>
      <trkpt lat="45.67153" lon="5.41185">
        <ele>322</ele>
        <time>2021-07-20T05:22:00.576Z</time>
      </trkpt>
      <trkpt lat="45.6715" lon="5.41194">
        <ele>321</ele>
        <time>2021-07-20T05:22:01.576Z</time>
      </trkpt>
      <trkpt lat="45.67147" lon="5.41204">
        <ele>321</ele>
        <time>2021-07-20T05:22:02.576Z</time>
      </trkpt>
      <trkpt lat="45.67144" lon="5.41214">
        <ele>320</ele>
        <time>2021-07-20T05:22:03.575Z</time>
      </trkpt>
      <trkpt lat="45.67141" lon="5.41224">
        <ele>320</ele>
        <time>2021-07-20T05:22:04.575Z</time>
      </trkpt>
      <trkpt lat="45.67137" lon="5.41235">
        <ele>320</ele>
        <time>2021-07-20T05:22:05.576Z</time>
      </trkpt>
      <trkpt lat="45.67133" lon="5.41246">
        <ele>320</ele>
        <time>2021-07-20T05:22:06.576Z</time>
      </trkpt>
      <trkpt lat="45.67129" lon="5.41257">
        <ele>320</ele>
        <time>2021-07-20T05:22:07.576Z</time>
      </trkpt>
      <trkpt lat="45.67124" lon="5.41268">
        <ele>319</ele>
        <time>2021-07-20T05:22:08.576Z</time>
      </trkpt>
      <trkpt lat="45.67119" lon="5.41279">
        <ele>319</ele>
        <time>2021-07-20T05:22:09.576Z</time>
      </trkpt>
      <trkpt lat="45.67114" lon="5.4129">
        <ele>318</ele>
        <time>2021-07-20T05:22:10.576Z</time>
      </trkpt>
      <trkpt lat="45.67109" lon="5.41301">
        <ele>318</ele>
        <time>2021-07-20T05:22:11.576Z</time>
      </trkpt>
      <trkpt lat="45.67103" lon="5.41312">
        <ele>318</ele>
        <time>2021-07-20T05:22:12.575Z</time>
      </trkpt>
      <trkpt lat="45.67098" lon="5.41322">
        <ele>318</ele>
        <time>2021-07-20T05:22:13.576Z</time>
      </trkpt>
      <trkpt lat="45.67093" lon="5.41333">
        <ele>318</ele>
        <time>2021-07-20T05:22:14.576Z</time>
      </trkpt>
      <trkpt lat="45.67087" lon="5.41344">
        <ele>317</ele>
        <time>2021-07-20T05:22:15.575Z</time>
      </trkpt>
      <trkpt lat="45.6708" lon="5.41356">
        <ele>317</ele>
        <time>2021-07-20T05:22:16.575Z</time>
      </trkpt>
      <trkpt lat="45.67074" lon="5.41368">
        <ele>316</ele>
        <time>2021-07-20T05:22:17.576Z</time>
      </trkpt>
      <trkpt lat="45.67068" lon="5.41381">
        <ele>316</ele>
        <time>2021-07-20T05:22:18.575Z</time>
      </trkpt>
      <trkpt lat="45.67061" lon="5.41394">
        <ele>316</ele>
        <time>2021-07-20T05:22:19.576Z</time>
      </trkpt>
      <trkpt lat="45.67055" lon="5.41408">
        <ele>316</ele>
        <time>2021-07-20T05:22:20.575Z</time>
      </trkpt>
      <trkpt lat="45.67048" lon="5.41422">
        <ele>315</ele>
        <time>2021-07-20T05:22:21.575Z</time>
      </trkpt>
      <trkpt lat="45.67041" lon="5.41436">
        <ele>314</ele>
        <time>2021-07-20T05:22:22.575Z</time>
      </trkpt>
      <trkpt lat="45.67034" lon="5.4145">
        <ele>314</ele>
        <time>2021-07-20T05:22:23.575Z</time>
      </trkpt>
      <trkpt lat="45.67027" lon="5.41464">
        <ele>313</ele>
        <time>2021-07-20T05:22:24.575Z</time>
      </trkpt>
      <trkpt lat="45.6702" lon="5.41478">
        <ele>312</ele>
        <time>2021-07-20T05:22:25.575Z</time>
      </trkpt>
      <trkpt lat="45.67012" lon="5.41492">
        <ele>311</ele>
        <time>2021-07-20T05:22:26.575Z</time>
      </trkpt>
      <trkpt lat="45.67004" lon="5.41507">
        <ele>310</ele>
        <time>2021-07-20T05:22:27.575Z</time>
      </trkpt>
      <trkpt lat="45.66996" lon="5.41521">
        <ele>309</ele>
        <time>2021-07-20T05:22:28.575Z</time>
      </trkpt>
      <trkpt lat="45.66988" lon="5.41535">
        <ele>308</ele>
        <time>2021-07-20T05:22:29.576Z</time>
      </trkpt>
      <trkpt lat="45.66981" lon="5.41549">
        <ele>307</ele>
        <time>2021-07-20T05:22:30.575Z</time>
      </trkpt>
      <trkpt lat="45.66974" lon="5.41563">
        <ele>307</ele>
        <time>2021-07-20T05:22:31.575Z</time>
      </trkpt>
      <trkpt lat="45.66967" lon="5.41577">
        <ele>306</ele>
        <time>2021-07-20T05:22:32.576Z</time>
      </trkpt>
      <trkpt lat="45.66959" lon="5.41591">
        <ele>305</ele>
        <time>2021-07-20T05:22:33.576Z</time>
      </trkpt>
      <trkpt lat="45.66952" lon="5.41603">
        <ele>305</ele>
        <time>2021-07-20T05:22:34.575Z</time>
      </trkpt>
      <trkpt lat="45.66945" lon="5.41615">
        <ele>304</ele>
        <time>2021-07-20T05:22:35.576Z</time>
      </trkpt>
      <trkpt lat="45.66938" lon="5.41627">
        <ele>303</ele>
        <time>2021-07-20T05:22:36.576Z</time>
      </trkpt>
      <trkpt lat="45.66932" lon="5.41638">
        <ele>303</ele>
        <time>2021-07-20T05:22:37.576Z</time>
      </trkpt>
      <trkpt lat="45.66925" lon="5.41649">
        <ele>302</ele>
        <time>2021-07-20T05:22:38.576Z</time>
      </trkpt>
      <trkpt lat="45.66919" lon="5.41659">
        <ele>301</ele>
        <time>2021-07-20T05:22:39.576Z</time>
      </trkpt>
      <trkpt lat="45.66913" lon="5.41669">
        <ele>301</ele>
        <time>2021-07-20T05:22:40.576Z</time>
      </trkpt>
      <trkpt lat="45.66907" lon="5.41681">
        <ele>300</ele>
        <time>2021-07-20T05:22:41.576Z</time>
      </trkpt>
      <trkpt lat="45.66902" lon="5.41691">
        <ele>300</ele>
        <time>2021-07-20T05:22:42.576Z</time>
      </trkpt>
      <trkpt lat="45.66897" lon="5.417">
        <ele>300</ele>
        <time>2021-07-20T05:22:43.576Z</time>
      </trkpt>
      <trkpt lat="45.66892" lon="5.41712">
        <ele>301</ele>
        <time>2021-07-20T05:22:44.576Z</time>
      </trkpt>
      <trkpt lat="45.66887" lon="5.41722">
        <ele>301</ele>
        <time>2021-07-20T05:22:45.576Z</time>
      </trkpt>
      <trkpt lat="45.66884" lon="5.41731">
        <ele>302</ele>
        <time>2021-07-20T05:22:46.576Z</time>
      </trkpt>
      <trkpt lat="45.6688" lon="5.41741">
        <ele>302</ele>
        <time>2021-07-20T05:22:47.576Z</time>
      </trkpt>
      <trkpt lat="45.66876" lon="5.41751">
        <ele>302</ele>
        <time>2021-07-20T05:22:48.576Z</time>
      </trkpt>
      <trkpt lat="45.66872" lon="5.4176">
        <ele>302</ele>
        <time>2021-07-20T05:22:49.576Z</time>
      </trkpt>
      <trkpt lat="45.66869" lon="5.4177">
        <ele>302</ele>
        <time>2021-07-20T05:22:50.575Z</time>
      </trkpt>
      <trkpt lat="45.66865" lon="5.41782">
        <ele>301</ele>
        <time>2021-07-20T05:22:51.575Z</time>
      </trkpt>
      <trkpt lat="45.66863" lon="5.41789">
        <ele>301</ele>
        <time>2021-07-20T05:22:52.575Z</time>
      </trkpt>
      <trkpt lat="45.6686" lon="5.418">
        <ele>301</ele>
        <time>2021-07-20T05:22:53.575Z</time>
      </trkpt>
      <trkpt lat="45.66857" lon="5.4181">
        <ele>301</ele>
        <time>2021-07-20T05:22:54.575Z</time>
      </trkpt>
      <trkpt lat="45.66854" lon="5.41821">
        <ele>300</ele>
        <time>2021-07-20T05:22:55.576Z</time>
      </trkpt>
      <trkpt lat="45.66851" lon="5.41832">
        <ele>300</ele>
        <time>2021-07-20T05:22:56.576Z</time>
      </trkpt>
      <trkpt lat="45.66849" lon="5.41843">
        <ele>300</ele>
        <time>2021-07-20T05:22:57.576Z</time>
      </trkpt>
      <trkpt lat="45.66847" lon="5.41855">
        <ele>299</ele>
        <time>2021-07-20T05:22:58.576Z</time>
      </trkpt>
      <trkpt lat="45.66845" lon="5.41867">
        <ele>299</ele>
        <time>2021-07-20T05:22:59.576Z</time>
      </trkpt>
      <trkpt lat="45.66843" lon="5.4188">
        <ele>299</ele>
        <time>2021-07-20T05:23:00.576Z</time>
      </trkpt>
      <trkpt lat="45.66841" lon="5.41893">
        <ele>299</ele>
        <time>2021-07-20T05:23:01.576Z</time>
      </trkpt>
      <trkpt lat="45.66839" lon="5.41906">
        <ele>299</ele>
        <time>2021-07-20T05:23:02.576Z</time>
      </trkpt>
      <trkpt lat="45.66836" lon="5.41919">
        <ele>300</ele>
        <time>2021-07-20T05:23:03.576Z</time>
      </trkpt>
      <trkpt lat="45.66833" lon="5.41933">
        <ele>300</ele>
        <time>2021-07-20T05:23:04.576Z</time>
      </trkpt>
      <trkpt lat="45.6683" lon="5.41946">
        <ele>300</ele>
        <time>2021-07-20T05:23:05.576Z</time>
      </trkpt>
      <trkpt lat="45.66827" lon="5.4196">
        <ele>300</ele>
        <time>2021-07-20T05:23:06.576Z</time>
      </trkpt>
      <trkpt lat="45.66825" lon="5.41974">
        <ele>300</ele>
        <time>2021-07-20T05:23:07.576Z</time>
      </trkpt>
      <trkpt lat="45.66823" lon="5.41988">
        <ele>300</ele>
        <time>2021-07-20T05:23:08.576Z</time>
      </trkpt>
      <trkpt lat="45.66822" lon="5.42002">
        <ele>300</ele>
        <time>2021-07-20T05:23:09.576Z</time>
      </trkpt>
      <trkpt lat="45.6682" lon="5.42017">
        <ele>299</ele>
        <time>2021-07-20T05:23:10.576Z</time>
      </trkpt>
      <trkpt lat="45.66819" lon="5.42031">
        <ele>299</ele>
        <time>2021-07-20T05:23:11.576Z</time>
      </trkpt>
      <trkpt lat="45.66818" lon="5.42046">
        <ele>299</ele>
        <time>2021-07-20T05:23:12.576Z</time>
      </trkpt>
      <trkpt lat="45.66817" lon="5.4206">
        <ele>299</ele>
        <time>2021-07-20T05:23:13.576Z</time>
      </trkpt>
      <trkpt lat="45.66817" lon="5.42075">
        <ele>298</ele>
        <time>2021-07-20T05:23:14.575Z</time>
      </trkpt>
      <trkpt lat="45.66817" lon="5.4209">
        <ele>298</ele>
        <time>2021-07-20T05:23:15.576Z</time>
      </trkpt>
      <trkpt lat="45.66818" lon="5.42105">
        <ele>298</ele>
        <time>2021-07-20T05:23:16.575Z</time>
      </trkpt>
      <trkpt lat="45.66819" lon="5.42119">
        <ele>298</ele>
        <time>2021-07-20T05:23:17.575Z</time>
      </trkpt>
      <trkpt lat="45.66821" lon="5.42134">
        <ele>298</ele>
        <time>2021-07-20T05:23:18.576Z</time>
      </trkpt>
      <trkpt lat="45.66824" lon="5.42148">
        <ele>298</ele>
        <time>2021-07-20T05:23:19.576Z</time>
      </trkpt>
      <trkpt lat="45.66826" lon="5.42162">
        <ele>297</ele>
        <time>2021-07-20T05:23:20.576Z</time>
      </trkpt>
      <trkpt lat="45.66829" lon="5.42176">
        <ele>296</ele>
        <time>2021-07-20T05:23:21.576Z</time>
      </trkpt>
      <trkpt lat="45.66831" lon="5.42189">
        <ele>296</ele>
        <time>2021-07-20T05:23:22.576Z</time>
      </trkpt>
      <trkpt lat="45.66832" lon="5.42203">
        <ele>296</ele>
        <time>2021-07-20T05:23:23.575Z</time>
      </trkpt>
      <trkpt lat="45.66832" lon="5.4222">
        <ele>295</ele>
        <time>2021-07-20T05:23:24.576Z</time>
      </trkpt>
      <trkpt lat="45.66832" lon="5.42231">
        <ele>295</ele>
        <time>2021-07-20T05:23:25.576Z</time>
      </trkpt>
      <trkpt lat="45.66832" lon="5.42244">
        <ele>295</ele>
        <time>2021-07-20T05:23:26.576Z</time>
      </trkpt>
      <trkpt lat="45.66832" lon="5.42258">
        <ele>294</ele>
        <time>2021-07-20T05:23:27.576Z</time>
      </trkpt>
      <trkpt lat="45.66832" lon="5.42272">
        <ele>294</ele>
        <time>2021-07-20T05:23:28.576Z</time>
      </trkpt>
      <trkpt lat="45.66831" lon="5.42286">
        <ele>294</ele>
        <time>2021-07-20T05:23:29.576Z</time>
      </trkpt>
      <trkpt lat="45.66831" lon="5.42299">
        <ele>294</ele>
        <time>2021-07-20T05:23:30.576Z</time>
      </trkpt>
      <trkpt lat="45.6683" lon="5.42313">
        <ele>293</ele>
        <time>2021-07-20T05:23:31.576Z</time>
      </trkpt>
      <trkpt lat="45.66829" lon="5.42327">
        <ele>293</ele>
        <time>2021-07-20T05:23:32.576Z</time>
      </trkpt>
      <trkpt lat="45.66829" lon="5.4234">
        <ele>294</ele>
        <time>2021-07-20T05:23:33.576Z</time>
      </trkpt>
      <trkpt lat="45.66829" lon="5.42354">
        <ele>294</ele>
        <time>2021-07-20T05:23:34.576Z</time>
      </trkpt>
      <trkpt lat="45.66829" lon="5.42367">
        <ele>294</ele>
        <time>2021-07-20T05:23:35.576Z</time>
      </trkpt>
      <trkpt lat="45.66829" lon="5.4238">
        <ele>293</ele>
        <time>2021-07-20T05:23:36.576Z</time>
      </trkpt>
      <trkpt lat="45.66829" lon="5.42393">
        <ele>293</ele>
        <time>2021-07-20T05:23:37.576Z</time>
      </trkpt>
      <trkpt lat="45.6683" lon="5.42406">
        <ele>293</ele>
        <time>2021-07-20T05:23:38.576Z</time>
      </trkpt>
      <trkpt lat="45.66831" lon="5.42419">
        <ele>293</ele>
        <time>2021-07-20T05:23:39.576Z</time>
      </trkpt>
      <trkpt lat="45.66831" lon="5.42432">
        <ele>293</ele>
        <time>2021-07-20T05:23:40.575Z</time>
      </trkpt>
      <trkpt lat="45.66832" lon="5.42445">
        <ele>293</ele>
        <time>2021-07-20T05:23:41.575Z</time>
      </trkpt>
      <trkpt lat="45.66832" lon="5.42457">
        <ele>293</ele>
        <time>2021-07-20T05:23:42.575Z</time>
      </trkpt>
      <trkpt lat="45.66833" lon="5.42469">
        <ele>293</ele>
        <time>2021-07-20T05:23:43.575Z</time>
      </trkpt>
      <trkpt lat="45.66833" lon="5.42482">
        <ele>293</ele>
        <time>2021-07-20T05:23:44.576Z</time>
      </trkpt>
      <trkpt lat="45.66833" lon="5.42494">
        <ele>293</ele>
        <time>2021-07-20T05:23:45.575Z</time>
      </trkpt>
      <trkpt lat="45.66833" lon="5.42506">
        <ele>293</ele>
        <time>2021-07-20T05:23:46.576Z</time>
      </trkpt>
      <trkpt lat="45.66833" lon="5.42518">
        <ele>293</ele>
        <time>2021-07-20T05:23:47.576Z</time>
      </trkpt>
      <trkpt lat="45.66832" lon="5.4253">
        <ele>293</ele>
        <time>2021-07-20T05:23:48.575Z</time>
      </trkpt>
      <trkpt lat="45.66831" lon="5.42541">
        <ele>293</ele>
        <time>2021-07-20T05:23:49.576Z</time>
      </trkpt>
      <trkpt lat="45.66829" lon="5.42552">
        <ele>293</ele>
        <time>2021-07-20T05:23:50.576Z</time>
      </trkpt>
      <trkpt lat="45.66827" lon="5.42563">
        <ele>293</ele>
        <time>2021-07-20T05:23:51.576Z</time>
      </trkpt>
      <trkpt lat="45.66825" lon="5.42573">
        <ele>293</ele>
        <time>2021-07-20T05:23:52.576Z</time>
      </trkpt>
      <trkpt lat="45.66823" lon="5.42583">
        <ele>293</ele>
        <time>2021-07-20T05:23:53.576Z</time>
      </trkpt>
      <trkpt lat="45.66821" lon="5.42593">
        <ele>293</ele>
        <time>2021-07-20T05:23:54.576Z</time>
      </trkpt>
      <trkpt lat="45.66819" lon="5.42604">
        <ele>293</ele>
        <time>2021-07-20T05:23:55.576Z</time>
      </trkpt>
      <trkpt lat="45.66818" lon="5.42614">
        <ele>293</ele>
        <time>2021-07-20T05:23:56.576Z</time>
      </trkpt>
      <trkpt lat="45.66817" lon="5.42625">
        <ele>293</ele>
        <time>2021-07-20T05:23:57.576Z</time>
      </trkpt>
      <trkpt lat="45.66817" lon="5.42636">
        <ele>293</ele>
        <time>2021-07-20T05:23:58.576Z</time>
      </trkpt>
      <trkpt lat="45.66818" lon="5.42648">
        <ele>293</ele>
        <time>2021-07-20T05:23:59.576Z</time>
      </trkpt>
      <trkpt lat="45.66819" lon="5.42659">
        <ele>293</ele>
        <time>2021-07-20T05:24:00.576Z</time>
      </trkpt>
      <trkpt lat="45.66821" lon="5.42671">
        <ele>294</ele>
        <time>2021-07-20T05:24:01.576Z</time>
      </trkpt>
      <trkpt lat="45.66823" lon="5.42683">
        <ele>294</ele>
        <time>2021-07-20T05:24:02.576Z</time>
      </trkpt>
      <trkpt lat="45.66826" lon="5.42697">
        <ele>294</ele>
        <time>2021-07-20T05:24:03.576Z</time>
      </trkpt>
      <trkpt lat="45.66827" lon="5.42707">
        <ele>294</ele>
        <time>2021-07-20T05:24:04.575Z</time>
      </trkpt>
      <trkpt lat="45.66828" lon="5.42719">
        <ele>293</ele>
        <time>2021-07-20T05:24:05.575Z</time>
      </trkpt>
      <trkpt lat="45.66828" lon="5.42732">
        <ele>293</ele>
        <time>2021-07-20T05:24:06.575Z</time>
      </trkpt>
      <trkpt lat="45.66829" lon="5.42744">
        <ele>293</ele>
        <time>2021-07-20T05:24:07.575Z</time>
      </trkpt>
      <trkpt lat="45.66828" lon="5.42757">
        <ele>293</ele>
        <time>2021-07-20T05:24:08.576Z</time>
      </trkpt>
      <trkpt lat="45.66828" lon="5.4277">
        <ele>293</ele>
        <time>2021-07-20T05:24:09.576Z</time>
      </trkpt>
      <trkpt lat="45.66827" lon="5.42784">
        <ele>293</ele>
        <time>2021-07-20T05:24:10.575Z</time>
      </trkpt>
      <trkpt lat="45.66826" lon="5.42797">
        <ele>293</ele>
        <time>2021-07-20T05:24:11.575Z</time>
      </trkpt>
      <trkpt lat="45.66825" lon="5.4281">
        <ele>293</ele>
        <time>2021-07-20T05:24:12.576Z</time>
      </trkpt>
      <trkpt lat="45.66825" lon="5.42826">
        <ele>293</ele>
        <time>2021-07-20T05:24:13.575Z</time>
      </trkpt>
      <trkpt lat="45.66824" lon="5.42837">
        <ele>293</ele>
        <time>2021-07-20T05:24:14.576Z</time>
      </trkpt>
      <trkpt lat="45.66824" lon="5.4285">
        <ele>293</ele>
        <time>2021-07-20T05:24:15.576Z</time>
      </trkpt>
      <trkpt lat="45.66822" lon="5.42863">
        <ele>293</ele>
        <time>2021-07-20T05:24:16.576Z</time>
      </trkpt>
      <trkpt lat="45.66821" lon="5.42876">
        <ele>293</ele>
        <time>2021-07-20T05:24:17.576Z</time>
      </trkpt>
      <trkpt lat="45.6682" lon="5.42892">
        <ele>293</ele>
        <time>2021-07-20T05:24:18.576Z</time>
      </trkpt>
      <trkpt lat="45.66818" lon="5.42902">
        <ele>293</ele>
        <time>2021-07-20T05:24:19.576Z</time>
      </trkpt>
      <trkpt lat="45.66816" lon="5.42915">
        <ele>293</ele>
        <time>2021-07-20T05:24:20.576Z</time>
      </trkpt>
      <trkpt lat="45.66813" lon="5.42928">
        <ele>293</ele>
        <time>2021-07-20T05:24:21.575Z</time>
      </trkpt>
      <trkpt lat="45.66809" lon="5.42943">
        <ele>293</ele>
        <time>2021-07-20T05:24:22.575Z</time>
      </trkpt>
      <trkpt lat="45.66806" lon="5.42952">
        <ele>292</ele>
        <time>2021-07-20T05:24:23.576Z</time>
      </trkpt>
      <trkpt lat="45.66803" lon="5.42963">
        <ele>292</ele>
        <time>2021-07-20T05:24:24.576Z</time>
      </trkpt>
      <trkpt lat="45.668" lon="5.42975">
        <ele>292</ele>
        <time>2021-07-20T05:24:25.575Z</time>
      </trkpt>
      <trkpt lat="45.66796" lon="5.42986">
        <ele>292</ele>
        <time>2021-07-20T05:24:26.575Z</time>
      </trkpt>
      <trkpt lat="45.66792" lon="5.42997">
        <ele>292</ele>
        <time>2021-07-20T05:24:27.576Z</time>
      </trkpt>
      <trkpt lat="45.66788" lon="5.43008">
        <ele>291</ele>
        <time>2021-07-20T05:24:28.575Z</time>
      </trkpt>
      <trkpt lat="45.66785" lon="5.43019">
        <ele>291</ele>
        <time>2021-07-20T05:24:29.575Z</time>
      </trkpt>
      <trkpt lat="45.66783" lon="5.4303">
        <ele>290</ele>
        <time>2021-07-20T05:24:30.575Z</time>
      </trkpt>
      <trkpt lat="45.66781" lon="5.43041">
        <ele>290</ele>
        <time>2021-07-20T05:24:31.576Z</time>
      </trkpt>
      <trkpt lat="45.66781" lon="5.43053">
        <ele>290</ele>
        <time>2021-07-20T05:24:32.576Z</time>
      </trkpt>
      <trkpt lat="45.66782" lon="5.43064">
        <ele>290</ele>
        <time>2021-07-20T05:24:33.576Z</time>
      </trkpt>
      <trkpt lat="45.66784" lon="5.43074">
        <ele>290</ele>
        <time>2021-07-20T05:24:34.576Z</time>
      </trkpt>
      <trkpt lat="45.66788" lon="5.43083">
        <ele>291</ele>
        <time>2021-07-20T05:24:35.576Z</time>
      </trkpt>
      <trkpt lat="45.66793" lon="5.43091">
        <ele>291</ele>
        <time>2021-07-20T05:24:36.576Z</time>
      </trkpt>
      <trkpt lat="45.66798" lon="5.43098">
        <ele>291</ele>
        <time>2021-07-20T05:24:37.576Z</time>
      </trkpt>
      <trkpt lat="45.66805" lon="5.43104">
        <ele>292</ele>
        <time>2021-07-20T05:24:38.576Z</time>
      </trkpt>
      <trkpt lat="45.66814" lon="5.43107">
        <ele>292</ele>
        <time>2021-07-20T05:24:39.576Z</time>
      </trkpt>
      <trkpt lat="45.66822" lon="5.4311">
        <ele>292</ele>
        <time>2021-07-20T05:24:40.576Z</time>
      </trkpt>
      <trkpt lat="45.66828" lon="5.43114">
        <ele>293</ele>
        <time>2021-07-20T05:24:41.575Z</time>
      </trkpt>
      <trkpt lat="45.66835" lon="5.43117">
        <ele>293</ele>
        <time>2021-07-20T05:24:42.575Z</time>
      </trkpt>
      <trkpt lat="45.66841" lon="5.43122">
        <ele>293</ele>
        <time>2021-07-20T05:24:43.576Z</time>
      </trkpt>
      <trkpt lat="45.66845" lon="5.43128">
        <ele>293</ele>
        <time>2021-07-20T05:24:44.576Z</time>
      </trkpt>
      <trkpt lat="45.6685" lon="5.43134">
        <ele>293</ele>
        <time>2021-07-20T05:24:45.575Z</time>
      </trkpt>
      <trkpt lat="45.66855" lon="5.43142">
        <ele>293</ele>
        <time>2021-07-20T05:24:46.576Z</time>
      </trkpt>
      <trkpt lat="45.6686" lon="5.4315">
        <ele>293</ele>
        <time>2021-07-20T05:24:47.576Z</time>
      </trkpt>
      <trkpt lat="45.66865" lon="5.43159">
        <ele>293</ele>
        <time>2021-07-20T05:24:48.575Z</time>
      </trkpt>
      <trkpt lat="45.6687" lon="5.43167">
        <ele>293</ele>
        <time>2021-07-20T05:24:49.576Z</time>
      </trkpt>
      <trkpt lat="45.66875" lon="5.43176">
        <ele>292</ele>
        <time>2021-07-20T05:24:50.576Z</time>
      </trkpt>
      <trkpt lat="45.66879" lon="5.43186">
        <ele>293</ele>
        <time>2021-07-20T05:24:51.575Z</time>
      </trkpt>
      <trkpt lat="45.66883" lon="5.43196">
        <ele>293</ele>
        <time>2021-07-20T05:24:52.576Z</time>
      </trkpt>
      <trkpt lat="45.66888" lon="5.43207">
        <ele>293</ele>
        <time>2021-07-20T05:24:53.576Z</time>
      </trkpt>
      <trkpt lat="45.66892" lon="5.43218">
        <ele>294</ele>
        <time>2021-07-20T05:24:54.576Z</time>
      </trkpt>
      <trkpt lat="45.66896" lon="5.43229">
        <ele>295</ele>
        <time>2021-07-20T05:24:55.576Z</time>
      </trkpt>
      <trkpt lat="45.669" lon="5.43241">
        <ele>295</ele>
        <time>2021-07-20T05:24:56.575Z</time>
      </trkpt>
      <trkpt lat="45.66904" lon="5.43252">
        <ele>295</ele>
        <time>2021-07-20T05:24:57.575Z</time>
      </trkpt>
      <trkpt lat="45.66908" lon="5.43264">
        <ele>296</ele>
        <time>2021-07-20T05:24:58.576Z</time>
      </trkpt>
      <trkpt lat="45.66911" lon="5.43276">
        <ele>296</ele>
        <time>2021-07-20T05:24:59.575Z</time>
      </trkpt>
      <trkpt lat="45.66914" lon="5.43287">
        <ele>295</ele>
        <time>2021-07-20T05:25:00.575Z</time>
      </trkpt>
      <trkpt lat="45.66917" lon="5.43299">
        <ele>295</ele>
        <time>2021-07-20T05:25:01.576Z</time>
      </trkpt>
      <trkpt lat="45.6692" lon="5.43311">
        <ele>295</ele>
        <time>2021-07-20T05:25:02.576Z</time>
      </trkpt>
      <trkpt lat="45.66924" lon="5.43323">
        <ele>295</ele>
        <time>2021-07-20T05:25:03.575Z</time>
      </trkpt>
      <trkpt lat="45.66927" lon="5.43336">
        <ele>295</ele>
        <time>2021-07-20T05:25:04.575Z</time>
      </trkpt>
      <trkpt lat="45.6693" lon="5.43348">
        <ele>295</ele>
        <time>2021-07-20T05:25:05.576Z</time>
      </trkpt>
      <trkpt lat="45.66932" lon="5.4336">
        <ele>295</ele>
        <time>2021-07-20T05:25:06.575Z</time>
      </trkpt>
      <trkpt lat="45.66935" lon="5.43372">
        <ele>295</ele>
        <time>2021-07-20T05:25:07.576Z</time>
      </trkpt>
      <trkpt lat="45.66938" lon="5.43384">
        <ele>294</ele>
        <time>2021-07-20T05:25:08.575Z</time>
      </trkpt>
      <trkpt lat="45.66942" lon="5.43397">
        <ele>294</ele>
        <time>2021-07-20T05:25:09.576Z</time>
      </trkpt>
      <trkpt lat="45.66946" lon="5.4341">
        <ele>294</ele>
        <time>2021-07-20T05:25:10.575Z</time>
      </trkpt>
      <trkpt lat="45.66949" lon="5.43423">
        <ele>294</ele>
        <time>2021-07-20T05:25:11.576Z</time>
      </trkpt>
      <trkpt lat="45.66951" lon="5.43436">
        <ele>294</ele>
        <time>2021-07-20T05:25:12.576Z</time>
      </trkpt>
      <trkpt lat="45.66953" lon="5.4345">
        <ele>293</ele>
        <time>2021-07-20T05:25:13.576Z</time>
      </trkpt>
      <trkpt lat="45.66954" lon="5.43464">
        <ele>292</ele>
        <time>2021-07-20T05:25:14.575Z</time>
      </trkpt>
      <trkpt lat="45.66954" lon="5.43478">
        <ele>291</ele>
        <time>2021-07-20T05:25:15.576Z</time>
      </trkpt>
      <trkpt lat="45.66952" lon="5.43491">
        <ele>290</ele>
        <time>2021-07-20T05:25:16.575Z</time>
      </trkpt>
      <trkpt lat="45.66951" lon="5.43506">
        <ele>289</ele>
        <time>2021-07-20T05:25:17.575Z</time>
      </trkpt>
      <trkpt lat="45.6695" lon="5.4352">
        <ele>288</ele>
        <time>2021-07-20T05:25:18.575Z</time>
      </trkpt>
      <trkpt lat="45.66946" lon="5.43535">
        <ele>286</ele>
        <time>2021-07-20T05:25:19.576Z</time>
      </trkpt>
      <trkpt lat="45.66942" lon="5.4355">
        <ele>285</ele>
        <time>2021-07-20T05:25:20.576Z</time>
      </trkpt>
      <trkpt lat="45.6694" lon="5.43564">
        <ele>284</ele>
        <time>2021-07-20T05:25:21.575Z</time>
      </trkpt>
      <trkpt lat="45.66939" lon="5.43579">
        <ele>283</ele>
        <time>2021-07-20T05:25:22.576Z</time>
      </trkpt>
      <trkpt lat="45.66937" lon="5.43593">
        <ele>283</ele>
        <time>2021-07-20T05:25:23.575Z</time>
      </trkpt>
      <trkpt lat="45.66933" lon="5.43608">
        <ele>282</ele>
        <time>2021-07-20T05:25:24.575Z</time>
      </trkpt>
      <trkpt lat="45.66929" lon="5.43622">
        <ele>282</ele>
        <time>2021-07-20T05:25:25.576Z</time>
      </trkpt>
      <trkpt lat="45.66924" lon="5.43637">
        <ele>282</ele>
        <time>2021-07-20T05:25:26.576Z</time>
      </trkpt>
      <trkpt lat="45.66919" lon="5.43649">
        <ele>281</ele>
        <time>2021-07-20T05:25:27.576Z</time>
      </trkpt>
      <trkpt lat="45.66913" lon="5.43661">
        <ele>281</ele>
        <time>2021-07-20T05:25:28.576Z</time>
      </trkpt>
      <trkpt lat="45.66907" lon="5.43673">
        <ele>281</ele>
        <time>2021-07-20T05:25:29.576Z</time>
      </trkpt>
      <trkpt lat="45.669" lon="5.43685">
        <ele>280</ele>
        <time>2021-07-20T05:25:30.576Z</time>
      </trkpt>
      <trkpt lat="45.66893" lon="5.43697">
        <ele>280</ele>
        <time>2021-07-20T05:25:31.576Z</time>
      </trkpt>
      <trkpt lat="45.66885" lon="5.43708">
        <ele>280</ele>
        <time>2021-07-20T05:25:32.576Z</time>
      </trkpt>
      <trkpt lat="45.66879" lon="5.43719">
        <ele>279</ele>
        <time>2021-07-20T05:25:33.576Z</time>
      </trkpt>
      <trkpt lat="45.66873" lon="5.43731">
        <ele>279</ele>
        <time>2021-07-20T05:25:34.576Z</time>
      </trkpt>
      <trkpt lat="45.66865" lon="5.43745">
        <ele>279</ele>
        <time>2021-07-20T05:25:35.576Z</time>
      </trkpt>
      <trkpt lat="45.6686" lon="5.43758">
        <ele>278</ele>
        <time>2021-07-20T05:25:36.576Z</time>
      </trkpt>
      <trkpt lat="45.66856" lon="5.43769">
        <ele>277</ele>
        <time>2021-07-20T05:25:37.576Z</time>
      </trkpt>
      <trkpt lat="45.66851" lon="5.43783">
        <ele>277</ele>
        <time>2021-07-20T05:25:38.576Z</time>
      </trkpt>
      <trkpt lat="45.66847" lon="5.43796">
        <ele>277</ele>
        <time>2021-07-20T05:25:39.575Z</time>
      </trkpt>
      <trkpt lat="45.66843" lon="5.43813">
        <ele>276</ele>
        <time>2021-07-20T05:25:40.576Z</time>
      </trkpt>
      <trkpt lat="45.66841" lon="5.43824">
        <ele>276</ele>
        <time>2021-07-20T05:25:41.575Z</time>
      </trkpt>
      <trkpt lat="45.66838" lon="5.43838">
        <ele>275</ele>
        <time>2021-07-20T05:25:42.575Z</time>
      </trkpt>
      <trkpt lat="45.66834" lon="5.43855">
        <ele>274</ele>
        <time>2021-07-20T05:25:43.576Z</time>
      </trkpt>
      <trkpt lat="45.66831" lon="5.43866">
        <ele>274</ele>
        <time>2021-07-20T05:25:44.575Z</time>
      </trkpt>
      <trkpt lat="45.66828" lon="5.4388">
        <ele>274</ele>
        <time>2021-07-20T05:25:45.575Z</time>
      </trkpt>
      <trkpt lat="45.66823" lon="5.43896">
        <ele>273</ele>
        <time>2021-07-20T05:25:46.576Z</time>
      </trkpt>
      <trkpt lat="45.6682" lon="5.43907">
        <ele>273</ele>
        <time>2021-07-20T05:25:47.576Z</time>
      </trkpt>
      <trkpt lat="45.66816" lon="5.43921">
        <ele>273</ele>
        <time>2021-07-20T05:25:48.575Z</time>
      </trkpt>
      <trkpt lat="45.66812" lon="5.43935">
        <ele>273</ele>
        <time>2021-07-20T05:25:49.576Z</time>
      </trkpt>
      <trkpt lat="45.66807" lon="5.43952">
        <ele>272</ele>
        <time>2021-07-20T05:25:50.575Z</time>
      </trkpt>
      <trkpt lat="45.66804" lon="5.43963">
        <ele>272</ele>
        <time>2021-07-20T05:25:51.576Z</time>
      </trkpt>
      <trkpt lat="45.668" lon="5.43976">
        <ele>272</ele>
        <time>2021-07-20T05:25:52.575Z</time>
      </trkpt>
      <trkpt lat="45.66796" lon="5.4399">
        <ele>272</ele>
        <time>2021-07-20T05:25:53.575Z</time>
      </trkpt>
      <trkpt lat="45.66792" lon="5.44004">
        <ele>272</ele>
        <time>2021-07-20T05:25:54.575Z</time>
      </trkpt>
      <trkpt lat="45.66788" lon="5.44017">
        <ele>271</ele>
        <time>2021-07-20T05:25:55.576Z</time>
      </trkpt>
      <trkpt lat="45.66783" lon="5.44031">
        <ele>271</ele>
        <time>2021-07-20T05:25:56.576Z</time>
      </trkpt>
      <trkpt lat="45.66779" lon="5.44044">
        <ele>271</ele>
        <time>2021-07-20T05:25:57.575Z</time>
      </trkpt>
      <trkpt lat="45.66774" lon="5.44057">
        <ele>270</ele>
        <time>2021-07-20T05:25:58.576Z</time>
      </trkpt>
      <trkpt lat="45.6677" lon="5.4407">
        <ele>270</ele>
        <time>2021-07-20T05:25:59.576Z</time>
      </trkpt>
      <trkpt lat="45.66764" lon="5.44083">
        <ele>270</ele>
        <time>2021-07-20T05:26:00.576Z</time>
      </trkpt>
      <trkpt lat="45.66759" lon="5.44096">
        <ele>269</ele>
        <time>2021-07-20T05:26:01.576Z</time>
      </trkpt>
      <trkpt lat="45.66754" lon="5.44108">
        <ele>268</ele>
        <time>2021-07-20T05:26:02.576Z</time>
      </trkpt>
      <trkpt lat="45.66747" lon="5.4412">
        <ele>267</ele>
        <time>2021-07-20T05:26:03.576Z</time>
      </trkpt>
      <trkpt lat="45.66741" lon="5.44133">
        <ele>267</ele>
        <time>2021-07-20T05:26:04.576Z</time>
      </trkpt>
      <trkpt lat="45.66735" lon="5.44144">
        <ele>267</ele>
        <time>2021-07-20T05:26:05.575Z</time>
      </trkpt>
      <trkpt lat="45.66728" lon="5.44156">
        <ele>266</ele>
        <time>2021-07-20T05:26:06.576Z</time>
      </trkpt>
      <trkpt lat="45.66721" lon="5.44167">
        <ele>266</ele>
        <time>2021-07-20T05:26:07.576Z</time>
      </trkpt>
      <trkpt lat="45.66715" lon="5.44178">
        <ele>266</ele>
        <time>2021-07-20T05:26:08.575Z</time>
      </trkpt>
      <trkpt lat="45.66708" lon="5.4419">
        <ele>266</ele>
        <time>2021-07-20T05:26:09.575Z</time>
      </trkpt>
      <trkpt lat="45.66701" lon="5.44201">
        <ele>266</ele>
        <time>2021-07-20T05:26:10.575Z</time>
      </trkpt>
      <trkpt lat="45.66694" lon="5.44213">
        <ele>266</ele>
        <time>2021-07-20T05:26:11.576Z</time>
      </trkpt>
      <trkpt lat="45.66687" lon="5.44225">
        <ele>266</ele>
        <time>2021-07-20T05:26:12.576Z</time>
      </trkpt>
      <trkpt lat="45.66681" lon="5.44237">
        <ele>266</ele>
        <time>2021-07-20T05:26:13.576Z</time>
      </trkpt>
      <trkpt lat="45.66674" lon="5.4425">
        <ele>266</ele>
        <time>2021-07-20T05:26:14.576Z</time>
      </trkpt>
      <trkpt lat="45.66668" lon="5.44262">
        <ele>266</ele>
        <time>2021-07-20T05:26:15.575Z</time>
      </trkpt>
      <trkpt lat="45.66661" lon="5.44274">
        <ele>266</ele>
        <time>2021-07-20T05:26:16.576Z</time>
      </trkpt>
      <trkpt lat="45.66654" lon="5.44285">
        <ele>265</ele>
        <time>2021-07-20T05:26:17.576Z</time>
      </trkpt>
      <trkpt lat="45.66647" lon="5.44297">
        <ele>265</ele>
        <time>2021-07-20T05:26:18.576Z</time>
      </trkpt>
      <trkpt lat="45.66641" lon="5.4431">
        <ele>265</ele>
        <time>2021-07-20T05:26:19.576Z</time>
      </trkpt>
      <trkpt lat="45.66634" lon="5.44322">
        <ele>264</ele>
        <time>2021-07-20T05:26:20.576Z</time>
      </trkpt>
      <trkpt lat="45.66627" lon="5.44334">
        <ele>264</ele>
        <time>2021-07-20T05:26:21.575Z</time>
      </trkpt>
      <trkpt lat="45.66621" lon="5.44346">
        <ele>263</ele>
        <time>2021-07-20T05:26:22.576Z</time>
      </trkpt>
      <trkpt lat="45.66615" lon="5.44359">
        <ele>263</ele>
        <time>2021-07-20T05:26:23.575Z</time>
      </trkpt>
      <trkpt lat="45.66609" lon="5.44372">
        <ele>262</ele>
        <time>2021-07-20T05:26:24.576Z</time>
      </trkpt>
      <trkpt lat="45.66604" lon="5.44386">
        <ele>262</ele>
        <time>2021-07-20T05:26:25.575Z</time>
      </trkpt>
      <trkpt lat="45.666" lon="5.44399">
        <ele>261</ele>
        <time>2021-07-20T05:26:26.576Z</time>
      </trkpt>
      <trkpt lat="45.66595" lon="5.44414">
        <ele>260</ele>
        <time>2021-07-20T05:26:27.576Z</time>
      </trkpt>
      <trkpt lat="45.66591" lon="5.44428">
        <ele>259</ele>
        <time>2021-07-20T05:26:28.576Z</time>
      </trkpt>
      <trkpt lat="45.66587" lon="5.44443">
        <ele>259</ele>
        <time>2021-07-20T05:26:29.576Z</time>
      </trkpt>
      <trkpt lat="45.66583" lon="5.44457">
        <ele>259</ele>
        <time>2021-07-20T05:26:30.576Z</time>
      </trkpt>
      <trkpt lat="45.66579" lon="5.44472">
        <ele>258</ele>
        <time>2021-07-20T05:26:31.575Z</time>
      </trkpt>
      <trkpt lat="45.66575" lon="5.44486">
        <ele>258</ele>
        <time>2021-07-20T05:26:32.575Z</time>
      </trkpt>
      <trkpt lat="45.66571" lon="5.44501">
        <ele>258</ele>
        <time>2021-07-20T05:26:33.575Z</time>
      </trkpt>
      <trkpt lat="45.66567" lon="5.44515">
        <ele>257</ele>
        <time>2021-07-20T05:26:34.575Z</time>
      </trkpt>
      <trkpt lat="45.66562" lon="5.44533">
        <ele>256</ele>
        <time>2021-07-20T05:26:35.575Z</time>
      </trkpt>
      <trkpt lat="45.66559" lon="5.44545">
        <ele>256</ele>
        <time>2021-07-20T05:26:36.576Z</time>
      </trkpt>
      <trkpt lat="45.66555" lon="5.44559">
        <ele>256</ele>
        <time>2021-07-20T05:26:37.576Z</time>
      </trkpt>
      <trkpt lat="45.66552" lon="5.44574">
        <ele>255</ele>
        <time>2021-07-20T05:26:38.575Z</time>
      </trkpt>
      <trkpt lat="45.66549" lon="5.44588">
        <ele>255</ele>
        <time>2021-07-20T05:26:39.576Z</time>
      </trkpt>
      <trkpt lat="45.66546" lon="5.44603">
        <ele>254</ele>
        <time>2021-07-20T05:26:40.575Z</time>
      </trkpt>
      <trkpt lat="45.66544" lon="5.44619">
        <ele>254</ele>
        <time>2021-07-20T05:26:41.575Z</time>
      </trkpt>
      <trkpt lat="45.66542" lon="5.44634">
        <ele>253</ele>
        <time>2021-07-20T05:26:42.576Z</time>
      </trkpt>
      <trkpt lat="45.6654" lon="5.44649">
        <ele>252</ele>
        <time>2021-07-20T05:26:43.576Z</time>
      </trkpt>
      <trkpt lat="45.66538" lon="5.44664">
        <ele>251</ele>
        <time>2021-07-20T05:26:44.575Z</time>
      </trkpt>
      <trkpt lat="45.66536" lon="5.44679">
        <ele>250</ele>
        <time>2021-07-20T05:26:45.575Z</time>
      </trkpt>
      <trkpt lat="45.66533" lon="5.44694">
        <ele>249</ele>
        <time>2021-07-20T05:26:46.576Z</time>
      </trkpt>
      <trkpt lat="45.66531" lon="5.44709">
        <ele>249</ele>
        <time>2021-07-20T05:26:47.575Z</time>
      </trkpt>
      <trkpt lat="45.66528" lon="5.44724">
        <ele>249</ele>
        <time>2021-07-20T05:26:48.576Z</time>
      </trkpt>
      <trkpt lat="45.66525" lon="5.44739">
        <ele>249</ele>
        <time>2021-07-20T05:26:49.575Z</time>
      </trkpt>
      <trkpt lat="45.66521" lon="5.44754">
        <ele>248</ele>
        <time>2021-07-20T05:26:50.576Z</time>
      </trkpt>
      <trkpt lat="45.66517" lon="5.44772">
        <ele>248</ele>
        <time>2021-07-20T05:26:51.575Z</time>
      </trkpt>
      <trkpt lat="45.66515" lon="5.44783">
        <ele>248</ele>
        <time>2021-07-20T05:26:52.575Z</time>
      </trkpt>
      <trkpt lat="45.66511" lon="5.44798">
        <ele>247</ele>
        <time>2021-07-20T05:26:53.575Z</time>
      </trkpt>
      <trkpt lat="45.66508" lon="5.44812">
        <ele>247</ele>
        <time>2021-07-20T05:26:54.575Z</time>
      </trkpt>
      <trkpt lat="45.66504" lon="5.44827">
        <ele>247</ele>
        <time>2021-07-20T05:26:55.575Z</time>
      </trkpt>
      <trkpt lat="45.665" lon="5.44841">
        <ele>247</ele>
        <time>2021-07-20T05:26:56.575Z</time>
      </trkpt>
      <trkpt lat="45.66496" lon="5.44855">
        <ele>246</ele>
        <time>2021-07-20T05:26:57.575Z</time>
      </trkpt>
      <trkpt lat="45.66492" lon="5.44869">
        <ele>246</ele>
        <time>2021-07-20T05:26:58.575Z</time>
      </trkpt>
      <trkpt lat="45.66488" lon="5.44883">
        <ele>245</ele>
        <time>2021-07-20T05:26:59.576Z</time>
      </trkpt>
      <trkpt lat="45.66484" lon="5.44897">
        <ele>244</ele>
        <time>2021-07-20T05:27:00.575Z</time>
      </trkpt>
      <trkpt lat="45.6648" lon="5.44911">
        <ele>244</ele>
        <time>2021-07-20T05:27:01.575Z</time>
      </trkpt>
      <trkpt lat="45.66476" lon="5.44925">
        <ele>243</ele>
        <time>2021-07-20T05:27:02.576Z</time>
      </trkpt>
      <trkpt lat="45.66473" lon="5.44939">
        <ele>242</ele>
        <time>2021-07-20T05:27:03.575Z</time>
      </trkpt>
      <trkpt lat="45.66469" lon="5.44954">
        <ele>242</ele>
        <time>2021-07-20T05:27:04.575Z</time>
      </trkpt>
      <trkpt lat="45.66467" lon="5.44968">
        <ele>242</ele>
        <time>2021-07-20T05:27:05.576Z</time>
      </trkpt>
      <trkpt lat="45.66464" lon="5.44983">
        <ele>242</ele>
        <time>2021-07-20T05:27:06.576Z</time>
      </trkpt>
      <trkpt lat="45.66461" lon="5.44998">
        <ele>242</ele>
        <time>2021-07-20T05:27:07.575Z</time>
      </trkpt>
      <trkpt lat="45.66459" lon="5.45013">
        <ele>242</ele>
        <time>2021-07-20T05:27:08.576Z</time>
      </trkpt>
      <trkpt lat="45.66458" lon="5.45028">
        <ele>242</ele>
        <time>2021-07-20T05:27:09.575Z</time>
      </trkpt>
      <trkpt lat="45.66457" lon="5.45044">
        <ele>241</ele>
        <time>2021-07-20T05:27:10.575Z</time>
      </trkpt>
      <trkpt lat="45.66456" lon="5.45059">
        <ele>241</ele>
        <time>2021-07-20T05:27:11.576Z</time>
      </trkpt>
      <trkpt lat="45.66456" lon="5.45074">
        <ele>241</ele>
        <time>2021-07-20T05:27:12.576Z</time>
      </trkpt>
      <trkpt lat="45.66455" lon="5.4509">
        <ele>240</ele>
        <time>2021-07-20T05:27:13.575Z</time>
      </trkpt>
      <trkpt lat="45.66454" lon="5.45106">
        <ele>239</ele>
        <time>2021-07-20T05:27:14.575Z</time>
      </trkpt>
      <trkpt lat="45.66454" lon="5.45121">
        <ele>239</ele>
        <time>2021-07-20T05:27:15.575Z</time>
      </trkpt>
      <trkpt lat="45.66454" lon="5.45137">
        <ele>238</ele>
        <time>2021-07-20T05:27:16.575Z</time>
      </trkpt>
      <trkpt lat="45.66454" lon="5.45152">
        <ele>237</ele>
        <time>2021-07-20T05:27:17.575Z</time>
      </trkpt>
      <trkpt lat="45.66455" lon="5.45168">
        <ele>237</ele>
        <time>2021-07-20T05:27:18.576Z</time>
      </trkpt>
      <trkpt lat="45.66455" lon="5.45184">
        <ele>236</ele>
        <time>2021-07-20T05:27:19.576Z</time>
      </trkpt>
      <trkpt lat="45.66456" lon="5.452">
        <ele>235</ele>
        <time>2021-07-20T05:27:20.575Z</time>
      </trkpt>
      <trkpt lat="45.66457" lon="5.45215">
        <ele>235</ele>
        <time>2021-07-20T05:27:21.575Z</time>
      </trkpt>
      <trkpt lat="45.66458" lon="5.45232">
        <ele>234</ele>
        <time>2021-07-20T05:27:22.576Z</time>
      </trkpt>
      <trkpt lat="45.66459" lon="5.45248">
        <ele>234</ele>
        <time>2021-07-20T05:27:23.575Z</time>
      </trkpt>
      <trkpt lat="45.66459" lon="5.45248">
        <ele>234</ele>
        <time>2021-07-20T05:27:24.576Z</time>
      </trkpt>
      <trkpt lat="45.66461" lon="5.4528">
        <ele>233</ele>
        <time>2021-07-20T05:27:25.575Z</time>
      </trkpt>
      <trkpt lat="45.66463" lon="5.45295">
        <ele>232</ele>
        <time>2021-07-20T05:27:26.575Z</time>
      </trkpt>
      <trkpt lat="45.66466" lon="5.4531">
        <ele>232</ele>
        <time>2021-07-20T05:27:27.576Z</time>
      </trkpt>
      <trkpt lat="45.66469" lon="5.45325">
        <ele>232</ele>
        <time>2021-07-20T05:27:28.575Z</time>
      </trkpt>
      <trkpt lat="45.66472" lon="5.4534">
        <ele>231</ele>
        <time>2021-07-20T05:27:29.576Z</time>
      </trkpt>
      <trkpt lat="45.66476" lon="5.45355">
        <ele>231</ele>
        <time>2021-07-20T05:27:30.576Z</time>
      </trkpt>
      <trkpt lat="45.66479" lon="5.4537">
        <ele>230</ele>
        <time>2021-07-20T05:27:31.576Z</time>
      </trkpt>
      <trkpt lat="45.66482" lon="5.45385">
        <ele>230</ele>
        <time>2021-07-20T05:27:32.575Z</time>
      </trkpt>
      <trkpt lat="45.66486" lon="5.454">
        <ele>230</ele>
        <time>2021-07-20T05:27:33.575Z</time>
      </trkpt>
      <trkpt lat="45.66491" lon="5.45415">
        <ele>229</ele>
        <time>2021-07-20T05:27:34.576Z</time>
      </trkpt>
      <trkpt lat="45.66494" lon="5.45429">
        <ele>229</ele>
        <time>2021-07-20T05:27:35.576Z</time>
      </trkpt>
      <trkpt lat="45.66497" lon="5.45444">
        <ele>229</ele>
        <time>2021-07-20T05:27:36.575Z</time>
      </trkpt>
      <trkpt lat="45.66501" lon="5.45458">
        <ele>228</ele>
        <time>2021-07-20T05:27:37.575Z</time>
      </trkpt>
      <trkpt lat="45.66504" lon="5.45473">
        <ele>228</ele>
        <time>2021-07-20T05:27:38.575Z</time>
      </trkpt>
      <trkpt lat="45.66508" lon="5.45487">
        <ele>228</ele>
        <time>2021-07-20T05:27:39.575Z</time>
      </trkpt>
      <trkpt lat="45.66512" lon="5.45502">
        <ele>228</ele>
        <time>2021-07-20T05:27:40.575Z</time>
      </trkpt>
      <trkpt lat="45.66515" lon="5.45516">
        <ele>228</ele>
        <time>2021-07-20T05:27:41.576Z</time>
      </trkpt>
      <trkpt lat="45.66518" lon="5.45531">
        <ele>227</ele>
        <time>2021-07-20T05:27:42.575Z</time>
      </trkpt>
      <trkpt lat="45.66522" lon="5.45544">
        <ele>227</ele>
        <time>2021-07-20T05:27:43.575Z</time>
      </trkpt>
      <trkpt lat="45.66526" lon="5.45559">
        <ele>226</ele>
        <time>2021-07-20T05:27:44.575Z</time>
      </trkpt>
      <trkpt lat="45.66529" lon="5.45573">
        <ele>226</ele>
        <time>2021-07-20T05:27:45.575Z</time>
      </trkpt>
      <trkpt lat="45.66533" lon="5.45587">
        <ele>225</ele>
        <time>2021-07-20T05:27:46.575Z</time>
      </trkpt>
      <trkpt lat="45.66536" lon="5.45601">
        <ele>225</ele>
        <time>2021-07-20T05:27:47.576Z</time>
      </trkpt>
      <trkpt lat="45.6654" lon="5.45615">
        <ele>224</ele>
        <time>2021-07-20T05:27:48.575Z</time>
      </trkpt>
      <trkpt lat="45.66543" lon="5.45628">
        <ele>224</ele>
        <time>2021-07-20T05:27:49.575Z</time>
      </trkpt>
      <trkpt lat="45.66546" lon="5.45642">
        <ele>224</ele>
        <time>2021-07-20T05:27:50.575Z</time>
      </trkpt>
      <trkpt lat="45.6655" lon="5.45656">
        <ele>224</ele>
        <time>2021-07-20T05:27:51.575Z</time>
      </trkpt>
      <trkpt lat="45.66553" lon="5.45669">
        <ele>224</ele>
        <time>2021-07-20T05:27:52.576Z</time>
      </trkpt>
      <trkpt lat="45.66556" lon="5.45683">
        <ele>223</ele>
        <time>2021-07-20T05:27:53.575Z</time>
      </trkpt>
      <trkpt lat="45.66559" lon="5.45696">
        <ele>223</ele>
        <time>2021-07-20T05:27:54.575Z</time>
      </trkpt>
      <trkpt lat="45.66562" lon="5.4571">
        <ele>222</ele>
        <time>2021-07-20T05:27:55.576Z</time>
      </trkpt>
      <trkpt lat="45.66565" lon="5.45723">
        <ele>222</ele>
        <time>2021-07-20T05:27:56.575Z</time>
      </trkpt>
      <trkpt lat="45.66568" lon="5.45736">
        <ele>221</ele>
        <time>2021-07-20T05:27:57.576Z</time>
      </trkpt>
      <trkpt lat="45.66571" lon="5.45749">
        <ele>221</ele>
        <time>2021-07-20T05:27:58.576Z</time>
      </trkpt>
      <trkpt lat="45.66574" lon="5.45762">
        <ele>220</ele>
        <time>2021-07-20T05:27:59.575Z</time>
      </trkpt>
      <trkpt lat="45.66577" lon="5.45775">
        <ele>220</ele>
        <time>2021-07-20T05:28:00.575Z</time>
      </trkpt>
      <trkpt lat="45.6658" lon="5.45788">
        <ele>220</ele>
        <time>2021-07-20T05:28:01.576Z</time>
      </trkpt>
      <trkpt lat="45.66583" lon="5.45801">
        <ele>220</ele>
        <time>2021-07-20T05:28:02.575Z</time>
      </trkpt>
      <trkpt lat="45.66586" lon="5.45814">
        <ele>220</ele>
        <time>2021-07-20T05:28:03.575Z</time>
      </trkpt>
      <trkpt lat="45.66589" lon="5.45827">
        <ele>220</ele>
        <time>2021-07-20T05:28:04.576Z</time>
      </trkpt>
      <trkpt lat="45.66593" lon="5.45842">
        <ele>220</ele>
        <time>2021-07-20T05:28:05.575Z</time>
      </trkpt>
      <trkpt lat="45.66595" lon="5.4585">
        <ele>221</ele>
        <time>2021-07-20T05:28:06.576Z</time>
      </trkpt>
      <trkpt lat="45.66598" lon="5.45863">
        <ele>221</ele>
        <time>2021-07-20T05:28:07.575Z</time>
      </trkpt>
      <trkpt lat="45.666" lon="5.45875">
        <ele>221</ele>
        <time>2021-07-20T05:28:08.575Z</time>
      </trkpt>
      <trkpt lat="45.66603" lon="5.45887">
        <ele>221</ele>
        <time>2021-07-20T05:28:09.575Z</time>
      </trkpt>
      <trkpt lat="45.66607" lon="5.45899">
        <ele>221</ele>
        <time>2021-07-20T05:28:10.575Z</time>
      </trkpt>
      <trkpt lat="45.6661" lon="5.45913">
        <ele>221</ele>
        <time>2021-07-20T05:28:11.575Z</time>
      </trkpt>
      <trkpt lat="45.66613" lon="5.45926">
        <ele>221</ele>
        <time>2021-07-20T05:28:12.575Z</time>
      </trkpt>
      <trkpt lat="45.66615" lon="5.45938">
        <ele>221</ele>
        <time>2021-07-20T05:28:13.575Z</time>
      </trkpt>
      <trkpt lat="45.66618" lon="5.45953">
        <ele>220</ele>
        <time>2021-07-20T05:28:14.575Z</time>
      </trkpt>
      <trkpt lat="45.66621" lon="5.45965">
        <ele>220</ele>
        <time>2021-07-20T05:28:15.576Z</time>
      </trkpt>
      <trkpt lat="45.66624" lon="5.45975">
        <ele>220</ele>
        <time>2021-07-20T05:28:16.575Z</time>
      </trkpt>
      <trkpt lat="45.66627" lon="5.45988">
        <ele>220</ele>
        <time>2021-07-20T05:28:17.575Z</time>
      </trkpt>
      <trkpt lat="45.66629" lon="5.46">
        <ele>220</ele>
        <time>2021-07-20T05:28:18.576Z</time>
      </trkpt>
      <trkpt lat="45.66632" lon="5.46013">
        <ele>220</ele>
        <time>2021-07-20T05:28:19.575Z</time>
      </trkpt>
      <trkpt lat="45.66635" lon="5.46025">
        <ele>219</ele>
        <time>2021-07-20T05:28:20.575Z</time>
      </trkpt>
      <trkpt lat="45.66637" lon="5.46036">
        <ele>219</ele>
        <time>2021-07-20T05:28:21.575Z</time>
      </trkpt>
      <trkpt lat="45.6664" lon="5.46048">
        <ele>219</ele>
        <time>2021-07-20T05:28:22.576Z</time>
      </trkpt>
      <trkpt lat="45.66642" lon="5.4606">
        <ele>219</ele>
        <time>2021-07-20T05:28:23.576Z</time>
      </trkpt>
      <trkpt lat="45.66646" lon="5.46071">
        <ele>219</ele>
        <time>2021-07-20T05:28:24.575Z</time>
      </trkpt>
      <trkpt lat="45.66649" lon="5.46083">
        <ele>219</ele>
        <time>2021-07-20T05:28:25.576Z</time>
      </trkpt>
      <trkpt lat="45.66652" lon="5.46094">
        <ele>220</ele>
        <time>2021-07-20T05:28:26.576Z</time>
      </trkpt>
      <trkpt lat="45.66655" lon="5.46105">
        <ele>220</ele>
        <time>2021-07-20T05:28:27.576Z</time>
      </trkpt>
      <trkpt lat="45.66658" lon="5.46117">
        <ele>220</ele>
        <time>2021-07-20T05:28:28.575Z</time>
      </trkpt>
      <trkpt lat="45.6666" lon="5.46129">
        <ele>220</ele>
        <time>2021-07-20T05:28:29.575Z</time>
      </trkpt>
      <trkpt lat="45.66662" lon="5.46141">
        <ele>220</ele>
        <time>2021-07-20T05:28:30.576Z</time>
      </trkpt>
      <trkpt lat="45.66665" lon="5.46151">
        <ele>220</ele>
        <time>2021-07-20T05:28:31.575Z</time>
      </trkpt>
      <trkpt lat="45.66667" lon="5.46162">
        <ele>220</ele>
        <time>2021-07-20T05:28:32.575Z</time>
      </trkpt>
      <trkpt lat="45.66669" lon="5.46171">
        <ele>220</ele>
        <time>2021-07-20T05:28:33.576Z</time>
      </trkpt>
      <trkpt lat="45.66672" lon="5.46183">
        <ele>219</ele>
        <time>2021-07-20T05:28:34.575Z</time>
      </trkpt>
      <trkpt lat="45.66674" lon="5.46193">
        <ele>219</ele>
        <time>2021-07-20T05:28:35.575Z</time>
      </trkpt>
      <trkpt lat="45.66677" lon="5.46204">
        <ele>219</ele>
        <time>2021-07-20T05:28:36.575Z</time>
      </trkpt>
      <trkpt lat="45.66679" lon="5.46215">
        <ele>219</ele>
        <time>2021-07-20T05:28:37.575Z</time>
      </trkpt>
      <trkpt lat="45.66682" lon="5.46226">
        <ele>219</ele>
        <time>2021-07-20T05:28:38.575Z</time>
      </trkpt>
      <trkpt lat="45.66684" lon="5.46237">
        <ele>219</ele>
        <time>2021-07-20T05:28:39.575Z</time>
      </trkpt>
      <trkpt lat="45.66687" lon="5.46248">
        <ele>218</ele>
        <time>2021-07-20T05:28:40.575Z</time>
      </trkpt>
      <trkpt lat="45.66689" lon="5.4626">
        <ele>218</ele>
        <time>2021-07-20T05:28:41.575Z</time>
      </trkpt>
      <trkpt lat="45.66692" lon="5.46271">
        <ele>218</ele>
        <time>2021-07-20T05:28:42.575Z</time>
      </trkpt>
      <trkpt lat="45.66694" lon="5.46282">
        <ele>219</ele>
        <time>2021-07-20T05:28:43.575Z</time>
      </trkpt>
      <trkpt lat="45.66697" lon="5.46293">
        <ele>219</ele>
        <time>2021-07-20T05:28:44.575Z</time>
      </trkpt>
      <trkpt lat="45.66699" lon="5.46304">
        <ele>220</ele>
        <time>2021-07-20T05:28:45.576Z</time>
      </trkpt>
      <trkpt lat="45.66702" lon="5.46314">
        <ele>220</ele>
        <time>2021-07-20T05:28:46.575Z</time>
      </trkpt>
      <trkpt lat="45.66704" lon="5.46324">
        <ele>220</ele>
        <time>2021-07-20T05:28:47.575Z</time>
      </trkpt>
      <trkpt lat="45.66706" lon="5.46334">
        <ele>219</ele>
        <time>2021-07-20T05:28:48.575Z</time>
      </trkpt>
      <trkpt lat="45.66708" lon="5.46344">
        <ele>219</ele>
        <time>2021-07-20T05:28:49.575Z</time>
      </trkpt>
      <trkpt lat="45.6671" lon="5.46353">
        <ele>219</ele>
        <time>2021-07-20T05:28:50.575Z</time>
      </trkpt>
      <trkpt lat="45.66712" lon="5.46361">
        <ele>219</ele>
        <time>2021-07-20T05:28:51.576Z</time>
      </trkpt>
      <trkpt lat="45.66715" lon="5.4637">
        <ele>219</ele>
        <time>2021-07-20T05:28:52.575Z</time>
      </trkpt>
      <trkpt lat="45.66717" lon="5.46379">
        <ele>219</ele>
        <time>2021-07-20T05:28:53.575Z</time>
      </trkpt>
      <trkpt lat="45.6672" lon="5.46387">
        <ele>220</ele>
        <time>2021-07-20T05:28:54.575Z</time>
      </trkpt>
      <trkpt lat="45.66722" lon="5.46395">
        <ele>221</ele>
        <time>2021-07-20T05:28:55.575Z</time>
      </trkpt>
      <trkpt lat="45.66724" lon="5.46403">
        <ele>221</ele>
        <time>2021-07-20T05:28:56.576Z</time>
      </trkpt>
      <trkpt lat="45.66726" lon="5.46411">
        <ele>222</ele>
        <time>2021-07-20T05:28:57.575Z</time>
      </trkpt>
      <trkpt lat="45.66729" lon="5.46418">
        <ele>222</ele>
        <time>2021-07-20T05:28:58.575Z</time>
      </trkpt>
      <trkpt lat="45.66731" lon="5.46426">
        <ele>222</ele>
        <time>2021-07-20T05:28:59.575Z</time>
      </trkpt>
      <trkpt lat="45.66733" lon="5.46433">
        <ele>222</ele>
        <time>2021-07-20T05:29:00.576Z</time>
      </trkpt>
      <trkpt lat="45.66736" lon="5.4644">
        <ele>223</ele>
        <time>2021-07-20T05:29:01.575Z</time>
      </trkpt>
      <trkpt lat="45.66739" lon="5.46447">
        <ele>223</ele>
        <time>2021-07-20T05:29:02.575Z</time>
      </trkpt>
      <trkpt lat="45.66742" lon="5.46453">
        <ele>223</ele>
        <time>2021-07-20T05:29:03.575Z</time>
      </trkpt>
      <trkpt lat="45.66746" lon="5.46459">
        <ele>224</ele>
        <time>2021-07-20T05:29:04.576Z</time>
      </trkpt>
      <trkpt lat="45.66749" lon="5.46465">
        <ele>224</ele>
        <time>2021-07-20T05:29:05.575Z</time>
      </trkpt>
      <trkpt lat="45.66753" lon="5.4647">
        <ele>225</ele>
        <time>2021-07-20T05:29:06.576Z</time>
      </trkpt>
      <trkpt lat="45.66757" lon="5.46476">
        <ele>226</ele>
        <time>2021-07-20T05:29:07.576Z</time>
      </trkpt>
      <trkpt lat="45.66761" lon="5.46481">
        <ele>226</ele>
        <time>2021-07-20T05:29:08.575Z</time>
      </trkpt>
      <trkpt lat="45.66765" lon="5.46486">
        <ele>227</ele>
        <time>2021-07-20T05:29:09.576Z</time>
      </trkpt>
      <trkpt lat="45.6677" lon="5.46492">
        <ele>227</ele>
        <time>2021-07-20T05:29:10.575Z</time>
      </trkpt>
      <trkpt lat="45.66775" lon="5.46498">
        <ele>227</ele>
        <time>2021-07-20T05:29:11.576Z</time>
      </trkpt>
      <trkpt lat="45.6678" lon="5.46503">
        <ele>227</ele>
        <time>2021-07-20T05:29:12.576Z</time>
      </trkpt>
      <trkpt lat="45.66785" lon="5.46508">
        <ele>227</ele>
        <time>2021-07-20T05:29:13.575Z</time>
      </trkpt>
      <trkpt lat="45.6679" lon="5.46514">
        <ele>226</ele>
        <time>2021-07-20T05:29:14.575Z</time>
      </trkpt>
      <trkpt lat="45.66795" lon="5.4652">
        <ele>226</ele>
        <time>2021-07-20T05:29:15.575Z</time>
      </trkpt>
      <trkpt lat="45.66801" lon="5.46526">
        <ele>226</ele>
        <time>2021-07-20T05:29:16.575Z</time>
      </trkpt>
      <trkpt lat="45.66806" lon="5.46532">
        <ele>226</ele>
        <time>2021-07-20T05:29:17.576Z</time>
      </trkpt>
      <trkpt lat="45.66811" lon="5.46537">
        <ele>226</ele>
        <time>2021-07-20T05:29:18.575Z</time>
      </trkpt>
      <trkpt lat="45.66817" lon="5.46543">
        <ele>226</ele>
        <time>2021-07-20T05:29:19.576Z</time>
      </trkpt>
      <trkpt lat="45.66823" lon="5.46549">
        <ele>226</ele>
        <time>2021-07-20T05:29:20.576Z</time>
      </trkpt>
      <trkpt lat="45.6683" lon="5.46555">
        <ele>227</ele>
        <time>2021-07-20T05:29:21.575Z</time>
      </trkpt>
      <trkpt lat="45.66836" lon="5.46562">
        <ele>227</ele>
        <time>2021-07-20T05:29:22.575Z</time>
      </trkpt>
      <trkpt lat="45.66842" lon="5.46568">
        <ele>227</ele>
        <time>2021-07-20T05:29:23.575Z</time>
      </trkpt>
      <trkpt lat="45.66849" lon="5.46575">
        <ele>227</ele>
        <time>2021-07-20T05:29:24.575Z</time>
      </trkpt>
      <trkpt lat="45.66855" lon="5.46582">
        <ele>227</ele>
        <time>2021-07-20T05:29:25.575Z</time>
      </trkpt>
      <trkpt lat="45.66861" lon="5.4659">
        <ele>227</ele>
        <time>2021-07-20T05:29:26.575Z</time>
      </trkpt>
      <trkpt lat="45.66867" lon="5.46597">
        <ele>227</ele>
        <time>2021-07-20T05:29:27.576Z</time>
      </trkpt>
      <trkpt lat="45.66874" lon="5.46605">
        <ele>227</ele>
        <time>2021-07-20T05:29:28.576Z</time>
      </trkpt>
      <trkpt lat="45.6688" lon="5.46612">
        <ele>227</ele>
        <time>2021-07-20T05:29:29.576Z</time>
      </trkpt>
      <trkpt lat="45.66886" lon="5.4662">
        <ele>227</ele>
        <time>2021-07-20T05:29:30.575Z</time>
      </trkpt>
      <trkpt lat="45.66892" lon="5.46627">
        <ele>227</ele>
        <time>2021-07-20T05:29:31.575Z</time>
      </trkpt>
      <trkpt lat="45.66899" lon="5.46634">
        <ele>226</ele>
        <time>2021-07-20T05:29:32.575Z</time>
      </trkpt>
      <trkpt lat="45.66906" lon="5.46642">
        <ele>225</ele>
        <time>2021-07-20T05:29:33.575Z</time>
      </trkpt>
      <trkpt lat="45.66912" lon="5.46649">
        <ele>224</ele>
        <time>2021-07-20T05:29:34.576Z</time>
      </trkpt>
      <trkpt lat="45.66919" lon="5.46657">
        <ele>224</ele>
        <time>2021-07-20T05:29:35.575Z</time>
      </trkpt>
      <trkpt lat="45.66926" lon="5.46664">
        <ele>224</ele>
        <time>2021-07-20T05:29:36.575Z</time>
      </trkpt>
      <trkpt lat="45.66932" lon="5.46672">
        <ele>225</ele>
        <time>2021-07-20T05:29:37.575Z</time>
      </trkpt>
      <trkpt lat="45.66939" lon="5.46679">
        <ele>224</ele>
        <time>2021-07-20T05:29:38.575Z</time>
      </trkpt>
      <trkpt lat="45.66946" lon="5.46686">
        <ele>224</ele>
        <time>2021-07-20T05:29:39.576Z</time>
      </trkpt>
      <trkpt lat="45.66952" lon="5.46693">
        <ele>224</ele>
        <time>2021-07-20T05:29:40.576Z</time>
      </trkpt>
      <trkpt lat="45.66958" lon="5.46701">
        <ele>224</ele>
        <time>2021-07-20T05:29:41.575Z</time>
      </trkpt>
      <trkpt lat="45.66964" lon="5.46708">
        <ele>223</ele>
        <time>2021-07-20T05:29:42.575Z</time>
      </trkpt>
      <trkpt lat="45.66971" lon="5.46715">
        <ele>223</ele>
        <time>2021-07-20T05:29:43.575Z</time>
      </trkpt>
      <trkpt lat="45.66978" lon="5.46723">
        <ele>223</ele>
        <time>2021-07-20T05:29:44.575Z</time>
      </trkpt>
      <trkpt lat="45.66984" lon="5.4673">
        <ele>222</ele>
        <time>2021-07-20T05:29:45.575Z</time>
      </trkpt>
      <trkpt lat="45.66991" lon="5.46737">
        <ele>222</ele>
        <time>2021-07-20T05:29:46.576Z</time>
      </trkpt>
      <trkpt lat="45.66997" lon="5.46744">
        <ele>222</ele>
        <time>2021-07-20T05:29:47.575Z</time>
      </trkpt>
      <trkpt lat="45.67004" lon="5.46751">
        <ele>222</ele>
        <time>2021-07-20T05:29:48.575Z</time>
      </trkpt>
      <trkpt lat="45.6701" lon="5.46759">
        <ele>221</ele>
        <time>2021-07-20T05:29:49.575Z</time>
      </trkpt>
      <trkpt lat="45.67017" lon="5.46766">
        <ele>221</ele>
        <time>2021-07-20T05:29:50.575Z</time>
      </trkpt>
      <trkpt lat="45.67023" lon="5.46773">
        <ele>221</ele>
        <time>2021-07-20T05:29:51.575Z</time>
      </trkpt>
      <trkpt lat="45.6703" lon="5.46781">
        <ele>221</ele>
        <time>2021-07-20T05:29:52.575Z</time>
      </trkpt>
      <trkpt lat="45.67036" lon="5.46788">
        <ele>220</ele>
        <time>2021-07-20T05:29:53.575Z</time>
      </trkpt>
      <trkpt lat="45.67042" lon="5.46795">
        <ele>220</ele>
        <time>2021-07-20T05:29:54.576Z</time>
      </trkpt>
      <trkpt lat="45.67048" lon="5.46803">
        <ele>220</ele>
        <time>2021-07-20T05:29:55.575Z</time>
      </trkpt>
      <trkpt lat="45.67054" lon="5.4681">
        <ele>220</ele>
        <time>2021-07-20T05:29:56.575Z</time>
      </trkpt>
      <trkpt lat="45.6706" lon="5.46818">
        <ele>220</ele>
        <time>2021-07-20T05:29:57.575Z</time>
      </trkpt>
      <trkpt lat="45.67065" lon="5.46827">
        <ele>219</ele>
        <time>2021-07-20T05:29:58.575Z</time>
      </trkpt>
      <trkpt lat="45.6707" lon="5.46836">
        <ele>219</ele>
        <time>2021-07-20T05:29:59.575Z</time>
      </trkpt>
      <trkpt lat="45.67074" lon="5.46846">
        <ele>219</ele>
        <time>2021-07-20T05:30:00.575Z</time>
      </trkpt>
      <trkpt lat="45.67078" lon="5.46856">
        <ele>218</ele>
        <time>2021-07-20T05:30:01.575Z</time>
      </trkpt>
      <trkpt lat="45.67082" lon="5.46866">
        <ele>218</ele>
        <time>2021-07-20T05:30:02.575Z</time>
      </trkpt>
      <trkpt lat="45.67086" lon="5.46876">
        <ele>218</ele>
        <time>2021-07-20T05:30:03.575Z</time>
      </trkpt>
      <trkpt lat="45.67089" lon="5.46887">
        <ele>217</ele>
        <time>2021-07-20T05:30:04.575Z</time>
      </trkpt>
      <trkpt lat="45.67093" lon="5.46897">
        <ele>217</ele>
        <time>2021-07-20T05:30:05.575Z</time>
      </trkpt>
      <trkpt lat="45.67096" lon="5.46907">
        <ele>217</ele>
        <time>2021-07-20T05:30:06.575Z</time>
      </trkpt>
      <trkpt lat="45.671" lon="5.46917">
        <ele>216</ele>
        <time>2021-07-20T05:30:07.575Z</time>
      </trkpt>
      <trkpt lat="45.67103" lon="5.46928">
        <ele>216</ele>
        <time>2021-07-20T05:30:08.575Z</time>
      </trkpt>
      <trkpt lat="45.67107" lon="5.46938">
        <ele>216</ele>
        <time>2021-07-20T05:30:09.575Z</time>
      </trkpt>
      <trkpt lat="45.67111" lon="5.46948">
        <ele>216</ele>
        <time>2021-07-20T05:30:10.575Z</time>
      </trkpt>
      <trkpt lat="45.67114" lon="5.46958">
        <ele>216</ele>
        <time>2021-07-20T05:30:11.576Z</time>
      </trkpt>
      <trkpt lat="45.67117" lon="5.46969">
        <ele>216</ele>
        <time>2021-07-20T05:30:12.576Z</time>
      </trkpt>
      <trkpt lat="45.67121" lon="5.46979">
        <ele>216</ele>
        <time>2021-07-20T05:30:13.576Z</time>
      </trkpt>
      <trkpt lat="45.67125" lon="5.46989">
        <ele>216</ele>
        <time>2021-07-20T05:30:14.575Z</time>
      </trkpt>
      <trkpt lat="45.67128" lon="5.46999">
        <ele>216</ele>
        <time>2021-07-20T05:30:15.575Z</time>
      </trkpt>
      <trkpt lat="45.67132" lon="5.47009">
        <ele>216</ele>
        <time>2021-07-20T05:30:16.575Z</time>
      </trkpt>
      <trkpt lat="45.67135" lon="5.47018">
        <ele>216</ele>
        <time>2021-07-20T05:30:17.576Z</time>
      </trkpt>
      <trkpt lat="45.67137" lon="5.47028">
        <ele>215</ele>
        <time>2021-07-20T05:30:18.576Z</time>
      </trkpt>
      <trkpt lat="45.67137" lon="5.47037">
        <ele>215</ele>
        <time>2021-07-20T05:30:19.575Z</time>
      </trkpt>
      <trkpt lat="45.67137" lon="5.47046">
        <ele>215</ele>
        <time>2021-07-20T05:30:20.575Z</time>
      </trkpt>
      <trkpt lat="45.67136" lon="5.47053">
        <ele>215</ele>
        <time>2021-07-20T05:30:21.575Z</time>
      </trkpt>
      <trkpt lat="45.67134" lon="5.47061">
        <ele>214</ele>
        <time>2021-07-20T05:30:22.575Z</time>
      </trkpt>
      <trkpt lat="45.67134" lon="5.47069">
        <ele>214</ele>
        <time>2021-07-20T05:30:23.575Z</time>
      </trkpt>
      <trkpt lat="45.67135" lon="5.47076">
        <ele>214</ele>
        <time>2021-07-20T05:30:24.575Z</time>
      </trkpt>
      <trkpt lat="45.67138" lon="5.47081">
        <ele>214</ele>
        <time>2021-07-20T05:30:25.575Z</time>
      </trkpt>
      <trkpt lat="45.67141" lon="5.47084">
        <ele>213</ele>
        <time>2021-07-20T05:30:26.575Z</time>
      </trkpt>
      <trkpt lat="45.67147" lon="5.47084">
        <ele>213</ele>
        <time>2021-07-20T05:30:27.576Z</time>
      </trkpt>
      <trkpt lat="45.67152" lon="5.47083">
        <ele>213</ele>
        <time>2021-07-20T05:30:28.575Z</time>
      </trkpt>
      <trkpt lat="45.67158" lon="5.47082">
        <ele>212</ele>
        <time>2021-07-20T05:30:29.575Z</time>
      </trkpt>
      <trkpt lat="45.67165" lon="5.47081">
        <ele>212</ele>
        <time>2021-07-20T05:30:30.575Z</time>
      </trkpt>
      <trkpt lat="45.67171" lon="5.47081">
        <ele>212</ele>
        <time>2021-07-20T05:30:31.575Z</time>
      </trkpt>
      <trkpt lat="45.67178" lon="5.4708">
        <ele>212</ele>
        <time>2021-07-20T05:30:32.575Z</time>
      </trkpt>
      <trkpt lat="45.67186" lon="5.47081">
        <ele>212</ele>
        <time>2021-07-20T05:30:33.575Z</time>
      </trkpt>
      <trkpt lat="45.67193" lon="5.47081">
        <ele>212</ele>
        <time>2021-07-20T05:30:34.575Z</time>
      </trkpt>
      <trkpt lat="45.67201" lon="5.47081">
        <ele>212</ele>
        <time>2021-07-20T05:30:35.576Z</time>
      </trkpt>
      <trkpt lat="45.67209" lon="5.4708">
        <ele>213</ele>
        <time>2021-07-20T05:30:36.575Z</time>
      </trkpt>
      <trkpt lat="45.67217" lon="5.4708">
        <ele>213</ele>
        <time>2021-07-20T05:30:37.575Z</time>
      </trkpt>
      <trkpt lat="45.67225" lon="5.4708">
        <ele>214</ele>
        <time>2021-07-20T05:30:38.575Z</time>
      </trkpt>
      <trkpt lat="45.67232" lon="5.47081">
        <ele>214</ele>
        <time>2021-07-20T05:30:39.575Z</time>
      </trkpt>
      <trkpt lat="45.67239" lon="5.47081">
        <ele>215</ele>
        <time>2021-07-20T05:30:40.575Z</time>
      </trkpt>
      <trkpt lat="45.67247" lon="5.47082">
        <ele>215</ele>
        <time>2021-07-20T05:30:41.576Z</time>
      </trkpt>
      <trkpt lat="45.67254" lon="5.47083">
        <ele>215</ele>
        <time>2021-07-20T05:30:42.575Z</time>
      </trkpt>
      <trkpt lat="45.67261" lon="5.47086">
        <ele>216</ele>
        <time>2021-07-20T05:30:43.575Z</time>
      </trkpt>
      <trkpt lat="45.67267" lon="5.47091">
        <ele>215</ele>
        <time>2021-07-20T05:30:44.575Z</time>
      </trkpt>
      <trkpt lat="45.67272" lon="5.47097">
        <ele>215</ele>
        <time>2021-07-20T05:30:45.575Z</time>
      </trkpt>
      <trkpt lat="45.67276" lon="5.47105">
        <ele>215</ele>
        <time>2021-07-20T05:30:46.575Z</time>
      </trkpt>
      <trkpt lat="45.6728" lon="5.47114">
        <ele>215</ele>
        <time>2021-07-20T05:30:47.575Z</time>
      </trkpt>
      <trkpt lat="45.67281" lon="5.47124">
        <ele>215</ele>
        <time>2021-07-20T05:30:48.576Z</time>
      </trkpt>
      <trkpt lat="45.67282" lon="5.47134">
        <ele>215</ele>
        <time>2021-07-20T05:30:49.575Z</time>
      </trkpt>
      <trkpt lat="45.67281" lon="5.47144">
        <ele>214</ele>
        <time>2021-07-20T05:30:50.575Z</time>
      </trkpt>
      <trkpt lat="45.67281" lon="5.47156">
        <ele>214</ele>
        <time>2021-07-20T05:30:51.575Z</time>
      </trkpt>
      <trkpt lat="45.6728" lon="5.47168">
        <ele>214</ele>
        <time>2021-07-20T05:30:52.576Z</time>
      </trkpt>
      <trkpt lat="45.67279" lon="5.47179">
        <ele>214</ele>
        <time>2021-07-20T05:30:53.576Z</time>
      </trkpt>
      <trkpt lat="45.67278" lon="5.4719">
        <ele>214</ele>
        <time>2021-07-20T05:30:54.576Z</time>
      </trkpt>
      <trkpt lat="45.67277" lon="5.47201">
        <ele>213</ele>
        <time>2021-07-20T05:30:55.575Z</time>
      </trkpt>
      <trkpt lat="45.67276" lon="5.47212">
        <ele>213</ele>
        <time>2021-07-20T05:30:56.576Z</time>
      </trkpt>
      <trkpt lat="45.67275" lon="5.47223">
        <ele>212</ele>
        <time>2021-07-20T05:30:57.576Z</time>
      </trkpt>
      <trkpt lat="45.67274" lon="5.47232">
        <ele>212</ele>
        <time>2021-07-20T05:30:58.575Z</time>
      </trkpt>
      <trkpt lat="45.67274" lon="5.47245">
        <ele>212</ele>
        <time>2021-07-20T05:30:59.575Z</time>
      </trkpt>
      <trkpt lat="45.67272" lon="5.47256">
        <ele>211</ele>
        <time>2021-07-20T05:31:00.576Z</time>
      </trkpt>
      <trkpt lat="45.67271" lon="5.47266">
        <ele>211</ele>
        <time>2021-07-20T05:31:01.575Z</time>
      </trkpt>
      <trkpt lat="45.6727" lon="5.47277">
        <ele>211</ele>
        <time>2021-07-20T05:31:02.575Z</time>
      </trkpt>
      <trkpt lat="45.67269" lon="5.47288">
        <ele>211</ele>
        <time>2021-07-20T05:31:03.575Z</time>
      </trkpt>
      <trkpt lat="45.67268" lon="5.47298">
        <ele>211</ele>
        <time>2021-07-20T05:31:04.576Z</time>
      </trkpt>
      <trkpt lat="45.67267" lon="5.47309">
        <ele>210</ele>
        <time>2021-07-20T05:31:05.575Z</time>
      </trkpt>
      <trkpt lat="45.67266" lon="5.4732">
        <ele>210</ele>
        <time>2021-07-20T05:31:06.575Z</time>
      </trkpt>
      <trkpt lat="45.67265" lon="5.47331">
        <ele>210</ele>
        <time>2021-07-20T05:31:07.576Z</time>
      </trkpt>
      <trkpt lat="45.67264" lon="5.47341">
        <ele>209</ele>
        <time>2021-07-20T05:31:08.575Z</time>
      </trkpt>
      <trkpt lat="45.67263" lon="5.47352">
        <ele>209</ele>
        <time>2021-07-20T05:31:09.575Z</time>
      </trkpt>
      <trkpt lat="45.67261" lon="5.47363">
        <ele>209</ele>
        <time>2021-07-20T05:31:10.575Z</time>
      </trkpt>
      <trkpt lat="45.6726" lon="5.47374">
        <ele>209</ele>
        <time>2021-07-20T05:31:11.575Z</time>
      </trkpt>
      <trkpt lat="45.67258" lon="5.47385">
        <ele>209</ele>
        <time>2021-07-20T05:31:12.575Z</time>
      </trkpt>
      <trkpt lat="45.67257" lon="5.47396">
        <ele>209</ele>
        <time>2021-07-20T05:31:13.575Z</time>
      </trkpt>
      <trkpt lat="45.67256" lon="5.47407">
        <ele>208</ele>
        <time>2021-07-20T05:31:14.575Z</time>
      </trkpt>
      <trkpt lat="45.67255" lon="5.47418">
        <ele>208</ele>
        <time>2021-07-20T05:31:15.575Z</time>
      </trkpt>
      <trkpt lat="45.67254" lon="5.47429">
        <ele>208</ele>
        <time>2021-07-20T05:31:16.575Z</time>
      </trkpt>
      <trkpt lat="45.67254" lon="5.4744">
        <ele>207</ele>
        <time>2021-07-20T05:31:17.575Z</time>
      </trkpt>
      <trkpt lat="45.67254" lon="5.47452">
        <ele>207</ele>
        <time>2021-07-20T05:31:18.575Z</time>
      </trkpt>
      <trkpt lat="45.67254" lon="5.47463">
        <ele>207</ele>
        <time>2021-07-20T05:31:19.576Z</time>
      </trkpt>
      <trkpt lat="45.67254" lon="5.47474">
        <ele>207</ele>
        <time>2021-07-20T05:31:20.575Z</time>
      </trkpt>
      <trkpt lat="45.67253" lon="5.47485">
        <ele>207</ele>
        <time>2021-07-20T05:31:21.575Z</time>
      </trkpt>
      <trkpt lat="45.67253" lon="5.47497">
        <ele>207</ele>
        <time>2021-07-20T05:31:22.575Z</time>
      </trkpt>
      <trkpt lat="45.67252" lon="5.47508">
        <ele>208</ele>
        <time>2021-07-20T05:31:23.575Z</time>
      </trkpt>
      <trkpt lat="45.67252" lon="5.47519">
        <ele>208</ele>
        <time>2021-07-20T05:31:24.576Z</time>
      </trkpt>
      <trkpt lat="45.67251" lon="5.4753">
        <ele>208</ele>
        <time>2021-07-20T05:31:25.575Z</time>
      </trkpt>
      <trkpt lat="45.67251" lon="5.47541">
        <ele>208</ele>
        <time>2021-07-20T05:31:26.575Z</time>
      </trkpt>
      <trkpt lat="45.6725" lon="5.47553">
        <ele>208</ele>
        <time>2021-07-20T05:31:27.575Z</time>
      </trkpt>
      <trkpt lat="45.6725" lon="5.47564">
        <ele>209</ele>
        <time>2021-07-20T05:31:28.576Z</time>
      </trkpt>
      <trkpt lat="45.67249" lon="5.47575">
        <ele>209</ele>
        <time>2021-07-20T05:31:29.575Z</time>
      </trkpt>
      <trkpt lat="45.67249" lon="5.47586">
        <ele>209</ele>
        <time>2021-07-20T05:31:30.576Z</time>
      </trkpt>
      <trkpt lat="45.67248" lon="5.47597">
        <ele>209</ele>
        <time>2021-07-20T05:31:31.576Z</time>
      </trkpt>
      <trkpt lat="45.67248" lon="5.47608">
        <ele>209</ele>
        <time>2021-07-20T05:31:32.575Z</time>
      </trkpt>
      <trkpt lat="45.67247" lon="5.47619">
        <ele>209</ele>
        <time>2021-07-20T05:31:33.576Z</time>
      </trkpt>
      <trkpt lat="45.67247" lon="5.4763">
        <ele>209</ele>
        <time>2021-07-20T05:31:34.576Z</time>
      </trkpt>
      <trkpt lat="45.67246" lon="5.4764">
        <ele>209</ele>
        <time>2021-07-20T05:31:35.575Z</time>
      </trkpt>
      <trkpt lat="45.67245" lon="5.47651">
        <ele>209</ele>
        <time>2021-07-20T05:31:36.575Z</time>
      </trkpt>
      <trkpt lat="45.67245" lon="5.47662">
        <ele>209</ele>
        <time>2021-07-20T05:31:37.575Z</time>
      </trkpt>
      <trkpt lat="45.67245" lon="5.47673">
        <ele>209</ele>
        <time>2021-07-20T05:31:38.575Z</time>
      </trkpt>
      <trkpt lat="45.67244" lon="5.47684">
        <ele>209</ele>
        <time>2021-07-20T05:31:39.576Z</time>
      </trkpt>
      <trkpt lat="45.67244" lon="5.47694">
        <ele>208</ele>
        <time>2021-07-20T05:31:40.575Z</time>
      </trkpt>
      <trkpt lat="45.67243" lon="5.47705">
        <ele>208</ele>
        <time>2021-07-20T05:31:41.575Z</time>
      </trkpt>
      <trkpt lat="45.67243" lon="5.47716">
        <ele>208</ele>
        <time>2021-07-20T05:31:42.575Z</time>
      </trkpt>
      <trkpt lat="45.67242" lon="5.47726">
        <ele>208</ele>
        <time>2021-07-20T05:31:43.575Z</time>
      </trkpt>
      <trkpt lat="45.67242" lon="5.47737">
        <ele>208</ele>
        <time>2021-07-20T05:31:44.575Z</time>
      </trkpt>
      <trkpt lat="45.67241" lon="5.47747">
        <ele>208</ele>
        <time>2021-07-20T05:31:45.575Z</time>
      </trkpt>
      <trkpt lat="45.67241" lon="5.47758">
        <ele>208</ele>
        <time>2021-07-20T05:31:46.575Z</time>
      </trkpt>
      <trkpt lat="45.6724" lon="5.47768">
        <ele>208</ele>
        <time>2021-07-20T05:31:47.575Z</time>
      </trkpt>
      <trkpt lat="45.67239" lon="5.47778">
        <ele>207</ele>
        <time>2021-07-20T05:31:48.575Z</time>
      </trkpt>
      <trkpt lat="45.67239" lon="5.47788">
        <ele>207</ele>
        <time>2021-07-20T05:31:49.576Z</time>
      </trkpt>
      <trkpt lat="45.67238" lon="5.47798">
        <ele>207</ele>
        <time>2021-07-20T05:31:50.575Z</time>
      </trkpt>
      <trkpt lat="45.67238" lon="5.47809">
        <ele>207</ele>
        <time>2021-07-20T05:31:51.575Z</time>
      </trkpt>
      <trkpt lat="45.67238" lon="5.47819">
        <ele>207</ele>
        <time>2021-07-20T05:31:52.575Z</time>
      </trkpt>
      <trkpt lat="45.67237" lon="5.47829">
        <ele>207</ele>
        <time>2021-07-20T05:31:53.575Z</time>
      </trkpt>
      <trkpt lat="45.67237" lon="5.4784">
        <ele>207</ele>
        <time>2021-07-20T05:31:54.575Z</time>
      </trkpt>
      <trkpt lat="45.67237" lon="5.4785">
        <ele>207</ele>
        <time>2021-07-20T05:31:55.575Z</time>
      </trkpt>
      <trkpt lat="45.67236" lon="5.47861">
        <ele>207</ele>
        <time>2021-07-20T05:31:56.575Z</time>
      </trkpt>
      <trkpt lat="45.67236" lon="5.47871">
        <ele>207</ele>
        <time>2021-07-20T05:31:57.575Z</time>
      </trkpt>
      <trkpt lat="45.67235" lon="5.47881">
        <ele>207</ele>
        <time>2021-07-20T05:31:58.575Z</time>
      </trkpt>
      <trkpt lat="45.67235" lon="5.47892">
        <ele>207</ele>
        <time>2021-07-20T05:31:59.575Z</time>
      </trkpt>
      <trkpt lat="45.67234" lon="5.47902">
        <ele>207</ele>
        <time>2021-07-20T05:32:00.576Z</time>
      </trkpt>
      <trkpt lat="45.67234" lon="5.47912">
        <ele>207</ele>
        <time>2021-07-20T05:32:01.575Z</time>
      </trkpt>
      <trkpt lat="45.67234" lon="5.47922">
        <ele>207</ele>
        <time>2021-07-20T05:32:02.575Z</time>
      </trkpt>
      <trkpt lat="45.67233" lon="5.47932">
        <ele>207</ele>
        <time>2021-07-20T05:32:03.575Z</time>
      </trkpt>
      <trkpt lat="45.67233" lon="5.47943">
        <ele>207</ele>
        <time>2021-07-20T05:32:04.576Z</time>
      </trkpt>
      <trkpt lat="45.67232" lon="5.47953">
        <ele>207</ele>
        <time>2021-07-20T05:32:05.575Z</time>
      </trkpt>
      <trkpt lat="45.67232" lon="5.47963">
        <ele>207</ele>
        <time>2021-07-20T05:32:06.575Z</time>
      </trkpt>
      <trkpt lat="45.67231" lon="5.47973">
        <ele>207</ele>
        <time>2021-07-20T05:32:07.575Z</time>
      </trkpt>
      <trkpt lat="45.67231" lon="5.47984">
        <ele>207</ele>
        <time>2021-07-20T05:32:08.575Z</time>
      </trkpt>
      <trkpt lat="45.6723" lon="5.47994">
        <ele>207</ele>
        <time>2021-07-20T05:32:09.576Z</time>
      </trkpt>
      <trkpt lat="45.6723" lon="5.48004">
        <ele>207</ele>
        <time>2021-07-20T05:32:10.576Z</time>
      </trkpt>
      <trkpt lat="45.67229" lon="5.48014">
        <ele>207</ele>
        <time>2021-07-20T05:32:11.575Z</time>
      </trkpt>
      <trkpt lat="45.67228" lon="5.48024">
        <ele>207</ele>
        <time>2021-07-20T05:32:12.575Z</time>
      </trkpt>
      <trkpt lat="45.67228" lon="5.48035">
        <ele>207</ele>
        <time>2021-07-20T05:32:13.575Z</time>
      </trkpt>
      <trkpt lat="45.67228" lon="5.48045">
        <ele>207</ele>
        <time>2021-07-20T05:32:14.575Z</time>
      </trkpt>
      <trkpt lat="45.67227" lon="5.48055">
        <ele>207</ele>
        <time>2021-07-20T05:32:15.575Z</time>
      </trkpt>
      <trkpt lat="45.67227" lon="5.48065">
        <ele>206</ele>
        <time>2021-07-20T05:32:16.575Z</time>
      </trkpt>
      <trkpt lat="45.67226" lon="5.48075">
        <ele>206</ele>
        <time>2021-07-20T05:32:17.575Z</time>
      </trkpt>
      <trkpt lat="45.67226" lon="5.48086">
        <ele>206</ele>
        <time>2021-07-20T05:32:18.575Z</time>
      </trkpt>
      <trkpt lat="45.67225" lon="5.48096">
        <ele>206</ele>
        <time>2021-07-20T05:32:19.576Z</time>
      </trkpt>
      <trkpt lat="45.67225" lon="5.48107">
        <ele>207</ele>
        <time>2021-07-20T05:32:20.576Z</time>
      </trkpt>
      <trkpt lat="45.67224" lon="5.48117">
        <ele>207</ele>
        <time>2021-07-20T05:32:21.575Z</time>
      </trkpt>
      <trkpt lat="45.67224" lon="5.48127">
        <ele>207</ele>
        <time>2021-07-20T05:32:22.576Z</time>
      </trkpt>
      <trkpt lat="45.67223" lon="5.48137">
        <ele>207</ele>
        <time>2021-07-20T05:32:23.575Z</time>
      </trkpt>
      <trkpt lat="45.67223" lon="5.48147">
        <ele>207</ele>
        <time>2021-07-20T05:32:24.576Z</time>
      </trkpt>
      <trkpt lat="45.67222" lon="5.48157">
        <ele>207</ele>
        <time>2021-07-20T05:32:25.575Z</time>
      </trkpt>
      <trkpt lat="45.67222" lon="5.48167">
        <ele>207</ele>
        <time>2021-07-20T05:32:26.575Z</time>
      </trkpt>
      <trkpt lat="45.67221" lon="5.48177">
        <ele>207</ele>
        <time>2021-07-20T05:32:27.576Z</time>
      </trkpt>
      <trkpt lat="45.67221" lon="5.48187">
        <ele>207</ele>
        <time>2021-07-20T05:32:28.576Z</time>
      </trkpt>
      <trkpt lat="45.67221" lon="5.48198">
        <ele>208</ele>
        <time>2021-07-20T05:32:29.576Z</time>
      </trkpt>
      <trkpt lat="45.67221" lon="5.48208">
        <ele>208</ele>
        <time>2021-07-20T05:32:30.576Z</time>
      </trkpt>
      <trkpt lat="45.6722" lon="5.48218">
        <ele>208</ele>
        <time>2021-07-20T05:32:31.575Z</time>
      </trkpt>
      <trkpt lat="45.6722" lon="5.48227">
        <ele>207</ele>
        <time>2021-07-20T05:32:32.575Z</time>
      </trkpt>
      <trkpt lat="45.67219" lon="5.48237">
        <ele>207</ele>
        <time>2021-07-20T05:32:33.576Z</time>
      </trkpt>
      <trkpt lat="45.67219" lon="5.48248">
        <ele>207</ele>
        <time>2021-07-20T05:32:34.576Z</time>
      </trkpt>
      <trkpt lat="45.67218" lon="5.48258">
        <ele>207</ele>
        <time>2021-07-20T05:32:35.576Z</time>
      </trkpt>
      <trkpt lat="45.67218" lon="5.48268">
        <ele>206</ele>
        <time>2021-07-20T05:32:36.575Z</time>
      </trkpt>
      <trkpt lat="45.67217" lon="5.48278">
        <ele>206</ele>
        <time>2021-07-20T05:32:37.575Z</time>
      </trkpt>
      <trkpt lat="45.67217" lon="5.48288">
        <ele>206</ele>
        <time>2021-07-20T05:32:38.575Z</time>
      </trkpt>
      <trkpt lat="45.67217" lon="5.48298">
        <ele>206</ele>
        <time>2021-07-20T05:32:39.575Z</time>
      </trkpt>
      <trkpt lat="45.67216" lon="5.48309">
        <ele>206</ele>
        <time>2021-07-20T05:32:40.576Z</time>
      </trkpt>
      <trkpt lat="45.67216" lon="5.48319">
        <ele>206</ele>
        <time>2021-07-20T05:32:41.575Z</time>
      </trkpt>
      <trkpt lat="45.67215" lon="5.48329">
        <ele>207</ele>
        <time>2021-07-20T05:32:42.576Z</time>
      </trkpt>
      <trkpt lat="45.67215" lon="5.48338">
        <ele>207</ele>
        <time>2021-07-20T05:32:43.575Z</time>
      </trkpt>
      <trkpt lat="45.67215" lon="5.48348">
        <ele>207</ele>
        <time>2021-07-20T05:32:44.576Z</time>
      </trkpt>
      <trkpt lat="45.67214" lon="5.48358">
        <ele>207</ele>
        <time>2021-07-20T05:32:45.576Z</time>
      </trkpt>
      <trkpt lat="45.67214" lon="5.48368">
        <ele>208</ele>
        <time>2021-07-20T05:32:46.575Z</time>
      </trkpt>
      <trkpt lat="45.67214" lon="5.48378">
        <ele>208</ele>
        <time>2021-07-20T05:32:47.575Z</time>
      </trkpt>
      <trkpt lat="45.67213" lon="5.48388">
        <ele>208</ele>
        <time>2021-07-20T05:32:48.575Z</time>
      </trkpt>
      <trkpt lat="45.67213" lon="5.48397">
        <ele>208</ele>
        <time>2021-07-20T05:32:49.575Z</time>
      </trkpt>
      <trkpt lat="45.67212" lon="5.48407">
        <ele>208</ele>
        <time>2021-07-20T05:32:50.576Z</time>
      </trkpt>
      <trkpt lat="45.67212" lon="5.48417">
        <ele>208</ele>
        <time>2021-07-20T05:32:51.575Z</time>
      </trkpt>
      <trkpt lat="45.67211" lon="5.48426">
        <ele>208</ele>
        <time>2021-07-20T05:32:52.575Z</time>
      </trkpt>
      <trkpt lat="45.67211" lon="5.48436">
        <ele>208</ele>
        <time>2021-07-20T05:32:53.576Z</time>
      </trkpt>
      <trkpt lat="45.6721" lon="5.48446">
        <ele>208</ele>
        <time>2021-07-20T05:32:54.576Z</time>
      </trkpt>
      <trkpt lat="45.67209" lon="5.48456">
        <ele>208</ele>
        <time>2021-07-20T05:32:55.576Z</time>
      </trkpt>
      <trkpt lat="45.67209" lon="5.48466">
        <ele>208</ele>
        <time>2021-07-20T05:32:56.575Z</time>
      </trkpt>
      <trkpt lat="45.67208" lon="5.48476">
        <ele>208</ele>
        <time>2021-07-20T05:32:57.576Z</time>
      </trkpt>
      <trkpt lat="45.67208" lon="5.48486">
        <ele>208</ele>
        <time>2021-07-20T05:32:58.575Z</time>
      </trkpt>
      <trkpt lat="45.67207" lon="5.48496">
        <ele>208</ele>
        <time>2021-07-20T05:32:59.575Z</time>
      </trkpt>
      <trkpt lat="45.67207" lon="5.48506">
        <ele>208</ele>
        <time>2021-07-20T05:33:00.575Z</time>
      </trkpt>
      <trkpt lat="45.67206" lon="5.48516">
        <ele>208</ele>
        <time>2021-07-20T05:33:01.575Z</time>
      </trkpt>
      <trkpt lat="45.67206" lon="5.48526">
        <ele>208</ele>
        <time>2021-07-20T05:33:02.575Z</time>
      </trkpt>
      <trkpt lat="45.67206" lon="5.48536">
        <ele>208</ele>
        <time>2021-07-20T05:33:03.575Z</time>
      </trkpt>
      <trkpt lat="45.67205" lon="5.48546">
        <ele>208</ele>
        <time>2021-07-20T05:33:04.575Z</time>
      </trkpt>
      <trkpt lat="45.67205" lon="5.48556">
        <ele>208</ele>
        <time>2021-07-20T05:33:05.576Z</time>
      </trkpt>
      <trkpt lat="45.67204" lon="5.48566">
        <ele>208</ele>
        <time>2021-07-20T05:33:06.576Z</time>
      </trkpt>
      <trkpt lat="45.67204" lon="5.48576">
        <ele>208</ele>
        <time>2021-07-20T05:33:07.575Z</time>
      </trkpt>
      <trkpt lat="45.67203" lon="5.48586">
        <ele>208</ele>
        <time>2021-07-20T05:33:08.576Z</time>
      </trkpt>
      <trkpt lat="45.67202" lon="5.48596">
        <ele>208</ele>
        <time>2021-07-20T05:33:09.576Z</time>
      </trkpt>
      <trkpt lat="45.67202" lon="5.48606">
        <ele>208</ele>
        <time>2021-07-20T05:33:10.576Z</time>
      </trkpt>
      <trkpt lat="45.67201" lon="5.48616">
        <ele>208</ele>
        <time>2021-07-20T05:33:11.575Z</time>
      </trkpt>
      <trkpt lat="45.672" lon="5.48626">
        <ele>208</ele>
        <time>2021-07-20T05:33:12.575Z</time>
      </trkpt>
      <trkpt lat="45.67199" lon="5.48636">
        <ele>208</ele>
        <time>2021-07-20T05:33:13.575Z</time>
      </trkpt>
      <trkpt lat="45.67198" lon="5.48646">
        <ele>207</ele>
        <time>2021-07-20T05:33:14.575Z</time>
      </trkpt>
      <trkpt lat="45.67197" lon="5.48656">
        <ele>207</ele>
        <time>2021-07-20T05:33:15.575Z</time>
      </trkpt>
      <trkpt lat="45.67196" lon="5.48667">
        <ele>208</ele>
        <time>2021-07-20T05:33:16.575Z</time>
      </trkpt>
      <trkpt lat="45.67196" lon="5.48677">
        <ele>208</ele>
        <time>2021-07-20T05:33:17.575Z</time>
      </trkpt>
      <trkpt lat="45.67196" lon="5.48687">
        <ele>208</ele>
        <time>2021-07-20T05:33:18.575Z</time>
      </trkpt>
      <trkpt lat="45.67195" lon="5.48697">
        <ele>209</ele>
        <time>2021-07-20T05:33:19.576Z</time>
      </trkpt>
      <trkpt lat="45.67194" lon="5.48707">
        <ele>209</ele>
        <time>2021-07-20T05:33:20.575Z</time>
      </trkpt>
      <trkpt lat="45.67193" lon="5.48718">
        <ele>210</ele>
        <time>2021-07-20T05:33:21.575Z</time>
      </trkpt>
      <trkpt lat="45.67192" lon="5.48728">
        <ele>210</ele>
        <time>2021-07-20T05:33:22.575Z</time>
      </trkpt>
      <trkpt lat="45.67191" lon="5.48738">
        <ele>210</ele>
        <time>2021-07-20T05:33:23.576Z</time>
      </trkpt>
      <trkpt lat="45.6719" lon="5.48748">
        <ele>210</ele>
        <time>2021-07-20T05:33:24.575Z</time>
      </trkpt>
      <trkpt lat="45.67188" lon="5.48758">
        <ele>210</ele>
        <time>2021-07-20T05:33:25.575Z</time>
      </trkpt>
      <trkpt lat="45.67187" lon="5.48768">
        <ele>210</ele>
        <time>2021-07-20T05:33:26.576Z</time>
      </trkpt>
      <trkpt lat="45.67186" lon="5.48778">
        <ele>209</ele>
        <time>2021-07-20T05:33:27.575Z</time>
      </trkpt>
      <trkpt lat="45.67185" lon="5.48787">
        <ele>209</ele>
        <time>2021-07-20T05:33:28.576Z</time>
      </trkpt>
      <trkpt lat="45.67183" lon="5.48797">
        <ele>209</ele>
        <time>2021-07-20T05:33:29.575Z</time>
      </trkpt>
      <trkpt lat="45.67182" lon="5.48807">
        <ele>209</ele>
        <time>2021-07-20T05:33:30.575Z</time>
      </trkpt>
      <trkpt lat="45.67181" lon="5.48817">
        <ele>209</ele>
        <time>2021-07-20T05:33:31.575Z</time>
      </trkpt>
      <trkpt lat="45.67179" lon="5.48827">
        <ele>209</ele>
        <time>2021-07-20T05:33:32.575Z</time>
      </trkpt>
      <trkpt lat="45.67178" lon="5.48837">
        <ele>209</ele>
        <time>2021-07-20T05:33:33.576Z</time>
      </trkpt>
      <trkpt lat="45.67177" lon="5.48848">
        <ele>210</ele>
        <time>2021-07-20T05:33:34.575Z</time>
      </trkpt>
      <trkpt lat="45.67176" lon="5.48858">
        <ele>210</ele>
        <time>2021-07-20T05:33:35.576Z</time>
      </trkpt>
      <trkpt lat="45.67175" lon="5.48868">
        <ele>210</ele>
        <time>2021-07-20T05:33:36.575Z</time>
      </trkpt>
      <trkpt lat="45.67174" lon="5.48878">
        <ele>210</ele>
        <time>2021-07-20T05:33:37.575Z</time>
      </trkpt>
      <trkpt lat="45.67173" lon="5.48888">
        <ele>211</ele>
        <time>2021-07-20T05:33:38.575Z</time>
      </trkpt>
      <trkpt lat="45.67171" lon="5.48898">
        <ele>210</ele>
        <time>2021-07-20T05:33:39.575Z</time>
      </trkpt>
      <trkpt lat="45.6717" lon="5.48909">
        <ele>210</ele>
        <time>2021-07-20T05:33:40.575Z</time>
      </trkpt>
      <trkpt lat="45.67168" lon="5.48919">
        <ele>210</ele>
        <time>2021-07-20T05:33:41.576Z</time>
      </trkpt>
      <trkpt lat="45.67167" lon="5.48929">
        <ele>210</ele>
        <time>2021-07-20T05:33:42.575Z</time>
      </trkpt>
      <trkpt lat="45.67166" lon="5.48939">
        <ele>210</ele>
        <time>2021-07-20T05:33:43.575Z</time>
      </trkpt>
      <trkpt lat="45.67165" lon="5.48949">
        <ele>210</ele>
        <time>2021-07-20T05:33:44.575Z</time>
      </trkpt>
      <trkpt lat="45.67163" lon="5.48959">
        <ele>210</ele>
        <time>2021-07-20T05:33:45.575Z</time>
      </trkpt>
      <trkpt lat="45.67162" lon="5.48969">
        <ele>210</ele>
        <time>2021-07-20T05:33:46.575Z</time>
      </trkpt>
      <trkpt lat="45.67161" lon="5.48979">
        <ele>209</ele>
        <time>2021-07-20T05:33:47.575Z</time>
      </trkpt>
      <trkpt lat="45.6716" lon="5.48989">
        <ele>209</ele>
        <time>2021-07-20T05:33:48.575Z</time>
      </trkpt>
      <trkpt lat="45.67158" lon="5.49">
        <ele>209</ele>
        <time>2021-07-20T05:33:49.575Z</time>
      </trkpt>
      <trkpt lat="45.67157" lon="5.4901">
        <ele>208</ele>
        <time>2021-07-20T05:33:50.575Z</time>
      </trkpt>
      <trkpt lat="45.67156" lon="5.4902">
        <ele>208</ele>
        <time>2021-07-20T05:33:51.575Z</time>
      </trkpt>
      <trkpt lat="45.67154" lon="5.4903">
        <ele>208</ele>
        <time>2021-07-20T05:33:52.575Z</time>
      </trkpt>
      <trkpt lat="45.67153" lon="5.4904">
        <ele>208</ele>
        <time>2021-07-20T05:33:53.575Z</time>
      </trkpt>
      <trkpt lat="45.67151" lon="5.4905">
        <ele>208</ele>
        <time>2021-07-20T05:33:54.575Z</time>
      </trkpt>
      <trkpt lat="45.6715" lon="5.4906">
        <ele>208</ele>
        <time>2021-07-20T05:33:55.575Z</time>
      </trkpt>
      <trkpt lat="45.67148" lon="5.4907">
        <ele>208</ele>
        <time>2021-07-20T05:33:56.576Z</time>
      </trkpt>
      <trkpt lat="45.67147" lon="5.49081">
        <ele>208</ele>
        <time>2021-07-20T05:33:57.575Z</time>
      </trkpt>
      <trkpt lat="45.67146" lon="5.49091">
        <ele>208</ele>
        <time>2021-07-20T05:33:58.575Z</time>
      </trkpt>
      <trkpt lat="45.67144" lon="5.49101">
        <ele>208</ele>
        <time>2021-07-20T05:33:59.576Z</time>
      </trkpt>
      <trkpt lat="45.67143" lon="5.49111">
        <ele>208</ele>
        <time>2021-07-20T05:34:00.575Z</time>
      </trkpt>
      <trkpt lat="45.67142" lon="5.49121">
        <ele>208</ele>
        <time>2021-07-20T05:34:01.575Z</time>
      </trkpt>
      <trkpt lat="45.67141" lon="5.49131">
        <ele>208</ele>
        <time>2021-07-20T05:34:02.575Z</time>
      </trkpt>
      <trkpt lat="45.67139" lon="5.49141">
        <ele>208</ele>
        <time>2021-07-20T05:34:03.575Z</time>
      </trkpt>
      <trkpt lat="45.67138" lon="5.49151">
        <ele>208</ele>
        <time>2021-07-20T05:34:04.575Z</time>
      </trkpt>
      <trkpt lat="45.67136" lon="5.49162">
        <ele>208</ele>
        <time>2021-07-20T05:34:05.575Z</time>
      </trkpt>
      <trkpt lat="45.67135" lon="5.49172">
        <ele>208</ele>
        <time>2021-07-20T05:34:06.575Z</time>
      </trkpt>
      <trkpt lat="45.67133" lon="5.49182">
        <ele>208</ele>
        <time>2021-07-20T05:34:07.575Z</time>
      </trkpt>
      <trkpt lat="45.67132" lon="5.49192">
        <ele>208</ele>
        <time>2021-07-20T05:34:08.575Z</time>
      </trkpt>
      <trkpt lat="45.6713" lon="5.49202">
        <ele>208</ele>
        <time>2021-07-20T05:34:09.576Z</time>
      </trkpt>
      <trkpt lat="45.67129" lon="5.49212">
        <ele>208</ele>
        <time>2021-07-20T05:34:10.575Z</time>
      </trkpt>
      <trkpt lat="45.67128" lon="5.49222">
        <ele>209</ele>
        <time>2021-07-20T05:34:11.575Z</time>
      </trkpt>
      <trkpt lat="45.67127" lon="5.49232">
        <ele>209</ele>
        <time>2021-07-20T05:34:12.575Z</time>
      </trkpt>
      <trkpt lat="45.67125" lon="5.49243">
        <ele>209</ele>
        <time>2021-07-20T05:34:13.575Z</time>
      </trkpt>
      <trkpt lat="45.67124" lon="5.49253">
        <ele>209</ele>
        <time>2021-07-20T05:34:14.575Z</time>
      </trkpt>
      <trkpt lat="45.67123" lon="5.49263">
        <ele>210</ele>
        <time>2021-07-20T05:34:15.575Z</time>
      </trkpt>
      <trkpt lat="45.67121" lon="5.49273">
        <ele>210</ele>
        <time>2021-07-20T05:34:16.575Z</time>
      </trkpt>
      <trkpt lat="45.6712" lon="5.49283">
        <ele>210</ele>
        <time>2021-07-20T05:34:17.575Z</time>
      </trkpt>
      <trkpt lat="45.67119" lon="5.49293">
        <ele>209</ele>
        <time>2021-07-20T05:34:18.575Z</time>
      </trkpt>
      <trkpt lat="45.67117" lon="5.49303">
        <ele>209</ele>
        <time>2021-07-20T05:34:19.575Z</time>
      </trkpt>
      <trkpt lat="45.67116" lon="5.49314">
        <ele>209</ele>
        <time>2021-07-20T05:34:20.576Z</time>
      </trkpt>
      <trkpt lat="45.67115" lon="5.49324">
        <ele>209</ele>
        <time>2021-07-20T05:34:21.575Z</time>
      </trkpt>
      <trkpt lat="45.67114" lon="5.49334">
        <ele>209</ele>
        <time>2021-07-20T05:34:22.575Z</time>
      </trkpt>
      <trkpt lat="45.67112" lon="5.49344">
        <ele>209</ele>
        <time>2021-07-20T05:34:23.575Z</time>
      </trkpt>
      <trkpt lat="45.67111" lon="5.49353">
        <ele>208</ele>
        <time>2021-07-20T05:34:24.575Z</time>
      </trkpt>
      <trkpt lat="45.6711" lon="5.49365">
        <ele>208</ele>
        <time>2021-07-20T05:34:25.575Z</time>
      </trkpt>
      <trkpt lat="45.67108" lon="5.49375">
        <ele>208</ele>
        <time>2021-07-20T05:34:26.575Z</time>
      </trkpt>
      <trkpt lat="45.67107" lon="5.49385">
        <ele>207</ele>
        <time>2021-07-20T05:34:27.575Z</time>
      </trkpt>
      <trkpt lat="45.67105" lon="5.49396">
        <ele>207</ele>
        <time>2021-07-20T05:34:28.575Z</time>
      </trkpt>
      <trkpt lat="45.67105" lon="5.49396">
        <ele>207</ele>
        <time>2021-07-20T05:34:29.576Z</time>
      </trkpt>
      <trkpt lat="45.67103" lon="5.49416">
        <ele>206</ele>
        <time>2021-07-20T05:34:30.576Z</time>
      </trkpt>
      <trkpt lat="45.67102" lon="5.49427">
        <ele>206</ele>
        <time>2021-07-20T05:34:31.575Z</time>
      </trkpt>
      <trkpt lat="45.671" lon="5.49437">
        <ele>206</ele>
        <time>2021-07-20T05:34:32.575Z</time>
      </trkpt>
      <trkpt lat="45.67099" lon="5.49448">
        <ele>206</ele>
        <time>2021-07-20T05:34:33.575Z</time>
      </trkpt>
      <trkpt lat="45.67097" lon="5.49459">
        <ele>207</ele>
        <time>2021-07-20T05:34:34.575Z</time>
      </trkpt>
      <trkpt lat="45.67096" lon="5.4947">
        <ele>207</ele>
        <time>2021-07-20T05:34:35.575Z</time>
      </trkpt>
      <trkpt lat="45.67094" lon="5.4948">
        <ele>206</ele>
        <time>2021-07-20T05:34:36.575Z</time>
      </trkpt>
      <trkpt lat="45.67093" lon="5.49489">
        <ele>206</ele>
        <time>2021-07-20T05:34:37.575Z</time>
      </trkpt>
      <trkpt lat="45.67092" lon="5.495">
        <ele>207</ele>
        <time>2021-07-20T05:34:38.575Z</time>
      </trkpt>
      <trkpt lat="45.6709" lon="5.49513">
        <ele>207</ele>
        <time>2021-07-20T05:34:39.575Z</time>
      </trkpt>
      <trkpt lat="45.67089" lon="5.49524">
        <ele>207</ele>
        <time>2021-07-20T05:34:40.575Z</time>
      </trkpt>
      <trkpt lat="45.67088" lon="5.49536">
        <ele>207</ele>
        <time>2021-07-20T05:34:41.575Z</time>
      </trkpt>
      <trkpt lat="45.67086" lon="5.49547">
        <ele>207</ele>
        <time>2021-07-20T05:34:42.575Z</time>
      </trkpt>
      <trkpt lat="45.67085" lon="5.49558">
        <ele>207</ele>
        <time>2021-07-20T05:34:43.575Z</time>
      </trkpt>
      <trkpt lat="45.67083" lon="5.49569">
        <ele>208</ele>
        <time>2021-07-20T05:34:44.575Z</time>
      </trkpt>
      <trkpt lat="45.67082" lon="5.49581">
        <ele>208</ele>
        <time>2021-07-20T05:34:45.575Z</time>
      </trkpt>
      <trkpt lat="45.67081" lon="5.49592">
        <ele>208</ele>
        <time>2021-07-20T05:34:46.575Z</time>
      </trkpt>
      <trkpt lat="45.6708" lon="5.49603">
        <ele>208</ele>
        <time>2021-07-20T05:34:47.575Z</time>
      </trkpt>
      <trkpt lat="45.67079" lon="5.49615">
        <ele>208</ele>
        <time>2021-07-20T05:34:48.576Z</time>
      </trkpt>
      <trkpt lat="45.67078" lon="5.49626">
        <ele>208</ele>
        <time>2021-07-20T05:34:49.575Z</time>
      </trkpt>
      <trkpt lat="45.67077" lon="5.49637">
        <ele>208</ele>
        <time>2021-07-20T05:34:50.575Z</time>
      </trkpt>
      <trkpt lat="45.67076" lon="5.49649">
        <ele>207</ele>
        <time>2021-07-20T05:34:51.575Z</time>
      </trkpt>
      <trkpt lat="45.67076" lon="5.4966">
        <ele>207</ele>
        <time>2021-07-20T05:34:52.575Z</time>
      </trkpt>
      <trkpt lat="45.67075" lon="5.49671">
        <ele>207</ele>
        <time>2021-07-20T05:34:53.576Z</time>
      </trkpt>
      <trkpt lat="45.67074" lon="5.49682">
        <ele>207</ele>
        <time>2021-07-20T05:34:54.575Z</time>
      </trkpt>
      <trkpt lat="45.67073" lon="5.49694">
        <ele>207</ele>
        <time>2021-07-20T05:34:55.575Z</time>
      </trkpt>
      <trkpt lat="45.67073" lon="5.49705">
        <ele>208</ele>
        <time>2021-07-20T05:34:56.575Z</time>
      </trkpt>
      <trkpt lat="45.67072" lon="5.49716">
        <ele>208</ele>
        <time>2021-07-20T05:34:57.575Z</time>
      </trkpt>
      <trkpt lat="45.67072" lon="5.49727">
        <ele>208</ele>
        <time>2021-07-20T05:34:58.575Z</time>
      </trkpt>
      <trkpt lat="45.67071" lon="5.49738">
        <ele>207</ele>
        <time>2021-07-20T05:34:59.576Z</time>
      </trkpt>
      <trkpt lat="45.6707" lon="5.49749">
        <ele>207</ele>
        <time>2021-07-20T05:35:00.575Z</time>
      </trkpt>
      <trkpt lat="45.67069" lon="5.49759">
        <ele>207</ele>
        <time>2021-07-20T05:35:01.575Z</time>
      </trkpt>
      <trkpt lat="45.67069" lon="5.4977">
        <ele>207</ele>
        <time>2021-07-20T05:35:02.575Z</time>
      </trkpt>
      <trkpt lat="45.67068" lon="5.49781">
        <ele>206</ele>
        <time>2021-07-20T05:35:03.575Z</time>
      </trkpt>
      <trkpt lat="45.67067" lon="5.49792">
        <ele>206</ele>
        <time>2021-07-20T05:35:04.575Z</time>
      </trkpt>
      <trkpt lat="45.67066" lon="5.49802">
        <ele>206</ele>
        <time>2021-07-20T05:35:05.575Z</time>
      </trkpt>
      <trkpt lat="45.67066" lon="5.49813">
        <ele>206</ele>
        <time>2021-07-20T05:35:06.575Z</time>
      </trkpt>
      <trkpt lat="45.67065" lon="5.49824">
        <ele>206</ele>
        <time>2021-07-20T05:35:07.575Z</time>
      </trkpt>
      <trkpt lat="45.67064" lon="5.49834">
        <ele>206</ele>
        <time>2021-07-20T05:35:08.575Z</time>
      </trkpt>
      <trkpt lat="45.67064" lon="5.49845">
        <ele>206</ele>
        <time>2021-07-20T05:35:09.575Z</time>
      </trkpt>
      <trkpt lat="45.67063" lon="5.49855">
        <ele>206</ele>
        <time>2021-07-20T05:35:10.576Z</time>
      </trkpt>
      <trkpt lat="45.67062" lon="5.49866">
        <ele>206</ele>
        <time>2021-07-20T05:35:11.575Z</time>
      </trkpt>
      <trkpt lat="45.67061" lon="5.49877">
        <ele>206</ele>
        <time>2021-07-20T05:35:12.575Z</time>
      </trkpt>
      <trkpt lat="45.67061" lon="5.49887">
        <ele>206</ele>
        <time>2021-07-20T05:35:13.575Z</time>
      </trkpt>
      <trkpt lat="45.6706" lon="5.49898">
        <ele>206</ele>
        <time>2021-07-20T05:35:14.575Z</time>
      </trkpt>
      <trkpt lat="45.6706" lon="5.49909">
        <ele>206</ele>
        <time>2021-07-20T05:35:15.575Z</time>
      </trkpt>
      <trkpt lat="45.67059" lon="5.4992">
        <ele>206</ele>
        <time>2021-07-20T05:35:16.575Z</time>
      </trkpt>
      <trkpt lat="45.67058" lon="5.4993">
        <ele>206</ele>
        <time>2021-07-20T05:35:17.575Z</time>
      </trkpt>
      <trkpt lat="45.67057" lon="5.49941">
        <ele>206</ele>
        <time>2021-07-20T05:35:18.575Z</time>
      </trkpt>
      <trkpt lat="45.67056" lon="5.49952">
        <ele>206</ele>
        <time>2021-07-20T05:35:19.575Z</time>
      </trkpt>
      <trkpt lat="45.67055" lon="5.49963">
        <ele>206</ele>
        <time>2021-07-20T05:35:20.575Z</time>
      </trkpt>
      <trkpt lat="45.67055" lon="5.49974">
        <ele>206</ele>
        <time>2021-07-20T05:35:21.575Z</time>
      </trkpt>
      <trkpt lat="45.67054" lon="5.49985">
        <ele>206</ele>
        <time>2021-07-20T05:35:22.575Z</time>
      </trkpt>
      <trkpt lat="45.67053" lon="5.49996">
        <ele>206</ele>
        <time>2021-07-20T05:35:23.575Z</time>
      </trkpt>
      <trkpt lat="45.67052" lon="5.50007">
        <ele>206</ele>
        <time>2021-07-20T05:35:24.575Z</time>
      </trkpt>
      <trkpt lat="45.67052" lon="5.50018">
        <ele>206</ele>
        <time>2021-07-20T05:35:25.575Z</time>
      </trkpt>
      <trkpt lat="45.67051" lon="5.50029">
        <ele>206</ele>
        <time>2021-07-20T05:35:26.575Z</time>
      </trkpt>
      <trkpt lat="45.67051" lon="5.50039">
        <ele>206</ele>
        <time>2021-07-20T05:35:27.575Z</time>
      </trkpt>
      <trkpt lat="45.6705" lon="5.5005">
        <ele>206</ele>
        <time>2021-07-20T05:35:28.575Z</time>
      </trkpt>
      <trkpt lat="45.67049" lon="5.50061">
        <ele>206</ele>
        <time>2021-07-20T05:35:29.575Z</time>
      </trkpt>
      <trkpt lat="45.67048" lon="5.50072">
        <ele>206</ele>
        <time>2021-07-20T05:35:30.575Z</time>
      </trkpt>
      <trkpt lat="45.67048" lon="5.50082">
        <ele>206</ele>
        <time>2021-07-20T05:35:31.575Z</time>
      </trkpt>
      <trkpt lat="45.67047" lon="5.50093">
        <ele>206</ele>
        <time>2021-07-20T05:35:32.575Z</time>
      </trkpt>
      <trkpt lat="45.67046" lon="5.50104">
        <ele>206</ele>
        <time>2021-07-20T05:35:33.575Z</time>
      </trkpt>
      <trkpt lat="45.67046" lon="5.50114">
        <ele>206</ele>
        <time>2021-07-20T05:35:34.575Z</time>
      </trkpt>
      <trkpt lat="45.67045" lon="5.50125">
        <ele>206</ele>
        <time>2021-07-20T05:35:35.575Z</time>
      </trkpt>
      <trkpt lat="45.67044" lon="5.50135">
        <ele>205</ele>
        <time>2021-07-20T05:35:36.575Z</time>
      </trkpt>
      <trkpt lat="45.67043" lon="5.50146">
        <ele>205</ele>
        <time>2021-07-20T05:35:37.575Z</time>
      </trkpt>
      <trkpt lat="45.67042" lon="5.50157">
        <ele>206</ele>
        <time>2021-07-20T05:35:38.575Z</time>
      </trkpt>
      <trkpt lat="45.67041" lon="5.50167">
        <ele>206</ele>
        <time>2021-07-20T05:35:39.575Z</time>
      </trkpt>
      <trkpt lat="45.6704" lon="5.50178">
        <ele>206</ele>
        <time>2021-07-20T05:35:40.575Z</time>
      </trkpt>
      <trkpt lat="45.6704" lon="5.50189">
        <ele>206</ele>
        <time>2021-07-20T05:35:41.575Z</time>
      </trkpt>
      <trkpt lat="45.67039" lon="5.502">
        <ele>207</ele>
        <time>2021-07-20T05:35:42.575Z</time>
      </trkpt>
      <trkpt lat="45.67038" lon="5.50211">
        <ele>207</ele>
        <time>2021-07-20T05:35:43.575Z</time>
      </trkpt>
      <trkpt lat="45.67037" lon="5.50222">
        <ele>207</ele>
        <time>2021-07-20T05:35:44.575Z</time>
      </trkpt>
      <trkpt lat="45.67037" lon="5.50233">
        <ele>207</ele>
        <time>2021-07-20T05:35:45.575Z</time>
      </trkpt>
      <trkpt lat="45.67036" lon="5.50244">
        <ele>207</ele>
        <time>2021-07-20T05:35:46.576Z</time>
      </trkpt>
      <trkpt lat="45.67035" lon="5.50254">
        <ele>208</ele>
        <time>2021-07-20T05:35:47.575Z</time>
      </trkpt>
      <trkpt lat="45.67034" lon="5.50265">
        <ele>208</ele>
        <time>2021-07-20T05:35:48.575Z</time>
      </trkpt>
      <trkpt lat="45.67033" lon="5.50276">
        <ele>208</ele>
        <time>2021-07-20T05:35:49.576Z</time>
      </trkpt>
      <trkpt lat="45.67032" lon="5.50287">
        <ele>208</ele>
        <time>2021-07-20T05:35:50.575Z</time>
      </trkpt>
      <trkpt lat="45.67032" lon="5.50298">
        <ele>208</ele>
        <time>2021-07-20T05:35:51.575Z</time>
      </trkpt>
      <trkpt lat="45.67031" lon="5.50308">
        <ele>207</ele>
        <time>2021-07-20T05:35:52.575Z</time>
      </trkpt>
      <trkpt lat="45.6703" lon="5.50319">
        <ele>207</ele>
        <time>2021-07-20T05:35:53.575Z</time>
      </trkpt>
      <trkpt lat="45.67029" lon="5.5033">
        <ele>207</ele>
        <time>2021-07-20T05:35:54.575Z</time>
      </trkpt>
      <trkpt lat="45.67028" lon="5.50341">
        <ele>207</ele>
        <time>2021-07-20T05:35:55.575Z</time>
      </trkpt>
      <trkpt lat="45.67027" lon="5.50352">
        <ele>207</ele>
        <time>2021-07-20T05:35:56.575Z</time>
      </trkpt>
      <trkpt lat="45.67027" lon="5.50362">
        <ele>206</ele>
        <time>2021-07-20T05:35:57.576Z</time>
      </trkpt>
      <trkpt lat="45.67026" lon="5.50373">
        <ele>206</ele>
        <time>2021-07-20T05:35:58.575Z</time>
      </trkpt>
      <trkpt lat="45.67026" lon="5.50384">
        <ele>207</ele>
        <time>2021-07-20T05:35:59.575Z</time>
      </trkpt>
      <trkpt lat="45.67025" lon="5.50394">
        <ele>207</ele>
        <time>2021-07-20T05:36:00.576Z</time>
      </trkpt>
      <trkpt lat="45.67024" lon="5.50405">
        <ele>207</ele>
        <time>2021-07-20T05:36:01.575Z</time>
      </trkpt>
      <trkpt lat="45.67024" lon="5.50415">
        <ele>207</ele>
        <time>2021-07-20T05:36:02.576Z</time>
      </trkpt>
      <trkpt lat="45.67023" lon="5.50426">
        <ele>208</ele>
        <time>2021-07-20T05:36:03.576Z</time>
      </trkpt>
      <trkpt lat="45.67022" lon="5.50436">
        <ele>208</ele>
        <time>2021-07-20T05:36:04.575Z</time>
      </trkpt>
      <trkpt lat="45.67022" lon="5.50446">
        <ele>208</ele>
        <time>2021-07-20T05:36:05.575Z</time>
      </trkpt>
      <trkpt lat="45.67021" lon="5.50456">
        <ele>208</ele>
        <time>2021-07-20T05:36:06.575Z</time>
      </trkpt>
      <trkpt lat="45.6702" lon="5.50466">
        <ele>208</ele>
        <time>2021-07-20T05:36:07.575Z</time>
      </trkpt>
      <trkpt lat="45.67019" lon="5.50477">
        <ele>208</ele>
        <time>2021-07-20T05:36:08.575Z</time>
      </trkpt>
      <trkpt lat="45.67018" lon="5.50487">
        <ele>209</ele>
        <time>2021-07-20T05:36:09.575Z</time>
      </trkpt>
      <trkpt lat="45.67017" lon="5.50497">
        <ele>209</ele>
        <time>2021-07-20T05:36:10.575Z</time>
      </trkpt>
      <trkpt lat="45.67016" lon="5.50508">
        <ele>209</ele>
        <time>2021-07-20T05:36:11.575Z</time>
      </trkpt>
      <trkpt lat="45.67016" lon="5.50518">
        <ele>209</ele>
        <time>2021-07-20T05:36:12.575Z</time>
      </trkpt>
      <trkpt lat="45.67015" lon="5.50529">
        <ele>209</ele>
        <time>2021-07-20T05:36:13.575Z</time>
      </trkpt>
      <trkpt lat="45.67014" lon="5.50539">
        <ele>210</ele>
        <time>2021-07-20T05:36:14.575Z</time>
      </trkpt>
      <trkpt lat="45.67013" lon="5.5055">
        <ele>210</ele>
        <time>2021-07-20T05:36:15.575Z</time>
      </trkpt>
      <trkpt lat="45.67012" lon="5.5056">
        <ele>209</ele>
        <time>2021-07-20T05:36:16.575Z</time>
      </trkpt>
      <trkpt lat="45.67011" lon="5.50571">
        <ele>209</ele>
        <time>2021-07-20T05:36:17.575Z</time>
      </trkpt>
      <trkpt lat="45.67011" lon="5.50582">
        <ele>209</ele>
        <time>2021-07-20T05:36:18.576Z</time>
      </trkpt>
      <trkpt lat="45.6701" lon="5.50592">
        <ele>209</ele>
        <time>2021-07-20T05:36:19.575Z</time>
      </trkpt>
      <trkpt lat="45.67009" lon="5.50603">
        <ele>209</ele>
        <time>2021-07-20T05:36:20.575Z</time>
      </trkpt>
      <trkpt lat="45.67009" lon="5.50614">
        <ele>209</ele>
        <time>2021-07-20T05:36:21.575Z</time>
      </trkpt>
      <trkpt lat="45.67008" lon="5.50625">
        <ele>209</ele>
        <time>2021-07-20T05:36:22.575Z</time>
      </trkpt>
      <trkpt lat="45.67008" lon="5.50636">
        <ele>209</ele>
        <time>2021-07-20T05:36:23.575Z</time>
      </trkpt>
      <trkpt lat="45.67007" lon="5.50647">
        <ele>209</ele>
        <time>2021-07-20T05:36:24.575Z</time>
      </trkpt>
      <trkpt lat="45.67007" lon="5.50657">
        <ele>209</ele>
        <time>2021-07-20T05:36:25.575Z</time>
      </trkpt>
      <trkpt lat="45.67007" lon="5.50668">
        <ele>209</ele>
        <time>2021-07-20T05:36:26.575Z</time>
      </trkpt>
      <trkpt lat="45.67007" lon="5.50679">
        <ele>208</ele>
        <time>2021-07-20T05:36:27.575Z</time>
      </trkpt>
      <trkpt lat="45.67008" lon="5.50689">
        <ele>208</ele>
        <time>2021-07-20T05:36:28.576Z</time>
      </trkpt>
      <trkpt lat="45.67008" lon="5.507">
        <ele>208</ele>
        <time>2021-07-20T05:36:29.575Z</time>
      </trkpt>
      <trkpt lat="45.67009" lon="5.50711">
        <ele>208</ele>
        <time>2021-07-20T05:36:30.575Z</time>
      </trkpt>
      <trkpt lat="45.6701" lon="5.50721">
        <ele>208</ele>
        <time>2021-07-20T05:36:31.575Z</time>
      </trkpt>
      <trkpt lat="45.6701" lon="5.50732">
        <ele>208</ele>
        <time>2021-07-20T05:36:32.575Z</time>
      </trkpt>
      <trkpt lat="45.67011" lon="5.50742">
        <ele>208</ele>
        <time>2021-07-20T05:36:33.575Z</time>
      </trkpt>
      <trkpt lat="45.67013" lon="5.50753">
        <ele>207</ele>
        <time>2021-07-20T05:36:34.575Z</time>
      </trkpt>
      <trkpt lat="45.67014" lon="5.50763">
        <ele>207</ele>
        <time>2021-07-20T05:36:35.575Z</time>
      </trkpt>
      <trkpt lat="45.67015" lon="5.50774">
        <ele>207</ele>
        <time>2021-07-20T05:36:36.575Z</time>
      </trkpt>
      <trkpt lat="45.67017" lon="5.50785">
        <ele>207</ele>
        <time>2021-07-20T05:36:37.575Z</time>
      </trkpt>
      <trkpt lat="45.67019" lon="5.50795">
        <ele>207</ele>
        <time>2021-07-20T05:36:38.576Z</time>
      </trkpt>
      <trkpt lat="45.67021" lon="5.50805">
        <ele>206</ele>
        <time>2021-07-20T05:36:39.575Z</time>
      </trkpt>
      <trkpt lat="45.67022" lon="5.50815">
        <ele>206</ele>
        <time>2021-07-20T05:36:40.575Z</time>
      </trkpt>
      <trkpt lat="45.67024" lon="5.50826">
        <ele>206</ele>
        <time>2021-07-20T05:36:41.575Z</time>
      </trkpt>
      <trkpt lat="45.67026" lon="5.50836">
        <ele>206</ele>
        <time>2021-07-20T05:36:42.575Z</time>
      </trkpt>
      <trkpt lat="45.67028" lon="5.50847">
        <ele>207</ele>
        <time>2021-07-20T05:36:43.575Z</time>
      </trkpt>
      <trkpt lat="45.6703" lon="5.50857">
        <ele>207</ele>
        <time>2021-07-20T05:36:44.575Z</time>
      </trkpt>
      <trkpt lat="45.67031" lon="5.50866">
        <ele>207</ele>
        <time>2021-07-20T05:36:45.575Z</time>
      </trkpt>
      <trkpt lat="45.67033" lon="5.50876">
        <ele>207</ele>
        <time>2021-07-20T05:36:46.575Z</time>
      </trkpt>
      <trkpt lat="45.67035" lon="5.50886">
        <ele>207</ele>
        <time>2021-07-20T05:36:47.576Z</time>
      </trkpt>
      <trkpt lat="45.67036" lon="5.50896">
        <ele>207</ele>
        <time>2021-07-20T05:36:48.575Z</time>
      </trkpt>
      <trkpt lat="45.67037" lon="5.50906">
        <ele>207</ele>
        <time>2021-07-20T05:36:49.575Z</time>
      </trkpt>
      <trkpt lat="45.67039" lon="5.50916">
        <ele>207</ele>
        <time>2021-07-20T05:36:50.575Z</time>
      </trkpt>
      <trkpt lat="45.67041" lon="5.50926">
        <ele>206</ele>
        <time>2021-07-20T05:36:51.575Z</time>
      </trkpt>
      <trkpt lat="45.67042" lon="5.50936">
        <ele>206</ele>
        <time>2021-07-20T05:36:52.575Z</time>
      </trkpt>
      <trkpt lat="45.67044" lon="5.50946">
        <ele>206</ele>
        <time>2021-07-20T05:36:53.575Z</time>
      </trkpt>
      <trkpt lat="45.67046" lon="5.50956">
        <ele>206</ele>
        <time>2021-07-20T05:36:54.576Z</time>
      </trkpt>
      <trkpt lat="45.67048" lon="5.50966">
        <ele>206</ele>
        <time>2021-07-20T05:36:55.575Z</time>
      </trkpt>
      <trkpt lat="45.67049" lon="5.50976">
        <ele>206</ele>
        <time>2021-07-20T05:36:56.575Z</time>
      </trkpt>
      <trkpt lat="45.6705" lon="5.50986">
        <ele>206</ele>
        <time>2021-07-20T05:36:57.575Z</time>
      </trkpt>
      <trkpt lat="45.67052" lon="5.50996">
        <ele>206</ele>
        <time>2021-07-20T05:36:58.575Z</time>
      </trkpt>
      <trkpt lat="45.67054" lon="5.51006">
        <ele>207</ele>
        <time>2021-07-20T05:36:59.576Z</time>
      </trkpt>
      <trkpt lat="45.67055" lon="5.51017">
        <ele>207</ele>
        <time>2021-07-20T05:37:00.575Z</time>
      </trkpt>
      <trkpt lat="45.67057" lon="5.51027">
        <ele>207</ele>
        <time>2021-07-20T05:37:01.575Z</time>
      </trkpt>
      <trkpt lat="45.67058" lon="5.51038">
        <ele>207</ele>
        <time>2021-07-20T05:37:02.575Z</time>
      </trkpt>
      <trkpt lat="45.6706" lon="5.51049">
        <ele>208</ele>
        <time>2021-07-20T05:37:03.575Z</time>
      </trkpt>
      <trkpt lat="45.67062" lon="5.51059">
        <ele>208</ele>
        <time>2021-07-20T05:37:04.575Z</time>
      </trkpt>
      <trkpt lat="45.67064" lon="5.5107">
        <ele>208</ele>
        <time>2021-07-20T05:37:05.575Z</time>
      </trkpt>
      <trkpt lat="45.67066" lon="5.51081">
        <ele>208</ele>
        <time>2021-07-20T05:37:06.575Z</time>
      </trkpt>
      <trkpt lat="45.67068" lon="5.51092">
        <ele>208</ele>
        <time>2021-07-20T05:37:07.575Z</time>
      </trkpt>
      <trkpt lat="45.67069" lon="5.51103">
        <ele>208</ele>
        <time>2021-07-20T05:37:08.575Z</time>
      </trkpt>
      <trkpt lat="45.67071" lon="5.51113">
        <ele>208</ele>
        <time>2021-07-20T05:37:09.575Z</time>
      </trkpt>
      <trkpt lat="45.67073" lon="5.51124">
        <ele>208</ele>
        <time>2021-07-20T05:37:10.575Z</time>
      </trkpt>
      <trkpt lat="45.67075" lon="5.51135">
        <ele>209</ele>
        <time>2021-07-20T05:37:11.575Z</time>
      </trkpt>
      <trkpt lat="45.67076" lon="5.51146">
        <ele>209</ele>
        <time>2021-07-20T05:37:12.575Z</time>
      </trkpt>
      <trkpt lat="45.67078" lon="5.51156">
        <ele>209</ele>
        <time>2021-07-20T05:37:13.575Z</time>
      </trkpt>
      <trkpt lat="45.6708" lon="5.51167">
        <ele>210</ele>
        <time>2021-07-20T05:37:14.575Z</time>
      </trkpt>
      <trkpt lat="45.67081" lon="5.51177">
        <ele>210</ele>
        <time>2021-07-20T05:37:15.575Z</time>
      </trkpt>
      <trkpt lat="45.67083" lon="5.51188">
        <ele>210</ele>
        <time>2021-07-20T05:37:16.575Z</time>
      </trkpt>
      <trkpt lat="45.67085" lon="5.51198">
        <ele>210</ele>
        <time>2021-07-20T05:37:17.575Z</time>
      </trkpt>
      <trkpt lat="45.67086" lon="5.51209">
        <ele>209</ele>
        <time>2021-07-20T05:37:18.575Z</time>
      </trkpt>
      <trkpt lat="45.67088" lon="5.5122">
        <ele>209</ele>
        <time>2021-07-20T05:37:19.575Z</time>
      </trkpt>
      <trkpt lat="45.67089" lon="5.51231">
        <ele>209</ele>
        <time>2021-07-20T05:37:20.575Z</time>
      </trkpt>
      <trkpt lat="45.6709" lon="5.51241">
        <ele>209</ele>
        <time>2021-07-20T05:37:21.575Z</time>
      </trkpt>
      <trkpt lat="45.67092" lon="5.51252">
        <ele>209</ele>
        <time>2021-07-20T05:37:22.575Z</time>
      </trkpt>
      <trkpt lat="45.67094" lon="5.51263">
        <ele>209</ele>
        <time>2021-07-20T05:37:23.575Z</time>
      </trkpt>
      <trkpt lat="45.67096" lon="5.51273">
        <ele>209</ele>
        <time>2021-07-20T05:37:24.575Z</time>
      </trkpt>
      <trkpt lat="45.67097" lon="5.51284">
        <ele>210</ele>
        <time>2021-07-20T05:37:25.575Z</time>
      </trkpt>
      <trkpt lat="45.67099" lon="5.51295">
        <ele>210</ele>
        <time>2021-07-20T05:37:26.575Z</time>
      </trkpt>
      <trkpt lat="45.67101" lon="5.51306">
        <ele>210</ele>
        <time>2021-07-20T05:37:27.576Z</time>
      </trkpt>
      <trkpt lat="45.67103" lon="5.51316">
        <ele>210</ele>
        <time>2021-07-20T05:37:28.575Z</time>
      </trkpt>
      <trkpt lat="45.67104" lon="5.51327">
        <ele>209</ele>
        <time>2021-07-20T05:37:29.575Z</time>
      </trkpt>
      <trkpt lat="45.67106" lon="5.51338">
        <ele>209</ele>
        <time>2021-07-20T05:37:30.575Z</time>
      </trkpt>
      <trkpt lat="45.67107" lon="5.51349">
        <ele>209</ele>
        <time>2021-07-20T05:37:31.575Z</time>
      </trkpt>
      <trkpt lat="45.67108" lon="5.5136">
        <ele>209</ele>
        <time>2021-07-20T05:37:32.575Z</time>
      </trkpt>
      <trkpt lat="45.6711" lon="5.51371">
        <ele>209</ele>
        <time>2021-07-20T05:37:33.575Z</time>
      </trkpt>
      <trkpt lat="45.6711" lon="5.51382">
        <ele>209</ele>
        <time>2021-07-20T05:37:34.575Z</time>
      </trkpt>
      <trkpt lat="45.67111" lon="5.51393">
        <ele>208</ele>
        <time>2021-07-20T05:37:35.575Z</time>
      </trkpt>
      <trkpt lat="45.67112" lon="5.51404">
        <ele>208</ele>
        <time>2021-07-20T05:37:36.575Z</time>
      </trkpt>
      <trkpt lat="45.67113" lon="5.51415">
        <ele>207</ele>
        <time>2021-07-20T05:37:37.575Z</time>
      </trkpt>
      <trkpt lat="45.67113" lon="5.51426">
        <ele>207</ele>
        <time>2021-07-20T05:37:38.575Z</time>
      </trkpt>
      <trkpt lat="45.67113" lon="5.51437">
        <ele>207</ele>
        <time>2021-07-20T05:37:39.576Z</time>
      </trkpt>
      <trkpt lat="45.67113" lon="5.51448">
        <ele>207</ele>
        <time>2021-07-20T05:37:40.575Z</time>
      </trkpt>
      <trkpt lat="45.67113" lon="5.51459">
        <ele>207</ele>
        <time>2021-07-20T05:37:41.575Z</time>
      </trkpt>
      <trkpt lat="45.67113" lon="5.5147">
        <ele>206</ele>
        <time>2021-07-20T05:37:42.576Z</time>
      </trkpt>
      <trkpt lat="45.67112" lon="5.51482">
        <ele>206</ele>
        <time>2021-07-20T05:37:43.576Z</time>
      </trkpt>
      <trkpt lat="45.67111" lon="5.51493">
        <ele>206</ele>
        <time>2021-07-20T05:37:44.575Z</time>
      </trkpt>
      <trkpt lat="45.6711" lon="5.51505">
        <ele>207</ele>
        <time>2021-07-20T05:37:45.576Z</time>
      </trkpt>
      <trkpt lat="45.67109" lon="5.51516">
        <ele>207</ele>
        <time>2021-07-20T05:37:46.576Z</time>
      </trkpt>
      <trkpt lat="45.67107" lon="5.51527">
        <ele>207</ele>
        <time>2021-07-20T05:37:47.575Z</time>
      </trkpt>
      <trkpt lat="45.67106" lon="5.51538">
        <ele>207</ele>
        <time>2021-07-20T05:37:48.575Z</time>
      </trkpt>
      <trkpt lat="45.67105" lon="5.5155">
        <ele>207</ele>
        <time>2021-07-20T05:37:49.576Z</time>
      </trkpt>
      <trkpt lat="45.67104" lon="5.51561">
        <ele>208</ele>
        <time>2021-07-20T05:37:50.575Z</time>
      </trkpt>
      <trkpt lat="45.67103" lon="5.51572">
        <ele>208</ele>
        <time>2021-07-20T05:37:51.575Z</time>
      </trkpt>
      <trkpt lat="45.67102" lon="5.51583">
        <ele>208</ele>
        <time>2021-07-20T05:37:52.575Z</time>
      </trkpt>
      <trkpt lat="45.671" lon="5.51594">
        <ele>208</ele>
        <time>2021-07-20T05:37:53.576Z</time>
      </trkpt>
      <trkpt lat="45.67099" lon="5.51605">
        <ele>208</ele>
        <time>2021-07-20T05:37:54.575Z</time>
      </trkpt>
      <trkpt lat="45.67098" lon="5.51616">
        <ele>208</ele>
        <time>2021-07-20T05:37:55.575Z</time>
      </trkpt>
      <trkpt lat="45.67097" lon="5.51627">
        <ele>208</ele>
        <time>2021-07-20T05:37:56.575Z</time>
      </trkpt>
      <trkpt lat="45.67095" lon="5.51638">
        <ele>208</ele>
        <time>2021-07-20T05:37:57.575Z</time>
      </trkpt>
      <trkpt lat="45.67094" lon="5.51649">
        <ele>208</ele>
        <time>2021-07-20T05:37:58.576Z</time>
      </trkpt>
      <trkpt lat="45.67093" lon="5.5166">
        <ele>208</ele>
        <time>2021-07-20T05:37:59.575Z</time>
      </trkpt>
      <trkpt lat="45.67091" lon="5.51671">
        <ele>208</ele>
        <time>2021-07-20T05:38:00.575Z</time>
      </trkpt>
      <trkpt lat="45.6709" lon="5.51682">
        <ele>208</ele>
        <time>2021-07-20T05:38:01.576Z</time>
      </trkpt>
      <trkpt lat="45.67089" lon="5.51692">
        <ele>208</ele>
        <time>2021-07-20T05:38:02.575Z</time>
      </trkpt>
      <trkpt lat="45.67088" lon="5.51703">
        <ele>208</ele>
        <time>2021-07-20T05:38:03.575Z</time>
      </trkpt>
      <trkpt lat="45.67087" lon="5.51714">
        <ele>208</ele>
        <time>2021-07-20T05:38:04.575Z</time>
      </trkpt>
      <trkpt lat="45.67086" lon="5.51725">
        <ele>209</ele>
        <time>2021-07-20T05:38:05.575Z</time>
      </trkpt>
      <trkpt lat="45.67085" lon="5.51736">
        <ele>209</ele>
        <time>2021-07-20T05:38:06.575Z</time>
      </trkpt>
      <trkpt lat="45.67084" lon="5.51746">
        <ele>209</ele>
        <time>2021-07-20T05:38:07.576Z</time>
      </trkpt>
      <trkpt lat="45.67082" lon="5.51757">
        <ele>209</ele>
        <time>2021-07-20T05:38:08.575Z</time>
      </trkpt>
      <trkpt lat="45.67081" lon="5.51768">
        <ele>209</ele>
        <time>2021-07-20T05:38:09.575Z</time>
      </trkpt>
      <trkpt lat="45.6708" lon="5.51779">
        <ele>209</ele>
        <time>2021-07-20T05:38:10.575Z</time>
      </trkpt>
      <trkpt lat="45.67079" lon="5.5179">
        <ele>209</ele>
        <time>2021-07-20T05:38:11.575Z</time>
      </trkpt>
      <trkpt lat="45.67078" lon="5.51801">
        <ele>209</ele>
        <time>2021-07-20T05:38:12.575Z</time>
      </trkpt>
      <trkpt lat="45.67076" lon="5.51812">
        <ele>209</ele>
        <time>2021-07-20T05:38:13.575Z</time>
      </trkpt>
      <trkpt lat="45.67075" lon="5.51823">
        <ele>209</ele>
        <time>2021-07-20T05:38:14.575Z</time>
      </trkpt>
      <trkpt lat="45.67074" lon="5.51833">
        <ele>209</ele>
        <time>2021-07-20T05:38:15.575Z</time>
      </trkpt>
      <trkpt lat="45.67073" lon="5.51845">
        <ele>208</ele>
        <time>2021-07-20T05:38:16.575Z</time>
      </trkpt>
      <trkpt lat="45.67072" lon="5.51856">
        <ele>208</ele>
        <time>2021-07-20T05:38:17.575Z</time>
      </trkpt>
      <trkpt lat="45.67071" lon="5.51867">
        <ele>208</ele>
        <time>2021-07-20T05:38:18.575Z</time>
      </trkpt>
      <trkpt lat="45.67069" lon="5.51878">
        <ele>208</ele>
        <time>2021-07-20T05:38:19.575Z</time>
      </trkpt>
      <trkpt lat="45.67068" lon="5.5189">
        <ele>208</ele>
        <time>2021-07-20T05:38:20.575Z</time>
      </trkpt>
      <trkpt lat="45.67067" lon="5.51901">
        <ele>208</ele>
        <time>2021-07-20T05:38:21.575Z</time>
      </trkpt>
      <trkpt lat="45.67066" lon="5.51912">
        <ele>208</ele>
        <time>2021-07-20T05:38:22.575Z</time>
      </trkpt>
      <trkpt lat="45.67064" lon="5.51923">
        <ele>208</ele>
        <time>2021-07-20T05:38:23.575Z</time>
      </trkpt>
      <trkpt lat="45.67063" lon="5.51935">
        <ele>208</ele>
        <time>2021-07-20T05:38:24.575Z</time>
      </trkpt>
      <trkpt lat="45.67062" lon="5.51946">
        <ele>207</ele>
        <time>2021-07-20T05:38:25.575Z</time>
      </trkpt>
      <trkpt lat="45.6706" lon="5.51957">
        <ele>207</ele>
        <time>2021-07-20T05:38:26.575Z</time>
      </trkpt>
      <trkpt lat="45.67059" lon="5.51968">
        <ele>207</ele>
        <time>2021-07-20T05:38:27.575Z</time>
      </trkpt>
      <trkpt lat="45.67058" lon="5.5198">
        <ele>207</ele>
        <time>2021-07-20T05:38:28.576Z</time>
      </trkpt>
      <trkpt lat="45.67057" lon="5.51991">
        <ele>207</ele>
        <time>2021-07-20T05:38:29.575Z</time>
      </trkpt>
      <trkpt lat="45.67056" lon="5.52003">
        <ele>208</ele>
        <time>2021-07-20T05:38:30.575Z</time>
      </trkpt>
      <trkpt lat="45.67054" lon="5.52014">
        <ele>207</ele>
        <time>2021-07-20T05:38:31.575Z</time>
      </trkpt>
      <trkpt lat="45.67053" lon="5.52026">
        <ele>207</ele>
        <time>2021-07-20T05:38:32.575Z</time>
      </trkpt>
      <trkpt lat="45.67052" lon="5.52038">
        <ele>207</ele>
        <time>2021-07-20T05:38:33.575Z</time>
      </trkpt>
      <trkpt lat="45.67051" lon="5.5205">
        <ele>207</ele>
        <time>2021-07-20T05:38:34.575Z</time>
      </trkpt>
      <trkpt lat="45.6705" lon="5.52061">
        <ele>207</ele>
        <time>2021-07-20T05:38:35.576Z</time>
      </trkpt>
      <trkpt lat="45.67048" lon="5.52073">
        <ele>207</ele>
        <time>2021-07-20T05:38:36.575Z</time>
      </trkpt>
      <trkpt lat="45.67047" lon="5.52084">
        <ele>207</ele>
        <time>2021-07-20T05:38:37.575Z</time>
      </trkpt>
      <trkpt lat="45.67046" lon="5.52096">
        <ele>207</ele>
        <time>2021-07-20T05:38:38.576Z</time>
      </trkpt>
      <trkpt lat="45.67045" lon="5.52107">
        <ele>207</ele>
        <time>2021-07-20T05:38:39.576Z</time>
      </trkpt>
      <trkpt lat="45.67044" lon="5.52119">
        <ele>208</ele>
        <time>2021-07-20T05:38:40.575Z</time>
      </trkpt>
      <trkpt lat="45.67043" lon="5.52131">
        <ele>208</ele>
        <time>2021-07-20T05:38:41.575Z</time>
      </trkpt>
      <trkpt lat="45.67041" lon="5.52142">
        <ele>208</ele>
        <time>2021-07-20T05:38:42.575Z</time>
      </trkpt>
      <trkpt lat="45.6704" lon="5.52154">
        <ele>208</ele>
        <time>2021-07-20T05:38:43.575Z</time>
      </trkpt>
      <trkpt lat="45.67039" lon="5.52165">
        <ele>208</ele>
        <time>2021-07-20T05:38:44.575Z</time>
      </trkpt>
      <trkpt lat="45.67038" lon="5.52177">
        <ele>208</ele>
        <time>2021-07-20T05:38:45.575Z</time>
      </trkpt>
      <trkpt lat="45.67036" lon="5.52188">
        <ele>208</ele>
        <time>2021-07-20T05:38:46.575Z</time>
      </trkpt>
      <trkpt lat="45.67035" lon="5.52199">
        <ele>207</ele>
        <time>2021-07-20T05:38:47.576Z</time>
      </trkpt>
      <trkpt lat="45.67034" lon="5.52211">
        <ele>207</ele>
        <time>2021-07-20T05:38:48.575Z</time>
      </trkpt>
      <trkpt lat="45.67033" lon="5.52222">
        <ele>207</ele>
        <time>2021-07-20T05:38:49.575Z</time>
      </trkpt>
      <trkpt lat="45.67031" lon="5.52233">
        <ele>206</ele>
        <time>2021-07-20T05:38:50.576Z</time>
      </trkpt>
      <trkpt lat="45.6703" lon="5.52244">
        <ele>206</ele>
        <time>2021-07-20T05:38:51.576Z</time>
      </trkpt>
      <trkpt lat="45.67029" lon="5.52255">
        <ele>206</ele>
        <time>2021-07-20T05:38:52.575Z</time>
      </trkpt>
      <trkpt lat="45.67028" lon="5.52266">
        <ele>207</ele>
        <time>2021-07-20T05:38:53.575Z</time>
      </trkpt>
      <trkpt lat="45.67027" lon="5.52277">
        <ele>207</ele>
        <time>2021-07-20T05:38:54.575Z</time>
      </trkpt>
      <trkpt lat="45.67026" lon="5.52288">
        <ele>207</ele>
        <time>2021-07-20T05:38:55.575Z</time>
      </trkpt>
      <trkpt lat="45.67025" lon="5.52299">
        <ele>207</ele>
        <time>2021-07-20T05:38:56.575Z</time>
      </trkpt>
      <trkpt lat="45.67024" lon="5.5231">
        <ele>207</ele>
        <time>2021-07-20T05:38:57.575Z</time>
      </trkpt>
      <trkpt lat="45.67023" lon="5.52321">
        <ele>207</ele>
        <time>2021-07-20T05:38:58.576Z</time>
      </trkpt>
      <trkpt lat="45.67023" lon="5.52321">
        <ele>207</ele>
        <time>2021-07-20T05:38:59.575Z</time>
      </trkpt>
      <trkpt lat="45.67021" lon="5.52343">
        <ele>207</ele>
        <time>2021-07-20T05:39:00.575Z</time>
      </trkpt>
      <trkpt lat="45.67019" lon="5.52354">
        <ele>207</ele>
        <time>2021-07-20T05:39:01.575Z</time>
      </trkpt>
      <trkpt lat="45.67018" lon="5.52365">
        <ele>207</ele>
        <time>2021-07-20T05:39:02.575Z</time>
      </trkpt>
      <trkpt lat="45.67017" lon="5.52376">
        <ele>207</ele>
        <time>2021-07-20T05:39:03.576Z</time>
      </trkpt>
      <trkpt lat="45.67016" lon="5.52387">
        <ele>207</ele>
        <time>2021-07-20T05:39:04.575Z</time>
      </trkpt>
      <trkpt lat="45.67015" lon="5.52399">
        <ele>207</ele>
        <time>2021-07-20T05:39:05.575Z</time>
      </trkpt>
      <trkpt lat="45.67014" lon="5.52411">
        <ele>207</ele>
        <time>2021-07-20T05:39:06.575Z</time>
      </trkpt>
      <trkpt lat="45.67013" lon="5.52422">
        <ele>208</ele>
        <time>2021-07-20T05:39:07.575Z</time>
      </trkpt>
      <trkpt lat="45.67011" lon="5.52433">
        <ele>208</ele>
        <time>2021-07-20T05:39:08.576Z</time>
      </trkpt>
      <trkpt lat="45.6701" lon="5.52445">
        <ele>208</ele>
        <time>2021-07-20T05:39:09.576Z</time>
      </trkpt>
      <trkpt lat="45.67009" lon="5.52456">
        <ele>208</ele>
        <time>2021-07-20T05:39:10.575Z</time>
      </trkpt>
      <trkpt lat="45.67008" lon="5.52468">
        <ele>208</ele>
        <time>2021-07-20T05:39:11.575Z</time>
      </trkpt>
      <trkpt lat="45.67007" lon="5.5248">
        <ele>207</ele>
        <time>2021-07-20T05:39:12.575Z</time>
      </trkpt>
      <trkpt lat="45.67005" lon="5.52491">
        <ele>207</ele>
        <time>2021-07-20T05:39:13.575Z</time>
      </trkpt>
      <trkpt lat="45.67004" lon="5.52503">
        <ele>206</ele>
        <time>2021-07-20T05:39:14.575Z</time>
      </trkpt>
      <trkpt lat="45.67002" lon="5.52514">
        <ele>206</ele>
        <time>2021-07-20T05:39:15.575Z</time>
      </trkpt>
      <trkpt lat="45.67002" lon="5.52514">
        <ele>206</ele>
        <time>2021-07-20T05:39:16.575Z</time>
      </trkpt>
      <trkpt lat="45.67" lon="5.52537">
        <ele>205</ele>
        <time>2021-07-20T05:39:17.575Z</time>
      </trkpt>
      <trkpt lat="45.66998" lon="5.52549">
        <ele>205</ele>
        <time>2021-07-20T05:39:18.576Z</time>
      </trkpt>
      <trkpt lat="45.66997" lon="5.52561">
        <ele>205</ele>
        <time>2021-07-20T05:39:19.575Z</time>
      </trkpt>
      <trkpt lat="45.66996" lon="5.52572">
        <ele>206</ele>
        <time>2021-07-20T05:39:20.576Z</time>
      </trkpt>
      <trkpt lat="45.66994" lon="5.52584">
        <ele>206</ele>
        <time>2021-07-20T05:39:21.576Z</time>
      </trkpt>
      <trkpt lat="45.66993" lon="5.52595">
        <ele>206</ele>
        <time>2021-07-20T05:39:22.575Z</time>
      </trkpt>
      <trkpt lat="45.66991" lon="5.52606">
        <ele>206</ele>
        <time>2021-07-20T05:39:23.575Z</time>
      </trkpt>
      <trkpt lat="45.66989" lon="5.52618">
        <ele>206</ele>
        <time>2021-07-20T05:39:24.575Z</time>
      </trkpt>
      <trkpt lat="45.66989" lon="5.52618">
        <ele>206</ele>
        <time>2021-07-20T05:39:25.576Z</time>
      </trkpt>
      <trkpt lat="45.66986" lon="5.5264">
        <ele>206</ele>
        <time>2021-07-20T05:39:26.575Z</time>
      </trkpt>
      <trkpt lat="45.66985" lon="5.52651">
        <ele>206</ele>
        <time>2021-07-20T05:39:27.576Z</time>
      </trkpt>
      <trkpt lat="45.66983" lon="5.52663">
        <ele>206</ele>
        <time>2021-07-20T05:39:28.575Z</time>
      </trkpt>
      <trkpt lat="45.66981" lon="5.52674">
        <ele>206</ele>
        <time>2021-07-20T05:39:29.575Z</time>
      </trkpt>
      <trkpt lat="45.6698" lon="5.52685">
        <ele>206</ele>
        <time>2021-07-20T05:39:30.575Z</time>
      </trkpt>
      <trkpt lat="45.6698" lon="5.52685">
        <ele>206</ele>
        <time>2021-07-20T05:39:31.575Z</time>
      </trkpt>
      <trkpt lat="45.66977" lon="5.52707">
        <ele>206</ele>
        <time>2021-07-20T05:39:32.576Z</time>
      </trkpt>
      <trkpt lat="45.66975" lon="5.52719">
        <ele>207</ele>
        <time>2021-07-20T05:39:33.575Z</time>
      </trkpt>
      <trkpt lat="45.66974" lon="5.5273">
        <ele>207</ele>
        <time>2021-07-20T05:39:34.575Z</time>
      </trkpt>
      <trkpt lat="45.66973" lon="5.52741">
        <ele>207</ele>
        <time>2021-07-20T05:39:35.575Z</time>
      </trkpt>
      <trkpt lat="45.66972" lon="5.52752">
        <ele>207</ele>
        <time>2021-07-20T05:39:36.575Z</time>
      </trkpt>
      <trkpt lat="45.66971" lon="5.52763">
        <ele>207</ele>
        <time>2021-07-20T05:39:37.575Z</time>
      </trkpt>
      <trkpt lat="45.6697" lon="5.52775">
        <ele>208</ele>
        <time>2021-07-20T05:39:38.575Z</time>
      </trkpt>
      <trkpt lat="45.6697" lon="5.52786">
        <ele>208</ele>
        <time>2021-07-20T05:39:39.575Z</time>
      </trkpt>
      <trkpt lat="45.66969" lon="5.52797">
        <ele>207</ele>
        <time>2021-07-20T05:39:40.575Z</time>
      </trkpt>
      <trkpt lat="45.66968" lon="5.52808">
        <ele>207</ele>
        <time>2021-07-20T05:39:41.576Z</time>
      </trkpt>
      <trkpt lat="45.66967" lon="5.5282">
        <ele>207</ele>
        <time>2021-07-20T05:39:42.575Z</time>
      </trkpt>
      <trkpt lat="45.66966" lon="5.52831">
        <ele>207</ele>
        <time>2021-07-20T05:39:43.575Z</time>
      </trkpt>
      <trkpt lat="45.66965" lon="5.52842">
        <ele>207</ele>
        <time>2021-07-20T05:39:44.575Z</time>
      </trkpt>
      <trkpt lat="45.66965" lon="5.52842">
        <ele>207</ele>
        <time>2021-07-20T05:39:45.575Z</time>
      </trkpt>
      <trkpt lat="45.66963" lon="5.52864">
        <ele>207</ele>
        <time>2021-07-20T05:39:46.575Z</time>
      </trkpt>
      <trkpt lat="45.66963" lon="5.52875">
        <ele>207</ele>
        <time>2021-07-20T05:39:47.575Z</time>
      </trkpt>
      <trkpt lat="45.66962" lon="5.52887">
        <ele>207</ele>
        <time>2021-07-20T05:39:48.575Z</time>
      </trkpt>
      <trkpt lat="45.66961" lon="5.52898">
        <ele>207</ele>
        <time>2021-07-20T05:39:49.575Z</time>
      </trkpt>
      <trkpt lat="45.6696" lon="5.52909">
        <ele>208</ele>
        <time>2021-07-20T05:39:50.575Z</time>
      </trkpt>
      <trkpt lat="45.6696" lon="5.5292">
        <ele>208</ele>
        <time>2021-07-20T05:39:51.575Z</time>
      </trkpt>
      <trkpt lat="45.66959" lon="5.52931">
        <ele>208</ele>
        <time>2021-07-20T05:39:52.576Z</time>
      </trkpt>
      <trkpt lat="45.66958" lon="5.52942">
        <ele>208</ele>
        <time>2021-07-20T05:39:53.576Z</time>
      </trkpt>
      <trkpt lat="45.66957" lon="5.52954">
        <ele>208</ele>
        <time>2021-07-20T05:39:54.575Z</time>
      </trkpt>
      <trkpt lat="45.66956" lon="5.52965">
        <ele>208</ele>
        <time>2021-07-20T05:39:55.575Z</time>
      </trkpt>
      <trkpt lat="45.66956" lon="5.52976">
        <ele>208</ele>
        <time>2021-07-20T05:39:56.576Z</time>
      </trkpt>
      <trkpt lat="45.66955" lon="5.52987">
        <ele>209</ele>
        <time>2021-07-20T05:39:57.575Z</time>
      </trkpt>
      <trkpt lat="45.66954" lon="5.52998">
        <ele>209</ele>
        <time>2021-07-20T05:39:58.575Z</time>
      </trkpt>
      <trkpt lat="45.66953" lon="5.53009">
        <ele>208</ele>
        <time>2021-07-20T05:39:59.576Z</time>
      </trkpt>
      <trkpt lat="45.66952" lon="5.5302">
        <ele>208</ele>
        <time>2021-07-20T05:40:00.575Z</time>
      </trkpt>
      <trkpt lat="45.66951" lon="5.53031">
        <ele>208</ele>
        <time>2021-07-20T05:40:01.575Z</time>
      </trkpt>
      <trkpt lat="45.6695" lon="5.53043">
        <ele>208</ele>
        <time>2021-07-20T05:40:02.575Z</time>
      </trkpt>
      <trkpt lat="45.66949" lon="5.53054">
        <ele>208</ele>
        <time>2021-07-20T05:40:03.575Z</time>
      </trkpt>
      <trkpt lat="45.66948" lon="5.53065">
        <ele>208</ele>
        <time>2021-07-20T05:40:04.576Z</time>
      </trkpt>
      <trkpt lat="45.66947" lon="5.53076">
        <ele>208</ele>
        <time>2021-07-20T05:40:05.576Z</time>
      </trkpt>
      <trkpt lat="45.66946" lon="5.53087">
        <ele>208</ele>
        <time>2021-07-20T05:40:06.576Z</time>
      </trkpt>
      <trkpt lat="45.66945" lon="5.53098">
        <ele>208</ele>
        <time>2021-07-20T05:40:07.575Z</time>
      </trkpt>
      <trkpt lat="45.66945" lon="5.53109">
        <ele>208</ele>
        <time>2021-07-20T05:40:08.575Z</time>
      </trkpt>
      <trkpt lat="45.66944" lon="5.5312">
        <ele>208</ele>
        <time>2021-07-20T05:40:09.575Z</time>
      </trkpt>
      <trkpt lat="45.66943" lon="5.53131">
        <ele>208</ele>
        <time>2021-07-20T05:40:10.575Z</time>
      </trkpt>
      <trkpt lat="45.66943" lon="5.53142">
        <ele>208</ele>
        <time>2021-07-20T05:40:11.575Z</time>
      </trkpt>
      <trkpt lat="45.66942" lon="5.53154">
        <ele>209</ele>
        <time>2021-07-20T05:40:12.575Z</time>
      </trkpt>
      <trkpt lat="45.66941" lon="5.53165">
        <ele>209</ele>
        <time>2021-07-20T05:40:13.575Z</time>
      </trkpt>
      <trkpt lat="45.6694" lon="5.53176">
        <ele>209</ele>
        <time>2021-07-20T05:40:14.575Z</time>
      </trkpt>
      <trkpt lat="45.66939" lon="5.53187">
        <ele>209</ele>
        <time>2021-07-20T05:40:15.575Z</time>
      </trkpt>
      <trkpt lat="45.66938" lon="5.53199">
        <ele>209</ele>
        <time>2021-07-20T05:40:16.575Z</time>
      </trkpt>
      <trkpt lat="45.66937" lon="5.5321">
        <ele>209</ele>
        <time>2021-07-20T05:40:17.575Z</time>
      </trkpt>
      <trkpt lat="45.66936" lon="5.53221">
        <ele>209</ele>
        <time>2021-07-20T05:40:18.575Z</time>
      </trkpt>
      <trkpt lat="45.66935" lon="5.53233">
        <ele>209</ele>
        <time>2021-07-20T05:40:19.575Z</time>
      </trkpt>
      <trkpt lat="45.66934" lon="5.53245">
        <ele>209</ele>
        <time>2021-07-20T05:40:20.575Z</time>
      </trkpt>
      <trkpt lat="45.66933" lon="5.53256">
        <ele>209</ele>
        <time>2021-07-20T05:40:21.575Z</time>
      </trkpt>
      <trkpt lat="45.66932" lon="5.53268">
        <ele>209</ele>
        <time>2021-07-20T05:40:22.575Z</time>
      </trkpt>
      <trkpt lat="45.66931" lon="5.5328">
        <ele>208</ele>
        <time>2021-07-20T05:40:23.575Z</time>
      </trkpt>
      <trkpt lat="45.6693" lon="5.53291">
        <ele>208</ele>
        <time>2021-07-20T05:40:24.575Z</time>
      </trkpt>
      <trkpt lat="45.66929" lon="5.53303">
        <ele>208</ele>
        <time>2021-07-20T05:40:25.575Z</time>
      </trkpt>
      <trkpt lat="45.66928" lon="5.53314">
        <ele>208</ele>
        <time>2021-07-20T05:40:26.575Z</time>
      </trkpt>
      <trkpt lat="45.66927" lon="5.53326">
        <ele>208</ele>
        <time>2021-07-20T05:40:27.575Z</time>
      </trkpt>
      <trkpt lat="45.66926" lon="5.53337">
        <ele>208</ele>
        <time>2021-07-20T05:40:28.576Z</time>
      </trkpt>
      <trkpt lat="45.66926" lon="5.53349">
        <ele>208</ele>
        <time>2021-07-20T05:40:29.576Z</time>
      </trkpt>
      <trkpt lat="45.66925" lon="5.5336">
        <ele>208</ele>
        <time>2021-07-20T05:40:30.575Z</time>
      </trkpt>
      <trkpt lat="45.66924" lon="5.53372">
        <ele>208</ele>
        <time>2021-07-20T05:40:31.575Z</time>
      </trkpt>
      <trkpt lat="45.66923" lon="5.53383">
        <ele>208</ele>
        <time>2021-07-20T05:40:32.575Z</time>
      </trkpt>
      <trkpt lat="45.66922" lon="5.53394">
        <ele>208</ele>
        <time>2021-07-20T05:40:33.575Z</time>
      </trkpt>
      <trkpt lat="45.66921" lon="5.53405">
        <ele>208</ele>
        <time>2021-07-20T05:40:34.575Z</time>
      </trkpt>
      <trkpt lat="45.6692" lon="5.53417">
        <ele>208</ele>
        <time>2021-07-20T05:40:35.575Z</time>
      </trkpt>
      <trkpt lat="45.66919" lon="5.53428">
        <ele>208</ele>
        <time>2021-07-20T05:40:36.576Z</time>
      </trkpt>
      <trkpt lat="45.66918" lon="5.53439">
        <ele>208</ele>
        <time>2021-07-20T05:40:37.575Z</time>
      </trkpt>
      <trkpt lat="45.66917" lon="5.5345">
        <ele>208</ele>
        <time>2021-07-20T05:40:38.576Z</time>
      </trkpt>
      <trkpt lat="45.66917" lon="5.53462">
        <ele>208</ele>
        <time>2021-07-20T05:40:39.576Z</time>
      </trkpt>
      <trkpt lat="45.66916" lon="5.53473">
        <ele>208</ele>
        <time>2021-07-20T05:40:40.576Z</time>
      </trkpt>
      <trkpt lat="45.66915" lon="5.53484">
        <ele>209</ele>
        <time>2021-07-20T05:40:41.576Z</time>
      </trkpt>
      <trkpt lat="45.66914" lon="5.53496">
        <ele>209</ele>
        <time>2021-07-20T05:40:42.575Z</time>
      </trkpt>
      <trkpt lat="45.66913" lon="5.53507">
        <ele>209</ele>
        <time>2021-07-20T05:40:43.575Z</time>
      </trkpt>
      <trkpt lat="45.66912" lon="5.53518">
        <ele>209</ele>
        <time>2021-07-20T05:40:44.575Z</time>
      </trkpt>
      <trkpt lat="45.66912" lon="5.53529">
        <ele>209</ele>
        <time>2021-07-20T05:40:45.575Z</time>
      </trkpt>
      <trkpt lat="45.66911" lon="5.53541">
        <ele>209</ele>
        <time>2021-07-20T05:40:46.576Z</time>
      </trkpt>
      <trkpt lat="45.6691" lon="5.53552">
        <ele>209</ele>
        <time>2021-07-20T05:40:47.575Z</time>
      </trkpt>
      <trkpt lat="45.66909" lon="5.53563">
        <ele>209</ele>
        <time>2021-07-20T05:40:48.575Z</time>
      </trkpt>
      <trkpt lat="45.66908" lon="5.53574">
        <ele>209</ele>
        <time>2021-07-20T05:40:49.575Z</time>
      </trkpt>
      <trkpt lat="45.66907" lon="5.53585">
        <ele>209</ele>
        <time>2021-07-20T05:40:50.575Z</time>
      </trkpt>
      <trkpt lat="45.66907" lon="5.53597">
        <ele>209</ele>
        <time>2021-07-20T05:40:51.575Z</time>
      </trkpt>
      <trkpt lat="45.66906" lon="5.53608">
        <ele>209</ele>
        <time>2021-07-20T05:40:52.576Z</time>
      </trkpt>
      <trkpt lat="45.66905" lon="5.53619">
        <ele>209</ele>
        <time>2021-07-20T05:40:53.575Z</time>
      </trkpt>
      <trkpt lat="45.66904" lon="5.5363">
        <ele>209</ele>
        <time>2021-07-20T05:40:54.576Z</time>
      </trkpt>
      <trkpt lat="45.66903" lon="5.53641">
        <ele>209</ele>
        <time>2021-07-20T05:40:55.575Z</time>
      </trkpt>
      <trkpt lat="45.66902" lon="5.53652">
        <ele>209</ele>
        <time>2021-07-20T05:40:56.575Z</time>
      </trkpt>
      <trkpt lat="45.66901" lon="5.53663">
        <ele>208</ele>
        <time>2021-07-20T05:40:57.575Z</time>
      </trkpt>
      <trkpt lat="45.669" lon="5.53674">
        <ele>208</ele>
        <time>2021-07-20T05:40:58.575Z</time>
      </trkpt>
      <trkpt lat="45.66899" lon="5.53685">
        <ele>208</ele>
        <time>2021-07-20T05:40:59.575Z</time>
      </trkpt>
      <trkpt lat="45.66898" lon="5.53696">
        <ele>208</ele>
        <time>2021-07-20T05:41:00.575Z</time>
      </trkpt>
      <trkpt lat="45.66897" lon="5.53707">
        <ele>208</ele>
        <time>2021-07-20T05:41:01.575Z</time>
      </trkpt>
      <trkpt lat="45.66896" lon="5.53718">
        <ele>208</ele>
        <time>2021-07-20T05:41:02.576Z</time>
      </trkpt>
      <trkpt lat="45.66896" lon="5.53729">
        <ele>208</ele>
        <time>2021-07-20T05:41:03.575Z</time>
      </trkpt>
      <trkpt lat="45.66895" lon="5.5374">
        <ele>207</ele>
        <time>2021-07-20T05:41:04.575Z</time>
      </trkpt>
      <trkpt lat="45.66894" lon="5.53751">
        <ele>207</ele>
        <time>2021-07-20T05:41:05.575Z</time>
      </trkpt>
      <trkpt lat="45.66894" lon="5.53762">
        <ele>207</ele>
        <time>2021-07-20T05:41:06.575Z</time>
      </trkpt>
      <trkpt lat="45.66893" lon="5.53773">
        <ele>207</ele>
        <time>2021-07-20T05:41:07.575Z</time>
      </trkpt>
      <trkpt lat="45.66892" lon="5.53784">
        <ele>208</ele>
        <time>2021-07-20T05:41:08.575Z</time>
      </trkpt>
      <trkpt lat="45.66891" lon="5.53795">
        <ele>208</ele>
        <time>2021-07-20T05:41:09.575Z</time>
      </trkpt>
      <trkpt lat="45.66891" lon="5.53806">
        <ele>208</ele>
        <time>2021-07-20T05:41:10.575Z</time>
      </trkpt>
      <trkpt lat="45.6689" lon="5.53817">
        <ele>208</ele>
        <time>2021-07-20T05:41:11.575Z</time>
      </trkpt>
      <trkpt lat="45.66889" lon="5.53828">
        <ele>208</ele>
        <time>2021-07-20T05:41:12.575Z</time>
      </trkpt>
      <trkpt lat="45.66888" lon="5.53839">
        <ele>208</ele>
        <time>2021-07-20T05:41:13.576Z</time>
      </trkpt>
      <trkpt lat="45.66887" lon="5.5385">
        <ele>208</ele>
        <time>2021-07-20T05:41:14.575Z</time>
      </trkpt>
      <trkpt lat="45.66886" lon="5.53862">
        <ele>208</ele>
        <time>2021-07-20T05:41:15.576Z</time>
      </trkpt>
      <trkpt lat="45.66885" lon="5.53873">
        <ele>209</ele>
        <time>2021-07-20T05:41:16.575Z</time>
      </trkpt>
      <trkpt lat="45.66885" lon="5.53884">
        <ele>209</ele>
        <time>2021-07-20T05:41:17.575Z</time>
      </trkpt>
      <trkpt lat="45.66884" lon="5.53895">
        <ele>209</ele>
        <time>2021-07-20T05:41:18.575Z</time>
      </trkpt>
      <trkpt lat="45.66883" lon="5.53906">
        <ele>210</ele>
        <time>2021-07-20T05:41:19.575Z</time>
      </trkpt>
      <trkpt lat="45.66883" lon="5.53918">
        <ele>210</ele>
        <time>2021-07-20T05:41:20.575Z</time>
      </trkpt>
      <trkpt lat="45.66882" lon="5.53929">
        <ele>210</ele>
        <time>2021-07-20T05:41:21.575Z</time>
      </trkpt>
      <trkpt lat="45.66881" lon="5.5394">
        <ele>210</ele>
        <time>2021-07-20T05:41:22.575Z</time>
      </trkpt>
      <trkpt lat="45.6688" lon="5.53953">
        <ele>210</ele>
        <time>2021-07-20T05:41:23.575Z</time>
      </trkpt>
      <trkpt lat="45.6688" lon="5.53962">
        <ele>209</ele>
        <time>2021-07-20T05:41:24.576Z</time>
      </trkpt>
      <trkpt lat="45.66879" lon="5.53973">
        <ele>209</ele>
        <time>2021-07-20T05:41:25.575Z</time>
      </trkpt>
      <trkpt lat="45.66878" lon="5.53985">
        <ele>209</ele>
        <time>2021-07-20T05:41:26.576Z</time>
      </trkpt>
      <trkpt lat="45.66877" lon="5.53996">
        <ele>209</ele>
        <time>2021-07-20T05:41:27.575Z</time>
      </trkpt>
      <trkpt lat="45.66876" lon="5.54007">
        <ele>209</ele>
        <time>2021-07-20T05:41:28.576Z</time>
      </trkpt>
      <trkpt lat="45.66876" lon="5.54019">
        <ele>209</ele>
        <time>2021-07-20T05:41:29.575Z</time>
      </trkpt>
      <trkpt lat="45.66875" lon="5.5403">
        <ele>209</ele>
        <time>2021-07-20T05:41:30.575Z</time>
      </trkpt>
      <trkpt lat="45.66874" lon="5.54041">
        <ele>209</ele>
        <time>2021-07-20T05:41:31.575Z</time>
      </trkpt>
      <trkpt lat="45.66873" lon="5.54052">
        <ele>209</ele>
        <time>2021-07-20T05:41:32.576Z</time>
      </trkpt>
      <trkpt lat="45.66872" lon="5.54063">
        <ele>209</ele>
        <time>2021-07-20T05:41:33.575Z</time>
      </trkpt>
      <trkpt lat="45.66871" lon="5.54075">
        <ele>209</ele>
        <time>2021-07-20T05:41:34.575Z</time>
      </trkpt>
      <trkpt lat="45.6687" lon="5.54086">
        <ele>209</ele>
        <time>2021-07-20T05:41:35.575Z</time>
      </trkpt>
      <trkpt lat="45.66869" lon="5.54097">
        <ele>209</ele>
        <time>2021-07-20T05:41:36.576Z</time>
      </trkpt>
      <trkpt lat="45.66868" lon="5.54108">
        <ele>209</ele>
        <time>2021-07-20T05:41:37.576Z</time>
      </trkpt>
      <trkpt lat="45.66867" lon="5.5412">
        <ele>209</ele>
        <time>2021-07-20T05:41:38.575Z</time>
      </trkpt>
      <trkpt lat="45.66866" lon="5.54131">
        <ele>209</ele>
        <time>2021-07-20T05:41:39.575Z</time>
      </trkpt>
      <trkpt lat="45.66866" lon="5.54142">
        <ele>209</ele>
        <time>2021-07-20T05:41:40.575Z</time>
      </trkpt>
      <trkpt lat="45.66865" lon="5.54153">
        <ele>209</ele>
        <time>2021-07-20T05:41:41.575Z</time>
      </trkpt>
      <trkpt lat="45.66864" lon="5.54164">
        <ele>209</ele>
        <time>2021-07-20T05:41:42.576Z</time>
      </trkpt>
      <trkpt lat="45.66863" lon="5.54175">
        <ele>209</ele>
        <time>2021-07-20T05:41:43.575Z</time>
      </trkpt>
      <trkpt lat="45.66862" lon="5.54186">
        <ele>209</ele>
        <time>2021-07-20T05:41:44.575Z</time>
      </trkpt>
      <trkpt lat="45.66861" lon="5.54197">
        <ele>208</ele>
        <time>2021-07-20T05:41:45.575Z</time>
      </trkpt>
      <trkpt lat="45.6686" lon="5.54208">
        <ele>208</ele>
        <time>2021-07-20T05:41:46.575Z</time>
      </trkpt>
      <trkpt lat="45.66859" lon="5.54219">
        <ele>208</ele>
        <time>2021-07-20T05:41:47.575Z</time>
      </trkpt>
      <trkpt lat="45.66858" lon="5.5423">
        <ele>208</ele>
        <time>2021-07-20T05:41:48.575Z</time>
      </trkpt>
      <trkpt lat="45.66857" lon="5.54241">
        <ele>208</ele>
        <time>2021-07-20T05:41:49.575Z</time>
      </trkpt>
      <trkpt lat="45.66856" lon="5.54252">
        <ele>208</ele>
        <time>2021-07-20T05:41:50.575Z</time>
      </trkpt>
      <trkpt lat="45.66855" lon="5.54263">
        <ele>208</ele>
        <time>2021-07-20T05:41:51.576Z</time>
      </trkpt>
      <trkpt lat="45.66855" lon="5.54274">
        <ele>208</ele>
        <time>2021-07-20T05:41:52.575Z</time>
      </trkpt>
      <trkpt lat="45.66853" lon="5.54285">
        <ele>207</ele>
        <time>2021-07-20T05:41:53.575Z</time>
      </trkpt>
      <trkpt lat="45.66853" lon="5.54296">
        <ele>207</ele>
        <time>2021-07-20T05:41:54.575Z</time>
      </trkpt>
      <trkpt lat="45.66852" lon="5.54307">
        <ele>207</ele>
        <time>2021-07-20T05:41:55.575Z</time>
      </trkpt>
      <trkpt lat="45.66851" lon="5.54318">
        <ele>207</ele>
        <time>2021-07-20T05:41:56.575Z</time>
      </trkpt>
      <trkpt lat="45.6685" lon="5.54329">
        <ele>207</ele>
        <time>2021-07-20T05:41:57.576Z</time>
      </trkpt>
      <trkpt lat="45.6685" lon="5.5434">
        <ele>207</ele>
        <time>2021-07-20T05:41:58.575Z</time>
      </trkpt>
      <trkpt lat="45.66849" lon="5.54351">
        <ele>207</ele>
        <time>2021-07-20T05:41:59.575Z</time>
      </trkpt>
      <trkpt lat="45.66848" lon="5.54362">
        <ele>207</ele>
        <time>2021-07-20T05:42:00.575Z</time>
      </trkpt>
      <trkpt lat="45.66847" lon="5.54373">
        <ele>207</ele>
        <time>2021-07-20T05:42:01.575Z</time>
      </trkpt>
      <trkpt lat="45.66846" lon="5.54384">
        <ele>207</ele>
        <time>2021-07-20T05:42:02.575Z</time>
      </trkpt>
      <trkpt lat="45.66845" lon="5.54395">
        <ele>207</ele>
        <time>2021-07-20T05:42:03.575Z</time>
      </trkpt>
      <trkpt lat="45.66845" lon="5.54406">
        <ele>207</ele>
        <time>2021-07-20T05:42:04.575Z</time>
      </trkpt>
      <trkpt lat="45.66844" lon="5.54417">
        <ele>208</ele>
        <time>2021-07-20T05:42:05.575Z</time>
      </trkpt>
      <trkpt lat="45.66843" lon="5.54428">
        <ele>208</ele>
        <time>2021-07-20T05:42:06.575Z</time>
      </trkpt>
      <trkpt lat="45.66842" lon="5.54439">
        <ele>208</ele>
        <time>2021-07-20T05:42:07.575Z</time>
      </trkpt>
      <trkpt lat="45.66841" lon="5.5445">
        <ele>208</ele>
        <time>2021-07-20T05:42:08.576Z</time>
      </trkpt>
      <trkpt lat="45.6684" lon="5.5446">
        <ele>208</ele>
        <time>2021-07-20T05:42:09.575Z</time>
      </trkpt>
      <trkpt lat="45.66839" lon="5.54471">
        <ele>208</ele>
        <time>2021-07-20T05:42:10.575Z</time>
      </trkpt>
      <trkpt lat="45.66838" lon="5.54482">
        <ele>208</ele>
        <time>2021-07-20T05:42:11.575Z</time>
      </trkpt>
      <trkpt lat="45.66837" lon="5.54492">
        <ele>208</ele>
        <time>2021-07-20T05:42:12.575Z</time>
      </trkpt>
      <trkpt lat="45.66836" lon="5.54503">
        <ele>208</ele>
        <time>2021-07-20T05:42:13.575Z</time>
      </trkpt>
      <trkpt lat="45.66835" lon="5.54514">
        <ele>208</ele>
        <time>2021-07-20T05:42:14.575Z</time>
      </trkpt>
      <trkpt lat="45.66834" lon="5.54524">
        <ele>208</ele>
        <time>2021-07-20T05:42:15.575Z</time>
      </trkpt>
      <trkpt lat="45.66833" lon="5.54535">
        <ele>208</ele>
        <time>2021-07-20T05:42:16.575Z</time>
      </trkpt>
      <trkpt lat="45.66833" lon="5.54546">
        <ele>208</ele>
        <time>2021-07-20T05:42:17.575Z</time>
      </trkpt>
      <trkpt lat="45.66832" lon="5.54557">
        <ele>208</ele>
        <time>2021-07-20T05:42:18.575Z</time>
      </trkpt>
      <trkpt lat="45.66831" lon="5.54568">
        <ele>208</ele>
        <time>2021-07-20T05:42:19.575Z</time>
      </trkpt>
      <trkpt lat="45.6683" lon="5.54578">
        <ele>208</ele>
        <time>2021-07-20T05:42:20.575Z</time>
      </trkpt>
      <trkpt lat="45.66829" lon="5.54589">
        <ele>208</ele>
        <time>2021-07-20T05:42:21.575Z</time>
      </trkpt>
      <trkpt lat="45.66828" lon="5.546">
        <ele>208</ele>
        <time>2021-07-20T05:42:22.575Z</time>
      </trkpt>
      <trkpt lat="45.66827" lon="5.54611">
        <ele>208</ele>
        <time>2021-07-20T05:42:23.575Z</time>
      </trkpt>
      <trkpt lat="45.66825" lon="5.54621">
        <ele>208</ele>
        <time>2021-07-20T05:42:24.575Z</time>
      </trkpt>
      <trkpt lat="45.66823" lon="5.54632">
        <ele>208</ele>
        <time>2021-07-20T05:42:25.575Z</time>
      </trkpt>
      <trkpt lat="45.66821" lon="5.54642">
        <ele>208</ele>
        <time>2021-07-20T05:42:26.576Z</time>
      </trkpt>
      <trkpt lat="45.66819" lon="5.54653">
        <ele>208</ele>
        <time>2021-07-20T05:42:27.575Z</time>
      </trkpt>
      <trkpt lat="45.66817" lon="5.54664">
        <ele>208</ele>
        <time>2021-07-20T05:42:28.576Z</time>
      </trkpt>
      <trkpt lat="45.66814" lon="5.54674">
        <ele>208</ele>
        <time>2021-07-20T05:42:29.575Z</time>
      </trkpt>
      <trkpt lat="45.66812" lon="5.54685">
        <ele>208</ele>
        <time>2021-07-20T05:42:30.575Z</time>
      </trkpt>
      <trkpt lat="45.6681" lon="5.54695">
        <ele>209</ele>
        <time>2021-07-20T05:42:31.575Z</time>
      </trkpt>
      <trkpt lat="45.66808" lon="5.54706">
        <ele>209</ele>
        <time>2021-07-20T05:42:32.575Z</time>
      </trkpt>
      <trkpt lat="45.66808" lon="5.54706">
        <ele>209</ele>
        <time>2021-07-20T05:42:33.576Z</time>
      </trkpt>
      <trkpt lat="45.66803" lon="5.54727">
        <ele>209</ele>
        <time>2021-07-20T05:42:34.575Z</time>
      </trkpt>
      <trkpt lat="45.66801" lon="5.54737">
        <ele>210</ele>
        <time>2021-07-20T05:42:35.575Z</time>
      </trkpt>
      <trkpt lat="45.66801" lon="5.54737">
        <ele>210</ele>
        <time>2021-07-20T05:42:36.576Z</time>
      </trkpt>
      <trkpt lat="45.66797" lon="5.54759">
        <ele>210</ele>
        <time>2021-07-20T05:42:37.576Z</time>
      </trkpt>
      <trkpt lat="45.66797" lon="5.54759">
        <ele>210</ele>
        <time>2021-07-20T05:42:38.576Z</time>
      </trkpt>
      <trkpt lat="45.66792" lon="5.5478">
        <ele>210</ele>
        <time>2021-07-20T05:42:39.576Z</time>
      </trkpt>
      <trkpt lat="45.6679" lon="5.54791">
        <ele>210</ele>
        <time>2021-07-20T05:42:40.576Z</time>
      </trkpt>
      <trkpt lat="45.6679" lon="5.54791">
        <ele>210</ele>
        <time>2021-07-20T05:42:41.575Z</time>
      </trkpt>
      <trkpt lat="45.66788" lon="5.54802">
        <ele>210</ele>
        <time>2021-07-20T05:42:42.576Z</time>
      </trkpt>
      <trkpt lat="45.66785" lon="5.54812">
        <ele>210</ele>
        <time>2021-07-20T05:42:43.575Z</time>
      </trkpt>
      <trkpt lat="45.66781" lon="5.54834">
        <ele>210</ele>
        <time>2021-07-20T05:42:44.575Z</time>
      </trkpt>
      <trkpt lat="45.66779" lon="5.54844">
        <ele>210</ele>
        <time>2021-07-20T05:42:45.575Z</time>
      </trkpt>
      <trkpt lat="45.66779" lon="5.54844">
        <ele>210</ele>
        <time>2021-07-20T05:42:46.576Z</time>
      </trkpt>
      <trkpt lat="45.66777" lon="5.54855">
        <ele>210</ele>
        <time>2021-07-20T05:42:47.575Z</time>
      </trkpt>
      <trkpt lat="45.66774" lon="5.54866">
        <ele>210</ele>
        <time>2021-07-20T05:42:48.576Z</time>
      </trkpt>
      <trkpt lat="45.6677" lon="5.54887">
        <ele>210</ele>
        <time>2021-07-20T05:42:49.575Z</time>
      </trkpt>
      <trkpt lat="45.66768" lon="5.54897">
        <ele>210</ele>
        <time>2021-07-20T05:42:50.575Z</time>
      </trkpt>
      <trkpt lat="45.66768" lon="5.54897">
        <ele>210</ele>
        <time>2021-07-20T05:42:51.576Z</time>
      </trkpt>
      <trkpt lat="45.66766" lon="5.54908">
        <ele>209</ele>
        <time>2021-07-20T05:42:52.575Z</time>
      </trkpt>
      <trkpt lat="45.66764" lon="5.54919">
        <ele>209</ele>
        <time>2021-07-20T05:42:53.575Z</time>
      </trkpt>
      <trkpt lat="45.66759" lon="5.5494">
        <ele>209</ele>
        <time>2021-07-20T05:42:54.576Z</time>
      </trkpt>
      <trkpt lat="45.66757" lon="5.5495">
        <ele>209</ele>
        <time>2021-07-20T05:42:55.575Z</time>
      </trkpt>
      <trkpt lat="45.66757" lon="5.5495">
        <ele>209</ele>
        <time>2021-07-20T05:42:56.576Z</time>
      </trkpt>
      <trkpt lat="45.66755" lon="5.54961">
        <ele>209</ele>
        <time>2021-07-20T05:42:57.575Z</time>
      </trkpt>
      <trkpt lat="45.66753" lon="5.54971">
        <ele>209</ele>
        <time>2021-07-20T05:42:58.575Z</time>
      </trkpt>
      <trkpt lat="45.66749" lon="5.54992">
        <ele>209</ele>
        <time>2021-07-20T05:42:59.575Z</time>
      </trkpt>
      <trkpt lat="45.66746" lon="5.55002">
        <ele>209</ele>
        <time>2021-07-20T05:43:00.575Z</time>
      </trkpt>
      <trkpt lat="45.66746" lon="5.55002">
        <ele>209</ele>
        <time>2021-07-20T05:43:01.576Z</time>
      </trkpt>
      <trkpt lat="45.66744" lon="5.55013">
        <ele>209</ele>
        <time>2021-07-20T05:43:02.576Z</time>
      </trkpt>
      <trkpt lat="45.66742" lon="5.55023">
        <ele>209</ele>
        <time>2021-07-20T05:43:03.576Z</time>
      </trkpt>
      <trkpt lat="45.66738" lon="5.55044">
        <ele>209</ele>
        <time>2021-07-20T05:43:04.575Z</time>
      </trkpt>
      <trkpt lat="45.66736" lon="5.55054">
        <ele>208</ele>
        <time>2021-07-20T05:43:05.575Z</time>
      </trkpt>
      <trkpt lat="45.66736" lon="5.55054">
        <ele>208</ele>
        <time>2021-07-20T05:43:06.576Z</time>
      </trkpt>
      <trkpt lat="45.66733" lon="5.55065">
        <ele>208</ele>
        <time>2021-07-20T05:43:07.576Z</time>
      </trkpt>
      <trkpt lat="45.66731" lon="5.55075">
        <ele>208</ele>
        <time>2021-07-20T05:43:08.576Z</time>
      </trkpt>
      <trkpt lat="45.66727" lon="5.55096">
        <ele>208</ele>
        <time>2021-07-20T05:43:09.575Z</time>
      </trkpt>
      <trkpt lat="45.66725" lon="5.55106">
        <ele>208</ele>
        <time>2021-07-20T05:43:10.575Z</time>
      </trkpt>
      <trkpt lat="45.66725" lon="5.55106">
        <ele>208</ele>
        <time>2021-07-20T05:43:11.576Z</time>
      </trkpt>
      <trkpt lat="45.66723" lon="5.55116">
        <ele>208</ele>
        <time>2021-07-20T05:43:12.576Z</time>
      </trkpt>
      <trkpt lat="45.66721" lon="5.55127">
        <ele>208</ele>
        <time>2021-07-20T05:43:13.575Z</time>
      </trkpt>
      <trkpt lat="45.66717" lon="5.55147">
        <ele>208</ele>
        <time>2021-07-20T05:43:14.575Z</time>
      </trkpt>
      <trkpt lat="45.66715" lon="5.55158">
        <ele>208</ele>
        <time>2021-07-20T05:43:15.575Z</time>
      </trkpt>
      <trkpt lat="45.66715" lon="5.55158">
        <ele>208</ele>
        <time>2021-07-20T05:43:16.576Z</time>
      </trkpt>
      <trkpt lat="45.66712" lon="5.55168">
        <ele>208</ele>
        <time>2021-07-20T05:43:17.575Z</time>
      </trkpt>
      <trkpt lat="45.6671" lon="5.55178">
        <ele>208</ele>
        <time>2021-07-20T05:43:18.576Z</time>
      </trkpt>
      <trkpt lat="45.66706" lon="5.55199">
        <ele>207</ele>
        <time>2021-07-20T05:43:19.575Z</time>
      </trkpt>
      <trkpt lat="45.66704" lon="5.55209">
        <ele>207</ele>
        <time>2021-07-20T05:43:20.575Z</time>
      </trkpt>
      <trkpt lat="45.66704" lon="5.55209">
        <ele>207</ele>
        <time>2021-07-20T05:43:21.576Z</time>
      </trkpt>
      <trkpt lat="45.66702" lon="5.55219">
        <ele>207</ele>
        <time>2021-07-20T05:43:22.575Z</time>
      </trkpt>
      <trkpt lat="45.667" lon="5.5523">
        <ele>207</ele>
        <time>2021-07-20T05:43:23.575Z</time>
      </trkpt>
      <trkpt lat="45.66696" lon="5.5525">
        <ele>207</ele>
        <time>2021-07-20T05:43:24.575Z</time>
      </trkpt>
      <trkpt lat="45.66694" lon="5.5526">
        <ele>207</ele>
        <time>2021-07-20T05:43:25.575Z</time>
      </trkpt>
      <trkpt lat="45.66694" lon="5.5526">
        <ele>207</ele>
        <time>2021-07-20T05:43:26.575Z</time>
      </trkpt>
      <trkpt lat="45.66692" lon="5.5527">
        <ele>207</ele>
        <time>2021-07-20T05:43:27.576Z</time>
      </trkpt>
      <trkpt lat="45.6669" lon="5.5528">
        <ele>206</ele>
        <time>2021-07-20T05:43:28.575Z</time>
      </trkpt>
      <trkpt lat="45.66686" lon="5.55302">
        <ele>206</ele>
        <time>2021-07-20T05:43:29.575Z</time>
      </trkpt>
      <trkpt lat="45.66684" lon="5.55313">
        <ele>206</ele>
        <time>2021-07-20T05:43:30.575Z</time>
      </trkpt>
      <trkpt lat="45.66684" lon="5.55313">
        <ele>206</ele>
        <time>2021-07-20T05:43:31.575Z</time>
      </trkpt>
      <trkpt lat="45.66682" lon="5.55323">
        <ele>206</ele>
        <time>2021-07-20T05:43:32.575Z</time>
      </trkpt>
      <trkpt lat="45.66679" lon="5.55334">
        <ele>206</ele>
        <time>2021-07-20T05:43:33.575Z</time>
      </trkpt>
      <trkpt lat="45.66675" lon="5.55356">
        <ele>207</ele>
        <time>2021-07-20T05:43:34.575Z</time>
      </trkpt>
      <trkpt lat="45.66673" lon="5.55367">
        <ele>207</ele>
        <time>2021-07-20T05:43:35.575Z</time>
      </trkpt>
      <trkpt lat="45.66673" lon="5.55367">
        <ele>207</ele>
        <time>2021-07-20T05:43:36.576Z</time>
      </trkpt>
      <trkpt lat="45.6667" lon="5.55378">
        <ele>207</ele>
        <time>2021-07-20T05:43:37.575Z</time>
      </trkpt>
      <trkpt lat="45.66668" lon="5.55389">
        <ele>207</ele>
        <time>2021-07-20T05:43:38.575Z</time>
      </trkpt>
      <trkpt lat="45.66664" lon="5.5541">
        <ele>207</ele>
        <time>2021-07-20T05:43:39.575Z</time>
      </trkpt>
      <trkpt lat="45.66662" lon="5.55421">
        <ele>207</ele>
        <time>2021-07-20T05:43:40.576Z</time>
      </trkpt>
      <trkpt lat="45.66662" lon="5.55421">
        <ele>207</ele>
        <time>2021-07-20T05:43:41.575Z</time>
      </trkpt>
      <trkpt lat="45.66659" lon="5.55432">
        <ele>207</ele>
        <time>2021-07-20T05:43:42.575Z</time>
      </trkpt>
      <trkpt lat="45.66657" lon="5.55443">
        <ele>207</ele>
        <time>2021-07-20T05:43:43.575Z</time>
      </trkpt>
      <trkpt lat="45.66652" lon="5.55465">
        <ele>207</ele>
        <time>2021-07-20T05:43:44.575Z</time>
      </trkpt>
      <trkpt lat="45.6665" lon="5.55476">
        <ele>207</ele>
        <time>2021-07-20T05:43:45.575Z</time>
      </trkpt>
      <trkpt lat="45.6665" lon="5.55476">
        <ele>207</ele>
        <time>2021-07-20T05:43:46.575Z</time>
      </trkpt>
      <trkpt lat="45.66648" lon="5.55487">
        <ele>207</ele>
        <time>2021-07-20T05:43:47.576Z</time>
      </trkpt>
      <trkpt lat="45.66646" lon="5.55498">
        <ele>208</ele>
        <time>2021-07-20T05:43:48.576Z</time>
      </trkpt>
      <trkpt lat="45.66642" lon="5.5552">
        <ele>208</ele>
        <time>2021-07-20T05:43:49.575Z</time>
      </trkpt>
      <trkpt lat="45.6664" lon="5.55531">
        <ele>208</ele>
        <time>2021-07-20T05:43:50.575Z</time>
      </trkpt>
      <trkpt lat="45.6664" lon="5.55531">
        <ele>208</ele>
        <time>2021-07-20T05:43:51.575Z</time>
      </trkpt>
      <trkpt lat="45.66637" lon="5.55542">
        <ele>208</ele>
        <time>2021-07-20T05:43:52.576Z</time>
      </trkpt>
      <trkpt lat="45.66635" lon="5.55553">
        <ele>208</ele>
        <time>2021-07-20T05:43:53.575Z</time>
      </trkpt>
      <trkpt lat="45.66631" lon="5.55576">
        <ele>208</ele>
        <time>2021-07-20T05:43:54.575Z</time>
      </trkpt>
      <trkpt lat="45.66629" lon="5.55587">
        <ele>208</ele>
        <time>2021-07-20T05:43:55.575Z</time>
      </trkpt>
      <trkpt lat="45.66629" lon="5.55587">
        <ele>208</ele>
        <time>2021-07-20T05:43:56.575Z</time>
      </trkpt>
      <trkpt lat="45.66627" lon="5.55598">
        <ele>208</ele>
        <time>2021-07-20T05:43:57.576Z</time>
      </trkpt>
      <trkpt lat="45.66624" lon="5.55609">
        <ele>208</ele>
        <time>2021-07-20T05:43:58.575Z</time>
      </trkpt>
      <trkpt lat="45.66619" lon="5.55632">
        <ele>208</ele>
        <time>2021-07-20T05:43:59.576Z</time>
      </trkpt>
      <trkpt lat="45.66618" lon="5.55643">
        <ele>208</ele>
        <time>2021-07-20T05:44:00.575Z</time>
      </trkpt>
      <trkpt lat="45.66618" lon="5.55643">
        <ele>208</ele>
        <time>2021-07-20T05:44:01.576Z</time>
      </trkpt>
      <trkpt lat="45.66615" lon="5.55654">
        <ele>208</ele>
        <time>2021-07-20T05:44:02.575Z</time>
      </trkpt>
      <trkpt lat="45.66613" lon="5.55665">
        <ele>208</ele>
        <time>2021-07-20T05:44:03.575Z</time>
      </trkpt>
      <trkpt lat="45.66608" lon="5.55688">
        <ele>208</ele>
        <time>2021-07-20T05:44:04.575Z</time>
      </trkpt>
      <trkpt lat="45.66605" lon="5.55699">
        <ele>208</ele>
        <time>2021-07-20T05:44:05.576Z</time>
      </trkpt>
      <trkpt lat="45.66605" lon="5.55699">
        <ele>208</ele>
        <time>2021-07-20T05:44:06.576Z</time>
      </trkpt>
      <trkpt lat="45.66603" lon="5.5571">
        <ele>208</ele>
        <time>2021-07-20T05:44:07.576Z</time>
      </trkpt>
      <trkpt lat="45.66601" lon="5.55721">
        <ele>209</ele>
        <time>2021-07-20T05:44:08.576Z</time>
      </trkpt>
      <trkpt lat="45.66597" lon="5.55743">
        <ele>209</ele>
        <time>2021-07-20T05:44:09.575Z</time>
      </trkpt>
      <trkpt lat="45.66594" lon="5.55754">
        <ele>208</ele>
        <time>2021-07-20T05:44:10.575Z</time>
      </trkpt>
      <trkpt lat="45.66594" lon="5.55754">
        <ele>208</ele>
        <time>2021-07-20T05:44:11.575Z</time>
      </trkpt>
      <trkpt lat="45.66592" lon="5.55764">
        <ele>208</ele>
        <time>2021-07-20T05:44:12.575Z</time>
      </trkpt>
      <trkpt lat="45.6659" lon="5.55775">
        <ele>208</ele>
        <time>2021-07-20T05:44:13.575Z</time>
      </trkpt>
      <trkpt lat="45.66586" lon="5.55797">
        <ele>208</ele>
        <time>2021-07-20T05:44:14.575Z</time>
      </trkpt>
      <trkpt lat="45.66584" lon="5.55808">
        <ele>208</ele>
        <time>2021-07-20T05:44:15.575Z</time>
      </trkpt>
      <trkpt lat="45.66584" lon="5.55808">
        <ele>208</ele>
        <time>2021-07-20T05:44:16.575Z</time>
      </trkpt>
      <trkpt lat="45.66582" lon="5.55819">
        <ele>209</ele>
        <time>2021-07-20T05:44:17.576Z</time>
      </trkpt>
      <trkpt lat="45.6658" lon="5.55829">
        <ele>208</ele>
        <time>2021-07-20T05:44:18.575Z</time>
      </trkpt>
      <trkpt lat="45.66576" lon="5.55851">
        <ele>208</ele>
        <time>2021-07-20T05:44:19.575Z</time>
      </trkpt>
      <trkpt lat="45.66574" lon="5.55862">
        <ele>208</ele>
        <time>2021-07-20T05:44:20.575Z</time>
      </trkpt>
      <trkpt lat="45.66574" lon="5.55862">
        <ele>208</ele>
        <time>2021-07-20T05:44:21.576Z</time>
      </trkpt>
      <trkpt lat="45.66572" lon="5.55872">
        <ele>208</ele>
        <time>2021-07-20T05:44:22.575Z</time>
      </trkpt>
      <trkpt lat="45.66569" lon="5.55883">
        <ele>208</ele>
        <time>2021-07-20T05:44:23.575Z</time>
      </trkpt>
      <trkpt lat="45.66565" lon="5.55903">
        <ele>207</ele>
        <time>2021-07-20T05:44:24.575Z</time>
      </trkpt>
      <trkpt lat="45.66565" lon="5.55903">
        <ele>207</ele>
        <time>2021-07-20T05:44:25.576Z</time>
      </trkpt>
      <trkpt lat="45.66563" lon="5.55914">
        <ele>207</ele>
        <time>2021-07-20T05:44:26.576Z</time>
      </trkpt>
      <trkpt lat="45.66561" lon="5.55924">
        <ele>207</ele>
        <time>2021-07-20T05:44:27.575Z</time>
      </trkpt>
      <trkpt lat="45.66559" lon="5.55935">
        <ele>207</ele>
        <time>2021-07-20T05:44:28.575Z</time>
      </trkpt>
      <trkpt lat="45.66554" lon="5.55956">
        <ele>207</ele>
        <time>2021-07-20T05:44:29.576Z</time>
      </trkpt>
      <trkpt lat="45.66552" lon="5.55966">
        <ele>207</ele>
        <time>2021-07-20T05:44:30.575Z</time>
      </trkpt>
      <trkpt lat="45.66552" lon="5.55966">
        <ele>207</ele>
        <time>2021-07-20T05:44:31.576Z</time>
      </trkpt>
      <trkpt lat="45.6655" lon="5.55977">
        <ele>207</ele>
        <time>2021-07-20T05:44:32.575Z</time>
      </trkpt>
      <trkpt lat="45.66548" lon="5.55987">
        <ele>208</ele>
        <time>2021-07-20T05:44:33.575Z</time>
      </trkpt>
      <trkpt lat="45.66544" lon="5.56009">
        <ele>208</ele>
        <time>2021-07-20T05:44:34.575Z</time>
      </trkpt>
      <trkpt lat="45.66542" lon="5.56019">
        <ele>208</ele>
        <time>2021-07-20T05:44:35.575Z</time>
      </trkpt>
      <trkpt lat="45.66542" lon="5.56019">
        <ele>208</ele>
        <time>2021-07-20T05:44:36.575Z</time>
      </trkpt>
      <trkpt lat="45.6654" lon="5.5603">
        <ele>208</ele>
        <time>2021-07-20T05:44:37.575Z</time>
      </trkpt>
      <trkpt lat="45.66538" lon="5.56041">
        <ele>208</ele>
        <time>2021-07-20T05:44:38.576Z</time>
      </trkpt>
      <trkpt lat="45.66533" lon="5.56062">
        <ele>208</ele>
        <time>2021-07-20T05:44:39.575Z</time>
      </trkpt>
      <trkpt lat="45.66531" lon="5.56072">
        <ele>208</ele>
        <time>2021-07-20T05:44:40.576Z</time>
      </trkpt>
      <trkpt lat="45.66531" lon="5.56072">
        <ele>208</ele>
        <time>2021-07-20T05:44:41.575Z</time>
      </trkpt>
      <trkpt lat="45.66529" lon="5.56083">
        <ele>208</ele>
        <time>2021-07-20T05:44:42.575Z</time>
      </trkpt>
      <trkpt lat="45.66527" lon="5.56094">
        <ele>208</ele>
        <time>2021-07-20T05:44:43.576Z</time>
      </trkpt>
      <trkpt lat="45.66523" lon="5.56115">
        <ele>208</ele>
        <time>2021-07-20T05:44:44.575Z</time>
      </trkpt>
      <trkpt lat="45.66521" lon="5.56126">
        <ele>208</ele>
        <time>2021-07-20T05:44:45.575Z</time>
      </trkpt>
      <trkpt lat="45.66521" lon="5.56126">
        <ele>208</ele>
        <time>2021-07-20T05:44:46.576Z</time>
      </trkpt>
      <trkpt lat="45.66519" lon="5.56136">
        <ele>208</ele>
        <time>2021-07-20T05:44:47.576Z</time>
      </trkpt>
      <trkpt lat="45.66517" lon="5.56147">
        <ele>208</ele>
        <time>2021-07-20T05:44:48.575Z</time>
      </trkpt>
      <trkpt lat="45.66513" lon="5.56168">
        <ele>207</ele>
        <time>2021-07-20T05:44:49.576Z</time>
      </trkpt>
      <trkpt lat="45.66511" lon="5.56178">
        <ele>207</ele>
        <time>2021-07-20T05:44:50.575Z</time>
      </trkpt>
      <trkpt lat="45.66511" lon="5.56178">
        <ele>207</ele>
        <time>2021-07-20T05:44:51.576Z</time>
      </trkpt>
      <trkpt lat="45.66508" lon="5.56189">
        <ele>207</ele>
        <time>2021-07-20T05:44:52.575Z</time>
      </trkpt>
      <trkpt lat="45.66507" lon="5.562">
        <ele>207</ele>
        <time>2021-07-20T05:44:53.575Z</time>
      </trkpt>
      <trkpt lat="45.66502" lon="5.56221">
        <ele>207</ele>
        <time>2021-07-20T05:44:54.575Z</time>
      </trkpt>
      <trkpt lat="45.665" lon="5.56232">
        <ele>207</ele>
        <time>2021-07-20T05:44:55.575Z</time>
      </trkpt>
      <trkpt lat="45.665" lon="5.56232">
        <ele>207</ele>
        <time>2021-07-20T05:44:56.576Z</time>
      </trkpt>
      <trkpt lat="45.66498" lon="5.56242">
        <ele>207</ele>
        <time>2021-07-20T05:44:57.575Z</time>
      </trkpt>
      <trkpt lat="45.66495" lon="5.56253">
        <ele>207</ele>
        <time>2021-07-20T05:44:58.575Z</time>
      </trkpt>
      <trkpt lat="45.66491" lon="5.56275">
        <ele>207</ele>
        <time>2021-07-20T05:44:59.576Z</time>
      </trkpt>
      <trkpt lat="45.66489" lon="5.56285">
        <ele>207</ele>
        <time>2021-07-20T05:45:00.576Z</time>
      </trkpt>
      <trkpt lat="45.66489" lon="5.56285">
        <ele>207</ele>
        <time>2021-07-20T05:45:01.575Z</time>
      </trkpt>
      <trkpt lat="45.66487" lon="5.56296">
        <ele>208</ele>
        <time>2021-07-20T05:45:02.576Z</time>
      </trkpt>
      <trkpt lat="45.66484" lon="5.56306">
        <ele>208</ele>
        <time>2021-07-20T05:45:03.575Z</time>
      </trkpt>
      <trkpt lat="45.6648" lon="5.56327">
        <ele>208</ele>
        <time>2021-07-20T05:45:04.575Z</time>
      </trkpt>
      <trkpt lat="45.66478" lon="5.56338">
        <ele>207</ele>
        <time>2021-07-20T05:45:05.575Z</time>
      </trkpt>
      <trkpt lat="45.66478" lon="5.56338">
        <ele>207</ele>
        <time>2021-07-20T05:45:06.575Z</time>
      </trkpt>
      <trkpt lat="45.66476" lon="5.56348">
        <ele>207</ele>
        <time>2021-07-20T05:45:07.575Z</time>
      </trkpt>
      <trkpt lat="45.66474" lon="5.56358">
        <ele>207</ele>
        <time>2021-07-20T05:45:08.575Z</time>
      </trkpt>
      <trkpt lat="45.6647" lon="5.56379">
        <ele>206</ele>
        <time>2021-07-20T05:45:09.575Z</time>
      </trkpt>
      <trkpt lat="45.66468" lon="5.5639">
        <ele>206</ele>
        <time>2021-07-20T05:45:10.575Z</time>
      </trkpt>
      <trkpt lat="45.66468" lon="5.5639">
        <ele>206</ele>
        <time>2021-07-20T05:45:11.575Z</time>
      </trkpt>
      <trkpt lat="45.66466" lon="5.564">
        <ele>206</ele>
        <time>2021-07-20T05:45:12.575Z</time>
      </trkpt>
      <trkpt lat="45.66464" lon="5.5641">
        <ele>205</ele>
        <time>2021-07-20T05:45:13.575Z</time>
      </trkpt>
      <trkpt lat="45.66459" lon="5.56431">
        <ele>205</ele>
        <time>2021-07-20T05:45:14.575Z</time>
      </trkpt>
      <trkpt lat="45.66458" lon="5.56441">
        <ele>205</ele>
        <time>2021-07-20T05:45:15.575Z</time>
      </trkpt>
      <trkpt lat="45.66458" lon="5.56441">
        <ele>205</ele>
        <time>2021-07-20T05:45:16.575Z</time>
      </trkpt>
      <trkpt lat="45.66456" lon="5.56451">
        <ele>205</ele>
        <time>2021-07-20T05:45:17.575Z</time>
      </trkpt>
      <trkpt lat="45.66453" lon="5.56461">
        <ele>205</ele>
        <time>2021-07-20T05:45:18.575Z</time>
      </trkpt>
      <trkpt lat="45.66449" lon="5.56482">
        <ele>205</ele>
        <time>2021-07-20T05:45:19.575Z</time>
      </trkpt>
      <trkpt lat="45.66448" lon="5.56492">
        <ele>205</ele>
        <time>2021-07-20T05:45:20.576Z</time>
      </trkpt>
      <trkpt lat="45.66448" lon="5.56492">
        <ele>205</ele>
        <time>2021-07-20T05:45:21.575Z</time>
      </trkpt>
      <trkpt lat="45.66446" lon="5.56503">
        <ele>205</ele>
        <time>2021-07-20T05:45:22.576Z</time>
      </trkpt>
      <trkpt lat="45.66444" lon="5.56514">
        <ele>205</ele>
        <time>2021-07-20T05:45:23.576Z</time>
      </trkpt>
      <trkpt lat="45.6644" lon="5.56534">
        <ele>206</ele>
        <time>2021-07-20T05:45:24.575Z</time>
      </trkpt>
      <trkpt lat="45.66438" lon="5.56545">
        <ele>206</ele>
        <time>2021-07-20T05:45:25.575Z</time>
      </trkpt>
      <trkpt lat="45.66438" lon="5.56545">
        <ele>206</ele>
        <time>2021-07-20T05:45:26.575Z</time>
      </trkpt>
      <trkpt lat="45.66436" lon="5.56555">
        <ele>206</ele>
        <time>2021-07-20T05:45:27.576Z</time>
      </trkpt>
      <trkpt lat="45.66434" lon="5.56565">
        <ele>207</ele>
        <time>2021-07-20T05:45:28.575Z</time>
      </trkpt>
      <trkpt lat="45.66431" lon="5.56585">
        <ele>207</ele>
        <time>2021-07-20T05:45:29.575Z</time>
      </trkpt>
      <trkpt lat="45.66429" lon="5.56596">
        <ele>207</ele>
        <time>2021-07-20T05:45:30.575Z</time>
      </trkpt>
      <trkpt lat="45.66429" lon="5.56596">
        <ele>207</ele>
        <time>2021-07-20T05:45:31.575Z</time>
      </trkpt>
      <trkpt lat="45.66427" lon="5.56606">
        <ele>208</ele>
        <time>2021-07-20T05:45:32.575Z</time>
      </trkpt>
      <trkpt lat="45.66425" lon="5.56616">
        <ele>208</ele>
        <time>2021-07-20T05:45:33.575Z</time>
      </trkpt>
      <trkpt lat="45.66421" lon="5.56636">
        <ele>208</ele>
        <time>2021-07-20T05:45:34.575Z</time>
      </trkpt>
      <trkpt lat="45.6642" lon="5.56646">
        <ele>208</ele>
        <time>2021-07-20T05:45:35.575Z</time>
      </trkpt>
      <trkpt lat="45.6642" lon="5.56646">
        <ele>208</ele>
        <time>2021-07-20T05:45:36.576Z</time>
      </trkpt>
      <trkpt lat="45.66419" lon="5.56657">
        <ele>208</ele>
        <time>2021-07-20T05:45:37.575Z</time>
      </trkpt>
      <trkpt lat="45.66418" lon="5.56667">
        <ele>208</ele>
        <time>2021-07-20T05:45:38.576Z</time>
      </trkpt>
      <trkpt lat="45.66416" lon="5.56689">
        <ele>208</ele>
        <time>2021-07-20T05:45:39.575Z</time>
      </trkpt>
      <trkpt lat="45.66415" lon="5.567">
        <ele>208</ele>
        <time>2021-07-20T05:45:40.575Z</time>
      </trkpt>
      <trkpt lat="45.66415" lon="5.567">
        <ele>208</ele>
        <time>2021-07-20T05:45:41.575Z</time>
      </trkpt>
      <trkpt lat="45.66414" lon="5.5671">
        <ele>208</ele>
        <time>2021-07-20T05:45:42.575Z</time>
      </trkpt>
      <trkpt lat="45.66414" lon="5.56721">
        <ele>209</ele>
        <time>2021-07-20T05:45:43.575Z</time>
      </trkpt>
      <trkpt lat="45.66414" lon="5.56742">
        <ele>209</ele>
        <time>2021-07-20T05:45:44.575Z</time>
      </trkpt>
      <trkpt lat="45.66414" lon="5.56753">
        <ele>209</ele>
        <time>2021-07-20T05:45:45.575Z</time>
      </trkpt>
      <trkpt lat="45.66414" lon="5.56753">
        <ele>209</ele>
        <time>2021-07-20T05:45:46.575Z</time>
      </trkpt>
      <trkpt lat="45.66414" lon="5.56763">
        <ele>209</ele>
        <time>2021-07-20T05:45:47.575Z</time>
      </trkpt>
      <trkpt lat="45.66415" lon="5.56774">
        <ele>209</ele>
        <time>2021-07-20T05:45:48.575Z</time>
      </trkpt>
      <trkpt lat="45.66416" lon="5.56795">
        <ele>209</ele>
        <time>2021-07-20T05:45:49.575Z</time>
      </trkpt>
      <trkpt lat="45.66417" lon="5.56806">
        <ele>209</ele>
        <time>2021-07-20T05:45:50.576Z</time>
      </trkpt>
      <trkpt lat="45.66417" lon="5.56806">
        <ele>209</ele>
        <time>2021-07-20T05:45:51.575Z</time>
      </trkpt>
      <trkpt lat="45.66418" lon="5.56817">
        <ele>209</ele>
        <time>2021-07-20T05:45:52.575Z</time>
      </trkpt>
      <trkpt lat="45.66419" lon="5.56827">
        <ele>209</ele>
        <time>2021-07-20T05:45:53.575Z</time>
      </trkpt>
      <trkpt lat="45.66421" lon="5.56849">
        <ele>209</ele>
        <time>2021-07-20T05:45:54.575Z</time>
      </trkpt>
      <trkpt lat="45.66423" lon="5.5686">
        <ele>209</ele>
        <time>2021-07-20T05:45:55.575Z</time>
      </trkpt>
      <trkpt lat="45.66423" lon="5.5686">
        <ele>209</ele>
        <time>2021-07-20T05:45:56.575Z</time>
      </trkpt>
      <trkpt lat="45.66424" lon="5.56871">
        <ele>209</ele>
        <time>2021-07-20T05:45:57.575Z</time>
      </trkpt>
      <trkpt lat="45.66426" lon="5.56881">
        <ele>209</ele>
        <time>2021-07-20T05:45:58.575Z</time>
      </trkpt>
      <trkpt lat="45.66428" lon="5.56892">
        <ele>209</ele>
        <time>2021-07-20T05:45:59.575Z</time>
      </trkpt>
      <trkpt lat="45.66433" lon="5.56913">
        <ele>209</ele>
        <time>2021-07-20T05:46:00.575Z</time>
      </trkpt>
      <trkpt lat="45.66433" lon="5.56913">
        <ele>209</ele>
        <time>2021-07-20T05:46:01.575Z</time>
      </trkpt>
      <trkpt lat="45.66436" lon="5.56923">
        <ele>209</ele>
        <time>2021-07-20T05:46:02.576Z</time>
      </trkpt>
      <trkpt lat="45.66438" lon="5.56934">
        <ele>209</ele>
        <time>2021-07-20T05:46:03.575Z</time>
      </trkpt>
      <trkpt lat="45.66441" lon="5.56944">
        <ele>209</ele>
        <time>2021-07-20T05:46:04.575Z</time>
      </trkpt>
      <trkpt lat="45.66447" lon="5.56964">
        <ele>209</ele>
        <time>2021-07-20T05:46:05.575Z</time>
      </trkpt>
      <trkpt lat="45.66451" lon="5.56975">
        <ele>210</ele>
        <time>2021-07-20T05:46:06.575Z</time>
      </trkpt>
      <trkpt lat="45.66451" lon="5.56975">
        <ele>210</ele>
        <time>2021-07-20T05:46:07.575Z</time>
      </trkpt>
      <trkpt lat="45.66457" lon="5.56995">
        <ele>210</ele>
        <time>2021-07-20T05:46:08.575Z</time>
      </trkpt>
      <trkpt lat="45.66461" lon="5.57005">
        <ele>210</ele>
        <time>2021-07-20T05:46:09.575Z</time>
      </trkpt>
      <trkpt lat="45.66464" lon="5.57014">
        <ele>210</ele>
        <time>2021-07-20T05:46:10.575Z</time>
      </trkpt>
      <trkpt lat="45.66468" lon="5.57024">
        <ele>210</ele>
        <time>2021-07-20T05:46:11.575Z</time>
      </trkpt>
      <trkpt lat="45.66472" lon="5.57033">
        <ele>210</ele>
        <time>2021-07-20T05:46:12.575Z</time>
      </trkpt>
      <trkpt lat="45.66472" lon="5.57033">
        <ele>210</ele>
        <time>2021-07-20T05:46:13.575Z</time>
      </trkpt>
      <trkpt lat="45.66481" lon="5.57051">
        <ele>210</ele>
        <time>2021-07-20T05:46:14.575Z</time>
      </trkpt>
      <trkpt lat="45.66486" lon="5.5706">
        <ele>210</ele>
        <time>2021-07-20T05:46:15.575Z</time>
      </trkpt>
      <trkpt lat="45.66491" lon="5.57069">
        <ele>210</ele>
        <time>2021-07-20T05:46:16.575Z</time>
      </trkpt>
      <trkpt lat="45.66497" lon="5.57078">
        <ele>210</ele>
        <time>2021-07-20T05:46:17.575Z</time>
      </trkpt>
      <trkpt lat="45.66503" lon="5.57087">
        <ele>210</ele>
        <time>2021-07-20T05:46:18.575Z</time>
      </trkpt>
      <trkpt lat="45.66508" lon="5.57095">
        <ele>210</ele>
        <time>2021-07-20T05:46:19.575Z</time>
      </trkpt>
      <trkpt lat="45.66513" lon="5.57103">
        <ele>210</ele>
        <time>2021-07-20T05:46:20.575Z</time>
      </trkpt>
      <trkpt lat="45.66519" lon="5.57111">
        <ele>210</ele>
        <time>2021-07-20T05:46:21.575Z</time>
      </trkpt>
      <trkpt lat="45.66524" lon="5.57119">
        <ele>211</ele>
        <time>2021-07-20T05:46:22.575Z</time>
      </trkpt>
      <trkpt lat="45.66529" lon="5.57126">
        <ele>211</ele>
        <time>2021-07-20T05:46:23.575Z</time>
      </trkpt>
      <trkpt lat="45.66534" lon="5.57134">
        <ele>211</ele>
        <time>2021-07-20T05:46:24.575Z</time>
      </trkpt>
      <trkpt lat="45.6654" lon="5.57142">
        <ele>211</ele>
        <time>2021-07-20T05:46:25.575Z</time>
      </trkpt>
      <trkpt lat="45.66546" lon="5.57149">
        <ele>211</ele>
        <time>2021-07-20T05:46:26.576Z</time>
      </trkpt>
      <trkpt lat="45.66552" lon="5.57156">
        <ele>211</ele>
        <time>2021-07-20T05:46:27.575Z</time>
      </trkpt>
      <trkpt lat="45.66557" lon="5.57163">
        <ele>211</ele>
        <time>2021-07-20T05:46:28.575Z</time>
      </trkpt>
      <trkpt lat="45.66563" lon="5.5717">
        <ele>211</ele>
        <time>2021-07-20T05:46:29.575Z</time>
      </trkpt>
      <trkpt lat="45.66563" lon="5.5717">
        <ele>211</ele>
        <time>2021-07-20T05:46:30.576Z</time>
      </trkpt>
      <trkpt lat="45.66569" lon="5.57178">
        <ele>211</ele>
        <time>2021-07-20T05:46:31.575Z</time>
      </trkpt>
      <trkpt lat="45.66582" lon="5.57192">
        <ele>211</ele>
        <time>2021-07-20T05:46:32.576Z</time>
      </trkpt>
      <trkpt lat="45.66589" lon="5.57198">
        <ele>211</ele>
        <time>2021-07-20T05:46:33.575Z</time>
      </trkpt>
      <trkpt lat="45.66595" lon="5.57205">
        <ele>211</ele>
        <time>2021-07-20T05:46:34.575Z</time>
      </trkpt>
      <trkpt lat="45.66595" lon="5.57205">
        <ele>211</ele>
        <time>2021-07-20T05:46:35.575Z</time>
      </trkpt>
      <trkpt lat="45.66607" lon="5.57217">
        <ele>211</ele>
        <time>2021-07-20T05:46:36.575Z</time>
      </trkpt>
      <trkpt lat="45.66613" lon="5.57223">
        <ele>211</ele>
        <time>2021-07-20T05:46:37.575Z</time>
      </trkpt>
      <trkpt lat="45.6662" lon="5.57228">
        <ele>211</ele>
        <time>2021-07-20T05:46:38.575Z</time>
      </trkpt>
      <trkpt lat="45.66627" lon="5.57233">
        <ele>211</ele>
        <time>2021-07-20T05:46:39.575Z</time>
      </trkpt>
      <trkpt lat="45.66634" lon="5.57238">
        <ele>211</ele>
        <time>2021-07-20T05:46:40.575Z</time>
      </trkpt>
      <trkpt lat="45.66641" lon="5.57242">
        <ele>212</ele>
        <time>2021-07-20T05:46:41.575Z</time>
      </trkpt>
      <trkpt lat="45.66648" lon="5.57247">
        <ele>212</ele>
        <time>2021-07-20T05:46:42.575Z</time>
      </trkpt>
      <trkpt lat="45.66648" lon="5.57247">
        <ele>212</ele>
        <time>2021-07-20T05:46:43.575Z</time>
      </trkpt>
      <trkpt lat="45.66662" lon="5.57256">
        <ele>212</ele>
        <time>2021-07-20T05:46:44.575Z</time>
      </trkpt>
      <trkpt lat="45.66669" lon="5.5726">
        <ele>212</ele>
        <time>2021-07-20T05:46:45.575Z</time>
      </trkpt>
      <trkpt lat="45.66676" lon="5.57264">
        <ele>212</ele>
        <time>2021-07-20T05:46:46.576Z</time>
      </trkpt>
      <trkpt lat="45.66683" lon="5.57268">
        <ele>213</ele>
        <time>2021-07-20T05:46:47.575Z</time>
      </trkpt>
      <trkpt lat="45.6669" lon="5.57272">
        <ele>213</ele>
        <time>2021-07-20T05:46:48.575Z</time>
      </trkpt>
      <trkpt lat="45.66697" lon="5.57276">
        <ele>213</ele>
        <time>2021-07-20T05:46:49.575Z</time>
      </trkpt>
      <trkpt lat="45.66704" lon="5.5728">
        <ele>213</ele>
        <time>2021-07-20T05:46:50.575Z</time>
      </trkpt>
      <trkpt lat="45.66711" lon="5.57284">
        <ele>213</ele>
        <time>2021-07-20T05:46:51.576Z</time>
      </trkpt>
      <trkpt lat="45.66711" lon="5.57284">
        <ele>213</ele>
        <time>2021-07-20T05:46:52.576Z</time>
      </trkpt>
      <trkpt lat="45.66725" lon="5.57292">
        <ele>213</ele>
        <time>2021-07-20T05:46:53.575Z</time>
      </trkpt>
      <trkpt lat="45.66731" lon="5.57295">
        <ele>213</ele>
        <time>2021-07-20T05:46:54.575Z</time>
      </trkpt>
      <trkpt lat="45.66738" lon="5.57299">
        <ele>213</ele>
        <time>2021-07-20T05:46:55.575Z</time>
      </trkpt>
      <trkpt lat="45.66744" lon="5.57302">
        <ele>213</ele>
        <time>2021-07-20T05:46:56.575Z</time>
      </trkpt>
      <trkpt lat="45.66749" lon="5.57306">
        <ele>213</ele>
        <time>2021-07-20T05:46:57.575Z</time>
      </trkpt>
      <trkpt lat="45.66756" lon="5.57309">
        <ele>213</ele>
        <time>2021-07-20T05:46:58.575Z</time>
      </trkpt>
      <trkpt lat="45.66762" lon="5.57313">
        <ele>212</ele>
        <time>2021-07-20T05:46:59.576Z</time>
      </trkpt>
      <trkpt lat="45.66769" lon="5.57317">
        <ele>212</ele>
        <time>2021-07-20T05:47:00.575Z</time>
      </trkpt>
      <trkpt lat="45.66775" lon="5.57321">
        <ele>211</ele>
        <time>2021-07-20T05:47:01.576Z</time>
      </trkpt>
      <trkpt lat="45.66782" lon="5.57325">
        <ele>211</ele>
        <time>2021-07-20T05:47:02.575Z</time>
      </trkpt>
      <trkpt lat="45.66788" lon="5.57329">
        <ele>211</ele>
        <time>2021-07-20T05:47:03.575Z</time>
      </trkpt>
      <trkpt lat="45.66793" lon="5.57332">
        <ele>211</ele>
        <time>2021-07-20T05:47:04.575Z</time>
      </trkpt>
      <trkpt lat="45.66799" lon="5.57336">
        <ele>211</ele>
        <time>2021-07-20T05:47:05.575Z</time>
      </trkpt>
      <trkpt lat="45.66805" lon="5.57339">
        <ele>211</ele>
        <time>2021-07-20T05:47:06.575Z</time>
      </trkpt>
      <trkpt lat="45.66811" lon="5.57342">
        <ele>211</ele>
        <time>2021-07-20T05:47:07.575Z</time>
      </trkpt>
      <trkpt lat="45.66817" lon="5.57345">
        <ele>211</ele>
        <time>2021-07-20T05:47:08.575Z</time>
      </trkpt>
      <trkpt lat="45.66823" lon="5.57349">
        <ele>211</ele>
        <time>2021-07-20T05:47:09.575Z</time>
      </trkpt>
      <trkpt lat="45.66829" lon="5.57353">
        <ele>212</ele>
        <time>2021-07-20T05:47:10.576Z</time>
      </trkpt>
      <trkpt lat="45.66834" lon="5.57356">
        <ele>212</ele>
        <time>2021-07-20T05:47:11.576Z</time>
      </trkpt>
      <trkpt lat="45.6684" lon="5.5736">
        <ele>213</ele>
        <time>2021-07-20T05:47:12.575Z</time>
      </trkpt>
      <trkpt lat="45.66845" lon="5.57363">
        <ele>213</ele>
        <time>2021-07-20T05:47:13.575Z</time>
      </trkpt>
      <trkpt lat="45.66851" lon="5.57366">
        <ele>214</ele>
        <time>2021-07-20T05:47:14.575Z</time>
      </trkpt>
      <trkpt lat="45.66858" lon="5.5737">
        <ele>214</ele>
        <time>2021-07-20T05:47:15.576Z</time>
      </trkpt>
      <trkpt lat="45.66865" lon="5.57375">
        <ele>215</ele>
        <time>2021-07-20T05:47:16.575Z</time>
      </trkpt>
      <trkpt lat="45.66871" lon="5.57379">
        <ele>215</ele>
        <time>2021-07-20T05:47:17.575Z</time>
      </trkpt>
      <trkpt lat="45.66877" lon="5.57383">
        <ele>215</ele>
        <time>2021-07-20T05:47:18.575Z</time>
      </trkpt>
      <trkpt lat="45.66884" lon="5.57387">
        <ele>215</ele>
        <time>2021-07-20T05:47:19.575Z</time>
      </trkpt>
      <trkpt lat="45.6689" lon="5.57391">
        <ele>215</ele>
        <time>2021-07-20T05:47:20.575Z</time>
      </trkpt>
      <trkpt lat="45.66896" lon="5.57395">
        <ele>215</ele>
        <time>2021-07-20T05:47:21.575Z</time>
      </trkpt>
      <trkpt lat="45.66903" lon="5.57399">
        <ele>215</ele>
        <time>2021-07-20T05:47:22.575Z</time>
      </trkpt>
      <trkpt lat="45.66909" lon="5.57403">
        <ele>215</ele>
        <time>2021-07-20T05:47:23.576Z</time>
      </trkpt>
      <trkpt lat="45.66916" lon="5.57407">
        <ele>215</ele>
        <time>2021-07-20T05:47:24.575Z</time>
      </trkpt>
      <trkpt lat="45.66922" lon="5.57411">
        <ele>215</ele>
        <time>2021-07-20T05:47:25.575Z</time>
      </trkpt>
      <trkpt lat="45.66928" lon="5.57414">
        <ele>215</ele>
        <time>2021-07-20T05:47:26.575Z</time>
      </trkpt>
      <trkpt lat="45.66936" lon="5.57419">
        <ele>216</ele>
        <time>2021-07-20T05:47:27.575Z</time>
      </trkpt>
      <trkpt lat="45.66941" lon="5.57422">
        <ele>216</ele>
        <time>2021-07-20T05:47:28.575Z</time>
      </trkpt>
      <trkpt lat="45.66947" lon="5.57426">
        <ele>216</ele>
        <time>2021-07-20T05:47:29.576Z</time>
      </trkpt>
      <trkpt lat="45.66953" lon="5.5743">
        <ele>216</ele>
        <time>2021-07-20T05:47:30.575Z</time>
      </trkpt>
      <trkpt lat="45.6696" lon="5.57433">
        <ele>217</ele>
        <time>2021-07-20T05:47:31.575Z</time>
      </trkpt>
      <trkpt lat="45.66966" lon="5.57437">
        <ele>217</ele>
        <time>2021-07-20T05:47:32.575Z</time>
      </trkpt>
      <trkpt lat="45.66972" lon="5.57441">
        <ele>217</ele>
        <time>2021-07-20T05:47:33.575Z</time>
      </trkpt>
      <trkpt lat="45.66979" lon="5.57445">
        <ele>218</ele>
        <time>2021-07-20T05:47:34.575Z</time>
      </trkpt>
      <trkpt lat="45.66985" lon="5.57449">
        <ele>218</ele>
        <time>2021-07-20T05:47:35.576Z</time>
      </trkpt>
      <trkpt lat="45.66991" lon="5.57453">
        <ele>218</ele>
        <time>2021-07-20T05:47:36.576Z</time>
      </trkpt>
      <trkpt lat="45.66998" lon="5.57457">
        <ele>218</ele>
        <time>2021-07-20T05:47:37.575Z</time>
      </trkpt>
      <trkpt lat="45.67004" lon="5.57461">
        <ele>218</ele>
        <time>2021-07-20T05:47:38.576Z</time>
      </trkpt>
      <trkpt lat="45.6701" lon="5.57465">
        <ele>218</ele>
        <time>2021-07-20T05:47:39.575Z</time>
      </trkpt>
      <trkpt lat="45.67016" lon="5.57469">
        <ele>218</ele>
        <time>2021-07-20T05:47:40.575Z</time>
      </trkpt>
      <trkpt lat="45.67022" lon="5.57473">
        <ele>218</ele>
        <time>2021-07-20T05:47:41.575Z</time>
      </trkpt>
      <trkpt lat="45.67028" lon="5.57477">
        <ele>218</ele>
        <time>2021-07-20T05:47:42.575Z</time>
      </trkpt>
      <trkpt lat="45.67034" lon="5.57481">
        <ele>218</ele>
        <time>2021-07-20T05:47:43.575Z</time>
      </trkpt>
      <trkpt lat="45.6704" lon="5.57484">
        <ele>218</ele>
        <time>2021-07-20T05:47:44.575Z</time>
      </trkpt>
      <trkpt lat="45.67046" lon="5.57488">
        <ele>218</ele>
        <time>2021-07-20T05:47:45.575Z</time>
      </trkpt>
      <trkpt lat="45.67052" lon="5.57492">
        <ele>218</ele>
        <time>2021-07-20T05:47:46.575Z</time>
      </trkpt>
      <trkpt lat="45.67059" lon="5.57497">
        <ele>218</ele>
        <time>2021-07-20T05:47:47.575Z</time>
      </trkpt>
      <trkpt lat="45.67065" lon="5.57501">
        <ele>218</ele>
        <time>2021-07-20T05:47:48.575Z</time>
      </trkpt>
      <trkpt lat="45.6707" lon="5.57504">
        <ele>218</ele>
        <time>2021-07-20T05:47:49.576Z</time>
      </trkpt>
      <trkpt lat="45.67076" lon="5.57508">
        <ele>218</ele>
        <time>2021-07-20T05:47:50.575Z</time>
      </trkpt>
      <trkpt lat="45.67083" lon="5.57512">
        <ele>218</ele>
        <time>2021-07-20T05:47:51.575Z</time>
      </trkpt>
      <trkpt lat="45.67089" lon="5.57517">
        <ele>218</ele>
        <time>2021-07-20T05:47:52.576Z</time>
      </trkpt>
      <trkpt lat="45.67094" lon="5.5752">
        <ele>218</ele>
        <time>2021-07-20T05:47:53.575Z</time>
      </trkpt>
      <trkpt lat="45.671" lon="5.57524">
        <ele>218</ele>
        <time>2021-07-20T05:47:54.575Z</time>
      </trkpt>
      <trkpt lat="45.67108" lon="5.57529">
        <ele>218</ele>
        <time>2021-07-20T05:47:55.575Z</time>
      </trkpt>
      <trkpt lat="45.67112" lon="5.57532">
        <ele>218</ele>
        <time>2021-07-20T05:47:56.576Z</time>
      </trkpt>
      <trkpt lat="45.67118" lon="5.57536">
        <ele>218</ele>
        <time>2021-07-20T05:47:57.575Z</time>
      </trkpt>
      <trkpt lat="45.67118" lon="5.57536">
        <ele>218</ele>
        <time>2021-07-20T05:47:58.575Z</time>
      </trkpt>
      <trkpt lat="45.67131" lon="5.57545">
        <ele>218</ele>
        <time>2021-07-20T05:47:59.575Z</time>
      </trkpt>
      <trkpt lat="45.67131" lon="5.57545">
        <ele>218</ele>
        <time>2021-07-20T05:48:00.575Z</time>
      </trkpt>
      <trkpt lat="45.67145" lon="5.57553">
        <ele>218</ele>
        <time>2021-07-20T05:48:01.575Z</time>
      </trkpt>
      <trkpt lat="45.6715" lon="5.57556">
        <ele>218</ele>
        <time>2021-07-20T05:48:02.575Z</time>
      </trkpt>
      <trkpt lat="45.67156" lon="5.5756">
        <ele>219</ele>
        <time>2021-07-20T05:48:03.576Z</time>
      </trkpt>
      <trkpt lat="45.67162" lon="5.57563">
        <ele>219</ele>
        <time>2021-07-20T05:48:04.575Z</time>
      </trkpt>
      <trkpt lat="45.67168" lon="5.57567">
        <ele>219</ele>
        <time>2021-07-20T05:48:05.575Z</time>
      </trkpt>
      <trkpt lat="45.67173" lon="5.57571">
        <ele>219</ele>
        <time>2021-07-20T05:48:06.575Z</time>
      </trkpt>
      <trkpt lat="45.67178" lon="5.57574">
        <ele>220</ele>
        <time>2021-07-20T05:48:07.575Z</time>
      </trkpt>
      <trkpt lat="45.67184" lon="5.57578">
        <ele>220</ele>
        <time>2021-07-20T05:48:08.575Z</time>
      </trkpt>
      <trkpt lat="45.6719" lon="5.57582">
        <ele>220</ele>
        <time>2021-07-20T05:48:09.575Z</time>
      </trkpt>
      <trkpt lat="45.67195" lon="5.57586">
        <ele>220</ele>
        <time>2021-07-20T05:48:10.575Z</time>
      </trkpt>
      <trkpt lat="45.67201" lon="5.5759">
        <ele>221</ele>
        <time>2021-07-20T05:48:11.575Z</time>
      </trkpt>
      <trkpt lat="45.67206" lon="5.57594">
        <ele>221</ele>
        <time>2021-07-20T05:48:12.575Z</time>
      </trkpt>
      <trkpt lat="45.67212" lon="5.57599">
        <ele>221</ele>
        <time>2021-07-20T05:48:13.575Z</time>
      </trkpt>
      <trkpt lat="45.67217" lon="5.57603">
        <ele>222</ele>
        <time>2021-07-20T05:48:14.575Z</time>
      </trkpt>
      <trkpt lat="45.67223" lon="5.57607">
        <ele>222</ele>
        <time>2021-07-20T05:48:15.575Z</time>
      </trkpt>
      <trkpt lat="45.67228" lon="5.57611">
        <ele>222</ele>
        <time>2021-07-20T05:48:16.575Z</time>
      </trkpt>
      <trkpt lat="45.67233" lon="5.57615">
        <ele>223</ele>
        <time>2021-07-20T05:48:17.575Z</time>
      </trkpt>
      <trkpt lat="45.67238" lon="5.5762">
        <ele>223</ele>
        <time>2021-07-20T05:48:18.575Z</time>
      </trkpt>
      <trkpt lat="45.67242" lon="5.57624">
        <ele>223</ele>
        <time>2021-07-20T05:48:19.575Z</time>
      </trkpt>
      <trkpt lat="45.67246" lon="5.57629">
        <ele>223</ele>
        <time>2021-07-20T05:48:20.575Z</time>
      </trkpt>
      <trkpt lat="45.67251" lon="5.57634">
        <ele>224</ele>
        <time>2021-07-20T05:48:21.575Z</time>
      </trkpt>
      <trkpt lat="45.67255" lon="5.5764">
        <ele>224</ele>
        <time>2021-07-20T05:48:22.576Z</time>
      </trkpt>
      <trkpt lat="45.67258" lon="5.57646">
        <ele>224</ele>
        <time>2021-07-20T05:48:23.575Z</time>
      </trkpt>
      <trkpt lat="45.6726" lon="5.57653">
        <ele>224</ele>
        <time>2021-07-20T05:48:24.575Z</time>
      </trkpt>
      <trkpt lat="45.67261" lon="5.57661">
        <ele>224</ele>
        <time>2021-07-20T05:48:25.575Z</time>
      </trkpt>
      <trkpt lat="45.67262" lon="5.57669">
        <ele>223</ele>
        <time>2021-07-20T05:48:26.575Z</time>
      </trkpt>
      <trkpt lat="45.67262" lon="5.57678">
        <ele>223</ele>
        <time>2021-07-20T05:48:27.576Z</time>
      </trkpt>
      <trkpt lat="45.67261" lon="5.57686">
        <ele>223</ele>
        <time>2021-07-20T05:48:28.575Z</time>
      </trkpt>
      <trkpt lat="45.67259" lon="5.57695">
        <ele>222</ele>
        <time>2021-07-20T05:48:29.575Z</time>
      </trkpt>
      <trkpt lat="45.67257" lon="5.57704">
        <ele>222</ele>
        <time>2021-07-20T05:48:30.575Z</time>
      </trkpt>
      <trkpt lat="45.67257" lon="5.57704">
        <ele>222</ele>
        <time>2021-07-20T05:48:31.575Z</time>
      </trkpt>
      <trkpt lat="45.67249" lon="5.5772">
        <ele>222</ele>
        <time>2021-07-20T05:48:32.576Z</time>
      </trkpt>
      <trkpt lat="45.67244" lon="5.57728">
        <ele>222</ele>
        <time>2021-07-20T05:48:33.575Z</time>
      </trkpt>
      <trkpt lat="45.67239" lon="5.57735">
        <ele>221</ele>
        <time>2021-07-20T05:48:34.575Z</time>
      </trkpt>
      <trkpt lat="45.67234" lon="5.57743">
        <ele>221</ele>
        <time>2021-07-20T05:48:35.575Z</time>
      </trkpt>
      <trkpt lat="45.67229" lon="5.5775">
        <ele>220</ele>
        <time>2021-07-20T05:48:36.575Z</time>
      </trkpt>
      <trkpt lat="45.67223" lon="5.57758">
        <ele>220</ele>
        <time>2021-07-20T05:48:37.576Z</time>
      </trkpt>
      <trkpt lat="45.67218" lon="5.57765">
        <ele>220</ele>
        <time>2021-07-20T05:48:38.575Z</time>
      </trkpt>
      <trkpt lat="45.67212" lon="5.57773">
        <ele>220</ele>
        <time>2021-07-20T05:48:39.575Z</time>
      </trkpt>
      <trkpt lat="45.67207" lon="5.5778">
        <ele>220</ele>
        <time>2021-07-20T05:48:40.575Z</time>
      </trkpt>
      <trkpt lat="45.67201" lon="5.57787">
        <ele>220</ele>
        <time>2021-07-20T05:48:41.575Z</time>
      </trkpt>
      <trkpt lat="45.67194" lon="5.57793">
        <ele>219</ele>
        <time>2021-07-20T05:48:42.575Z</time>
      </trkpt>
      <trkpt lat="45.67187" lon="5.578">
        <ele>219</ele>
        <time>2021-07-20T05:48:43.575Z</time>
      </trkpt>
      <trkpt lat="45.67181" lon="5.57807">
        <ele>219</ele>
        <time>2021-07-20T05:48:44.575Z</time>
      </trkpt>
      <trkpt lat="45.67174" lon="5.57815">
        <ele>219</ele>
        <time>2021-07-20T05:48:45.576Z</time>
      </trkpt>
      <trkpt lat="45.67169" lon="5.57823">
        <ele>219</ele>
        <time>2021-07-20T05:48:46.575Z</time>
      </trkpt>
      <trkpt lat="45.67163" lon="5.57833">
        <ele>219</ele>
        <time>2021-07-20T05:48:47.575Z</time>
      </trkpt>
      <trkpt lat="45.67157" lon="5.57842">
        <ele>219</ele>
        <time>2021-07-20T05:48:48.575Z</time>
      </trkpt>
      <trkpt lat="45.67152" lon="5.57851">
        <ele>218</ele>
        <time>2021-07-20T05:48:49.575Z</time>
      </trkpt>
      <trkpt lat="45.67147" lon="5.57861">
        <ele>218</ele>
        <time>2021-07-20T05:48:50.576Z</time>
      </trkpt>
      <trkpt lat="45.67141" lon="5.57871">
        <ele>218</ele>
        <time>2021-07-20T05:48:51.575Z</time>
      </trkpt>
      <trkpt lat="45.67136" lon="5.5788">
        <ele>218</ele>
        <time>2021-07-20T05:48:52.575Z</time>
      </trkpt>
      <trkpt lat="45.67131" lon="5.5789">
        <ele>218</ele>
        <time>2021-07-20T05:48:53.575Z</time>
      </trkpt>
      <trkpt lat="45.67127" lon="5.579">
        <ele>218</ele>
        <time>2021-07-20T05:48:54.576Z</time>
      </trkpt>
      <trkpt lat="45.67122" lon="5.57911">
        <ele>218</ele>
        <time>2021-07-20T05:48:55.576Z</time>
      </trkpt>
      <trkpt lat="45.67117" lon="5.57921">
        <ele>217</ele>
        <time>2021-07-20T05:48:56.575Z</time>
      </trkpt>
      <trkpt lat="45.67113" lon="5.57932">
        <ele>217</ele>
        <time>2021-07-20T05:48:57.575Z</time>
      </trkpt>
      <trkpt lat="45.67108" lon="5.57942">
        <ele>216</ele>
        <time>2021-07-20T05:48:58.575Z</time>
      </trkpt>
      <trkpt lat="45.67103" lon="5.57952">
        <ele>216</ele>
        <time>2021-07-20T05:48:59.575Z</time>
      </trkpt>
      <trkpt lat="45.67099" lon="5.57963">
        <ele>216</ele>
        <time>2021-07-20T05:49:00.575Z</time>
      </trkpt>
      <trkpt lat="45.67094" lon="5.57973">
        <ele>215</ele>
        <time>2021-07-20T05:49:01.575Z</time>
      </trkpt>
      <trkpt lat="45.6709" lon="5.57984">
        <ele>215</ele>
        <time>2021-07-20T05:49:02.575Z</time>
      </trkpt>
      <trkpt lat="45.67085" lon="5.57994">
        <ele>214</ele>
        <time>2021-07-20T05:49:03.575Z</time>
      </trkpt>
      <trkpt lat="45.6708" lon="5.58005">
        <ele>214</ele>
        <time>2021-07-20T05:49:04.575Z</time>
      </trkpt>
      <trkpt lat="45.67075" lon="5.58015">
        <ele>214</ele>
        <time>2021-07-20T05:49:05.575Z</time>
      </trkpt>
      <trkpt lat="45.67069" lon="5.58027">
        <ele>214</ele>
        <time>2021-07-20T05:49:06.575Z</time>
      </trkpt>
      <trkpt lat="45.67065" lon="5.58038">
        <ele>213</ele>
        <time>2021-07-20T05:49:07.575Z</time>
      </trkpt>
      <trkpt lat="45.6706" lon="5.58048">
        <ele>213</ele>
        <time>2021-07-20T05:49:08.576Z</time>
      </trkpt>
      <trkpt lat="45.67056" lon="5.58058">
        <ele>213</ele>
        <time>2021-07-20T05:49:09.575Z</time>
      </trkpt>
      <trkpt lat="45.67052" lon="5.58069">
        <ele>213</ele>
        <time>2021-07-20T05:49:10.575Z</time>
      </trkpt>
      <trkpt lat="45.67049" lon="5.5808">
        <ele>213</ele>
        <time>2021-07-20T05:49:11.575Z</time>
      </trkpt>
      <trkpt lat="45.67045" lon="5.58092">
        <ele>212</ele>
        <time>2021-07-20T05:49:12.576Z</time>
      </trkpt>
      <trkpt lat="45.67042" lon="5.58103">
        <ele>212</ele>
        <time>2021-07-20T05:49:13.575Z</time>
      </trkpt>
      <trkpt lat="45.67039" lon="5.58115">
        <ele>212</ele>
        <time>2021-07-20T05:49:14.575Z</time>
      </trkpt>
      <trkpt lat="45.67037" lon="5.58127">
        <ele>212</ele>
        <time>2021-07-20T05:49:15.575Z</time>
      </trkpt>
      <trkpt lat="45.67035" lon="5.58139">
        <ele>212</ele>
        <time>2021-07-20T05:49:16.575Z</time>
      </trkpt>
      <trkpt lat="45.67034" lon="5.58152">
        <ele>211</ele>
        <time>2021-07-20T05:49:17.575Z</time>
      </trkpt>
      <trkpt lat="45.67033" lon="5.58164">
        <ele>211</ele>
        <time>2021-07-20T05:49:18.575Z</time>
      </trkpt>
      <trkpt lat="45.67032" lon="5.58174">
        <ele>211</ele>
        <time>2021-07-20T05:49:19.575Z</time>
      </trkpt>
      <trkpt lat="45.67033" lon="5.58187">
        <ele>211</ele>
        <time>2021-07-20T05:49:20.575Z</time>
      </trkpt>
      <trkpt lat="45.67034" lon="5.58199">
        <ele>211</ele>
        <time>2021-07-20T05:49:21.575Z</time>
      </trkpt>
      <trkpt lat="45.67036" lon="5.58212">
        <ele>211</ele>
        <time>2021-07-20T05:49:22.576Z</time>
      </trkpt>
      <trkpt lat="45.67038" lon="5.58224">
        <ele>211</ele>
        <time>2021-07-20T05:49:23.575Z</time>
      </trkpt>
      <trkpt lat="45.6704" lon="5.58237">
        <ele>211</ele>
        <time>2021-07-20T05:49:24.575Z</time>
      </trkpt>
      <trkpt lat="45.67043" lon="5.5825">
        <ele>211</ele>
        <time>2021-07-20T05:49:25.575Z</time>
      </trkpt>
      <trkpt lat="45.67046" lon="5.58262">
        <ele>211</ele>
        <time>2021-07-20T05:49:26.576Z</time>
      </trkpt>
      <trkpt lat="45.67046" lon="5.58262">
        <ele>211</ele>
        <time>2021-07-20T05:49:27.575Z</time>
      </trkpt>
      <trkpt lat="45.67053" lon="5.58288">
        <ele>211</ele>
        <time>2021-07-20T05:49:28.575Z</time>
      </trkpt>
      <trkpt lat="45.67056" lon="5.58301">
        <ele>211</ele>
        <time>2021-07-20T05:49:29.576Z</time>
      </trkpt>
      <trkpt lat="45.6706" lon="5.58316">
        <ele>211</ele>
        <time>2021-07-20T05:49:30.576Z</time>
      </trkpt>
      <trkpt lat="45.67063" lon="5.58329">
        <ele>211</ele>
        <time>2021-07-20T05:49:31.575Z</time>
      </trkpt>
      <trkpt lat="45.67066" lon="5.58339">
        <ele>211</ele>
        <time>2021-07-20T05:49:32.575Z</time>
      </trkpt>
      <trkpt lat="45.6707" lon="5.58355">
        <ele>211</ele>
        <time>2021-07-20T05:49:33.575Z</time>
      </trkpt>
      <trkpt lat="45.67073" lon="5.58367">
        <ele>211</ele>
        <time>2021-07-20T05:49:34.575Z</time>
      </trkpt>
      <trkpt lat="45.67075" lon="5.58378">
        <ele>210</ele>
        <time>2021-07-20T05:49:35.575Z</time>
      </trkpt>
      <trkpt lat="45.67079" lon="5.5839">
        <ele>210</ele>
        <time>2021-07-20T05:49:36.575Z</time>
      </trkpt>
      <trkpt lat="45.67082" lon="5.58405">
        <ele>210</ele>
        <time>2021-07-20T05:49:37.575Z</time>
      </trkpt>
      <trkpt lat="45.67085" lon="5.58415">
        <ele>210</ele>
        <time>2021-07-20T05:49:38.575Z</time>
      </trkpt>
      <trkpt lat="45.67088" lon="5.58427">
        <ele>210</ele>
        <time>2021-07-20T05:49:39.576Z</time>
      </trkpt>
      <trkpt lat="45.67091" lon="5.58439">
        <ele>210</ele>
        <time>2021-07-20T05:49:40.575Z</time>
      </trkpt>
      <trkpt lat="45.67094" lon="5.58451">
        <ele>210</ele>
        <time>2021-07-20T05:49:41.575Z</time>
      </trkpt>
      <trkpt lat="45.67097" lon="5.58463">
        <ele>210</ele>
        <time>2021-07-20T05:49:42.575Z</time>
      </trkpt>
      <trkpt lat="45.671" lon="5.58475">
        <ele>210</ele>
        <time>2021-07-20T05:49:43.575Z</time>
      </trkpt>
      <trkpt lat="45.67103" lon="5.58486">
        <ele>210</ele>
        <time>2021-07-20T05:49:44.575Z</time>
      </trkpt>
      <trkpt lat="45.67106" lon="5.58497">
        <ele>209</ele>
        <time>2021-07-20T05:49:45.575Z</time>
      </trkpt>
      <trkpt lat="45.67109" lon="5.58509">
        <ele>209</ele>
        <time>2021-07-20T05:49:46.576Z</time>
      </trkpt>
      <trkpt lat="45.67109" lon="5.58509">
        <ele>209</ele>
        <time>2021-07-20T05:49:47.576Z</time>
      </trkpt>
      <trkpt lat="45.67115" lon="5.58533">
        <ele>209</ele>
        <time>2021-07-20T05:49:48.575Z</time>
      </trkpt>
      <trkpt lat="45.67117" lon="5.58543">
        <ele>209</ele>
        <time>2021-07-20T05:49:49.576Z</time>
      </trkpt>
      <trkpt lat="45.6712" lon="5.58552">
        <ele>209</ele>
        <time>2021-07-20T05:49:50.575Z</time>
      </trkpt>
      <trkpt lat="45.67123" lon="5.58563">
        <ele>209</ele>
        <time>2021-07-20T05:49:51.575Z</time>
      </trkpt>
      <trkpt lat="45.67123" lon="5.58563">
        <ele>209</ele>
        <time>2021-07-20T05:49:52.575Z</time>
      </trkpt>
      <trkpt lat="45.67126" lon="5.58575">
        <ele>209</ele>
        <time>2021-07-20T05:49:53.575Z</time>
      </trkpt>
      <trkpt lat="45.67132" lon="5.58597">
        <ele>209</ele>
        <time>2021-07-20T05:49:54.575Z</time>
      </trkpt>
      <trkpt lat="45.67134" lon="5.58605">
        <ele>209</ele>
        <time>2021-07-20T05:49:55.575Z</time>
      </trkpt>
      <trkpt lat="45.67137" lon="5.58618">
        <ele>209</ele>
        <time>2021-07-20T05:49:56.575Z</time>
      </trkpt>
      <trkpt lat="45.6714" lon="5.58629">
        <ele>209</ele>
        <time>2021-07-20T05:49:57.575Z</time>
      </trkpt>
      <trkpt lat="45.67142" lon="5.58637">
        <ele>209</ele>
        <time>2021-07-20T05:49:58.575Z</time>
      </trkpt>
      <trkpt lat="45.67145" lon="5.58651">
        <ele>209</ele>
        <time>2021-07-20T05:49:59.575Z</time>
      </trkpt>
      <trkpt lat="45.67147" lon="5.58661">
        <ele>209</ele>
        <time>2021-07-20T05:50:00.575Z</time>
      </trkpt>
      <trkpt lat="45.6715" lon="5.58672">
        <ele>209</ele>
        <time>2021-07-20T05:50:01.575Z</time>
      </trkpt>
      <trkpt lat="45.67153" lon="5.58683">
        <ele>209</ele>
        <time>2021-07-20T05:50:02.575Z</time>
      </trkpt>
      <trkpt lat="45.67155" lon="5.58692">
        <ele>209</ele>
        <time>2021-07-20T05:50:03.575Z</time>
      </trkpt>
      <trkpt lat="45.67158" lon="5.58702">
        <ele>209</ele>
        <time>2021-07-20T05:50:04.575Z</time>
      </trkpt>
      <trkpt lat="45.67161" lon="5.58715">
        <ele>209</ele>
        <time>2021-07-20T05:50:05.575Z</time>
      </trkpt>
      <trkpt lat="45.67164" lon="5.58726">
        <ele>208</ele>
        <time>2021-07-20T05:50:06.575Z</time>
      </trkpt>
      <trkpt lat="45.67166" lon="5.58736">
        <ele>208</ele>
        <time>2021-07-20T05:50:07.575Z</time>
      </trkpt>
      <trkpt lat="45.67169" lon="5.58747">
        <ele>208</ele>
        <time>2021-07-20T05:50:08.575Z</time>
      </trkpt>
      <trkpt lat="45.67172" lon="5.58758">
        <ele>208</ele>
        <time>2021-07-20T05:50:09.575Z</time>
      </trkpt>
      <trkpt lat="45.67175" lon="5.58769">
        <ele>208</ele>
        <time>2021-07-20T05:50:10.575Z</time>
      </trkpt>
      <trkpt lat="45.67178" lon="5.5878">
        <ele>208</ele>
        <time>2021-07-20T05:50:11.575Z</time>
      </trkpt>
      <trkpt lat="45.67181" lon="5.58791">
        <ele>208</ele>
        <time>2021-07-20T05:50:12.576Z</time>
      </trkpt>
      <trkpt lat="45.67183" lon="5.588">
        <ele>208</ele>
        <time>2021-07-20T05:50:13.575Z</time>
      </trkpt>
      <trkpt lat="45.67186" lon="5.58812">
        <ele>208</ele>
        <time>2021-07-20T05:50:14.576Z</time>
      </trkpt>
      <trkpt lat="45.67188" lon="5.58823">
        <ele>208</ele>
        <time>2021-07-20T05:50:15.575Z</time>
      </trkpt>
      <trkpt lat="45.67191" lon="5.58834">
        <ele>207</ele>
        <time>2021-07-20T05:50:16.575Z</time>
      </trkpt>
      <trkpt lat="45.67191" lon="5.58834">
        <ele>207</ele>
        <time>2021-07-20T05:50:17.575Z</time>
      </trkpt>
      <trkpt lat="45.67196" lon="5.58855">
        <ele>207</ele>
        <time>2021-07-20T05:50:18.575Z</time>
      </trkpt>
      <trkpt lat="45.67198" lon="5.58865">
        <ele>208</ele>
        <time>2021-07-20T05:50:19.575Z</time>
      </trkpt>
      <trkpt lat="45.67198" lon="5.58865">
        <ele>208</ele>
        <time>2021-07-20T05:50:20.575Z</time>
      </trkpt>
      <trkpt lat="45.67202" lon="5.58884">
        <ele>208</ele>
        <time>2021-07-20T05:50:21.575Z</time>
      </trkpt>
      <trkpt lat="45.67202" lon="5.58884">
        <ele>208</ele>
        <time>2021-07-20T05:50:22.575Z</time>
      </trkpt>
      <trkpt lat="45.67207" lon="5.58906">
        <ele>208</ele>
        <time>2021-07-20T05:50:23.575Z</time>
      </trkpt>
      <trkpt lat="45.67209" lon="5.58916">
        <ele>208</ele>
        <time>2021-07-20T05:50:24.575Z</time>
      </trkpt>
      <trkpt lat="45.67212" lon="5.58926">
        <ele>208</ele>
        <time>2021-07-20T05:50:25.575Z</time>
      </trkpt>
      <trkpt lat="45.67214" lon="5.58934">
        <ele>209</ele>
        <time>2021-07-20T05:50:26.575Z</time>
      </trkpt>
      <trkpt lat="45.67217" lon="5.58946">
        <ele>209</ele>
        <time>2021-07-20T05:50:27.575Z</time>
      </trkpt>
      <trkpt lat="45.67219" lon="5.58956">
        <ele>210</ele>
        <time>2021-07-20T05:50:28.575Z</time>
      </trkpt>
      <trkpt lat="45.67222" lon="5.58966">
        <ele>210</ele>
        <time>2021-07-20T05:50:29.575Z</time>
      </trkpt>
      <trkpt lat="45.67224" lon="5.58974">
        <ele>210</ele>
        <time>2021-07-20T05:50:30.575Z</time>
      </trkpt>
      <trkpt lat="45.67227" lon="5.58986">
        <ele>210</ele>
        <time>2021-07-20T05:50:31.575Z</time>
      </trkpt>
      <trkpt lat="45.67229" lon="5.58996">
        <ele>210</ele>
        <time>2021-07-20T05:50:32.575Z</time>
      </trkpt>
      <trkpt lat="45.67232" lon="5.59006">
        <ele>209</ele>
        <time>2021-07-20T05:50:33.575Z</time>
      </trkpt>
      <trkpt lat="45.67234" lon="5.59014">
        <ele>209</ele>
        <time>2021-07-20T05:50:34.575Z</time>
      </trkpt>
      <trkpt lat="45.67237" lon="5.59027">
        <ele>209</ele>
        <time>2021-07-20T05:50:35.575Z</time>
      </trkpt>
      <trkpt lat="45.67239" lon="5.59037">
        <ele>209</ele>
        <time>2021-07-20T05:50:36.575Z</time>
      </trkpt>
      <trkpt lat="45.67241" lon="5.59047">
        <ele>209</ele>
        <time>2021-07-20T05:50:37.575Z</time>
      </trkpt>
      <trkpt lat="45.67243" lon="5.59055">
        <ele>209</ele>
        <time>2021-07-20T05:50:38.575Z</time>
      </trkpt>
      <trkpt lat="45.67243" lon="5.59055">
        <ele>209</ele>
        <time>2021-07-20T05:50:39.576Z</time>
      </trkpt>
      <trkpt lat="45.67249" lon="5.59077">
        <ele>209</ele>
        <time>2021-07-20T05:50:40.575Z</time>
      </trkpt>
      <trkpt lat="45.67251" lon="5.59087">
        <ele>209</ele>
        <time>2021-07-20T05:50:41.575Z</time>
      </trkpt>
      <trkpt lat="45.67254" lon="5.59097">
        <ele>208</ele>
        <time>2021-07-20T05:50:42.575Z</time>
      </trkpt>
      <trkpt lat="45.67256" lon="5.59107">
        <ele>208</ele>
        <time>2021-07-20T05:50:43.575Z</time>
      </trkpt>
      <trkpt lat="45.67259" lon="5.59115">
        <ele>208</ele>
        <time>2021-07-20T05:50:44.576Z</time>
      </trkpt>
      <trkpt lat="45.67261" lon="5.59127">
        <ele>208</ele>
        <time>2021-07-20T05:50:45.575Z</time>
      </trkpt>
      <trkpt lat="45.67264" lon="5.59136">
        <ele>208</ele>
        <time>2021-07-20T05:50:46.576Z</time>
      </trkpt>
      <trkpt lat="45.67266" lon="5.59147">
        <ele>208</ele>
        <time>2021-07-20T05:50:47.575Z</time>
      </trkpt>
      <trkpt lat="45.67268" lon="5.59155">
        <ele>208</ele>
        <time>2021-07-20T05:50:48.575Z</time>
      </trkpt>
      <trkpt lat="45.67271" lon="5.59167">
        <ele>208</ele>
        <time>2021-07-20T05:50:49.575Z</time>
      </trkpt>
      <trkpt lat="45.67274" lon="5.59177">
        <ele>208</ele>
        <time>2021-07-20T05:50:50.576Z</time>
      </trkpt>
      <trkpt lat="45.67276" lon="5.59187">
        <ele>208</ele>
        <time>2021-07-20T05:50:51.575Z</time>
      </trkpt>
      <trkpt lat="45.67279" lon="5.59196">
        <ele>208</ele>
        <time>2021-07-20T05:50:52.575Z</time>
      </trkpt>
      <trkpt lat="45.67281" lon="5.59204">
        <ele>208</ele>
        <time>2021-07-20T05:50:53.575Z</time>
      </trkpt>
      <trkpt lat="45.67284" lon="5.59216">
        <ele>207</ele>
        <time>2021-07-20T05:50:54.575Z</time>
      </trkpt>
      <trkpt lat="45.67286" lon="5.59226">
        <ele>207</ele>
        <time>2021-07-20T05:50:55.575Z</time>
      </trkpt>
      <trkpt lat="45.67289" lon="5.59236">
        <ele>207</ele>
        <time>2021-07-20T05:50:56.576Z</time>
      </trkpt>
      <trkpt lat="45.67291" lon="5.59246">
        <ele>206</ele>
        <time>2021-07-20T05:50:57.575Z</time>
      </trkpt>
      <trkpt lat="45.67294" lon="5.59257">
        <ele>206</ele>
        <time>2021-07-20T05:50:58.575Z</time>
      </trkpt>
      <trkpt lat="45.67296" lon="5.59267">
        <ele>206</ele>
        <time>2021-07-20T05:50:59.575Z</time>
      </trkpt>
      <trkpt lat="45.67299" lon="5.59277">
        <ele>206</ele>
        <time>2021-07-20T05:51:00.576Z</time>
      </trkpt>
      <trkpt lat="45.67302" lon="5.59287">
        <ele>206</ele>
        <time>2021-07-20T05:51:01.575Z</time>
      </trkpt>
      <trkpt lat="45.67304" lon="5.59298">
        <ele>206</ele>
        <time>2021-07-20T05:51:02.575Z</time>
      </trkpt>
      <trkpt lat="45.67307" lon="5.59308">
        <ele>206</ele>
        <time>2021-07-20T05:51:03.576Z</time>
      </trkpt>
      <trkpt lat="45.6731" lon="5.59318">
        <ele>206</ele>
        <time>2021-07-20T05:51:04.575Z</time>
      </trkpt>
      <trkpt lat="45.67312" lon="5.59328">
        <ele>206</ele>
        <time>2021-07-20T05:51:05.575Z</time>
      </trkpt>
      <trkpt lat="45.67315" lon="5.59339">
        <ele>206</ele>
        <time>2021-07-20T05:51:06.575Z</time>
      </trkpt>
      <trkpt lat="45.67317" lon="5.59349">
        <ele>206</ele>
        <time>2021-07-20T05:51:07.575Z</time>
      </trkpt>
      <trkpt lat="45.6732" lon="5.5936">
        <ele>206</ele>
        <time>2021-07-20T05:51:08.575Z</time>
      </trkpt>
      <trkpt lat="45.67323" lon="5.5937">
        <ele>206</ele>
        <time>2021-07-20T05:51:09.575Z</time>
      </trkpt>
      <trkpt lat="45.67325" lon="5.5938">
        <ele>206</ele>
        <time>2021-07-20T05:51:10.575Z</time>
      </trkpt>
      <trkpt lat="45.67328" lon="5.59391">
        <ele>206</ele>
        <time>2021-07-20T05:51:11.575Z</time>
      </trkpt>
      <trkpt lat="45.6733" lon="5.59401">
        <ele>206</ele>
        <time>2021-07-20T05:51:12.575Z</time>
      </trkpt>
      <trkpt lat="45.67333" lon="5.59411">
        <ele>206</ele>
        <time>2021-07-20T05:51:13.575Z</time>
      </trkpt>
      <trkpt lat="45.67336" lon="5.59421">
        <ele>206</ele>
        <time>2021-07-20T05:51:14.575Z</time>
      </trkpt>
      <trkpt lat="45.67338" lon="5.59432">
        <ele>206</ele>
        <time>2021-07-20T05:51:15.575Z</time>
      </trkpt>
      <trkpt lat="45.67341" lon="5.59442">
        <ele>206</ele>
        <time>2021-07-20T05:51:16.575Z</time>
      </trkpt>
      <trkpt lat="45.67341" lon="5.59442">
        <ele>206</ele>
        <time>2021-07-20T05:51:17.575Z</time>
      </trkpt>
      <trkpt lat="45.67346" lon="5.59462">
        <ele>206</ele>
        <time>2021-07-20T05:51:18.575Z</time>
      </trkpt>
      <trkpt lat="45.67346" lon="5.59462">
        <ele>206</ele>
        <time>2021-07-20T05:51:19.575Z</time>
      </trkpt>
      <trkpt lat="45.67351" lon="5.5948">
        <ele>206</ele>
        <time>2021-07-20T05:51:20.575Z</time>
      </trkpt>
      <trkpt lat="45.67354" lon="5.59492">
        <ele>205</ele>
        <time>2021-07-20T05:51:21.575Z</time>
      </trkpt>
      <trkpt lat="45.67354" lon="5.59492">
        <ele>205</ele>
        <time>2021-07-20T05:51:22.575Z</time>
      </trkpt>
      <trkpt lat="45.67359" lon="5.59513">
        <ele>205</ele>
        <time>2021-07-20T05:51:23.575Z</time>
      </trkpt>
      <trkpt lat="45.67361" lon="5.59523">
        <ele>205</ele>
        <time>2021-07-20T05:51:24.575Z</time>
      </trkpt>
      <trkpt lat="45.67364" lon="5.59533">
        <ele>205</ele>
        <time>2021-07-20T05:51:25.575Z</time>
      </trkpt>
      <trkpt lat="45.67366" lon="5.59543">
        <ele>205</ele>
        <time>2021-07-20T05:51:26.575Z</time>
      </trkpt>
      <trkpt lat="45.67369" lon="5.59554">
        <ele>205</ele>
        <time>2021-07-20T05:51:27.575Z</time>
      </trkpt>
      <trkpt lat="45.67371" lon="5.59562">
        <ele>205</ele>
        <time>2021-07-20T05:51:28.575Z</time>
      </trkpt>
      <trkpt lat="45.67374" lon="5.59572">
        <ele>205</ele>
        <time>2021-07-20T05:51:29.575Z</time>
      </trkpt>
      <trkpt lat="45.67377" lon="5.59585">
        <ele>205</ele>
        <time>2021-07-20T05:51:30.575Z</time>
      </trkpt>
      <trkpt lat="45.67379" lon="5.59595">
        <ele>205</ele>
        <time>2021-07-20T05:51:31.575Z</time>
      </trkpt>
      <trkpt lat="45.67382" lon="5.59606">
        <ele>206</ele>
        <time>2021-07-20T05:51:32.575Z</time>
      </trkpt>
      <trkpt lat="45.67385" lon="5.59616">
        <ele>206</ele>
        <time>2021-07-20T05:51:33.575Z</time>
      </trkpt>
      <trkpt lat="45.67388" lon="5.59627">
        <ele>206</ele>
        <time>2021-07-20T05:51:34.576Z</time>
      </trkpt>
      <trkpt lat="45.67391" lon="5.59638">
        <ele>206</ele>
        <time>2021-07-20T05:51:35.575Z</time>
      </trkpt>
      <trkpt lat="45.67394" lon="5.59648">
        <ele>206</ele>
        <time>2021-07-20T05:51:36.575Z</time>
      </trkpt>
      <trkpt lat="45.67396" lon="5.59659">
        <ele>206</ele>
        <time>2021-07-20T05:51:37.575Z</time>
      </trkpt>
      <trkpt lat="45.67399" lon="5.59667">
        <ele>206</ele>
        <time>2021-07-20T05:51:38.575Z</time>
      </trkpt>
      <trkpt lat="45.67399" lon="5.59667">
        <ele>206</ele>
        <time>2021-07-20T05:51:39.575Z</time>
      </trkpt>
      <trkpt lat="45.67402" lon="5.59678">
        <ele>205</ele>
        <time>2021-07-20T05:51:40.575Z</time>
      </trkpt>
      <trkpt lat="45.67409" lon="5.59701">
        <ele>205</ele>
        <time>2021-07-20T05:51:41.575Z</time>
      </trkpt>
      <trkpt lat="45.67412" lon="5.5971">
        <ele>205</ele>
        <time>2021-07-20T05:51:42.575Z</time>
      </trkpt>
      <trkpt lat="45.67412" lon="5.5971">
        <ele>205</ele>
        <time>2021-07-20T05:51:43.575Z</time>
      </trkpt>
      <trkpt lat="45.67416" lon="5.59722">
        <ele>205</ele>
        <time>2021-07-20T05:51:44.575Z</time>
      </trkpt>
      <trkpt lat="45.67423" lon="5.59743">
        <ele>206</ele>
        <time>2021-07-20T05:51:45.575Z</time>
      </trkpt>
      <trkpt lat="45.67423" lon="5.59743">
        <ele>206</ele>
        <time>2021-07-20T05:51:46.575Z</time>
      </trkpt>
      <trkpt lat="45.67429" lon="5.59763">
        <ele>207</ele>
        <time>2021-07-20T05:51:47.575Z</time>
      </trkpt>
      <trkpt lat="45.67433" lon="5.59775">
        <ele>207</ele>
        <time>2021-07-20T05:51:48.576Z</time>
      </trkpt>
      <trkpt lat="45.67433" lon="5.59775">
        <ele>207</ele>
        <time>2021-07-20T05:51:49.575Z</time>
      </trkpt>
      <trkpt lat="45.6744" lon="5.59796">
        <ele>207</ele>
        <time>2021-07-20T05:51:50.575Z</time>
      </trkpt>
      <trkpt lat="45.6744" lon="5.59796">
        <ele>207</ele>
        <time>2021-07-20T05:51:51.575Z</time>
      </trkpt>
      <trkpt lat="45.67443" lon="5.59804">
        <ele>207</ele>
        <time>2021-07-20T05:51:52.576Z</time>
      </trkpt>
      <trkpt lat="45.67448" lon="5.59817">
        <ele>207</ele>
        <time>2021-07-20T05:51:53.576Z</time>
      </trkpt>
      <trkpt lat="45.67455" lon="5.59839">
        <ele>206</ele>
        <time>2021-07-20T05:51:54.575Z</time>
      </trkpt>
      <trkpt lat="45.67455" lon="5.59839">
        <ele>206</ele>
        <time>2021-07-20T05:51:55.575Z</time>
      </trkpt>
      <trkpt lat="45.67461" lon="5.59858">
        <ele>206</ele>
        <time>2021-07-20T05:51:56.575Z</time>
      </trkpt>
      <trkpt lat="45.67466" lon="5.5987">
        <ele>206</ele>
        <time>2021-07-20T05:51:57.576Z</time>
      </trkpt>
      <trkpt lat="45.67469" lon="5.59881">
        <ele>206</ele>
        <time>2021-07-20T05:51:58.575Z</time>
      </trkpt>
      <trkpt lat="45.67473" lon="5.59891">
        <ele>206</ele>
        <time>2021-07-20T05:51:59.575Z</time>
      </trkpt>
      <trkpt lat="45.67473" lon="5.59891">
        <ele>206</ele>
        <time>2021-07-20T05:52:00.575Z</time>
      </trkpt>
      <trkpt lat="45.67476" lon="5.59899">
        <ele>207</ele>
        <time>2021-07-20T05:52:01.576Z</time>
      </trkpt>
      <trkpt lat="45.6748" lon="5.59912">
        <ele>207</ele>
        <time>2021-07-20T05:52:02.575Z</time>
      </trkpt>
      <trkpt lat="45.67487" lon="5.5993">
        <ele>207</ele>
        <time>2021-07-20T05:52:03.575Z</time>
      </trkpt>
      <trkpt lat="45.67487" lon="5.5993">
        <ele>207</ele>
        <time>2021-07-20T05:52:04.575Z</time>
      </trkpt>
      <trkpt lat="45.67494" lon="5.59951">
        <ele>208</ele>
        <time>2021-07-20T05:52:05.575Z</time>
      </trkpt>
      <trkpt lat="45.67494" lon="5.59951">
        <ele>208</ele>
        <time>2021-07-20T05:52:06.575Z</time>
      </trkpt>
      <trkpt lat="45.67499" lon="5.59963">
        <ele>208</ele>
        <time>2021-07-20T05:52:07.576Z</time>
      </trkpt>
      <trkpt lat="45.67506" lon="5.59982">
        <ele>209</ele>
        <time>2021-07-20T05:52:08.575Z</time>
      </trkpt>
      <trkpt lat="45.6751" lon="5.59992">
        <ele>209</ele>
        <time>2021-07-20T05:52:09.575Z</time>
      </trkpt>
      <trkpt lat="45.67513" lon="5.60003">
        <ele>209</ele>
        <time>2021-07-20T05:52:10.575Z</time>
      </trkpt>
      <trkpt lat="45.67517" lon="5.60014">
        <ele>210</ele>
        <time>2021-07-20T05:52:11.575Z</time>
      </trkpt>
      <trkpt lat="45.67517" lon="5.60014">
        <ele>210</ele>
        <time>2021-07-20T05:52:12.575Z</time>
      </trkpt>
      <trkpt lat="45.67525" lon="5.60037">
        <ele>210</ele>
        <time>2021-07-20T05:52:13.575Z</time>
      </trkpt>
      <trkpt lat="45.67525" lon="5.60037">
        <ele>210</ele>
        <time>2021-07-20T05:52:14.576Z</time>
      </trkpt>
      <trkpt lat="45.67531" lon="5.60056">
        <ele>209</ele>
        <time>2021-07-20T05:52:15.576Z</time>
      </trkpt>
      <trkpt lat="45.67535" lon="5.60069">
        <ele>209</ele>
        <time>2021-07-20T05:52:16.575Z</time>
      </trkpt>
      <trkpt lat="45.67535" lon="5.60069">
        <ele>209</ele>
        <time>2021-07-20T05:52:17.575Z</time>
      </trkpt>
      <trkpt lat="45.67538" lon="5.6008">
        <ele>209</ele>
        <time>2021-07-20T05:52:18.575Z</time>
      </trkpt>
      <trkpt lat="45.67541" lon="5.6009">
        <ele>209</ele>
        <time>2021-07-20T05:52:19.575Z</time>
      </trkpt>
      <trkpt lat="45.67549" lon="5.60112">
        <ele>208</ele>
        <time>2021-07-20T05:52:20.575Z</time>
      </trkpt>
      <trkpt lat="45.67553" lon="5.60123">
        <ele>208</ele>
        <time>2021-07-20T05:52:21.575Z</time>
      </trkpt>
      <trkpt lat="45.67557" lon="5.60133">
        <ele>208</ele>
        <time>2021-07-20T05:52:22.575Z</time>
      </trkpt>
      <trkpt lat="45.6756" lon="5.60144">
        <ele>207</ele>
        <time>2021-07-20T05:52:23.576Z</time>
      </trkpt>
      <trkpt lat="45.67563" lon="5.60152">
        <ele>207</ele>
        <time>2021-07-20T05:52:24.575Z</time>
      </trkpt>
      <trkpt lat="45.67563" lon="5.60152">
        <ele>207</ele>
        <time>2021-07-20T05:52:25.575Z</time>
      </trkpt>
      <trkpt lat="45.67566" lon="5.60165">
        <ele>207</ele>
        <time>2021-07-20T05:52:26.575Z</time>
      </trkpt>
      <trkpt lat="45.67572" lon="5.60188">
        <ele>207</ele>
        <time>2021-07-20T05:52:27.576Z</time>
      </trkpt>
      <trkpt lat="45.67574" lon="5.60196">
        <ele>207</ele>
        <time>2021-07-20T05:52:28.575Z</time>
      </trkpt>
      <trkpt lat="45.67577" lon="5.6021">
        <ele>207</ele>
        <time>2021-07-20T05:52:29.575Z</time>
      </trkpt>
      <trkpt lat="45.67578" lon="5.60221">
        <ele>208</ele>
        <time>2021-07-20T05:52:30.575Z</time>
      </trkpt>
      <trkpt lat="45.6758" lon="5.60232">
        <ele>208</ele>
        <time>2021-07-20T05:52:31.575Z</time>
      </trkpt>
      <trkpt lat="45.67581" lon="5.60244">
        <ele>209</ele>
        <time>2021-07-20T05:52:32.575Z</time>
      </trkpt>
      <trkpt lat="45.67581" lon="5.60244">
        <ele>209</ele>
        <time>2021-07-20T05:52:33.575Z</time>
      </trkpt>
      <trkpt lat="45.67583" lon="5.60265">
        <ele>209</ele>
        <time>2021-07-20T05:52:34.575Z</time>
      </trkpt>
      <trkpt lat="45.67584" lon="5.60279">
        <ele>209</ele>
        <time>2021-07-20T05:52:35.575Z</time>
      </trkpt>
      <trkpt lat="45.67584" lon="5.6029">
        <ele>209</ele>
        <time>2021-07-20T05:52:36.576Z</time>
      </trkpt>
      <trkpt lat="45.67585" lon="5.60301">
        <ele>209</ele>
        <time>2021-07-20T05:52:37.575Z</time>
      </trkpt>
      <trkpt lat="45.67585" lon="5.60313">
        <ele>209</ele>
        <time>2021-07-20T05:52:38.575Z</time>
      </trkpt>
      <trkpt lat="45.67586" lon="5.60324">
        <ele>208</ele>
        <time>2021-07-20T05:52:39.575Z</time>
      </trkpt>
      <trkpt lat="45.67586" lon="5.60324">
        <ele>208</ele>
        <time>2021-07-20T05:52:40.575Z</time>
      </trkpt>
      <trkpt lat="45.67589" lon="5.60345">
        <ele>208</ele>
        <time>2021-07-20T05:52:41.575Z</time>
      </trkpt>
      <trkpt lat="45.6759" lon="5.60356">
        <ele>208</ele>
        <time>2021-07-20T05:52:42.575Z</time>
      </trkpt>
      <trkpt lat="45.6759" lon="5.60356">
        <ele>208</ele>
        <time>2021-07-20T05:52:43.575Z</time>
      </trkpt>
      <trkpt lat="45.67592" lon="5.60377">
        <ele>208</ele>
        <time>2021-07-20T05:52:44.575Z</time>
      </trkpt>
      <trkpt lat="45.67593" lon="5.60388">
        <ele>208</ele>
        <time>2021-07-20T05:52:45.575Z</time>
      </trkpt>
      <trkpt lat="45.67593" lon="5.60388">
        <ele>208</ele>
        <time>2021-07-20T05:52:46.575Z</time>
      </trkpt>
      <trkpt lat="45.67596" lon="5.60409">
        <ele>207</ele>
        <time>2021-07-20T05:52:47.575Z</time>
      </trkpt>
      <trkpt lat="45.67598" lon="5.60418">
        <ele>207</ele>
        <time>2021-07-20T05:52:48.575Z</time>
      </trkpt>
      <trkpt lat="45.676" lon="5.60428">
        <ele>207</ele>
        <time>2021-07-20T05:52:49.575Z</time>
      </trkpt>
      <trkpt lat="45.67602" lon="5.6044">
        <ele>208</ele>
        <time>2021-07-20T05:52:50.575Z</time>
      </trkpt>
      <trkpt lat="45.67604" lon="5.60451">
        <ele>208</ele>
        <time>2021-07-20T05:52:51.575Z</time>
      </trkpt>
      <trkpt lat="45.67606" lon="5.60458">
        <ele>208</ele>
        <time>2021-07-20T05:52:52.576Z</time>
      </trkpt>
      <trkpt lat="45.67607" lon="5.60468">
        <ele>209</ele>
        <time>2021-07-20T05:52:53.575Z</time>
      </trkpt>
      <trkpt lat="45.67609" lon="5.6048">
        <ele>209</ele>
        <time>2021-07-20T05:52:54.575Z</time>
      </trkpt>
      <trkpt lat="45.6761" lon="5.60489">
        <ele>209</ele>
        <time>2021-07-20T05:52:55.575Z</time>
      </trkpt>
      <trkpt lat="45.6761" lon="5.60499">
        <ele>210</ele>
        <time>2021-07-20T05:52:56.575Z</time>
      </trkpt>
      <trkpt lat="45.67612" lon="5.60508">
        <ele>209</ele>
        <time>2021-07-20T05:52:57.575Z</time>
      </trkpt>
      <trkpt lat="45.67613" lon="5.60517">
        <ele>209</ele>
        <time>2021-07-20T05:52:58.576Z</time>
      </trkpt>
      <trkpt lat="45.67614" lon="5.60526">
        <ele>209</ele>
        <time>2021-07-20T05:52:59.575Z</time>
      </trkpt>
      <trkpt lat="45.67614" lon="5.60526">
        <ele>209</ele>
        <time>2021-07-20T05:53:00.575Z</time>
      </trkpt>
      <trkpt lat="45.67615" lon="5.60544">
        <ele>208</ele>
        <time>2021-07-20T05:53:01.575Z</time>
      </trkpt>
      <trkpt lat="45.67616" lon="5.60552">
        <ele>209</ele>
        <time>2021-07-20T05:53:02.575Z</time>
      </trkpt>
      <trkpt lat="45.67616" lon="5.6056">
        <ele>209</ele>
        <time>2021-07-20T05:53:03.575Z</time>
      </trkpt>
      <trkpt lat="45.67616" lon="5.60567">
        <ele>209</ele>
        <time>2021-07-20T05:53:04.575Z</time>
      </trkpt>
      <trkpt lat="45.67616" lon="5.60574">
        <ele>209</ele>
        <time>2021-07-20T05:53:05.576Z</time>
      </trkpt>
      <trkpt lat="45.67616" lon="5.60574">
        <ele>209</ele>
        <time>2021-07-20T05:53:06.575Z</time>
      </trkpt>
      <trkpt lat="45.67616" lon="5.60581">
        <ele>208</ele>
        <time>2021-07-20T05:53:07.575Z</time>
      </trkpt>
      <trkpt lat="45.67613" lon="5.60595">
        <ele>208</ele>
        <time>2021-07-20T05:53:08.575Z</time>
      </trkpt>
      <trkpt lat="45.6761" lon="5.60602">
        <ele>208</ele>
        <time>2021-07-20T05:53:09.576Z</time>
      </trkpt>
      <trkpt lat="45.6761" lon="5.60602">
        <ele>208</ele>
        <time>2021-07-20T05:53:10.576Z</time>
      </trkpt>
      <trkpt lat="45.67606" lon="5.60608">
        <ele>208</ele>
        <time>2021-07-20T05:53:11.575Z</time>
      </trkpt>
      <trkpt lat="45.67601" lon="5.60615">
        <ele>208</ele>
        <time>2021-07-20T05:53:12.575Z</time>
      </trkpt>
      <trkpt lat="45.67595" lon="5.60621">
        <ele>208</ele>
        <time>2021-07-20T05:53:13.575Z</time>
      </trkpt>
      <trkpt lat="45.6759" lon="5.60628">
        <ele>208</ele>
        <time>2021-07-20T05:53:14.575Z</time>
      </trkpt>
      <trkpt lat="45.67585" lon="5.60635">
        <ele>209</ele>
        <time>2021-07-20T05:53:15.576Z</time>
      </trkpt>
      <trkpt lat="45.6758" lon="5.60641">
        <ele>209</ele>
        <time>2021-07-20T05:53:16.575Z</time>
      </trkpt>
      <trkpt lat="45.67573" lon="5.60651">
        <ele>209</ele>
        <time>2021-07-20T05:53:17.575Z</time>
      </trkpt>
      <trkpt lat="45.67569" lon="5.60657">
        <ele>209</ele>
        <time>2021-07-20T05:53:18.575Z</time>
      </trkpt>
      <trkpt lat="45.67563" lon="5.60665">
        <ele>209</ele>
        <time>2021-07-20T05:53:19.575Z</time>
      </trkpt>
      <trkpt lat="45.67558" lon="5.60674">
        <ele>209</ele>
        <time>2021-07-20T05:53:20.576Z</time>
      </trkpt>
      <trkpt lat="45.67553" lon="5.60682">
        <ele>209</ele>
        <time>2021-07-20T05:53:21.576Z</time>
      </trkpt>
      <trkpt lat="45.67547" lon="5.6069">
        <ele>210</ele>
        <time>2021-07-20T05:53:22.576Z</time>
      </trkpt>
      <trkpt lat="45.6754" lon="5.60698">
        <ele>210</ele>
        <time>2021-07-20T05:53:23.575Z</time>
      </trkpt>
      <trkpt lat="45.67534" lon="5.60707">
        <ele>210</ele>
        <time>2021-07-20T05:53:24.576Z</time>
      </trkpt>
      <trkpt lat="45.67527" lon="5.60716">
        <ele>211</ele>
        <time>2021-07-20T05:53:25.575Z</time>
      </trkpt>
      <trkpt lat="45.6752" lon="5.60724">
        <ele>211</ele>
        <time>2021-07-20T05:53:26.575Z</time>
      </trkpt>
      <trkpt lat="45.67513" lon="5.60735">
        <ele>212</ele>
        <time>2021-07-20T05:53:27.576Z</time>
      </trkpt>
      <trkpt lat="45.67503" lon="5.60749">
        <ele>213</ele>
        <time>2021-07-20T05:53:28.575Z</time>
      </trkpt>
      <trkpt lat="45.67503" lon="5.60749">
        <ele>213</ele>
        <time>2021-07-20T05:53:29.575Z</time>
      </trkpt>
      <trkpt lat="45.67497" lon="5.60758">
        <ele>213</ele>
        <time>2021-07-20T05:53:30.575Z</time>
      </trkpt>
      <trkpt lat="45.67492" lon="5.60766">
        <ele>213</ele>
        <time>2021-07-20T05:53:31.575Z</time>
      </trkpt>
      <trkpt lat="45.67485" lon="5.60775">
        <ele>213</ele>
        <time>2021-07-20T05:53:32.576Z</time>
      </trkpt>
      <trkpt lat="45.6748" lon="5.6078">
        <ele>213</ele>
        <time>2021-07-20T05:53:33.575Z</time>
      </trkpt>
      <trkpt lat="45.67474" lon="5.60788">
        <ele>214</ele>
        <time>2021-07-20T05:53:34.575Z</time>
      </trkpt>
      <trkpt lat="45.67468" lon="5.60795">
        <ele>214</ele>
        <time>2021-07-20T05:53:35.575Z</time>
      </trkpt>
      <trkpt lat="45.67456" lon="5.60808">
        <ele>215</ele>
        <time>2021-07-20T05:53:36.576Z</time>
      </trkpt>
      <trkpt lat="45.6745" lon="5.60815">
        <ele>216</ele>
        <time>2021-07-20T05:53:37.575Z</time>
      </trkpt>
      <trkpt lat="45.67442" lon="5.60823">
        <ele>216</ele>
        <time>2021-07-20T05:53:38.575Z</time>
      </trkpt>
      <trkpt lat="45.67442" lon="5.60823">
        <ele>216</ele>
        <time>2021-07-20T05:53:39.575Z</time>
      </trkpt>
      <trkpt lat="45.67437" lon="5.60828">
        <ele>217</ele>
        <time>2021-07-20T05:53:40.575Z</time>
      </trkpt>
      <trkpt lat="45.67431" lon="5.60835">
        <ele>217</ele>
        <time>2021-07-20T05:53:41.575Z</time>
      </trkpt>
      <trkpt lat="45.67424" lon="5.60841">
        <ele>218</ele>
        <time>2021-07-20T05:53:42.575Z</time>
      </trkpt>
      <trkpt lat="45.67416" lon="5.60847">
        <ele>218</ele>
        <time>2021-07-20T05:53:43.575Z</time>
      </trkpt>
      <trkpt lat="45.67409" lon="5.60853">
        <ele>218</ele>
        <time>2021-07-20T05:53:44.575Z</time>
      </trkpt>
      <trkpt lat="45.674" lon="5.6086">
        <ele>218</ele>
        <time>2021-07-20T05:53:45.575Z</time>
      </trkpt>
      <trkpt lat="45.67392" lon="5.60865">
        <ele>218</ele>
        <time>2021-07-20T05:53:46.576Z</time>
      </trkpt>
      <trkpt lat="45.67385" lon="5.60869">
        <ele>218</ele>
        <time>2021-07-20T05:53:47.575Z</time>
      </trkpt>
      <trkpt lat="45.67377" lon="5.60874">
        <ele>218</ele>
        <time>2021-07-20T05:53:48.575Z</time>
      </trkpt>
      <trkpt lat="45.67368" lon="5.60879">
        <ele>217</ele>
        <time>2021-07-20T05:53:49.575Z</time>
      </trkpt>
      <trkpt lat="45.67361" lon="5.60882">
        <ele>216</ele>
        <time>2021-07-20T05:53:50.575Z</time>
      </trkpt>
      <trkpt lat="45.67352" lon="5.60885">
        <ele>216</ele>
        <time>2021-07-20T05:53:51.576Z</time>
      </trkpt>
      <trkpt lat="45.67336" lon="5.60892">
        <ele>214</ele>
        <time>2021-07-20T05:53:52.575Z</time>
      </trkpt>
      <trkpt lat="45.67336" lon="5.60892">
        <ele>214</ele>
        <time>2021-07-20T05:53:53.575Z</time>
      </trkpt>
      <trkpt lat="45.67328" lon="5.60896">
        <ele>214</ele>
        <time>2021-07-20T05:53:54.575Z</time>
      </trkpt>
      <trkpt lat="45.6732" lon="5.609">
        <ele>213</ele>
        <time>2021-07-20T05:53:55.575Z</time>
      </trkpt>
      <trkpt lat="45.67313" lon="5.60905">
        <ele>213</ele>
        <time>2021-07-20T05:53:56.575Z</time>
      </trkpt>
      <trkpt lat="45.67306" lon="5.6091">
        <ele>213</ele>
        <time>2021-07-20T05:53:57.575Z</time>
      </trkpt>
      <trkpt lat="45.67301" lon="5.60914">
        <ele>213</ele>
        <time>2021-07-20T05:53:58.575Z</time>
      </trkpt>
      <trkpt lat="45.67294" lon="5.60919">
        <ele>213</ele>
        <time>2021-07-20T05:53:59.575Z</time>
      </trkpt>
      <trkpt lat="45.67285" lon="5.60923">
        <ele>213</ele>
        <time>2021-07-20T05:54:00.576Z</time>
      </trkpt>
      <trkpt lat="45.67276" lon="5.6093">
        <ele>213</ele>
        <time>2021-07-20T05:54:01.576Z</time>
      </trkpt>
      <trkpt lat="45.67272" lon="5.60938">
        <ele>213</ele>
        <time>2021-07-20T05:54:02.575Z</time>
      </trkpt>
      <trkpt lat="45.67268" lon="5.60947">
        <ele>213</ele>
        <time>2021-07-20T05:54:03.575Z</time>
      </trkpt>
      <trkpt lat="45.67266" lon="5.60955">
        <ele>212</ele>
        <time>2021-07-20T05:54:04.575Z</time>
      </trkpt>
      <trkpt lat="45.67263" lon="5.60961">
        <ele>211</ele>
        <time>2021-07-20T05:54:05.576Z</time>
      </trkpt>
      <trkpt lat="45.67258" lon="5.60968">
        <ele>211</ele>
        <time>2021-07-20T05:54:06.576Z</time>
      </trkpt>
      <trkpt lat="45.67253" lon="5.60973">
        <ele>211</ele>
        <time>2021-07-20T05:54:07.576Z</time>
      </trkpt>
      <trkpt lat="45.67248" lon="5.60976">
        <ele>211</ele>
        <time>2021-07-20T05:54:08.576Z</time>
      </trkpt>
      <trkpt lat="45.67243" lon="5.60978">
        <ele>211</ele>
        <time>2021-07-20T05:54:09.576Z</time>
      </trkpt>
      <trkpt lat="45.67238" lon="5.60981">
        <ele>211</ele>
        <time>2021-07-20T05:54:10.575Z</time>
      </trkpt>
      <trkpt lat="45.67234" lon="5.60984">
        <ele>212</ele>
        <time>2021-07-20T05:54:11.575Z</time>
      </trkpt>
      <trkpt lat="45.67229" lon="5.60986">
        <ele>212</ele>
        <time>2021-07-20T05:54:12.575Z</time>
      </trkpt>
      <trkpt lat="45.67225" lon="5.60988">
        <ele>213</ele>
        <time>2021-07-20T05:54:13.576Z</time>
      </trkpt>
      <trkpt lat="45.67222" lon="5.6099">
        <ele>213</ele>
        <time>2021-07-20T05:54:14.576Z</time>
      </trkpt>
      <trkpt lat="45.67218" lon="5.60993">
        <ele>213</ele>
        <time>2021-07-20T05:54:15.575Z</time>
      </trkpt>
      <trkpt lat="45.67215" lon="5.60995">
        <ele>213</ele>
        <time>2021-07-20T05:54:16.575Z</time>
      </trkpt>
      <trkpt lat="45.6721" lon="5.60998">
        <ele>213</ele>
        <time>2021-07-20T05:54:17.576Z</time>
      </trkpt>
      <trkpt lat="45.67207" lon="5.61001">
        <ele>213</ele>
        <time>2021-07-20T05:54:18.575Z</time>
      </trkpt>
      <trkpt lat="45.67204" lon="5.61003">
        <ele>213</ele>
        <time>2021-07-20T05:54:19.576Z</time>
      </trkpt>
      <trkpt lat="45.672" lon="5.61005">
        <ele>214</ele>
        <time>2021-07-20T05:54:20.576Z</time>
      </trkpt>
      <trkpt lat="45.67196" lon="5.61008">
        <ele>214</ele>
        <time>2021-07-20T05:54:21.575Z</time>
      </trkpt>
      <trkpt lat="45.67192" lon="5.61012">
        <ele>214</ele>
        <time>2021-07-20T05:54:22.575Z</time>
      </trkpt>
      <trkpt lat="45.67189" lon="5.61014">
        <ele>214</ele>
        <time>2021-07-20T05:54:23.576Z</time>
      </trkpt>
      <trkpt lat="45.67186" lon="5.61017">
        <ele>215</ele>
        <time>2021-07-20T05:54:24.576Z</time>
      </trkpt>
      <trkpt lat="45.67182" lon="5.61021">
        <ele>215</ele>
        <time>2021-07-20T05:54:25.575Z</time>
      </trkpt>
      <trkpt lat="45.67179" lon="5.61024">
        <ele>215</ele>
        <time>2021-07-20T05:54:26.575Z</time>
      </trkpt>
      <trkpt lat="45.67176" lon="5.61027">
        <ele>216</ele>
        <time>2021-07-20T05:54:27.576Z</time>
      </trkpt>
      <trkpt lat="45.67173" lon="5.6103">
        <ele>216</ele>
        <time>2021-07-20T05:54:28.575Z</time>
      </trkpt>
      <trkpt lat="45.6717" lon="5.61033">
        <ele>216</ele>
        <time>2021-07-20T05:54:29.575Z</time>
      </trkpt>
      <trkpt lat="45.67166" lon="5.61038">
        <ele>217</ele>
        <time>2021-07-20T05:54:30.575Z</time>
      </trkpt>
      <trkpt lat="45.67164" lon="5.61041">
        <ele>217</ele>
        <time>2021-07-20T05:54:31.575Z</time>
      </trkpt>
      <trkpt lat="45.67161" lon="5.61045">
        <ele>218</ele>
        <time>2021-07-20T05:54:32.575Z</time>
      </trkpt>
      <trkpt lat="45.67159" lon="5.61048">
        <ele>218</ele>
        <time>2021-07-20T05:54:33.575Z</time>
      </trkpt>
      <trkpt lat="45.67155" lon="5.61052">
        <ele>218</ele>
        <time>2021-07-20T05:54:34.576Z</time>
      </trkpt>
      <trkpt lat="45.67151" lon="5.61055">
        <ele>218</ele>
        <time>2021-07-20T05:54:35.576Z</time>
      </trkpt>
      <trkpt lat="45.67149" lon="5.61058">
        <ele>219</ele>
        <time>2021-07-20T05:54:36.575Z</time>
      </trkpt>
      <trkpt lat="45.67145" lon="5.61062">
        <ele>219</ele>
        <time>2021-07-20T05:54:37.576Z</time>
      </trkpt>
      <trkpt lat="45.67141" lon="5.61066">
        <ele>219</ele>
        <time>2021-07-20T05:54:38.576Z</time>
      </trkpt>
      <trkpt lat="45.67138" lon="5.61069">
        <ele>219</ele>
        <time>2021-07-20T05:54:39.576Z</time>
      </trkpt>
      <trkpt lat="45.67134" lon="5.61072">
        <ele>219</ele>
        <time>2021-07-20T05:54:40.576Z</time>
      </trkpt>
      <trkpt lat="45.67131" lon="5.61075">
        <ele>219</ele>
        <time>2021-07-20T05:54:41.576Z</time>
      </trkpt>
      <trkpt lat="45.67128" lon="5.61077">
        <ele>219</ele>
        <time>2021-07-20T05:54:42.575Z</time>
      </trkpt>
      <trkpt lat="45.67124" lon="5.6108">
        <ele>219</ele>
        <time>2021-07-20T05:54:43.575Z</time>
      </trkpt>
      <trkpt lat="45.6712" lon="5.61082">
        <ele>219</ele>
        <time>2021-07-20T05:54:44.575Z</time>
      </trkpt>
      <trkpt lat="45.67116" lon="5.61083">
        <ele>220</ele>
        <time>2021-07-20T05:54:45.575Z</time>
      </trkpt>
      <trkpt lat="45.67112" lon="5.61084">
        <ele>220</ele>
        <time>2021-07-20T05:54:46.575Z</time>
      </trkpt>
      <trkpt lat="45.67108" lon="5.61085">
        <ele>221</ele>
        <time>2021-07-20T05:54:47.576Z</time>
      </trkpt>
      <trkpt lat="45.67103" lon="5.61086">
        <ele>222</ele>
        <time>2021-07-20T05:54:48.575Z</time>
      </trkpt>
      <trkpt lat="45.67099" lon="5.61087">
        <ele>223</ele>
        <time>2021-07-20T05:54:49.576Z</time>
      </trkpt>
      <trkpt lat="45.67096" lon="5.61088">
        <ele>223</ele>
        <time>2021-07-20T05:54:50.575Z</time>
      </trkpt>
      <trkpt lat="45.67093" lon="5.61089">
        <ele>223</ele>
        <time>2021-07-20T05:54:51.576Z</time>
      </trkpt>
      <trkpt lat="45.67089" lon="5.61091">
        <ele>223</ele>
        <time>2021-07-20T05:54:52.575Z</time>
      </trkpt>
      <trkpt lat="45.67085" lon="5.61093">
        <ele>223</ele>
        <time>2021-07-20T05:54:53.575Z</time>
      </trkpt>
      <trkpt lat="45.67081" lon="5.61096">
        <ele>224</ele>
        <time>2021-07-20T05:54:54.575Z</time>
      </trkpt>
      <trkpt lat="45.67078" lon="5.61099">
        <ele>224</ele>
        <time>2021-07-20T05:54:55.575Z</time>
      </trkpt>
      <trkpt lat="45.67074" lon="5.61102">
        <ele>224</ele>
        <time>2021-07-20T05:54:56.575Z</time>
      </trkpt>
      <trkpt lat="45.67071" lon="5.61105">
        <ele>224</ele>
        <time>2021-07-20T05:54:57.575Z</time>
      </trkpt>
      <trkpt lat="45.67067" lon="5.61108">
        <ele>224</ele>
        <time>2021-07-20T05:54:58.575Z</time>
      </trkpt>
      <trkpt lat="45.67063" lon="5.61111">
        <ele>224</ele>
        <time>2021-07-20T05:54:59.575Z</time>
      </trkpt>
      <trkpt lat="45.6706" lon="5.61114">
        <ele>225</ele>
        <time>2021-07-20T05:55:00.576Z</time>
      </trkpt>
      <trkpt lat="45.67057" lon="5.61118">
        <ele>225</ele>
        <time>2021-07-20T05:55:01.576Z</time>
      </trkpt>
      <trkpt lat="45.67054" lon="5.61121">
        <ele>226</ele>
        <time>2021-07-20T05:55:02.576Z</time>
      </trkpt>
      <trkpt lat="45.67051" lon="5.61125">
        <ele>226</ele>
        <time>2021-07-20T05:55:03.576Z</time>
      </trkpt>
      <trkpt lat="45.67048" lon="5.61129">
        <ele>227</ele>
        <time>2021-07-20T05:55:04.575Z</time>
      </trkpt>
      <trkpt lat="45.67047" lon="5.61132">
        <ele>227</ele>
        <time>2021-07-20T05:55:05.576Z</time>
      </trkpt>
      <trkpt lat="45.67044" lon="5.61136">
        <ele>227</ele>
        <time>2021-07-20T05:55:06.575Z</time>
      </trkpt>
      <trkpt lat="45.67041" lon="5.61141">
        <ele>227</ele>
        <time>2021-07-20T05:55:07.575Z</time>
      </trkpt>
      <trkpt lat="45.67039" lon="5.61145">
        <ele>227</ele>
        <time>2021-07-20T05:55:08.575Z</time>
      </trkpt>
      <trkpt lat="45.67036" lon="5.61149">
        <ele>227</ele>
        <time>2021-07-20T05:55:09.575Z</time>
      </trkpt>
      <trkpt lat="45.67034" lon="5.61152">
        <ele>228</ele>
        <time>2021-07-20T05:55:10.576Z</time>
      </trkpt>
      <trkpt lat="45.67032" lon="5.61156">
        <ele>228</ele>
        <time>2021-07-20T05:55:11.576Z</time>
      </trkpt>
      <trkpt lat="45.6703" lon="5.61161">
        <ele>228</ele>
        <time>2021-07-20T05:55:12.575Z</time>
      </trkpt>
      <trkpt lat="45.67029" lon="5.61165">
        <ele>229</ele>
        <time>2021-07-20T05:55:13.575Z</time>
      </trkpt>
      <trkpt lat="45.67027" lon="5.61169">
        <ele>229</ele>
        <time>2021-07-20T05:55:14.575Z</time>
      </trkpt>
      <trkpt lat="45.67025" lon="5.61174">
        <ele>229</ele>
        <time>2021-07-20T05:55:15.575Z</time>
      </trkpt>
      <trkpt lat="45.67023" lon="5.61178">
        <ele>230</ele>
        <time>2021-07-20T05:55:16.576Z</time>
      </trkpt>
      <trkpt lat="45.6702" lon="5.61182">
        <ele>230</ele>
        <time>2021-07-20T05:55:17.576Z</time>
      </trkpt>
      <trkpt lat="45.67018" lon="5.61186">
        <ele>231</ele>
        <time>2021-07-20T05:55:18.575Z</time>
      </trkpt>
      <trkpt lat="45.67015" lon="5.61189">
        <ele>232</ele>
        <time>2021-07-20T05:55:19.575Z</time>
      </trkpt>
      <trkpt lat="45.67012" lon="5.61191">
        <ele>232</ele>
        <time>2021-07-20T05:55:20.576Z</time>
      </trkpt>
      <trkpt lat="45.67007" lon="5.61195">
        <ele>233</ele>
        <time>2021-07-20T05:55:21.576Z</time>
      </trkpt>
      <trkpt lat="45.67004" lon="5.61197">
        <ele>233</ele>
        <time>2021-07-20T05:55:22.575Z</time>
      </trkpt>
      <trkpt lat="45.67001" lon="5.61199">
        <ele>233</ele>
        <time>2021-07-20T05:55:23.575Z</time>
      </trkpt>
      <trkpt lat="45.66997" lon="5.61202">
        <ele>233</ele>
        <time>2021-07-20T05:55:24.576Z</time>
      </trkpt>
      <trkpt lat="45.66993" lon="5.61204">
        <ele>233</ele>
        <time>2021-07-20T05:55:25.575Z</time>
      </trkpt>
      <trkpt lat="45.6699" lon="5.61206">
        <ele>233</ele>
        <time>2021-07-20T05:55:26.575Z</time>
      </trkpt>
      <trkpt lat="45.66986" lon="5.61208">
        <ele>233</ele>
        <time>2021-07-20T05:55:27.576Z</time>
      </trkpt>
      <trkpt lat="45.66982" lon="5.6121">
        <ele>234</ele>
        <time>2021-07-20T05:55:28.575Z</time>
      </trkpt>
      <trkpt lat="45.66978" lon="5.61211">
        <ele>234</ele>
        <time>2021-07-20T05:55:29.575Z</time>
      </trkpt>
      <trkpt lat="45.66974" lon="5.61211">
        <ele>234</ele>
        <time>2021-07-20T05:55:30.575Z</time>
      </trkpt>
      <trkpt lat="45.6697" lon="5.61211">
        <ele>235</ele>
        <time>2021-07-20T05:55:31.575Z</time>
      </trkpt>
      <trkpt lat="45.66966" lon="5.61211">
        <ele>235</ele>
        <time>2021-07-20T05:55:32.575Z</time>
      </trkpt>
      <trkpt lat="45.66962" lon="5.61211">
        <ele>235</ele>
        <time>2021-07-20T05:55:33.575Z</time>
      </trkpt>
      <trkpt lat="45.66959" lon="5.61212">
        <ele>235</ele>
        <time>2021-07-20T05:55:34.575Z</time>
      </trkpt>
      <trkpt lat="45.66955" lon="5.61212">
        <ele>235</ele>
        <time>2021-07-20T05:55:35.575Z</time>
      </trkpt>
      <trkpt lat="45.66948" lon="5.61212">
        <ele>235</ele>
        <time>2021-07-20T05:55:36.575Z</time>
      </trkpt>
      <trkpt lat="45.66948" lon="5.61212">
        <ele>235</ele>
        <time>2021-07-20T05:55:37.575Z</time>
      </trkpt>
      <trkpt lat="45.66945" lon="5.61212">
        <ele>235</ele>
        <time>2021-07-20T05:55:38.575Z</time>
      </trkpt>
      <trkpt lat="45.66942" lon="5.61212">
        <ele>235</ele>
        <time>2021-07-20T05:55:39.575Z</time>
      </trkpt>
      <trkpt lat="45.66938" lon="5.61212">
        <ele>235</ele>
        <time>2021-07-20T05:55:40.576Z</time>
      </trkpt>
      <trkpt lat="45.66935" lon="5.61212">
        <ele>235</ele>
        <time>2021-07-20T05:55:41.575Z</time>
      </trkpt>
      <trkpt lat="45.66931" lon="5.61211">
        <ele>236</ele>
        <time>2021-07-20T05:55:42.575Z</time>
      </trkpt>
      <trkpt lat="45.66928" lon="5.61211">
        <ele>236</ele>
        <time>2021-07-20T05:55:43.575Z</time>
      </trkpt>
      <trkpt lat="45.66924" lon="5.6121">
        <ele>236</ele>
        <time>2021-07-20T05:55:44.576Z</time>
      </trkpt>
      <trkpt lat="45.6692" lon="5.6121">
        <ele>236</ele>
        <time>2021-07-20T05:55:45.576Z</time>
      </trkpt>
      <trkpt lat="45.66916" lon="5.61209">
        <ele>237</ele>
        <time>2021-07-20T05:55:46.575Z</time>
      </trkpt>
      <trkpt lat="45.66914" lon="5.6121">
        <ele>237</ele>
        <time>2021-07-20T05:55:47.575Z</time>
      </trkpt>
      <trkpt lat="45.6691" lon="5.6121">
        <ele>238</ele>
        <time>2021-07-20T05:55:48.575Z</time>
      </trkpt>
      <trkpt lat="45.66906" lon="5.61211">
        <ele>238</ele>
        <time>2021-07-20T05:55:49.575Z</time>
      </trkpt>
      <trkpt lat="45.66903" lon="5.61212">
        <ele>239</ele>
        <time>2021-07-20T05:55:50.575Z</time>
      </trkpt>
      <trkpt lat="45.669" lon="5.61214">
        <ele>239</ele>
        <time>2021-07-20T05:55:51.575Z</time>
      </trkpt>
      <trkpt lat="45.66897" lon="5.61216">
        <ele>239</ele>
        <time>2021-07-20T05:55:52.575Z</time>
      </trkpt>
      <trkpt lat="45.66894" lon="5.6122">
        <ele>239</ele>
        <time>2021-07-20T05:55:53.575Z</time>
      </trkpt>
      <trkpt lat="45.66891" lon="5.61222">
        <ele>239</ele>
        <time>2021-07-20T05:55:54.575Z</time>
      </trkpt>
      <trkpt lat="45.66889" lon="5.61225">
        <ele>239</ele>
        <time>2021-07-20T05:55:55.575Z</time>
      </trkpt>
      <trkpt lat="45.66886" lon="5.61227">
        <ele>240</ele>
        <time>2021-07-20T05:55:56.575Z</time>
      </trkpt>
      <trkpt lat="45.66882" lon="5.6123">
        <ele>240</ele>
        <time>2021-07-20T05:55:57.576Z</time>
      </trkpt>
      <trkpt lat="45.6688" lon="5.61234">
        <ele>241</ele>
        <time>2021-07-20T05:55:58.576Z</time>
      </trkpt>
      <trkpt lat="45.66877" lon="5.61237">
        <ele>242</ele>
        <time>2021-07-20T05:55:59.575Z</time>
      </trkpt>
      <trkpt lat="45.66874" lon="5.61241">
        <ele>243</ele>
        <time>2021-07-20T05:56:00.575Z</time>
      </trkpt>
      <trkpt lat="45.66872" lon="5.61244">
        <ele>243</ele>
        <time>2021-07-20T05:56:01.576Z</time>
      </trkpt>
      <trkpt lat="45.6687" lon="5.61247">
        <ele>244</ele>
        <time>2021-07-20T05:56:02.575Z</time>
      </trkpt>
      <trkpt lat="45.66867" lon="5.6125">
        <ele>244</ele>
        <time>2021-07-20T05:56:03.575Z</time>
      </trkpt>
      <trkpt lat="45.66864" lon="5.61253">
        <ele>244</ele>
        <time>2021-07-20T05:56:04.575Z</time>
      </trkpt>
      <trkpt lat="45.66861" lon="5.61255">
        <ele>245</ele>
        <time>2021-07-20T05:56:05.575Z</time>
      </trkpt>
      <trkpt lat="45.66859" lon="5.61257">
        <ele>245</ele>
        <time>2021-07-20T05:56:06.576Z</time>
      </trkpt>
      <trkpt lat="45.66856" lon="5.61259">
        <ele>246</ele>
        <time>2021-07-20T05:56:07.575Z</time>
      </trkpt>
      <trkpt lat="45.66853" lon="5.6126">
        <ele>246</ele>
        <time>2021-07-20T05:56:08.575Z</time>
      </trkpt>
      <trkpt lat="45.6685" lon="5.61262">
        <ele>247</ele>
        <time>2021-07-20T05:56:09.576Z</time>
      </trkpt>
      <trkpt lat="45.66848" lon="5.61263">
        <ele>248</ele>
        <time>2021-07-20T05:56:10.575Z</time>
      </trkpt>
      <trkpt lat="45.66845" lon="5.61265">
        <ele>248</ele>
        <time>2021-07-20T05:56:11.575Z</time>
      </trkpt>
      <trkpt lat="45.66841" lon="5.61267">
        <ele>249</ele>
        <time>2021-07-20T05:56:12.575Z</time>
      </trkpt>
      <trkpt lat="45.66839" lon="5.61268">
        <ele>249</ele>
        <time>2021-07-20T05:56:13.576Z</time>
      </trkpt>
      <trkpt lat="45.66835" lon="5.61269">
        <ele>250</ele>
        <time>2021-07-20T05:56:14.575Z</time>
      </trkpt>
      <trkpt lat="45.66832" lon="5.6127">
        <ele>250</ele>
        <time>2021-07-20T05:56:15.575Z</time>
      </trkpt>
      <trkpt lat="45.66829" lon="5.61271">
        <ele>251</ele>
        <time>2021-07-20T05:56:16.576Z</time>
      </trkpt>
      <trkpt lat="45.66825" lon="5.61272">
        <ele>251</ele>
        <time>2021-07-20T05:56:17.575Z</time>
      </trkpt>
      <trkpt lat="45.66823" lon="5.61274">
        <ele>251</ele>
        <time>2021-07-20T05:56:18.575Z</time>
      </trkpt>
      <trkpt lat="45.66819" lon="5.61275">
        <ele>252</ele>
        <time>2021-07-20T05:56:19.576Z</time>
      </trkpt>
      <trkpt lat="45.66816" lon="5.61275">
        <ele>252</ele>
        <time>2021-07-20T05:56:20.576Z</time>
      </trkpt>
      <trkpt lat="45.66813" lon="5.61276">
        <ele>253</ele>
        <time>2021-07-20T05:56:21.575Z</time>
      </trkpt>
      <trkpt lat="45.6681" lon="5.61277">
        <ele>254</ele>
        <time>2021-07-20T05:56:22.575Z</time>
      </trkpt>
      <trkpt lat="45.66807" lon="5.61277">
        <ele>254</ele>
        <time>2021-07-20T05:56:23.576Z</time>
      </trkpt>
      <trkpt lat="45.66803" lon="5.61278">
        <ele>255</ele>
        <time>2021-07-20T05:56:24.576Z</time>
      </trkpt>
      <trkpt lat="45.668" lon="5.61279">
        <ele>255</ele>
        <time>2021-07-20T05:56:25.575Z</time>
      </trkpt>
      <trkpt lat="45.66797" lon="5.6128">
        <ele>255</ele>
        <time>2021-07-20T05:56:26.575Z</time>
      </trkpt>
      <trkpt lat="45.66794" lon="5.61281">
        <ele>256</ele>
        <time>2021-07-20T05:56:27.576Z</time>
      </trkpt>
      <trkpt lat="45.66791" lon="5.61281">
        <ele>256</ele>
        <time>2021-07-20T05:56:28.575Z</time>
      </trkpt>
      <trkpt lat="45.66789" lon="5.61282">
        <ele>256</ele>
        <time>2021-07-20T05:56:29.576Z</time>
      </trkpt>
      <trkpt lat="45.66786" lon="5.61284">
        <ele>256</ele>
        <time>2021-07-20T05:56:30.575Z</time>
      </trkpt>
      <trkpt lat="45.66783" lon="5.61285">
        <ele>257</ele>
        <time>2021-07-20T05:56:31.575Z</time>
      </trkpt>
      <trkpt lat="45.66779" lon="5.61287">
        <ele>257</ele>
        <time>2021-07-20T05:56:32.575Z</time>
      </trkpt>
      <trkpt lat="45.66777" lon="5.61288">
        <ele>257</ele>
        <time>2021-07-20T05:56:33.576Z</time>
      </trkpt>
      <trkpt lat="45.66773" lon="5.6129">
        <ele>257</ele>
        <time>2021-07-20T05:56:34.575Z</time>
      </trkpt>
      <trkpt lat="45.6677" lon="5.61292">
        <ele>257</ele>
        <time>2021-07-20T05:56:35.575Z</time>
      </trkpt>
      <trkpt lat="45.66767" lon="5.61294">
        <ele>258</ele>
        <time>2021-07-20T05:56:36.575Z</time>
      </trkpt>
      <trkpt lat="45.66765" lon="5.61296">
        <ele>258</ele>
        <time>2021-07-20T05:56:37.575Z</time>
      </trkpt>
      <trkpt lat="45.66761" lon="5.61298">
        <ele>258</ele>
        <time>2021-07-20T05:56:38.575Z</time>
      </trkpt>
      <trkpt lat="45.66758" lon="5.613">
        <ele>259</ele>
        <time>2021-07-20T05:56:39.575Z</time>
      </trkpt>
      <trkpt lat="45.66755" lon="5.61301">
        <ele>259</ele>
        <time>2021-07-20T05:56:40.576Z</time>
      </trkpt>
      <trkpt lat="45.66752" lon="5.61303">
        <ele>259</ele>
        <time>2021-07-20T05:56:41.575Z</time>
      </trkpt>
      <trkpt lat="45.66749" lon="5.61305">
        <ele>259</ele>
        <time>2021-07-20T05:56:42.575Z</time>
      </trkpt>
      <trkpt lat="45.66746" lon="5.61307">
        <ele>260</ele>
        <time>2021-07-20T05:56:43.575Z</time>
      </trkpt>
      <trkpt lat="45.66743" lon="5.61308">
        <ele>260</ele>
        <time>2021-07-20T05:56:44.575Z</time>
      </trkpt>
      <trkpt lat="45.6674" lon="5.6131">
        <ele>260</ele>
        <time>2021-07-20T05:56:45.575Z</time>
      </trkpt>
      <trkpt lat="45.66737" lon="5.61312">
        <ele>261</ele>
        <time>2021-07-20T05:56:46.575Z</time>
      </trkpt>
      <trkpt lat="45.66734" lon="5.61314">
        <ele>261</ele>
        <time>2021-07-20T05:56:47.576Z</time>
      </trkpt>
      <trkpt lat="45.6673" lon="5.61316">
        <ele>261</ele>
        <time>2021-07-20T05:56:48.575Z</time>
      </trkpt>
      <trkpt lat="45.66727" lon="5.61318">
        <ele>261</ele>
        <time>2021-07-20T05:56:49.575Z</time>
      </trkpt>
      <trkpt lat="45.66724" lon="5.6132">
        <ele>261</ele>
        <time>2021-07-20T05:56:50.575Z</time>
      </trkpt>
      <trkpt lat="45.66721" lon="5.61322">
        <ele>261</ele>
        <time>2021-07-20T05:56:51.575Z</time>
      </trkpt>
      <trkpt lat="45.66718" lon="5.61324">
        <ele>261</ele>
        <time>2021-07-20T05:56:52.576Z</time>
      </trkpt>
      <trkpt lat="45.66715" lon="5.61325">
        <ele>261</ele>
        <time>2021-07-20T05:56:53.576Z</time>
      </trkpt>
      <trkpt lat="45.66711" lon="5.61327">
        <ele>261</ele>
        <time>2021-07-20T05:56:54.575Z</time>
      </trkpt>
      <trkpt lat="45.66708" lon="5.61329">
        <ele>261</ele>
        <time>2021-07-20T05:56:55.575Z</time>
      </trkpt>
      <trkpt lat="45.66705" lon="5.61331">
        <ele>262</ele>
        <time>2021-07-20T05:56:56.575Z</time>
      </trkpt>
      <trkpt lat="45.66702" lon="5.61333">
        <ele>262</ele>
        <time>2021-07-20T05:56:57.576Z</time>
      </trkpt>
      <trkpt lat="45.66699" lon="5.61334">
        <ele>263</ele>
        <time>2021-07-20T05:56:58.575Z</time>
      </trkpt>
      <trkpt lat="45.66696" lon="5.61336">
        <ele>263</ele>
        <time>2021-07-20T05:56:59.576Z</time>
      </trkpt>
      <trkpt lat="45.66693" lon="5.61338">
        <ele>264</ele>
        <time>2021-07-20T05:57:00.575Z</time>
      </trkpt>
      <trkpt lat="45.6669" lon="5.61339">
        <ele>264</ele>
        <time>2021-07-20T05:57:01.576Z</time>
      </trkpt>
      <trkpt lat="45.66687" lon="5.61341">
        <ele>265</ele>
        <time>2021-07-20T05:57:02.575Z</time>
      </trkpt>
      <trkpt lat="45.66684" lon="5.61343">
        <ele>266</ele>
        <time>2021-07-20T05:57:03.575Z</time>
      </trkpt>
      <trkpt lat="45.66682" lon="5.61345">
        <ele>266</ele>
        <time>2021-07-20T05:57:04.576Z</time>
      </trkpt>
      <trkpt lat="45.66679" lon="5.61347">
        <ele>267</ele>
        <time>2021-07-20T05:57:05.576Z</time>
      </trkpt>
      <trkpt lat="45.66675" lon="5.61349">
        <ele>267</ele>
        <time>2021-07-20T05:57:06.576Z</time>
      </trkpt>
      <trkpt lat="45.66673" lon="5.61351">
        <ele>268</ele>
        <time>2021-07-20T05:57:07.575Z</time>
      </trkpt>
      <trkpt lat="45.6667" lon="5.61352">
        <ele>268</ele>
        <time>2021-07-20T05:57:08.575Z</time>
      </trkpt>
      <trkpt lat="45.66668" lon="5.61354">
        <ele>268</ele>
        <time>2021-07-20T05:57:09.575Z</time>
      </trkpt>
      <trkpt lat="45.66664" lon="5.61355">
        <ele>268</ele>
        <time>2021-07-20T05:57:10.576Z</time>
      </trkpt>
      <trkpt lat="45.66661" lon="5.61357">
        <ele>268</ele>
        <time>2021-07-20T05:57:11.576Z</time>
      </trkpt>
      <trkpt lat="45.66658" lon="5.61358">
        <ele>268</ele>
        <time>2021-07-20T05:57:12.575Z</time>
      </trkpt>
      <trkpt lat="45.66655" lon="5.6136">
        <ele>267</ele>
        <time>2021-07-20T05:57:13.575Z</time>
      </trkpt>
      <trkpt lat="45.66652" lon="5.61362">
        <ele>267</ele>
        <time>2021-07-20T05:57:14.575Z</time>
      </trkpt>
      <trkpt lat="45.66649" lon="5.61364">
        <ele>266</ele>
        <time>2021-07-20T05:57:15.575Z</time>
      </trkpt>
      <trkpt lat="45.66646" lon="5.61366">
        <ele>266</ele>
        <time>2021-07-20T05:57:16.575Z</time>
      </trkpt>
      <trkpt lat="45.66643" lon="5.61368">
        <ele>266</ele>
        <time>2021-07-20T05:57:17.575Z</time>
      </trkpt>
      <trkpt lat="45.6664" lon="5.61369">
        <ele>267</ele>
        <time>2021-07-20T05:57:18.575Z</time>
      </trkpt>
      <trkpt lat="45.66637" lon="5.61372">
        <ele>267</ele>
        <time>2021-07-20T05:57:19.575Z</time>
      </trkpt>
      <trkpt lat="45.66633" lon="5.61374">
        <ele>268</ele>
        <time>2021-07-20T05:57:20.575Z</time>
      </trkpt>
      <trkpt lat="45.6663" lon="5.61376">
        <ele>268</ele>
        <time>2021-07-20T05:57:21.575Z</time>
      </trkpt>
      <trkpt lat="45.66627" lon="5.61377">
        <ele>269</ele>
        <time>2021-07-20T05:57:22.575Z</time>
      </trkpt>
      <trkpt lat="45.66624" lon="5.61379">
        <ele>270</ele>
        <time>2021-07-20T05:57:23.575Z</time>
      </trkpt>
      <trkpt lat="45.66619" lon="5.61381">
        <ele>270</ele>
        <time>2021-07-20T05:57:24.575Z</time>
      </trkpt>
      <trkpt lat="45.66617" lon="5.61383">
        <ele>270</ele>
        <time>2021-07-20T05:57:25.575Z</time>
      </trkpt>
      <trkpt lat="45.66613" lon="5.61385">
        <ele>270</ele>
        <time>2021-07-20T05:57:26.576Z</time>
      </trkpt>
      <trkpt lat="45.6661" lon="5.61387">
        <ele>271</ele>
        <time>2021-07-20T05:57:27.575Z</time>
      </trkpt>
      <trkpt lat="45.66607" lon="5.6139">
        <ele>271</ele>
        <time>2021-07-20T05:57:28.575Z</time>
      </trkpt>
      <trkpt lat="45.66604" lon="5.61392">
        <ele>271</ele>
        <time>2021-07-20T05:57:29.576Z</time>
      </trkpt>
      <trkpt lat="45.66602" lon="5.61395">
        <ele>271</ele>
        <time>2021-07-20T05:57:30.575Z</time>
      </trkpt>
      <trkpt lat="45.66599" lon="5.61398">
        <ele>271</ele>
        <time>2021-07-20T05:57:31.576Z</time>
      </trkpt>
      <trkpt lat="45.66597" lon="5.61402">
        <ele>271</ele>
        <time>2021-07-20T05:57:32.575Z</time>
      </trkpt>
      <trkpt lat="45.66595" lon="5.61406">
        <ele>271</ele>
        <time>2021-07-20T05:57:33.575Z</time>
      </trkpt>
      <trkpt lat="45.66594" lon="5.6141">
        <ele>271</ele>
        <time>2021-07-20T05:57:34.575Z</time>
      </trkpt>
      <trkpt lat="45.66592" lon="5.61415">
        <ele>271</ele>
        <time>2021-07-20T05:57:35.575Z</time>
      </trkpt>
      <trkpt lat="45.66591" lon="5.61419">
        <ele>271</ele>
        <time>2021-07-20T05:57:36.575Z</time>
      </trkpt>
      <trkpt lat="45.6659" lon="5.61424">
        <ele>272</ele>
        <time>2021-07-20T05:57:37.575Z</time>
      </trkpt>
      <trkpt lat="45.6659" lon="5.61428">
        <ele>272</ele>
        <time>2021-07-20T05:57:38.576Z</time>
      </trkpt>
      <trkpt lat="45.66589" lon="5.61433">
        <ele>272</ele>
        <time>2021-07-20T05:57:39.575Z</time>
      </trkpt>
      <trkpt lat="45.66589" lon="5.61438">
        <ele>272</ele>
        <time>2021-07-20T05:57:40.575Z</time>
      </trkpt>
      <trkpt lat="45.66588" lon="5.61443">
        <ele>272</ele>
        <time>2021-07-20T05:57:41.575Z</time>
      </trkpt>
      <trkpt lat="45.66589" lon="5.61448">
        <ele>272</ele>
        <time>2021-07-20T05:57:42.575Z</time>
      </trkpt>
      <trkpt lat="45.66589" lon="5.61453">
        <ele>273</ele>
        <time>2021-07-20T05:57:43.576Z</time>
      </trkpt>
      <trkpt lat="45.6659" lon="5.61459">
        <ele>273</ele>
        <time>2021-07-20T05:57:44.575Z</time>
      </trkpt>
      <trkpt lat="45.66591" lon="5.61464">
        <ele>273</ele>
        <time>2021-07-20T05:57:45.576Z</time>
      </trkpt>
      <trkpt lat="45.66592" lon="5.6147">
        <ele>274</ele>
        <time>2021-07-20T05:57:46.575Z</time>
      </trkpt>
      <trkpt lat="45.66592" lon="5.61475">
        <ele>274</ele>
        <time>2021-07-20T05:57:47.576Z</time>
      </trkpt>
      <trkpt lat="45.66593" lon="5.61481">
        <ele>274</ele>
        <time>2021-07-20T05:57:48.575Z</time>
      </trkpt>
      <trkpt lat="45.66593" lon="5.61486">
        <ele>274</ele>
        <time>2021-07-20T05:57:49.576Z</time>
      </trkpt>
      <trkpt lat="45.66593" lon="5.61492">
        <ele>275</ele>
        <time>2021-07-20T05:57:50.575Z</time>
      </trkpt>
      <trkpt lat="45.66593" lon="5.61497">
        <ele>275</ele>
        <time>2021-07-20T05:57:51.576Z</time>
      </trkpt>
      <trkpt lat="45.66593" lon="5.61503">
        <ele>276</ele>
        <time>2021-07-20T05:57:52.576Z</time>
      </trkpt>
      <trkpt lat="45.66592" lon="5.61508">
        <ele>276</ele>
        <time>2021-07-20T05:57:53.576Z</time>
      </trkpt>
      <trkpt lat="45.66592" lon="5.61513">
        <ele>276</ele>
        <time>2021-07-20T05:57:54.575Z</time>
      </trkpt>
      <trkpt lat="45.66592" lon="5.61518">
        <ele>277</ele>
        <time>2021-07-20T05:57:55.575Z</time>
      </trkpt>
      <trkpt lat="45.66592" lon="5.61524">
        <ele>277</ele>
        <time>2021-07-20T05:57:56.575Z</time>
      </trkpt>
      <trkpt lat="45.66592" lon="5.61529">
        <ele>277</ele>
        <time>2021-07-20T05:57:57.576Z</time>
      </trkpt>
      <trkpt lat="45.66593" lon="5.61535">
        <ele>277</ele>
        <time>2021-07-20T05:57:58.575Z</time>
      </trkpt>
      <trkpt lat="45.66594" lon="5.61541">
        <ele>278</ele>
        <time>2021-07-20T05:57:59.575Z</time>
      </trkpt>
      <trkpt lat="45.66595" lon="5.61546">
        <ele>278</ele>
        <time>2021-07-20T05:58:00.576Z</time>
      </trkpt>
      <trkpt lat="45.66597" lon="5.61551">
        <ele>279</ele>
        <time>2021-07-20T05:58:01.575Z</time>
      </trkpt>
      <trkpt lat="45.66598" lon="5.61556">
        <ele>279</ele>
        <time>2021-07-20T05:58:02.576Z</time>
      </trkpt>
      <trkpt lat="45.666" lon="5.61561">
        <ele>279</ele>
        <time>2021-07-20T05:58:03.575Z</time>
      </trkpt>
      <trkpt lat="45.66601" lon="5.61566">
        <ele>280</ele>
        <time>2021-07-20T05:58:04.575Z</time>
      </trkpt>
      <trkpt lat="45.66603" lon="5.61571">
        <ele>280</ele>
        <time>2021-07-20T05:58:05.575Z</time>
      </trkpt>
      <trkpt lat="45.66605" lon="5.61576">
        <ele>281</ele>
        <time>2021-07-20T05:58:06.575Z</time>
      </trkpt>
      <trkpt lat="45.66608" lon="5.61581">
        <ele>281</ele>
        <time>2021-07-20T05:58:07.576Z</time>
      </trkpt>
      <trkpt lat="45.6661" lon="5.61584">
        <ele>282</ele>
        <time>2021-07-20T05:58:08.576Z</time>
      </trkpt>
      <trkpt lat="45.66613" lon="5.61587">
        <ele>282</ele>
        <time>2021-07-20T05:58:09.575Z</time>
      </trkpt>
      <trkpt lat="45.66617" lon="5.61591">
        <ele>283</ele>
        <time>2021-07-20T05:58:10.576Z</time>
      </trkpt>
      <trkpt lat="45.66621" lon="5.61596">
        <ele>283</ele>
        <time>2021-07-20T05:58:11.576Z</time>
      </trkpt>
      <trkpt lat="45.66623" lon="5.61599">
        <ele>284</ele>
        <time>2021-07-20T05:58:12.575Z</time>
      </trkpt>
      <trkpt lat="45.66626" lon="5.61602">
        <ele>284</ele>
        <time>2021-07-20T05:58:13.575Z</time>
      </trkpt>
      <trkpt lat="45.66629" lon="5.61606">
        <ele>284</ele>
        <time>2021-07-20T05:58:14.575Z</time>
      </trkpt>
      <trkpt lat="45.66632" lon="5.6161">
        <ele>285</ele>
        <time>2021-07-20T05:58:15.575Z</time>
      </trkpt>
      <trkpt lat="45.66635" lon="5.61615">
        <ele>285</ele>
        <time>2021-07-20T05:58:16.575Z</time>
      </trkpt>
      <trkpt lat="45.66638" lon="5.6162">
        <ele>285</ele>
        <time>2021-07-20T05:58:17.575Z</time>
      </trkpt>
      <trkpt lat="45.66641" lon="5.61624">
        <ele>285</ele>
        <time>2021-07-20T05:58:18.575Z</time>
      </trkpt>
      <trkpt lat="45.66645" lon="5.6163">
        <ele>285</ele>
        <time>2021-07-20T05:58:19.576Z</time>
      </trkpt>
      <trkpt lat="45.66648" lon="5.61636">
        <ele>284</ele>
        <time>2021-07-20T05:58:20.575Z</time>
      </trkpt>
      <trkpt lat="45.6665" lon="5.61642">
        <ele>284</ele>
        <time>2021-07-20T05:58:21.575Z</time>
      </trkpt>
      <trkpt lat="45.66653" lon="5.61649">
        <ele>285</ele>
        <time>2021-07-20T05:58:22.575Z</time>
      </trkpt>
      <trkpt lat="45.66655" lon="5.61655">
        <ele>285</ele>
        <time>2021-07-20T05:58:23.575Z</time>
      </trkpt>
      <trkpt lat="45.66658" lon="5.61662">
        <ele>285</ele>
        <time>2021-07-20T05:58:24.575Z</time>
      </trkpt>
      <trkpt lat="45.66661" lon="5.61668">
        <ele>285</ele>
        <time>2021-07-20T05:58:25.575Z</time>
      </trkpt>
      <trkpt lat="45.66664" lon="5.61676">
        <ele>285</ele>
        <time>2021-07-20T05:58:26.576Z</time>
      </trkpt>
      <trkpt lat="45.66666" lon="5.61683">
        <ele>284</ele>
        <time>2021-07-20T05:58:27.575Z</time>
      </trkpt>
      <trkpt lat="45.66669" lon="5.6169">
        <ele>284</ele>
        <time>2021-07-20T05:58:28.575Z</time>
      </trkpt>
      <trkpt lat="45.66671" lon="5.61697">
        <ele>284</ele>
        <time>2021-07-20T05:58:29.575Z</time>
      </trkpt>
      <trkpt lat="45.66675" lon="5.61705">
        <ele>284</ele>
        <time>2021-07-20T05:58:30.575Z</time>
      </trkpt>
      <trkpt lat="45.66678" lon="5.61712">
        <ele>284</ele>
        <time>2021-07-20T05:58:31.575Z</time>
      </trkpt>
      <trkpt lat="45.66682" lon="5.61722">
        <ele>283</ele>
        <time>2021-07-20T05:58:32.575Z</time>
      </trkpt>
      <trkpt lat="45.66685" lon="5.6173">
        <ele>283</ele>
        <time>2021-07-20T05:58:33.575Z</time>
      </trkpt>
      <trkpt lat="45.66687" lon="5.61737">
        <ele>283</ele>
        <time>2021-07-20T05:58:34.575Z</time>
      </trkpt>
      <trkpt lat="45.6669" lon="5.61745">
        <ele>283</ele>
        <time>2021-07-20T05:58:35.576Z</time>
      </trkpt>
      <trkpt lat="45.66693" lon="5.61753">
        <ele>283</ele>
        <time>2021-07-20T05:58:36.576Z</time>
      </trkpt>
      <trkpt lat="45.66697" lon="5.61764">
        <ele>283</ele>
        <time>2021-07-20T05:58:37.575Z</time>
      </trkpt>
      <trkpt lat="45.667" lon="5.61773">
        <ele>283</ele>
        <time>2021-07-20T05:58:38.575Z</time>
      </trkpt>
      <trkpt lat="45.66702" lon="5.6178">
        <ele>283</ele>
        <time>2021-07-20T05:58:39.575Z</time>
      </trkpt>
      <trkpt lat="45.66707" lon="5.61791">
        <ele>283</ele>
        <time>2021-07-20T05:58:40.575Z</time>
      </trkpt>
      <trkpt lat="45.6671" lon="5.618">
        <ele>283</ele>
        <time>2021-07-20T05:58:41.575Z</time>
      </trkpt>
      <trkpt lat="45.66713" lon="5.61808">
        <ele>283</ele>
        <time>2021-07-20T05:58:42.575Z</time>
      </trkpt>
      <trkpt lat="45.66717" lon="5.61817">
        <ele>284</ele>
        <time>2021-07-20T05:58:43.576Z</time>
      </trkpt>
      <trkpt lat="45.6672" lon="5.61826">
        <ele>284</ele>
        <time>2021-07-20T05:58:44.575Z</time>
      </trkpt>
      <trkpt lat="45.66724" lon="5.61837">
        <ele>283</ele>
        <time>2021-07-20T05:58:45.576Z</time>
      </trkpt>
      <trkpt lat="45.66728" lon="5.61847">
        <ele>283</ele>
        <time>2021-07-20T05:58:46.576Z</time>
      </trkpt>
      <trkpt lat="45.66732" lon="5.61856">
        <ele>283</ele>
        <time>2021-07-20T05:58:47.575Z</time>
      </trkpt>
      <trkpt lat="45.66736" lon="5.61863">
        <ele>283</ele>
        <time>2021-07-20T05:58:48.575Z</time>
      </trkpt>
      <trkpt lat="45.6674" lon="5.61871">
        <ele>283</ele>
        <time>2021-07-20T05:58:49.575Z</time>
      </trkpt>
      <trkpt lat="45.66746" lon="5.61882">
        <ele>283</ele>
        <time>2021-07-20T05:58:50.575Z</time>
      </trkpt>
      <trkpt lat="45.6675" lon="5.61889">
        <ele>283</ele>
        <time>2021-07-20T05:58:51.575Z</time>
      </trkpt>
      <trkpt lat="45.66754" lon="5.61898">
        <ele>283</ele>
        <time>2021-07-20T05:58:52.576Z</time>
      </trkpt>
      <trkpt lat="45.66759" lon="5.61907">
        <ele>283</ele>
        <time>2021-07-20T05:58:53.576Z</time>
      </trkpt>
      <trkpt lat="45.66763" lon="5.61916">
        <ele>283</ele>
        <time>2021-07-20T05:58:54.575Z</time>
      </trkpt>
      <trkpt lat="45.66767" lon="5.61924">
        <ele>283</ele>
        <time>2021-07-20T05:58:55.575Z</time>
      </trkpt>
      <trkpt lat="45.66771" lon="5.61934">
        <ele>283</ele>
        <time>2021-07-20T05:58:56.575Z</time>
      </trkpt>
      <trkpt lat="45.66774" lon="5.61943">
        <ele>283</ele>
        <time>2021-07-20T05:58:57.575Z</time>
      </trkpt>
      <trkpt lat="45.66777" lon="5.61954">
        <ele>283</ele>
        <time>2021-07-20T05:58:58.575Z</time>
      </trkpt>
      <trkpt lat="45.66781" lon="5.61966">
        <ele>283</ele>
        <time>2021-07-20T05:58:59.575Z</time>
      </trkpt>
      <trkpt lat="45.66783" lon="5.61976">
        <ele>283</ele>
        <time>2021-07-20T05:59:00.575Z</time>
      </trkpt>
      <trkpt lat="45.66785" lon="5.61983">
        <ele>283</ele>
        <time>2021-07-20T05:59:01.575Z</time>
      </trkpt>
      <trkpt lat="45.66787" lon="5.61993">
        <ele>282</ele>
        <time>2021-07-20T05:59:02.575Z</time>
      </trkpt>
      <trkpt lat="45.66789" lon="5.62004">
        <ele>282</ele>
        <time>2021-07-20T05:59:03.575Z</time>
      </trkpt>
      <trkpt lat="45.66792" lon="5.62014">
        <ele>282</ele>
        <time>2021-07-20T05:59:04.576Z</time>
      </trkpt>
      <trkpt lat="45.66796" lon="5.62028">
        <ele>283</ele>
        <time>2021-07-20T05:59:05.575Z</time>
      </trkpt>
      <trkpt lat="45.66798" lon="5.62038">
        <ele>283</ele>
        <time>2021-07-20T05:59:06.575Z</time>
      </trkpt>
      <trkpt lat="45.668" lon="5.62046">
        <ele>283</ele>
        <time>2021-07-20T05:59:07.575Z</time>
      </trkpt>
      <trkpt lat="45.66802" lon="5.62057">
        <ele>283</ele>
        <time>2021-07-20T05:59:08.575Z</time>
      </trkpt>
      <trkpt lat="45.66804" lon="5.62067">
        <ele>283</ele>
        <time>2021-07-20T05:59:09.576Z</time>
      </trkpt>
      <trkpt lat="45.66805" lon="5.62077">
        <ele>283</ele>
        <time>2021-07-20T05:59:10.575Z</time>
      </trkpt>
      <trkpt lat="45.66804" lon="5.62085">
        <ele>283</ele>
        <time>2021-07-20T05:59:11.575Z</time>
      </trkpt>
      <trkpt lat="45.66804" lon="5.62095">
        <ele>282</ele>
        <time>2021-07-20T05:59:12.575Z</time>
      </trkpt>
      <trkpt lat="45.66804" lon="5.62106">
        <ele>282</ele>
        <time>2021-07-20T05:59:13.576Z</time>
      </trkpt>
      <trkpt lat="45.66805" lon="5.62116">
        <ele>282</ele>
        <time>2021-07-20T05:59:14.575Z</time>
      </trkpt>
      <trkpt lat="45.66804" lon="5.62125">
        <ele>282</ele>
        <time>2021-07-20T05:59:15.575Z</time>
      </trkpt>
      <trkpt lat="45.66803" lon="5.62132">
        <ele>282</ele>
        <time>2021-07-20T05:59:16.575Z</time>
      </trkpt>
      <trkpt lat="45.66801" lon="5.62142">
        <ele>282</ele>
        <time>2021-07-20T05:59:17.576Z</time>
      </trkpt>
      <trkpt lat="45.66799" lon="5.62152">
        <ele>283</ele>
        <time>2021-07-20T05:59:18.576Z</time>
      </trkpt>
      <trkpt lat="45.66797" lon="5.62162">
        <ele>283</ele>
        <time>2021-07-20T05:59:19.575Z</time>
      </trkpt>
      <trkpt lat="45.66796" lon="5.62172">
        <ele>283</ele>
        <time>2021-07-20T05:59:20.575Z</time>
      </trkpt>
      <trkpt lat="45.66795" lon="5.62183">
        <ele>283</ele>
        <time>2021-07-20T05:59:21.575Z</time>
      </trkpt>
      <trkpt lat="45.66794" lon="5.6219">
        <ele>284</ele>
        <time>2021-07-20T05:59:22.575Z</time>
      </trkpt>
      <trkpt lat="45.66793" lon="5.62201">
        <ele>284</ele>
        <time>2021-07-20T05:59:23.575Z</time>
      </trkpt>
      <trkpt lat="45.66792" lon="5.6221">
        <ele>285</ele>
        <time>2021-07-20T05:59:24.575Z</time>
      </trkpt>
      <trkpt lat="45.66791" lon="5.62217">
        <ele>285</ele>
        <time>2021-07-20T05:59:25.575Z</time>
      </trkpt>
      <trkpt lat="45.6679" lon="5.62226">
        <ele>285</ele>
        <time>2021-07-20T05:59:26.575Z</time>
      </trkpt>
      <trkpt lat="45.66789" lon="5.62235">
        <ele>285</ele>
        <time>2021-07-20T05:59:27.575Z</time>
      </trkpt>
      <trkpt lat="45.66789" lon="5.62245">
        <ele>285</ele>
        <time>2021-07-20T05:59:28.576Z</time>
      </trkpt>
      <trkpt lat="45.66788" lon="5.62254">
        <ele>286</ele>
        <time>2021-07-20T05:59:29.575Z</time>
      </trkpt>
      <trkpt lat="45.66788" lon="5.62264">
        <ele>286</ele>
        <time>2021-07-20T05:59:30.576Z</time>
      </trkpt>
      <trkpt lat="45.66788" lon="5.62274">
        <ele>286</ele>
        <time>2021-07-20T05:59:31.576Z</time>
      </trkpt>
      <trkpt lat="45.66789" lon="5.62284">
        <ele>286</ele>
        <time>2021-07-20T05:59:32.575Z</time>
      </trkpt>
      <trkpt lat="45.6679" lon="5.62295">
        <ele>286</ele>
        <time>2021-07-20T05:59:33.576Z</time>
      </trkpt>
      <trkpt lat="45.66792" lon="5.62305">
        <ele>286</ele>
        <time>2021-07-20T05:59:34.575Z</time>
      </trkpt>
      <trkpt lat="45.66794" lon="5.62314">
        <ele>286</ele>
        <time>2021-07-20T05:59:35.576Z</time>
      </trkpt>
      <trkpt lat="45.66796" lon="5.62323">
        <ele>286</ele>
        <time>2021-07-20T05:59:36.576Z</time>
      </trkpt>
      <trkpt lat="45.66798" lon="5.62335">
        <ele>286</ele>
        <time>2021-07-20T05:59:37.576Z</time>
      </trkpt>
      <trkpt lat="45.66801" lon="5.62342">
        <ele>286</ele>
        <time>2021-07-20T05:59:38.575Z</time>
      </trkpt>
      <trkpt lat="45.66804" lon="5.62352">
        <ele>286</ele>
        <time>2021-07-20T05:59:39.576Z</time>
      </trkpt>
      <trkpt lat="45.66807" lon="5.62361">
        <ele>287</ele>
        <time>2021-07-20T05:59:40.576Z</time>
      </trkpt>
      <trkpt lat="45.66811" lon="5.62369">
        <ele>287</ele>
        <time>2021-07-20T05:59:41.576Z</time>
      </trkpt>
      <trkpt lat="45.66815" lon="5.62379">
        <ele>287</ele>
        <time>2021-07-20T05:59:42.575Z</time>
      </trkpt>
      <trkpt lat="45.66819" lon="5.62387">
        <ele>287</ele>
        <time>2021-07-20T05:59:43.575Z</time>
      </trkpt>
      <trkpt lat="45.66824" lon="5.62395">
        <ele>287</ele>
        <time>2021-07-20T05:59:44.575Z</time>
      </trkpt>
      <trkpt lat="45.66827" lon="5.624">
        <ele>287</ele>
        <time>2021-07-20T05:59:45.576Z</time>
      </trkpt>
      <trkpt lat="45.66831" lon="5.62408">
        <ele>287</ele>
        <time>2021-07-20T05:59:46.575Z</time>
      </trkpt>
      <trkpt lat="45.66837" lon="5.62417">
        <ele>287</ele>
        <time>2021-07-20T05:59:47.576Z</time>
      </trkpt>
      <trkpt lat="45.66842" lon="5.62425">
        <ele>287</ele>
        <time>2021-07-20T05:59:48.576Z</time>
      </trkpt>
      <trkpt lat="45.66846" lon="5.62433">
        <ele>287</ele>
        <time>2021-07-20T05:59:49.575Z</time>
      </trkpt>
      <trkpt lat="45.6685" lon="5.62439">
        <ele>288</ele>
        <time>2021-07-20T05:59:50.575Z</time>
      </trkpt>
      <trkpt lat="45.66854" lon="5.62448">
        <ele>288</ele>
        <time>2021-07-20T05:59:51.575Z</time>
      </trkpt>
      <trkpt lat="45.66858" lon="5.62459">
        <ele>289</ele>
        <time>2021-07-20T05:59:52.575Z</time>
      </trkpt>
      <trkpt lat="45.6686" lon="5.62467">
        <ele>289</ele>
        <time>2021-07-20T05:59:53.575Z</time>
      </trkpt>
      <trkpt lat="45.66864" lon="5.6248">
        <ele>289</ele>
        <time>2021-07-20T05:59:54.575Z</time>
      </trkpt>
      <trkpt lat="45.66865" lon="5.62488">
        <ele>290</ele>
        <time>2021-07-20T05:59:55.575Z</time>
      </trkpt>
      <trkpt lat="45.66867" lon="5.62499">
        <ele>290</ele>
        <time>2021-07-20T05:59:56.575Z</time>
      </trkpt>
      <trkpt lat="45.66869" lon="5.62509">
        <ele>291</ele>
        <time>2021-07-20T05:59:57.576Z</time>
      </trkpt>
      <trkpt lat="45.66871" lon="5.62522">
        <ele>291</ele>
        <time>2021-07-20T05:59:58.576Z</time>
      </trkpt>
      <trkpt lat="45.66874" lon="5.62532">
        <ele>291</ele>
        <time>2021-07-20T05:59:59.575Z</time>
      </trkpt>
      <trkpt lat="45.66877" lon="5.6254">
        <ele>291</ele>
        <time>2021-07-20T06:00:00.575Z</time>
      </trkpt>
      <trkpt lat="45.6688" lon="5.6255">
        <ele>291</ele>
        <time>2021-07-20T06:00:01.575Z</time>
      </trkpt>
      <trkpt lat="45.66884" lon="5.62559">
        <ele>291</ele>
        <time>2021-07-20T06:00:02.575Z</time>
      </trkpt>
      <trkpt lat="45.66888" lon="5.62569">
        <ele>291</ele>
        <time>2021-07-20T06:00:03.575Z</time>
      </trkpt>
      <trkpt lat="45.66892" lon="5.62579">
        <ele>291</ele>
        <time>2021-07-20T06:00:04.575Z</time>
      </trkpt>
      <trkpt lat="45.66897" lon="5.62588">
        <ele>290</ele>
        <time>2021-07-20T06:00:05.575Z</time>
      </trkpt>
      <trkpt lat="45.66901" lon="5.62597">
        <ele>290</ele>
        <time>2021-07-20T06:00:06.575Z</time>
      </trkpt>
      <trkpt lat="45.66905" lon="5.62606">
        <ele>290</ele>
        <time>2021-07-20T06:00:07.575Z</time>
      </trkpt>
      <trkpt lat="45.6691" lon="5.62616">
        <ele>290</ele>
        <time>2021-07-20T06:00:08.576Z</time>
      </trkpt>
      <trkpt lat="45.66914" lon="5.62625">
        <ele>290</ele>
        <time>2021-07-20T06:00:09.575Z</time>
      </trkpt>
      <trkpt lat="45.66919" lon="5.62634">
        <ele>290</ele>
        <time>2021-07-20T06:00:10.575Z</time>
      </trkpt>
      <trkpt lat="45.66923" lon="5.62643">
        <ele>290</ele>
        <time>2021-07-20T06:00:11.575Z</time>
      </trkpt>
      <trkpt lat="45.66928" lon="5.62652">
        <ele>291</ele>
        <time>2021-07-20T06:00:12.575Z</time>
      </trkpt>
      <trkpt lat="45.66933" lon="5.62664">
        <ele>291</ele>
        <time>2021-07-20T06:00:13.576Z</time>
      </trkpt>
      <trkpt lat="45.66937" lon="5.62671">
        <ele>291</ele>
        <time>2021-07-20T06:00:14.576Z</time>
      </trkpt>
      <trkpt lat="45.66941" lon="5.62681">
        <ele>291</ele>
        <time>2021-07-20T06:00:15.576Z</time>
      </trkpt>
      <trkpt lat="45.66945" lon="5.62691">
        <ele>290</ele>
        <time>2021-07-20T06:00:16.576Z</time>
      </trkpt>
      <trkpt lat="45.66949" lon="5.627">
        <ele>290</ele>
        <time>2021-07-20T06:00:17.575Z</time>
      </trkpt>
      <trkpt lat="45.66952" lon="5.6271">
        <ele>290</ele>
        <time>2021-07-20T06:00:18.576Z</time>
      </trkpt>
      <trkpt lat="45.66956" lon="5.62719">
        <ele>290</ele>
        <time>2021-07-20T06:00:19.575Z</time>
      </trkpt>
      <trkpt lat="45.66959" lon="5.62728">
        <ele>290</ele>
        <time>2021-07-20T06:00:20.575Z</time>
      </trkpt>
      <trkpt lat="45.66962" lon="5.62738">
        <ele>291</ele>
        <time>2021-07-20T06:00:21.575Z</time>
      </trkpt>
      <trkpt lat="45.66966" lon="5.62747">
        <ele>291</ele>
        <time>2021-07-20T06:00:22.576Z</time>
      </trkpt>
      <trkpt lat="45.66969" lon="5.62756">
        <ele>291</ele>
        <time>2021-07-20T06:00:23.575Z</time>
      </trkpt>
      <trkpt lat="45.66973" lon="5.62766">
        <ele>291</ele>
        <time>2021-07-20T06:00:24.575Z</time>
      </trkpt>
      <trkpt lat="45.66976" lon="5.62775">
        <ele>291</ele>
        <time>2021-07-20T06:00:25.575Z</time>
      </trkpt>
      <trkpt lat="45.66979" lon="5.62785">
        <ele>291</ele>
        <time>2021-07-20T06:00:26.575Z</time>
      </trkpt>
      <trkpt lat="45.66983" lon="5.62795">
        <ele>291</ele>
        <time>2021-07-20T06:00:27.575Z</time>
      </trkpt>
      <trkpt lat="45.66987" lon="5.62805">
        <ele>291</ele>
        <time>2021-07-20T06:00:28.575Z</time>
      </trkpt>
      <trkpt lat="45.6699" lon="5.62815">
        <ele>291</ele>
        <time>2021-07-20T06:00:29.575Z</time>
      </trkpt>
      <trkpt lat="45.66994" lon="5.62825">
        <ele>291</ele>
        <time>2021-07-20T06:00:30.576Z</time>
      </trkpt>
      <trkpt lat="45.66997" lon="5.62835">
        <ele>291</ele>
        <time>2021-07-20T06:00:31.575Z</time>
      </trkpt>
      <trkpt lat="45.67001" lon="5.62845">
        <ele>291</ele>
        <time>2021-07-20T06:00:32.576Z</time>
      </trkpt>
      <trkpt lat="45.67005" lon="5.62855">
        <ele>291</ele>
        <time>2021-07-20T06:00:33.575Z</time>
      </trkpt>
      <trkpt lat="45.67008" lon="5.62866">
        <ele>291</ele>
        <time>2021-07-20T06:00:34.576Z</time>
      </trkpt>
      <trkpt lat="45.67012" lon="5.62876">
        <ele>291</ele>
        <time>2021-07-20T06:00:35.576Z</time>
      </trkpt>
      <trkpt lat="45.67016" lon="5.62886">
        <ele>290</ele>
        <time>2021-07-20T06:00:36.575Z</time>
      </trkpt>
      <trkpt lat="45.6702" lon="5.62897">
        <ele>290</ele>
        <time>2021-07-20T06:00:37.575Z</time>
      </trkpt>
      <trkpt lat="45.67023" lon="5.62907">
        <ele>290</ele>
        <time>2021-07-20T06:00:38.576Z</time>
      </trkpt>
      <trkpt lat="45.67027" lon="5.62917">
        <ele>290</ele>
        <time>2021-07-20T06:00:39.576Z</time>
      </trkpt>
      <trkpt lat="45.67031" lon="5.62926">
        <ele>290</ele>
        <time>2021-07-20T06:00:40.575Z</time>
      </trkpt>
      <trkpt lat="45.67034" lon="5.62937">
        <ele>290</ele>
        <time>2021-07-20T06:00:41.575Z</time>
      </trkpt>
      <trkpt lat="45.67038" lon="5.62947">
        <ele>290</ele>
        <time>2021-07-20T06:00:42.576Z</time>
      </trkpt>
      <trkpt lat="45.67042" lon="5.62957">
        <ele>290</ele>
        <time>2021-07-20T06:00:43.575Z</time>
      </trkpt>
      <trkpt lat="45.67046" lon="5.62967">
        <ele>290</ele>
        <time>2021-07-20T06:00:44.576Z</time>
      </trkpt>
      <trkpt lat="45.67049" lon="5.62977">
        <ele>290</ele>
        <time>2021-07-20T06:00:45.575Z</time>
      </trkpt>
      <trkpt lat="45.67053" lon="5.62987">
        <ele>289</ele>
        <time>2021-07-20T06:00:46.575Z</time>
      </trkpt>
      <trkpt lat="45.67057" lon="5.62996">
        <ele>289</ele>
        <time>2021-07-20T06:00:47.575Z</time>
      </trkpt>
      <trkpt lat="45.6706" lon="5.63007">
        <ele>289</ele>
        <time>2021-07-20T06:00:48.576Z</time>
      </trkpt>
      <trkpt lat="45.67063" lon="5.63016">
        <ele>288</ele>
        <time>2021-07-20T06:00:49.575Z</time>
      </trkpt>
      <trkpt lat="45.67067" lon="5.63026">
        <ele>288</ele>
        <time>2021-07-20T06:00:50.575Z</time>
      </trkpt>
      <trkpt lat="45.67071" lon="5.63036">
        <ele>288</ele>
        <time>2021-07-20T06:00:51.575Z</time>
      </trkpt>
      <trkpt lat="45.67074" lon="5.63046">
        <ele>288</ele>
        <time>2021-07-20T06:00:52.575Z</time>
      </trkpt>
      <trkpt lat="45.67078" lon="5.63056">
        <ele>289</ele>
        <time>2021-07-20T06:00:53.575Z</time>
      </trkpt>
      <trkpt lat="45.67081" lon="5.63065">
        <ele>289</ele>
        <time>2021-07-20T06:00:54.575Z</time>
      </trkpt>
      <trkpt lat="45.67085" lon="5.63077">
        <ele>289</ele>
        <time>2021-07-20T06:00:55.576Z</time>
      </trkpt>
      <trkpt lat="45.67089" lon="5.63087">
        <ele>289</ele>
        <time>2021-07-20T06:00:56.575Z</time>
      </trkpt>
      <trkpt lat="45.67092" lon="5.63097">
        <ele>289</ele>
        <time>2021-07-20T06:00:57.575Z</time>
      </trkpt>
      <trkpt lat="45.67096" lon="5.63107">
        <ele>290</ele>
        <time>2021-07-20T06:00:58.575Z</time>
      </trkpt>
      <trkpt lat="45.671" lon="5.63117">
        <ele>290</ele>
        <time>2021-07-20T06:00:59.575Z</time>
      </trkpt>
      <trkpt lat="45.67103" lon="5.63127">
        <ele>290</ele>
        <time>2021-07-20T06:01:00.575Z</time>
      </trkpt>
      <trkpt lat="45.67107" lon="5.63137">
        <ele>290</ele>
        <time>2021-07-20T06:01:01.575Z</time>
      </trkpt>
      <trkpt lat="45.67111" lon="5.63146">
        <ele>290</ele>
        <time>2021-07-20T06:01:02.575Z</time>
      </trkpt>
      <trkpt lat="45.67114" lon="5.63154">
        <ele>290</ele>
        <time>2021-07-20T06:01:03.575Z</time>
      </trkpt>
      <trkpt lat="45.67118" lon="5.63164">
        <ele>290</ele>
        <time>2021-07-20T06:01:04.576Z</time>
      </trkpt>
      <trkpt lat="45.67122" lon="5.63176">
        <ele>289</ele>
        <time>2021-07-20T06:01:05.576Z</time>
      </trkpt>
      <trkpt lat="45.67126" lon="5.63186">
        <ele>289</ele>
        <time>2021-07-20T06:01:06.576Z</time>
      </trkpt>
      <trkpt lat="45.67129" lon="5.63196">
        <ele>289</ele>
        <time>2021-07-20T06:01:07.575Z</time>
      </trkpt>
      <trkpt lat="45.67132" lon="5.63204">
        <ele>289</ele>
        <time>2021-07-20T06:01:08.575Z</time>
      </trkpt>
      <trkpt lat="45.67136" lon="5.63214">
        <ele>289</ele>
        <time>2021-07-20T06:01:09.576Z</time>
      </trkpt>
      <trkpt lat="45.6714" lon="5.63226">
        <ele>288</ele>
        <time>2021-07-20T06:01:10.575Z</time>
      </trkpt>
      <trkpt lat="45.67144" lon="5.63235">
        <ele>288</ele>
        <time>2021-07-20T06:01:11.575Z</time>
      </trkpt>
      <trkpt lat="45.67148" lon="5.63245">
        <ele>288</ele>
        <time>2021-07-20T06:01:12.575Z</time>
      </trkpt>
      <trkpt lat="45.67151" lon="5.63253">
        <ele>289</ele>
        <time>2021-07-20T06:01:13.575Z</time>
      </trkpt>
      <trkpt lat="45.67154" lon="5.63263">
        <ele>289</ele>
        <time>2021-07-20T06:01:14.575Z</time>
      </trkpt>
      <trkpt lat="45.67158" lon="5.63273">
        <ele>289</ele>
        <time>2021-07-20T06:01:15.575Z</time>
      </trkpt>
      <trkpt lat="45.67162" lon="5.63283">
        <ele>289</ele>
        <time>2021-07-20T06:01:16.575Z</time>
      </trkpt>
      <trkpt lat="45.67165" lon="5.63293">
        <ele>289</ele>
        <time>2021-07-20T06:01:17.576Z</time>
      </trkpt>
      <trkpt lat="45.67169" lon="5.63303">
        <ele>289</ele>
        <time>2021-07-20T06:01:18.576Z</time>
      </trkpt>
      <trkpt lat="45.67173" lon="5.63315">
        <ele>289</ele>
        <time>2021-07-20T06:01:19.575Z</time>
      </trkpt>
      <trkpt lat="45.67177" lon="5.63325">
        <ele>289</ele>
        <time>2021-07-20T06:01:20.575Z</time>
      </trkpt>
      <trkpt lat="45.6718" lon="5.63333">
        <ele>289</ele>
        <time>2021-07-20T06:01:21.575Z</time>
      </trkpt>
      <trkpt lat="45.67184" lon="5.63343">
        <ele>289</ele>
        <time>2021-07-20T06:01:22.576Z</time>
      </trkpt>
      <trkpt lat="45.67188" lon="5.63353">
        <ele>289</ele>
        <time>2021-07-20T06:01:23.576Z</time>
      </trkpt>
      <trkpt lat="45.67191" lon="5.63362">
        <ele>289</ele>
        <time>2021-07-20T06:01:24.576Z</time>
      </trkpt>
      <trkpt lat="45.67195" lon="5.63372">
        <ele>289</ele>
        <time>2021-07-20T06:01:25.576Z</time>
      </trkpt>
      <trkpt lat="45.67198" lon="5.63382">
        <ele>289</ele>
        <time>2021-07-20T06:01:26.575Z</time>
      </trkpt>
      <trkpt lat="45.67202" lon="5.63392">
        <ele>289</ele>
        <time>2021-07-20T06:01:27.575Z</time>
      </trkpt>
      <trkpt lat="45.67206" lon="5.63402">
        <ele>288</ele>
        <time>2021-07-20T06:01:28.575Z</time>
      </trkpt>
      <trkpt lat="45.67209" lon="5.63412">
        <ele>288</ele>
        <time>2021-07-20T06:01:29.575Z</time>
      </trkpt>
      <trkpt lat="45.67213" lon="5.63421">
        <ele>288</ele>
        <time>2021-07-20T06:01:30.575Z</time>
      </trkpt>
      <trkpt lat="45.67216" lon="5.63431">
        <ele>288</ele>
        <time>2021-07-20T06:01:31.576Z</time>
      </trkpt>
      <trkpt lat="45.6722" lon="5.63441">
        <ele>288</ele>
        <time>2021-07-20T06:01:32.576Z</time>
      </trkpt>
      <trkpt lat="45.67224" lon="5.6345">
        <ele>288</ele>
        <time>2021-07-20T06:01:33.575Z</time>
      </trkpt>
      <trkpt lat="45.67227" lon="5.6346">
        <ele>289</ele>
        <time>2021-07-20T06:01:34.576Z</time>
      </trkpt>
      <trkpt lat="45.67231" lon="5.6347">
        <ele>289</ele>
        <time>2021-07-20T06:01:35.575Z</time>
      </trkpt>
      <trkpt lat="45.67234" lon="5.6348">
        <ele>289</ele>
        <time>2021-07-20T06:01:36.576Z</time>
      </trkpt>
      <trkpt lat="45.67238" lon="5.63489">
        <ele>290</ele>
        <time>2021-07-20T06:01:37.575Z</time>
      </trkpt>
      <trkpt lat="45.67242" lon="5.63499">
        <ele>290</ele>
        <time>2021-07-20T06:01:38.575Z</time>
      </trkpt>
      <trkpt lat="45.67245" lon="5.63508">
        <ele>290</ele>
        <time>2021-07-20T06:01:39.576Z</time>
      </trkpt>
      <trkpt lat="45.67249" lon="5.63518">
        <ele>289</ele>
        <time>2021-07-20T06:01:40.576Z</time>
      </trkpt>
      <trkpt lat="45.67253" lon="5.63528">
        <ele>290</ele>
        <time>2021-07-20T06:01:41.575Z</time>
      </trkpt>
      <trkpt lat="45.67256" lon="5.63538">
        <ele>290</ele>
        <time>2021-07-20T06:01:42.576Z</time>
      </trkpt>
      <trkpt lat="45.6726" lon="5.63548">
        <ele>290</ele>
        <time>2021-07-20T06:01:43.575Z</time>
      </trkpt>
      <trkpt lat="45.67263" lon="5.63557">
        <ele>290</ele>
        <time>2021-07-20T06:01:44.575Z</time>
      </trkpt>
      <trkpt lat="45.67268" lon="5.63569">
        <ele>290</ele>
        <time>2021-07-20T06:01:45.575Z</time>
      </trkpt>
      <trkpt lat="45.67271" lon="5.63579">
        <ele>290</ele>
        <time>2021-07-20T06:01:46.575Z</time>
      </trkpt>
      <trkpt lat="45.67275" lon="5.63589">
        <ele>291</ele>
        <time>2021-07-20T06:01:47.575Z</time>
      </trkpt>
      <trkpt lat="45.67278" lon="5.63596">
        <ele>291</ele>
        <time>2021-07-20T06:01:48.575Z</time>
      </trkpt>
      <trkpt lat="45.67282" lon="5.63608">
        <ele>291</ele>
        <time>2021-07-20T06:01:49.575Z</time>
      </trkpt>
      <trkpt lat="45.67285" lon="5.63615">
        <ele>291</ele>
        <time>2021-07-20T06:01:50.575Z</time>
      </trkpt>
      <trkpt lat="45.67288" lon="5.63625">
        <ele>292</ele>
        <time>2021-07-20T06:01:51.575Z</time>
      </trkpt>
      <trkpt lat="45.67291" lon="5.63635">
        <ele>292</ele>
        <time>2021-07-20T06:01:52.575Z</time>
      </trkpt>
      <trkpt lat="45.67295" lon="5.63645">
        <ele>292</ele>
        <time>2021-07-20T06:01:53.576Z</time>
      </trkpt>
      <trkpt lat="45.67299" lon="5.63656">
        <ele>292</ele>
        <time>2021-07-20T06:01:54.576Z</time>
      </trkpt>
      <trkpt lat="45.67302" lon="5.63664">
        <ele>292</ele>
        <time>2021-07-20T06:01:55.575Z</time>
      </trkpt>
      <trkpt lat="45.67306" lon="5.63676">
        <ele>292</ele>
        <time>2021-07-20T06:01:56.575Z</time>
      </trkpt>
      <trkpt lat="45.6731" lon="5.63686">
        <ele>292</ele>
        <time>2021-07-20T06:01:57.575Z</time>
      </trkpt>
      <trkpt lat="45.67314" lon="5.63695">
        <ele>292</ele>
        <time>2021-07-20T06:01:58.575Z</time>
      </trkpt>
      <trkpt lat="45.67317" lon="5.63705">
        <ele>292</ele>
        <time>2021-07-20T06:01:59.575Z</time>
      </trkpt>
      <trkpt lat="45.67321" lon="5.63715">
        <ele>292</ele>
        <time>2021-07-20T06:02:00.576Z</time>
      </trkpt>
      <trkpt lat="45.67324" lon="5.63722">
        <ele>292</ele>
        <time>2021-07-20T06:02:01.575Z</time>
      </trkpt>
      <trkpt lat="45.67328" lon="5.63734">
        <ele>292</ele>
        <time>2021-07-20T06:02:02.575Z</time>
      </trkpt>
      <trkpt lat="45.67331" lon="5.63742">
        <ele>292</ele>
        <time>2021-07-20T06:02:03.575Z</time>
      </trkpt>
      <trkpt lat="45.67336" lon="5.63753">
        <ele>292</ele>
        <time>2021-07-20T06:02:04.576Z</time>
      </trkpt>
      <trkpt lat="45.67339" lon="5.63763">
        <ele>292</ele>
        <time>2021-07-20T06:02:05.575Z</time>
      </trkpt>
      <trkpt lat="45.67343" lon="5.63773">
        <ele>292</ele>
        <time>2021-07-20T06:02:06.575Z</time>
      </trkpt>
      <trkpt lat="45.67346" lon="5.63781">
        <ele>292</ele>
        <time>2021-07-20T06:02:07.575Z</time>
      </trkpt>
      <trkpt lat="45.6735" lon="5.63793">
        <ele>291</ele>
        <time>2021-07-20T06:02:08.575Z</time>
      </trkpt>
      <trkpt lat="45.67354" lon="5.63803">
        <ele>291</ele>
        <time>2021-07-20T06:02:09.576Z</time>
      </trkpt>
      <trkpt lat="45.67358" lon="5.63813">
        <ele>291</ele>
        <time>2021-07-20T06:02:10.575Z</time>
      </trkpt>
      <trkpt lat="45.6736" lon="5.63821">
        <ele>291</ele>
        <time>2021-07-20T06:02:11.575Z</time>
      </trkpt>
      <trkpt lat="45.67364" lon="5.63831">
        <ele>291</ele>
        <time>2021-07-20T06:02:12.575Z</time>
      </trkpt>
      <trkpt lat="45.67368" lon="5.63841">
        <ele>291</ele>
        <time>2021-07-20T06:02:13.575Z</time>
      </trkpt>
      <trkpt lat="45.67372" lon="5.63853">
        <ele>291</ele>
        <time>2021-07-20T06:02:14.575Z</time>
      </trkpt>
      <trkpt lat="45.67375" lon="5.63864">
        <ele>291</ele>
        <time>2021-07-20T06:02:15.576Z</time>
      </trkpt>
      <trkpt lat="45.67378" lon="5.63872">
        <ele>290</ele>
        <time>2021-07-20T06:02:16.576Z</time>
      </trkpt>
      <trkpt lat="45.67381" lon="5.63882">
        <ele>290</ele>
        <time>2021-07-20T06:02:17.575Z</time>
      </trkpt>
      <trkpt lat="45.67384" lon="5.63893">
        <ele>290</ele>
        <time>2021-07-20T06:02:18.576Z</time>
      </trkpt>
      <trkpt lat="45.67387" lon="5.63906">
        <ele>290</ele>
        <time>2021-07-20T06:02:19.576Z</time>
      </trkpt>
      <trkpt lat="45.67388" lon="5.63914">
        <ele>291</ele>
        <time>2021-07-20T06:02:20.575Z</time>
      </trkpt>
      <trkpt lat="45.6739" lon="5.63925">
        <ele>291</ele>
        <time>2021-07-20T06:02:21.576Z</time>
      </trkpt>
      <trkpt lat="45.67392" lon="5.63937">
        <ele>291</ele>
        <time>2021-07-20T06:02:22.576Z</time>
      </trkpt>
      <trkpt lat="45.67394" lon="5.63948">
        <ele>291</ele>
        <time>2021-07-20T06:02:23.575Z</time>
      </trkpt>
      <trkpt lat="45.67396" lon="5.63962">
        <ele>292</ele>
        <time>2021-07-20T06:02:24.575Z</time>
      </trkpt>
      <trkpt lat="45.67397" lon="5.63973">
        <ele>292</ele>
        <time>2021-07-20T06:02:25.576Z</time>
      </trkpt>
      <trkpt lat="45.67398" lon="5.63982">
        <ele>292</ele>
        <time>2021-07-20T06:02:26.575Z</time>
      </trkpt>
      <trkpt lat="45.67399" lon="5.63994">
        <ele>292</ele>
        <time>2021-07-20T06:02:27.575Z</time>
      </trkpt>
      <trkpt lat="45.674" lon="5.64004">
        <ele>293</ele>
        <time>2021-07-20T06:02:28.575Z</time>
      </trkpt>
      <trkpt lat="45.67401" lon="5.64017">
        <ele>293</ele>
        <time>2021-07-20T06:02:29.575Z</time>
      </trkpt>
      <trkpt lat="45.67402" lon="5.64026">
        <ele>293</ele>
        <time>2021-07-20T06:02:30.575Z</time>
      </trkpt>
      <trkpt lat="45.67402" lon="5.64037">
        <ele>293</ele>
        <time>2021-07-20T06:02:31.575Z</time>
      </trkpt>
      <trkpt lat="45.67402" lon="5.64047">
        <ele>293</ele>
        <time>2021-07-20T06:02:32.575Z</time>
      </trkpt>
      <trkpt lat="45.67402" lon="5.64058">
        <ele>293</ele>
        <time>2021-07-20T06:02:33.576Z</time>
      </trkpt>
      <trkpt lat="45.67402" lon="5.64069">
        <ele>293</ele>
        <time>2021-07-20T06:02:34.575Z</time>
      </trkpt>
      <trkpt lat="45.67403" lon="5.64079">
        <ele>293</ele>
        <time>2021-07-20T06:02:35.575Z</time>
      </trkpt>
      <trkpt lat="45.67403" lon="5.6409">
        <ele>293</ele>
        <time>2021-07-20T06:02:36.576Z</time>
      </trkpt>
      <trkpt lat="45.67404" lon="5.64101">
        <ele>294</ele>
        <time>2021-07-20T06:02:37.575Z</time>
      </trkpt>
      <trkpt lat="45.67404" lon="5.64112">
        <ele>294</ele>
        <time>2021-07-20T06:02:38.576Z</time>
      </trkpt>
      <trkpt lat="45.67405" lon="5.64123">
        <ele>294</ele>
        <time>2021-07-20T06:02:39.576Z</time>
      </trkpt>
      <trkpt lat="45.67407" lon="5.64135">
        <ele>295</ele>
        <time>2021-07-20T06:02:40.576Z</time>
      </trkpt>
      <trkpt lat="45.67409" lon="5.64146">
        <ele>295</ele>
        <time>2021-07-20T06:02:41.575Z</time>
      </trkpt>
      <trkpt lat="45.67409" lon="5.6416">
        <ele>295</ele>
        <time>2021-07-20T06:02:42.575Z</time>
      </trkpt>
      <trkpt lat="45.6741" lon="5.6417">
        <ele>296</ele>
        <time>2021-07-20T06:02:43.576Z</time>
      </trkpt>
      <trkpt lat="45.67411" lon="5.64181">
        <ele>296</ele>
        <time>2021-07-20T06:02:44.576Z</time>
      </trkpt>
      <trkpt lat="45.67411" lon="5.64192">
        <ele>297</ele>
        <time>2021-07-20T06:02:45.576Z</time>
      </trkpt>
      <trkpt lat="45.67412" lon="5.64201">
        <ele>297</ele>
        <time>2021-07-20T06:02:46.575Z</time>
      </trkpt>
      <trkpt lat="45.67413" lon="5.64214">
        <ele>297</ele>
        <time>2021-07-20T06:02:47.575Z</time>
      </trkpt>
      <trkpt lat="45.67414" lon="5.64224">
        <ele>298</ele>
        <time>2021-07-20T06:02:48.575Z</time>
      </trkpt>
      <trkpt lat="45.67414" lon="5.64233">
        <ele>298</ele>
        <time>2021-07-20T06:02:49.576Z</time>
      </trkpt>
      <trkpt lat="45.67414" lon="5.64243">
        <ele>298</ele>
        <time>2021-07-20T06:02:50.575Z</time>
      </trkpt>
      <trkpt lat="45.67415" lon="5.64254">
        <ele>299</ele>
        <time>2021-07-20T06:02:51.575Z</time>
      </trkpt>
      <trkpt lat="45.67416" lon="5.64265">
        <ele>299</ele>
        <time>2021-07-20T06:02:52.575Z</time>
      </trkpt>
      <trkpt lat="45.67417" lon="5.64278">
        <ele>299</ele>
        <time>2021-07-20T06:02:53.576Z</time>
      </trkpt>
      <trkpt lat="45.67417" lon="5.64288">
        <ele>299</ele>
        <time>2021-07-20T06:02:54.576Z</time>
      </trkpt>
      <trkpt lat="45.67418" lon="5.64296">
        <ele>299</ele>
        <time>2021-07-20T06:02:55.576Z</time>
      </trkpt>
      <trkpt lat="45.67419" lon="5.64306">
        <ele>299</ele>
        <time>2021-07-20T06:02:56.576Z</time>
      </trkpt>
      <trkpt lat="45.6742" lon="5.64319">
        <ele>300</ele>
        <time>2021-07-20T06:02:57.575Z</time>
      </trkpt>
      <trkpt lat="45.67421" lon="5.6433">
        <ele>300</ele>
        <time>2021-07-20T06:02:58.575Z</time>
      </trkpt>
      <trkpt lat="45.67422" lon="5.64341">
        <ele>300</ele>
        <time>2021-07-20T06:02:59.575Z</time>
      </trkpt>
      <trkpt lat="45.67422" lon="5.6435">
        <ele>301</ele>
        <time>2021-07-20T06:03:00.576Z</time>
      </trkpt>
      <trkpt lat="45.67422" lon="5.64362">
        <ele>301</ele>
        <time>2021-07-20T06:03:01.575Z</time>
      </trkpt>
      <trkpt lat="45.67421" lon="5.64373">
        <ele>301</ele>
        <time>2021-07-20T06:03:02.575Z</time>
      </trkpt>
      <trkpt lat="45.67418" lon="5.64383">
        <ele>301</ele>
        <time>2021-07-20T06:03:03.575Z</time>
      </trkpt>
      <trkpt lat="45.67417" lon="5.64393">
        <ele>302</ele>
        <time>2021-07-20T06:03:04.575Z</time>
      </trkpt>
      <trkpt lat="45.67416" lon="5.64402">
        <ele>302</ele>
        <time>2021-07-20T06:03:05.575Z</time>
      </trkpt>
      <trkpt lat="45.67414" lon="5.64412">
        <ele>302</ele>
        <time>2021-07-20T06:03:06.575Z</time>
      </trkpt>
      <trkpt lat="45.67412" lon="5.64419">
        <ele>302</ele>
        <time>2021-07-20T06:03:07.575Z</time>
      </trkpt>
      <trkpt lat="45.6741" lon="5.64431">
        <ele>302</ele>
        <time>2021-07-20T06:03:08.575Z</time>
      </trkpt>
      <trkpt lat="45.67408" lon="5.64441">
        <ele>302</ele>
        <time>2021-07-20T06:03:09.575Z</time>
      </trkpt>
      <trkpt lat="45.67406" lon="5.64452">
        <ele>302</ele>
        <time>2021-07-20T06:03:10.575Z</time>
      </trkpt>
      <trkpt lat="45.67405" lon="5.64462">
        <ele>303</ele>
        <time>2021-07-20T06:03:11.575Z</time>
      </trkpt>
      <trkpt lat="45.67403" lon="5.64472">
        <ele>303</ele>
        <time>2021-07-20T06:03:12.575Z</time>
      </trkpt>
      <trkpt lat="45.67401" lon="5.64482">
        <ele>303</ele>
        <time>2021-07-20T06:03:13.575Z</time>
      </trkpt>
      <trkpt lat="45.67399" lon="5.6449">
        <ele>303</ele>
        <time>2021-07-20T06:03:14.576Z</time>
      </trkpt>
      <trkpt lat="45.67397" lon="5.645">
        <ele>303</ele>
        <time>2021-07-20T06:03:15.576Z</time>
      </trkpt>
      <trkpt lat="45.67396" lon="5.6451">
        <ele>303</ele>
        <time>2021-07-20T06:03:16.575Z</time>
      </trkpt>
      <trkpt lat="45.67393" lon="5.64522">
        <ele>303</ele>
        <time>2021-07-20T06:03:17.575Z</time>
      </trkpt>
      <trkpt lat="45.67391" lon="5.64529">
        <ele>303</ele>
        <time>2021-07-20T06:03:18.575Z</time>
      </trkpt>
      <trkpt lat="45.67389" lon="5.64539">
        <ele>303</ele>
        <time>2021-07-20T06:03:19.576Z</time>
      </trkpt>
      <trkpt lat="45.67387" lon="5.64548">
        <ele>302</ele>
        <time>2021-07-20T06:03:20.576Z</time>
      </trkpt>
      <trkpt lat="45.67386" lon="5.64558">
        <ele>302</ele>
        <time>2021-07-20T06:03:21.575Z</time>
      </trkpt>
      <trkpt lat="45.67385" lon="5.64568">
        <ele>302</ele>
        <time>2021-07-20T06:03:22.576Z</time>
      </trkpt>
      <trkpt lat="45.67384" lon="5.64578">
        <ele>302</ele>
        <time>2021-07-20T06:03:23.576Z</time>
      </trkpt>
      <trkpt lat="45.67383" lon="5.64588">
        <ele>301</ele>
        <time>2021-07-20T06:03:24.575Z</time>
      </trkpt>
      <trkpt lat="45.67382" lon="5.64598">
        <ele>300</ele>
        <time>2021-07-20T06:03:25.575Z</time>
      </trkpt>
      <trkpt lat="45.67381" lon="5.64608">
        <ele>300</ele>
        <time>2021-07-20T06:03:26.575Z</time>
      </trkpt>
      <trkpt lat="45.67382" lon="5.64618">
        <ele>299</ele>
        <time>2021-07-20T06:03:27.575Z</time>
      </trkpt>
      <trkpt lat="45.67381" lon="5.64629">
        <ele>299</ele>
        <time>2021-07-20T06:03:28.575Z</time>
      </trkpt>
      <trkpt lat="45.67382" lon="5.6464">
        <ele>299</ele>
        <time>2021-07-20T06:03:29.576Z</time>
      </trkpt>
      <trkpt lat="45.67382" lon="5.6465">
        <ele>299</ele>
        <time>2021-07-20T06:03:30.575Z</time>
      </trkpt>
      <trkpt lat="45.67383" lon="5.64662">
        <ele>299</ele>
        <time>2021-07-20T06:03:31.576Z</time>
      </trkpt>
      <trkpt lat="45.67384" lon="5.64673">
        <ele>299</ele>
        <time>2021-07-20T06:03:32.575Z</time>
      </trkpt>
      <trkpt lat="45.67385" lon="5.64683">
        <ele>299</ele>
        <time>2021-07-20T06:03:33.575Z</time>
      </trkpt>
      <trkpt lat="45.67387" lon="5.64694">
        <ele>299</ele>
        <time>2021-07-20T06:03:34.575Z</time>
      </trkpt>
      <trkpt lat="45.67389" lon="5.64704">
        <ele>299</ele>
        <time>2021-07-20T06:03:35.576Z</time>
      </trkpt>
      <trkpt lat="45.67391" lon="5.64713">
        <ele>299</ele>
        <time>2021-07-20T06:03:36.576Z</time>
      </trkpt>
      <trkpt lat="45.67394" lon="5.64723">
        <ele>299</ele>
        <time>2021-07-20T06:03:37.576Z</time>
      </trkpt>
      <trkpt lat="45.67398" lon="5.64733">
        <ele>299</ele>
        <time>2021-07-20T06:03:38.575Z</time>
      </trkpt>
      <trkpt lat="45.67402" lon="5.64742">
        <ele>299</ele>
        <time>2021-07-20T06:03:39.575Z</time>
      </trkpt>
      <trkpt lat="45.67405" lon="5.64752">
        <ele>299</ele>
        <time>2021-07-20T06:03:40.575Z</time>
      </trkpt>
      <trkpt lat="45.67409" lon="5.64761">
        <ele>299</ele>
        <time>2021-07-20T06:03:41.575Z</time>
      </trkpt>
      <trkpt lat="45.67413" lon="5.64771">
        <ele>298</ele>
        <time>2021-07-20T06:03:42.575Z</time>
      </trkpt>
      <trkpt lat="45.67417" lon="5.64778">
        <ele>298</ele>
        <time>2021-07-20T06:03:43.575Z</time>
      </trkpt>
      <trkpt lat="45.67423" lon="5.64789">
        <ele>299</ele>
        <time>2021-07-20T06:03:44.575Z</time>
      </trkpt>
      <trkpt lat="45.67427" lon="5.64797">
        <ele>299</ele>
        <time>2021-07-20T06:03:45.575Z</time>
      </trkpt>
      <trkpt lat="45.67432" lon="5.64805">
        <ele>299</ele>
        <time>2021-07-20T06:03:46.575Z</time>
      </trkpt>
      <trkpt lat="45.67437" lon="5.64812">
        <ele>299</ele>
        <time>2021-07-20T06:03:47.576Z</time>
      </trkpt>
      <trkpt lat="45.67443" lon="5.64819">
        <ele>299</ele>
        <time>2021-07-20T06:03:48.575Z</time>
      </trkpt>
      <trkpt lat="45.67448" lon="5.64826">
        <ele>299</ele>
        <time>2021-07-20T06:03:49.576Z</time>
      </trkpt>
      <trkpt lat="45.67456" lon="5.64835">
        <ele>299</ele>
        <time>2021-07-20T06:03:50.575Z</time>
      </trkpt>
      <trkpt lat="45.67463" lon="5.64841">
        <ele>299</ele>
        <time>2021-07-20T06:03:51.576Z</time>
      </trkpt>
      <trkpt lat="45.67468" lon="5.64847">
        <ele>299</ele>
        <time>2021-07-20T06:03:52.575Z</time>
      </trkpt>
      <trkpt lat="45.67475" lon="5.64853">
        <ele>299</ele>
        <time>2021-07-20T06:03:53.575Z</time>
      </trkpt>
      <trkpt lat="45.67483" lon="5.64861">
        <ele>299</ele>
        <time>2021-07-20T06:03:54.575Z</time>
      </trkpt>
      <trkpt lat="45.67489" lon="5.64867">
        <ele>300</ele>
        <time>2021-07-20T06:03:55.575Z</time>
      </trkpt>
      <trkpt lat="45.67496" lon="5.64873">
        <ele>300</ele>
        <time>2021-07-20T06:03:56.576Z</time>
      </trkpt>
      <trkpt lat="45.67502" lon="5.64878">
        <ele>300</ele>
        <time>2021-07-20T06:03:57.575Z</time>
      </trkpt>
      <trkpt lat="45.6751" lon="5.64885">
        <ele>300</ele>
        <time>2021-07-20T06:03:58.575Z</time>
      </trkpt>
      <trkpt lat="45.67518" lon="5.64891">
        <ele>300</ele>
        <time>2021-07-20T06:03:59.576Z</time>
      </trkpt>
      <trkpt lat="45.67524" lon="5.64896">
        <ele>300</ele>
        <time>2021-07-20T06:04:00.575Z</time>
      </trkpt>
      <trkpt lat="45.67531" lon="5.64901">
        <ele>299</ele>
        <time>2021-07-20T06:04:01.575Z</time>
      </trkpt>
      <trkpt lat="45.67537" lon="5.64906">
        <ele>299</ele>
        <time>2021-07-20T06:04:02.575Z</time>
      </trkpt>
      <trkpt lat="45.67545" lon="5.64913">
        <ele>298</ele>
        <time>2021-07-20T06:04:03.575Z</time>
      </trkpt>
      <trkpt lat="45.67552" lon="5.64918">
        <ele>298</ele>
        <time>2021-07-20T06:04:04.575Z</time>
      </trkpt>
      <trkpt lat="45.67558" lon="5.64924">
        <ele>298</ele>
        <time>2021-07-20T06:04:05.575Z</time>
      </trkpt>
      <trkpt lat="45.67565" lon="5.64929">
        <ele>297</ele>
        <time>2021-07-20T06:04:06.575Z</time>
      </trkpt>
      <trkpt lat="45.67572" lon="5.64935">
        <ele>297</ele>
        <time>2021-07-20T06:04:07.575Z</time>
      </trkpt>
      <trkpt lat="45.67578" lon="5.6494">
        <ele>296</ele>
        <time>2021-07-20T06:04:08.576Z</time>
      </trkpt>
      <trkpt lat="45.67585" lon="5.64945">
        <ele>296</ele>
        <time>2021-07-20T06:04:09.576Z</time>
      </trkpt>
      <trkpt lat="45.67592" lon="5.64951">
        <ele>296</ele>
        <time>2021-07-20T06:04:10.576Z</time>
      </trkpt>
      <trkpt lat="45.67597" lon="5.64955">
        <ele>295</ele>
        <time>2021-07-20T06:04:11.575Z</time>
      </trkpt>
      <trkpt lat="45.67605" lon="5.64961">
        <ele>295</ele>
        <time>2021-07-20T06:04:12.575Z</time>
      </trkpt>
      <trkpt lat="45.67611" lon="5.64967">
        <ele>295</ele>
        <time>2021-07-20T06:04:13.575Z</time>
      </trkpt>
      <trkpt lat="45.67618" lon="5.64972">
        <ele>295</ele>
        <time>2021-07-20T06:04:14.575Z</time>
      </trkpt>
      <trkpt lat="45.67624" lon="5.64977">
        <ele>295</ele>
        <time>2021-07-20T06:04:15.575Z</time>
      </trkpt>
      <trkpt lat="45.67631" lon="5.64983">
        <ele>294</ele>
        <time>2021-07-20T06:04:16.575Z</time>
      </trkpt>
      <trkpt lat="45.67637" lon="5.64988">
        <ele>294</ele>
        <time>2021-07-20T06:04:17.575Z</time>
      </trkpt>
      <trkpt lat="45.67644" lon="5.64993">
        <ele>294</ele>
        <time>2021-07-20T06:04:18.576Z</time>
      </trkpt>
      <trkpt lat="45.6765" lon="5.64998">
        <ele>294</ele>
        <time>2021-07-20T06:04:19.575Z</time>
      </trkpt>
      <trkpt lat="45.67655" lon="5.65002">
        <ele>295</ele>
        <time>2021-07-20T06:04:20.575Z</time>
      </trkpt>
      <trkpt lat="45.67663" lon="5.65007">
        <ele>295</ele>
        <time>2021-07-20T06:04:21.575Z</time>
      </trkpt>
      <trkpt lat="45.67669" lon="5.65012">
        <ele>295</ele>
        <time>2021-07-20T06:04:22.575Z</time>
      </trkpt>
      <trkpt lat="45.67675" lon="5.65016">
        <ele>295</ele>
        <time>2021-07-20T06:04:23.576Z</time>
      </trkpt>
      <trkpt lat="45.67681" lon="5.65021">
        <ele>295</ele>
        <time>2021-07-20T06:04:24.575Z</time>
      </trkpt>
      <trkpt lat="45.67687" lon="5.65024">
        <ele>296</ele>
        <time>2021-07-20T06:04:25.575Z</time>
      </trkpt>
      <trkpt lat="45.67694" lon="5.65029">
        <ele>296</ele>
        <time>2021-07-20T06:04:26.576Z</time>
      </trkpt>
      <trkpt lat="45.67701" lon="5.65033">
        <ele>297</ele>
        <time>2021-07-20T06:04:27.575Z</time>
      </trkpt>
      <trkpt lat="45.67708" lon="5.65037">
        <ele>297</ele>
        <time>2021-07-20T06:04:28.575Z</time>
      </trkpt>
      <trkpt lat="45.67714" lon="5.65041">
        <ele>297</ele>
        <time>2021-07-20T06:04:29.575Z</time>
      </trkpt>
      <trkpt lat="45.67721" lon="5.65045">
        <ele>297</ele>
        <time>2021-07-20T06:04:30.575Z</time>
      </trkpt>
      <trkpt lat="45.67727" lon="5.65048">
        <ele>297</ele>
        <time>2021-07-20T06:04:31.575Z</time>
      </trkpt>
      <trkpt lat="45.67734" lon="5.65052">
        <ele>297</ele>
        <time>2021-07-20T06:04:32.575Z</time>
      </trkpt>
      <trkpt lat="45.6774" lon="5.65056">
        <ele>297</ele>
        <time>2021-07-20T06:04:33.575Z</time>
      </trkpt>
      <trkpt lat="45.67746" lon="5.65058">
        <ele>297</ele>
        <time>2021-07-20T06:04:34.575Z</time>
      </trkpt>
      <trkpt lat="45.67754" lon="5.65063">
        <ele>297</ele>
        <time>2021-07-20T06:04:35.576Z</time>
      </trkpt>
      <trkpt lat="45.6776" lon="5.65067">
        <ele>297</ele>
        <time>2021-07-20T06:04:36.575Z</time>
      </trkpt>
      <trkpt lat="45.67767" lon="5.65071">
        <ele>297</ele>
        <time>2021-07-20T06:04:37.576Z</time>
      </trkpt>
      <trkpt lat="45.67774" lon="5.65075">
        <ele>297</ele>
        <time>2021-07-20T06:04:38.575Z</time>
      </trkpt>
      <trkpt lat="45.67779" lon="5.65079">
        <ele>297</ele>
        <time>2021-07-20T06:04:39.575Z</time>
      </trkpt>
      <trkpt lat="45.67786" lon="5.65083">
        <ele>297</ele>
        <time>2021-07-20T06:04:40.575Z</time>
      </trkpt>
      <trkpt lat="45.67794" lon="5.65088">
        <ele>297</ele>
        <time>2021-07-20T06:04:41.575Z</time>
      </trkpt>
      <trkpt lat="45.678" lon="5.65092">
        <ele>297</ele>
        <time>2021-07-20T06:04:42.575Z</time>
      </trkpt>
      <trkpt lat="45.67807" lon="5.65096">
        <ele>297</ele>
        <time>2021-07-20T06:04:43.575Z</time>
      </trkpt>
      <trkpt lat="45.67815" lon="5.651">
        <ele>297</ele>
        <time>2021-07-20T06:04:44.575Z</time>
      </trkpt>
      <trkpt lat="45.67821" lon="5.65104">
        <ele>297</ele>
        <time>2021-07-20T06:04:45.575Z</time>
      </trkpt>
      <trkpt lat="45.67829" lon="5.65108">
        <ele>297</ele>
        <time>2021-07-20T06:04:46.576Z</time>
      </trkpt>
      <trkpt lat="45.67836" lon="5.65112">
        <ele>297</ele>
        <time>2021-07-20T06:04:47.575Z</time>
      </trkpt>
      <trkpt lat="45.67843" lon="5.65117">
        <ele>298</ele>
        <time>2021-07-20T06:04:48.575Z</time>
      </trkpt>
      <trkpt lat="45.6785" lon="5.65121">
        <ele>298</ele>
        <time>2021-07-20T06:04:49.575Z</time>
      </trkpt>
      <trkpt lat="45.67857" lon="5.65125">
        <ele>298</ele>
        <time>2021-07-20T06:04:50.576Z</time>
      </trkpt>
      <trkpt lat="45.67865" lon="5.65129">
        <ele>297</ele>
        <time>2021-07-20T06:04:51.576Z</time>
      </trkpt>
      <trkpt lat="45.67872" lon="5.65134">
        <ele>297</ele>
        <time>2021-07-20T06:04:52.576Z</time>
      </trkpt>
      <trkpt lat="45.6788" lon="5.65138">
        <ele>297</ele>
        <time>2021-07-20T06:04:53.576Z</time>
      </trkpt>
      <trkpt lat="45.67887" lon="5.65143">
        <ele>297</ele>
        <time>2021-07-20T06:04:54.575Z</time>
      </trkpt>
      <trkpt lat="45.67895" lon="5.65147">
        <ele>297</ele>
        <time>2021-07-20T06:04:55.575Z</time>
      </trkpt>
      <trkpt lat="45.67902" lon="5.65152">
        <ele>297</ele>
        <time>2021-07-20T06:04:56.576Z</time>
      </trkpt>
      <trkpt lat="45.6791" lon="5.65157">
        <ele>297</ele>
        <time>2021-07-20T06:04:57.575Z</time>
      </trkpt>
      <trkpt lat="45.67916" lon="5.65161">
        <ele>297</ele>
        <time>2021-07-20T06:04:58.575Z</time>
      </trkpt>
      <trkpt lat="45.67925" lon="5.65166">
        <ele>297</ele>
        <time>2021-07-20T06:04:59.575Z</time>
      </trkpt>
      <trkpt lat="45.67931" lon="5.6517">
        <ele>297</ele>
        <time>2021-07-20T06:05:00.575Z</time>
      </trkpt>
      <trkpt lat="45.67938" lon="5.65174">
        <ele>297</ele>
        <time>2021-07-20T06:05:01.575Z</time>
      </trkpt>
      <trkpt lat="45.67945" lon="5.65179">
        <ele>297</ele>
        <time>2021-07-20T06:05:02.575Z</time>
      </trkpt>
      <trkpt lat="45.67952" lon="5.65183">
        <ele>297</ele>
        <time>2021-07-20T06:05:03.575Z</time>
      </trkpt>
      <trkpt lat="45.67961" lon="5.65188">
        <ele>296</ele>
        <time>2021-07-20T06:05:04.576Z</time>
      </trkpt>
      <trkpt lat="45.67967" lon="5.65192">
        <ele>296</ele>
        <time>2021-07-20T06:05:05.576Z</time>
      </trkpt>
      <trkpt lat="45.67974" lon="5.65196">
        <ele>296</ele>
        <time>2021-07-20T06:05:06.576Z</time>
      </trkpt>
      <trkpt lat="45.6798" lon="5.652">
        <ele>297</ele>
        <time>2021-07-20T06:05:07.575Z</time>
      </trkpt>
      <trkpt lat="45.67987" lon="5.65204">
        <ele>297</ele>
        <time>2021-07-20T06:05:08.575Z</time>
      </trkpt>
      <trkpt lat="45.67995" lon="5.65209">
        <ele>297</ele>
        <time>2021-07-20T06:05:09.575Z</time>
      </trkpt>
      <trkpt lat="45.68004" lon="5.65214">
        <ele>298</ele>
        <time>2021-07-20T06:05:10.575Z</time>
      </trkpt>
      <trkpt lat="45.68009" lon="5.65218">
        <ele>298</ele>
        <time>2021-07-20T06:05:11.575Z</time>
      </trkpt>
      <trkpt lat="45.68016" lon="5.65222">
        <ele>298</ele>
        <time>2021-07-20T06:05:12.575Z</time>
      </trkpt>
      <trkpt lat="45.68024" lon="5.65226">
        <ele>299</ele>
        <time>2021-07-20T06:05:13.575Z</time>
      </trkpt>
      <trkpt lat="45.68031" lon="5.65231">
        <ele>299</ele>
        <time>2021-07-20T06:05:14.575Z</time>
      </trkpt>
      <trkpt lat="45.68038" lon="5.65235">
        <ele>299</ele>
        <time>2021-07-20T06:05:15.575Z</time>
      </trkpt>
      <trkpt lat="45.68045" lon="5.65239">
        <ele>299</ele>
        <time>2021-07-20T06:05:16.575Z</time>
      </trkpt>
      <trkpt lat="45.68052" lon="5.65244">
        <ele>299</ele>
        <time>2021-07-20T06:05:17.575Z</time>
      </trkpt>
      <trkpt lat="45.68059" lon="5.65248">
        <ele>300</ele>
        <time>2021-07-20T06:05:18.576Z</time>
      </trkpt>
      <trkpt lat="45.68066" lon="5.65252">
        <ele>300</ele>
        <time>2021-07-20T06:05:19.575Z</time>
      </trkpt>
      <trkpt lat="45.68074" lon="5.65257">
        <ele>300</ele>
        <time>2021-07-20T06:05:20.576Z</time>
      </trkpt>
      <trkpt lat="45.68081" lon="5.65261">
        <ele>300</ele>
        <time>2021-07-20T06:05:21.575Z</time>
      </trkpt>
      <trkpt lat="45.68088" lon="5.65265">
        <ele>300</ele>
        <time>2021-07-20T06:05:22.575Z</time>
      </trkpt>
      <trkpt lat="45.68095" lon="5.65269">
        <ele>300</ele>
        <time>2021-07-20T06:05:23.575Z</time>
      </trkpt>
      <trkpt lat="45.68102" lon="5.65273">
        <ele>300</ele>
        <time>2021-07-20T06:05:24.576Z</time>
      </trkpt>
      <trkpt lat="45.68109" lon="5.65277">
        <ele>300</ele>
        <time>2021-07-20T06:05:25.576Z</time>
      </trkpt>
      <trkpt lat="45.68116" lon="5.65282">
        <ele>300</ele>
        <time>2021-07-20T06:05:26.575Z</time>
      </trkpt>
      <trkpt lat="45.68123" lon="5.65286">
        <ele>300</ele>
        <time>2021-07-20T06:05:27.575Z</time>
      </trkpt>
      <trkpt lat="45.6813" lon="5.6529">
        <ele>301</ele>
        <time>2021-07-20T06:05:28.576Z</time>
      </trkpt>
      <trkpt lat="45.68137" lon="5.65295">
        <ele>301</ele>
        <time>2021-07-20T06:05:29.575Z</time>
      </trkpt>
      <trkpt lat="45.68144" lon="5.65299">
        <ele>302</ele>
        <time>2021-07-20T06:05:30.575Z</time>
      </trkpt>
      <trkpt lat="45.68151" lon="5.65303">
        <ele>302</ele>
        <time>2021-07-20T06:05:31.575Z</time>
      </trkpt>
      <trkpt lat="45.68158" lon="5.65307">
        <ele>302</ele>
        <time>2021-07-20T06:05:32.575Z</time>
      </trkpt>
      <trkpt lat="45.68165" lon="5.65311">
        <ele>302</ele>
        <time>2021-07-20T06:05:33.575Z</time>
      </trkpt>
      <trkpt lat="45.68172" lon="5.65315">
        <ele>302</ele>
        <time>2021-07-20T06:05:34.576Z</time>
      </trkpt>
      <trkpt lat="45.68179" lon="5.65319">
        <ele>301</ele>
        <time>2021-07-20T06:05:35.575Z</time>
      </trkpt>
      <trkpt lat="45.68186" lon="5.65324">
        <ele>301</ele>
        <time>2021-07-20T06:05:36.575Z</time>
      </trkpt>
      <trkpt lat="45.68192" lon="5.65328">
        <ele>301</ele>
        <time>2021-07-20T06:05:37.575Z</time>
      </trkpt>
      <trkpt lat="45.68199" lon="5.65332">
        <ele>301</ele>
        <time>2021-07-20T06:05:38.575Z</time>
      </trkpt>
      <trkpt lat="45.68207" lon="5.65337">
        <ele>301</ele>
        <time>2021-07-20T06:05:39.575Z</time>
      </trkpt>
      <trkpt lat="45.68214" lon="5.65341">
        <ele>301</ele>
        <time>2021-07-20T06:05:40.576Z</time>
      </trkpt>
      <trkpt lat="45.68221" lon="5.65345">
        <ele>302</ele>
        <time>2021-07-20T06:05:41.575Z</time>
      </trkpt>
      <trkpt lat="45.68228" lon="5.6535">
        <ele>303</ele>
        <time>2021-07-20T06:05:42.575Z</time>
      </trkpt>
      <trkpt lat="45.68235" lon="5.65354">
        <ele>303</ele>
        <time>2021-07-20T06:05:43.576Z</time>
      </trkpt>
      <trkpt lat="45.68242" lon="5.65358">
        <ele>303</ele>
        <time>2021-07-20T06:05:44.575Z</time>
      </trkpt>
      <trkpt lat="45.68248" lon="5.65362">
        <ele>304</ele>
        <time>2021-07-20T06:05:45.575Z</time>
      </trkpt>
      <trkpt lat="45.68255" lon="5.65366">
        <ele>304</ele>
        <time>2021-07-20T06:05:46.575Z</time>
      </trkpt>
      <trkpt lat="45.68263" lon="5.65371">
        <ele>304</ele>
        <time>2021-07-20T06:05:47.576Z</time>
      </trkpt>
      <trkpt lat="45.6827" lon="5.65375">
        <ele>303</ele>
        <time>2021-07-20T06:05:48.575Z</time>
      </trkpt>
      <trkpt lat="45.68276" lon="5.65379">
        <ele>303</ele>
        <time>2021-07-20T06:05:49.575Z</time>
      </trkpt>
      <trkpt lat="45.68283" lon="5.65383">
        <ele>302</ele>
        <time>2021-07-20T06:05:50.575Z</time>
      </trkpt>
      <trkpt lat="45.6829" lon="5.65387">
        <ele>302</ele>
        <time>2021-07-20T06:05:51.575Z</time>
      </trkpt>
      <trkpt lat="45.68297" lon="5.65391">
        <ele>301</ele>
        <time>2021-07-20T06:05:52.576Z</time>
      </trkpt>
      <trkpt lat="45.68304" lon="5.65395">
        <ele>300</ele>
        <time>2021-07-20T06:05:53.575Z</time>
      </trkpt>
      <trkpt lat="45.68311" lon="5.65399">
        <ele>300</ele>
        <time>2021-07-20T06:05:54.575Z</time>
      </trkpt>
      <trkpt lat="45.68318" lon="5.65403">
        <ele>299</ele>
        <time>2021-07-20T06:05:55.575Z</time>
      </trkpt>
      <trkpt lat="45.68325" lon="5.65407">
        <ele>299</ele>
        <time>2021-07-20T06:05:56.576Z</time>
      </trkpt>
      <trkpt lat="45.68332" lon="5.65411">
        <ele>299</ele>
        <time>2021-07-20T06:05:57.575Z</time>
      </trkpt>
      <trkpt lat="45.68339" lon="5.65414">
        <ele>299</ele>
        <time>2021-07-20T06:05:58.575Z</time>
      </trkpt>
      <trkpt lat="45.68346" lon="5.65418">
        <ele>299</ele>
        <time>2021-07-20T06:05:59.575Z</time>
      </trkpt>
      <trkpt lat="45.68353" lon="5.6542">
        <ele>299</ele>
        <time>2021-07-20T06:06:00.575Z</time>
      </trkpt>
      <trkpt lat="45.68361" lon="5.65423">
        <ele>299</ele>
        <time>2021-07-20T06:06:01.576Z</time>
      </trkpt>
      <trkpt lat="45.68368" lon="5.65425">
        <ele>300</ele>
        <time>2021-07-20T06:06:02.575Z</time>
      </trkpt>
      <trkpt lat="45.68375" lon="5.65427">
        <ele>300</ele>
        <time>2021-07-20T06:06:03.576Z</time>
      </trkpt>
      <trkpt lat="45.68383" lon="5.65429">
        <ele>300</ele>
        <time>2021-07-20T06:06:04.576Z</time>
      </trkpt>
      <trkpt lat="45.6839" lon="5.65431">
        <ele>301</ele>
        <time>2021-07-20T06:06:05.576Z</time>
      </trkpt>
      <trkpt lat="45.68397" lon="5.65432">
        <ele>301</ele>
        <time>2021-07-20T06:06:06.575Z</time>
      </trkpt>
      <trkpt lat="45.68405" lon="5.65434">
        <ele>301</ele>
        <time>2021-07-20T06:06:07.575Z</time>
      </trkpt>
      <trkpt lat="45.68412" lon="5.65435">
        <ele>301</ele>
        <time>2021-07-20T06:06:08.575Z</time>
      </trkpt>
      <trkpt lat="45.6842" lon="5.65435">
        <ele>301</ele>
        <time>2021-07-20T06:06:09.576Z</time>
      </trkpt>
      <trkpt lat="45.68427" lon="5.65436">
        <ele>301</ele>
        <time>2021-07-20T06:06:10.575Z</time>
      </trkpt>
      <trkpt lat="45.68435" lon="5.65437">
        <ele>301</ele>
        <time>2021-07-20T06:06:11.576Z</time>
      </trkpt>
      <trkpt lat="45.68442" lon="5.65437">
        <ele>301</ele>
        <time>2021-07-20T06:06:12.576Z</time>
      </trkpt>
      <trkpt lat="45.6845" lon="5.65438">
        <ele>301</ele>
        <time>2021-07-20T06:06:13.575Z</time>
      </trkpt>
      <trkpt lat="45.68458" lon="5.65438">
        <ele>302</ele>
        <time>2021-07-20T06:06:14.576Z</time>
      </trkpt>
      <trkpt lat="45.68466" lon="5.65439">
        <ele>302</ele>
        <time>2021-07-20T06:06:15.575Z</time>
      </trkpt>
      <trkpt lat="45.68473" lon="5.65439">
        <ele>302</ele>
        <time>2021-07-20T06:06:16.575Z</time>
      </trkpt>
      <trkpt lat="45.68481" lon="5.6544">
        <ele>302</ele>
        <time>2021-07-20T06:06:17.575Z</time>
      </trkpt>
      <trkpt lat="45.68488" lon="5.65441">
        <ele>303</ele>
        <time>2021-07-20T06:06:18.575Z</time>
      </trkpt>
      <trkpt lat="45.68496" lon="5.65443">
        <ele>303</ele>
        <time>2021-07-20T06:06:19.576Z</time>
      </trkpt>
      <trkpt lat="45.68503" lon="5.65444">
        <ele>303</ele>
        <time>2021-07-20T06:06:20.575Z</time>
      </trkpt>
      <trkpt lat="45.68511" lon="5.65445">
        <ele>303</ele>
        <time>2021-07-20T06:06:21.575Z</time>
      </trkpt>
      <trkpt lat="45.68518" lon="5.65445">
        <ele>303</ele>
        <time>2021-07-20T06:06:22.575Z</time>
      </trkpt>
      <trkpt lat="45.68526" lon="5.65446">
        <ele>302</ele>
        <time>2021-07-20T06:06:23.576Z</time>
      </trkpt>
      <trkpt lat="45.68533" lon="5.65447">
        <ele>302</ele>
        <time>2021-07-20T06:06:24.575Z</time>
      </trkpt>
      <trkpt lat="45.68541" lon="5.65448">
        <ele>303</ele>
        <time>2021-07-20T06:06:25.576Z</time>
      </trkpt>
      <trkpt lat="45.68548" lon="5.65448">
        <ele>303</ele>
        <time>2021-07-20T06:06:26.576Z</time>
      </trkpt>
      <trkpt lat="45.68555" lon="5.65449">
        <ele>303</ele>
        <time>2021-07-20T06:06:27.575Z</time>
      </trkpt>
      <trkpt lat="45.68563" lon="5.6545">
        <ele>303</ele>
        <time>2021-07-20T06:06:28.575Z</time>
      </trkpt>
      <trkpt lat="45.6857" lon="5.65451">
        <ele>303</ele>
        <time>2021-07-20T06:06:29.575Z</time>
      </trkpt>
      <trkpt lat="45.68577" lon="5.65452">
        <ele>302</ele>
        <time>2021-07-20T06:06:30.575Z</time>
      </trkpt>
      <trkpt lat="45.68584" lon="5.65452">
        <ele>302</ele>
        <time>2021-07-20T06:06:31.575Z</time>
      </trkpt>
      <trkpt lat="45.68592" lon="5.65453">
        <ele>303</ele>
        <time>2021-07-20T06:06:32.576Z</time>
      </trkpt>
      <trkpt lat="45.68599" lon="5.65454">
        <ele>303</ele>
        <time>2021-07-20T06:06:33.575Z</time>
      </trkpt>
      <trkpt lat="45.68606" lon="5.65455">
        <ele>303</ele>
        <time>2021-07-20T06:06:34.576Z</time>
      </trkpt>
      <trkpt lat="45.68613" lon="5.65456">
        <ele>303</ele>
        <time>2021-07-20T06:06:35.575Z</time>
      </trkpt>
      <trkpt lat="45.6862" lon="5.65456">
        <ele>303</ele>
        <time>2021-07-20T06:06:36.575Z</time>
      </trkpt>
      <trkpt lat="45.68627" lon="5.65457">
        <ele>303</ele>
        <time>2021-07-20T06:06:37.576Z</time>
      </trkpt>
      <trkpt lat="45.68634" lon="5.65458">
        <ele>303</ele>
        <time>2021-07-20T06:06:38.576Z</time>
      </trkpt>
      <trkpt lat="45.68641" lon="5.65458">
        <ele>303</ele>
        <time>2021-07-20T06:06:39.576Z</time>
      </trkpt>
      <trkpt lat="45.68648" lon="5.65459">
        <ele>303</ele>
        <time>2021-07-20T06:06:40.576Z</time>
      </trkpt>
      <trkpt lat="45.68655" lon="5.6546">
        <ele>303</ele>
        <time>2021-07-20T06:06:41.576Z</time>
      </trkpt>
      <trkpt lat="45.68662" lon="5.65461">
        <ele>303</ele>
        <time>2021-07-20T06:06:42.576Z</time>
      </trkpt>
      <trkpt lat="45.68669" lon="5.65461">
        <ele>303</ele>
        <time>2021-07-20T06:06:43.575Z</time>
      </trkpt>
      <trkpt lat="45.68675" lon="5.65462">
        <ele>303</ele>
        <time>2021-07-20T06:06:44.576Z</time>
      </trkpt>
      <trkpt lat="45.68684" lon="5.65463">
        <ele>303</ele>
        <time>2021-07-20T06:06:45.576Z</time>
      </trkpt>
      <trkpt lat="45.68691" lon="5.65464">
        <ele>303</ele>
        <time>2021-07-20T06:06:46.575Z</time>
      </trkpt>
      <trkpt lat="45.68698" lon="5.65465">
        <ele>303</ele>
        <time>2021-07-20T06:06:47.575Z</time>
      </trkpt>
      <trkpt lat="45.68705" lon="5.65465">
        <ele>303</ele>
        <time>2021-07-20T06:06:48.575Z</time>
      </trkpt>
      <trkpt lat="45.68711" lon="5.65466">
        <ele>303</ele>
        <time>2021-07-20T06:06:49.575Z</time>
      </trkpt>
      <trkpt lat="45.68717" lon="5.65467">
        <ele>303</ele>
        <time>2021-07-20T06:06:50.575Z</time>
      </trkpt>
      <trkpt lat="45.68726" lon="5.65468">
        <ele>303</ele>
        <time>2021-07-20T06:06:51.576Z</time>
      </trkpt>
      <trkpt lat="45.68732" lon="5.65469">
        <ele>303</ele>
        <time>2021-07-20T06:06:52.575Z</time>
      </trkpt>
      <trkpt lat="45.68739" lon="5.6547">
        <ele>303</ele>
        <time>2021-07-20T06:06:53.575Z</time>
      </trkpt>
      <trkpt lat="45.68744" lon="5.6547">
        <ele>303</ele>
        <time>2021-07-20T06:06:54.575Z</time>
      </trkpt>
      <trkpt lat="45.68751" lon="5.65471">
        <ele>303</ele>
        <time>2021-07-20T06:06:55.576Z</time>
      </trkpt>
      <trkpt lat="45.68759" lon="5.65472">
        <ele>303</ele>
        <time>2021-07-20T06:06:56.575Z</time>
      </trkpt>
      <trkpt lat="45.68765" lon="5.65473">
        <ele>303</ele>
        <time>2021-07-20T06:06:57.575Z</time>
      </trkpt>
      <trkpt lat="45.68772" lon="5.65473">
        <ele>303</ele>
        <time>2021-07-20T06:06:58.575Z</time>
      </trkpt>
      <trkpt lat="45.68777" lon="5.65473">
        <ele>303</ele>
        <time>2021-07-20T06:06:59.576Z</time>
      </trkpt>
      <trkpt lat="45.68785" lon="5.65472">
        <ele>303</ele>
        <time>2021-07-20T06:07:00.575Z</time>
      </trkpt>
      <trkpt lat="45.68792" lon="5.65472">
        <ele>303</ele>
        <time>2021-07-20T06:07:01.575Z</time>
      </trkpt>
      <trkpt lat="45.68798" lon="5.65472">
        <ele>303</ele>
        <time>2021-07-20T06:07:02.575Z</time>
      </trkpt>
      <trkpt lat="45.68805" lon="5.65471">
        <ele>303</ele>
        <time>2021-07-20T06:07:03.576Z</time>
      </trkpt>
      <trkpt lat="45.6881" lon="5.65471">
        <ele>303</ele>
        <time>2021-07-20T06:07:04.575Z</time>
      </trkpt>
      <trkpt lat="45.68818" lon="5.6547">
        <ele>303</ele>
        <time>2021-07-20T06:07:05.575Z</time>
      </trkpt>
      <trkpt lat="45.68824" lon="5.65469">
        <ele>303</ele>
        <time>2021-07-20T06:07:06.575Z</time>
      </trkpt>
      <trkpt lat="45.6883" lon="5.65468">
        <ele>303</ele>
        <time>2021-07-20T06:07:07.575Z</time>
      </trkpt>
      <trkpt lat="45.68836" lon="5.65467">
        <ele>303</ele>
        <time>2021-07-20T06:07:08.575Z</time>
      </trkpt>
      <trkpt lat="45.68844" lon="5.65465">
        <ele>303</ele>
        <time>2021-07-20T06:07:09.575Z</time>
      </trkpt>
      <trkpt lat="45.68851" lon="5.65464">
        <ele>304</ele>
        <time>2021-07-20T06:07:10.575Z</time>
      </trkpt>
      <trkpt lat="45.68858" lon="5.65462">
        <ele>304</ele>
        <time>2021-07-20T06:07:11.575Z</time>
      </trkpt>
      <trkpt lat="45.68865" lon="5.65461">
        <ele>304</ele>
        <time>2021-07-20T06:07:12.575Z</time>
      </trkpt>
      <trkpt lat="45.68871" lon="5.6546">
        <ele>304</ele>
        <time>2021-07-20T06:07:13.575Z</time>
      </trkpt>
      <trkpt lat="45.68879" lon="5.65458">
        <ele>304</ele>
        <time>2021-07-20T06:07:14.575Z</time>
      </trkpt>
      <trkpt lat="45.68886" lon="5.65457">
        <ele>304</ele>
        <time>2021-07-20T06:07:15.575Z</time>
      </trkpt>
      <trkpt lat="45.68893" lon="5.65456">
        <ele>305</ele>
        <time>2021-07-20T06:07:16.575Z</time>
      </trkpt>
      <trkpt lat="45.689" lon="5.65454">
        <ele>305</ele>
        <time>2021-07-20T06:07:17.576Z</time>
      </trkpt>
      <trkpt lat="45.68907" lon="5.65453">
        <ele>305</ele>
        <time>2021-07-20T06:07:18.576Z</time>
      </trkpt>
      <trkpt lat="45.68914" lon="5.65451">
        <ele>306</ele>
        <time>2021-07-20T06:07:19.575Z</time>
      </trkpt>
      <trkpt lat="45.68921" lon="5.6545">
        <ele>306</ele>
        <time>2021-07-20T06:07:20.575Z</time>
      </trkpt>
      <trkpt lat="45.68928" lon="5.65449">
        <ele>306</ele>
        <time>2021-07-20T06:07:21.575Z</time>
      </trkpt>
      <trkpt lat="45.68936" lon="5.65448">
        <ele>305</ele>
        <time>2021-07-20T06:07:22.576Z</time>
      </trkpt>
      <trkpt lat="45.68943" lon="5.65446">
        <ele>305</ele>
        <time>2021-07-20T06:07:23.575Z</time>
      </trkpt>
      <trkpt lat="45.6895" lon="5.65445">
        <ele>305</ele>
        <time>2021-07-20T06:07:24.575Z</time>
      </trkpt>
      <trkpt lat="45.68957" lon="5.65443">
        <ele>305</ele>
        <time>2021-07-20T06:07:25.575Z</time>
      </trkpt>
      <trkpt lat="45.68965" lon="5.65442">
        <ele>305</ele>
        <time>2021-07-20T06:07:26.575Z</time>
      </trkpt>
      <trkpt lat="45.68972" lon="5.65441">
        <ele>305</ele>
        <time>2021-07-20T06:07:27.575Z</time>
      </trkpt>
      <trkpt lat="45.6898" lon="5.65439">
        <ele>304</ele>
        <time>2021-07-20T06:07:28.575Z</time>
      </trkpt>
      <trkpt lat="45.68987" lon="5.65438">
        <ele>304</ele>
        <time>2021-07-20T06:07:29.575Z</time>
      </trkpt>
      <trkpt lat="45.68994" lon="5.65436">
        <ele>304</ele>
        <time>2021-07-20T06:07:30.575Z</time>
      </trkpt>
      <trkpt lat="45.69001" lon="5.65434">
        <ele>305</ele>
        <time>2021-07-20T06:07:31.575Z</time>
      </trkpt>
      <trkpt lat="45.69006" lon="5.65433">
        <ele>305</ele>
        <time>2021-07-20T06:07:32.576Z</time>
      </trkpt>
      <trkpt lat="45.69015" lon="5.65432">
        <ele>305</ele>
        <time>2021-07-20T06:07:33.575Z</time>
      </trkpt>
      <trkpt lat="45.69022" lon="5.6543">
        <ele>305</ele>
        <time>2021-07-20T06:07:34.575Z</time>
      </trkpt>
      <trkpt lat="45.69029" lon="5.65429">
        <ele>305</ele>
        <time>2021-07-20T06:07:35.576Z</time>
      </trkpt>
      <trkpt lat="45.69035" lon="5.65427">
        <ele>305</ele>
        <time>2021-07-20T06:07:36.575Z</time>
      </trkpt>
      <trkpt lat="45.69041" lon="5.65426">
        <ele>306</ele>
        <time>2021-07-20T06:07:37.575Z</time>
      </trkpt>
      <trkpt lat="45.69049" lon="5.65424">
        <ele>306</ele>
        <time>2021-07-20T06:07:38.576Z</time>
      </trkpt>
      <trkpt lat="45.69056" lon="5.65423">
        <ele>306</ele>
        <time>2021-07-20T06:07:39.576Z</time>
      </trkpt>
      <trkpt lat="45.69063" lon="5.65421">
        <ele>306</ele>
        <time>2021-07-20T06:07:40.575Z</time>
      </trkpt>
      <trkpt lat="45.6907" lon="5.6542">
        <ele>306</ele>
        <time>2021-07-20T06:07:41.575Z</time>
      </trkpt>
      <trkpt lat="45.69076" lon="5.65419">
        <ele>306</ele>
        <time>2021-07-20T06:07:42.575Z</time>
      </trkpt>
      <trkpt lat="45.69084" lon="5.65418">
        <ele>306</ele>
        <time>2021-07-20T06:07:43.576Z</time>
      </trkpt>
      <trkpt lat="45.69091" lon="5.65417">
        <ele>306</ele>
        <time>2021-07-20T06:07:44.575Z</time>
      </trkpt>
      <trkpt lat="45.69098" lon="5.65417">
        <ele>306</ele>
        <time>2021-07-20T06:07:45.575Z</time>
      </trkpt>
      <trkpt lat="45.69105" lon="5.65416">
        <ele>306</ele>
        <time>2021-07-20T06:07:46.575Z</time>
      </trkpt>
      <trkpt lat="45.69113" lon="5.65415">
        <ele>306</ele>
        <time>2021-07-20T06:07:47.575Z</time>
      </trkpt>
      <trkpt lat="45.6912" lon="5.65413">
        <ele>306</ele>
        <time>2021-07-20T06:07:48.576Z</time>
      </trkpt>
      <trkpt lat="45.69127" lon="5.65412">
        <ele>307</ele>
        <time>2021-07-20T06:07:49.575Z</time>
      </trkpt>
      <trkpt lat="45.69134" lon="5.65411">
        <ele>307</ele>
        <time>2021-07-20T06:07:50.575Z</time>
      </trkpt>
      <trkpt lat="45.6914" lon="5.6541">
        <ele>308</ele>
        <time>2021-07-20T06:07:51.575Z</time>
      </trkpt>
      <trkpt lat="45.69148" lon="5.65409">
        <ele>308</ele>
        <time>2021-07-20T06:07:52.575Z</time>
      </trkpt>
      <trkpt lat="45.69156" lon="5.65408">
        <ele>309</ele>
        <time>2021-07-20T06:07:53.575Z</time>
      </trkpt>
      <trkpt lat="45.69163" lon="5.65407">
        <ele>309</ele>
        <time>2021-07-20T06:07:54.576Z</time>
      </trkpt>
      <trkpt lat="45.6917" lon="5.65406">
        <ele>309</ele>
        <time>2021-07-20T06:07:55.576Z</time>
      </trkpt>
      <trkpt lat="45.69176" lon="5.65405">
        <ele>309</ele>
        <time>2021-07-20T06:07:56.576Z</time>
      </trkpt>
      <trkpt lat="45.69184" lon="5.65404">
        <ele>309</ele>
        <time>2021-07-20T06:07:57.575Z</time>
      </trkpt>
      <trkpt lat="45.69192" lon="5.65403">
        <ele>309</ele>
        <time>2021-07-20T06:07:58.575Z</time>
      </trkpt>
      <trkpt lat="45.69199" lon="5.65402">
        <ele>309</ele>
        <time>2021-07-20T06:07:59.575Z</time>
      </trkpt>
      <trkpt lat="45.69205" lon="5.65401">
        <ele>309</ele>
        <time>2021-07-20T06:08:00.576Z</time>
      </trkpt>
      <trkpt lat="45.69212" lon="5.65399">
        <ele>309</ele>
        <time>2021-07-20T06:08:01.575Z</time>
      </trkpt>
      <trkpt lat="45.69221" lon="5.65398">
        <ele>309</ele>
        <time>2021-07-20T06:08:02.575Z</time>
      </trkpt>
      <trkpt lat="45.69228" lon="5.65396">
        <ele>309</ele>
        <time>2021-07-20T06:08:03.575Z</time>
      </trkpt>
      <trkpt lat="45.69235" lon="5.65394">
        <ele>309</ele>
        <time>2021-07-20T06:08:04.575Z</time>
      </trkpt>
      <trkpt lat="45.69243" lon="5.65392">
        <ele>309</ele>
        <time>2021-07-20T06:08:05.575Z</time>
      </trkpt>
      <trkpt lat="45.6925" lon="5.6539">
        <ele>309</ele>
        <time>2021-07-20T06:08:06.575Z</time>
      </trkpt>
      <trkpt lat="45.69257" lon="5.65387">
        <ele>309</ele>
        <time>2021-07-20T06:08:07.576Z</time>
      </trkpt>
      <trkpt lat="45.69264" lon="5.65384">
        <ele>309</ele>
        <time>2021-07-20T06:08:08.575Z</time>
      </trkpt>
      <trkpt lat="45.69272" lon="5.6538">
        <ele>309</ele>
        <time>2021-07-20T06:08:09.575Z</time>
      </trkpt>
      <trkpt lat="45.69279" lon="5.65377">
        <ele>309</ele>
        <time>2021-07-20T06:08:10.575Z</time>
      </trkpt>
      <trkpt lat="45.69286" lon="5.65373">
        <ele>309</ele>
        <time>2021-07-20T06:08:11.575Z</time>
      </trkpt>
      <trkpt lat="45.69293" lon="5.6537">
        <ele>309</ele>
        <time>2021-07-20T06:08:12.575Z</time>
      </trkpt>
      <trkpt lat="45.693" lon="5.65366">
        <ele>309</ele>
        <time>2021-07-20T06:08:13.576Z</time>
      </trkpt>
      <trkpt lat="45.69306" lon="5.65363">
        <ele>309</ele>
        <time>2021-07-20T06:08:14.575Z</time>
      </trkpt>
      <trkpt lat="45.69314" lon="5.65359">
        <ele>309</ele>
        <time>2021-07-20T06:08:15.576Z</time>
      </trkpt>
      <trkpt lat="45.69321" lon="5.65355">
        <ele>309</ele>
        <time>2021-07-20T06:08:16.575Z</time>
      </trkpt>
      <trkpt lat="45.69328" lon="5.65351">
        <ele>309</ele>
        <time>2021-07-20T06:08:17.575Z</time>
      </trkpt>
      <trkpt lat="45.69335" lon="5.65348">
        <ele>309</ele>
        <time>2021-07-20T06:08:18.575Z</time>
      </trkpt>
      <trkpt lat="45.69342" lon="5.65344">
        <ele>308</ele>
        <time>2021-07-20T06:08:19.576Z</time>
      </trkpt>
      <trkpt lat="45.69348" lon="5.65341">
        <ele>308</ele>
        <time>2021-07-20T06:08:20.576Z</time>
      </trkpt>
      <trkpt lat="45.69356" lon="5.65337">
        <ele>308</ele>
        <time>2021-07-20T06:08:21.575Z</time>
      </trkpt>
      <trkpt lat="45.69362" lon="5.65333">
        <ele>308</ele>
        <time>2021-07-20T06:08:22.575Z</time>
      </trkpt>
      <trkpt lat="45.69368" lon="5.6533">
        <ele>308</ele>
        <time>2021-07-20T06:08:23.575Z</time>
      </trkpt>
      <trkpt lat="45.69374" lon="5.65327">
        <ele>308</ele>
        <time>2021-07-20T06:08:24.575Z</time>
      </trkpt>
      <trkpt lat="45.69382" lon="5.65323">
        <ele>308</ele>
        <time>2021-07-20T06:08:25.575Z</time>
      </trkpt>
      <trkpt lat="45.69389" lon="5.6532">
        <ele>308</ele>
        <time>2021-07-20T06:08:26.575Z</time>
      </trkpt>
      <trkpt lat="45.69396" lon="5.65316">
        <ele>307</ele>
        <time>2021-07-20T06:08:27.576Z</time>
      </trkpt>
      <trkpt lat="45.69401" lon="5.65313">
        <ele>307</ele>
        <time>2021-07-20T06:08:28.575Z</time>
      </trkpt>
      <trkpt lat="45.69407" lon="5.65309">
        <ele>307</ele>
        <time>2021-07-20T06:08:29.575Z</time>
      </trkpt>
      <trkpt lat="45.69415" lon="5.65305">
        <ele>307</ele>
        <time>2021-07-20T06:08:30.575Z</time>
      </trkpt>
      <trkpt lat="45.6942" lon="5.65303">
        <ele>306</ele>
        <time>2021-07-20T06:08:31.575Z</time>
      </trkpt>
      <trkpt lat="45.69427" lon="5.65299">
        <ele>306</ele>
        <time>2021-07-20T06:08:32.575Z</time>
      </trkpt>
      <trkpt lat="45.69434" lon="5.65296">
        <ele>306</ele>
        <time>2021-07-20T06:08:33.576Z</time>
      </trkpt>
      <trkpt lat="45.69441" lon="5.65291">
        <ele>306</ele>
        <time>2021-07-20T06:08:34.576Z</time>
      </trkpt>
      <trkpt lat="45.69448" lon="5.65288">
        <ele>306</ele>
        <time>2021-07-20T06:08:35.575Z</time>
      </trkpt>
      <trkpt lat="45.69455" lon="5.65285">
        <ele>306</ele>
        <time>2021-07-20T06:08:36.576Z</time>
      </trkpt>
      <trkpt lat="45.69461" lon="5.65281">
        <ele>306</ele>
        <time>2021-07-20T06:08:37.576Z</time>
      </trkpt>
      <trkpt lat="45.69466" lon="5.65278">
        <ele>306</ele>
        <time>2021-07-20T06:08:38.575Z</time>
      </trkpt>
      <trkpt lat="45.69474" lon="5.65274">
        <ele>306</ele>
        <time>2021-07-20T06:08:39.575Z</time>
      </trkpt>
      <trkpt lat="45.6948" lon="5.6527">
        <ele>307</ele>
        <time>2021-07-20T06:08:40.576Z</time>
      </trkpt>
      <trkpt lat="45.69486" lon="5.65266">
        <ele>308</ele>
        <time>2021-07-20T06:08:41.576Z</time>
      </trkpt>
      <trkpt lat="45.69492" lon="5.65263">
        <ele>308</ele>
        <time>2021-07-20T06:08:42.575Z</time>
      </trkpt>
      <trkpt lat="45.69498" lon="5.65259">
        <ele>308</ele>
        <time>2021-07-20T06:08:43.575Z</time>
      </trkpt>
      <trkpt lat="45.69504" lon="5.65255">
        <ele>308</ele>
        <time>2021-07-20T06:08:44.576Z</time>
      </trkpt>
      <trkpt lat="45.6951" lon="5.65251">
        <ele>307</ele>
        <time>2021-07-20T06:08:45.575Z</time>
      </trkpt>
      <trkpt lat="45.69516" lon="5.65247">
        <ele>307</ele>
        <time>2021-07-20T06:08:46.576Z</time>
      </trkpt>
      <trkpt lat="45.69523" lon="5.65243">
        <ele>307</ele>
        <time>2021-07-20T06:08:47.575Z</time>
      </trkpt>
      <trkpt lat="45.69529" lon="5.65238">
        <ele>307</ele>
        <time>2021-07-20T06:08:48.575Z</time>
      </trkpt>
      <trkpt lat="45.69535" lon="5.65233">
        <ele>307</ele>
        <time>2021-07-20T06:08:49.576Z</time>
      </trkpt>
      <trkpt lat="45.69541" lon="5.65227">
        <ele>308</ele>
        <time>2021-07-20T06:08:50.576Z</time>
      </trkpt>
      <trkpt lat="45.69547" lon="5.65222">
        <ele>308</ele>
        <time>2021-07-20T06:08:51.575Z</time>
      </trkpt>
      <trkpt lat="45.69553" lon="5.65217">
        <ele>308</ele>
        <time>2021-07-20T06:08:52.576Z</time>
      </trkpt>
      <trkpt lat="45.69558" lon="5.65213">
        <ele>308</ele>
        <time>2021-07-20T06:08:53.575Z</time>
      </trkpt>
      <trkpt lat="45.69565" lon="5.65207">
        <ele>308</ele>
        <time>2021-07-20T06:08:54.575Z</time>
      </trkpt>
      <trkpt lat="45.69571" lon="5.65202">
        <ele>308</ele>
        <time>2021-07-20T06:08:55.575Z</time>
      </trkpt>
      <trkpt lat="45.69577" lon="5.65197">
        <ele>308</ele>
        <time>2021-07-20T06:08:56.575Z</time>
      </trkpt>
      <trkpt lat="45.69583" lon="5.65191">
        <ele>308</ele>
        <time>2021-07-20T06:08:57.575Z</time>
      </trkpt>
      <trkpt lat="45.6959" lon="5.65186">
        <ele>308</ele>
        <time>2021-07-20T06:08:58.575Z</time>
      </trkpt>
      <trkpt lat="45.69596" lon="5.65181">
        <ele>308</ele>
        <time>2021-07-20T06:08:59.576Z</time>
      </trkpt>
      <trkpt lat="45.69603" lon="5.65175">
        <ele>308</ele>
        <time>2021-07-20T06:09:00.575Z</time>
      </trkpt>
      <trkpt lat="45.6961" lon="5.6517">
        <ele>308</ele>
        <time>2021-07-20T06:09:01.575Z</time>
      </trkpt>
      <trkpt lat="45.69616" lon="5.65165">
        <ele>308</ele>
        <time>2021-07-20T06:09:02.575Z</time>
      </trkpt>
      <trkpt lat="45.69623" lon="5.6516">
        <ele>308</ele>
        <time>2021-07-20T06:09:03.575Z</time>
      </trkpt>
      <trkpt lat="45.6963" lon="5.65156">
        <ele>308</ele>
        <time>2021-07-20T06:09:04.575Z</time>
      </trkpt>
      <trkpt lat="45.69638" lon="5.65152">
        <ele>308</ele>
        <time>2021-07-20T06:09:05.575Z</time>
      </trkpt>
      <trkpt lat="45.69645" lon="5.65148">
        <ele>308</ele>
        <time>2021-07-20T06:09:06.576Z</time>
      </trkpt>
      <trkpt lat="45.69651" lon="5.65146">
        <ele>308</ele>
        <time>2021-07-20T06:09:07.576Z</time>
      </trkpt>
      <trkpt lat="45.69659" lon="5.65142">
        <ele>308</ele>
        <time>2021-07-20T06:09:08.576Z</time>
      </trkpt>
      <trkpt lat="45.69666" lon="5.65138">
        <ele>308</ele>
        <time>2021-07-20T06:09:09.576Z</time>
      </trkpt>
      <trkpt lat="45.69672" lon="5.65135">
        <ele>308</ele>
        <time>2021-07-20T06:09:10.575Z</time>
      </trkpt>
      <trkpt lat="45.69678" lon="5.65132">
        <ele>308</ele>
        <time>2021-07-20T06:09:11.576Z</time>
      </trkpt>
      <trkpt lat="45.69685" lon="5.6513">
        <ele>308</ele>
        <time>2021-07-20T06:09:12.575Z</time>
      </trkpt>
      <trkpt lat="45.69692" lon="5.65126">
        <ele>308</ele>
        <time>2021-07-20T06:09:13.575Z</time>
      </trkpt>
      <trkpt lat="45.69699" lon="5.65123">
        <ele>308</ele>
        <time>2021-07-20T06:09:14.576Z</time>
      </trkpt>
      <trkpt lat="45.69706" lon="5.65119">
        <ele>308</ele>
        <time>2021-07-20T06:09:15.575Z</time>
      </trkpt>
      <trkpt lat="45.69712" lon="5.65117">
        <ele>307</ele>
        <time>2021-07-20T06:09:16.575Z</time>
      </trkpt>
      <trkpt lat="45.69721" lon="5.65113">
        <ele>307</ele>
        <time>2021-07-20T06:09:17.576Z</time>
      </trkpt>
      <trkpt lat="45.69728" lon="5.6511">
        <ele>307</ele>
        <time>2021-07-20T06:09:18.575Z</time>
      </trkpt>
      <trkpt lat="45.69734" lon="5.65106">
        <ele>307</ele>
        <time>2021-07-20T06:09:19.576Z</time>
      </trkpt>
      <trkpt lat="45.69741" lon="5.65103">
        <ele>308</ele>
        <time>2021-07-20T06:09:20.575Z</time>
      </trkpt>
      <trkpt lat="45.69746" lon="5.651">
        <ele>308</ele>
        <time>2021-07-20T06:09:21.575Z</time>
      </trkpt>
      <trkpt lat="45.69753" lon="5.65096">
        <ele>308</ele>
        <time>2021-07-20T06:09:22.575Z</time>
      </trkpt>
      <trkpt lat="45.6976" lon="5.65091">
        <ele>308</ele>
        <time>2021-07-20T06:09:23.575Z</time>
      </trkpt>
      <trkpt lat="45.69766" lon="5.65087">
        <ele>309</ele>
        <time>2021-07-20T06:09:24.575Z</time>
      </trkpt>
      <trkpt lat="45.69772" lon="5.65082">
        <ele>309</ele>
        <time>2021-07-20T06:09:25.576Z</time>
      </trkpt>
      <trkpt lat="45.69776" lon="5.65078">
        <ele>309</ele>
        <time>2021-07-20T06:09:26.575Z</time>
      </trkpt>
      <trkpt lat="45.69783" lon="5.65072">
        <ele>310</ele>
        <time>2021-07-20T06:09:27.575Z</time>
      </trkpt>
      <trkpt lat="45.69789" lon="5.65067">
        <ele>310</ele>
        <time>2021-07-20T06:09:28.575Z</time>
      </trkpt>
      <trkpt lat="45.69794" lon="5.65062">
        <ele>309</ele>
        <time>2021-07-20T06:09:29.576Z</time>
      </trkpt>
      <trkpt lat="45.698" lon="5.65057">
        <ele>310</ele>
        <time>2021-07-20T06:09:30.575Z</time>
      </trkpt>
      <trkpt lat="45.69804" lon="5.65053">
        <ele>310</ele>
        <time>2021-07-20T06:09:31.575Z</time>
      </trkpt>
      <trkpt lat="45.69811" lon="5.65047">
        <ele>310</ele>
        <time>2021-07-20T06:09:32.575Z</time>
      </trkpt>
      <trkpt lat="45.69817" lon="5.65041">
        <ele>310</ele>
        <time>2021-07-20T06:09:33.575Z</time>
      </trkpt>
      <trkpt lat="45.69822" lon="5.65036">
        <ele>310</ele>
        <time>2021-07-20T06:09:34.575Z</time>
      </trkpt>
      <trkpt lat="45.69827" lon="5.65032">
        <ele>311</ele>
        <time>2021-07-20T06:09:35.576Z</time>
      </trkpt>
      <trkpt lat="45.69832" lon="5.65027">
        <ele>311</ele>
        <time>2021-07-20T06:09:36.575Z</time>
      </trkpt>
      <trkpt lat="45.69839" lon="5.65022">
        <ele>311</ele>
        <time>2021-07-20T06:09:37.575Z</time>
      </trkpt>
      <trkpt lat="45.69845" lon="5.65018">
        <ele>311</ele>
        <time>2021-07-20T06:09:38.576Z</time>
      </trkpt>
      <trkpt lat="45.69851" lon="5.65014">
        <ele>312</ele>
        <time>2021-07-20T06:09:39.575Z</time>
      </trkpt>
      <trkpt lat="45.69856" lon="5.65011">
        <ele>312</ele>
        <time>2021-07-20T06:09:40.575Z</time>
      </trkpt>
      <trkpt lat="45.69862" lon="5.65007">
        <ele>312</ele>
        <time>2021-07-20T06:09:41.576Z</time>
      </trkpt>
      <trkpt lat="45.69869" lon="5.65003">
        <ele>312</ele>
        <time>2021-07-20T06:09:42.575Z</time>
      </trkpt>
      <trkpt lat="45.69876" lon="5.64999">
        <ele>312</ele>
        <time>2021-07-20T06:09:43.575Z</time>
      </trkpt>
      <trkpt lat="45.69882" lon="5.64997">
        <ele>312</ele>
        <time>2021-07-20T06:09:44.575Z</time>
      </trkpt>
      <trkpt lat="45.69888" lon="5.64994">
        <ele>311</ele>
        <time>2021-07-20T06:09:45.575Z</time>
      </trkpt>
      <trkpt lat="45.69894" lon="5.64992">
        <ele>311</ele>
        <time>2021-07-20T06:09:46.575Z</time>
      </trkpt>
      <trkpt lat="45.69901" lon="5.6499">
        <ele>312</ele>
        <time>2021-07-20T06:09:47.575Z</time>
      </trkpt>
      <trkpt lat="45.69907" lon="5.64987">
        <ele>312</ele>
        <time>2021-07-20T06:09:48.575Z</time>
      </trkpt>
      <trkpt lat="45.69913" lon="5.64984">
        <ele>312</ele>
        <time>2021-07-20T06:09:49.575Z</time>
      </trkpt>
      <trkpt lat="45.69919" lon="5.64981">
        <ele>312</ele>
        <time>2021-07-20T06:09:50.576Z</time>
      </trkpt>
      <trkpt lat="45.69925" lon="5.64978">
        <ele>312</ele>
        <time>2021-07-20T06:09:51.576Z</time>
      </trkpt>
      <trkpt lat="45.69931" lon="5.64975">
        <ele>313</ele>
        <time>2021-07-20T06:09:52.575Z</time>
      </trkpt>
      <trkpt lat="45.69937" lon="5.64973">
        <ele>313</ele>
        <time>2021-07-20T06:09:53.575Z</time>
      </trkpt>
      <trkpt lat="45.69942" lon="5.64969">
        <ele>313</ele>
        <time>2021-07-20T06:09:54.575Z</time>
      </trkpt>
      <trkpt lat="45.69948" lon="5.64966">
        <ele>313</ele>
        <time>2021-07-20T06:09:55.575Z</time>
      </trkpt>
      <trkpt lat="45.69954" lon="5.64963">
        <ele>313</ele>
        <time>2021-07-20T06:09:56.575Z</time>
      </trkpt>
      <trkpt lat="45.6996" lon="5.6496">
        <ele>314</ele>
        <time>2021-07-20T06:09:57.576Z</time>
      </trkpt>
      <trkpt lat="45.69965" lon="5.64958">
        <ele>314</ele>
        <time>2021-07-20T06:09:58.575Z</time>
      </trkpt>
      <trkpt lat="45.69971" lon="5.64954">
        <ele>314</ele>
        <time>2021-07-20T06:09:59.576Z</time>
      </trkpt>
      <trkpt lat="45.69976" lon="5.64952">
        <ele>314</ele>
        <time>2021-07-20T06:10:00.576Z</time>
      </trkpt>
      <trkpt lat="45.69983" lon="5.64948">
        <ele>314</ele>
        <time>2021-07-20T06:10:01.576Z</time>
      </trkpt>
      <trkpt lat="45.69989" lon="5.64946">
        <ele>315</ele>
        <time>2021-07-20T06:10:02.575Z</time>
      </trkpt>
      <trkpt lat="45.69995" lon="5.64944">
        <ele>315</ele>
        <time>2021-07-20T06:10:03.575Z</time>
      </trkpt>
      <trkpt lat="45.70001" lon="5.64943">
        <ele>315</ele>
        <time>2021-07-20T06:10:04.576Z</time>
      </trkpt>
      <trkpt lat="45.70008" lon="5.64942">
        <ele>316</ele>
        <time>2021-07-20T06:10:05.575Z</time>
      </trkpt>
      <trkpt lat="45.70014" lon="5.64942">
        <ele>316</ele>
        <time>2021-07-20T06:10:06.575Z</time>
      </trkpt>
      <trkpt lat="45.70021" lon="5.64943">
        <ele>316</ele>
        <time>2021-07-20T06:10:07.576Z</time>
      </trkpt>
      <trkpt lat="45.70026" lon="5.64944">
        <ele>317</ele>
        <time>2021-07-20T06:10:08.575Z</time>
      </trkpt>
      <trkpt lat="45.70032" lon="5.64946">
        <ele>316</ele>
        <time>2021-07-20T06:10:09.575Z</time>
      </trkpt>
      <trkpt lat="45.70039" lon="5.64949">
        <ele>316</ele>
        <time>2021-07-20T06:10:10.575Z</time>
      </trkpt>
      <trkpt lat="45.70045" lon="5.64953">
        <ele>316</ele>
        <time>2021-07-20T06:10:11.575Z</time>
      </trkpt>
      <trkpt lat="45.70051" lon="5.64957">
        <ele>316</ele>
        <time>2021-07-20T06:10:12.575Z</time>
      </trkpt>
      <trkpt lat="45.70056" lon="5.64962">
        <ele>317</ele>
        <time>2021-07-20T06:10:13.576Z</time>
      </trkpt>
      <trkpt lat="45.70062" lon="5.64968">
        <ele>317</ele>
        <time>2021-07-20T06:10:14.576Z</time>
      </trkpt>
      <trkpt lat="45.70067" lon="5.64974">
        <ele>318</ele>
        <time>2021-07-20T06:10:15.576Z</time>
      </trkpt>
      <trkpt lat="45.70073" lon="5.64982">
        <ele>318</ele>
        <time>2021-07-20T06:10:16.576Z</time>
      </trkpt>
      <trkpt lat="45.70078" lon="5.64987">
        <ele>319</ele>
        <time>2021-07-20T06:10:17.576Z</time>
      </trkpt>
      <trkpt lat="45.70083" lon="5.64994">
        <ele>320</ele>
        <time>2021-07-20T06:10:18.575Z</time>
      </trkpt>
      <trkpt lat="45.70088" lon="5.65001">
        <ele>320</ele>
        <time>2021-07-20T06:10:19.575Z</time>
      </trkpt>
      <trkpt lat="45.70093" lon="5.65008">
        <ele>321</ele>
        <time>2021-07-20T06:10:20.576Z</time>
      </trkpt>
      <trkpt lat="45.70098" lon="5.65015">
        <ele>321</ele>
        <time>2021-07-20T06:10:21.575Z</time>
      </trkpt>
      <trkpt lat="45.70102" lon="5.65022">
        <ele>322</ele>
        <time>2021-07-20T06:10:22.575Z</time>
      </trkpt>
      <trkpt lat="45.70107" lon="5.65029">
        <ele>322</ele>
        <time>2021-07-20T06:10:23.575Z</time>
      </trkpt>
      <trkpt lat="45.70111" lon="5.65037">
        <ele>322</ele>
        <time>2021-07-20T06:10:24.575Z</time>
      </trkpt>
      <trkpt lat="45.70116" lon="5.65044">
        <ele>322</ele>
        <time>2021-07-20T06:10:25.575Z</time>
      </trkpt>
      <trkpt lat="45.70121" lon="5.6505">
        <ele>322</ele>
        <time>2021-07-20T06:10:26.575Z</time>
      </trkpt>
      <trkpt lat="45.70126" lon="5.65057">
        <ele>322</ele>
        <time>2021-07-20T06:10:27.575Z</time>
      </trkpt>
      <trkpt lat="45.70131" lon="5.65064">
        <ele>322</ele>
        <time>2021-07-20T06:10:28.575Z</time>
      </trkpt>
      <trkpt lat="45.70136" lon="5.6507">
        <ele>322</ele>
        <time>2021-07-20T06:10:29.575Z</time>
      </trkpt>
      <trkpt lat="45.70142" lon="5.65075">
        <ele>322</ele>
        <time>2021-07-20T06:10:30.575Z</time>
      </trkpt>
      <trkpt lat="45.70149" lon="5.65079">
        <ele>321</ele>
        <time>2021-07-20T06:10:31.576Z</time>
      </trkpt>
      <trkpt lat="45.70156" lon="5.65081">
        <ele>321</ele>
        <time>2021-07-20T06:10:32.576Z</time>
      </trkpt>
      <trkpt lat="45.70164" lon="5.65082">
        <ele>321</ele>
        <time>2021-07-20T06:10:33.576Z</time>
      </trkpt>
      <trkpt lat="45.70173" lon="5.65081">
        <ele>320</ele>
        <time>2021-07-20T06:10:34.575Z</time>
      </trkpt>
      <trkpt lat="45.70182" lon="5.6508">
        <ele>320</ele>
        <time>2021-07-20T06:10:35.575Z</time>
      </trkpt>
      <trkpt lat="45.70191" lon="5.65078">
        <ele>320</ele>
        <time>2021-07-20T06:10:36.576Z</time>
      </trkpt>
      <trkpt lat="45.70201" lon="5.65077">
        <ele>320</ele>
        <time>2021-07-20T06:10:37.576Z</time>
      </trkpt>
      <trkpt lat="45.70211" lon="5.65075">
        <ele>319</ele>
        <time>2021-07-20T06:10:38.576Z</time>
      </trkpt>
      <trkpt lat="45.70222" lon="5.65075">
        <ele>319</ele>
        <time>2021-07-20T06:10:39.575Z</time>
      </trkpt>
      <trkpt lat="45.70234" lon="5.65078">
        <ele>319</ele>
        <time>2021-07-20T06:10:40.575Z</time>
      </trkpt>
      <trkpt lat="45.70245" lon="5.6508">
        <ele>318</ele>
        <time>2021-07-20T06:10:41.576Z</time>
      </trkpt>
      <trkpt lat="45.70255" lon="5.65083">
        <ele>318</ele>
        <time>2021-07-20T06:10:42.575Z</time>
      </trkpt>
      <trkpt lat="45.70266" lon="5.65088">
        <ele>318</ele>
        <time>2021-07-20T06:10:43.575Z</time>
      </trkpt>
      <trkpt lat="45.70277" lon="5.65092">
        <ele>318</ele>
        <time>2021-07-20T06:10:44.576Z</time>
      </trkpt>
      <trkpt lat="45.70288" lon="5.65096">
        <ele>318</ele>
        <time>2021-07-20T06:10:45.576Z</time>
      </trkpt>
      <trkpt lat="45.703" lon="5.65098">
        <ele>318</ele>
        <time>2021-07-20T06:10:46.575Z</time>
      </trkpt>
      <trkpt lat="45.70312" lon="5.65099">
        <ele>317</ele>
        <time>2021-07-20T06:10:47.575Z</time>
      </trkpt>
      <trkpt lat="45.70323" lon="5.65097">
        <ele>317</ele>
        <time>2021-07-20T06:10:48.575Z</time>
      </trkpt>
      <trkpt lat="45.70333" lon="5.65094">
        <ele>317</ele>
        <time>2021-07-20T06:10:49.575Z</time>
      </trkpt>
      <trkpt lat="45.70344" lon="5.6509">
        <ele>317</ele>
        <time>2021-07-20T06:10:50.575Z</time>
      </trkpt>
      <trkpt lat="45.70355" lon="5.65088">
        <ele>316</ele>
        <time>2021-07-20T06:10:51.576Z</time>
      </trkpt>
      <trkpt lat="45.70366" lon="5.65088">
        <ele>315</ele>
        <time>2021-07-20T06:10:52.575Z</time>
      </trkpt>
      <trkpt lat="45.70376" lon="5.65091">
        <ele>314</ele>
        <time>2021-07-20T06:10:53.575Z</time>
      </trkpt>
      <trkpt lat="45.70384" lon="5.651">
        <ele>314</ele>
        <time>2021-07-20T06:10:54.575Z</time>
      </trkpt>
      <trkpt lat="45.7039" lon="5.65111">
        <ele>313</ele>
        <time>2021-07-20T06:10:55.575Z</time>
      </trkpt>
      <trkpt lat="45.70396" lon="5.65125">
        <ele>312</ele>
        <time>2021-07-20T06:10:56.575Z</time>
      </trkpt>
      <trkpt lat="45.704" lon="5.6514">
        <ele>312</ele>
        <time>2021-07-20T06:10:57.575Z</time>
      </trkpt>
      <trkpt lat="45.70404" lon="5.65156">
        <ele>311</ele>
        <time>2021-07-20T06:10:58.575Z</time>
      </trkpt>
      <trkpt lat="45.70408" lon="5.65171">
        <ele>310</ele>
        <time>2021-07-20T06:10:59.575Z</time>
      </trkpt>
      <trkpt lat="45.70412" lon="5.65187">
        <ele>309</ele>
        <time>2021-07-20T06:11:00.575Z</time>
      </trkpt>
      <trkpt lat="45.70416" lon="5.65201">
        <ele>308</ele>
        <time>2021-07-20T06:11:01.575Z</time>
      </trkpt>
      <trkpt lat="45.70419" lon="5.65216">
        <ele>307</ele>
        <time>2021-07-20T06:11:02.576Z</time>
      </trkpt>
      <trkpt lat="45.7042" lon="5.65231">
        <ele>306</ele>
        <time>2021-07-20T06:11:03.575Z</time>
      </trkpt>
      <trkpt lat="45.70417" lon="5.65245">
        <ele>305</ele>
        <time>2021-07-20T06:11:04.575Z</time>
      </trkpt>
      <trkpt lat="45.70411" lon="5.65257">
        <ele>305</ele>
        <time>2021-07-20T06:11:05.575Z</time>
      </trkpt>
      <trkpt lat="45.70402" lon="5.65266">
        <ele>304</ele>
        <time>2021-07-20T06:11:06.575Z</time>
      </trkpt>
      <trkpt lat="45.70392" lon="5.6527">
        <ele>304</ele>
        <time>2021-07-20T06:11:07.575Z</time>
      </trkpt>
      <trkpt lat="45.70381" lon="5.65272">
        <ele>304</ele>
        <time>2021-07-20T06:11:08.576Z</time>
      </trkpt>
      <trkpt lat="45.7037" lon="5.65271">
        <ele>303</ele>
        <time>2021-07-20T06:11:09.575Z</time>
      </trkpt>
      <trkpt lat="45.7036" lon="5.65268">
        <ele>303</ele>
        <time>2021-07-20T06:11:10.575Z</time>
      </trkpt>
      <trkpt lat="45.70349" lon="5.65265">
        <ele>303</ele>
        <time>2021-07-20T06:11:11.575Z</time>
      </trkpt>
      <trkpt lat="45.70338" lon="5.65263">
        <ele>302</ele>
        <time>2021-07-20T06:11:12.576Z</time>
      </trkpt>
      <trkpt lat="45.70327" lon="5.65263">
        <ele>301</ele>
        <time>2021-07-20T06:11:13.575Z</time>
      </trkpt>
      <trkpt lat="45.70317" lon="5.65266">
        <ele>301</ele>
        <time>2021-07-20T06:11:14.576Z</time>
      </trkpt>
      <trkpt lat="45.70308" lon="5.65272">
        <ele>300</ele>
        <time>2021-07-20T06:11:15.575Z</time>
      </trkpt>
      <trkpt lat="45.703" lon="5.65282">
        <ele>299</ele>
        <time>2021-07-20T06:11:16.575Z</time>
      </trkpt>
      <trkpt lat="45.70295" lon="5.65295">
        <ele>298</ele>
        <time>2021-07-20T06:11:17.576Z</time>
      </trkpt>
      <trkpt lat="45.70292" lon="5.6531">
        <ele>297</ele>
        <time>2021-07-20T06:11:18.575Z</time>
      </trkpt>
      <trkpt lat="45.7029" lon="5.65326">
        <ele>296</ele>
        <time>2021-07-20T06:11:19.575Z</time>
      </trkpt>
      <trkpt lat="45.70289" lon="5.65343">
        <ele>296</ele>
        <time>2021-07-20T06:11:20.576Z</time>
      </trkpt>
      <trkpt lat="45.70289" lon="5.6536">
        <ele>295</ele>
        <time>2021-07-20T06:11:21.576Z</time>
      </trkpt>
      <trkpt lat="45.70291" lon="5.65378">
        <ele>294</ele>
        <time>2021-07-20T06:11:22.576Z</time>
      </trkpt>
      <trkpt lat="45.70294" lon="5.65395">
        <ele>293</ele>
        <time>2021-07-20T06:11:23.575Z</time>
      </trkpt>
      <trkpt lat="45.70299" lon="5.65411">
        <ele>293</ele>
        <time>2021-07-20T06:11:24.575Z</time>
      </trkpt>
      <trkpt lat="45.70304" lon="5.65428">
        <ele>292</ele>
        <time>2021-07-20T06:11:25.576Z</time>
      </trkpt>
      <trkpt lat="45.70309" lon="5.65444">
        <ele>291</ele>
        <time>2021-07-20T06:11:26.576Z</time>
      </trkpt>
      <trkpt lat="45.70314" lon="5.6546">
        <ele>290</ele>
        <time>2021-07-20T06:11:27.576Z</time>
      </trkpt>
      <trkpt lat="45.70321" lon="5.65476">
        <ele>290</ele>
        <time>2021-07-20T06:11:28.575Z</time>
      </trkpt>
      <trkpt lat="45.70328" lon="5.65491">
        <ele>289</ele>
        <time>2021-07-20T06:11:29.575Z</time>
      </trkpt>
      <trkpt lat="45.70337" lon="5.65505">
        <ele>289</ele>
        <time>2021-07-20T06:11:30.575Z</time>
      </trkpt>
      <trkpt lat="45.70347" lon="5.65519">
        <ele>288</ele>
        <time>2021-07-20T06:11:31.575Z</time>
      </trkpt>
      <trkpt lat="45.70356" lon="5.6553">
        <ele>287</ele>
        <time>2021-07-20T06:11:32.575Z</time>
      </trkpt>
      <trkpt lat="45.70366" lon="5.6554">
        <ele>287</ele>
        <time>2021-07-20T06:11:33.575Z</time>
      </trkpt>
      <trkpt lat="45.70375" lon="5.65548">
        <ele>286</ele>
        <time>2021-07-20T06:11:34.575Z</time>
      </trkpt>
      <trkpt lat="45.70386" lon="5.65552">
        <ele>285</ele>
        <time>2021-07-20T06:11:35.575Z</time>
      </trkpt>
      <trkpt lat="45.70396" lon="5.65554">
        <ele>285</ele>
        <time>2021-07-20T06:11:36.575Z</time>
      </trkpt>
      <trkpt lat="45.70409" lon="5.6555">
        <ele>284</ele>
        <time>2021-07-20T06:11:37.576Z</time>
      </trkpt>
      <trkpt lat="45.70423" lon="5.65546">
        <ele>284</ele>
        <time>2021-07-20T06:11:38.575Z</time>
      </trkpt>
      <trkpt lat="45.70437" lon="5.65544">
        <ele>284</ele>
        <time>2021-07-20T06:11:39.575Z</time>
      </trkpt>
      <trkpt lat="45.7045" lon="5.65543">
        <ele>284</ele>
        <time>2021-07-20T06:11:40.575Z</time>
      </trkpt>
      <trkpt lat="45.70464" lon="5.65543">
        <ele>284</ele>
        <time>2021-07-20T06:11:41.575Z</time>
      </trkpt>
      <trkpt lat="45.70476" lon="5.65544">
        <ele>284</ele>
        <time>2021-07-20T06:11:42.576Z</time>
      </trkpt>
      <trkpt lat="45.70489" lon="5.65545">
        <ele>284</ele>
        <time>2021-07-20T06:11:43.576Z</time>
      </trkpt>
      <trkpt lat="45.70501" lon="5.65545">
        <ele>284</ele>
        <time>2021-07-20T06:11:44.575Z</time>
      </trkpt>
      <trkpt lat="45.70512" lon="5.65542">
        <ele>284</ele>
        <time>2021-07-20T06:11:45.576Z</time>
      </trkpt>
      <trkpt lat="45.70523" lon="5.65536">
        <ele>284</ele>
        <time>2021-07-20T06:11:46.576Z</time>
      </trkpt>
      <trkpt lat="45.70533" lon="5.65526">
        <ele>283</ele>
        <time>2021-07-20T06:11:47.576Z</time>
      </trkpt>
      <trkpt lat="45.70541" lon="5.65513">
        <ele>282</ele>
        <time>2021-07-20T06:11:48.575Z</time>
      </trkpt>
      <trkpt lat="45.70546" lon="5.65497">
        <ele>281</ele>
        <time>2021-07-20T06:11:49.575Z</time>
      </trkpt>
      <trkpt lat="45.70552" lon="5.65478">
        <ele>280</ele>
        <time>2021-07-20T06:11:50.575Z</time>
      </trkpt>
      <trkpt lat="45.70556" lon="5.65459">
        <ele>279</ele>
        <time>2021-07-20T06:11:51.575Z</time>
      </trkpt>
      <trkpt lat="45.7056" lon="5.65441">
        <ele>278</ele>
        <time>2021-07-20T06:11:52.576Z</time>
      </trkpt>
      <trkpt lat="45.70565" lon="5.65423">
        <ele>277</ele>
        <time>2021-07-20T06:11:53.575Z</time>
      </trkpt>
      <trkpt lat="45.7057" lon="5.65407">
        <ele>275</ele>
        <time>2021-07-20T06:11:54.575Z</time>
      </trkpt>
      <trkpt lat="45.70578" lon="5.65393">
        <ele>274</ele>
        <time>2021-07-20T06:11:55.575Z</time>
      </trkpt>
      <trkpt lat="45.70586" lon="5.65382">
        <ele>273</ele>
        <time>2021-07-20T06:11:56.575Z</time>
      </trkpt>
      <trkpt lat="45.70597" lon="5.65374">
        <ele>272</ele>
        <time>2021-07-20T06:11:57.575Z</time>
      </trkpt>
      <trkpt lat="45.70608" lon="5.65369">
        <ele>270</ele>
        <time>2021-07-20T06:11:58.575Z</time>
      </trkpt>
      <trkpt lat="45.7062" lon="5.65365">
        <ele>269</ele>
        <time>2021-07-20T06:11:59.575Z</time>
      </trkpt>
      <trkpt lat="45.70632" lon="5.65362">
        <ele>268</ele>
        <time>2021-07-20T06:12:00.575Z</time>
      </trkpt>
      <trkpt lat="45.70644" lon="5.65359">
        <ele>267</ele>
        <time>2021-07-20T06:12:01.575Z</time>
      </trkpt>
      <trkpt lat="45.70655" lon="5.65355">
        <ele>266</ele>
        <time>2021-07-20T06:12:02.575Z</time>
      </trkpt>
      <trkpt lat="45.70666" lon="5.65351">
        <ele>266</ele>
        <time>2021-07-20T06:12:03.575Z</time>
      </trkpt>
      <trkpt lat="45.70677" lon="5.65345">
        <ele>265</ele>
        <time>2021-07-20T06:12:04.575Z</time>
      </trkpt>
      <trkpt lat="45.70688" lon="5.65338">
        <ele>264</ele>
        <time>2021-07-20T06:12:05.575Z</time>
      </trkpt>
      <trkpt lat="45.70697" lon="5.65328">
        <ele>263</ele>
        <time>2021-07-20T06:12:06.575Z</time>
      </trkpt>
      <trkpt lat="45.70707" lon="5.65318">
        <ele>262</ele>
        <time>2021-07-20T06:12:07.575Z</time>
      </trkpt>
      <trkpt lat="45.70715" lon="5.65307">
        <ele>261</ele>
        <time>2021-07-20T06:12:08.575Z</time>
      </trkpt>
      <trkpt lat="45.70722" lon="5.65294">
        <ele>260</ele>
        <time>2021-07-20T06:12:09.576Z</time>
      </trkpt>
      <trkpt lat="45.70728" lon="5.65282">
        <ele>259</ele>
        <time>2021-07-20T06:12:10.575Z</time>
      </trkpt>
      <trkpt lat="45.70734" lon="5.65269">
        <ele>259</ele>
        <time>2021-07-20T06:12:11.575Z</time>
      </trkpt>
      <trkpt lat="45.70739" lon="5.65257">
        <ele>258</ele>
        <time>2021-07-20T06:12:12.576Z</time>
      </trkpt>
      <trkpt lat="45.70745" lon="5.65247">
        <ele>257</ele>
        <time>2021-07-20T06:12:13.576Z</time>
      </trkpt>
      <trkpt lat="45.70752" lon="5.6524">
        <ele>257</ele>
        <time>2021-07-20T06:12:14.575Z</time>
      </trkpt>
      <trkpt lat="45.7076" lon="5.65237">
        <ele>256</ele>
        <time>2021-07-20T06:12:15.575Z</time>
      </trkpt>
      <trkpt lat="45.70768" lon="5.65238">
        <ele>256</ele>
        <time>2021-07-20T06:12:16.576Z</time>
      </trkpt>
      <trkpt lat="45.70776" lon="5.65243">
        <ele>256</ele>
        <time>2021-07-20T06:12:17.575Z</time>
      </trkpt>
      <trkpt lat="45.70781" lon="5.65252">
        <ele>255</ele>
        <time>2021-07-20T06:12:18.575Z</time>
      </trkpt>
      <trkpt lat="45.70783" lon="5.65263">
        <ele>254</ele>
        <time>2021-07-20T06:12:19.576Z</time>
      </trkpt>
      <trkpt lat="45.70782" lon="5.65275">
        <ele>253</ele>
        <time>2021-07-20T06:12:20.575Z</time>
      </trkpt>
      <trkpt lat="45.70779" lon="5.65287">
        <ele>253</ele>
        <time>2021-07-20T06:12:21.575Z</time>
      </trkpt>
      <trkpt lat="45.70775" lon="5.65299">
        <ele>252</ele>
        <time>2021-07-20T06:12:22.575Z</time>
      </trkpt>
      <trkpt lat="45.70771" lon="5.65311">
        <ele>251</ele>
        <time>2021-07-20T06:12:23.575Z</time>
      </trkpt>
      <trkpt lat="45.70767" lon="5.65325">
        <ele>250</ele>
        <time>2021-07-20T06:12:24.576Z</time>
      </trkpt>
      <trkpt lat="45.70765" lon="5.65339">
        <ele>249</ele>
        <time>2021-07-20T06:12:25.576Z</time>
      </trkpt>
      <trkpt lat="45.70764" lon="5.65354">
        <ele>248</ele>
        <time>2021-07-20T06:12:26.576Z</time>
      </trkpt>
      <trkpt lat="45.70764" lon="5.6537">
        <ele>247</ele>
        <time>2021-07-20T06:12:27.576Z</time>
      </trkpt>
      <trkpt lat="45.70766" lon="5.65385">
        <ele>247</ele>
        <time>2021-07-20T06:12:28.575Z</time>
      </trkpt>
      <trkpt lat="45.70767" lon="5.65401">
        <ele>246</ele>
        <time>2021-07-20T06:12:29.575Z</time>
      </trkpt>
      <trkpt lat="45.70769" lon="5.65417">
        <ele>245</ele>
        <time>2021-07-20T06:12:30.576Z</time>
      </trkpt>
      <trkpt lat="45.70769" lon="5.65434">
        <ele>245</ele>
        <time>2021-07-20T06:12:31.576Z</time>
      </trkpt>
      <trkpt lat="45.70769" lon="5.6545">
        <ele>244</ele>
        <time>2021-07-20T06:12:32.575Z</time>
      </trkpt>
      <trkpt lat="45.70769" lon="5.65466">
        <ele>243</ele>
        <time>2021-07-20T06:12:33.575Z</time>
      </trkpt>
      <trkpt lat="45.7077" lon="5.65483">
        <ele>243</ele>
        <time>2021-07-20T06:12:34.575Z</time>
      </trkpt>
      <trkpt lat="45.70772" lon="5.65498">
        <ele>242</ele>
        <time>2021-07-20T06:12:35.575Z</time>
      </trkpt>
      <trkpt lat="45.70777" lon="5.65511">
        <ele>241</ele>
        <time>2021-07-20T06:12:36.575Z</time>
      </trkpt>
      <trkpt lat="45.70783" lon="5.65524">
        <ele>241</ele>
        <time>2021-07-20T06:12:37.576Z</time>
      </trkpt>
      <trkpt lat="45.7079" lon="5.65535">
        <ele>240</ele>
        <time>2021-07-20T06:12:38.575Z</time>
      </trkpt>
      <trkpt lat="45.70798" lon="5.65546">
        <ele>240</ele>
        <time>2021-07-20T06:12:39.575Z</time>
      </trkpt>
      <trkpt lat="45.70806" lon="5.65556">
        <ele>239</ele>
        <time>2021-07-20T06:12:40.575Z</time>
      </trkpt>
      <trkpt lat="45.70814" lon="5.65565">
        <ele>239</ele>
        <time>2021-07-20T06:12:41.576Z</time>
      </trkpt>
      <trkpt lat="45.70821" lon="5.65573">
        <ele>239</ele>
        <time>2021-07-20T06:12:42.575Z</time>
      </trkpt>
      <trkpt lat="45.70829" lon="5.65581">
        <ele>238</ele>
        <time>2021-07-20T06:12:43.575Z</time>
      </trkpt>
      <trkpt lat="45.70836" lon="5.65589">
        <ele>238</ele>
        <time>2021-07-20T06:12:44.576Z</time>
      </trkpt>
      <trkpt lat="45.70844" lon="5.65596">
        <ele>238</ele>
        <time>2021-07-20T06:12:45.575Z</time>
      </trkpt>
      <trkpt lat="45.7085" lon="5.65605">
        <ele>238</ele>
        <time>2021-07-20T06:12:46.575Z</time>
      </trkpt>
      <trkpt lat="45.70856" lon="5.65615">
        <ele>238</ele>
        <time>2021-07-20T06:12:47.575Z</time>
      </trkpt>
      <trkpt lat="45.70861" lon="5.65626">
        <ele>238</ele>
        <time>2021-07-20T06:12:48.575Z</time>
      </trkpt>
      <trkpt lat="45.70867" lon="5.65637">
        <ele>237</ele>
        <time>2021-07-20T06:12:49.575Z</time>
      </trkpt>
      <trkpt lat="45.70871" lon="5.65649">
        <ele>237</ele>
        <time>2021-07-20T06:12:50.575Z</time>
      </trkpt>
      <trkpt lat="45.70876" lon="5.6566">
        <ele>237</ele>
        <time>2021-07-20T06:12:51.576Z</time>
      </trkpt>
      <trkpt lat="45.70881" lon="5.65672">
        <ele>236</ele>
        <time>2021-07-20T06:12:52.575Z</time>
      </trkpt>
      <trkpt lat="45.70886" lon="5.65684">
        <ele>235</ele>
        <time>2021-07-20T06:12:53.576Z</time>
      </trkpt>
      <trkpt lat="45.70891" lon="5.65695">
        <ele>234</ele>
        <time>2021-07-20T06:12:54.575Z</time>
      </trkpt>
      <trkpt lat="45.70895" lon="5.65704">
        <ele>234</ele>
        <time>2021-07-20T06:12:55.575Z</time>
      </trkpt>
      <trkpt lat="45.70901" lon="5.65717">
        <ele>233</ele>
        <time>2021-07-20T06:12:56.576Z</time>
      </trkpt>
      <trkpt lat="45.70906" lon="5.65728">
        <ele>233</ele>
        <time>2021-07-20T06:12:57.575Z</time>
      </trkpt>
      <trkpt lat="45.70911" lon="5.6574">
        <ele>232</ele>
        <time>2021-07-20T06:12:58.576Z</time>
      </trkpt>
      <trkpt lat="45.70916" lon="5.65751">
        <ele>232</ele>
        <time>2021-07-20T06:12:59.575Z</time>
      </trkpt>
      <trkpt lat="45.70921" lon="5.65762">
        <ele>231</ele>
        <time>2021-07-20T06:13:00.575Z</time>
      </trkpt>
      <trkpt lat="45.70925" lon="5.65775">
        <ele>231</ele>
        <time>2021-07-20T06:13:01.576Z</time>
      </trkpt>
      <trkpt lat="45.70928" lon="5.65787">
        <ele>230</ele>
        <time>2021-07-20T06:13:02.575Z</time>
      </trkpt>
      <trkpt lat="45.70932" lon="5.658">
        <ele>230</ele>
        <time>2021-07-20T06:13:03.575Z</time>
      </trkpt>
      <trkpt lat="45.70935" lon="5.65813">
        <ele>230</ele>
        <time>2021-07-20T06:13:04.575Z</time>
      </trkpt>
      <trkpt lat="45.70938" lon="5.65823">
        <ele>230</ele>
        <time>2021-07-20T06:13:05.576Z</time>
      </trkpt>
      <trkpt lat="45.70942" lon="5.65838">
        <ele>230</ele>
        <time>2021-07-20T06:13:06.575Z</time>
      </trkpt>
      <trkpt lat="45.70946" lon="5.6585">
        <ele>230</ele>
        <time>2021-07-20T06:13:07.575Z</time>
      </trkpt>
      <trkpt lat="45.70951" lon="5.65862">
        <ele>230</ele>
        <time>2021-07-20T06:13:08.575Z</time>
      </trkpt>
      <trkpt lat="45.70956" lon="5.65875">
        <ele>230</ele>
        <time>2021-07-20T06:13:09.576Z</time>
      </trkpt>
      <trkpt lat="45.70961" lon="5.65886">
        <ele>230</ele>
        <time>2021-07-20T06:13:10.575Z</time>
      </trkpt>
      <trkpt lat="45.70966" lon="5.65897">
        <ele>230</ele>
        <time>2021-07-20T06:13:11.576Z</time>
      </trkpt>
      <trkpt lat="45.70972" lon="5.65908">
        <ele>230</ele>
        <time>2021-07-20T06:13:12.575Z</time>
      </trkpt>
      <trkpt lat="45.70979" lon="5.65917">
        <ele>230</ele>
        <time>2021-07-20T06:13:13.575Z</time>
      </trkpt>
      <trkpt lat="45.70987" lon="5.65925">
        <ele>230</ele>
        <time>2021-07-20T06:13:14.575Z</time>
      </trkpt>
      <trkpt lat="45.70995" lon="5.65933">
        <ele>230</ele>
        <time>2021-07-20T06:13:15.575Z</time>
      </trkpt>
      <trkpt lat="45.71002" lon="5.65941">
        <ele>229</ele>
        <time>2021-07-20T06:13:16.575Z</time>
      </trkpt>
      <trkpt lat="45.7101" lon="5.65949">
        <ele>229</ele>
        <time>2021-07-20T06:13:17.575Z</time>
      </trkpt>
      <trkpt lat="45.71018" lon="5.65957">
        <ele>229</ele>
        <time>2021-07-20T06:13:18.575Z</time>
      </trkpt>
      <trkpt lat="45.71026" lon="5.65964">
        <ele>229</ele>
        <time>2021-07-20T06:13:19.575Z</time>
      </trkpt>
      <trkpt lat="45.71034" lon="5.65971">
        <ele>229</ele>
        <time>2021-07-20T06:13:20.575Z</time>
      </trkpt>
      <trkpt lat="45.71041" lon="5.65979">
        <ele>228</ele>
        <time>2021-07-20T06:13:21.575Z</time>
      </trkpt>
      <trkpt lat="45.71049" lon="5.65986">
        <ele>228</ele>
        <time>2021-07-20T06:13:22.575Z</time>
      </trkpt>
      <trkpt lat="45.71056" lon="5.65992">
        <ele>228</ele>
        <time>2021-07-20T06:13:23.575Z</time>
      </trkpt>
      <trkpt lat="45.71064" lon="5.65999">
        <ele>227</ele>
        <time>2021-07-20T06:13:24.576Z</time>
      </trkpt>
      <trkpt lat="45.71071" lon="5.66006">
        <ele>227</ele>
        <time>2021-07-20T06:13:25.575Z</time>
      </trkpt>
      <trkpt lat="45.71079" lon="5.66012">
        <ele>227</ele>
        <time>2021-07-20T06:13:26.575Z</time>
      </trkpt>
      <trkpt lat="45.71086" lon="5.66019">
        <ele>227</ele>
        <time>2021-07-20T06:13:27.575Z</time>
      </trkpt>
      <trkpt lat="45.71094" lon="5.66025">
        <ele>227</ele>
        <time>2021-07-20T06:13:28.575Z</time>
      </trkpt>
      <trkpt lat="45.71101" lon="5.66031">
        <ele>227</ele>
        <time>2021-07-20T06:13:29.575Z</time>
      </trkpt>
      <trkpt lat="45.71108" lon="5.66038">
        <ele>226</ele>
        <time>2021-07-20T06:13:30.576Z</time>
      </trkpt>
      <trkpt lat="45.71115" lon="5.66044">
        <ele>226</ele>
        <time>2021-07-20T06:13:31.575Z</time>
      </trkpt>
      <trkpt lat="45.71122" lon="5.6605">
        <ele>226</ele>
        <time>2021-07-20T06:13:32.575Z</time>
      </trkpt>
      <trkpt lat="45.71129" lon="5.66055">
        <ele>226</ele>
        <time>2021-07-20T06:13:33.575Z</time>
      </trkpt>
      <trkpt lat="45.71136" lon="5.66061">
        <ele>227</ele>
        <time>2021-07-20T06:13:34.575Z</time>
      </trkpt>
      <trkpt lat="45.71144" lon="5.66067">
        <ele>227</ele>
        <time>2021-07-20T06:13:35.576Z</time>
      </trkpt>
      <trkpt lat="45.71151" lon="5.66072">
        <ele>226</ele>
        <time>2021-07-20T06:13:36.575Z</time>
      </trkpt>
      <trkpt lat="45.71158" lon="5.66077">
        <ele>226</ele>
        <time>2021-07-20T06:13:37.575Z</time>
      </trkpt>
      <trkpt lat="45.71165" lon="5.66083">
        <ele>226</ele>
        <time>2021-07-20T06:13:38.575Z</time>
      </trkpt>
      <trkpt lat="45.71172" lon="5.66088">
        <ele>225</ele>
        <time>2021-07-20T06:13:39.575Z</time>
      </trkpt>
      <trkpt lat="45.7118" lon="5.66093">
        <ele>225</ele>
        <time>2021-07-20T06:13:40.575Z</time>
      </trkpt>
      <trkpt lat="45.71187" lon="5.66098">
        <ele>225</ele>
        <time>2021-07-20T06:13:41.576Z</time>
      </trkpt>
      <trkpt lat="45.71195" lon="5.66103">
        <ele>226</ele>
        <time>2021-07-20T06:13:42.575Z</time>
      </trkpt>
      <trkpt lat="45.71202" lon="5.66107">
        <ele>226</ele>
        <time>2021-07-20T06:13:43.575Z</time>
      </trkpt>
      <trkpt lat="45.71209" lon="5.66111">
        <ele>226</ele>
        <time>2021-07-20T06:13:44.575Z</time>
      </trkpt>
      <trkpt lat="45.71217" lon="5.66116">
        <ele>225</ele>
        <time>2021-07-20T06:13:45.575Z</time>
      </trkpt>
      <trkpt lat="45.71225" lon="5.6612">
        <ele>225</ele>
        <time>2021-07-20T06:13:46.575Z</time>
      </trkpt>
      <trkpt lat="45.71232" lon="5.66124">
        <ele>225</ele>
        <time>2021-07-20T06:13:47.576Z</time>
      </trkpt>
      <trkpt lat="45.71239" lon="5.66128">
        <ele>225</ele>
        <time>2021-07-20T06:13:48.575Z</time>
      </trkpt>
      <trkpt lat="45.71247" lon="5.66133">
        <ele>224</ele>
        <time>2021-07-20T06:13:49.575Z</time>
      </trkpt>
      <trkpt lat="45.71254" lon="5.66137">
        <ele>224</ele>
        <time>2021-07-20T06:13:50.575Z</time>
      </trkpt>
      <trkpt lat="45.71261" lon="5.66141">
        <ele>224</ele>
        <time>2021-07-20T06:13:51.575Z</time>
      </trkpt>
      <trkpt lat="45.7127" lon="5.66146">
        <ele>225</ele>
        <time>2021-07-20T06:13:52.576Z</time>
      </trkpt>
      <trkpt lat="45.71277" lon="5.66151">
        <ele>225</ele>
        <time>2021-07-20T06:13:53.575Z</time>
      </trkpt>
      <trkpt lat="45.71284" lon="5.66155">
        <ele>225</ele>
        <time>2021-07-20T06:13:54.575Z</time>
      </trkpt>
      <trkpt lat="45.7129" lon="5.66159">
        <ele>225</ele>
        <time>2021-07-20T06:13:55.575Z</time>
      </trkpt>
      <trkpt lat="45.71297" lon="5.66163">
        <ele>226</ele>
        <time>2021-07-20T06:13:56.575Z</time>
      </trkpt>
      <trkpt lat="45.71305" lon="5.66168">
        <ele>226</ele>
        <time>2021-07-20T06:13:57.575Z</time>
      </trkpt>
      <trkpt lat="45.71312" lon="5.66172">
        <ele>226</ele>
        <time>2021-07-20T06:13:58.575Z</time>
      </trkpt>
      <trkpt lat="45.7132" lon="5.66177">
        <ele>227</ele>
        <time>2021-07-20T06:13:59.575Z</time>
      </trkpt>
      <trkpt lat="45.71327" lon="5.66181">
        <ele>227</ele>
        <time>2021-07-20T06:14:00.575Z</time>
      </trkpt>
      <trkpt lat="45.71336" lon="5.66186">
        <ele>227</ele>
        <time>2021-07-20T06:14:01.575Z</time>
      </trkpt>
      <trkpt lat="45.71344" lon="5.66191">
        <ele>227</ele>
        <time>2021-07-20T06:14:02.575Z</time>
      </trkpt>
      <trkpt lat="45.71351" lon="5.66195">
        <ele>227</ele>
        <time>2021-07-20T06:14:03.575Z</time>
      </trkpt>
      <trkpt lat="45.71359" lon="5.662">
        <ele>227</ele>
        <time>2021-07-20T06:14:04.575Z</time>
      </trkpt>
      <trkpt lat="45.71366" lon="5.66205">
        <ele>227</ele>
        <time>2021-07-20T06:14:05.576Z</time>
      </trkpt>
      <trkpt lat="45.71373" lon="5.6621">
        <ele>228</ele>
        <time>2021-07-20T06:14:06.575Z</time>
      </trkpt>
      <trkpt lat="45.7138" lon="5.66215">
        <ele>228</ele>
        <time>2021-07-20T06:14:07.575Z</time>
      </trkpt>
      <trkpt lat="45.71387" lon="5.66221">
        <ele>228</ele>
        <time>2021-07-20T06:14:08.575Z</time>
      </trkpt>
      <trkpt lat="45.71394" lon="5.66226">
        <ele>228</ele>
        <time>2021-07-20T06:14:09.576Z</time>
      </trkpt>
      <trkpt lat="45.71401" lon="5.66232">
        <ele>228</ele>
        <time>2021-07-20T06:14:10.575Z</time>
      </trkpt>
      <trkpt lat="45.71409" lon="5.6624">
        <ele>227</ele>
        <time>2021-07-20T06:14:11.576Z</time>
      </trkpt>
      <trkpt lat="45.71414" lon="5.66245">
        <ele>227</ele>
        <time>2021-07-20T06:14:12.575Z</time>
      </trkpt>
      <trkpt lat="45.71421" lon="5.66251">
        <ele>227</ele>
        <time>2021-07-20T06:14:13.576Z</time>
      </trkpt>
      <trkpt lat="45.71427" lon="5.66257">
        <ele>227</ele>
        <time>2021-07-20T06:14:14.576Z</time>
      </trkpt>
      <trkpt lat="45.71435" lon="5.66265">
        <ele>227</ele>
        <time>2021-07-20T06:14:15.576Z</time>
      </trkpt>
      <trkpt lat="45.71441" lon="5.66272">
        <ele>226</ele>
        <time>2021-07-20T06:14:16.575Z</time>
      </trkpt>
      <trkpt lat="45.71448" lon="5.66279">
        <ele>226</ele>
        <time>2021-07-20T06:14:17.576Z</time>
      </trkpt>
      <trkpt lat="45.71454" lon="5.66286">
        <ele>226</ele>
        <time>2021-07-20T06:14:18.576Z</time>
      </trkpt>
      <trkpt lat="45.71459" lon="5.66292">
        <ele>226</ele>
        <time>2021-07-20T06:14:19.575Z</time>
      </trkpt>
      <trkpt lat="45.71465" lon="5.66299">
        <ele>226</ele>
        <time>2021-07-20T06:14:20.576Z</time>
      </trkpt>
      <trkpt lat="45.71471" lon="5.66306">
        <ele>226</ele>
        <time>2021-07-20T06:14:21.575Z</time>
      </trkpt>
      <trkpt lat="45.71477" lon="5.66313">
        <ele>226</ele>
        <time>2021-07-20T06:14:22.575Z</time>
      </trkpt>
      <trkpt lat="45.71483" lon="5.66321">
        <ele>227</ele>
        <time>2021-07-20T06:14:23.575Z</time>
      </trkpt>
      <trkpt lat="45.71489" lon="5.66328">
        <ele>227</ele>
        <time>2021-07-20T06:14:24.575Z</time>
      </trkpt>
      <trkpt lat="45.71496" lon="5.66336">
        <ele>227</ele>
        <time>2021-07-20T06:14:25.576Z</time>
      </trkpt>
      <trkpt lat="45.71502" lon="5.66343">
        <ele>227</ele>
        <time>2021-07-20T06:14:26.576Z</time>
      </trkpt>
      <trkpt lat="45.71508" lon="5.66351">
        <ele>227</ele>
        <time>2021-07-20T06:14:27.576Z</time>
      </trkpt>
      <trkpt lat="45.71513" lon="5.66358">
        <ele>227</ele>
        <time>2021-07-20T06:14:28.576Z</time>
      </trkpt>
      <trkpt lat="45.71519" lon="5.66366">
        <ele>227</ele>
        <time>2021-07-20T06:14:29.576Z</time>
      </trkpt>
      <trkpt lat="45.71525" lon="5.66374">
        <ele>227</ele>
        <time>2021-07-20T06:14:30.576Z</time>
      </trkpt>
      <trkpt lat="45.71533" lon="5.66383">
        <ele>226</ele>
        <time>2021-07-20T06:14:31.575Z</time>
      </trkpt>
      <trkpt lat="45.71539" lon="5.6639">
        <ele>226</ele>
        <time>2021-07-20T06:14:32.575Z</time>
      </trkpt>
      <trkpt lat="45.71545" lon="5.66397">
        <ele>226</ele>
        <time>2021-07-20T06:14:33.575Z</time>
      </trkpt>
      <trkpt lat="45.71549" lon="5.66404">
        <ele>225</ele>
        <time>2021-07-20T06:14:34.575Z</time>
      </trkpt>
      <trkpt lat="45.71557" lon="5.66413">
        <ele>225</ele>
        <time>2021-07-20T06:14:35.576Z</time>
      </trkpt>
      <trkpt lat="45.71562" lon="5.66421">
        <ele>225</ele>
        <time>2021-07-20T06:14:36.575Z</time>
      </trkpt>
      <trkpt lat="45.71568" lon="5.66429">
        <ele>225</ele>
        <time>2021-07-20T06:14:37.576Z</time>
      </trkpt>
      <trkpt lat="45.71573" lon="5.66437">
        <ele>224</ele>
        <time>2021-07-20T06:14:38.575Z</time>
      </trkpt>
      <trkpt lat="45.71579" lon="5.66445">
        <ele>224</ele>
        <time>2021-07-20T06:14:39.575Z</time>
      </trkpt>
      <trkpt lat="45.71584" lon="5.66453">
        <ele>224</ele>
        <time>2021-07-20T06:14:40.575Z</time>
      </trkpt>
      <trkpt lat="45.71589" lon="5.66461">
        <ele>224</ele>
        <time>2021-07-20T06:14:41.575Z</time>
      </trkpt>
      <trkpt lat="45.71594" lon="5.6647">
        <ele>224</ele>
        <time>2021-07-20T06:14:42.575Z</time>
      </trkpt>
      <trkpt lat="45.71599" lon="5.66477">
        <ele>224</ele>
        <time>2021-07-20T06:14:43.576Z</time>
      </trkpt>
      <trkpt lat="45.71605" lon="5.66487">
        <ele>224</ele>
        <time>2021-07-20T06:14:44.576Z</time>
      </trkpt>
      <trkpt lat="45.7161" lon="5.66496">
        <ele>224</ele>
        <time>2021-07-20T06:14:45.575Z</time>
      </trkpt>
      <trkpt lat="45.71615" lon="5.66505">
        <ele>224</ele>
        <time>2021-07-20T06:14:46.575Z</time>
      </trkpt>
      <trkpt lat="45.7162" lon="5.66514">
        <ele>224</ele>
        <time>2021-07-20T06:14:47.575Z</time>
      </trkpt>
      <trkpt lat="45.71625" lon="5.66523">
        <ele>225</ele>
        <time>2021-07-20T06:14:48.575Z</time>
      </trkpt>
      <trkpt lat="45.71629" lon="5.66532">
        <ele>225</ele>
        <time>2021-07-20T06:14:49.576Z</time>
      </trkpt>
      <trkpt lat="45.71633" lon="5.66541">
        <ele>226</ele>
        <time>2021-07-20T06:14:50.575Z</time>
      </trkpt>
      <trkpt lat="45.71638" lon="5.6655">
        <ele>226</ele>
        <time>2021-07-20T06:14:51.575Z</time>
      </trkpt>
      <trkpt lat="45.71641" lon="5.66557">
        <ele>227</ele>
        <time>2021-07-20T06:14:52.575Z</time>
      </trkpt>
      <trkpt lat="45.71644" lon="5.66567">
        <ele>227</ele>
        <time>2021-07-20T06:14:53.575Z</time>
      </trkpt>
      <trkpt lat="45.71648" lon="5.66576">
        <ele>227</ele>
        <time>2021-07-20T06:14:54.576Z</time>
      </trkpt>
      <trkpt lat="45.71652" lon="5.66585">
        <ele>227</ele>
        <time>2021-07-20T06:14:55.575Z</time>
      </trkpt>
      <trkpt lat="45.71655" lon="5.66594">
        <ele>227</ele>
        <time>2021-07-20T06:14:56.575Z</time>
      </trkpt>
      <trkpt lat="45.71659" lon="5.66603">
        <ele>227</ele>
        <time>2021-07-20T06:14:57.575Z</time>
      </trkpt>
      <trkpt lat="45.71662" lon="5.66612">
        <ele>227</ele>
        <time>2021-07-20T06:14:58.575Z</time>
      </trkpt>
      <trkpt lat="45.71666" lon="5.66623">
        <ele>227</ele>
        <time>2021-07-20T06:14:59.576Z</time>
      </trkpt>
      <trkpt lat="45.71669" lon="5.6663">
        <ele>228</ele>
        <time>2021-07-20T06:15:00.575Z</time>
      </trkpt>
      <trkpt lat="45.71673" lon="5.66639">
        <ele>229</ele>
        <time>2021-07-20T06:15:01.575Z</time>
      </trkpt>
      <trkpt lat="45.71677" lon="5.66647">
        <ele>229</ele>
        <time>2021-07-20T06:15:02.576Z</time>
      </trkpt>
      <trkpt lat="45.71682" lon="5.66657">
        <ele>229</ele>
        <time>2021-07-20T06:15:03.575Z</time>
      </trkpt>
      <trkpt lat="45.71686" lon="5.66665">
        <ele>229</ele>
        <time>2021-07-20T06:15:04.576Z</time>
      </trkpt>
      <trkpt lat="45.7169" lon="5.66674">
        <ele>229</ele>
        <time>2021-07-20T06:15:05.575Z</time>
      </trkpt>
      <trkpt lat="45.71692" lon="5.66684">
        <ele>228</ele>
        <time>2021-07-20T06:15:06.576Z</time>
      </trkpt>
      <trkpt lat="45.71692" lon="5.66693">
        <ele>228</ele>
        <time>2021-07-20T06:15:07.575Z</time>
      </trkpt>
      <trkpt lat="45.7169" lon="5.66702">
        <ele>228</ele>
        <time>2021-07-20T06:15:08.576Z</time>
      </trkpt>
      <trkpt lat="45.71686" lon="5.6671">
        <ele>228</ele>
        <time>2021-07-20T06:15:09.575Z</time>
      </trkpt>
      <trkpt lat="45.71681" lon="5.66717">
        <ele>228</ele>
        <time>2021-07-20T06:15:10.575Z</time>
      </trkpt>
      <trkpt lat="45.71676" lon="5.66722">
        <ele>228</ele>
        <time>2021-07-20T06:15:11.575Z</time>
      </trkpt>
      <trkpt lat="45.71667" lon="5.66729">
        <ele>229</ele>
        <time>2021-07-20T06:15:12.576Z</time>
      </trkpt>
      <trkpt lat="45.7166" lon="5.66735">
        <ele>229</ele>
        <time>2021-07-20T06:15:13.576Z</time>
      </trkpt>
      <trkpt lat="45.71653" lon="5.66742">
        <ele>230</ele>
        <time>2021-07-20T06:15:14.575Z</time>
      </trkpt>
      <trkpt lat="45.71646" lon="5.66747">
        <ele>230</ele>
        <time>2021-07-20T06:15:15.575Z</time>
      </trkpt>
      <trkpt lat="45.71639" lon="5.66754">
        <ele>230</ele>
        <time>2021-07-20T06:15:16.576Z</time>
      </trkpt>
      <trkpt lat="45.71632" lon="5.6676">
        <ele>231</ele>
        <time>2021-07-20T06:15:17.575Z</time>
      </trkpt>
      <trkpt lat="45.71626" lon="5.66766">
        <ele>231</ele>
        <time>2021-07-20T06:15:18.575Z</time>
      </trkpt>
      <trkpt lat="45.7162" lon="5.66773">
        <ele>231</ele>
        <time>2021-07-20T06:15:19.575Z</time>
      </trkpt>
      <trkpt lat="45.71614" lon="5.66779">
        <ele>232</ele>
        <time>2021-07-20T06:15:20.576Z</time>
      </trkpt>
      <trkpt lat="45.71609" lon="5.66783">
        <ele>232</ele>
        <time>2021-07-20T06:15:21.575Z</time>
      </trkpt>
      <trkpt lat="45.71602" lon="5.6679">
        <ele>232</ele>
        <time>2021-07-20T06:15:22.576Z</time>
      </trkpt>
      <trkpt lat="45.71596" lon="5.66796">
        <ele>233</ele>
        <time>2021-07-20T06:15:23.575Z</time>
      </trkpt>
      <trkpt lat="45.7159" lon="5.66802">
        <ele>233</ele>
        <time>2021-07-20T06:15:24.575Z</time>
      </trkpt>
      <trkpt lat="45.71584" lon="5.66808">
        <ele>233</ele>
        <time>2021-07-20T06:15:25.575Z</time>
      </trkpt>
      <trkpt lat="45.71579" lon="5.66812">
        <ele>233</ele>
        <time>2021-07-20T06:15:26.576Z</time>
      </trkpt>
      <trkpt lat="45.71572" lon="5.66819">
        <ele>233</ele>
        <time>2021-07-20T06:15:27.575Z</time>
      </trkpt>
      <trkpt lat="45.71567" lon="5.66824">
        <ele>233</ele>
        <time>2021-07-20T06:15:28.575Z</time>
      </trkpt>
      <trkpt lat="45.7156" lon="5.66831">
        <ele>233</ele>
        <time>2021-07-20T06:15:29.575Z</time>
      </trkpt>
      <trkpt lat="45.71555" lon="5.66836">
        <ele>234</ele>
        <time>2021-07-20T06:15:30.576Z</time>
      </trkpt>
      <trkpt lat="45.71549" lon="5.66842">
        <ele>234</ele>
        <time>2021-07-20T06:15:31.576Z</time>
      </trkpt>
      <trkpt lat="45.71543" lon="5.66847">
        <ele>234</ele>
        <time>2021-07-20T06:15:32.575Z</time>
      </trkpt>
      <trkpt lat="45.71537" lon="5.66854">
        <ele>234</ele>
        <time>2021-07-20T06:15:33.576Z</time>
      </trkpt>
      <trkpt lat="45.71531" lon="5.66859">
        <ele>234</ele>
        <time>2021-07-20T06:15:34.575Z</time>
      </trkpt>
      <trkpt lat="45.71527" lon="5.66864">
        <ele>234</ele>
        <time>2021-07-20T06:15:35.575Z</time>
      </trkpt>
      <trkpt lat="45.71522" lon="5.66869">
        <ele>235</ele>
        <time>2021-07-20T06:15:36.575Z</time>
      </trkpt>
      <trkpt lat="45.71517" lon="5.66874">
        <ele>235</ele>
        <time>2021-07-20T06:15:37.576Z</time>
      </trkpt>
      <trkpt lat="45.71512" lon="5.6688">
        <ele>236</ele>
        <time>2021-07-20T06:15:38.575Z</time>
      </trkpt>
      <trkpt lat="45.71507" lon="5.66886">
        <ele>236</ele>
        <time>2021-07-20T06:15:39.576Z</time>
      </trkpt>
      <trkpt lat="45.71502" lon="5.66892">
        <ele>236</ele>
        <time>2021-07-20T06:15:40.575Z</time>
      </trkpt>
      <trkpt lat="45.71498" lon="5.66898">
        <ele>236</ele>
        <time>2021-07-20T06:15:41.575Z</time>
      </trkpt>
      <trkpt lat="45.71494" lon="5.66905">
        <ele>236</ele>
        <time>2021-07-20T06:15:42.575Z</time>
      </trkpt>
      <trkpt lat="45.71489" lon="5.66911">
        <ele>236</ele>
        <time>2021-07-20T06:15:43.575Z</time>
      </trkpt>
      <trkpt lat="45.71485" lon="5.66917">
        <ele>236</ele>
        <time>2021-07-20T06:15:44.576Z</time>
      </trkpt>
      <trkpt lat="45.71481" lon="5.66924">
        <ele>236</ele>
        <time>2021-07-20T06:15:45.575Z</time>
      </trkpt>
      <trkpt lat="45.71477" lon="5.66931">
        <ele>237</ele>
        <time>2021-07-20T06:15:46.575Z</time>
      </trkpt>
      <trkpt lat="45.71473" lon="5.66937">
        <ele>236</ele>
        <time>2021-07-20T06:15:47.575Z</time>
      </trkpt>
      <trkpt lat="45.7147" lon="5.66944">
        <ele>236</ele>
        <time>2021-07-20T06:15:48.575Z</time>
      </trkpt>
      <trkpt lat="45.71466" lon="5.6695">
        <ele>236</ele>
        <time>2021-07-20T06:15:49.576Z</time>
      </trkpt>
      <trkpt lat="45.71463" lon="5.66956">
        <ele>236</ele>
        <time>2021-07-20T06:15:50.576Z</time>
      </trkpt>
      <trkpt lat="45.71459" lon="5.66963">
        <ele>235</ele>
        <time>2021-07-20T06:15:51.575Z</time>
      </trkpt>
      <trkpt lat="45.71456" lon="5.6697">
        <ele>235</ele>
        <time>2021-07-20T06:15:52.575Z</time>
      </trkpt>
      <trkpt lat="45.71451" lon="5.66977">
        <ele>235</ele>
        <time>2021-07-20T06:15:53.576Z</time>
      </trkpt>
      <trkpt lat="45.71448" lon="5.66983">
        <ele>235</ele>
        <time>2021-07-20T06:15:54.575Z</time>
      </trkpt>
      <trkpt lat="45.71445" lon="5.66989">
        <ele>235</ele>
        <time>2021-07-20T06:15:55.575Z</time>
      </trkpt>
      <trkpt lat="45.7144" lon="5.66997">
        <ele>235</ele>
        <time>2021-07-20T06:15:56.576Z</time>
      </trkpt>
      <trkpt lat="45.71438" lon="5.67005">
        <ele>235</ele>
        <time>2021-07-20T06:15:57.576Z</time>
      </trkpt>
      <trkpt lat="45.71434" lon="5.67014">
        <ele>235</ele>
        <time>2021-07-20T06:15:58.575Z</time>
      </trkpt>
      <trkpt lat="45.71431" lon="5.67023">
        <ele>235</ele>
        <time>2021-07-20T06:15:59.576Z</time>
      </trkpt>
      <trkpt lat="45.71428" lon="5.6703">
        <ele>236</ele>
        <time>2021-07-20T06:16:00.575Z</time>
      </trkpt>
      <trkpt lat="45.71424" lon="5.67039">
        <ele>236</ele>
        <time>2021-07-20T06:16:01.575Z</time>
      </trkpt>
      <trkpt lat="45.7142" lon="5.67046">
        <ele>236</ele>
        <time>2021-07-20T06:16:02.575Z</time>
      </trkpt>
      <trkpt lat="45.71417" lon="5.67053">
        <ele>236</ele>
        <time>2021-07-20T06:16:03.576Z</time>
      </trkpt>
      <trkpt lat="45.71414" lon="5.6706">
        <ele>237</ele>
        <time>2021-07-20T06:16:04.575Z</time>
      </trkpt>
      <trkpt lat="45.71411" lon="5.67067">
        <ele>237</ele>
        <time>2021-07-20T06:16:05.575Z</time>
      </trkpt>
      <trkpt lat="45.71405" lon="5.67075">
        <ele>237</ele>
        <time>2021-07-20T06:16:06.575Z</time>
      </trkpt>
      <trkpt lat="45.714" lon="5.67081">
        <ele>237</ele>
        <time>2021-07-20T06:16:07.575Z</time>
      </trkpt>
      <trkpt lat="45.71394" lon="5.67087">
        <ele>238</ele>
        <time>2021-07-20T06:16:08.575Z</time>
      </trkpt>
      <trkpt lat="45.7139" lon="5.67091">
        <ele>238</ele>
        <time>2021-07-20T06:16:09.576Z</time>
      </trkpt>
      <trkpt lat="45.71383" lon="5.67097">
        <ele>239</ele>
        <time>2021-07-20T06:16:10.576Z</time>
      </trkpt>
      <trkpt lat="45.71377" lon="5.67101">
        <ele>239</ele>
        <time>2021-07-20T06:16:11.575Z</time>
      </trkpt>
      <trkpt lat="45.7137" lon="5.67106">
        <ele>240</ele>
        <time>2021-07-20T06:16:12.575Z</time>
      </trkpt>
      <trkpt lat="45.71364" lon="5.67109">
        <ele>240</ele>
        <time>2021-07-20T06:16:13.575Z</time>
      </trkpt>
      <trkpt lat="45.71356" lon="5.67112">
        <ele>241</ele>
        <time>2021-07-20T06:16:14.575Z</time>
      </trkpt>
      <trkpt lat="45.71348" lon="5.67115">
        <ele>241</ele>
        <time>2021-07-20T06:16:15.575Z</time>
      </trkpt>
      <trkpt lat="45.7134" lon="5.67118">
        <ele>241</ele>
        <time>2021-07-20T06:16:16.575Z</time>
      </trkpt>
      <trkpt lat="45.71332" lon="5.67121">
        <ele>242</ele>
        <time>2021-07-20T06:16:17.575Z</time>
      </trkpt>
      <trkpt lat="45.71323" lon="5.67124">
        <ele>242</ele>
        <time>2021-07-20T06:16:18.576Z</time>
      </trkpt>
      <trkpt lat="45.71315" lon="5.67128">
        <ele>242</ele>
        <time>2021-07-20T06:16:19.575Z</time>
      </trkpt>
      <trkpt lat="45.71307" lon="5.67132">
        <ele>242</ele>
        <time>2021-07-20T06:16:20.575Z</time>
      </trkpt>
      <trkpt lat="45.71299" lon="5.67135">
        <ele>243</ele>
        <time>2021-07-20T06:16:21.575Z</time>
      </trkpt>
      <trkpt lat="45.71292" lon="5.6714">
        <ele>243</ele>
        <time>2021-07-20T06:16:22.575Z</time>
      </trkpt>
      <trkpt lat="45.71284" lon="5.67144">
        <ele>243</ele>
        <time>2021-07-20T06:16:23.575Z</time>
      </trkpt>
      <trkpt lat="45.71276" lon="5.67148">
        <ele>243</ele>
        <time>2021-07-20T06:16:24.576Z</time>
      </trkpt>
      <trkpt lat="45.71265" lon="5.67153">
        <ele>243</ele>
        <time>2021-07-20T06:16:25.575Z</time>
      </trkpt>
      <trkpt lat="45.71256" lon="5.67157">
        <ele>243</ele>
        <time>2021-07-20T06:16:26.575Z</time>
      </trkpt>
      <trkpt lat="45.71247" lon="5.67161">
        <ele>243</ele>
        <time>2021-07-20T06:16:27.575Z</time>
      </trkpt>
      <trkpt lat="45.7124" lon="5.67164">
        <ele>244</ele>
        <time>2021-07-20T06:16:28.575Z</time>
      </trkpt>
      <trkpt lat="45.71232" lon="5.6717">
        <ele>244</ele>
        <time>2021-07-20T06:16:29.575Z</time>
      </trkpt>
      <trkpt lat="45.71222" lon="5.67176">
        <ele>244</ele>
        <time>2021-07-20T06:16:30.575Z</time>
      </trkpt>
      <trkpt lat="45.71214" lon="5.67181">
        <ele>244</ele>
        <time>2021-07-20T06:16:31.575Z</time>
      </trkpt>
      <trkpt lat="45.71206" lon="5.67187">
        <ele>244</ele>
        <time>2021-07-20T06:16:32.575Z</time>
      </trkpt>
      <trkpt lat="45.71198" lon="5.67193">
        <ele>244</ele>
        <time>2021-07-20T06:16:33.576Z</time>
      </trkpt>
      <trkpt lat="45.71191" lon="5.67198">
        <ele>244</ele>
        <time>2021-07-20T06:16:34.576Z</time>
      </trkpt>
      <trkpt lat="45.71182" lon="5.67203">
        <ele>244</ele>
        <time>2021-07-20T06:16:35.576Z</time>
      </trkpt>
      <trkpt lat="45.71174" lon="5.67208">
        <ele>243</ele>
        <time>2021-07-20T06:16:36.576Z</time>
      </trkpt>
      <trkpt lat="45.71167" lon="5.67213">
        <ele>243</ele>
        <time>2021-07-20T06:16:37.576Z</time>
      </trkpt>
      <trkpt lat="45.71161" lon="5.67217">
        <ele>243</ele>
        <time>2021-07-20T06:16:38.575Z</time>
      </trkpt>
      <trkpt lat="45.71154" lon="5.67222">
        <ele>242</ele>
        <time>2021-07-20T06:16:39.575Z</time>
      </trkpt>
      <trkpt lat="45.71145" lon="5.67229">
        <ele>242</ele>
        <time>2021-07-20T06:16:40.576Z</time>
      </trkpt>
      <trkpt lat="45.71138" lon="5.67235">
        <ele>242</ele>
        <time>2021-07-20T06:16:41.576Z</time>
      </trkpt>
      <trkpt lat="45.71133" lon="5.67239">
        <ele>242</ele>
        <time>2021-07-20T06:16:42.576Z</time>
      </trkpt>
      <trkpt lat="45.71126" lon="5.67245">
        <ele>242</ele>
        <time>2021-07-20T06:16:43.575Z</time>
      </trkpt>
      <trkpt lat="45.71119" lon="5.6725">
        <ele>241</ele>
        <time>2021-07-20T06:16:44.575Z</time>
      </trkpt>
      <trkpt lat="45.71111" lon="5.67257">
        <ele>241</ele>
        <time>2021-07-20T06:16:45.575Z</time>
      </trkpt>
      <trkpt lat="45.71104" lon="5.67263">
        <ele>241</ele>
        <time>2021-07-20T06:16:46.575Z</time>
      </trkpt>
      <trkpt lat="45.71098" lon="5.6727">
        <ele>241</ele>
        <time>2021-07-20T06:16:47.576Z</time>
      </trkpt>
      <trkpt lat="45.71091" lon="5.67276">
        <ele>241</ele>
        <time>2021-07-20T06:16:48.575Z</time>
      </trkpt>
      <trkpt lat="45.71084" lon="5.67282">
        <ele>240</ele>
        <time>2021-07-20T06:16:49.575Z</time>
      </trkpt>
      <trkpt lat="45.71075" lon="5.67288">
        <ele>240</ele>
        <time>2021-07-20T06:16:50.576Z</time>
      </trkpt>
      <trkpt lat="45.71067" lon="5.67293">
        <ele>240</ele>
        <time>2021-07-20T06:16:51.576Z</time>
      </trkpt>
      <trkpt lat="45.71059" lon="5.67298">
        <ele>240</ele>
        <time>2021-07-20T06:16:52.575Z</time>
      </trkpt>
      <trkpt lat="45.71051" lon="5.67304">
        <ele>240</ele>
        <time>2021-07-20T06:16:53.575Z</time>
      </trkpt>
      <trkpt lat="45.71043" lon="5.6731">
        <ele>240</ele>
        <time>2021-07-20T06:16:54.575Z</time>
      </trkpt>
      <trkpt lat="45.71036" lon="5.67315">
        <ele>240</ele>
        <time>2021-07-20T06:16:55.575Z</time>
      </trkpt>
      <trkpt lat="45.71028" lon="5.67321">
        <ele>240</ele>
        <time>2021-07-20T06:16:56.575Z</time>
      </trkpt>
      <trkpt lat="45.7102" lon="5.67328">
        <ele>240</ele>
        <time>2021-07-20T06:16:57.576Z</time>
      </trkpt>
      <trkpt lat="45.71013" lon="5.67334">
        <ele>239</ele>
        <time>2021-07-20T06:16:58.576Z</time>
      </trkpt>
      <trkpt lat="45.71005" lon="5.67343">
        <ele>239</ele>
        <time>2021-07-20T06:16:59.575Z</time>
      </trkpt>
      <trkpt lat="45.71" lon="5.67349">
        <ele>239</ele>
        <time>2021-07-20T06:17:00.575Z</time>
      </trkpt>
      <trkpt lat="45.70993" lon="5.67357">
        <ele>238</ele>
        <time>2021-07-20T06:17:01.575Z</time>
      </trkpt>
      <trkpt lat="45.70986" lon="5.67364">
        <ele>238</ele>
        <time>2021-07-20T06:17:02.576Z</time>
      </trkpt>
      <trkpt lat="45.70979" lon="5.67373">
        <ele>238</ele>
        <time>2021-07-20T06:17:03.576Z</time>
      </trkpt>
      <trkpt lat="45.70973" lon="5.67381">
        <ele>237</ele>
        <time>2021-07-20T06:17:04.575Z</time>
      </trkpt>
      <trkpt lat="45.70966" lon="5.6739">
        <ele>237</ele>
        <time>2021-07-20T06:17:05.576Z</time>
      </trkpt>
      <trkpt lat="45.7096" lon="5.674">
        <ele>236</ele>
        <time>2021-07-20T06:17:06.576Z</time>
      </trkpt>
      <trkpt lat="45.70955" lon="5.67409">
        <ele>236</ele>
        <time>2021-07-20T06:17:07.575Z</time>
      </trkpt>
      <trkpt lat="45.70949" lon="5.67421">
        <ele>236</ele>
        <time>2021-07-20T06:17:08.575Z</time>
      </trkpt>
      <trkpt lat="45.70945" lon="5.67432">
        <ele>235</ele>
        <time>2021-07-20T06:17:09.575Z</time>
      </trkpt>
      <trkpt lat="45.70942" lon="5.67441">
        <ele>235</ele>
        <time>2021-07-20T06:17:10.576Z</time>
      </trkpt>
      <trkpt lat="45.70939" lon="5.67453">
        <ele>235</ele>
        <time>2021-07-20T06:17:11.575Z</time>
      </trkpt>
      <trkpt lat="45.70936" lon="5.67467">
        <ele>234</ele>
        <time>2021-07-20T06:17:12.575Z</time>
      </trkpt>
      <trkpt lat="45.70933" lon="5.67479">
        <ele>234</ele>
        <time>2021-07-20T06:17:13.575Z</time>
      </trkpt>
      <trkpt lat="45.70931" lon="5.67491">
        <ele>234</ele>
        <time>2021-07-20T06:17:14.575Z</time>
      </trkpt>
      <trkpt lat="45.70931" lon="5.67503">
        <ele>234</ele>
        <time>2021-07-20T06:17:15.576Z</time>
      </trkpt>
      <trkpt lat="45.70929" lon="5.67517">
        <ele>233</ele>
        <time>2021-07-20T06:17:16.575Z</time>
      </trkpt>
      <trkpt lat="45.70926" lon="5.67529">
        <ele>233</ele>
        <time>2021-07-20T06:17:17.575Z</time>
      </trkpt>
      <trkpt lat="45.70924" lon="5.67538">
        <ele>233</ele>
        <time>2021-07-20T06:17:18.575Z</time>
      </trkpt>
      <trkpt lat="45.70921" lon="5.67552">
        <ele>232</ele>
        <time>2021-07-20T06:17:19.575Z</time>
      </trkpt>
      <trkpt lat="45.70919" lon="5.67561">
        <ele>232</ele>
        <time>2021-07-20T06:17:20.575Z</time>
      </trkpt>
      <trkpt lat="45.70917" lon="5.67574">
        <ele>231</ele>
        <time>2021-07-20T06:17:21.575Z</time>
      </trkpt>
      <trkpt lat="45.70914" lon="5.67585">
        <ele>231</ele>
        <time>2021-07-20T06:17:22.575Z</time>
      </trkpt>
      <trkpt lat="45.70912" lon="5.67597">
        <ele>231</ele>
        <time>2021-07-20T06:17:23.575Z</time>
      </trkpt>
      <trkpt lat="45.70909" lon="5.67606">
        <ele>231</ele>
        <time>2021-07-20T06:17:24.575Z</time>
      </trkpt>
      <trkpt lat="45.70905" lon="5.67616">
        <ele>231</ele>
        <time>2021-07-20T06:17:25.575Z</time>
      </trkpt>
      <trkpt lat="45.709" lon="5.67624">
        <ele>231</ele>
        <time>2021-07-20T06:17:26.575Z</time>
      </trkpt>
      <trkpt lat="45.70895" lon="5.67634">
        <ele>231</ele>
        <time>2021-07-20T06:17:27.576Z</time>
      </trkpt>
      <trkpt lat="45.70893" lon="5.67641">
        <ele>231</ele>
        <time>2021-07-20T06:17:28.575Z</time>
      </trkpt>
      <trkpt lat="45.70894" lon="5.67647">
        <ele>232</ele>
        <time>2021-07-20T06:17:29.575Z</time>
      </trkpt>
      <trkpt lat="45.70895" lon="5.67655">
        <ele>232</ele>
        <time>2021-07-20T06:17:30.575Z</time>
      </trkpt>
      <trkpt lat="45.70897" lon="5.6766">
        <ele>232</ele>
        <time>2021-07-20T06:17:31.576Z</time>
      </trkpt>
      <trkpt lat="45.709" lon="5.67667">
        <ele>232</ele>
        <time>2021-07-20T06:17:32.575Z</time>
      </trkpt>
      <trkpt lat="45.70902" lon="5.67672">
        <ele>232</ele>
        <time>2021-07-20T06:17:33.576Z</time>
      </trkpt>
      <trkpt lat="45.70905" lon="5.67679">
        <ele>231</ele>
        <time>2021-07-20T06:17:34.575Z</time>
      </trkpt>
      <trkpt lat="45.70907" lon="5.67688">
        <ele>231</ele>
        <time>2021-07-20T06:17:35.576Z</time>
      </trkpt>
      <trkpt lat="45.70909" lon="5.67698">
        <ele>230</ele>
        <time>2021-07-20T06:17:36.576Z</time>
      </trkpt>
      <trkpt lat="45.70911" lon="5.6771">
        <ele>230</ele>
        <time>2021-07-20T06:17:37.575Z</time>
      </trkpt>
      <trkpt lat="45.70912" lon="5.67719">
        <ele>229</ele>
        <time>2021-07-20T06:17:38.575Z</time>
      </trkpt>
      <trkpt lat="45.70913" lon="5.6773">
        <ele>228</ele>
        <time>2021-07-20T06:17:39.576Z</time>
      </trkpt>
      <trkpt lat="45.70914" lon="5.67744">
        <ele>227</ele>
        <time>2021-07-20T06:17:40.576Z</time>
      </trkpt>
      <trkpt lat="45.70914" lon="5.67753">
        <ele>227</ele>
        <time>2021-07-20T06:17:41.575Z</time>
      </trkpt>
      <trkpt lat="45.70914" lon="5.67767">
        <ele>227</ele>
        <time>2021-07-20T06:17:42.576Z</time>
      </trkpt>
      <trkpt lat="45.70914" lon="5.67776">
        <ele>228</ele>
        <time>2021-07-20T06:17:43.575Z</time>
      </trkpt>
      <trkpt lat="45.70914" lon="5.67788">
        <ele>228</ele>
        <time>2021-07-20T06:17:44.575Z</time>
      </trkpt>
      <trkpt lat="45.70914" lon="5.67802">
        <ele>228</ele>
        <time>2021-07-20T06:17:45.575Z</time>
      </trkpt>
      <trkpt lat="45.70914" lon="5.67813">
        <ele>228</ele>
        <time>2021-07-20T06:17:46.576Z</time>
      </trkpt>
      <trkpt lat="45.70914" lon="5.67823">
        <ele>227</ele>
        <time>2021-07-20T06:17:47.575Z</time>
      </trkpt>
      <trkpt lat="45.70914" lon="5.67834">
        <ele>227</ele>
        <time>2021-07-20T06:17:48.576Z</time>
      </trkpt>
      <trkpt lat="45.70913" lon="5.67848">
        <ele>227</ele>
        <time>2021-07-20T06:17:49.575Z</time>
      </trkpt>
      <trkpt lat="45.70913" lon="5.67857">
        <ele>227</ele>
        <time>2021-07-20T06:17:50.575Z</time>
      </trkpt>
      <trkpt lat="45.70913" lon="5.67868">
        <ele>227</ele>
        <time>2021-07-20T06:17:51.575Z</time>
      </trkpt>
      <trkpt lat="45.70913" lon="5.67879">
        <ele>227</ele>
        <time>2021-07-20T06:17:52.576Z</time>
      </trkpt>
      <trkpt lat="45.70912" lon="5.67889">
        <ele>226</ele>
        <time>2021-07-20T06:17:53.575Z</time>
      </trkpt>
      <trkpt lat="45.70912" lon="5.679">
        <ele>226</ele>
        <time>2021-07-20T06:17:54.576Z</time>
      </trkpt>
      <trkpt lat="45.70911" lon="5.6791">
        <ele>226</ele>
        <time>2021-07-20T06:17:55.576Z</time>
      </trkpt>
      <trkpt lat="45.70911" lon="5.67921">
        <ele>225</ele>
        <time>2021-07-20T06:17:56.576Z</time>
      </trkpt>
      <trkpt lat="45.7091" lon="5.67933">
        <ele>225</ele>
        <time>2021-07-20T06:17:57.575Z</time>
      </trkpt>
      <trkpt lat="45.7091" lon="5.67944">
        <ele>225</ele>
        <time>2021-07-20T06:17:58.575Z</time>
      </trkpt>
      <trkpt lat="45.7091" lon="5.67955">
        <ele>224</ele>
        <time>2021-07-20T06:17:59.575Z</time>
      </trkpt>
      <trkpt lat="45.7091" lon="5.67967">
        <ele>224</ele>
        <time>2021-07-20T06:18:00.576Z</time>
      </trkpt>
      <trkpt lat="45.7091" lon="5.67978">
        <ele>224</ele>
        <time>2021-07-20T06:18:01.575Z</time>
      </trkpt>
      <trkpt lat="45.7091" lon="5.67989">
        <ele>224</ele>
        <time>2021-07-20T06:18:02.575Z</time>
      </trkpt>
      <trkpt lat="45.70911" lon="5.68">
        <ele>224</ele>
        <time>2021-07-20T06:18:03.576Z</time>
      </trkpt>
      <trkpt lat="45.70911" lon="5.6801">
        <ele>224</ele>
        <time>2021-07-20T06:18:04.576Z</time>
      </trkpt>
      <trkpt lat="45.70912" lon="5.68021">
        <ele>224</ele>
        <time>2021-07-20T06:18:05.575Z</time>
      </trkpt>
      <trkpt lat="45.70914" lon="5.68031">
        <ele>224</ele>
        <time>2021-07-20T06:18:06.575Z</time>
      </trkpt>
      <trkpt lat="45.70915" lon="5.68041">
        <ele>224</ele>
        <time>2021-07-20T06:18:07.575Z</time>
      </trkpt>
      <trkpt lat="45.70916" lon="5.68052">
        <ele>224</ele>
        <time>2021-07-20T06:18:08.575Z</time>
      </trkpt>
      <trkpt lat="45.70917" lon="5.68063">
        <ele>224</ele>
        <time>2021-07-20T06:18:09.576Z</time>
      </trkpt>
      <trkpt lat="45.70918" lon="5.68074">
        <ele>224</ele>
        <time>2021-07-20T06:18:10.576Z</time>
      </trkpt>
      <trkpt lat="45.70918" lon="5.68085">
        <ele>224</ele>
        <time>2021-07-20T06:18:11.576Z</time>
      </trkpt>
      <trkpt lat="45.70919" lon="5.68095">
        <ele>224</ele>
        <time>2021-07-20T06:18:12.575Z</time>
      </trkpt>
      <trkpt lat="45.7092" lon="5.68106">
        <ele>224</ele>
        <time>2021-07-20T06:18:13.575Z</time>
      </trkpt>
      <trkpt lat="45.70921" lon="5.68117">
        <ele>224</ele>
        <time>2021-07-20T06:18:14.576Z</time>
      </trkpt>
      <trkpt lat="45.70923" lon="5.68127">
        <ele>224</ele>
        <time>2021-07-20T06:18:15.576Z</time>
      </trkpt>
      <trkpt lat="45.70924" lon="5.68137">
        <ele>224</ele>
        <time>2021-07-20T06:18:16.575Z</time>
      </trkpt>
      <trkpt lat="45.70925" lon="5.68148">
        <ele>224</ele>
        <time>2021-07-20T06:18:17.576Z</time>
      </trkpt>
      <trkpt lat="45.70927" lon="5.68157">
        <ele>224</ele>
        <time>2021-07-20T06:18:18.575Z</time>
      </trkpt>
      <trkpt lat="45.70929" lon="5.68167">
        <ele>224</ele>
        <time>2021-07-20T06:18:19.575Z</time>
      </trkpt>
      <trkpt lat="45.70931" lon="5.68175">
        <ele>224</ele>
        <time>2021-07-20T06:18:20.576Z</time>
      </trkpt>
      <trkpt lat="45.70934" lon="5.68183">
        <ele>225</ele>
        <time>2021-07-20T06:18:21.575Z</time>
      </trkpt>
      <trkpt lat="45.70937" lon="5.68191">
        <ele>225</ele>
        <time>2021-07-20T06:18:22.575Z</time>
      </trkpt>
      <trkpt lat="45.70941" lon="5.68197">
        <ele>225</ele>
        <time>2021-07-20T06:18:23.576Z</time>
      </trkpt>
      <trkpt lat="45.70946" lon="5.68203">
        <ele>225</ele>
        <time>2021-07-20T06:18:24.575Z</time>
      </trkpt>
      <trkpt lat="45.7095" lon="5.68208">
        <ele>225</ele>
        <time>2021-07-20T06:18:25.575Z</time>
      </trkpt>
      <trkpt lat="45.70955" lon="5.68214">
        <ele>225</ele>
        <time>2021-07-20T06:18:26.575Z</time>
      </trkpt>
      <trkpt lat="45.7096" lon="5.6822">
        <ele>225</ele>
        <time>2021-07-20T06:18:27.575Z</time>
      </trkpt>
      <trkpt lat="45.70964" lon="5.68226">
        <ele>225</ele>
        <time>2021-07-20T06:18:28.575Z</time>
      </trkpt>
      <trkpt lat="45.70968" lon="5.68233">
        <ele>225</ele>
        <time>2021-07-20T06:18:29.576Z</time>
      </trkpt>
      <trkpt lat="45.70972" lon="5.6824">
        <ele>225</ele>
        <time>2021-07-20T06:18:30.575Z</time>
      </trkpt>
      <trkpt lat="45.70975" lon="5.68247">
        <ele>225</ele>
        <time>2021-07-20T06:18:31.575Z</time>
      </trkpt>
      <trkpt lat="45.70977" lon="5.68255">
        <ele>225</ele>
        <time>2021-07-20T06:18:32.575Z</time>
      </trkpt>
      <trkpt lat="45.70979" lon="5.68263">
        <ele>225</ele>
        <time>2021-07-20T06:18:33.575Z</time>
      </trkpt>
      <trkpt lat="45.70981" lon="5.68271">
        <ele>226</ele>
        <time>2021-07-20T06:18:34.576Z</time>
      </trkpt>
      <trkpt lat="45.70982" lon="5.68279">
        <ele>226</ele>
        <time>2021-07-20T06:18:35.576Z</time>
      </trkpt>
      <trkpt lat="45.70983" lon="5.68287">
        <ele>226</ele>
        <time>2021-07-20T06:18:36.575Z</time>
      </trkpt>
      <trkpt lat="45.70984" lon="5.68296">
        <ele>226</ele>
        <time>2021-07-20T06:18:37.576Z</time>
      </trkpt>
      <trkpt lat="45.70984" lon="5.68305">
        <ele>227</ele>
        <time>2021-07-20T06:18:38.575Z</time>
      </trkpt>
      <trkpt lat="45.70983" lon="5.68314">
        <ele>227</ele>
        <time>2021-07-20T06:18:39.575Z</time>
      </trkpt>
      <trkpt lat="45.70982" lon="5.68323">
        <ele>227</ele>
        <time>2021-07-20T06:18:40.575Z</time>
      </trkpt>
      <trkpt lat="45.7098" lon="5.68331">
        <ele>228</ele>
        <time>2021-07-20T06:18:41.575Z</time>
      </trkpt>
      <trkpt lat="45.70979" lon="5.68341">
        <ele>228</ele>
        <time>2021-07-20T06:18:42.575Z</time>
      </trkpt>
      <trkpt lat="45.70977" lon="5.6835">
        <ele>228</ele>
        <time>2021-07-20T06:18:43.575Z</time>
      </trkpt>
      <trkpt lat="45.70976" lon="5.6836">
        <ele>229</ele>
        <time>2021-07-20T06:18:44.575Z</time>
      </trkpt>
      <trkpt lat="45.70976" lon="5.6837">
        <ele>229</ele>
        <time>2021-07-20T06:18:45.575Z</time>
      </trkpt>
      <trkpt lat="45.70975" lon="5.68379">
        <ele>230</ele>
        <time>2021-07-20T06:18:46.575Z</time>
      </trkpt>
      <trkpt lat="45.70974" lon="5.68389">
        <ele>230</ele>
        <time>2021-07-20T06:18:47.576Z</time>
      </trkpt>
      <trkpt lat="45.70974" lon="5.68398">
        <ele>230</ele>
        <time>2021-07-20T06:18:48.575Z</time>
      </trkpt>
      <trkpt lat="45.70973" lon="5.68407">
        <ele>231</ele>
        <time>2021-07-20T06:18:49.575Z</time>
      </trkpt>
      <trkpt lat="45.70973" lon="5.68416">
        <ele>231</ele>
        <time>2021-07-20T06:18:50.575Z</time>
      </trkpt>
      <trkpt lat="45.70972" lon="5.68425">
        <ele>231</ele>
        <time>2021-07-20T06:18:51.575Z</time>
      </trkpt>
      <trkpt lat="45.70971" lon="5.68433">
        <ele>231</ele>
        <time>2021-07-20T06:18:52.576Z</time>
      </trkpt>
      <trkpt lat="45.70969" lon="5.68442">
        <ele>231</ele>
        <time>2021-07-20T06:18:53.575Z</time>
      </trkpt>
      <trkpt lat="45.70967" lon="5.6845">
        <ele>231</ele>
        <time>2021-07-20T06:18:54.575Z</time>
      </trkpt>
      <trkpt lat="45.70964" lon="5.68458">
        <ele>231</ele>
        <time>2021-07-20T06:18:55.575Z</time>
      </trkpt>
      <trkpt lat="45.70959" lon="5.68467">
        <ele>231</ele>
        <time>2021-07-20T06:18:56.575Z</time>
      </trkpt>
      <trkpt lat="45.70954" lon="5.68475">
        <ele>231</ele>
        <time>2021-07-20T06:18:57.575Z</time>
      </trkpt>
      <trkpt lat="45.70949" lon="5.68483">
        <ele>231</ele>
        <time>2021-07-20T06:18:58.575Z</time>
      </trkpt>
      <trkpt lat="45.70943" lon="5.68491">
        <ele>231</ele>
        <time>2021-07-20T06:18:59.575Z</time>
      </trkpt>
      <trkpt lat="45.70937" lon="5.685">
        <ele>230</ele>
        <time>2021-07-20T06:19:00.575Z</time>
      </trkpt>
      <trkpt lat="45.70931" lon="5.68509">
        <ele>230</ele>
        <time>2021-07-20T06:19:01.575Z</time>
      </trkpt>
      <trkpt lat="45.70925" lon="5.68519">
        <ele>230</ele>
        <time>2021-07-20T06:19:02.575Z</time>
      </trkpt>
      <trkpt lat="45.70919" lon="5.68529">
        <ele>230</ele>
        <time>2021-07-20T06:19:03.575Z</time>
      </trkpt>
      <trkpt lat="45.70914" lon="5.6854">
        <ele>230</ele>
        <time>2021-07-20T06:19:04.575Z</time>
      </trkpt>
      <trkpt lat="45.7091" lon="5.68551">
        <ele>229</ele>
        <time>2021-07-20T06:19:05.575Z</time>
      </trkpt>
      <trkpt lat="45.70905" lon="5.68562">
        <ele>229</ele>
        <time>2021-07-20T06:19:06.575Z</time>
      </trkpt>
      <trkpt lat="45.70901" lon="5.68573">
        <ele>229</ele>
        <time>2021-07-20T06:19:07.575Z</time>
      </trkpt>
      <trkpt lat="45.70897" lon="5.68588">
        <ele>229</ele>
        <time>2021-07-20T06:19:08.575Z</time>
      </trkpt>
      <trkpt lat="45.70894" lon="5.686">
        <ele>229</ele>
        <time>2021-07-20T06:19:09.575Z</time>
      </trkpt>
      <trkpt lat="45.70891" lon="5.68612">
        <ele>228</ele>
        <time>2021-07-20T06:19:10.575Z</time>
      </trkpt>
      <trkpt lat="45.70889" lon="5.68622">
        <ele>228</ele>
        <time>2021-07-20T06:19:11.576Z</time>
      </trkpt>
      <trkpt lat="45.70887" lon="5.68635">
        <ele>227</ele>
        <time>2021-07-20T06:19:12.575Z</time>
      </trkpt>
      <trkpt lat="45.70885" lon="5.68647">
        <ele>226</ele>
        <time>2021-07-20T06:19:13.575Z</time>
      </trkpt>
      <trkpt lat="45.70883" lon="5.68662">
        <ele>226</ele>
        <time>2021-07-20T06:19:14.575Z</time>
      </trkpt>
      <trkpt lat="45.70883" lon="5.68675">
        <ele>226</ele>
        <time>2021-07-20T06:19:15.576Z</time>
      </trkpt>
      <trkpt lat="45.70883" lon="5.68685">
        <ele>225</ele>
        <time>2021-07-20T06:19:16.576Z</time>
      </trkpt>
      <trkpt lat="45.70884" lon="5.68699">
        <ele>225</ele>
        <time>2021-07-20T06:19:17.575Z</time>
      </trkpt>
      <trkpt lat="45.70886" lon="5.68711">
        <ele>225</ele>
        <time>2021-07-20T06:19:18.575Z</time>
      </trkpt>
      <trkpt lat="45.70887" lon="5.68723">
        <ele>224</ele>
        <time>2021-07-20T06:19:19.575Z</time>
      </trkpt>
      <trkpt lat="45.70889" lon="5.68733">
        <ele>224</ele>
        <time>2021-07-20T06:19:20.575Z</time>
      </trkpt>
      <trkpt lat="45.70891" lon="5.68745">
        <ele>224</ele>
        <time>2021-07-20T06:19:21.575Z</time>
      </trkpt>
      <trkpt lat="45.70893" lon="5.68756">
        <ele>223</ele>
        <time>2021-07-20T06:19:22.575Z</time>
      </trkpt>
      <trkpt lat="45.70895" lon="5.68767">
        <ele>224</ele>
        <time>2021-07-20T06:19:23.575Z</time>
      </trkpt>
      <trkpt lat="45.70898" lon="5.68778">
        <ele>224</ele>
        <time>2021-07-20T06:19:24.575Z</time>
      </trkpt>
      <trkpt lat="45.709" lon="5.68789">
        <ele>224</ele>
        <time>2021-07-20T06:19:25.575Z</time>
      </trkpt>
      <trkpt lat="45.70902" lon="5.688">
        <ele>224</ele>
        <time>2021-07-20T06:19:26.576Z</time>
      </trkpt>
      <trkpt lat="45.70904" lon="5.6881">
        <ele>224</ele>
        <time>2021-07-20T06:19:27.575Z</time>
      </trkpt>
      <trkpt lat="45.70905" lon="5.68821">
        <ele>224</ele>
        <time>2021-07-20T06:19:28.575Z</time>
      </trkpt>
      <trkpt lat="45.70906" lon="5.68831">
        <ele>224</ele>
        <time>2021-07-20T06:19:29.575Z</time>
      </trkpt>
      <trkpt lat="45.70907" lon="5.68842">
        <ele>225</ele>
        <time>2021-07-20T06:19:30.576Z</time>
      </trkpt>
      <trkpt lat="45.70907" lon="5.68853">
        <ele>225</ele>
        <time>2021-07-20T06:19:31.575Z</time>
      </trkpt>
      <trkpt lat="45.70906" lon="5.68867">
        <ele>225</ele>
        <time>2021-07-20T06:19:32.575Z</time>
      </trkpt>
      <trkpt lat="45.70905" lon="5.68878">
        <ele>225</ele>
        <time>2021-07-20T06:19:33.576Z</time>
      </trkpt>
      <trkpt lat="45.70904" lon="5.68889">
        <ele>226</ele>
        <time>2021-07-20T06:19:34.575Z</time>
      </trkpt>
      <trkpt lat="45.70903" lon="5.68898">
        <ele>226</ele>
        <time>2021-07-20T06:19:35.575Z</time>
      </trkpt>
      <trkpt lat="45.70902" lon="5.68909">
        <ele>226</ele>
        <time>2021-07-20T06:19:36.575Z</time>
      </trkpt>
      <trkpt lat="45.70901" lon="5.68922">
        <ele>226</ele>
        <time>2021-07-20T06:19:37.575Z</time>
      </trkpt>
      <trkpt lat="45.709" lon="5.68933">
        <ele>226</ele>
        <time>2021-07-20T06:19:38.575Z</time>
      </trkpt>
      <trkpt lat="45.709" lon="5.68942">
        <ele>226</ele>
        <time>2021-07-20T06:19:39.575Z</time>
      </trkpt>
      <trkpt lat="45.709" lon="5.68953">
        <ele>225</ele>
        <time>2021-07-20T06:19:40.575Z</time>
      </trkpt>
      <trkpt lat="45.70899" lon="5.68963">
        <ele>226</ele>
        <time>2021-07-20T06:19:41.575Z</time>
      </trkpt>
      <trkpt lat="45.70897" lon="5.68974">
        <ele>225</ele>
        <time>2021-07-20T06:19:42.575Z</time>
      </trkpt>
      <trkpt lat="45.70894" lon="5.68984">
        <ele>225</ele>
        <time>2021-07-20T06:19:43.575Z</time>
      </trkpt>
      <trkpt lat="45.70892" lon="5.68995">
        <ele>225</ele>
        <time>2021-07-20T06:19:44.575Z</time>
      </trkpt>
      <trkpt lat="45.70889" lon="5.69006">
        <ele>225</ele>
        <time>2021-07-20T06:19:45.575Z</time>
      </trkpt>
      <trkpt lat="45.70887" lon="5.69017">
        <ele>225</ele>
        <time>2021-07-20T06:19:46.576Z</time>
      </trkpt>
      <trkpt lat="45.70885" lon="5.69028">
        <ele>225</ele>
        <time>2021-07-20T06:19:47.575Z</time>
      </trkpt>
      <trkpt lat="45.70883" lon="5.6904">
        <ele>226</ele>
        <time>2021-07-20T06:19:48.575Z</time>
      </trkpt>
      <trkpt lat="45.70883" lon="5.69052">
        <ele>226</ele>
        <time>2021-07-20T06:19:49.575Z</time>
      </trkpt>
      <trkpt lat="45.70883" lon="5.69066">
        <ele>226</ele>
        <time>2021-07-20T06:19:50.576Z</time>
      </trkpt>
      <trkpt lat="45.70884" lon="5.69075">
        <ele>225</ele>
        <time>2021-07-20T06:19:51.575Z</time>
      </trkpt>
      <trkpt lat="45.70887" lon="5.69089">
        <ele>224</ele>
        <time>2021-07-20T06:19:52.575Z</time>
      </trkpt>
      <trkpt lat="45.7089" lon="5.69097">
        <ele>224</ele>
        <time>2021-07-20T06:19:53.575Z</time>
      </trkpt>
      <trkpt lat="45.70894" lon="5.69108">
        <ele>223</ele>
        <time>2021-07-20T06:19:54.576Z</time>
      </trkpt>
      <trkpt lat="45.70898" lon="5.6912">
        <ele>223</ele>
        <time>2021-07-20T06:19:55.575Z</time>
      </trkpt>
      <trkpt lat="45.70902" lon="5.69128">
        <ele>223</ele>
        <time>2021-07-20T06:19:56.575Z</time>
      </trkpt>
      <trkpt lat="45.70907" lon="5.69138">
        <ele>224</ele>
        <time>2021-07-20T06:19:57.575Z</time>
      </trkpt>
      <trkpt lat="45.70912" lon="5.69146">
        <ele>224</ele>
        <time>2021-07-20T06:19:58.575Z</time>
      </trkpt>
      <trkpt lat="45.70918" lon="5.69157">
        <ele>225</ele>
        <time>2021-07-20T06:19:59.575Z</time>
      </trkpt>
      <trkpt lat="45.70924" lon="5.69164">
        <ele>225</ele>
        <time>2021-07-20T06:20:00.575Z</time>
      </trkpt>
      <trkpt lat="45.7093" lon="5.69172">
        <ele>225</ele>
        <time>2021-07-20T06:20:01.575Z</time>
      </trkpt>
      <trkpt lat="45.70936" lon="5.69179">
        <ele>226</ele>
        <time>2021-07-20T06:20:02.575Z</time>
      </trkpt>
      <trkpt lat="45.7094" lon="5.69184">
        <ele>226</ele>
        <time>2021-07-20T06:20:03.575Z</time>
      </trkpt>
      <trkpt lat="45.70946" lon="5.69191">
        <ele>226</ele>
        <time>2021-07-20T06:20:04.575Z</time>
      </trkpt>
      <trkpt lat="45.70952" lon="5.69199">
        <ele>226</ele>
        <time>2021-07-20T06:20:05.575Z</time>
      </trkpt>
      <trkpt lat="45.70958" lon="5.69206">
        <ele>227</ele>
        <time>2021-07-20T06:20:06.575Z</time>
      </trkpt>
      <trkpt lat="45.70963" lon="5.69212">
        <ele>227</ele>
        <time>2021-07-20T06:20:07.575Z</time>
      </trkpt>
      <trkpt lat="45.70968" lon="5.6922">
        <ele>227</ele>
        <time>2021-07-20T06:20:08.575Z</time>
      </trkpt>
      <trkpt lat="45.70974" lon="5.69227">
        <ele>227</ele>
        <time>2021-07-20T06:20:09.575Z</time>
      </trkpt>
      <trkpt lat="45.70979" lon="5.69235">
        <ele>227</ele>
        <time>2021-07-20T06:20:10.576Z</time>
      </trkpt>
      <trkpt lat="45.70984" lon="5.69243">
        <ele>227</ele>
        <time>2021-07-20T06:20:11.576Z</time>
      </trkpt>
      <trkpt lat="45.7099" lon="5.69251">
        <ele>228</ele>
        <time>2021-07-20T06:20:12.576Z</time>
      </trkpt>
      <trkpt lat="45.70995" lon="5.69259">
        <ele>228</ele>
        <time>2021-07-20T06:20:13.575Z</time>
      </trkpt>
      <trkpt lat="45.71" lon="5.69267">
        <ele>228</ele>
        <time>2021-07-20T06:20:14.575Z</time>
      </trkpt>
      <trkpt lat="45.71005" lon="5.69275">
        <ele>228</ele>
        <time>2021-07-20T06:20:15.575Z</time>
      </trkpt>
      <trkpt lat="45.71009" lon="5.69284">
        <ele>228</ele>
        <time>2021-07-20T06:20:16.575Z</time>
      </trkpt>
      <trkpt lat="45.71013" lon="5.69293">
        <ele>228</ele>
        <time>2021-07-20T06:20:17.576Z</time>
      </trkpt>
      <trkpt lat="45.71017" lon="5.69302">
        <ele>228</ele>
        <time>2021-07-20T06:20:18.575Z</time>
      </trkpt>
      <trkpt lat="45.7102" lon="5.69312">
        <ele>228</ele>
        <time>2021-07-20T06:20:19.575Z</time>
      </trkpt>
      <trkpt lat="45.71023" lon="5.69321">
        <ele>228</ele>
        <time>2021-07-20T06:20:20.576Z</time>
      </trkpt>
      <trkpt lat="45.71026" lon="5.69331">
        <ele>228</ele>
        <time>2021-07-20T06:20:21.576Z</time>
      </trkpt>
      <trkpt lat="45.71029" lon="5.69341">
        <ele>228</ele>
        <time>2021-07-20T06:20:22.575Z</time>
      </trkpt>
      <trkpt lat="45.71031" lon="5.6935">
        <ele>228</ele>
        <time>2021-07-20T06:20:23.575Z</time>
      </trkpt>
      <trkpt lat="45.71034" lon="5.6936">
        <ele>228</ele>
        <time>2021-07-20T06:20:24.575Z</time>
      </trkpt>
      <trkpt lat="45.71037" lon="5.6937">
        <ele>228</ele>
        <time>2021-07-20T06:20:25.575Z</time>
      </trkpt>
      <trkpt lat="45.71039" lon="5.69379">
        <ele>228</ele>
        <time>2021-07-20T06:20:26.575Z</time>
      </trkpt>
      <trkpt lat="45.71042" lon="5.69389">
        <ele>228</ele>
        <time>2021-07-20T06:20:27.576Z</time>
      </trkpt>
      <trkpt lat="45.71045" lon="5.69399">
        <ele>227</ele>
        <time>2021-07-20T06:20:28.575Z</time>
      </trkpt>
      <trkpt lat="45.71048" lon="5.69409">
        <ele>227</ele>
        <time>2021-07-20T06:20:29.575Z</time>
      </trkpt>
      <trkpt lat="45.71051" lon="5.69419">
        <ele>227</ele>
        <time>2021-07-20T06:20:30.575Z</time>
      </trkpt>
      <trkpt lat="45.71054" lon="5.69428">
        <ele>227</ele>
        <time>2021-07-20T06:20:31.575Z</time>
      </trkpt>
      <trkpt lat="45.71058" lon="5.69438">
        <ele>227</ele>
        <time>2021-07-20T06:20:32.575Z</time>
      </trkpt>
      <trkpt lat="45.71061" lon="5.69448">
        <ele>227</ele>
        <time>2021-07-20T06:20:33.575Z</time>
      </trkpt>
      <trkpt lat="45.71065" lon="5.69458">
        <ele>227</ele>
        <time>2021-07-20T06:20:34.575Z</time>
      </trkpt>
      <trkpt lat="45.71068" lon="5.69468">
        <ele>227</ele>
        <time>2021-07-20T06:20:35.576Z</time>
      </trkpt>
      <trkpt lat="45.71072" lon="5.69477">
        <ele>227</ele>
        <time>2021-07-20T06:20:36.576Z</time>
      </trkpt>
      <trkpt lat="45.71075" lon="5.69487">
        <ele>228</ele>
        <time>2021-07-20T06:20:37.576Z</time>
      </trkpt>
      <trkpt lat="45.71079" lon="5.69497">
        <ele>228</ele>
        <time>2021-07-20T06:20:38.575Z</time>
      </trkpt>
      <trkpt lat="45.71083" lon="5.69506">
        <ele>228</ele>
        <time>2021-07-20T06:20:39.575Z</time>
      </trkpt>
      <trkpt lat="45.71087" lon="5.69516">
        <ele>229</ele>
        <time>2021-07-20T06:20:40.575Z</time>
      </trkpt>
      <trkpt lat="45.71092" lon="5.69526">
        <ele>229</ele>
        <time>2021-07-20T06:20:41.575Z</time>
      </trkpt>
      <trkpt lat="45.71096" lon="5.69535">
        <ele>229</ele>
        <time>2021-07-20T06:20:42.576Z</time>
      </trkpt>
      <trkpt lat="45.71101" lon="5.69545">
        <ele>229</ele>
        <time>2021-07-20T06:20:43.575Z</time>
      </trkpt>
      <trkpt lat="45.71106" lon="5.69555">
        <ele>229</ele>
        <time>2021-07-20T06:20:44.575Z</time>
      </trkpt>
      <trkpt lat="45.71111" lon="5.69565">
        <ele>229</ele>
        <time>2021-07-20T06:20:45.575Z</time>
      </trkpt>
      <trkpt lat="45.71116" lon="5.69575">
        <ele>229</ele>
        <time>2021-07-20T06:20:46.575Z</time>
      </trkpt>
      <trkpt lat="45.7112" lon="5.69586">
        <ele>228</ele>
        <time>2021-07-20T06:20:47.575Z</time>
      </trkpt>
      <trkpt lat="45.71125" lon="5.69597">
        <ele>228</ele>
        <time>2021-07-20T06:20:48.575Z</time>
      </trkpt>
      <trkpt lat="45.7113" lon="5.69607">
        <ele>227</ele>
        <time>2021-07-20T06:20:49.576Z</time>
      </trkpt>
      <trkpt lat="45.71136" lon="5.69617">
        <ele>227</ele>
        <time>2021-07-20T06:20:50.575Z</time>
      </trkpt>
      <trkpt lat="45.71142" lon="5.69625">
        <ele>226</ele>
        <time>2021-07-20T06:20:51.575Z</time>
      </trkpt>
      <trkpt lat="45.71149" lon="5.69633">
        <ele>226</ele>
        <time>2021-07-20T06:20:52.575Z</time>
      </trkpt>
      <trkpt lat="45.71156" lon="5.69639">
        <ele>226</ele>
        <time>2021-07-20T06:20:53.575Z</time>
      </trkpt>
      <trkpt lat="45.71164" lon="5.69644">
        <ele>226</ele>
        <time>2021-07-20T06:20:54.575Z</time>
      </trkpt>
      <trkpt lat="45.71172" lon="5.69648">
        <ele>226</ele>
        <time>2021-07-20T06:20:55.575Z</time>
      </trkpt>
      <trkpt lat="45.7118" lon="5.69652">
        <ele>226</ele>
        <time>2021-07-20T06:20:56.576Z</time>
      </trkpt>
      <trkpt lat="45.71188" lon="5.69655">
        <ele>227</ele>
        <time>2021-07-20T06:20:57.575Z</time>
      </trkpt>
      <trkpt lat="45.71196" lon="5.69658">
        <ele>227</ele>
        <time>2021-07-20T06:20:58.575Z</time>
      </trkpt>
      <trkpt lat="45.71204" lon="5.6966">
        <ele>227</ele>
        <time>2021-07-20T06:20:59.575Z</time>
      </trkpt>
      <trkpt lat="45.71212" lon="5.69662">
        <ele>227</ele>
        <time>2021-07-20T06:21:00.575Z</time>
      </trkpt>
      <trkpt lat="45.7122" lon="5.69664">
        <ele>228</ele>
        <time>2021-07-20T06:21:01.576Z</time>
      </trkpt>
      <trkpt lat="45.71227" lon="5.69666">
        <ele>228</ele>
        <time>2021-07-20T06:21:02.576Z</time>
      </trkpt>
      <trkpt lat="45.71235" lon="5.69669">
        <ele>228</ele>
        <time>2021-07-20T06:21:03.575Z</time>
      </trkpt>
      <trkpt lat="45.71243" lon="5.69671">
        <ele>228</ele>
        <time>2021-07-20T06:21:04.575Z</time>
      </trkpt>
      <trkpt lat="45.7125" lon="5.69673">
        <ele>228</ele>
        <time>2021-07-20T06:21:05.575Z</time>
      </trkpt>
      <trkpt lat="45.71258" lon="5.69674">
        <ele>228</ele>
        <time>2021-07-20T06:21:06.575Z</time>
      </trkpt>
      <trkpt lat="45.71266" lon="5.69676">
        <ele>228</ele>
        <time>2021-07-20T06:21:07.576Z</time>
      </trkpt>
      <trkpt lat="45.71273" lon="5.69677">
        <ele>228</ele>
        <time>2021-07-20T06:21:08.575Z</time>
      </trkpt>
      <trkpt lat="45.7128" lon="5.69679">
        <ele>228</ele>
        <time>2021-07-20T06:21:09.575Z</time>
      </trkpt>
      <trkpt lat="45.71288" lon="5.6968">
        <ele>228</ele>
        <time>2021-07-20T06:21:10.575Z</time>
      </trkpt>
      <trkpt lat="45.71295" lon="5.69681">
        <ele>228</ele>
        <time>2021-07-20T06:21:11.575Z</time>
      </trkpt>
      <trkpt lat="45.71303" lon="5.69682">
        <ele>228</ele>
        <time>2021-07-20T06:21:12.575Z</time>
      </trkpt>
      <trkpt lat="45.7131" lon="5.69683">
        <ele>228</ele>
        <time>2021-07-20T06:21:13.575Z</time>
      </trkpt>
      <trkpt lat="45.71318" lon="5.69684">
        <ele>227</ele>
        <time>2021-07-20T06:21:14.575Z</time>
      </trkpt>
      <trkpt lat="45.71325" lon="5.69684">
        <ele>227</ele>
        <time>2021-07-20T06:21:15.576Z</time>
      </trkpt>
      <trkpt lat="45.71333" lon="5.69684">
        <ele>228</ele>
        <time>2021-07-20T06:21:16.576Z</time>
      </trkpt>
      <trkpt lat="45.71341" lon="5.69684">
        <ele>227</ele>
        <time>2021-07-20T06:21:17.576Z</time>
      </trkpt>
      <trkpt lat="45.71348" lon="5.69685">
        <ele>227</ele>
        <time>2021-07-20T06:21:18.576Z</time>
      </trkpt>
      <trkpt lat="45.71356" lon="5.69685">
        <ele>227</ele>
        <time>2021-07-20T06:21:19.575Z</time>
      </trkpt>
      <trkpt lat="45.71364" lon="5.69686">
        <ele>227</ele>
        <time>2021-07-20T06:21:20.576Z</time>
      </trkpt>
      <trkpt lat="45.71372" lon="5.69686">
        <ele>226</ele>
        <time>2021-07-20T06:21:21.575Z</time>
      </trkpt>
      <trkpt lat="45.71379" lon="5.69687">
        <ele>226</ele>
        <time>2021-07-20T06:21:22.575Z</time>
      </trkpt>
      <trkpt lat="45.71387" lon="5.69688">
        <ele>226</ele>
        <time>2021-07-20T06:21:23.576Z</time>
      </trkpt>
      <trkpt lat="45.71396" lon="5.69689">
        <ele>225</ele>
        <time>2021-07-20T06:21:24.575Z</time>
      </trkpt>
      <trkpt lat="45.71402" lon="5.69689">
        <ele>225</ele>
        <time>2021-07-20T06:21:25.576Z</time>
      </trkpt>
      <trkpt lat="45.71409" lon="5.6969">
        <ele>225</ele>
        <time>2021-07-20T06:21:26.575Z</time>
      </trkpt>
      <trkpt lat="45.71418" lon="5.69691">
        <ele>225</ele>
        <time>2021-07-20T06:21:27.575Z</time>
      </trkpt>
      <trkpt lat="45.71424" lon="5.69692">
        <ele>225</ele>
        <time>2021-07-20T06:21:28.576Z</time>
      </trkpt>
      <trkpt lat="45.71431" lon="5.69693">
        <ele>225</ele>
        <time>2021-07-20T06:21:29.575Z</time>
      </trkpt>
      <trkpt lat="45.71438" lon="5.69693">
        <ele>225</ele>
        <time>2021-07-20T06:21:30.576Z</time>
      </trkpt>
      <trkpt lat="45.71446" lon="5.69694">
        <ele>225</ele>
        <time>2021-07-20T06:21:31.576Z</time>
      </trkpt>
      <trkpt lat="45.71453" lon="5.69694">
        <ele>225</ele>
        <time>2021-07-20T06:21:32.576Z</time>
      </trkpt>
      <trkpt lat="45.71459" lon="5.69694">
        <ele>225</ele>
        <time>2021-07-20T06:21:33.575Z</time>
      </trkpt>
      <trkpt lat="45.71467" lon="5.69694">
        <ele>225</ele>
        <time>2021-07-20T06:21:34.575Z</time>
      </trkpt>
      <trkpt lat="45.71472" lon="5.69695">
        <ele>226</ele>
        <time>2021-07-20T06:21:35.576Z</time>
      </trkpt>
      <trkpt lat="45.71478" lon="5.69696">
        <ele>226</ele>
        <time>2021-07-20T06:21:36.575Z</time>
      </trkpt>
      <trkpt lat="45.71483" lon="5.69701">
        <ele>226</ele>
        <time>2021-07-20T06:21:37.576Z</time>
      </trkpt>
      <trkpt lat="45.71485" lon="5.69706">
        <ele>226</ele>
        <time>2021-07-20T06:21:38.575Z</time>
      </trkpt>
      <trkpt lat="45.71484" lon="5.69713">
        <ele>226</ele>
        <time>2021-07-20T06:21:39.575Z</time>
      </trkpt>
      <trkpt lat="45.71483" lon="5.69718">
        <ele>226</ele>
        <time>2021-07-20T06:21:40.576Z</time>
      </trkpt>
      <trkpt lat="45.71479" lon="5.69724">
        <ele>225</ele>
        <time>2021-07-20T06:21:41.575Z</time>
      </trkpt>
      <trkpt lat="45.71476" lon="5.69729">
        <ele>225</ele>
        <time>2021-07-20T06:21:42.575Z</time>
      </trkpt>
      <trkpt lat="45.71472" lon="5.69734">
        <ele>225</ele>
        <time>2021-07-20T06:21:43.575Z</time>
      </trkpt>
      <trkpt lat="45.71468" lon="5.69739">
        <ele>225</ele>
        <time>2021-07-20T06:21:44.575Z</time>
      </trkpt>
      <trkpt lat="45.71464" lon="5.69744">
        <ele>225</ele>
        <time>2021-07-20T06:21:45.576Z</time>
      </trkpt>
      <trkpt lat="45.7146" lon="5.69751">
        <ele>225</ele>
        <time>2021-07-20T06:21:46.576Z</time>
      </trkpt>
      <trkpt lat="45.71457" lon="5.69758">
        <ele>225</ele>
        <time>2021-07-20T06:21:47.575Z</time>
      </trkpt>
      <trkpt lat="45.71455" lon="5.69765">
        <ele>225</ele>
        <time>2021-07-20T06:21:48.575Z</time>
      </trkpt>
      <trkpt lat="45.71454" lon="5.69773">
        <ele>224</ele>
        <time>2021-07-20T06:21:49.575Z</time>
      </trkpt>
      <trkpt lat="45.71455" lon="5.6978">
        <ele>224</ele>
        <time>2021-07-20T06:21:50.576Z</time>
      </trkpt>
      <trkpt lat="45.71459" lon="5.69786">
        <ele>224</ele>
        <time>2021-07-20T06:21:51.575Z</time>
      </trkpt>
      <trkpt lat="45.71462" lon="5.69793">
        <ele>224</ele>
        <time>2021-07-20T06:21:52.576Z</time>
      </trkpt>
      <trkpt lat="45.71466" lon="5.69798">
        <ele>224</ele>
        <time>2021-07-20T06:21:53.576Z</time>
      </trkpt>
      <trkpt lat="45.7147" lon="5.69805">
        <ele>224</ele>
        <time>2021-07-20T06:21:54.575Z</time>
      </trkpt>
      <trkpt lat="45.71474" lon="5.69814">
        <ele>224</ele>
        <time>2021-07-20T06:21:55.575Z</time>
      </trkpt>
      <trkpt lat="45.71478" lon="5.69823">
        <ele>224</ele>
        <time>2021-07-20T06:21:56.575Z</time>
      </trkpt>
      <trkpt lat="45.71481" lon="5.69832">
        <ele>224</ele>
        <time>2021-07-20T06:21:57.576Z</time>
      </trkpt>
      <trkpt lat="45.71482" lon="5.6984">
        <ele>224</ele>
        <time>2021-07-20T06:21:58.575Z</time>
      </trkpt>
      <trkpt lat="45.71484" lon="5.6985">
        <ele>225</ele>
        <time>2021-07-20T06:21:59.575Z</time>
      </trkpt>
      <trkpt lat="45.71485" lon="5.69861">
        <ele>225</ele>
        <time>2021-07-20T06:22:00.575Z</time>
      </trkpt>
      <trkpt lat="45.71485" lon="5.69872">
        <ele>225</ele>
        <time>2021-07-20T06:22:01.575Z</time>
      </trkpt>
      <trkpt lat="45.71485" lon="5.69881">
        <ele>225</ele>
        <time>2021-07-20T06:22:02.575Z</time>
      </trkpt>
      <trkpt lat="45.71485" lon="5.69891">
        <ele>226</ele>
        <time>2021-07-20T06:22:03.576Z</time>
      </trkpt>
      <trkpt lat="45.71485" lon="5.69901">
        <ele>226</ele>
        <time>2021-07-20T06:22:04.575Z</time>
      </trkpt>
      <trkpt lat="45.71485" lon="5.69911">
        <ele>226</ele>
        <time>2021-07-20T06:22:05.576Z</time>
      </trkpt>
      <trkpt lat="45.71485" lon="5.69921">
        <ele>226</ele>
        <time>2021-07-20T06:22:06.575Z</time>
      </trkpt>
      <trkpt lat="45.71485" lon="5.69929">
        <ele>227</ele>
        <time>2021-07-20T06:22:07.575Z</time>
      </trkpt>
      <trkpt lat="45.71485" lon="5.6994">
        <ele>227</ele>
        <time>2021-07-20T06:22:08.576Z</time>
      </trkpt>
      <trkpt lat="45.71485" lon="5.69948">
        <ele>227</ele>
        <time>2021-07-20T06:22:09.575Z</time>
      </trkpt>
      <trkpt lat="45.71486" lon="5.69957">
        <ele>227</ele>
        <time>2021-07-20T06:22:10.575Z</time>
      </trkpt>
      <trkpt lat="45.71486" lon="5.69967">
        <ele>227</ele>
        <time>2021-07-20T06:22:11.576Z</time>
      </trkpt>
      <trkpt lat="45.71486" lon="5.69976">
        <ele>227</ele>
        <time>2021-07-20T06:22:12.575Z</time>
      </trkpt>
      <trkpt lat="45.71486" lon="5.69988">
        <ele>228</ele>
        <time>2021-07-20T06:22:13.576Z</time>
      </trkpt>
      <trkpt lat="45.71486" lon="5.69998">
        <ele>228</ele>
        <time>2021-07-20T06:22:14.575Z</time>
      </trkpt>
      <trkpt lat="45.71487" lon="5.70005">
        <ele>229</ele>
        <time>2021-07-20T06:22:15.575Z</time>
      </trkpt>
      <trkpt lat="45.71487" lon="5.70016">
        <ele>230</ele>
        <time>2021-07-20T06:22:16.575Z</time>
      </trkpt>
      <trkpt lat="45.71487" lon="5.70026">
        <ele>230</ele>
        <time>2021-07-20T06:22:17.575Z</time>
      </trkpt>
      <trkpt lat="45.71487" lon="5.70036">
        <ele>231</ele>
        <time>2021-07-20T06:22:18.575Z</time>
      </trkpt>
      <trkpt lat="45.71486" lon="5.70047">
        <ele>231</ele>
        <time>2021-07-20T06:22:19.575Z</time>
      </trkpt>
      <trkpt lat="45.71486" lon="5.70057">
        <ele>231</ele>
        <time>2021-07-20T06:22:20.575Z</time>
      </trkpt>
      <trkpt lat="45.71487" lon="5.70068">
        <ele>232</ele>
        <time>2021-07-20T06:22:21.575Z</time>
      </trkpt>
      <trkpt lat="45.71487" lon="5.70079">
        <ele>232</ele>
        <time>2021-07-20T06:22:22.575Z</time>
      </trkpt>
      <trkpt lat="45.71487" lon="5.70091">
        <ele>232</ele>
        <time>2021-07-20T06:22:23.575Z</time>
      </trkpt>
      <trkpt lat="45.71487" lon="5.70103">
        <ele>232</ele>
        <time>2021-07-20T06:22:24.575Z</time>
      </trkpt>
      <trkpt lat="45.71487" lon="5.70114">
        <ele>232</ele>
        <time>2021-07-20T06:22:25.576Z</time>
      </trkpt>
      <trkpt lat="45.71488" lon="5.70127">
        <ele>231</ele>
        <time>2021-07-20T06:22:26.575Z</time>
      </trkpt>
      <trkpt lat="45.71488" lon="5.70139">
        <ele>231</ele>
        <time>2021-07-20T06:22:27.576Z</time>
      </trkpt>
      <trkpt lat="45.71488" lon="5.70152">
        <ele>230</ele>
        <time>2021-07-20T06:22:28.575Z</time>
      </trkpt>
      <trkpt lat="45.71488" lon="5.70164">
        <ele>230</ele>
        <time>2021-07-20T06:22:29.575Z</time>
      </trkpt>
      <trkpt lat="45.71488" lon="5.70177">
        <ele>229</ele>
        <time>2021-07-20T06:22:30.576Z</time>
      </trkpt>
      <trkpt lat="45.71488" lon="5.70192">
        <ele>228</ele>
        <time>2021-07-20T06:22:31.575Z</time>
      </trkpt>
      <trkpt lat="45.71488" lon="5.70205">
        <ele>228</ele>
        <time>2021-07-20T06:22:32.575Z</time>
      </trkpt>
      <trkpt lat="45.71489" lon="5.70218">
        <ele>227</ele>
        <time>2021-07-20T06:22:33.576Z</time>
      </trkpt>
      <trkpt lat="45.7149" lon="5.7023">
        <ele>227</ele>
        <time>2021-07-20T06:22:34.575Z</time>
      </trkpt>
      <trkpt lat="45.71491" lon="5.70243">
        <ele>226</ele>
        <time>2021-07-20T06:22:35.575Z</time>
      </trkpt>
      <trkpt lat="45.71492" lon="5.70255">
        <ele>226</ele>
        <time>2021-07-20T06:22:36.575Z</time>
      </trkpt>
      <trkpt lat="45.71493" lon="5.70265">
        <ele>226</ele>
        <time>2021-07-20T06:22:37.576Z</time>
      </trkpt>
      <trkpt lat="45.71493" lon="5.7028">
        <ele>226</ele>
        <time>2021-07-20T06:22:38.575Z</time>
      </trkpt>
      <trkpt lat="45.71494" lon="5.70292">
        <ele>227</ele>
        <time>2021-07-20T06:22:39.576Z</time>
      </trkpt>
      <trkpt lat="45.71494" lon="5.70304">
        <ele>227</ele>
        <time>2021-07-20T06:22:40.575Z</time>
      </trkpt>
      <trkpt lat="45.71494" lon="5.70316">
        <ele>227</ele>
        <time>2021-07-20T06:22:41.575Z</time>
      </trkpt>
      <trkpt lat="45.71495" lon="5.70328">
        <ele>228</ele>
        <time>2021-07-20T06:22:42.575Z</time>
      </trkpt>
      <trkpt lat="45.71495" lon="5.7034">
        <ele>228</ele>
        <time>2021-07-20T06:22:43.576Z</time>
      </trkpt>
      <trkpt lat="45.71495" lon="5.70353">
        <ele>228</ele>
        <time>2021-07-20T06:22:44.575Z</time>
      </trkpt>
      <trkpt lat="45.71496" lon="5.70365">
        <ele>228</ele>
        <time>2021-07-20T06:22:45.575Z</time>
      </trkpt>
      <trkpt lat="45.71496" lon="5.70376">
        <ele>228</ele>
        <time>2021-07-20T06:22:46.575Z</time>
      </trkpt>
      <trkpt lat="45.71496" lon="5.70388">
        <ele>229</ele>
        <time>2021-07-20T06:22:47.576Z</time>
      </trkpt>
      <trkpt lat="45.71496" lon="5.70399">
        <ele>229</ele>
        <time>2021-07-20T06:22:48.575Z</time>
      </trkpt>
      <trkpt lat="45.71496" lon="5.70411">
        <ele>229</ele>
        <time>2021-07-20T06:22:49.575Z</time>
      </trkpt>
      <trkpt lat="45.71496" lon="5.70423">
        <ele>229</ele>
        <time>2021-07-20T06:22:50.576Z</time>
      </trkpt>
      <trkpt lat="45.71496" lon="5.70434">
        <ele>230</ele>
        <time>2021-07-20T06:22:51.576Z</time>
      </trkpt>
      <trkpt lat="45.71496" lon="5.70446">
        <ele>230</ele>
        <time>2021-07-20T06:22:52.576Z</time>
      </trkpt>
      <trkpt lat="45.71497" lon="5.70458">
        <ele>230</ele>
        <time>2021-07-20T06:22:53.575Z</time>
      </trkpt>
      <trkpt lat="45.71497" lon="5.70469">
        <ele>230</ele>
        <time>2021-07-20T06:22:54.575Z</time>
      </trkpt>
      <trkpt lat="45.71497" lon="5.7048">
        <ele>230</ele>
        <time>2021-07-20T06:22:55.575Z</time>
      </trkpt>
      <trkpt lat="45.71497" lon="5.7049">
        <ele>229</ele>
        <time>2021-07-20T06:22:56.576Z</time>
      </trkpt>
      <trkpt lat="45.71498" lon="5.70501">
        <ele>229</ele>
        <time>2021-07-20T06:22:57.576Z</time>
      </trkpt>
      <trkpt lat="45.71498" lon="5.70512">
        <ele>229</ele>
        <time>2021-07-20T06:22:58.575Z</time>
      </trkpt>
      <trkpt lat="45.71498" lon="5.70524">
        <ele>228</ele>
        <time>2021-07-20T06:22:59.576Z</time>
      </trkpt>
      <trkpt lat="45.71498" lon="5.70536">
        <ele>227</ele>
        <time>2021-07-20T06:23:00.575Z</time>
      </trkpt>
      <trkpt lat="45.71498" lon="5.70548">
        <ele>227</ele>
        <time>2021-07-20T06:23:01.575Z</time>
      </trkpt>
      <trkpt lat="45.71499" lon="5.70559">
        <ele>227</ele>
        <time>2021-07-20T06:23:02.575Z</time>
      </trkpt>
      <trkpt lat="45.71499" lon="5.70571">
        <ele>228</ele>
        <time>2021-07-20T06:23:03.575Z</time>
      </trkpt>
      <trkpt lat="45.71499" lon="5.70582">
        <ele>228</ele>
        <time>2021-07-20T06:23:04.575Z</time>
      </trkpt>
      <trkpt lat="45.715" lon="5.70594">
        <ele>228</ele>
        <time>2021-07-20T06:23:05.575Z</time>
      </trkpt>
      <trkpt lat="45.715" lon="5.70607">
        <ele>227</ele>
        <time>2021-07-20T06:23:06.576Z</time>
      </trkpt>
      <trkpt lat="45.71501" lon="5.70618">
        <ele>227</ele>
        <time>2021-07-20T06:23:07.575Z</time>
      </trkpt>
      <trkpt lat="45.71503" lon="5.70629">
        <ele>227</ele>
        <time>2021-07-20T06:23:08.575Z</time>
      </trkpt>
      <trkpt lat="45.71506" lon="5.7064">
        <ele>226</ele>
        <time>2021-07-20T06:23:09.576Z</time>
      </trkpt>
      <trkpt lat="45.71509" lon="5.7065">
        <ele>226</ele>
        <time>2021-07-20T06:23:10.576Z</time>
      </trkpt>
      <trkpt lat="45.71512" lon="5.70661">
        <ele>226</ele>
        <time>2021-07-20T06:23:11.576Z</time>
      </trkpt>
      <trkpt lat="45.71515" lon="5.70671">
        <ele>226</ele>
        <time>2021-07-20T06:23:12.575Z</time>
      </trkpt>
      <trkpt lat="45.71519" lon="5.70681">
        <ele>227</ele>
        <time>2021-07-20T06:23:13.576Z</time>
      </trkpt>
      <trkpt lat="45.71522" lon="5.70691">
        <ele>227</ele>
        <time>2021-07-20T06:23:14.575Z</time>
      </trkpt>
      <trkpt lat="45.71526" lon="5.70701">
        <ele>227</ele>
        <time>2021-07-20T06:23:15.575Z</time>
      </trkpt>
      <trkpt lat="45.7153" lon="5.70711">
        <ele>226</ele>
        <time>2021-07-20T06:23:16.575Z</time>
      </trkpt>
      <trkpt lat="45.71534" lon="5.70721">
        <ele>226</ele>
        <time>2021-07-20T06:23:17.576Z</time>
      </trkpt>
      <trkpt lat="45.71538" lon="5.70731">
        <ele>226</ele>
        <time>2021-07-20T06:23:18.576Z</time>
      </trkpt>
      <trkpt lat="45.71541" lon="5.70739">
        <ele>226</ele>
        <time>2021-07-20T06:23:19.575Z</time>
      </trkpt>
      <trkpt lat="45.71545" lon="5.70751">
        <ele>226</ele>
        <time>2021-07-20T06:23:20.576Z</time>
      </trkpt>
      <trkpt lat="45.71548" lon="5.70761">
        <ele>226</ele>
        <time>2021-07-20T06:23:21.576Z</time>
      </trkpt>
      <trkpt lat="45.71552" lon="5.70771">
        <ele>226</ele>
        <time>2021-07-20T06:23:22.576Z</time>
      </trkpt>
      <trkpt lat="45.71555" lon="5.70779">
        <ele>226</ele>
        <time>2021-07-20T06:23:23.575Z</time>
      </trkpt>
      <trkpt lat="45.71558" lon="5.70789">
        <ele>226</ele>
        <time>2021-07-20T06:23:24.575Z</time>
      </trkpt>
      <trkpt lat="45.71563" lon="5.70801">
        <ele>226</ele>
        <time>2021-07-20T06:23:25.576Z</time>
      </trkpt>
      <trkpt lat="45.71566" lon="5.70809">
        <ele>226</ele>
        <time>2021-07-20T06:23:26.575Z</time>
      </trkpt>
      <trkpt lat="45.7157" lon="5.70822">
        <ele>226</ele>
        <time>2021-07-20T06:23:27.575Z</time>
      </trkpt>
      <trkpt lat="45.71573" lon="5.7083">
        <ele>226</ele>
        <time>2021-07-20T06:23:28.575Z</time>
      </trkpt>
      <trkpt lat="45.71577" lon="5.7084">
        <ele>226</ele>
        <time>2021-07-20T06:23:29.575Z</time>
      </trkpt>
      <trkpt lat="45.7158" lon="5.7085">
        <ele>226</ele>
        <time>2021-07-20T06:23:30.575Z</time>
      </trkpt>
      <trkpt lat="45.71583" lon="5.7086">
        <ele>226</ele>
        <time>2021-07-20T06:23:31.576Z</time>
      </trkpt>
      <trkpt lat="45.71587" lon="5.7087">
        <ele>226</ele>
        <time>2021-07-20T06:23:32.575Z</time>
      </trkpt>
      <trkpt lat="45.7159" lon="5.7088">
        <ele>226</ele>
        <time>2021-07-20T06:23:33.576Z</time>
      </trkpt>
      <trkpt lat="45.71594" lon="5.7089">
        <ele>226</ele>
        <time>2021-07-20T06:23:34.575Z</time>
      </trkpt>
      <trkpt lat="45.71597" lon="5.70903">
        <ele>226</ele>
        <time>2021-07-20T06:23:35.575Z</time>
      </trkpt>
      <trkpt lat="45.716" lon="5.70913">
        <ele>226</ele>
        <time>2021-07-20T06:23:36.575Z</time>
      </trkpt>
      <trkpt lat="45.71602" lon="5.70924">
        <ele>226</ele>
        <time>2021-07-20T06:23:37.575Z</time>
      </trkpt>
      <trkpt lat="45.71603" lon="5.70933">
        <ele>227</ele>
        <time>2021-07-20T06:23:38.575Z</time>
      </trkpt>
      <trkpt lat="45.71603" lon="5.70946">
        <ele>227</ele>
        <time>2021-07-20T06:23:39.575Z</time>
      </trkpt>
      <trkpt lat="45.71603" lon="5.70957">
        <ele>227</ele>
        <time>2021-07-20T06:23:40.575Z</time>
      </trkpt>
      <trkpt lat="45.71603" lon="5.70968">
        <ele>227</ele>
        <time>2021-07-20T06:23:41.575Z</time>
      </trkpt>
      <trkpt lat="45.71602" lon="5.70979">
        <ele>227</ele>
        <time>2021-07-20T06:23:42.575Z</time>
      </trkpt>
      <trkpt lat="45.71601" lon="5.7099">
        <ele>227</ele>
        <time>2021-07-20T06:23:43.576Z</time>
      </trkpt>
      <trkpt lat="45.716" lon="5.71">
        <ele>228</ele>
        <time>2021-07-20T06:23:44.576Z</time>
      </trkpt>
      <trkpt lat="45.71599" lon="5.71012">
        <ele>228</ele>
        <time>2021-07-20T06:23:45.575Z</time>
      </trkpt>
      <trkpt lat="45.71598" lon="5.71023">
        <ele>228</ele>
        <time>2021-07-20T06:23:46.576Z</time>
      </trkpt>
      <trkpt lat="45.71598" lon="5.71034">
        <ele>228</ele>
        <time>2021-07-20T06:23:47.576Z</time>
      </trkpt>
      <trkpt lat="45.71597" lon="5.71044">
        <ele>229</ele>
        <time>2021-07-20T06:23:48.575Z</time>
      </trkpt>
      <trkpt lat="45.71596" lon="5.71054">
        <ele>229</ele>
        <time>2021-07-20T06:23:49.575Z</time>
      </trkpt>
      <trkpt lat="45.71595" lon="5.71064">
        <ele>228</ele>
        <time>2021-07-20T06:23:50.575Z</time>
      </trkpt>
      <trkpt lat="45.71594" lon="5.71074">
        <ele>228</ele>
        <time>2021-07-20T06:23:51.576Z</time>
      </trkpt>
      <trkpt lat="45.71593" lon="5.71084">
        <ele>229</ele>
        <time>2021-07-20T06:23:52.576Z</time>
      </trkpt>
      <trkpt lat="45.71593" lon="5.71092">
        <ele>229</ele>
        <time>2021-07-20T06:23:53.575Z</time>
      </trkpt>
      <trkpt lat="45.71593" lon="5.711">
        <ele>229</ele>
        <time>2021-07-20T06:23:54.575Z</time>
      </trkpt>
      <trkpt lat="45.71592" lon="5.71108">
        <ele>229</ele>
        <time>2021-07-20T06:23:55.575Z</time>
      </trkpt>
      <trkpt lat="45.7159" lon="5.71116">
        <ele>229</ele>
        <time>2021-07-20T06:23:56.576Z</time>
      </trkpt>
      <trkpt lat="45.71588" lon="5.71123">
        <ele>228</ele>
        <time>2021-07-20T06:23:57.575Z</time>
      </trkpt>
      <trkpt lat="45.71584" lon="5.71131">
        <ele>228</ele>
        <time>2021-07-20T06:23:58.576Z</time>
      </trkpt>
      <trkpt lat="45.71581" lon="5.7114">
        <ele>228</ele>
        <time>2021-07-20T06:23:59.575Z</time>
      </trkpt>
      <trkpt lat="45.71577" lon="5.71149">
        <ele>228</ele>
        <time>2021-07-20T06:24:00.575Z</time>
      </trkpt>
      <trkpt lat="45.71573" lon="5.71158">
        <ele>227</ele>
        <time>2021-07-20T06:24:01.575Z</time>
      </trkpt>
      <trkpt lat="45.71568" lon="5.71167">
        <ele>227</ele>
        <time>2021-07-20T06:24:02.575Z</time>
      </trkpt>
      <trkpt lat="45.71564" lon="5.71176">
        <ele>227</ele>
        <time>2021-07-20T06:24:03.575Z</time>
      </trkpt>
      <trkpt lat="45.71559" lon="5.71185">
        <ele>227</ele>
        <time>2021-07-20T06:24:04.575Z</time>
      </trkpt>
      <trkpt lat="45.71555" lon="5.71195">
        <ele>227</ele>
        <time>2021-07-20T06:24:05.576Z</time>
      </trkpt>
      <trkpt lat="45.71551" lon="5.71204">
        <ele>227</ele>
        <time>2021-07-20T06:24:06.575Z</time>
      </trkpt>
      <trkpt lat="45.71546" lon="5.71213">
        <ele>226</ele>
        <time>2021-07-20T06:24:07.575Z</time>
      </trkpt>
      <trkpt lat="45.71542" lon="5.71223">
        <ele>226</ele>
        <time>2021-07-20T06:24:08.575Z</time>
      </trkpt>
      <trkpt lat="45.71537" lon="5.71232">
        <ele>226</ele>
        <time>2021-07-20T06:24:09.575Z</time>
      </trkpt>
      <trkpt lat="45.71533" lon="5.71242">
        <ele>226</ele>
        <time>2021-07-20T06:24:10.576Z</time>
      </trkpt>
      <trkpt lat="45.71528" lon="5.71251">
        <ele>225</ele>
        <time>2021-07-20T06:24:11.575Z</time>
      </trkpt>
      <trkpt lat="45.71524" lon="5.7126">
        <ele>225</ele>
        <time>2021-07-20T06:24:12.575Z</time>
      </trkpt>
      <trkpt lat="45.71519" lon="5.71269">
        <ele>225</ele>
        <time>2021-07-20T06:24:13.576Z</time>
      </trkpt>
      <trkpt lat="45.71516" lon="5.71279">
        <ele>225</ele>
        <time>2021-07-20T06:24:14.575Z</time>
      </trkpt>
      <trkpt lat="45.71512" lon="5.71288">
        <ele>224</ele>
        <time>2021-07-20T06:24:15.576Z</time>
      </trkpt>
      <trkpt lat="45.71508" lon="5.71297">
        <ele>224</ele>
        <time>2021-07-20T06:24:16.575Z</time>
      </trkpt>
      <trkpt lat="45.71503" lon="5.71306">
        <ele>224</ele>
        <time>2021-07-20T06:24:17.576Z</time>
      </trkpt>
      <trkpt lat="45.715" lon="5.71314">
        <ele>224</ele>
        <time>2021-07-20T06:24:18.575Z</time>
      </trkpt>
      <trkpt lat="45.71497" lon="5.71321">
        <ele>224</ele>
        <time>2021-07-20T06:24:19.575Z</time>
      </trkpt>
      <trkpt lat="45.71493" lon="5.71328">
        <ele>224</ele>
        <time>2021-07-20T06:24:20.576Z</time>
      </trkpt>
      <trkpt lat="45.7149" lon="5.71335">
        <ele>225</ele>
        <time>2021-07-20T06:24:21.576Z</time>
      </trkpt>
      <trkpt lat="45.71487" lon="5.71341">
        <ele>225</ele>
        <time>2021-07-20T06:24:22.575Z</time>
      </trkpt>
      <trkpt lat="45.71484" lon="5.71346">
        <ele>225</ele>
        <time>2021-07-20T06:24:23.575Z</time>
      </trkpt>
      <trkpt lat="45.71481" lon="5.71352">
        <ele>225</ele>
        <time>2021-07-20T06:24:24.576Z</time>
      </trkpt>
      <trkpt lat="45.71478" lon="5.71357">
        <ele>225</ele>
        <time>2021-07-20T06:24:25.576Z</time>
      </trkpt>
      <trkpt lat="45.71474" lon="5.71362">
        <ele>226</ele>
        <time>2021-07-20T06:24:26.575Z</time>
      </trkpt>
      <trkpt lat="45.7147" lon="5.71366">
        <ele>227</ele>
        <time>2021-07-20T06:24:27.575Z</time>
      </trkpt>
      <trkpt lat="45.71466" lon="5.71369">
        <ele>227</ele>
        <time>2021-07-20T06:24:28.575Z</time>
      </trkpt>
      <trkpt lat="45.71461" lon="5.71371">
        <ele>228</ele>
        <time>2021-07-20T06:24:29.576Z</time>
      </trkpt>
      <trkpt lat="45.71457" lon="5.71372">
        <ele>228</ele>
        <time>2021-07-20T06:24:30.575Z</time>
      </trkpt>
      <trkpt lat="45.71452" lon="5.71372">
        <ele>229</ele>
        <time>2021-07-20T06:24:31.575Z</time>
      </trkpt>
      <trkpt lat="45.71448" lon="5.71372">
        <ele>229</ele>
        <time>2021-07-20T06:24:32.575Z</time>
      </trkpt>
      <trkpt lat="45.71443" lon="5.71373">
        <ele>229</ele>
        <time>2021-07-20T06:24:33.575Z</time>
      </trkpt>
      <trkpt lat="45.71438" lon="5.71374">
        <ele>229</ele>
        <time>2021-07-20T06:24:34.576Z</time>
      </trkpt>
      <trkpt lat="45.71433" lon="5.71375">
        <ele>230</ele>
        <time>2021-07-20T06:24:35.576Z</time>
      </trkpt>
      <trkpt lat="45.71428" lon="5.71377">
        <ele>231</ele>
        <time>2021-07-20T06:24:36.575Z</time>
      </trkpt>
      <trkpt lat="45.71424" lon="5.71379">
        <ele>232</ele>
        <time>2021-07-20T06:24:37.575Z</time>
      </trkpt>
      <trkpt lat="45.7142" lon="5.71382">
        <ele>233</ele>
        <time>2021-07-20T06:24:38.576Z</time>
      </trkpt>
      <trkpt lat="45.71416" lon="5.71386">
        <ele>234</ele>
        <time>2021-07-20T06:24:39.575Z</time>
      </trkpt>
      <trkpt lat="45.71412" lon="5.71389">
        <ele>234</ele>
        <time>2021-07-20T06:24:40.576Z</time>
      </trkpt>
      <trkpt lat="45.71408" lon="5.71393">
        <ele>234</ele>
        <time>2021-07-20T06:24:41.575Z</time>
      </trkpt>
      <trkpt lat="45.71405" lon="5.71396">
        <ele>235</ele>
        <time>2021-07-20T06:24:42.576Z</time>
      </trkpt>
      <trkpt lat="45.71401" lon="5.71401">
        <ele>235</ele>
        <time>2021-07-20T06:24:43.575Z</time>
      </trkpt>
      <trkpt lat="45.71397" lon="5.71405">
        <ele>235</ele>
        <time>2021-07-20T06:24:44.575Z</time>
      </trkpt>
      <trkpt lat="45.71393" lon="5.71409">
        <ele>235</ele>
        <time>2021-07-20T06:24:45.576Z</time>
      </trkpt>
      <trkpt lat="45.7139" lon="5.71411">
        <ele>236</ele>
        <time>2021-07-20T06:24:46.575Z</time>
      </trkpt>
      <trkpt lat="45.71386" lon="5.71415">
        <ele>236</ele>
        <time>2021-07-20T06:24:47.575Z</time>
      </trkpt>
      <trkpt lat="45.71381" lon="5.71418">
        <ele>237</ele>
        <time>2021-07-20T06:24:48.575Z</time>
      </trkpt>
      <trkpt lat="45.71377" lon="5.71421">
        <ele>237</ele>
        <time>2021-07-20T06:24:49.575Z</time>
      </trkpt>
      <trkpt lat="45.71372" lon="5.71424">
        <ele>237</ele>
        <time>2021-07-20T06:24:50.575Z</time>
      </trkpt>
      <trkpt lat="45.71367" lon="5.71426">
        <ele>238</ele>
        <time>2021-07-20T06:24:51.576Z</time>
      </trkpt>
      <trkpt lat="45.71364" lon="5.71428">
        <ele>238</ele>
        <time>2021-07-20T06:24:52.575Z</time>
      </trkpt>
      <trkpt lat="45.71359" lon="5.71432">
        <ele>239</ele>
        <time>2021-07-20T06:24:53.576Z</time>
      </trkpt>
      <trkpt lat="45.71355" lon="5.71434">
        <ele>239</ele>
        <time>2021-07-20T06:24:54.575Z</time>
      </trkpt>
      <trkpt lat="45.71351" lon="5.71436">
        <ele>239</ele>
        <time>2021-07-20T06:24:55.576Z</time>
      </trkpt>
      <trkpt lat="45.71347" lon="5.71438">
        <ele>240</ele>
        <time>2021-07-20T06:24:56.575Z</time>
      </trkpt>
      <trkpt lat="45.71343" lon="5.7144">
        <ele>241</ele>
        <time>2021-07-20T06:24:57.576Z</time>
      </trkpt>
      <trkpt lat="45.71339" lon="5.71442">
        <ele>241</ele>
        <time>2021-07-20T06:24:58.575Z</time>
      </trkpt>
      <trkpt lat="45.71334" lon="5.71445">
        <ele>242</ele>
        <time>2021-07-20T06:24:59.575Z</time>
      </trkpt>
      <trkpt lat="45.7133" lon="5.71447">
        <ele>242</ele>
        <time>2021-07-20T06:25:00.576Z</time>
      </trkpt>
      <trkpt lat="45.71326" lon="5.71449">
        <ele>243</ele>
        <time>2021-07-20T06:25:01.575Z</time>
      </trkpt>
      <trkpt lat="45.71321" lon="5.71452">
        <ele>243</ele>
        <time>2021-07-20T06:25:02.575Z</time>
      </trkpt>
      <trkpt lat="45.71316" lon="5.71454">
        <ele>243</ele>
        <time>2021-07-20T06:25:03.575Z</time>
      </trkpt>
      <trkpt lat="45.71312" lon="5.71457">
        <ele>244</ele>
        <time>2021-07-20T06:25:04.575Z</time>
      </trkpt>
      <trkpt lat="45.71308" lon="5.71458">
        <ele>244</ele>
        <time>2021-07-20T06:25:05.576Z</time>
      </trkpt>
      <trkpt lat="45.71304" lon="5.71461">
        <ele>244</ele>
        <time>2021-07-20T06:25:06.576Z</time>
      </trkpt>
      <trkpt lat="45.71299" lon="5.71463">
        <ele>244</ele>
        <time>2021-07-20T06:25:07.575Z</time>
      </trkpt>
      <trkpt lat="45.71295" lon="5.71465">
        <ele>245</ele>
        <time>2021-07-20T06:25:08.575Z</time>
      </trkpt>
      <trkpt lat="45.71291" lon="5.71467">
        <ele>244</ele>
        <time>2021-07-20T06:25:09.575Z</time>
      </trkpt>
      <trkpt lat="45.71287" lon="5.71469">
        <ele>244</ele>
        <time>2021-07-20T06:25:10.575Z</time>
      </trkpt>
      <trkpt lat="45.71283" lon="5.71471">
        <ele>244</ele>
        <time>2021-07-20T06:25:11.576Z</time>
      </trkpt>
      <trkpt lat="45.71279" lon="5.71473">
        <ele>244</ele>
        <time>2021-07-20T06:25:12.576Z</time>
      </trkpt>
      <trkpt lat="45.71274" lon="5.71475">
        <ele>244</ele>
        <time>2021-07-20T06:25:13.576Z</time>
      </trkpt>
      <trkpt lat="45.71269" lon="5.71477">
        <ele>244</ele>
        <time>2021-07-20T06:25:14.575Z</time>
      </trkpt>
      <trkpt lat="45.71265" lon="5.71478">
        <ele>245</ele>
        <time>2021-07-20T06:25:15.576Z</time>
      </trkpt>
      <trkpt lat="45.7126" lon="5.7148">
        <ele>246</ele>
        <time>2021-07-20T06:25:16.575Z</time>
      </trkpt>
      <trkpt lat="45.71256" lon="5.71481">
        <ele>246</ele>
        <time>2021-07-20T06:25:17.576Z</time>
      </trkpt>
      <trkpt lat="45.71252" lon="5.71481">
        <ele>247</ele>
        <time>2021-07-20T06:25:18.575Z</time>
      </trkpt>
      <trkpt lat="45.71247" lon="5.71481">
        <ele>248</ele>
        <time>2021-07-20T06:25:19.575Z</time>
      </trkpt>
      <trkpt lat="45.71242" lon="5.71482">
        <ele>249</ele>
        <time>2021-07-20T06:25:20.575Z</time>
      </trkpt>
      <trkpt lat="45.71237" lon="5.71484">
        <ele>250</ele>
        <time>2021-07-20T06:25:21.576Z</time>
      </trkpt>
      <trkpt lat="45.71234" lon="5.71484">
        <ele>250</ele>
        <time>2021-07-20T06:25:22.576Z</time>
      </trkpt>
      <trkpt lat="45.71229" lon="5.71485">
        <ele>250</ele>
        <time>2021-07-20T06:25:23.575Z</time>
      </trkpt>
      <trkpt lat="45.71224" lon="5.71486">
        <ele>250</ele>
        <time>2021-07-20T06:25:24.575Z</time>
      </trkpt>
      <trkpt lat="45.71219" lon="5.71487">
        <ele>250</ele>
        <time>2021-07-20T06:25:25.575Z</time>
      </trkpt>
      <trkpt lat="45.71215" lon="5.71488">
        <ele>251</ele>
        <time>2021-07-20T06:25:26.576Z</time>
      </trkpt>
      <trkpt lat="45.7121" lon="5.71488">
        <ele>251</ele>
        <time>2021-07-20T06:25:27.575Z</time>
      </trkpt>
      <trkpt lat="45.71206" lon="5.71489">
        <ele>252</ele>
        <time>2021-07-20T06:25:28.575Z</time>
      </trkpt>
      <trkpt lat="45.71203" lon="5.7149">
        <ele>252</ele>
        <time>2021-07-20T06:25:29.576Z</time>
      </trkpt>
      <trkpt lat="45.71197" lon="5.71491">
        <ele>252</ele>
        <time>2021-07-20T06:25:30.575Z</time>
      </trkpt>
      <trkpt lat="45.71193" lon="5.71491">
        <ele>252</ele>
        <time>2021-07-20T06:25:31.576Z</time>
      </trkpt>
      <trkpt lat="45.71188" lon="5.71492">
        <ele>252</ele>
        <time>2021-07-20T06:25:32.575Z</time>
      </trkpt>
      <trkpt lat="45.71185" lon="5.71492">
        <ele>252</ele>
        <time>2021-07-20T06:25:33.576Z</time>
      </trkpt>
      <trkpt lat="45.7118" lon="5.71492">
        <ele>251</ele>
        <time>2021-07-20T06:25:34.576Z</time>
      </trkpt>
      <trkpt lat="45.71175" lon="5.71493">
        <ele>251</ele>
        <time>2021-07-20T06:25:35.576Z</time>
      </trkpt>
      <trkpt lat="45.71171" lon="5.71493">
        <ele>250</ele>
        <time>2021-07-20T06:25:36.575Z</time>
      </trkpt>
      <trkpt lat="45.71166" lon="5.71493">
        <ele>250</ele>
        <time>2021-07-20T06:25:37.576Z</time>
      </trkpt>
      <trkpt lat="45.71162" lon="5.71494">
        <ele>250</ele>
        <time>2021-07-20T06:25:38.575Z</time>
      </trkpt>
      <trkpt lat="45.71158" lon="5.71494">
        <ele>249</ele>
        <time>2021-07-20T06:25:39.576Z</time>
      </trkpt>
      <trkpt lat="45.71153" lon="5.71494">
        <ele>249</ele>
        <time>2021-07-20T06:25:40.576Z</time>
      </trkpt>
      <trkpt lat="45.71149" lon="5.71495">
        <ele>249</ele>
        <time>2021-07-20T06:25:41.575Z</time>
      </trkpt>
      <trkpt lat="45.71144" lon="5.71495">
        <ele>250</ele>
        <time>2021-07-20T06:25:42.575Z</time>
      </trkpt>
      <trkpt lat="45.7114" lon="5.71496">
        <ele>250</ele>
        <time>2021-07-20T06:25:43.575Z</time>
      </trkpt>
      <trkpt lat="45.71136" lon="5.71497">
        <ele>251</ele>
        <time>2021-07-20T06:25:44.575Z</time>
      </trkpt>
      <trkpt lat="45.71131" lon="5.71499">
        <ele>251</ele>
        <time>2021-07-20T06:25:45.575Z</time>
      </trkpt>
      <trkpt lat="45.71128" lon="5.71501">
        <ele>252</ele>
        <time>2021-07-20T06:25:46.575Z</time>
      </trkpt>
      <trkpt lat="45.71124" lon="5.71504">
        <ele>253</ele>
        <time>2021-07-20T06:25:47.576Z</time>
      </trkpt>
      <trkpt lat="45.7112" lon="5.71507">
        <ele>253</ele>
        <time>2021-07-20T06:25:48.575Z</time>
      </trkpt>
      <trkpt lat="45.71116" lon="5.71513">
        <ele>253</ele>
        <time>2021-07-20T06:25:49.576Z</time>
      </trkpt>
      <trkpt lat="45.71113" lon="5.71518">
        <ele>253</ele>
        <time>2021-07-20T06:25:50.576Z</time>
      </trkpt>
      <trkpt lat="45.71111" lon="5.71524">
        <ele>253</ele>
        <time>2021-07-20T06:25:51.575Z</time>
      </trkpt>
      <trkpt lat="45.71109" lon="5.7153">
        <ele>253</ele>
        <time>2021-07-20T06:25:52.576Z</time>
      </trkpt>
      <trkpt lat="45.71108" lon="5.71539">
        <ele>253</ele>
        <time>2021-07-20T06:25:53.575Z</time>
      </trkpt>
      <trkpt lat="45.71107" lon="5.71547">
        <ele>253</ele>
        <time>2021-07-20T06:25:54.575Z</time>
      </trkpt>
      <trkpt lat="45.71107" lon="5.71555">
        <ele>252</ele>
        <time>2021-07-20T06:25:55.575Z</time>
      </trkpt>
      <trkpt lat="45.71107" lon="5.71564">
        <ele>252</ele>
        <time>2021-07-20T06:25:56.576Z</time>
      </trkpt>
      <trkpt lat="45.71106" lon="5.71575">
        <ele>252</ele>
        <time>2021-07-20T06:25:57.575Z</time>
      </trkpt>
      <trkpt lat="45.71107" lon="5.71584">
        <ele>251</ele>
        <time>2021-07-20T06:25:58.576Z</time>
      </trkpt>
      <trkpt lat="45.71107" lon="5.71595">
        <ele>251</ele>
        <time>2021-07-20T06:25:59.575Z</time>
      </trkpt>
      <trkpt lat="45.71106" lon="5.7161">
        <ele>251</ele>
        <time>2021-07-20T06:26:00.576Z</time>
      </trkpt>
      <trkpt lat="45.71106" lon="5.71619">
        <ele>251</ele>
        <time>2021-07-20T06:26:01.575Z</time>
      </trkpt>
      <trkpt lat="45.71105" lon="5.71635">
        <ele>251</ele>
        <time>2021-07-20T06:26:02.576Z</time>
      </trkpt>
      <trkpt lat="45.71105" lon="5.71649">
        <ele>250</ele>
        <time>2021-07-20T06:26:03.575Z</time>
      </trkpt>
      <trkpt lat="45.71104" lon="5.7166">
        <ele>250</ele>
        <time>2021-07-20T06:26:04.575Z</time>
      </trkpt>
      <trkpt lat="45.71103" lon="5.71676">
        <ele>250</ele>
        <time>2021-07-20T06:26:05.575Z</time>
      </trkpt>
      <trkpt lat="45.71102" lon="5.71689">
        <ele>250</ele>
        <time>2021-07-20T06:26:06.575Z</time>
      </trkpt>
      <trkpt lat="45.711" lon="5.71703">
        <ele>250</ele>
        <time>2021-07-20T06:26:07.575Z</time>
      </trkpt>
      <trkpt lat="45.71099" lon="5.71717">
        <ele>250</ele>
        <time>2021-07-20T06:26:08.575Z</time>
      </trkpt>
      <trkpt lat="45.71097" lon="5.71731">
        <ele>250</ele>
        <time>2021-07-20T06:26:09.576Z</time>
      </trkpt>
      <trkpt lat="45.71096" lon="5.71745">
        <ele>250</ele>
        <time>2021-07-20T06:26:10.576Z</time>
      </trkpt>
      <trkpt lat="45.71094" lon="5.7176">
        <ele>250</ele>
        <time>2021-07-20T06:26:11.575Z</time>
      </trkpt>
      <trkpt lat="45.71092" lon="5.71775">
        <ele>249</ele>
        <time>2021-07-20T06:26:12.576Z</time>
      </trkpt>
      <trkpt lat="45.71089" lon="5.7179">
        <ele>248</ele>
        <time>2021-07-20T06:26:13.575Z</time>
      </trkpt>
      <trkpt lat="45.71086" lon="5.71805">
        <ele>247</ele>
        <time>2021-07-20T06:26:14.576Z</time>
      </trkpt>
      <trkpt lat="45.71081" lon="5.71819">
        <ele>247</ele>
        <time>2021-07-20T06:26:15.575Z</time>
      </trkpt>
      <trkpt lat="45.71076" lon="5.71833">
        <ele>247</ele>
        <time>2021-07-20T06:26:16.576Z</time>
      </trkpt>
      <trkpt lat="45.7107" lon="5.71846">
        <ele>247</ele>
        <time>2021-07-20T06:26:17.575Z</time>
      </trkpt>
      <trkpt lat="45.71064" lon="5.71859">
        <ele>247</ele>
        <time>2021-07-20T06:26:18.575Z</time>
      </trkpt>
      <trkpt lat="45.71058" lon="5.71873">
        <ele>247</ele>
        <time>2021-07-20T06:26:19.575Z</time>
      </trkpt>
      <trkpt lat="45.71051" lon="5.71886">
        <ele>248</ele>
        <time>2021-07-20T06:26:20.575Z</time>
      </trkpt>
      <trkpt lat="45.71044" lon="5.719">
        <ele>248</ele>
        <time>2021-07-20T06:26:21.575Z</time>
      </trkpt>
      <trkpt lat="45.71036" lon="5.71912">
        <ele>248</ele>
        <time>2021-07-20T06:26:22.575Z</time>
      </trkpt>
      <trkpt lat="45.71028" lon="5.71922">
        <ele>248</ele>
        <time>2021-07-20T06:26:23.575Z</time>
      </trkpt>
      <trkpt lat="45.71018" lon="5.71931">
        <ele>248</ele>
        <time>2021-07-20T06:26:24.576Z</time>
      </trkpt>
      <trkpt lat="45.71008" lon="5.7194">
        <ele>247</ele>
        <time>2021-07-20T06:26:25.575Z</time>
      </trkpt>
      <trkpt lat="45.70997" lon="5.71947">
        <ele>247</ele>
        <time>2021-07-20T06:26:26.576Z</time>
      </trkpt>
      <trkpt lat="45.70986" lon="5.71955">
        <ele>247</ele>
        <time>2021-07-20T06:26:27.575Z</time>
      </trkpt>
      <trkpt lat="45.70976" lon="5.71962">
        <ele>247</ele>
        <time>2021-07-20T06:26:28.575Z</time>
      </trkpt>
      <trkpt lat="45.70965" lon="5.7197">
        <ele>247</ele>
        <time>2021-07-20T06:26:29.575Z</time>
      </trkpt>
      <trkpt lat="45.70957" lon="5.71977">
        <ele>246</ele>
        <time>2021-07-20T06:26:30.575Z</time>
      </trkpt>
      <trkpt lat="45.70945" lon="5.71987">
        <ele>245</ele>
        <time>2021-07-20T06:26:31.575Z</time>
      </trkpt>
      <trkpt lat="45.70938" lon="5.71994">
        <ele>245</ele>
        <time>2021-07-20T06:26:32.575Z</time>
      </trkpt>
      <trkpt lat="45.70927" lon="5.72006">
        <ele>245</ele>
        <time>2021-07-20T06:26:33.575Z</time>
      </trkpt>
      <trkpt lat="45.70918" lon="5.72016">
        <ele>245</ele>
        <time>2021-07-20T06:26:34.575Z</time>
      </trkpt>
      <trkpt lat="45.70912" lon="5.72025">
        <ele>245</ele>
        <time>2021-07-20T06:26:35.576Z</time>
      </trkpt>
      <trkpt lat="45.70902" lon="5.72037">
        <ele>245</ele>
        <time>2021-07-20T06:26:36.576Z</time>
      </trkpt>
      <trkpt lat="45.70895" lon="5.72047">
        <ele>245</ele>
        <time>2021-07-20T06:26:37.575Z</time>
      </trkpt>
      <trkpt lat="45.70888" lon="5.72057">
        <ele>244</ele>
        <time>2021-07-20T06:26:38.575Z</time>
      </trkpt>
      <trkpt lat="45.70881" lon="5.72067">
        <ele>244</ele>
        <time>2021-07-20T06:26:39.576Z</time>
      </trkpt>
      <trkpt lat="45.70874" lon="5.72077">
        <ele>243</ele>
        <time>2021-07-20T06:26:40.576Z</time>
      </trkpt>
      <trkpt lat="45.70868" lon="5.72087">
        <ele>242</ele>
        <time>2021-07-20T06:26:41.576Z</time>
      </trkpt>
      <trkpt lat="45.70862" lon="5.72097">
        <ele>242</ele>
        <time>2021-07-20T06:26:42.575Z</time>
      </trkpt>
      <trkpt lat="45.70856" lon="5.72107">
        <ele>241</ele>
        <time>2021-07-20T06:26:43.576Z</time>
      </trkpt>
      <trkpt lat="45.7085" lon="5.72117">
        <ele>241</ele>
        <time>2021-07-20T06:26:44.575Z</time>
      </trkpt>
      <trkpt lat="45.70854" lon="5.72243">
        <ele>241</ele>
        <time>2021-07-20T06:26:54.576Z</time>
      </trkpt>
      <trkpt lat="45.70856" lon="5.72256">
        <ele>241</ele>
        <time>2021-07-20T06:26:55.575Z</time>
      </trkpt>
      <trkpt lat="45.70858" lon="5.72265">
        <ele>242</ele>
        <time>2021-07-20T06:26:56.576Z</time>
      </trkpt>
      <trkpt lat="45.7086" lon="5.72281">
        <ele>242</ele>
        <time>2021-07-20T06:26:57.575Z</time>
      </trkpt>
      <trkpt lat="45.7086" lon="5.72289">
        <ele>242</ele>
        <time>2021-07-20T06:26:58.576Z</time>
      </trkpt>
      <trkpt lat="45.70863" lon="5.72307">
        <ele>243</ele>
        <time>2021-07-20T06:26:59.576Z</time>
      </trkpt>
      <trkpt lat="45.70865" lon="5.7232">
        <ele>243</ele>
        <time>2021-07-20T06:27:00.575Z</time>
      </trkpt>
      <trkpt lat="45.70867" lon="5.72331">
        <ele>243</ele>
        <time>2021-07-20T06:27:01.575Z</time>
      </trkpt>
      <trkpt lat="45.70869" lon="5.72343">
        <ele>244</ele>
        <time>2021-07-20T06:27:02.575Z</time>
      </trkpt>
      <trkpt lat="45.7087" lon="5.72355">
        <ele>244</ele>
        <time>2021-07-20T06:27:03.576Z</time>
      </trkpt>
      <trkpt lat="45.70872" lon="5.72367">
        <ele>245</ele>
        <time>2021-07-20T06:27:04.576Z</time>
      </trkpt>
      <trkpt lat="45.70873" lon="5.72377">
        <ele>245</ele>
        <time>2021-07-20T06:27:05.576Z</time>
      </trkpt>
      <trkpt lat="45.70875" lon="5.72388">
        <ele>245</ele>
        <time>2021-07-20T06:27:06.575Z</time>
      </trkpt>
      <trkpt lat="45.70878" lon="5.72398">
        <ele>246</ele>
        <time>2021-07-20T06:27:07.575Z</time>
      </trkpt>
      <trkpt lat="45.70881" lon="5.72409">
        <ele>246</ele>
        <time>2021-07-20T06:27:08.575Z</time>
      </trkpt>
      <trkpt lat="45.70883" lon="5.72421">
        <ele>246</ele>
        <time>2021-07-20T06:27:09.576Z</time>
      </trkpt>
      <trkpt lat="45.70929" lon="5.72564">
        <ele>247</ele>
        <time>2021-07-20T06:27:23.576Z</time>
      </trkpt>
      <trkpt lat="45.70924" lon="5.72575">
        <ele>247</ele>
        <time>2021-07-20T06:27:24.575Z</time>
      </trkpt>
      <trkpt lat="45.70923" lon="5.72591">
        <ele>248</ele>
        <time>2021-07-20T06:27:25.575Z</time>
      </trkpt>
      <trkpt lat="45.70921" lon="5.72604">
        <ele>248</ele>
        <time>2021-07-20T06:27:26.576Z</time>
      </trkpt>
      <trkpt lat="45.70918" lon="5.72619">
        <ele>249</ele>
        <time>2021-07-20T06:27:27.575Z</time>
      </trkpt>
      <trkpt lat="45.70912" lon="5.72633">
        <ele>249</ele>
        <time>2021-07-20T06:27:28.575Z</time>
      </trkpt>
      <trkpt lat="45.70905" lon="5.72644">
        <ele>250</ele>
        <time>2021-07-20T06:27:29.575Z</time>
      </trkpt>
      <trkpt lat="45.70899" lon="5.72656">
        <ele>250</ele>
        <time>2021-07-20T06:27:30.575Z</time>
      </trkpt>
      <trkpt lat="45.70892" lon="5.72666">
        <ele>250</ele>
        <time>2021-07-20T06:27:31.575Z</time>
      </trkpt>
      <trkpt lat="45.70885" lon="5.72675">
        <ele>251</ele>
        <time>2021-07-20T06:27:32.575Z</time>
      </trkpt>
      <trkpt lat="45.70878" lon="5.72684">
        <ele>251</ele>
        <time>2021-07-20T06:27:33.575Z</time>
      </trkpt>
      <trkpt lat="45.70873" lon="5.72692">
        <ele>251</ele>
        <time>2021-07-20T06:27:34.575Z</time>
      </trkpt>
      <trkpt lat="45.70864" lon="5.72703">
        <ele>252</ele>
        <time>2021-07-20T06:27:35.575Z</time>
      </trkpt>
      <trkpt lat="45.70858" lon="5.72712">
        <ele>252</ele>
        <time>2021-07-20T06:27:36.575Z</time>
      </trkpt>
      <trkpt lat="45.70853" lon="5.72722">
        <ele>253</ele>
        <time>2021-07-20T06:27:37.575Z</time>
      </trkpt>
      <trkpt lat="45.70848" lon="5.72733">
        <ele>254</ele>
        <time>2021-07-20T06:27:38.576Z</time>
      </trkpt>
      <trkpt lat="45.70846" lon="5.72742">
        <ele>254</ele>
        <time>2021-07-20T06:27:39.575Z</time>
      </trkpt>
      <trkpt lat="45.70844" lon="5.72755">
        <ele>254</ele>
        <time>2021-07-20T06:27:40.575Z</time>
      </trkpt>
      <trkpt lat="45.70846" lon="5.72767">
        <ele>254</ele>
        <time>2021-07-20T06:27:41.575Z</time>
      </trkpt>
      <trkpt lat="45.7085" lon="5.72778">
        <ele>254</ele>
        <time>2021-07-20T06:27:42.575Z</time>
      </trkpt>
      <trkpt lat="45.70854" lon="5.72788">
        <ele>253</ele>
        <time>2021-07-20T06:27:43.575Z</time>
      </trkpt>
      <trkpt lat="45.7086" lon="5.72799">
        <ele>253</ele>
        <time>2021-07-20T06:27:44.576Z</time>
      </trkpt>
      <trkpt lat="45.70866" lon="5.72811">
        <ele>252</ele>
        <time>2021-07-20T06:27:45.575Z</time>
      </trkpt>
      <trkpt lat="45.70873" lon="5.72821">
        <ele>252</ele>
        <time>2021-07-20T06:27:46.575Z</time>
      </trkpt>
      <trkpt lat="45.7088" lon="5.72835">
        <ele>252</ele>
        <time>2021-07-20T06:27:47.576Z</time>
      </trkpt>
      <trkpt lat="45.70884" lon="5.72844">
        <ele>251</ele>
        <time>2021-07-20T06:27:48.575Z</time>
      </trkpt>
      <trkpt lat="45.7089" lon="5.72855">
        <ele>251</ele>
        <time>2021-07-20T06:27:49.575Z</time>
      </trkpt>
      <trkpt lat="45.70895" lon="5.72869">
        <ele>251</ele>
        <time>2021-07-20T06:27:50.576Z</time>
      </trkpt>
      <trkpt lat="45.70899" lon="5.72879">
        <ele>251</ele>
        <time>2021-07-20T06:27:51.576Z</time>
      </trkpt>
      <trkpt lat="45.70904" lon="5.72892">
        <ele>251</ele>
        <time>2021-07-20T06:27:52.575Z</time>
      </trkpt>
      <trkpt lat="45.70909" lon="5.72905">
        <ele>251</ele>
        <time>2021-07-20T06:27:53.575Z</time>
      </trkpt>
      <trkpt lat="45.70914" lon="5.72917">
        <ele>251</ele>
        <time>2021-07-20T06:27:54.576Z</time>
      </trkpt>
      <trkpt lat="45.70919" lon="5.72933">
        <ele>251</ele>
        <time>2021-07-20T06:27:55.575Z</time>
      </trkpt>
      <trkpt lat="45.70924" lon="5.72948">
        <ele>251</ele>
        <time>2021-07-20T06:27:56.576Z</time>
      </trkpt>
      <trkpt lat="45.70928" lon="5.72962">
        <ele>251</ele>
        <time>2021-07-20T06:27:57.575Z</time>
      </trkpt>
      <trkpt lat="45.70931" lon="5.72973">
        <ele>251</ele>
        <time>2021-07-20T06:27:58.576Z</time>
      </trkpt>
      <trkpt lat="45.70937" lon="5.72988">
        <ele>251</ele>
        <time>2021-07-20T06:27:59.575Z</time>
      </trkpt>
      <trkpt lat="45.70942" lon="5.73007">
        <ele>251</ele>
        <time>2021-07-20T06:28:00.575Z</time>
      </trkpt>
      <trkpt lat="45.70944" lon="5.73022">
        <ele>251</ele>
        <time>2021-07-20T06:28:01.576Z</time>
      </trkpt>
      <trkpt lat="45.70945" lon="5.73037">
        <ele>250</ele>
        <time>2021-07-20T06:28:02.576Z</time>
      </trkpt>
      <trkpt lat="45.70946" lon="5.73052">
        <ele>250</ele>
        <time>2021-07-20T06:28:03.576Z</time>
      </trkpt>
      <trkpt lat="45.70948" lon="5.73068">
        <ele>250</ele>
        <time>2021-07-20T06:28:04.575Z</time>
      </trkpt>
      <trkpt lat="45.7095" lon="5.73084">
        <ele>250</ele>
        <time>2021-07-20T06:28:05.576Z</time>
      </trkpt>
      <trkpt lat="45.70951" lon="5.73099">
        <ele>250</ele>
        <time>2021-07-20T06:28:06.575Z</time>
      </trkpt>
      <trkpt lat="45.70949" lon="5.73113">
        <ele>249</ele>
        <time>2021-07-20T06:28:07.576Z</time>
      </trkpt>
      <trkpt lat="45.70944" lon="5.73128">
        <ele>248</ele>
        <time>2021-07-20T06:28:08.576Z</time>
      </trkpt>
      <trkpt lat="45.70938" lon="5.7314">
        <ele>247</ele>
        <time>2021-07-20T06:28:09.575Z</time>
      </trkpt>
      <trkpt lat="45.70933" lon="5.73153">
        <ele>246</ele>
        <time>2021-07-20T06:28:10.575Z</time>
      </trkpt>
      <trkpt lat="45.70928" lon="5.73163">
        <ele>244</ele>
        <time>2021-07-20T06:28:11.576Z</time>
      </trkpt>
      <trkpt lat="45.70922" lon="5.73174">
        <ele>243</ele>
        <time>2021-07-20T06:28:12.575Z</time>
      </trkpt>
      <trkpt lat="45.70916" lon="5.73188">
        <ele>242</ele>
        <time>2021-07-20T06:28:13.575Z</time>
      </trkpt>
      <trkpt lat="45.70911" lon="5.73198">
        <ele>241</ele>
        <time>2021-07-20T06:28:14.576Z</time>
      </trkpt>
      <trkpt lat="45.70906" lon="5.73208">
        <ele>240</ele>
        <time>2021-07-20T06:28:15.575Z</time>
      </trkpt>
      <trkpt lat="45.70901" lon="5.73217">
        <ele>240</ele>
        <time>2021-07-20T06:28:16.575Z</time>
      </trkpt>
      <trkpt lat="45.70898" lon="5.73225">
        <ele>239</ele>
        <time>2021-07-20T06:28:17.575Z</time>
      </trkpt>
      <trkpt lat="45.70894" lon="5.73235">
        <ele>239</ele>
        <time>2021-07-20T06:28:18.575Z</time>
      </trkpt>
      <trkpt lat="45.70889" lon="5.73247">
        <ele>239</ele>
        <time>2021-07-20T06:28:19.575Z</time>
      </trkpt>
      <trkpt lat="45.70885" lon="5.73256">
        <ele>239</ele>
        <time>2021-07-20T06:28:20.575Z</time>
      </trkpt>
      <trkpt lat="45.70884" lon="5.73265">
        <ele>239</ele>
        <time>2021-07-20T06:28:21.575Z</time>
      </trkpt>
      <trkpt lat="45.70881" lon="5.73275">
        <ele>240</ele>
        <time>2021-07-20T06:28:22.575Z</time>
      </trkpt>
      <trkpt lat="45.70879" lon="5.73286">
        <ele>240</ele>
        <time>2021-07-20T06:28:23.575Z</time>
      </trkpt>
      <trkpt lat="45.70875" lon="5.73296">
        <ele>240</ele>
        <time>2021-07-20T06:28:24.575Z</time>
      </trkpt>
      <trkpt lat="45.70873" lon="5.73306">
        <ele>240</ele>
        <time>2021-07-20T06:28:25.576Z</time>
      </trkpt>
      <trkpt lat="45.70869" lon="5.73317">
        <ele>241</ele>
        <time>2021-07-20T06:28:26.576Z</time>
      </trkpt>
      <trkpt lat="45.70866" lon="5.73328">
        <ele>241</ele>
        <time>2021-07-20T06:28:27.576Z</time>
      </trkpt>
      <trkpt lat="45.70862" lon="5.73341">
        <ele>242</ele>
        <time>2021-07-20T06:28:28.576Z</time>
      </trkpt>
      <trkpt lat="45.70858" lon="5.73353">
        <ele>242</ele>
        <time>2021-07-20T06:28:29.575Z</time>
      </trkpt>
      <trkpt lat="45.70854" lon="5.73364">
        <ele>242</ele>
        <time>2021-07-20T06:28:30.575Z</time>
      </trkpt>
      <trkpt lat="45.70849" lon="5.73371">
        <ele>242</ele>
        <time>2021-07-20T06:28:31.576Z</time>
      </trkpt>
      <trkpt lat="45.70842" lon="5.73381">
        <ele>242</ele>
        <time>2021-07-20T06:28:32.575Z</time>
      </trkpt>
      <trkpt lat="45.70835" lon="5.73391">
        <ele>243</ele>
        <time>2021-07-20T06:28:33.575Z</time>
      </trkpt>
      <trkpt lat="45.70829" lon="5.73399">
        <ele>243</ele>
        <time>2021-07-20T06:28:34.575Z</time>
      </trkpt>
      <trkpt lat="45.70824" lon="5.73409">
        <ele>243</ele>
        <time>2021-07-20T06:28:35.575Z</time>
      </trkpt>
      <trkpt lat="45.70819" lon="5.73416">
        <ele>243</ele>
        <time>2021-07-20T06:28:36.575Z</time>
      </trkpt>
      <trkpt lat="45.70813" lon="5.73429">
        <ele>242</ele>
        <time>2021-07-20T06:28:37.576Z</time>
      </trkpt>
      <trkpt lat="45.70809" lon="5.73438">
        <ele>242</ele>
        <time>2021-07-20T06:28:38.575Z</time>
      </trkpt>
      <trkpt lat="45.70802" lon="5.73451">
        <ele>242</ele>
        <time>2021-07-20T06:28:39.576Z</time>
      </trkpt>
      <trkpt lat="45.70796" lon="5.73462">
        <ele>241</ele>
        <time>2021-07-20T06:28:40.575Z</time>
      </trkpt>
      <trkpt lat="45.70791" lon="5.73469">
        <ele>241</ele>
        <time>2021-07-20T06:28:41.575Z</time>
      </trkpt>
      <trkpt lat="45.70783" lon="5.73479">
        <ele>241</ele>
        <time>2021-07-20T06:28:42.576Z</time>
      </trkpt>
      <trkpt lat="45.70776" lon="5.73486">
        <ele>241</ele>
        <time>2021-07-20T06:28:43.576Z</time>
      </trkpt>
      <trkpt lat="45.70769" lon="5.73494">
        <ele>241</ele>
        <time>2021-07-20T06:28:44.576Z</time>
      </trkpt>
      <trkpt lat="45.70764" lon="5.735">
        <ele>241</ele>
        <time>2021-07-20T06:28:45.575Z</time>
      </trkpt>
      <trkpt lat="45.70759" lon="5.73508">
        <ele>240</ele>
        <time>2021-07-20T06:28:46.576Z</time>
      </trkpt>
      <trkpt lat="45.70754" lon="5.73516">
        <ele>240</ele>
        <time>2021-07-20T06:28:47.576Z</time>
      </trkpt>
      <trkpt lat="45.70749" lon="5.73524">
        <ele>239</ele>
        <time>2021-07-20T06:28:48.575Z</time>
      </trkpt>
      <trkpt lat="45.70744" lon="5.73532">
        <ele>238</ele>
        <time>2021-07-20T06:28:49.575Z</time>
      </trkpt>
      <trkpt lat="45.70738" lon="5.7354">
        <ele>238</ele>
        <time>2021-07-20T06:28:50.576Z</time>
      </trkpt>
      <trkpt lat="45.70733" lon="5.73548">
        <ele>238</ele>
        <time>2021-07-20T06:28:51.576Z</time>
      </trkpt>
      <trkpt lat="45.70727" lon="5.73558">
        <ele>237</ele>
        <time>2021-07-20T06:28:52.575Z</time>
      </trkpt>
      <trkpt lat="45.70721" lon="5.73566">
        <ele>237</ele>
        <time>2021-07-20T06:28:53.576Z</time>
      </trkpt>
      <trkpt lat="45.70717" lon="5.73573">
        <ele>237</ele>
        <time>2021-07-20T06:28:54.575Z</time>
      </trkpt>
      <trkpt lat="45.70711" lon="5.73583">
        <ele>237</ele>
        <time>2021-07-20T06:28:55.575Z</time>
      </trkpt>
      <trkpt lat="45.70707" lon="5.7359">
        <ele>237</ele>
        <time>2021-07-20T06:28:56.575Z</time>
      </trkpt>
      <trkpt lat="45.707" lon="5.736">
        <ele>238</ele>
        <time>2021-07-20T06:28:57.575Z</time>
      </trkpt>
      <trkpt lat="45.70695" lon="5.73609">
        <ele>238</ele>
        <time>2021-07-20T06:28:58.575Z</time>
      </trkpt>
      <trkpt lat="45.70691" lon="5.73616">
        <ele>238</ele>
        <time>2021-07-20T06:28:59.576Z</time>
      </trkpt>
      <trkpt lat="45.70686" lon="5.73625">
        <ele>239</ele>
        <time>2021-07-20T06:29:00.576Z</time>
      </trkpt>
      <trkpt lat="45.70681" lon="5.73634">
        <ele>239</ele>
        <time>2021-07-20T06:29:01.576Z</time>
      </trkpt>
      <trkpt lat="45.70677" lon="5.73643">
        <ele>239</ele>
        <time>2021-07-20T06:29:02.576Z</time>
      </trkpt>
      <trkpt lat="45.70671" lon="5.73653">
        <ele>240</ele>
        <time>2021-07-20T06:29:03.576Z</time>
      </trkpt>
      <trkpt lat="45.70667" lon="5.7366">
        <ele>240</ele>
        <time>2021-07-20T06:29:04.576Z</time>
      </trkpt>
      <trkpt lat="45.70662" lon="5.7367">
        <ele>241</ele>
        <time>2021-07-20T06:29:05.576Z</time>
      </trkpt>
      <trkpt lat="45.70657" lon="5.73679">
        <ele>241</ele>
        <time>2021-07-20T06:29:06.576Z</time>
      </trkpt>
      <trkpt lat="45.70652" lon="5.73687">
        <ele>241</ele>
        <time>2021-07-20T06:29:07.576Z</time>
      </trkpt>
      <trkpt lat="45.70648" lon="5.73696">
        <ele>241</ele>
        <time>2021-07-20T06:29:08.575Z</time>
      </trkpt>
      <trkpt lat="45.70643" lon="5.73704">
        <ele>241</ele>
        <time>2021-07-20T06:29:09.575Z</time>
      </trkpt>
      <trkpt lat="45.70638" lon="5.73713">
        <ele>241</ele>
        <time>2021-07-20T06:29:10.575Z</time>
      </trkpt>
      <trkpt lat="45.70633" lon="5.73722">
        <ele>242</ele>
        <time>2021-07-20T06:29:11.576Z</time>
      </trkpt>
      <trkpt lat="45.70628" lon="5.73732">
        <ele>242</ele>
        <time>2021-07-20T06:29:12.576Z</time>
      </trkpt>
      <trkpt lat="45.70624" lon="5.73741">
        <ele>242</ele>
        <time>2021-07-20T06:29:13.576Z</time>
      </trkpt>
      <trkpt lat="45.70619" lon="5.73752">
        <ele>241</ele>
        <time>2021-07-20T06:29:14.575Z</time>
      </trkpt>
      <trkpt lat="45.70615" lon="5.73762">
        <ele>241</ele>
        <time>2021-07-20T06:29:15.575Z</time>
      </trkpt>
      <trkpt lat="45.70611" lon="5.73773">
        <ele>241</ele>
        <time>2021-07-20T06:29:16.575Z</time>
      </trkpt>
      <trkpt lat="45.70607" lon="5.73784">
        <ele>241</ele>
        <time>2021-07-20T06:29:17.576Z</time>
      </trkpt>
      <trkpt lat="45.70604" lon="5.73795">
        <ele>241</ele>
        <time>2021-07-20T06:29:18.575Z</time>
      </trkpt>
      <trkpt lat="45.706" lon="5.73806">
        <ele>241</ele>
        <time>2021-07-20T06:29:19.576Z</time>
      </trkpt>
      <trkpt lat="45.70597" lon="5.73818">
        <ele>241</ele>
        <time>2021-07-20T06:29:20.576Z</time>
      </trkpt>
      <trkpt lat="45.70594" lon="5.7383">
        <ele>242</ele>
        <time>2021-07-20T06:29:21.575Z</time>
      </trkpt>
      <trkpt lat="45.70592" lon="5.73842">
        <ele>242</ele>
        <time>2021-07-20T06:29:22.575Z</time>
      </trkpt>
      <trkpt lat="45.7059" lon="5.73855">
        <ele>242</ele>
        <time>2021-07-20T06:29:23.575Z</time>
      </trkpt>
      <trkpt lat="45.70589" lon="5.73867">
        <ele>241</ele>
        <time>2021-07-20T06:29:24.576Z</time>
      </trkpt>
      <trkpt lat="45.70588" lon="5.7388">
        <ele>241</ele>
        <time>2021-07-20T06:29:25.575Z</time>
      </trkpt>
      <trkpt lat="45.70588" lon="5.73892">
        <ele>241</ele>
        <time>2021-07-20T06:29:26.576Z</time>
      </trkpt>
      <trkpt lat="45.70589" lon="5.73905">
        <ele>241</ele>
        <time>2021-07-20T06:29:27.575Z</time>
      </trkpt>
      <trkpt lat="45.7059" lon="5.73919">
        <ele>241</ele>
        <time>2021-07-20T06:29:28.575Z</time>
      </trkpt>
      <trkpt lat="45.70591" lon="5.73932">
        <ele>240</ele>
        <time>2021-07-20T06:29:29.576Z</time>
      </trkpt>
      <trkpt lat="45.70592" lon="5.73945">
        <ele>240</ele>
        <time>2021-07-20T06:29:30.575Z</time>
      </trkpt>
      <trkpt lat="45.70592" lon="5.73958">
        <ele>239</ele>
        <time>2021-07-20T06:29:31.575Z</time>
      </trkpt>
      <trkpt lat="45.70593" lon="5.73973">
        <ele>239</ele>
        <time>2021-07-20T06:29:32.575Z</time>
      </trkpt>
      <trkpt lat="45.70593" lon="5.73984">
        <ele>238</ele>
        <time>2021-07-20T06:29:33.575Z</time>
      </trkpt>
      <trkpt lat="45.70594" lon="5.73996">
        <ele>238</ele>
        <time>2021-07-20T06:29:34.575Z</time>
      </trkpt>
      <trkpt lat="45.70594" lon="5.74011">
        <ele>237</ele>
        <time>2021-07-20T06:29:35.576Z</time>
      </trkpt>
      <trkpt lat="45.70594" lon="5.74023">
        <ele>237</ele>
        <time>2021-07-20T06:29:36.576Z</time>
      </trkpt>
      <trkpt lat="45.70594" lon="5.74036">
        <ele>236</ele>
        <time>2021-07-20T06:29:37.576Z</time>
      </trkpt>
      <trkpt lat="45.70595" lon="5.74045">
        <ele>236</ele>
        <time>2021-07-20T06:29:38.575Z</time>
      </trkpt>
      <trkpt lat="45.70596" lon="5.74057">
        <ele>235</ele>
        <time>2021-07-20T06:29:39.576Z</time>
      </trkpt>
      <trkpt lat="45.70598" lon="5.74068">
        <ele>235</ele>
        <time>2021-07-20T06:29:40.576Z</time>
      </trkpt>
      <trkpt lat="45.70599" lon="5.7408">
        <ele>234</ele>
        <time>2021-07-20T06:29:41.576Z</time>
      </trkpt>
      <trkpt lat="45.70599" lon="5.7409">
        <ele>233</ele>
        <time>2021-07-20T06:29:42.575Z</time>
      </trkpt>
      <trkpt lat="45.70599" lon="5.74101">
        <ele>233</ele>
        <time>2021-07-20T06:29:43.576Z</time>
      </trkpt>
      <trkpt lat="45.706" lon="5.74112">
        <ele>233</ele>
        <time>2021-07-20T06:29:44.576Z</time>
      </trkpt>
      <trkpt lat="45.706" lon="5.74122">
        <ele>233</ele>
        <time>2021-07-20T06:29:45.576Z</time>
      </trkpt>
      <trkpt lat="45.70601" lon="5.74135">
        <ele>233</ele>
        <time>2021-07-20T06:29:46.575Z</time>
      </trkpt>
      <trkpt lat="45.70602" lon="5.74144">
        <ele>233</ele>
        <time>2021-07-20T06:29:47.576Z</time>
      </trkpt>
      <trkpt lat="45.706" lon="5.74154">
        <ele>233</ele>
        <time>2021-07-20T06:29:48.575Z</time>
      </trkpt>
      <trkpt lat="45.706" lon="5.74164">
        <ele>233</ele>
        <time>2021-07-20T06:29:49.575Z</time>
      </trkpt>
      <trkpt lat="45.70599" lon="5.74174">
        <ele>233</ele>
        <time>2021-07-20T06:29:50.575Z</time>
      </trkpt>
      <trkpt lat="45.70597" lon="5.74183">
        <ele>233</ele>
        <time>2021-07-20T06:29:51.576Z</time>
      </trkpt>
      <trkpt lat="45.70596" lon="5.74193">
        <ele>233</ele>
        <time>2021-07-20T06:29:52.576Z</time>
      </trkpt>
      <trkpt lat="45.70594" lon="5.74202">
        <ele>233</ele>
        <time>2021-07-20T06:29:53.576Z</time>
      </trkpt>
      <trkpt lat="45.70593" lon="5.74212">
        <ele>234</ele>
        <time>2021-07-20T06:29:54.576Z</time>
      </trkpt>
      <trkpt lat="45.70591" lon="5.74221">
        <ele>234</ele>
        <time>2021-07-20T06:29:55.576Z</time>
      </trkpt>
      <trkpt lat="45.70589" lon="5.74231">
        <ele>234</ele>
        <time>2021-07-20T06:29:56.576Z</time>
      </trkpt>
      <trkpt lat="45.70587" lon="5.7424">
        <ele>234</ele>
        <time>2021-07-20T06:29:57.576Z</time>
      </trkpt>
      <trkpt lat="45.70585" lon="5.7425">
        <ele>234</ele>
        <time>2021-07-20T06:29:58.576Z</time>
      </trkpt>
      <trkpt lat="45.70584" lon="5.74259">
        <ele>234</ele>
        <time>2021-07-20T06:29:59.576Z</time>
      </trkpt>
      <trkpt lat="45.70582" lon="5.74269">
        <ele>234</ele>
        <time>2021-07-20T06:30:00.576Z</time>
      </trkpt>
      <trkpt lat="45.70581" lon="5.74278">
        <ele>234</ele>
        <time>2021-07-20T06:30:01.575Z</time>
      </trkpt>
      <trkpt lat="45.7058" lon="5.74288">
        <ele>234</ele>
        <time>2021-07-20T06:30:02.575Z</time>
      </trkpt>
      <trkpt lat="45.70578" lon="5.74298">
        <ele>234</ele>
        <time>2021-07-20T06:30:03.575Z</time>
      </trkpt>
      <trkpt lat="45.70577" lon="5.74308">
        <ele>234</ele>
        <time>2021-07-20T06:30:04.576Z</time>
      </trkpt>
      <trkpt lat="45.70576" lon="5.74317">
        <ele>235</ele>
        <time>2021-07-20T06:30:05.576Z</time>
      </trkpt>
      <trkpt lat="45.70575" lon="5.74327">
        <ele>235</ele>
        <time>2021-07-20T06:30:06.575Z</time>
      </trkpt>
      <trkpt lat="45.70574" lon="5.74338">
        <ele>235</ele>
        <time>2021-07-20T06:30:07.576Z</time>
      </trkpt>
      <trkpt lat="45.70572" lon="5.74348">
        <ele>235</ele>
        <time>2021-07-20T06:30:08.576Z</time>
      </trkpt>
      <trkpt lat="45.70571" lon="5.74358">
        <ele>235</ele>
        <time>2021-07-20T06:30:09.576Z</time>
      </trkpt>
      <trkpt lat="45.7057" lon="5.74369">
        <ele>236</ele>
        <time>2021-07-20T06:30:10.575Z</time>
      </trkpt>
      <trkpt lat="45.70569" lon="5.7438">
        <ele>236</ele>
        <time>2021-07-20T06:30:11.575Z</time>
      </trkpt>
      <trkpt lat="45.70567" lon="5.74391">
        <ele>236</ele>
        <time>2021-07-20T06:30:12.576Z</time>
      </trkpt>
      <trkpt lat="45.70566" lon="5.74402">
        <ele>235</ele>
        <time>2021-07-20T06:30:13.575Z</time>
      </trkpt>
      <trkpt lat="45.70564" lon="5.74414">
        <ele>235</ele>
        <time>2021-07-20T06:30:14.575Z</time>
      </trkpt>
      <trkpt lat="45.70561" lon="5.74428">
        <ele>235</ele>
        <time>2021-07-20T06:30:15.575Z</time>
      </trkpt>
      <trkpt lat="45.7056" lon="5.74437">
        <ele>234</ele>
        <time>2021-07-20T06:30:16.575Z</time>
      </trkpt>
      <trkpt lat="45.70557" lon="5.74449">
        <ele>234</ele>
        <time>2021-07-20T06:30:17.576Z</time>
      </trkpt>
      <trkpt lat="45.70556" lon="5.7446">
        <ele>234</ele>
        <time>2021-07-20T06:30:18.575Z</time>
      </trkpt>
      <trkpt lat="45.70554" lon="5.74472">
        <ele>234</ele>
        <time>2021-07-20T06:30:19.576Z</time>
      </trkpt>
      <trkpt lat="45.70553" lon="5.74484">
        <ele>234</ele>
        <time>2021-07-20T06:30:20.576Z</time>
      </trkpt>
      <trkpt lat="45.70551" lon="5.74496">
        <ele>234</ele>
        <time>2021-07-20T06:30:21.575Z</time>
      </trkpt>
      <trkpt lat="45.70549" lon="5.74508">
        <ele>234</ele>
        <time>2021-07-20T06:30:22.575Z</time>
      </trkpt>
      <trkpt lat="45.70547" lon="5.7452">
        <ele>234</ele>
        <time>2021-07-20T06:30:23.576Z</time>
      </trkpt>
      <trkpt lat="45.70545" lon="5.74532">
        <ele>234</ele>
        <time>2021-07-20T06:30:24.576Z</time>
      </trkpt>
      <trkpt lat="45.7054" lon="5.74544">
        <ele>234</ele>
        <time>2021-07-20T06:30:25.576Z</time>
      </trkpt>
      <trkpt lat="45.70536" lon="5.74556">
        <ele>234</ele>
        <time>2021-07-20T06:30:26.575Z</time>
      </trkpt>
      <trkpt lat="45.70532" lon="5.74568">
        <ele>234</ele>
        <time>2021-07-20T06:30:27.576Z</time>
      </trkpt>
      <trkpt lat="45.70526" lon="5.74581">
        <ele>234</ele>
        <time>2021-07-20T06:30:28.576Z</time>
      </trkpt>
      <trkpt lat="45.70521" lon="5.74592">
        <ele>234</ele>
        <time>2021-07-20T06:30:29.576Z</time>
      </trkpt>
      <trkpt lat="45.70517" lon="5.746">
        <ele>233</ele>
        <time>2021-07-20T06:30:30.576Z</time>
      </trkpt>
      <trkpt lat="45.70513" lon="5.74612">
        <ele>233</ele>
        <time>2021-07-20T06:30:31.575Z</time>
      </trkpt>
      <trkpt lat="45.70508" lon="5.74626">
        <ele>232</ele>
        <time>2021-07-20T06:30:32.576Z</time>
      </trkpt>
      <trkpt lat="45.70505" lon="5.74639">
        <ele>232</ele>
        <time>2021-07-20T06:30:33.576Z</time>
      </trkpt>
      <trkpt lat="45.70502" lon="5.74649">
        <ele>232</ele>
        <time>2021-07-20T06:30:34.576Z</time>
      </trkpt>
      <trkpt lat="45.705" lon="5.74661">
        <ele>231</ele>
        <time>2021-07-20T06:30:35.575Z</time>
      </trkpt>
      <trkpt lat="45.70497" lon="5.74674">
        <ele>231</ele>
        <time>2021-07-20T06:30:36.575Z</time>
      </trkpt>
      <trkpt lat="45.70494" lon="5.74686">
        <ele>231</ele>
        <time>2021-07-20T06:30:37.576Z</time>
      </trkpt>
      <trkpt lat="45.70491" lon="5.74698">
        <ele>231</ele>
        <time>2021-07-20T06:30:38.575Z</time>
      </trkpt>
      <trkpt lat="45.70487" lon="5.7471">
        <ele>231</ele>
        <time>2021-07-20T06:30:39.575Z</time>
      </trkpt>
      <trkpt lat="45.70484" lon="5.74722">
        <ele>230</ele>
        <time>2021-07-20T06:30:40.576Z</time>
      </trkpt>
      <trkpt lat="45.70481" lon="5.74734">
        <ele>230</ele>
        <time>2021-07-20T06:30:41.576Z</time>
      </trkpt>
      <trkpt lat="45.70477" lon="5.74744">
        <ele>230</ele>
        <time>2021-07-20T06:30:42.576Z</time>
      </trkpt>
      <trkpt lat="45.70474" lon="5.74755">
        <ele>231</ele>
        <time>2021-07-20T06:30:43.576Z</time>
      </trkpt>
      <trkpt lat="45.7047" lon="5.74767">
        <ele>231</ele>
        <time>2021-07-20T06:30:44.575Z</time>
      </trkpt>
      <trkpt lat="45.70468" lon="5.74778">
        <ele>231</ele>
        <time>2021-07-20T06:30:45.576Z</time>
      </trkpt>
      <trkpt lat="45.70466" lon="5.7479">
        <ele>231</ele>
        <time>2021-07-20T06:30:46.576Z</time>
      </trkpt>
      <trkpt lat="45.70465" lon="5.74802">
        <ele>232</ele>
        <time>2021-07-20T06:30:47.576Z</time>
      </trkpt>
      <trkpt lat="45.70465" lon="5.74813">
        <ele>232</ele>
        <time>2021-07-20T06:30:48.576Z</time>
      </trkpt>
      <trkpt lat="45.70467" lon="5.74824">
        <ele>232</ele>
        <time>2021-07-20T06:30:49.576Z</time>
      </trkpt>
      <trkpt lat="45.70469" lon="5.74835">
        <ele>232</ele>
        <time>2021-07-20T06:30:50.576Z</time>
      </trkpt>
      <trkpt lat="45.70472" lon="5.74846">
        <ele>232</ele>
        <time>2021-07-20T06:30:51.576Z</time>
      </trkpt>
      <trkpt lat="45.70477" lon="5.74858">
        <ele>232</ele>
        <time>2021-07-20T06:30:52.576Z</time>
      </trkpt>
      <trkpt lat="45.7048" lon="5.74866">
        <ele>232</ele>
        <time>2021-07-20T06:30:53.576Z</time>
      </trkpt>
      <trkpt lat="45.70485" lon="5.74876">
        <ele>232</ele>
        <time>2021-07-20T06:30:54.576Z</time>
      </trkpt>
      <trkpt lat="45.70489" lon="5.74886">
        <ele>233</ele>
        <time>2021-07-20T06:30:55.576Z</time>
      </trkpt>
      <trkpt lat="45.70493" lon="5.74896">
        <ele>233</ele>
        <time>2021-07-20T06:30:56.575Z</time>
      </trkpt>
      <trkpt lat="45.70498" lon="5.74907">
        <ele>234</ele>
        <time>2021-07-20T06:30:57.576Z</time>
      </trkpt>
      <trkpt lat="45.70503" lon="5.74918">
        <ele>235</ele>
        <time>2021-07-20T06:30:58.576Z</time>
      </trkpt>
      <trkpt lat="45.70507" lon="5.74928">
        <ele>236</ele>
        <time>2021-07-20T06:30:59.576Z</time>
      </trkpt>
      <trkpt lat="45.70512" lon="5.74938">
        <ele>237</ele>
        <time>2021-07-20T06:31:00.575Z</time>
      </trkpt>
      <trkpt lat="45.70516" lon="5.74949">
        <ele>237</ele>
        <time>2021-07-20T06:31:01.575Z</time>
      </trkpt>
      <trkpt lat="45.70521" lon="5.74959">
        <ele>238</ele>
        <time>2021-07-20T06:31:02.576Z</time>
      </trkpt>
      <trkpt lat="45.70525" lon="5.7497">
        <ele>239</ele>
        <time>2021-07-20T06:31:03.575Z</time>
      </trkpt>
      <trkpt lat="45.70529" lon="5.74981">
        <ele>240</ele>
        <time>2021-07-20T06:31:04.575Z</time>
      </trkpt>
      <trkpt lat="45.70531" lon="5.74992">
        <ele>241</ele>
        <time>2021-07-20T06:31:05.576Z</time>
      </trkpt>
      <trkpt lat="45.70534" lon="5.75004">
        <ele>241</ele>
        <time>2021-07-20T06:31:06.576Z</time>
      </trkpt>
      <trkpt lat="45.70536" lon="5.75016">
        <ele>241</ele>
        <time>2021-07-20T06:31:07.575Z</time>
      </trkpt>
      <trkpt lat="45.70538" lon="5.75027">
        <ele>240</ele>
        <time>2021-07-20T06:31:08.575Z</time>
      </trkpt>
      <trkpt lat="45.70539" lon="5.75039">
        <ele>240</ele>
        <time>2021-07-20T06:31:09.575Z</time>
      </trkpt>
      <trkpt lat="45.7054" lon="5.7505">
        <ele>239</ele>
        <time>2021-07-20T06:31:10.576Z</time>
      </trkpt>
      <trkpt lat="45.70541" lon="5.75062">
        <ele>239</ele>
        <time>2021-07-20T06:31:11.576Z</time>
      </trkpt>
      <trkpt lat="45.70541" lon="5.75073">
        <ele>238</ele>
        <time>2021-07-20T06:31:12.575Z</time>
      </trkpt>
      <trkpt lat="45.70542" lon="5.75085">
        <ele>238</ele>
        <time>2021-07-20T06:31:13.576Z</time>
      </trkpt>
      <trkpt lat="45.70541" lon="5.75097">
        <ele>237</ele>
        <time>2021-07-20T06:31:14.576Z</time>
      </trkpt>
      <trkpt lat="45.7054" lon="5.75109">
        <ele>237</ele>
        <time>2021-07-20T06:31:15.576Z</time>
      </trkpt>
      <trkpt lat="45.70539" lon="5.75121">
        <ele>236</ele>
        <time>2021-07-20T06:31:16.576Z</time>
      </trkpt>
      <trkpt lat="45.70539" lon="5.75133">
        <ele>235</ele>
        <time>2021-07-20T06:31:17.576Z</time>
      </trkpt>
      <trkpt lat="45.70538" lon="5.75145">
        <ele>235</ele>
        <time>2021-07-20T06:31:18.576Z</time>
      </trkpt>
      <trkpt lat="45.70536" lon="5.75157">
        <ele>234</ele>
        <time>2021-07-20T06:31:19.576Z</time>
      </trkpt>
      <trkpt lat="45.70534" lon="5.7517">
        <ele>234</ele>
        <time>2021-07-20T06:31:20.576Z</time>
      </trkpt>
      <trkpt lat="45.70534" lon="5.75182">
        <ele>233</ele>
        <time>2021-07-20T06:31:21.576Z</time>
      </trkpt>
      <trkpt lat="45.70533" lon="5.75194">
        <ele>233</ele>
        <time>2021-07-20T06:31:22.575Z</time>
      </trkpt>
      <trkpt lat="45.70533" lon="5.75206">
        <ele>232</ele>
        <time>2021-07-20T06:31:23.576Z</time>
      </trkpt>
      <trkpt lat="45.70532" lon="5.75221">
        <ele>232</ele>
        <time>2021-07-20T06:31:24.575Z</time>
      </trkpt>
      <trkpt lat="45.70532" lon="5.75233">
        <ele>232</ele>
        <time>2021-07-20T06:31:25.575Z</time>
      </trkpt>
      <trkpt lat="45.70532" lon="5.75242">
        <ele>232</ele>
        <time>2021-07-20T06:31:26.576Z</time>
      </trkpt>
      <trkpt lat="45.70532" lon="5.75254">
        <ele>232</ele>
        <time>2021-07-20T06:31:27.576Z</time>
      </trkpt>
      <trkpt lat="45.70531" lon="5.75268">
        <ele>232</ele>
        <time>2021-07-20T06:31:28.576Z</time>
      </trkpt>
      <trkpt lat="45.70532" lon="5.7528">
        <ele>232</ele>
        <time>2021-07-20T06:31:29.576Z</time>
      </trkpt>
      <trkpt lat="45.70532" lon="5.75292">
        <ele>231</ele>
        <time>2021-07-20T06:31:30.576Z</time>
      </trkpt>
      <trkpt lat="45.70532" lon="5.75304">
        <ele>232</ele>
        <time>2021-07-20T06:31:31.576Z</time>
      </trkpt>
      <trkpt lat="45.70533" lon="5.75316">
        <ele>232</ele>
        <time>2021-07-20T06:31:32.575Z</time>
      </trkpt>
      <trkpt lat="45.70534" lon="5.75328">
        <ele>232</ele>
        <time>2021-07-20T06:31:33.576Z</time>
      </trkpt>
      <trkpt lat="45.70535" lon="5.7534">
        <ele>232</ele>
        <time>2021-07-20T06:31:34.576Z</time>
      </trkpt>
      <trkpt lat="45.70536" lon="5.75352">
        <ele>232</ele>
        <time>2021-07-20T06:31:35.576Z</time>
      </trkpt>
      <trkpt lat="45.70537" lon="5.75364">
        <ele>231</ele>
        <time>2021-07-20T06:31:36.576Z</time>
      </trkpt>
      <trkpt lat="45.70538" lon="5.75376">
        <ele>231</ele>
        <time>2021-07-20T06:31:37.575Z</time>
      </trkpt>
      <trkpt lat="45.7054" lon="5.75388">
        <ele>231</ele>
        <time>2021-07-20T06:31:38.576Z</time>
      </trkpt>
      <trkpt lat="45.70541" lon="5.754">
        <ele>231</ele>
        <time>2021-07-20T06:31:39.576Z</time>
      </trkpt>
      <trkpt lat="45.70543" lon="5.75412">
        <ele>230</ele>
        <time>2021-07-20T06:31:40.575Z</time>
      </trkpt>
      <trkpt lat="45.70544" lon="5.75421">
        <ele>230</ele>
        <time>2021-07-20T06:31:41.576Z</time>
      </trkpt>
      <trkpt lat="45.70546" lon="5.75436">
        <ele>230</ele>
        <time>2021-07-20T06:31:42.576Z</time>
      </trkpt>
      <trkpt lat="45.70548" lon="5.75448">
        <ele>231</ele>
        <time>2021-07-20T06:31:43.576Z</time>
      </trkpt>
      <trkpt lat="45.7055" lon="5.7546">
        <ele>231</ele>
        <time>2021-07-20T06:31:44.576Z</time>
      </trkpt>
      <trkpt lat="45.70552" lon="5.7547">
        <ele>231</ele>
        <time>2021-07-20T06:31:45.576Z</time>
      </trkpt>
      <trkpt lat="45.70554" lon="5.75486">
        <ele>231</ele>
        <time>2021-07-20T06:31:46.575Z</time>
      </trkpt>
      <trkpt lat="45.70556" lon="5.75498">
        <ele>232</ele>
        <time>2021-07-20T06:31:47.575Z</time>
      </trkpt>
      <trkpt lat="45.70558" lon="5.75511">
        <ele>232</ele>
        <time>2021-07-20T06:31:48.575Z</time>
      </trkpt>
      <trkpt lat="45.7056" lon="5.75524">
        <ele>233</ele>
        <time>2021-07-20T06:31:49.576Z</time>
      </trkpt>
      <trkpt lat="45.70562" lon="5.75537">
        <ele>233</ele>
        <time>2021-07-20T06:31:50.576Z</time>
      </trkpt>
      <trkpt lat="45.70564" lon="5.7555">
        <ele>233</ele>
        <time>2021-07-20T06:31:51.576Z</time>
      </trkpt>
      <trkpt lat="45.70565" lon="5.75563">
        <ele>233</ele>
        <time>2021-07-20T06:31:52.575Z</time>
      </trkpt>
      <trkpt lat="45.70567" lon="5.75576">
        <ele>233</ele>
        <time>2021-07-20T06:31:53.576Z</time>
      </trkpt>
      <trkpt lat="45.70569" lon="5.75589">
        <ele>232</ele>
        <time>2021-07-20T06:31:54.576Z</time>
      </trkpt>
      <trkpt lat="45.70571" lon="5.75602">
        <ele>232</ele>
        <time>2021-07-20T06:31:55.576Z</time>
      </trkpt>
      <trkpt lat="45.70573" lon="5.75614">
        <ele>231</ele>
        <time>2021-07-20T06:31:56.576Z</time>
      </trkpt>
      <trkpt lat="45.70575" lon="5.75627">
        <ele>231</ele>
        <time>2021-07-20T06:31:57.575Z</time>
      </trkpt>
      <trkpt lat="45.70577" lon="5.75639">
        <ele>231</ele>
        <time>2021-07-20T06:31:58.576Z</time>
      </trkpt>
      <trkpt lat="45.70579" lon="5.75651">
        <ele>232</ele>
        <time>2021-07-20T06:31:59.576Z</time>
      </trkpt>
      <trkpt lat="45.7058" lon="5.75661">
        <ele>232</ele>
        <time>2021-07-20T06:32:00.576Z</time>
      </trkpt>
      <trkpt lat="45.70582" lon="5.75677">
        <ele>232</ele>
        <time>2021-07-20T06:32:01.576Z</time>
      </trkpt>
      <trkpt lat="45.70585" lon="5.7569">
        <ele>232</ele>
        <time>2021-07-20T06:32:02.576Z</time>
      </trkpt>
      <trkpt lat="45.70586" lon="5.75702">
        <ele>233</ele>
        <time>2021-07-20T06:32:03.576Z</time>
      </trkpt>
      <trkpt lat="45.70588" lon="5.75715">
        <ele>233</ele>
        <time>2021-07-20T06:32:04.576Z</time>
      </trkpt>
      <trkpt lat="45.7059" lon="5.75727">
        <ele>234</ele>
        <time>2021-07-20T06:32:05.576Z</time>
      </trkpt>
      <trkpt lat="45.70592" lon="5.75739">
        <ele>234</ele>
        <time>2021-07-20T06:32:06.576Z</time>
      </trkpt>
      <trkpt lat="45.70594" lon="5.75751">
        <ele>234</ele>
        <time>2021-07-20T06:32:07.576Z</time>
      </trkpt>
      <trkpt lat="45.70595" lon="5.75761">
        <ele>234</ele>
        <time>2021-07-20T06:32:08.576Z</time>
      </trkpt>
      <trkpt lat="45.70597" lon="5.75773">
        <ele>234</ele>
        <time>2021-07-20T06:32:09.576Z</time>
      </trkpt>
      <trkpt lat="45.70599" lon="5.75787">
        <ele>234</ele>
        <time>2021-07-20T06:32:10.575Z</time>
      </trkpt>
      <trkpt lat="45.70601" lon="5.758">
        <ele>234</ele>
        <time>2021-07-20T06:32:11.576Z</time>
      </trkpt>
      <trkpt lat="45.70603" lon="5.75812">
        <ele>233</ele>
        <time>2021-07-20T06:32:12.576Z</time>
      </trkpt>
      <trkpt lat="45.70605" lon="5.75825">
        <ele>233</ele>
        <time>2021-07-20T06:32:13.576Z</time>
      </trkpt>
      <trkpt lat="45.70607" lon="5.75837">
        <ele>232</ele>
        <time>2021-07-20T06:32:14.575Z</time>
      </trkpt>
      <trkpt lat="45.7061" lon="5.75849">
        <ele>231</ele>
        <time>2021-07-20T06:32:15.576Z</time>
      </trkpt>
      <trkpt lat="45.70612" lon="5.75861">
        <ele>230</ele>
        <time>2021-07-20T06:32:16.576Z</time>
      </trkpt>
      <trkpt lat="45.70613" lon="5.75873">
        <ele>230</ele>
        <time>2021-07-20T06:32:17.576Z</time>
      </trkpt>
      <trkpt lat="45.70614" lon="5.75884">
        <ele>230</ele>
        <time>2021-07-20T06:32:18.576Z</time>
      </trkpt>
      <trkpt lat="45.70616" lon="5.75899">
        <ele>230</ele>
        <time>2021-07-20T06:32:19.576Z</time>
      </trkpt>
      <trkpt lat="45.70617" lon="5.75909">
        <ele>230</ele>
        <time>2021-07-20T06:32:20.575Z</time>
      </trkpt>
      <trkpt lat="45.70618" lon="5.75921">
        <ele>231</ele>
        <time>2021-07-20T06:32:21.576Z</time>
      </trkpt>
      <trkpt lat="45.7062" lon="5.75934">
        <ele>231</ele>
        <time>2021-07-20T06:32:22.576Z</time>
      </trkpt>
      <trkpt lat="45.70621" lon="5.75946">
        <ele>231</ele>
        <time>2021-07-20T06:32:23.576Z</time>
      </trkpt>
      <trkpt lat="45.70623" lon="5.75959">
        <ele>231</ele>
        <time>2021-07-20T06:32:24.575Z</time>
      </trkpt>
      <trkpt lat="45.70624" lon="5.75971">
        <ele>231</ele>
        <time>2021-07-20T06:32:25.575Z</time>
      </trkpt>
      <trkpt lat="45.70626" lon="5.75983">
        <ele>231</ele>
        <time>2021-07-20T06:32:26.575Z</time>
      </trkpt>
      <trkpt lat="45.70627" lon="5.75995">
        <ele>231</ele>
        <time>2021-07-20T06:32:27.576Z</time>
      </trkpt>
      <trkpt lat="45.70629" lon="5.76007">
        <ele>231</ele>
        <time>2021-07-20T06:32:28.575Z</time>
      </trkpt>
      <trkpt lat="45.7063" lon="5.76018">
        <ele>231</ele>
        <time>2021-07-20T06:32:29.576Z</time>
      </trkpt>
      <trkpt lat="45.70632" lon="5.7603">
        <ele>231</ele>
        <time>2021-07-20T06:32:30.576Z</time>
      </trkpt>
      <trkpt lat="45.70634" lon="5.76041">
        <ele>231</ele>
        <time>2021-07-20T06:32:31.576Z</time>
      </trkpt>
      <trkpt lat="45.70635" lon="5.76054">
        <ele>231</ele>
        <time>2021-07-20T06:32:32.575Z</time>
      </trkpt>
      <trkpt lat="45.70635" lon="5.76062">
        <ele>231</ele>
        <time>2021-07-20T06:32:33.576Z</time>
      </trkpt>
      <trkpt lat="45.70633" lon="5.76072">
        <ele>231</ele>
        <time>2021-07-20T06:32:34.576Z</time>
      </trkpt>
      <trkpt lat="45.70631" lon="5.76082">
        <ele>230</ele>
        <time>2021-07-20T06:32:35.576Z</time>
      </trkpt>
      <trkpt lat="45.70628" lon="5.76092">
        <ele>230</ele>
        <time>2021-07-20T06:32:36.575Z</time>
      </trkpt>
      <trkpt lat="45.70626" lon="5.76102">
        <ele>229</ele>
        <time>2021-07-20T06:32:37.576Z</time>
      </trkpt>
      <trkpt lat="45.70626" lon="5.76112">
        <ele>229</ele>
        <time>2021-07-20T06:32:38.576Z</time>
      </trkpt>
      <trkpt lat="45.70627" lon="5.76122">
        <ele>228</ele>
        <time>2021-07-20T06:32:39.576Z</time>
      </trkpt>
      <trkpt lat="45.7063" lon="5.76132">
        <ele>228</ele>
        <time>2021-07-20T06:32:40.575Z</time>
      </trkpt>
      <trkpt lat="45.70633" lon="5.76142">
        <ele>228</ele>
        <time>2021-07-20T06:32:41.576Z</time>
      </trkpt>
      <trkpt lat="45.70636" lon="5.76153">
        <ele>227</ele>
        <time>2021-07-20T06:32:42.576Z</time>
      </trkpt>
      <trkpt lat="45.70637" lon="5.76164">
        <ele>227</ele>
        <time>2021-07-20T06:32:43.576Z</time>
      </trkpt>
      <trkpt lat="45.70637" lon="5.76175">
        <ele>227</ele>
        <time>2021-07-20T06:32:44.576Z</time>
      </trkpt>
      <trkpt lat="45.70636" lon="5.76186">
        <ele>227</ele>
        <time>2021-07-20T06:32:45.576Z</time>
      </trkpt>
      <trkpt lat="45.70635" lon="5.76198">
        <ele>227</ele>
        <time>2021-07-20T06:32:46.576Z</time>
      </trkpt>
      <trkpt lat="45.70634" lon="5.76211">
        <ele>227</ele>
        <time>2021-07-20T06:32:47.576Z</time>
      </trkpt>
      <trkpt lat="45.70633" lon="5.76223">
        <ele>227</ele>
        <time>2021-07-20T06:32:48.575Z</time>
      </trkpt>
      <trkpt lat="45.70633" lon="5.76234">
        <ele>228</ele>
        <time>2021-07-20T06:32:49.575Z</time>
      </trkpt>
      <trkpt lat="45.70632" lon="5.76246">
        <ele>228</ele>
        <time>2021-07-20T06:32:50.576Z</time>
      </trkpt>
      <trkpt lat="45.70631" lon="5.76255">
        <ele>228</ele>
        <time>2021-07-20T06:32:51.576Z</time>
      </trkpt>
      <trkpt lat="45.7063" lon="5.76269">
        <ele>228</ele>
        <time>2021-07-20T06:32:52.575Z</time>
      </trkpt>
      <trkpt lat="45.70628" lon="5.7628">
        <ele>228</ele>
        <time>2021-07-20T06:32:53.575Z</time>
      </trkpt>
      <trkpt lat="45.70627" lon="5.76291">
        <ele>229</ele>
        <time>2021-07-20T06:32:54.576Z</time>
      </trkpt>
      <trkpt lat="45.70626" lon="5.76303">
        <ele>229</ele>
        <time>2021-07-20T06:32:55.576Z</time>
      </trkpt>
      <trkpt lat="45.70624" lon="5.76312">
        <ele>229</ele>
        <time>2021-07-20T06:32:56.575Z</time>
      </trkpt>
      <trkpt lat="45.70622" lon="5.76325">
        <ele>229</ele>
        <time>2021-07-20T06:32:57.576Z</time>
      </trkpt>
      <trkpt lat="45.70621" lon="5.76337">
        <ele>229</ele>
        <time>2021-07-20T06:32:58.576Z</time>
      </trkpt>
      <trkpt lat="45.70619" lon="5.76348">
        <ele>229</ele>
        <time>2021-07-20T06:32:59.576Z</time>
      </trkpt>
      <trkpt lat="45.70618" lon="5.76359">
        <ele>229</ele>
        <time>2021-07-20T06:33:00.576Z</time>
      </trkpt>
      <trkpt lat="45.70616" lon="5.7637">
        <ele>229</ele>
        <time>2021-07-20T06:33:01.576Z</time>
      </trkpt>
      <trkpt lat="45.70615" lon="5.76381">
        <ele>229</ele>
        <time>2021-07-20T06:33:02.576Z</time>
      </trkpt>
      <trkpt lat="45.70613" lon="5.76392">
        <ele>229</ele>
        <time>2021-07-20T06:33:03.576Z</time>
      </trkpt>
      <trkpt lat="45.70611" lon="5.76403">
        <ele>229</ele>
        <time>2021-07-20T06:33:04.576Z</time>
      </trkpt>
      <trkpt lat="45.7061" lon="5.76411">
        <ele>229</ele>
        <time>2021-07-20T06:33:05.576Z</time>
      </trkpt>
      <trkpt lat="45.70608" lon="5.76424">
        <ele>230</ele>
        <time>2021-07-20T06:33:06.576Z</time>
      </trkpt>
      <trkpt lat="45.70607" lon="5.76435">
        <ele>230</ele>
        <time>2021-07-20T06:33:07.575Z</time>
      </trkpt>
      <trkpt lat="45.70605" lon="5.76444">
        <ele>230</ele>
        <time>2021-07-20T06:33:08.575Z</time>
      </trkpt>
      <trkpt lat="45.70604" lon="5.76457">
        <ele>230</ele>
        <time>2021-07-20T06:33:09.576Z</time>
      </trkpt>
      <trkpt lat="45.70602" lon="5.76468">
        <ele>230</ele>
        <time>2021-07-20T06:33:10.575Z</time>
      </trkpt>
      <trkpt lat="45.70601" lon="5.76479">
        <ele>230</ele>
        <time>2021-07-20T06:33:11.576Z</time>
      </trkpt>
      <trkpt lat="45.70599" lon="5.7649">
        <ele>230</ele>
        <time>2021-07-20T06:33:12.575Z</time>
      </trkpt>
      <trkpt lat="45.70597" lon="5.76498">
        <ele>230</ele>
        <time>2021-07-20T06:33:13.576Z</time>
      </trkpt>
      <trkpt lat="45.70596" lon="5.76509">
        <ele>231</ele>
        <time>2021-07-20T06:33:14.575Z</time>
      </trkpt>
      <trkpt lat="45.70594" lon="5.76522">
        <ele>231</ele>
        <time>2021-07-20T06:33:15.575Z</time>
      </trkpt>
      <trkpt lat="45.70592" lon="5.76533">
        <ele>231</ele>
        <time>2021-07-20T06:33:16.575Z</time>
      </trkpt>
      <trkpt lat="45.70591" lon="5.76543">
        <ele>231</ele>
        <time>2021-07-20T06:33:17.575Z</time>
      </trkpt>
      <trkpt lat="45.70589" lon="5.76554">
        <ele>231</ele>
        <time>2021-07-20T06:33:18.576Z</time>
      </trkpt>
      <trkpt lat="45.70588" lon="5.76565">
        <ele>230</ele>
        <time>2021-07-20T06:33:19.576Z</time>
      </trkpt>
      <trkpt lat="45.70586" lon="5.76576">
        <ele>230</ele>
        <time>2021-07-20T06:33:20.576Z</time>
      </trkpt>
      <trkpt lat="45.70585" lon="5.76587">
        <ele>230</ele>
        <time>2021-07-20T06:33:21.575Z</time>
      </trkpt>
      <trkpt lat="45.70584" lon="5.76598">
        <ele>230</ele>
        <time>2021-07-20T06:33:22.576Z</time>
      </trkpt>
      <trkpt lat="45.70582" lon="5.76607">
        <ele>230</ele>
        <time>2021-07-20T06:33:23.576Z</time>
      </trkpt>
      <trkpt lat="45.70581" lon="5.7662">
        <ele>230</ele>
        <time>2021-07-20T06:33:24.576Z</time>
      </trkpt>
      <trkpt lat="45.70579" lon="5.76631">
        <ele>230</ele>
        <time>2021-07-20T06:33:25.576Z</time>
      </trkpt>
      <trkpt lat="45.70578" lon="5.76641">
        <ele>230</ele>
        <time>2021-07-20T06:33:26.576Z</time>
      </trkpt>
      <trkpt lat="45.70576" lon="5.76652">
        <ele>230</ele>
        <time>2021-07-20T06:33:27.576Z</time>
      </trkpt>
      <trkpt lat="45.70575" lon="5.76663">
        <ele>231</ele>
        <time>2021-07-20T06:33:28.576Z</time>
      </trkpt>
      <trkpt lat="45.70573" lon="5.76674">
        <ele>231</ele>
        <time>2021-07-20T06:33:29.575Z</time>
      </trkpt>
      <trkpt lat="45.70572" lon="5.76685">
        <ele>231</ele>
        <time>2021-07-20T06:33:30.576Z</time>
      </trkpt>
      <trkpt lat="45.7057" lon="5.76695">
        <ele>231</ele>
        <time>2021-07-20T06:33:31.576Z</time>
      </trkpt>
      <trkpt lat="45.70569" lon="5.76704">
        <ele>231</ele>
        <time>2021-07-20T06:33:32.576Z</time>
      </trkpt>
      <trkpt lat="45.70567" lon="5.76716">
        <ele>231</ele>
        <time>2021-07-20T06:33:33.576Z</time>
      </trkpt>
      <trkpt lat="45.70566" lon="5.76725">
        <ele>232</ele>
        <time>2021-07-20T06:33:34.576Z</time>
      </trkpt>
      <trkpt lat="45.70564" lon="5.76737">
        <ele>232</ele>
        <time>2021-07-20T06:33:35.576Z</time>
      </trkpt>
      <trkpt lat="45.70563" lon="5.76746">
        <ele>231</ele>
        <time>2021-07-20T06:33:36.576Z</time>
      </trkpt>
      <trkpt lat="45.70561" lon="5.76758">
        <ele>231</ele>
        <time>2021-07-20T06:33:37.576Z</time>
      </trkpt>
      <trkpt lat="45.7056" lon="5.76769">
        <ele>231</ele>
        <time>2021-07-20T06:33:38.576Z</time>
      </trkpt>
      <trkpt lat="45.70558" lon="5.76779">
        <ele>231</ele>
        <time>2021-07-20T06:33:39.576Z</time>
      </trkpt>
      <trkpt lat="45.70557" lon="5.76789">
        <ele>231</ele>
        <time>2021-07-20T06:33:40.576Z</time>
      </trkpt>
      <trkpt lat="45.70555" lon="5.76798">
        <ele>231</ele>
        <time>2021-07-20T06:33:41.576Z</time>
      </trkpt>
      <trkpt lat="45.70553" lon="5.7681">
        <ele>231</ele>
        <time>2021-07-20T06:33:42.576Z</time>
      </trkpt>
      <trkpt lat="45.70552" lon="5.76821">
        <ele>231</ele>
        <time>2021-07-20T06:33:43.576Z</time>
      </trkpt>
      <trkpt lat="45.7055" lon="5.76831">
        <ele>231</ele>
        <time>2021-07-20T06:33:44.575Z</time>
      </trkpt>
      <trkpt lat="45.70548" lon="5.76841">
        <ele>231</ele>
        <time>2021-07-20T06:33:45.575Z</time>
      </trkpt>
      <trkpt lat="45.70546" lon="5.76849">
        <ele>231</ele>
        <time>2021-07-20T06:33:46.576Z</time>
      </trkpt>
      <trkpt lat="45.70544" lon="5.76862">
        <ele>231</ele>
        <time>2021-07-20T06:33:47.576Z</time>
      </trkpt>
      <trkpt lat="45.70542" lon="5.76872">
        <ele>232</ele>
        <time>2021-07-20T06:33:48.576Z</time>
      </trkpt>
      <trkpt lat="45.70539" lon="5.76882">
        <ele>232</ele>
        <time>2021-07-20T06:33:49.576Z</time>
      </trkpt>
      <trkpt lat="45.70537" lon="5.7689">
        <ele>233</ele>
        <time>2021-07-20T06:33:50.576Z</time>
      </trkpt>
      <trkpt lat="45.70535" lon="5.76899">
        <ele>233</ele>
        <time>2021-07-20T06:33:51.575Z</time>
      </trkpt>
      <trkpt lat="45.70532" lon="5.76911">
        <ele>233</ele>
        <time>2021-07-20T06:33:52.575Z</time>
      </trkpt>
      <trkpt lat="45.7053" lon="5.76919">
        <ele>234</ele>
        <time>2021-07-20T06:33:53.576Z</time>
      </trkpt>
      <trkpt lat="45.70527" lon="5.76929">
        <ele>235</ele>
        <time>2021-07-20T06:33:54.576Z</time>
      </trkpt>
      <trkpt lat="45.70524" lon="5.76939">
        <ele>235</ele>
        <time>2021-07-20T06:33:55.576Z</time>
      </trkpt>
      <trkpt lat="45.70521" lon="5.76948">
        <ele>236</ele>
        <time>2021-07-20T06:33:56.576Z</time>
      </trkpt>
      <trkpt lat="45.70518" lon="5.76957">
        <ele>236</ele>
        <time>2021-07-20T06:33:57.576Z</time>
      </trkpt>
      <trkpt lat="45.70515" lon="5.76967">
        <ele>236</ele>
        <time>2021-07-20T06:33:58.576Z</time>
      </trkpt>
      <trkpt lat="45.70512" lon="5.76976">
        <ele>237</ele>
        <time>2021-07-20T06:33:59.576Z</time>
      </trkpt>
      <trkpt lat="45.70509" lon="5.76985">
        <ele>237</ele>
        <time>2021-07-20T06:34:00.575Z</time>
      </trkpt>
      <trkpt lat="45.70505" lon="5.76994">
        <ele>237</ele>
        <time>2021-07-20T06:34:01.576Z</time>
      </trkpt>
      <trkpt lat="45.70502" lon="5.77003">
        <ele>236</ele>
        <time>2021-07-20T06:34:02.576Z</time>
      </trkpt>
      <trkpt lat="45.70498" lon="5.77012">
        <ele>236</ele>
        <time>2021-07-20T06:34:03.575Z</time>
      </trkpt>
      <trkpt lat="45.70494" lon="5.7702">
        <ele>236</ele>
        <time>2021-07-20T06:34:04.575Z</time>
      </trkpt>
      <trkpt lat="45.7049" lon="5.77029">
        <ele>236</ele>
        <time>2021-07-20T06:34:05.576Z</time>
      </trkpt>
      <trkpt lat="45.70485" lon="5.77039">
        <ele>236</ele>
        <time>2021-07-20T06:34:06.575Z</time>
      </trkpt>
      <trkpt lat="45.70482" lon="5.77046">
        <ele>236</ele>
        <time>2021-07-20T06:34:07.575Z</time>
      </trkpt>
      <trkpt lat="45.70478" lon="5.77054">
        <ele>236</ele>
        <time>2021-07-20T06:34:08.576Z</time>
      </trkpt>
      <trkpt lat="45.70473" lon="5.77062">
        <ele>236</ele>
        <time>2021-07-20T06:34:09.576Z</time>
      </trkpt>
      <trkpt lat="45.70469" lon="5.7707">
        <ele>236</ele>
        <time>2021-07-20T06:34:10.575Z</time>
      </trkpt>
      <trkpt lat="45.70465" lon="5.77078">
        <ele>236</ele>
        <time>2021-07-20T06:34:11.575Z</time>
      </trkpt>
      <trkpt lat="45.7046" lon="5.77088">
        <ele>236</ele>
        <time>2021-07-20T06:34:12.576Z</time>
      </trkpt>
      <trkpt lat="45.70455" lon="5.77095">
        <ele>236</ele>
        <time>2021-07-20T06:34:13.576Z</time>
      </trkpt>
      <trkpt lat="45.70452" lon="5.77102">
        <ele>236</ele>
        <time>2021-07-20T06:34:14.575Z</time>
      </trkpt>
      <trkpt lat="45.70447" lon="5.7711">
        <ele>236</ele>
        <time>2021-07-20T06:34:15.576Z</time>
      </trkpt>
      <trkpt lat="45.70443" lon="5.77118">
        <ele>236</ele>
        <time>2021-07-20T06:34:16.576Z</time>
      </trkpt>
      <trkpt lat="45.70438" lon="5.77127">
        <ele>236</ele>
        <time>2021-07-20T06:34:17.576Z</time>
      </trkpt>
      <trkpt lat="45.70434" lon="5.77135">
        <ele>235</ele>
        <time>2021-07-20T06:34:18.576Z</time>
      </trkpt>
      <trkpt lat="45.70431" lon="5.77142">
        <ele>235</ele>
        <time>2021-07-20T06:34:19.576Z</time>
      </trkpt>
      <trkpt lat="45.70426" lon="5.77151">
        <ele>235</ele>
        <time>2021-07-20T06:34:20.576Z</time>
      </trkpt>
      <trkpt lat="45.70422" lon="5.77159">
        <ele>235</ele>
        <time>2021-07-20T06:34:21.576Z</time>
      </trkpt>
      <trkpt lat="45.70418" lon="5.77166">
        <ele>235</ele>
        <time>2021-07-20T06:34:22.576Z</time>
      </trkpt>
      <trkpt lat="45.70414" lon="5.7717">
        <ele>235</ele>
        <time>2021-07-20T06:34:23.576Z</time>
      </trkpt>
      <trkpt lat="45.7041" lon="5.77175">
        <ele>236</ele>
        <time>2021-07-20T06:34:24.576Z</time>
      </trkpt>
      <trkpt lat="45.70406" lon="5.77178">
        <ele>236</ele>
        <time>2021-07-20T06:34:25.576Z</time>
      </trkpt>
      <trkpt lat="45.70402" lon="5.7718">
        <ele>237</ele>
        <time>2021-07-20T06:34:26.576Z</time>
      </trkpt>
      <trkpt lat="45.70397" lon="5.7718">
        <ele>238</ele>
        <time>2021-07-20T06:34:27.576Z</time>
      </trkpt>
      <trkpt lat="45.70394" lon="5.7718">
        <ele>239</ele>
        <time>2021-07-20T06:34:28.576Z</time>
      </trkpt>
      <trkpt lat="45.70389" lon="5.77179">
        <ele>240</ele>
        <time>2021-07-20T06:34:29.576Z</time>
      </trkpt>
      <trkpt lat="45.70384" lon="5.7718">
        <ele>240</ele>
        <time>2021-07-20T06:34:30.575Z</time>
      </trkpt>
      <trkpt lat="45.70379" lon="5.77183">
        <ele>240</ele>
        <time>2021-07-20T06:34:31.576Z</time>
      </trkpt>
      <trkpt lat="45.70376" lon="5.77186">
        <ele>240</ele>
        <time>2021-07-20T06:34:32.576Z</time>
      </trkpt>
      <trkpt lat="45.70373" lon="5.77192">
        <ele>240</ele>
        <time>2021-07-20T06:34:33.575Z</time>
      </trkpt>
      <trkpt lat="45.7037" lon="5.77201">
        <ele>239</ele>
        <time>2021-07-20T06:34:34.576Z</time>
      </trkpt>
      <trkpt lat="45.70368" lon="5.77208">
        <ele>239</ele>
        <time>2021-07-20T06:34:35.576Z</time>
      </trkpt>
      <trkpt lat="45.70366" lon="5.77216">
        <ele>239</ele>
        <time>2021-07-20T06:34:36.576Z</time>
      </trkpt>
      <trkpt lat="45.70363" lon="5.77222">
        <ele>239</ele>
        <time>2021-07-20T06:34:37.576Z</time>
      </trkpt>
      <trkpt lat="45.7036" lon="5.7723">
        <ele>239</ele>
        <time>2021-07-20T06:34:38.575Z</time>
      </trkpt>
      <trkpt lat="45.70356" lon="5.7724">
        <ele>239</ele>
        <time>2021-07-20T06:34:39.576Z</time>
      </trkpt>
      <trkpt lat="45.70353" lon="5.77249">
        <ele>240</ele>
        <time>2021-07-20T06:34:40.576Z</time>
      </trkpt>
      <trkpt lat="45.70351" lon="5.77258">
        <ele>240</ele>
        <time>2021-07-20T06:34:41.576Z</time>
      </trkpt>
      <trkpt lat="45.70349" lon="5.77266">
        <ele>240</ele>
        <time>2021-07-20T06:34:42.576Z</time>
      </trkpt>
      <trkpt lat="45.70346" lon="5.77277">
        <ele>240</ele>
        <time>2021-07-20T06:34:43.576Z</time>
      </trkpt>
      <trkpt lat="45.70344" lon="5.77287">
        <ele>240</ele>
        <time>2021-07-20T06:34:44.575Z</time>
      </trkpt>
      <trkpt lat="45.70342" lon="5.77297">
        <ele>240</ele>
        <time>2021-07-20T06:34:45.576Z</time>
      </trkpt>
      <trkpt lat="45.7034" lon="5.77305">
        <ele>239</ele>
        <time>2021-07-20T06:34:46.576Z</time>
      </trkpt>
      <trkpt lat="45.70339" lon="5.77315">
        <ele>239</ele>
        <time>2021-07-20T06:34:47.576Z</time>
      </trkpt>
      <trkpt lat="45.70336" lon="5.77327">
        <ele>239</ele>
        <time>2021-07-20T06:34:48.576Z</time>
      </trkpt>
      <trkpt lat="45.70335" lon="5.77335">
        <ele>239</ele>
        <time>2021-07-20T06:34:49.576Z</time>
      </trkpt>
      <trkpt lat="45.70332" lon="5.77348">
        <ele>239</ele>
        <time>2021-07-20T06:34:50.576Z</time>
      </trkpt>
      <trkpt lat="45.70331" lon="5.77356">
        <ele>239</ele>
        <time>2021-07-20T06:34:51.575Z</time>
      </trkpt>
      <trkpt lat="45.70329" lon="5.77366">
        <ele>239</ele>
        <time>2021-07-20T06:34:52.575Z</time>
      </trkpt>
      <trkpt lat="45.70327" lon="5.77378">
        <ele>239</ele>
        <time>2021-07-20T06:34:53.576Z</time>
      </trkpt>
      <trkpt lat="45.70325" lon="5.77388">
        <ele>239</ele>
        <time>2021-07-20T06:34:54.576Z</time>
      </trkpt>
      <trkpt lat="45.70323" lon="5.77398">
        <ele>239</ele>
        <time>2021-07-20T06:34:55.576Z</time>
      </trkpt>
      <trkpt lat="45.70321" lon="5.77406">
        <ele>239</ele>
        <time>2021-07-20T06:34:56.576Z</time>
      </trkpt>
      <trkpt lat="45.70319" lon="5.77418">
        <ele>240</ele>
        <time>2021-07-20T06:34:57.575Z</time>
      </trkpt>
      <trkpt lat="45.70317" lon="5.77428">
        <ele>240</ele>
        <time>2021-07-20T06:34:58.576Z</time>
      </trkpt>
      <trkpt lat="45.70316" lon="5.77436">
        <ele>241</ele>
        <time>2021-07-20T06:34:59.575Z</time>
      </trkpt>
      <trkpt lat="45.70314" lon="5.77446">
        <ele>241</ele>
        <time>2021-07-20T06:35:00.575Z</time>
      </trkpt>
      <trkpt lat="45.70312" lon="5.77456">
        <ele>242</ele>
        <time>2021-07-20T06:35:01.576Z</time>
      </trkpt>
      <trkpt lat="45.7031" lon="5.77468">
        <ele>242</ele>
        <time>2021-07-20T06:35:02.576Z</time>
      </trkpt>
      <trkpt lat="45.70308" lon="5.77479">
        <ele>243</ele>
        <time>2021-07-20T06:35:03.576Z</time>
      </trkpt>
      <trkpt lat="45.70307" lon="5.77487">
        <ele>243</ele>
        <time>2021-07-20T06:35:04.576Z</time>
      </trkpt>
      <trkpt lat="45.70305" lon="5.77499">
        <ele>243</ele>
        <time>2021-07-20T06:35:05.576Z</time>
      </trkpt>
      <trkpt lat="45.70304" lon="5.77509">
        <ele>244</ele>
        <time>2021-07-20T06:35:06.576Z</time>
      </trkpt>
      <trkpt lat="45.70303" lon="5.77519">
        <ele>244</ele>
        <time>2021-07-20T06:35:07.576Z</time>
      </trkpt>
      <trkpt lat="45.70302" lon="5.77529">
        <ele>244</ele>
        <time>2021-07-20T06:35:08.575Z</time>
      </trkpt>
      <trkpt lat="45.70301" lon="5.77537">
        <ele>244</ele>
        <time>2021-07-20T06:35:09.576Z</time>
      </trkpt>
      <trkpt lat="45.703" lon="5.77547">
        <ele>244</ele>
        <time>2021-07-20T06:35:10.576Z</time>
      </trkpt>
      <trkpt lat="45.70299" lon="5.77559">
        <ele>244</ele>
        <time>2021-07-20T06:35:11.576Z</time>
      </trkpt>
      <trkpt lat="45.70298" lon="5.7757">
        <ele>243</ele>
        <time>2021-07-20T06:35:12.576Z</time>
      </trkpt>
      <trkpt lat="45.70297" lon="5.77578">
        <ele>243</ele>
        <time>2021-07-20T06:35:13.576Z</time>
      </trkpt>
      <trkpt lat="45.70297" lon="5.77589">
        <ele>243</ele>
        <time>2021-07-20T06:35:14.576Z</time>
      </trkpt>
      <trkpt lat="45.70295" lon="5.77599">
        <ele>243</ele>
        <time>2021-07-20T06:35:15.576Z</time>
      </trkpt>
      <trkpt lat="45.70294" lon="5.77609">
        <ele>243</ele>
        <time>2021-07-20T06:35:16.576Z</time>
      </trkpt>
      <trkpt lat="45.70293" lon="5.77619">
        <ele>243</ele>
        <time>2021-07-20T06:35:17.575Z</time>
      </trkpt>
      <trkpt lat="45.70292" lon="5.7763">
        <ele>242</ele>
        <time>2021-07-20T06:35:18.576Z</time>
      </trkpt>
      <trkpt lat="45.70291" lon="5.7764">
        <ele>242</ele>
        <time>2021-07-20T06:35:19.576Z</time>
      </trkpt>
      <trkpt lat="45.7029" lon="5.77651">
        <ele>242</ele>
        <time>2021-07-20T06:35:20.576Z</time>
      </trkpt>
      <trkpt lat="45.70289" lon="5.77661">
        <ele>243</ele>
        <time>2021-07-20T06:35:21.576Z</time>
      </trkpt>
      <trkpt lat="45.70288" lon="5.77671">
        <ele>243</ele>
        <time>2021-07-20T06:35:22.576Z</time>
      </trkpt>
      <trkpt lat="45.70288" lon="5.77681">
        <ele>244</ele>
        <time>2021-07-20T06:35:23.576Z</time>
      </trkpt>
      <trkpt lat="45.70287" lon="5.77691">
        <ele>244</ele>
        <time>2021-07-20T06:35:24.576Z</time>
      </trkpt>
      <trkpt lat="45.70287" lon="5.77701">
        <ele>244</ele>
        <time>2021-07-20T06:35:25.576Z</time>
      </trkpt>
      <trkpt lat="45.70287" lon="5.77711">
        <ele>245</ele>
        <time>2021-07-20T06:35:26.576Z</time>
      </trkpt>
      <trkpt lat="45.70288" lon="5.77721">
        <ele>246</ele>
        <time>2021-07-20T06:35:27.576Z</time>
      </trkpt>
      <trkpt lat="45.70289" lon="5.7773">
        <ele>246</ele>
        <time>2021-07-20T06:35:28.576Z</time>
      </trkpt>
      <trkpt lat="45.7029" lon="5.7774">
        <ele>247</ele>
        <time>2021-07-20T06:35:29.575Z</time>
      </trkpt>
      <trkpt lat="45.70291" lon="5.7775">
        <ele>248</ele>
        <time>2021-07-20T06:35:30.576Z</time>
      </trkpt>
      <trkpt lat="45.70293" lon="5.7776">
        <ele>248</ele>
        <time>2021-07-20T06:35:31.576Z</time>
      </trkpt>
      <trkpt lat="45.70294" lon="5.77769">
        <ele>249</ele>
        <time>2021-07-20T06:35:32.576Z</time>
      </trkpt>
      <trkpt lat="45.70296" lon="5.77779">
        <ele>249</ele>
        <time>2021-07-20T06:35:33.575Z</time>
      </trkpt>
      <trkpt lat="45.70298" lon="5.77789">
        <ele>249</ele>
        <time>2021-07-20T06:35:34.576Z</time>
      </trkpt>
      <trkpt lat="45.70299" lon="5.77798">
        <ele>249</ele>
        <time>2021-07-20T06:35:35.576Z</time>
      </trkpt>
      <trkpt lat="45.703" lon="5.77807">
        <ele>250</ele>
        <time>2021-07-20T06:35:36.576Z</time>
      </trkpt>
      <trkpt lat="45.70301" lon="5.77816">
        <ele>250</ele>
        <time>2021-07-20T06:35:37.576Z</time>
      </trkpt>
      <trkpt lat="45.70302" lon="5.77825">
        <ele>251</ele>
        <time>2021-07-20T06:35:38.575Z</time>
      </trkpt>
      <trkpt lat="45.70305" lon="5.77834">
        <ele>251</ele>
        <time>2021-07-20T06:35:39.576Z</time>
      </trkpt>
      <trkpt lat="45.70306" lon="5.77844">
        <ele>251</ele>
        <time>2021-07-20T06:35:40.576Z</time>
      </trkpt>
      <trkpt lat="45.70308" lon="5.77853">
        <ele>252</ele>
        <time>2021-07-20T06:35:41.576Z</time>
      </trkpt>
      <trkpt lat="45.7031" lon="5.77862">
        <ele>252</ele>
        <time>2021-07-20T06:35:42.575Z</time>
      </trkpt>
      <trkpt lat="45.70312" lon="5.77871">
        <ele>252</ele>
        <time>2021-07-20T06:35:43.576Z</time>
      </trkpt>
      <trkpt lat="45.70313" lon="5.7788">
        <ele>252</ele>
        <time>2021-07-20T06:35:44.576Z</time>
      </trkpt>
      <trkpt lat="45.70315" lon="5.7789">
        <ele>252</ele>
        <time>2021-07-20T06:35:45.576Z</time>
      </trkpt>
      <trkpt lat="45.70317" lon="5.77899">
        <ele>252</ele>
        <time>2021-07-20T06:35:46.576Z</time>
      </trkpt>
      <trkpt lat="45.70318" lon="5.77908">
        <ele>251</ele>
        <time>2021-07-20T06:35:47.575Z</time>
      </trkpt>
      <trkpt lat="45.7032" lon="5.77918">
        <ele>251</ele>
        <time>2021-07-20T06:35:48.576Z</time>
      </trkpt>
      <trkpt lat="45.70321" lon="5.77927">
        <ele>251</ele>
        <time>2021-07-20T06:35:49.576Z</time>
      </trkpt>
      <trkpt lat="45.70323" lon="5.77935">
        <ele>250</ele>
        <time>2021-07-20T06:35:50.575Z</time>
      </trkpt>
      <trkpt lat="45.70324" lon="5.77944">
        <ele>250</ele>
        <time>2021-07-20T06:35:51.576Z</time>
      </trkpt>
      <trkpt lat="45.70325" lon="5.77953">
        <ele>250</ele>
        <time>2021-07-20T06:35:52.575Z</time>
      </trkpt>
      <trkpt lat="45.70326" lon="5.77962">
        <ele>250</ele>
        <time>2021-07-20T06:35:53.576Z</time>
      </trkpt>
      <trkpt lat="45.70328" lon="5.77971">
        <ele>250</ele>
        <time>2021-07-20T06:35:54.575Z</time>
      </trkpt>
      <trkpt lat="45.70329" lon="5.77979">
        <ele>250</ele>
        <time>2021-07-20T06:35:55.576Z</time>
      </trkpt>
      <trkpt lat="45.70331" lon="5.77988">
        <ele>250</ele>
        <time>2021-07-20T06:35:56.576Z</time>
      </trkpt>
      <trkpt lat="45.70332" lon="5.77997">
        <ele>250</ele>
        <time>2021-07-20T06:35:57.576Z</time>
      </trkpt>
      <trkpt lat="45.70334" lon="5.78006">
        <ele>250</ele>
        <time>2021-07-20T06:35:58.576Z</time>
      </trkpt>
      <trkpt lat="45.70335" lon="5.78014">
        <ele>251</ele>
        <time>2021-07-20T06:35:59.576Z</time>
      </trkpt>
      <trkpt lat="45.70337" lon="5.78023">
        <ele>251</ele>
        <time>2021-07-20T06:36:00.576Z</time>
      </trkpt>
      <trkpt lat="45.70338" lon="5.78032">
        <ele>250</ele>
        <time>2021-07-20T06:36:01.576Z</time>
      </trkpt>
      <trkpt lat="45.70339" lon="5.78041">
        <ele>250</ele>
        <time>2021-07-20T06:36:02.576Z</time>
      </trkpt>
      <trkpt lat="45.70341" lon="5.78049">
        <ele>250</ele>
        <time>2021-07-20T06:36:03.575Z</time>
      </trkpt>
      <trkpt lat="45.70342" lon="5.78058">
        <ele>250</ele>
        <time>2021-07-20T06:36:04.576Z</time>
      </trkpt>
      <trkpt lat="45.70344" lon="5.78067">
        <ele>251</ele>
        <time>2021-07-20T06:36:05.575Z</time>
      </trkpt>
      <trkpt lat="45.70345" lon="5.78076">
        <ele>251</ele>
        <time>2021-07-20T06:36:06.576Z</time>
      </trkpt>
      <trkpt lat="45.70346" lon="5.78085">
        <ele>251</ele>
        <time>2021-07-20T06:36:07.576Z</time>
      </trkpt>
      <trkpt lat="45.70348" lon="5.78094">
        <ele>252</ele>
        <time>2021-07-20T06:36:08.576Z</time>
      </trkpt>
      <trkpt lat="45.7035" lon="5.78104">
        <ele>252</ele>
        <time>2021-07-20T06:36:09.576Z</time>
      </trkpt>
      <trkpt lat="45.70351" lon="5.78112">
        <ele>252</ele>
        <time>2021-07-20T06:36:10.576Z</time>
      </trkpt>
      <trkpt lat="45.70352" lon="5.78121">
        <ele>253</ele>
        <time>2021-07-20T06:36:11.575Z</time>
      </trkpt>
      <trkpt lat="45.70354" lon="5.7813">
        <ele>253</ele>
        <time>2021-07-20T06:36:12.576Z</time>
      </trkpt>
      <trkpt lat="45.70356" lon="5.78139">
        <ele>254</ele>
        <time>2021-07-20T06:36:13.575Z</time>
      </trkpt>
      <trkpt lat="45.70357" lon="5.7815">
        <ele>254</ele>
        <time>2021-07-20T06:36:14.575Z</time>
      </trkpt>
      <trkpt lat="45.70359" lon="5.78157">
        <ele>255</ele>
        <time>2021-07-20T06:36:15.576Z</time>
      </trkpt>
      <trkpt lat="45.7036" lon="5.78166">
        <ele>255</ele>
        <time>2021-07-20T06:36:16.575Z</time>
      </trkpt>
      <trkpt lat="45.70362" lon="5.78177">
        <ele>255</ele>
        <time>2021-07-20T06:36:17.576Z</time>
      </trkpt>
      <trkpt lat="45.70364" lon="5.78186">
        <ele>255</ele>
        <time>2021-07-20T06:36:18.576Z</time>
      </trkpt>
      <trkpt lat="45.70365" lon="5.78195">
        <ele>255</ele>
        <time>2021-07-20T06:36:19.575Z</time>
      </trkpt>
      <trkpt lat="45.70366" lon="5.78204">
        <ele>255</ele>
        <time>2021-07-20T06:36:20.576Z</time>
      </trkpt>
      <trkpt lat="45.70368" lon="5.78212">
        <ele>255</ele>
        <time>2021-07-20T06:36:21.575Z</time>
      </trkpt>
      <trkpt lat="45.70369" lon="5.78221">
        <ele>256</ele>
        <time>2021-07-20T06:36:22.576Z</time>
      </trkpt>
      <trkpt lat="45.7037" lon="5.7823">
        <ele>256</ele>
        <time>2021-07-20T06:36:23.576Z</time>
      </trkpt>
      <trkpt lat="45.70371" lon="5.78237">
        <ele>256</ele>
        <time>2021-07-20T06:36:24.576Z</time>
      </trkpt>
      <trkpt lat="45.70372" lon="5.78247">
        <ele>256</ele>
        <time>2021-07-20T06:36:25.576Z</time>
      </trkpt>
      <trkpt lat="45.70373" lon="5.78256">
        <ele>257</ele>
        <time>2021-07-20T06:36:26.576Z</time>
      </trkpt>
      <trkpt lat="45.70374" lon="5.78265">
        <ele>257</ele>
        <time>2021-07-20T06:36:27.576Z</time>
      </trkpt>
      <trkpt lat="45.70374" lon="5.78274">
        <ele>258</ele>
        <time>2021-07-20T06:36:28.576Z</time>
      </trkpt>
      <trkpt lat="45.70375" lon="5.78283">
        <ele>258</ele>
        <time>2021-07-20T06:36:29.576Z</time>
      </trkpt>
      <trkpt lat="45.70375" lon="5.7829">
        <ele>258</ele>
        <time>2021-07-20T06:36:30.576Z</time>
      </trkpt>
      <trkpt lat="45.70375" lon="5.783">
        <ele>259</ele>
        <time>2021-07-20T06:36:31.576Z</time>
      </trkpt>
      <trkpt lat="45.70375" lon="5.78309">
        <ele>259</ele>
        <time>2021-07-20T06:36:32.576Z</time>
      </trkpt>
      <trkpt lat="45.70374" lon="5.78318">
        <ele>260</ele>
        <time>2021-07-20T06:36:33.576Z</time>
      </trkpt>
      <trkpt lat="45.70373" lon="5.78325">
        <ele>260</ele>
        <time>2021-07-20T06:36:34.576Z</time>
      </trkpt>
      <trkpt lat="45.70372" lon="5.78334">
        <ele>259</ele>
        <time>2021-07-20T06:36:35.576Z</time>
      </trkpt>
      <trkpt lat="45.70371" lon="5.78346">
        <ele>259</ele>
        <time>2021-07-20T06:36:36.576Z</time>
      </trkpt>
      <trkpt lat="45.7037" lon="5.78355">
        <ele>258</ele>
        <time>2021-07-20T06:36:37.576Z</time>
      </trkpt>
      <trkpt lat="45.70369" lon="5.78363">
        <ele>258</ele>
        <time>2021-07-20T06:36:38.576Z</time>
      </trkpt>
      <trkpt lat="45.70368" lon="5.78371">
        <ele>258</ele>
        <time>2021-07-20T06:36:39.576Z</time>
      </trkpt>
      <trkpt lat="45.70367" lon="5.78381">
        <ele>258</ele>
        <time>2021-07-20T06:36:40.576Z</time>
      </trkpt>
      <trkpt lat="45.70366" lon="5.7839">
        <ele>258</ele>
        <time>2021-07-20T06:36:41.576Z</time>
      </trkpt>
      <trkpt lat="45.70364" lon="5.78399">
        <ele>258</ele>
        <time>2021-07-20T06:36:42.576Z</time>
      </trkpt>
      <trkpt lat="45.70363" lon="5.78408">
        <ele>258</ele>
        <time>2021-07-20T06:36:43.576Z</time>
      </trkpt>
      <trkpt lat="45.70362" lon="5.78417">
        <ele>258</ele>
        <time>2021-07-20T06:36:44.576Z</time>
      </trkpt>
      <trkpt lat="45.70361" lon="5.78425">
        <ele>258</ele>
        <time>2021-07-20T06:36:45.575Z</time>
      </trkpt>
      <trkpt lat="45.70359" lon="5.78434">
        <ele>257</ele>
        <time>2021-07-20T06:36:46.576Z</time>
      </trkpt>
      <trkpt lat="45.70358" lon="5.78443">
        <ele>257</ele>
        <time>2021-07-20T06:36:47.576Z</time>
      </trkpt>
      <trkpt lat="45.70357" lon="5.78451">
        <ele>257</ele>
        <time>2021-07-20T06:36:48.576Z</time>
      </trkpt>
      <trkpt lat="45.70355" lon="5.78462">
        <ele>257</ele>
        <time>2021-07-20T06:36:49.576Z</time>
      </trkpt>
      <trkpt lat="45.70353" lon="5.7847">
        <ele>256</ele>
        <time>2021-07-20T06:36:50.575Z</time>
      </trkpt>
      <trkpt lat="45.70352" lon="5.78479">
        <ele>256</ele>
        <time>2021-07-20T06:36:51.576Z</time>
      </trkpt>
      <trkpt lat="45.70351" lon="5.78486">
        <ele>256</ele>
        <time>2021-07-20T06:36:52.576Z</time>
      </trkpt>
      <trkpt lat="45.7035" lon="5.78494">
        <ele>255</ele>
        <time>2021-07-20T06:36:53.575Z</time>
      </trkpt>
      <trkpt lat="45.70348" lon="5.78503">
        <ele>255</ele>
        <time>2021-07-20T06:36:54.576Z</time>
      </trkpt>
      <trkpt lat="45.70347" lon="5.78512">
        <ele>255</ele>
        <time>2021-07-20T06:36:55.576Z</time>
      </trkpt>
      <trkpt lat="45.70345" lon="5.78521">
        <ele>256</ele>
        <time>2021-07-20T06:36:56.576Z</time>
      </trkpt>
      <trkpt lat="45.70344" lon="5.7853">
        <ele>257</ele>
        <time>2021-07-20T06:36:57.576Z</time>
      </trkpt>
      <trkpt lat="45.70342" lon="5.78541">
        <ele>257</ele>
        <time>2021-07-20T06:36:58.576Z</time>
      </trkpt>
      <trkpt lat="45.70341" lon="5.78549">
        <ele>258</ele>
        <time>2021-07-20T06:36:59.576Z</time>
      </trkpt>
      <trkpt lat="45.7034" lon="5.78558">
        <ele>259</ele>
        <time>2021-07-20T06:37:00.575Z</time>
      </trkpt>
      <trkpt lat="45.70339" lon="5.78567">
        <ele>260</ele>
        <time>2021-07-20T06:37:01.576Z</time>
      </trkpt>
      <trkpt lat="45.70339" lon="5.78575">
        <ele>261</ele>
        <time>2021-07-20T06:37:02.576Z</time>
      </trkpt>
      <trkpt lat="45.70338" lon="5.78586">
        <ele>262</ele>
        <time>2021-07-20T06:37:03.576Z</time>
      </trkpt>
      <trkpt lat="45.70338" lon="5.78596">
        <ele>262</ele>
        <time>2021-07-20T06:37:04.576Z</time>
      </trkpt>
      <trkpt lat="45.70338" lon="5.78603">
        <ele>263</ele>
        <time>2021-07-20T06:37:05.576Z</time>
      </trkpt>
      <trkpt lat="45.70337" lon="5.78613">
        <ele>263</ele>
        <time>2021-07-20T06:37:06.576Z</time>
      </trkpt>
      <trkpt lat="45.70337" lon="5.78623">
        <ele>263</ele>
        <time>2021-07-20T06:37:07.575Z</time>
      </trkpt>
      <trkpt lat="45.70337" lon="5.78632">
        <ele>262</ele>
        <time>2021-07-20T06:37:08.576Z</time>
      </trkpt>
      <trkpt lat="45.70336" lon="5.78642">
        <ele>263</ele>
        <time>2021-07-20T06:37:09.576Z</time>
      </trkpt>
      <trkpt lat="45.70336" lon="5.78652">
        <ele>263</ele>
        <time>2021-07-20T06:37:10.576Z</time>
      </trkpt>
      <trkpt lat="45.70336" lon="5.78662">
        <ele>263</ele>
        <time>2021-07-20T06:37:11.576Z</time>
      </trkpt>
      <trkpt lat="45.70336" lon="5.78672">
        <ele>263</ele>
        <time>2021-07-20T06:37:12.575Z</time>
      </trkpt>
      <trkpt lat="45.70335" lon="5.78682">
        <ele>264</ele>
        <time>2021-07-20T06:37:13.576Z</time>
      </trkpt>
      <trkpt lat="45.70335" lon="5.78692">
        <ele>264</ele>
        <time>2021-07-20T06:37:14.576Z</time>
      </trkpt>
      <trkpt lat="45.70335" lon="5.78702">
        <ele>264</ele>
        <time>2021-07-20T06:37:15.576Z</time>
      </trkpt>
      <trkpt lat="45.70334" lon="5.78712">
        <ele>265</ele>
        <time>2021-07-20T06:37:16.576Z</time>
      </trkpt>
      <trkpt lat="45.70333" lon="5.78722">
        <ele>265</ele>
        <time>2021-07-20T06:37:17.575Z</time>
      </trkpt>
      <trkpt lat="45.70332" lon="5.78734">
        <ele>265</ele>
        <time>2021-07-20T06:37:18.576Z</time>
      </trkpt>
      <trkpt lat="45.70331" lon="5.78742">
        <ele>265</ele>
        <time>2021-07-20T06:37:19.576Z</time>
      </trkpt>
      <trkpt lat="45.7033" lon="5.78751">
        <ele>265</ele>
        <time>2021-07-20T06:37:20.576Z</time>
      </trkpt>
      <trkpt lat="45.70328" lon="5.78761">
        <ele>265</ele>
        <time>2021-07-20T06:37:21.576Z</time>
      </trkpt>
      <trkpt lat="45.70326" lon="5.7877">
        <ele>265</ele>
        <time>2021-07-20T06:37:22.576Z</time>
      </trkpt>
      <trkpt lat="45.70323" lon="5.7878">
        <ele>266</ele>
        <time>2021-07-20T06:37:23.576Z</time>
      </trkpt>
      <trkpt lat="45.70321" lon="5.78789">
        <ele>266</ele>
        <time>2021-07-20T06:37:24.576Z</time>
      </trkpt>
      <trkpt lat="45.70318" lon="5.78798">
        <ele>267</ele>
        <time>2021-07-20T06:37:25.575Z</time>
      </trkpt>
      <trkpt lat="45.70316" lon="5.78807">
        <ele>267</ele>
        <time>2021-07-20T06:37:26.576Z</time>
      </trkpt>
      <trkpt lat="45.70313" lon="5.78816">
        <ele>267</ele>
        <time>2021-07-20T06:37:27.576Z</time>
      </trkpt>
      <trkpt lat="45.70311" lon="5.78825">
        <ele>267</ele>
        <time>2021-07-20T06:37:28.576Z</time>
      </trkpt>
      <trkpt lat="45.70308" lon="5.78834">
        <ele>268</ele>
        <time>2021-07-20T06:37:29.575Z</time>
      </trkpt>
      <trkpt lat="45.70305" lon="5.78843">
        <ele>267</ele>
        <time>2021-07-20T06:37:30.576Z</time>
      </trkpt>
      <trkpt lat="45.70303" lon="5.78851">
        <ele>267</ele>
        <time>2021-07-20T06:37:31.576Z</time>
      </trkpt>
      <trkpt lat="45.703" lon="5.7886">
        <ele>267</ele>
        <time>2021-07-20T06:37:32.575Z</time>
      </trkpt>
      <trkpt lat="45.70297" lon="5.78871">
        <ele>266</ele>
        <time>2021-07-20T06:37:33.576Z</time>
      </trkpt>
      <trkpt lat="45.70295" lon="5.78878">
        <ele>266</ele>
        <time>2021-07-20T06:37:34.575Z</time>
      </trkpt>
      <trkpt lat="45.70293" lon="5.78887">
        <ele>266</ele>
        <time>2021-07-20T06:37:35.576Z</time>
      </trkpt>
      <trkpt lat="45.7029" lon="5.78895">
        <ele>266</ele>
        <time>2021-07-20T06:37:36.576Z</time>
      </trkpt>
      <trkpt lat="45.70288" lon="5.78905">
        <ele>266</ele>
        <time>2021-07-20T06:37:37.576Z</time>
      </trkpt>
      <trkpt lat="45.70286" lon="5.78912">
        <ele>266</ele>
        <time>2021-07-20T06:37:38.576Z</time>
      </trkpt>
      <trkpt lat="45.70283" lon="5.7892">
        <ele>266</ele>
        <time>2021-07-20T06:37:39.575Z</time>
      </trkpt>
      <trkpt lat="45.70281" lon="5.78928">
        <ele>265</ele>
        <time>2021-07-20T06:37:40.576Z</time>
      </trkpt>
      <trkpt lat="45.70278" lon="5.78937">
        <ele>266</ele>
        <time>2021-07-20T06:37:41.575Z</time>
      </trkpt>
      <trkpt lat="45.70276" lon="5.78945">
        <ele>266</ele>
        <time>2021-07-20T06:37:42.576Z</time>
      </trkpt>
      <trkpt lat="45.70273" lon="5.78954">
        <ele>267</ele>
        <time>2021-07-20T06:37:43.576Z</time>
      </trkpt>
      <trkpt lat="45.70271" lon="5.78961">
        <ele>267</ele>
        <time>2021-07-20T06:37:44.576Z</time>
      </trkpt>
      <trkpt lat="45.70268" lon="5.78969">
        <ele>267</ele>
        <time>2021-07-20T06:37:45.575Z</time>
      </trkpt>
      <trkpt lat="45.70266" lon="5.78979">
        <ele>268</ele>
        <time>2021-07-20T06:37:46.575Z</time>
      </trkpt>
      <trkpt lat="45.70264" lon="5.78986">
        <ele>268</ele>
        <time>2021-07-20T06:37:47.576Z</time>
      </trkpt>
      <trkpt lat="45.70261" lon="5.78994">
        <ele>268</ele>
        <time>2021-07-20T06:37:48.576Z</time>
      </trkpt>
      <trkpt lat="45.70259" lon="5.79002">
        <ele>268</ele>
        <time>2021-07-20T06:37:49.576Z</time>
      </trkpt>
      <trkpt lat="45.70256" lon="5.7901">
        <ele>268</ele>
        <time>2021-07-20T06:37:50.575Z</time>
      </trkpt>
      <trkpt lat="45.70254" lon="5.79018">
        <ele>268</ele>
        <time>2021-07-20T06:37:51.576Z</time>
      </trkpt>
      <trkpt lat="45.70251" lon="5.79028">
        <ele>268</ele>
        <time>2021-07-20T06:37:52.576Z</time>
      </trkpt>
      <trkpt lat="45.7025" lon="5.79035">
        <ele>268</ele>
        <time>2021-07-20T06:37:53.576Z</time>
      </trkpt>
      <trkpt lat="45.70247" lon="5.79043">
        <ele>269</ele>
        <time>2021-07-20T06:37:54.576Z</time>
      </trkpt>
      <trkpt lat="45.70245" lon="5.79051">
        <ele>269</ele>
        <time>2021-07-20T06:37:55.576Z</time>
      </trkpt>
      <trkpt lat="45.70243" lon="5.79058">
        <ele>269</ele>
        <time>2021-07-20T06:37:56.576Z</time>
      </trkpt>
      <trkpt lat="45.7024" lon="5.79066">
        <ele>270</ele>
        <time>2021-07-20T06:37:57.576Z</time>
      </trkpt>
      <trkpt lat="45.70238" lon="5.79074">
        <ele>271</ele>
        <time>2021-07-20T06:37:58.576Z</time>
      </trkpt>
      <trkpt lat="45.70235" lon="5.79084">
        <ele>272</ele>
        <time>2021-07-20T06:37:59.576Z</time>
      </trkpt>
      <trkpt lat="45.70233" lon="5.7909">
        <ele>273</ele>
        <time>2021-07-20T06:38:00.576Z</time>
      </trkpt>
      <trkpt lat="45.70231" lon="5.791">
        <ele>273</ele>
        <time>2021-07-20T06:38:01.576Z</time>
      </trkpt>
      <trkpt lat="45.70229" lon="5.79106">
        <ele>274</ele>
        <time>2021-07-20T06:38:02.576Z</time>
      </trkpt>
      <trkpt lat="45.70227" lon="5.79114">
        <ele>274</ele>
        <time>2021-07-20T06:38:03.576Z</time>
      </trkpt>
      <trkpt lat="45.70224" lon="5.79124">
        <ele>274</ele>
        <time>2021-07-20T06:38:04.576Z</time>
      </trkpt>
      <trkpt lat="45.70222" lon="5.79132">
        <ele>274</ele>
        <time>2021-07-20T06:38:05.576Z</time>
      </trkpt>
      <trkpt lat="45.7022" lon="5.79139">
        <ele>273</ele>
        <time>2021-07-20T06:38:06.575Z</time>
      </trkpt>
      <trkpt lat="45.70218" lon="5.79147">
        <ele>273</ele>
        <time>2021-07-20T06:38:07.576Z</time>
      </trkpt>
      <trkpt lat="45.70216" lon="5.79155">
        <ele>274</ele>
        <time>2021-07-20T06:38:08.576Z</time>
      </trkpt>
      <trkpt lat="45.70214" lon="5.79163">
        <ele>274</ele>
        <time>2021-07-20T06:38:09.576Z</time>
      </trkpt>
      <trkpt lat="45.70211" lon="5.79171">
        <ele>274</ele>
        <time>2021-07-20T06:38:10.576Z</time>
      </trkpt>
      <trkpt lat="45.70209" lon="5.79179">
        <ele>273</ele>
        <time>2021-07-20T06:38:11.575Z</time>
      </trkpt>
      <trkpt lat="45.70207" lon="5.79187">
        <ele>273</ele>
        <time>2021-07-20T06:38:12.576Z</time>
      </trkpt>
      <trkpt lat="45.70204" lon="5.79197">
        <ele>273</ele>
        <time>2021-07-20T06:38:13.576Z</time>
      </trkpt>
      <trkpt lat="45.70202" lon="5.79203">
        <ele>273</ele>
        <time>2021-07-20T06:38:14.576Z</time>
      </trkpt>
      <trkpt lat="45.70199" lon="5.7921">
        <ele>273</ele>
        <time>2021-07-20T06:38:15.576Z</time>
      </trkpt>
      <trkpt lat="45.70196" lon="5.79218">
        <ele>273</ele>
        <time>2021-07-20T06:38:16.576Z</time>
      </trkpt>
      <trkpt lat="45.70192" lon="5.79225">
        <ele>273</ele>
        <time>2021-07-20T06:38:17.576Z</time>
      </trkpt>
      <trkpt lat="45.70189" lon="5.79231">
        <ele>274</ele>
        <time>2021-07-20T06:38:18.575Z</time>
      </trkpt>
      <trkpt lat="45.70183" lon="5.79239">
        <ele>275</ele>
        <time>2021-07-20T06:38:19.576Z</time>
      </trkpt>
      <trkpt lat="45.7018" lon="5.79243">
        <ele>275</ele>
        <time>2021-07-20T06:38:20.575Z</time>
      </trkpt>
      <trkpt lat="45.70175" lon="5.79249">
        <ele>276</ele>
        <time>2021-07-20T06:38:21.575Z</time>
      </trkpt>
      <trkpt lat="45.7017" lon="5.79253">
        <ele>276</ele>
        <time>2021-07-20T06:38:22.576Z</time>
      </trkpt>
      <trkpt lat="45.70164" lon="5.79257">
        <ele>277</ele>
        <time>2021-07-20T06:38:23.575Z</time>
      </trkpt>
      <trkpt lat="45.70159" lon="5.79261">
        <ele>278</ele>
        <time>2021-07-20T06:38:24.576Z</time>
      </trkpt>
      <trkpt lat="45.70153" lon="5.79264">
        <ele>279</ele>
        <time>2021-07-20T06:38:25.575Z</time>
      </trkpt>
      <trkpt lat="45.70148" lon="5.79268">
        <ele>280</ele>
        <time>2021-07-20T06:38:26.575Z</time>
      </trkpt>
      <trkpt lat="45.70142" lon="5.79271">
        <ele>280</ele>
        <time>2021-07-20T06:38:27.576Z</time>
      </trkpt>
      <trkpt lat="45.70137" lon="5.79273">
        <ele>281</ele>
        <time>2021-07-20T06:38:28.576Z</time>
      </trkpt>
      <trkpt lat="45.70131" lon="5.79276">
        <ele>282</ele>
        <time>2021-07-20T06:38:29.576Z</time>
      </trkpt>
      <trkpt lat="45.70126" lon="5.79279">
        <ele>282</ele>
        <time>2021-07-20T06:38:30.576Z</time>
      </trkpt>
      <trkpt lat="45.70121" lon="5.79281">
        <ele>283</ele>
        <time>2021-07-20T06:38:31.575Z</time>
      </trkpt>
      <trkpt lat="45.70116" lon="5.79284">
        <ele>283</ele>
        <time>2021-07-20T06:38:32.576Z</time>
      </trkpt>
      <trkpt lat="45.70111" lon="5.79289">
        <ele>284</ele>
        <time>2021-07-20T06:38:33.576Z</time>
      </trkpt>
      <trkpt lat="45.70107" lon="5.79291">
        <ele>284</ele>
        <time>2021-07-20T06:38:34.575Z</time>
      </trkpt>
      <trkpt lat="45.70102" lon="5.79295">
        <ele>284</ele>
        <time>2021-07-20T06:38:35.575Z</time>
      </trkpt>
      <trkpt lat="45.70097" lon="5.79299">
        <ele>285</ele>
        <time>2021-07-20T06:38:36.575Z</time>
      </trkpt>
      <trkpt lat="45.70093" lon="5.79303">
        <ele>286</ele>
        <time>2021-07-20T06:38:37.575Z</time>
      </trkpt>
      <trkpt lat="45.70088" lon="5.79307">
        <ele>286</ele>
        <time>2021-07-20T06:38:38.575Z</time>
      </trkpt>
      <trkpt lat="45.70084" lon="5.79311">
        <ele>287</ele>
        <time>2021-07-20T06:38:39.575Z</time>
      </trkpt>
      <trkpt lat="45.7008" lon="5.79316">
        <ele>287</ele>
        <time>2021-07-20T06:38:40.575Z</time>
      </trkpt>
      <trkpt lat="45.70075" lon="5.79322">
        <ele>288</ele>
        <time>2021-07-20T06:38:41.575Z</time>
      </trkpt>
      <trkpt lat="45.7007" lon="5.79327">
        <ele>289</ele>
        <time>2021-07-20T06:38:42.576Z</time>
      </trkpt>
      <trkpt lat="45.70067" lon="5.79331">
        <ele>289</ele>
        <time>2021-07-20T06:38:43.576Z</time>
      </trkpt>
      <trkpt lat="45.70063" lon="5.79336">
        <ele>289</ele>
        <time>2021-07-20T06:38:44.576Z</time>
      </trkpt>
      <trkpt lat="45.70059" lon="5.79341">
        <ele>289</ele>
        <time>2021-07-20T06:38:45.576Z</time>
      </trkpt>
      <trkpt lat="45.70055" lon="5.79346">
        <ele>289</ele>
        <time>2021-07-20T06:38:46.576Z</time>
      </trkpt>
      <trkpt lat="45.7005" lon="5.79351">
        <ele>289</ele>
        <time>2021-07-20T06:38:47.576Z</time>
      </trkpt>
      <trkpt lat="45.70046" lon="5.79356">
        <ele>288</ele>
        <time>2021-07-20T06:38:48.576Z</time>
      </trkpt>
      <trkpt lat="45.70043" lon="5.7936">
        <ele>288</ele>
        <time>2021-07-20T06:38:49.576Z</time>
      </trkpt>
      <trkpt lat="45.70039" lon="5.79365">
        <ele>288</ele>
        <time>2021-07-20T06:38:50.576Z</time>
      </trkpt>
      <trkpt lat="45.70033" lon="5.7937">
        <ele>288</ele>
        <time>2021-07-20T06:38:51.575Z</time>
      </trkpt>
      <trkpt lat="45.7003" lon="5.79374">
        <ele>288</ele>
        <time>2021-07-20T06:38:52.575Z</time>
      </trkpt>
      <trkpt lat="45.70025" lon="5.79379">
        <ele>289</ele>
        <time>2021-07-20T06:38:53.576Z</time>
      </trkpt>
      <trkpt lat="45.7002" lon="5.79383">
        <ele>289</ele>
        <time>2021-07-20T06:38:54.575Z</time>
      </trkpt>
      <trkpt lat="45.70014" lon="5.79387">
        <ele>290</ele>
        <time>2021-07-20T06:38:55.576Z</time>
      </trkpt>
      <trkpt lat="45.70009" lon="5.79389">
        <ele>290</ele>
        <time>2021-07-20T06:38:56.576Z</time>
      </trkpt>
      <trkpt lat="45.70004" lon="5.79392">
        <ele>291</ele>
        <time>2021-07-20T06:38:57.575Z</time>
      </trkpt>
      <trkpt lat="45.69999" lon="5.79394">
        <ele>291</ele>
        <time>2021-07-20T06:38:58.576Z</time>
      </trkpt>
      <trkpt lat="45.69994" lon="5.79395">
        <ele>292</ele>
        <time>2021-07-20T06:38:59.576Z</time>
      </trkpt>
      <trkpt lat="45.69989" lon="5.79396">
        <ele>293</ele>
        <time>2021-07-20T06:39:00.576Z</time>
      </trkpt>
      <trkpt lat="45.69983" lon="5.79396">
        <ele>294</ele>
        <time>2021-07-20T06:39:01.576Z</time>
      </trkpt>
      <trkpt lat="45.69977" lon="5.79396">
        <ele>295</ele>
        <time>2021-07-20T06:39:02.576Z</time>
      </trkpt>
      <trkpt lat="45.69972" lon="5.79396">
        <ele>296</ele>
        <time>2021-07-20T06:39:03.576Z</time>
      </trkpt>
      <trkpt lat="45.69966" lon="5.79395">
        <ele>296</ele>
        <time>2021-07-20T06:39:04.576Z</time>
      </trkpt>
      <trkpt lat="45.6996" lon="5.79394">
        <ele>296</ele>
        <time>2021-07-20T06:39:05.576Z</time>
      </trkpt>
      <trkpt lat="45.69955" lon="5.79393">
        <ele>297</ele>
        <time>2021-07-20T06:39:06.576Z</time>
      </trkpt>
      <trkpt lat="45.69949" lon="5.79392">
        <ele>297</ele>
        <time>2021-07-20T06:39:07.576Z</time>
      </trkpt>
      <trkpt lat="45.69943" lon="5.7939">
        <ele>297</ele>
        <time>2021-07-20T06:39:08.576Z</time>
      </trkpt>
      <trkpt lat="45.69937" lon="5.79388">
        <ele>298</ele>
        <time>2021-07-20T06:39:09.576Z</time>
      </trkpt>
      <trkpt lat="45.69931" lon="5.79387">
        <ele>298</ele>
        <time>2021-07-20T06:39:10.576Z</time>
      </trkpt>
      <trkpt lat="45.69926" lon="5.79387">
        <ele>298</ele>
        <time>2021-07-20T06:39:11.576Z</time>
      </trkpt>
      <trkpt lat="45.6992" lon="5.79387">
        <ele>299</ele>
        <time>2021-07-20T06:39:12.576Z</time>
      </trkpt>
      <trkpt lat="45.69915" lon="5.79387">
        <ele>299</ele>
        <time>2021-07-20T06:39:13.576Z</time>
      </trkpt>
      <trkpt lat="45.69908" lon="5.79388">
        <ele>299</ele>
        <time>2021-07-20T06:39:14.576Z</time>
      </trkpt>
      <trkpt lat="45.69903" lon="5.79389">
        <ele>300</ele>
        <time>2021-07-20T06:39:15.576Z</time>
      </trkpt>
      <trkpt lat="45.69898" lon="5.79391">
        <ele>300</ele>
        <time>2021-07-20T06:39:16.575Z</time>
      </trkpt>
      <trkpt lat="45.69892" lon="5.79394">
        <ele>300</ele>
        <time>2021-07-20T06:39:17.576Z</time>
      </trkpt>
      <trkpt lat="45.69886" lon="5.79397">
        <ele>301</ele>
        <time>2021-07-20T06:39:18.576Z</time>
      </trkpt>
      <trkpt lat="45.6988" lon="5.794">
        <ele>301</ele>
        <time>2021-07-20T06:39:19.576Z</time>
      </trkpt>
      <trkpt lat="45.69874" lon="5.79403">
        <ele>301</ele>
        <time>2021-07-20T06:39:20.576Z</time>
      </trkpt>
      <trkpt lat="45.69868" lon="5.79405">
        <ele>301</ele>
        <time>2021-07-20T06:39:21.575Z</time>
      </trkpt>
      <trkpt lat="45.69862" lon="5.79408">
        <ele>301</ele>
        <time>2021-07-20T06:39:22.576Z</time>
      </trkpt>
      <trkpt lat="45.69857" lon="5.7941">
        <ele>301</ele>
        <time>2021-07-20T06:39:23.576Z</time>
      </trkpt>
      <trkpt lat="45.6985" lon="5.79412">
        <ele>301</ele>
        <time>2021-07-20T06:39:24.576Z</time>
      </trkpt>
      <trkpt lat="45.69843" lon="5.79413">
        <ele>302</ele>
        <time>2021-07-20T06:39:25.575Z</time>
      </trkpt>
      <trkpt lat="45.69838" lon="5.79413">
        <ele>302</ele>
        <time>2021-07-20T06:39:26.576Z</time>
      </trkpt>
      <trkpt lat="45.69832" lon="5.79412">
        <ele>303</ele>
        <time>2021-07-20T06:39:27.576Z</time>
      </trkpt>
      <trkpt lat="45.69825" lon="5.79411">
        <ele>303</ele>
        <time>2021-07-20T06:39:28.576Z</time>
      </trkpt>
      <trkpt lat="45.69819" lon="5.79409">
        <ele>303</ele>
        <time>2021-07-20T06:39:29.576Z</time>
      </trkpt>
      <trkpt lat="45.69814" lon="5.79407">
        <ele>304</ele>
        <time>2021-07-20T06:39:30.575Z</time>
      </trkpt>
      <trkpt lat="45.69809" lon="5.79404">
        <ele>304</ele>
        <time>2021-07-20T06:39:31.576Z</time>
      </trkpt>
      <trkpt lat="45.69803" lon="5.79401">
        <ele>304</ele>
        <time>2021-07-20T06:39:32.576Z</time>
      </trkpt>
      <trkpt lat="45.69798" lon="5.79396">
        <ele>304</ele>
        <time>2021-07-20T06:39:33.576Z</time>
      </trkpt>
      <trkpt lat="45.69793" lon="5.79391">
        <ele>304</ele>
        <time>2021-07-20T06:39:34.576Z</time>
      </trkpt>
      <trkpt lat="45.69788" lon="5.79385">
        <ele>304</ele>
        <time>2021-07-20T06:39:35.576Z</time>
      </trkpt>
      <trkpt lat="45.69784" lon="5.79379">
        <ele>304</ele>
        <time>2021-07-20T06:39:36.576Z</time>
      </trkpt>
      <trkpt lat="45.6978" lon="5.79373">
        <ele>304</ele>
        <time>2021-07-20T06:39:37.575Z</time>
      </trkpt>
      <trkpt lat="45.69776" lon="5.79366">
        <ele>304</ele>
        <time>2021-07-20T06:39:38.576Z</time>
      </trkpt>
      <trkpt lat="45.69772" lon="5.7936">
        <ele>304</ele>
        <time>2021-07-20T06:39:39.576Z</time>
      </trkpt>
      <trkpt lat="45.69767" lon="5.79353">
        <ele>304</ele>
        <time>2021-07-20T06:39:40.576Z</time>
      </trkpt>
      <trkpt lat="45.69763" lon="5.79347">
        <ele>304</ele>
        <time>2021-07-20T06:39:41.576Z</time>
      </trkpt>
      <trkpt lat="45.69758" lon="5.79342">
        <ele>304</ele>
        <time>2021-07-20T06:39:42.576Z</time>
      </trkpt>
      <trkpt lat="45.69753" lon="5.79338">
        <ele>304</ele>
        <time>2021-07-20T06:39:43.576Z</time>
      </trkpt>
      <trkpt lat="45.69747" lon="5.79335">
        <ele>304</ele>
        <time>2021-07-20T06:39:44.576Z</time>
      </trkpt>
      <trkpt lat="45.69742" lon="5.79332">
        <ele>304</ele>
        <time>2021-07-20T06:39:45.576Z</time>
      </trkpt>
      <trkpt lat="45.69737" lon="5.79331">
        <ele>303</ele>
        <time>2021-07-20T06:39:46.576Z</time>
      </trkpt>
      <trkpt lat="45.6973" lon="5.7933">
        <ele>303</ele>
        <time>2021-07-20T06:39:47.575Z</time>
      </trkpt>
      <trkpt lat="45.69724" lon="5.79329">
        <ele>303</ele>
        <time>2021-07-20T06:39:48.576Z</time>
      </trkpt>
      <trkpt lat="45.69718" lon="5.79329">
        <ele>303</ele>
        <time>2021-07-20T06:39:49.576Z</time>
      </trkpt>
      <trkpt lat="45.69712" lon="5.79329">
        <ele>303</ele>
        <time>2021-07-20T06:39:50.576Z</time>
      </trkpt>
      <trkpt lat="45.69706" lon="5.79329">
        <ele>303</ele>
        <time>2021-07-20T06:39:51.576Z</time>
      </trkpt>
      <trkpt lat="45.69699" lon="5.79329">
        <ele>302</ele>
        <time>2021-07-20T06:39:52.576Z</time>
      </trkpt>
      <trkpt lat="45.69692" lon="5.7933">
        <ele>302</ele>
        <time>2021-07-20T06:39:53.576Z</time>
      </trkpt>
      <trkpt lat="45.69686" lon="5.79332">
        <ele>302</ele>
        <time>2021-07-20T06:39:54.576Z</time>
      </trkpt>
      <trkpt lat="45.69682" lon="5.79334">
        <ele>302</ele>
        <time>2021-07-20T06:39:55.576Z</time>
      </trkpt>
      <trkpt lat="45.69676" lon="5.79337">
        <ele>302</ele>
        <time>2021-07-20T06:39:56.576Z</time>
      </trkpt>
      <trkpt lat="45.69669" lon="5.79341">
        <ele>302</ele>
        <time>2021-07-20T06:39:57.576Z</time>
      </trkpt>
      <trkpt lat="45.69663" lon="5.79345">
        <ele>302</ele>
        <time>2021-07-20T06:39:58.576Z</time>
      </trkpt>
      <trkpt lat="45.69658" lon="5.79349">
        <ele>301</ele>
        <time>2021-07-20T06:39:59.575Z</time>
      </trkpt>
      <trkpt lat="45.69653" lon="5.79355">
        <ele>301</ele>
        <time>2021-07-20T06:40:00.575Z</time>
      </trkpt>
      <trkpt lat="45.69648" lon="5.79361">
        <ele>301</ele>
        <time>2021-07-20T06:40:01.575Z</time>
      </trkpt>
      <trkpt lat="45.69644" lon="5.79367">
        <ele>300</ele>
        <time>2021-07-20T06:40:02.576Z</time>
      </trkpt>
      <trkpt lat="45.6964" lon="5.79374">
        <ele>300</ele>
        <time>2021-07-20T06:40:03.576Z</time>
      </trkpt>
      <trkpt lat="45.69636" lon="5.79381">
        <ele>299</ele>
        <time>2021-07-20T06:40:04.576Z</time>
      </trkpt>
      <trkpt lat="45.69633" lon="5.79389">
        <ele>299</ele>
        <time>2021-07-20T06:40:05.575Z</time>
      </trkpt>
      <trkpt lat="45.6963" lon="5.79397">
        <ele>299</ele>
        <time>2021-07-20T06:40:06.576Z</time>
      </trkpt>
      <trkpt lat="45.69629" lon="5.79406">
        <ele>298</ele>
        <time>2021-07-20T06:40:07.576Z</time>
      </trkpt>
      <trkpt lat="45.69627" lon="5.79415">
        <ele>298</ele>
        <time>2021-07-20T06:40:08.576Z</time>
      </trkpt>
      <trkpt lat="45.69626" lon="5.79424">
        <ele>297</ele>
        <time>2021-07-20T06:40:09.575Z</time>
      </trkpt>
      <trkpt lat="45.69625" lon="5.79434">
        <ele>297</ele>
        <time>2021-07-20T06:40:10.576Z</time>
      </trkpt>
      <trkpt lat="45.69625" lon="5.79443">
        <ele>297</ele>
        <time>2021-07-20T06:40:11.576Z</time>
      </trkpt>
      <trkpt lat="45.69626" lon="5.79453">
        <ele>296</ele>
        <time>2021-07-20T06:40:12.576Z</time>
      </trkpt>
      <trkpt lat="45.69626" lon="5.79462">
        <ele>296</ele>
        <time>2021-07-20T06:40:13.576Z</time>
      </trkpt>
      <trkpt lat="45.69627" lon="5.7947">
        <ele>296</ele>
        <time>2021-07-20T06:40:14.576Z</time>
      </trkpt>
      <trkpt lat="45.69628" lon="5.79479">
        <ele>296</ele>
        <time>2021-07-20T06:40:15.576Z</time>
      </trkpt>
      <trkpt lat="45.69629" lon="5.7949">
        <ele>296</ele>
        <time>2021-07-20T06:40:16.576Z</time>
      </trkpt>
      <trkpt lat="45.6963" lon="5.795">
        <ele>295</ele>
        <time>2021-07-20T06:40:17.576Z</time>
      </trkpt>
      <trkpt lat="45.69631" lon="5.79507">
        <ele>296</ele>
        <time>2021-07-20T06:40:18.576Z</time>
      </trkpt>
      <trkpt lat="45.69632" lon="5.79517">
        <ele>295</ele>
        <time>2021-07-20T06:40:19.576Z</time>
      </trkpt>
      <trkpt lat="45.69633" lon="5.79525">
        <ele>295</ele>
        <time>2021-07-20T06:40:20.576Z</time>
      </trkpt>
      <trkpt lat="45.69634" lon="5.79534">
        <ele>295</ele>
        <time>2021-07-20T06:40:21.576Z</time>
      </trkpt>
      <trkpt lat="45.69635" lon="5.79543">
        <ele>294</ele>
        <time>2021-07-20T06:40:22.576Z</time>
      </trkpt>
      <trkpt lat="45.69636" lon="5.79552">
        <ele>294</ele>
        <time>2021-07-20T06:40:23.575Z</time>
      </trkpt>
      <trkpt lat="45.69637" lon="5.79561">
        <ele>294</ele>
        <time>2021-07-20T06:40:24.576Z</time>
      </trkpt>
      <trkpt lat="45.69638" lon="5.7957">
        <ele>294</ele>
        <time>2021-07-20T06:40:25.576Z</time>
      </trkpt>
      <trkpt lat="45.69639" lon="5.79579">
        <ele>294</ele>
        <time>2021-07-20T06:40:26.575Z</time>
      </trkpt>
      <trkpt lat="45.6964" lon="5.79589">
        <ele>293</ele>
        <time>2021-07-20T06:40:27.576Z</time>
      </trkpt>
      <trkpt lat="45.69641" lon="5.79598">
        <ele>293</ele>
        <time>2021-07-20T06:40:28.575Z</time>
      </trkpt>
      <trkpt lat="45.69642" lon="5.79607">
        <ele>293</ele>
        <time>2021-07-20T06:40:29.576Z</time>
      </trkpt>
      <trkpt lat="45.69643" lon="5.79616">
        <ele>292</ele>
        <time>2021-07-20T06:40:30.575Z</time>
      </trkpt>
      <trkpt lat="45.69644" lon="5.79625">
        <ele>292</ele>
        <time>2021-07-20T06:40:31.575Z</time>
      </trkpt>
      <trkpt lat="45.69645" lon="5.79633">
        <ele>292</ele>
        <time>2021-07-20T06:40:32.576Z</time>
      </trkpt>
      <trkpt lat="45.69646" lon="5.79642">
        <ele>292</ele>
        <time>2021-07-20T06:40:33.576Z</time>
      </trkpt>
      <trkpt lat="45.69647" lon="5.79651">
        <ele>292</ele>
        <time>2021-07-20T06:40:34.576Z</time>
      </trkpt>
      <trkpt lat="45.69648" lon="5.7966">
        <ele>292</ele>
        <time>2021-07-20T06:40:35.575Z</time>
      </trkpt>
      <trkpt lat="45.69649" lon="5.79669">
        <ele>292</ele>
        <time>2021-07-20T06:40:36.575Z</time>
      </trkpt>
      <trkpt lat="45.6965" lon="5.79678">
        <ele>292</ele>
        <time>2021-07-20T06:40:37.576Z</time>
      </trkpt>
      <trkpt lat="45.6965" lon="5.79687">
        <ele>292</ele>
        <time>2021-07-20T06:40:38.576Z</time>
      </trkpt>
      <trkpt lat="45.69651" lon="5.79696">
        <ele>292</ele>
        <time>2021-07-20T06:40:39.575Z</time>
      </trkpt>
      <trkpt lat="45.69652" lon="5.79704">
        <ele>292</ele>
        <time>2021-07-20T06:40:40.575Z</time>
      </trkpt>
      <trkpt lat="45.69653" lon="5.79713">
        <ele>292</ele>
        <time>2021-07-20T06:40:41.576Z</time>
      </trkpt>
      <trkpt lat="45.69654" lon="5.79722">
        <ele>291</ele>
        <time>2021-07-20T06:40:42.575Z</time>
      </trkpt>
      <trkpt lat="45.69655" lon="5.79731">
        <ele>291</ele>
        <time>2021-07-20T06:40:43.575Z</time>
      </trkpt>
      <trkpt lat="45.69656" lon="5.7974">
        <ele>291</ele>
        <time>2021-07-20T06:40:44.576Z</time>
      </trkpt>
      <trkpt lat="45.69657" lon="5.79749">
        <ele>291</ele>
        <time>2021-07-20T06:40:45.575Z</time>
      </trkpt>
      <trkpt lat="45.69658" lon="5.79758">
        <ele>292</ele>
        <time>2021-07-20T06:40:46.576Z</time>
      </trkpt>
      <trkpt lat="45.69658" lon="5.79766">
        <ele>292</ele>
        <time>2021-07-20T06:40:47.575Z</time>
      </trkpt>
      <trkpt lat="45.69659" lon="5.79775">
        <ele>292</ele>
        <time>2021-07-20T06:40:48.575Z</time>
      </trkpt>
      <trkpt lat="45.6966" lon="5.79784">
        <ele>293</ele>
        <time>2021-07-20T06:40:49.576Z</time>
      </trkpt>
      <trkpt lat="45.69661" lon="5.79792">
        <ele>293</ele>
        <time>2021-07-20T06:40:50.576Z</time>
      </trkpt>
      <trkpt lat="45.69662" lon="5.79801">
        <ele>293</ele>
        <time>2021-07-20T06:40:51.576Z</time>
      </trkpt>
      <trkpt lat="45.69663" lon="5.7981">
        <ele>293</ele>
        <time>2021-07-20T06:40:52.575Z</time>
      </trkpt>
      <trkpt lat="45.69664" lon="5.79818">
        <ele>294</ele>
        <time>2021-07-20T06:40:53.576Z</time>
      </trkpt>
      <trkpt lat="45.69664" lon="5.79827">
        <ele>294</ele>
        <time>2021-07-20T06:40:54.576Z</time>
      </trkpt>
      <trkpt lat="45.69665" lon="5.79836">
        <ele>294</ele>
        <time>2021-07-20T06:40:55.575Z</time>
      </trkpt>
      <trkpt lat="45.69666" lon="5.79844">
        <ele>295</ele>
        <time>2021-07-20T06:40:56.576Z</time>
      </trkpt>
      <trkpt lat="45.69667" lon="5.79853">
        <ele>296</ele>
        <time>2021-07-20T06:40:57.576Z</time>
      </trkpt>
      <trkpt lat="45.69668" lon="5.79861">
        <ele>296</ele>
        <time>2021-07-20T06:40:58.575Z</time>
      </trkpt>
      <trkpt lat="45.69668" lon="5.7987">
        <ele>297</ele>
        <time>2021-07-20T06:40:59.575Z</time>
      </trkpt>
      <trkpt lat="45.69669" lon="5.79878">
        <ele>298</ele>
        <time>2021-07-20T06:41:00.576Z</time>
      </trkpt>
      <trkpt lat="45.6967" lon="5.79887">
        <ele>298</ele>
        <time>2021-07-20T06:41:01.576Z</time>
      </trkpt>
      <trkpt lat="45.69671" lon="5.79897">
        <ele>299</ele>
        <time>2021-07-20T06:41:02.576Z</time>
      </trkpt>
      <trkpt lat="45.69671" lon="5.79904">
        <ele>299</ele>
        <time>2021-07-20T06:41:03.575Z</time>
      </trkpt>
      <trkpt lat="45.69672" lon="5.79914">
        <ele>299</ele>
        <time>2021-07-20T06:41:04.575Z</time>
      </trkpt>
      <trkpt lat="45.69672" lon="5.79922">
        <ele>299</ele>
        <time>2021-07-20T06:41:05.576Z</time>
      </trkpt>
      <trkpt lat="45.69673" lon="5.79931">
        <ele>299</ele>
        <time>2021-07-20T06:41:06.575Z</time>
      </trkpt>
      <trkpt lat="45.69674" lon="5.79941">
        <ele>299</ele>
        <time>2021-07-20T06:41:07.576Z</time>
      </trkpt>
      <trkpt lat="45.69675" lon="5.79949">
        <ele>298</ele>
        <time>2021-07-20T06:41:08.575Z</time>
      </trkpt>
      <trkpt lat="45.69676" lon="5.79958">
        <ele>298</ele>
        <time>2021-07-20T06:41:09.576Z</time>
      </trkpt>
      <trkpt lat="45.69676" lon="5.79967">
        <ele>297</ele>
        <time>2021-07-20T06:41:10.576Z</time>
      </trkpt>
      <trkpt lat="45.69677" lon="5.79975">
        <ele>297</ele>
        <time>2021-07-20T06:41:11.576Z</time>
      </trkpt>
      <trkpt lat="45.69677" lon="5.79984">
        <ele>296</ele>
        <time>2021-07-20T06:41:12.576Z</time>
      </trkpt>
      <trkpt lat="45.69678" lon="5.79992">
        <ele>296</ele>
        <time>2021-07-20T06:41:13.575Z</time>
      </trkpt>
      <trkpt lat="45.69679" lon="5.79999">
        <ele>296</ele>
        <time>2021-07-20T06:41:14.575Z</time>
      </trkpt>
      <trkpt lat="45.69679" lon="5.80007">
        <ele>297</ele>
        <time>2021-07-20T06:41:15.575Z</time>
      </trkpt>
      <trkpt lat="45.6968" lon="5.80017">
        <ele>297</ele>
        <time>2021-07-20T06:41:16.576Z</time>
      </trkpt>
      <trkpt lat="45.69681" lon="5.80026">
        <ele>297</ele>
        <time>2021-07-20T06:41:17.576Z</time>
      </trkpt>
      <trkpt lat="45.69682" lon="5.80034">
        <ele>298</ele>
        <time>2021-07-20T06:41:18.576Z</time>
      </trkpt>
      <trkpt lat="45.69683" lon="5.80041">
        <ele>298</ele>
        <time>2021-07-20T06:41:19.575Z</time>
      </trkpt>
      <trkpt lat="45.69684" lon="5.80049">
        <ele>299</ele>
        <time>2021-07-20T06:41:20.575Z</time>
      </trkpt>
      <trkpt lat="45.69685" lon="5.80059">
        <ele>300</ele>
        <time>2021-07-20T06:41:21.576Z</time>
      </trkpt>
      <trkpt lat="45.69686" lon="5.80067">
        <ele>300</ele>
        <time>2021-07-20T06:41:22.576Z</time>
      </trkpt>
      <trkpt lat="45.69687" lon="5.80074">
        <ele>301</ele>
        <time>2021-07-20T06:41:23.576Z</time>
      </trkpt>
      <trkpt lat="45.69689" lon="5.80082">
        <ele>302</ele>
        <time>2021-07-20T06:41:24.575Z</time>
      </trkpt>
      <trkpt lat="45.69691" lon="5.80091">
        <ele>302</ele>
        <time>2021-07-20T06:41:25.575Z</time>
      </trkpt>
      <trkpt lat="45.69694" lon="5.801">
        <ele>303</ele>
        <time>2021-07-20T06:41:26.576Z</time>
      </trkpt>
      <trkpt lat="45.69696" lon="5.80108">
        <ele>303</ele>
        <time>2021-07-20T06:41:27.576Z</time>
      </trkpt>
      <trkpt lat="45.69698" lon="5.80116">
        <ele>303</ele>
        <time>2021-07-20T06:41:28.575Z</time>
      </trkpt>
      <trkpt lat="45.697" lon="5.80124">
        <ele>303</ele>
        <time>2021-07-20T06:41:29.575Z</time>
      </trkpt>
      <trkpt lat="45.69702" lon="5.80133">
        <ele>303</ele>
        <time>2021-07-20T06:41:30.575Z</time>
      </trkpt>
      <trkpt lat="45.69704" lon="5.80141">
        <ele>303</ele>
        <time>2021-07-20T06:41:31.576Z</time>
      </trkpt>
      <trkpt lat="45.69706" lon="5.8015">
        <ele>304</ele>
        <time>2021-07-20T06:41:32.576Z</time>
      </trkpt>
      <trkpt lat="45.69707" lon="5.80157">
        <ele>304</ele>
        <time>2021-07-20T06:41:33.575Z</time>
      </trkpt>
      <trkpt lat="45.69707" lon="5.80168">
        <ele>304</ele>
        <time>2021-07-20T06:41:34.575Z</time>
      </trkpt>
      <trkpt lat="45.69707" lon="5.80177">
        <ele>304</ele>
        <time>2021-07-20T06:41:35.575Z</time>
      </trkpt>
      <trkpt lat="45.69707" lon="5.80185">
        <ele>304</ele>
        <time>2021-07-20T06:41:36.576Z</time>
      </trkpt>
      <trkpt lat="45.69705" lon="5.80194">
        <ele>304</ele>
        <time>2021-07-20T06:41:37.576Z</time>
      </trkpt>
      <trkpt lat="45.69703" lon="5.80202">
        <ele>305</ele>
        <time>2021-07-20T06:41:38.575Z</time>
      </trkpt>
      <trkpt lat="45.69701" lon="5.80211">
        <ele>305</ele>
        <time>2021-07-20T06:41:39.575Z</time>
      </trkpt>
      <trkpt lat="45.69697" lon="5.80221">
        <ele>306</ele>
        <time>2021-07-20T06:41:40.576Z</time>
      </trkpt>
      <trkpt lat="45.69694" lon="5.80229">
        <ele>306</ele>
        <time>2021-07-20T06:41:41.576Z</time>
      </trkpt>
      <trkpt lat="45.69691" lon="5.80235">
        <ele>307</ele>
        <time>2021-07-20T06:41:42.576Z</time>
      </trkpt>
      <trkpt lat="45.69687" lon="5.80244">
        <ele>307</ele>
        <time>2021-07-20T06:41:43.575Z</time>
      </trkpt>
      <trkpt lat="45.69684" lon="5.8025">
        <ele>308</ele>
        <time>2021-07-20T06:41:44.575Z</time>
      </trkpt>
      <trkpt lat="45.6968" lon="5.80258">
        <ele>308</ele>
        <time>2021-07-20T06:41:45.576Z</time>
      </trkpt>
      <trkpt lat="45.69677" lon="5.80264">
        <ele>309</ele>
        <time>2021-07-20T06:41:46.575Z</time>
      </trkpt>
      <trkpt lat="45.69673" lon="5.80272">
        <ele>309</ele>
        <time>2021-07-20T06:41:47.575Z</time>
      </trkpt>
      <trkpt lat="45.6967" lon="5.80279">
        <ele>310</ele>
        <time>2021-07-20T06:41:48.575Z</time>
      </trkpt>
      <trkpt lat="45.69666" lon="5.80286">
        <ele>311</ele>
        <time>2021-07-20T06:41:49.575Z</time>
      </trkpt>
      <trkpt lat="45.69661" lon="5.80295">
        <ele>311</ele>
        <time>2021-07-20T06:41:50.575Z</time>
      </trkpt>
      <trkpt lat="45.69658" lon="5.80301">
        <ele>312</ele>
        <time>2021-07-20T06:41:51.576Z</time>
      </trkpt>
      <trkpt lat="45.69654" lon="5.80308">
        <ele>312</ele>
        <time>2021-07-20T06:41:52.575Z</time>
      </trkpt>
      <trkpt lat="45.6965" lon="5.80315">
        <ele>313</ele>
        <time>2021-07-20T06:41:53.576Z</time>
      </trkpt>
      <trkpt lat="45.69646" lon="5.80322">
        <ele>313</ele>
        <time>2021-07-20T06:41:54.575Z</time>
      </trkpt>
      <trkpt lat="45.69642" lon="5.80331">
        <ele>313</ele>
        <time>2021-07-20T06:41:55.575Z</time>
      </trkpt>
      <trkpt lat="45.69639" lon="5.80337">
        <ele>313</ele>
        <time>2021-07-20T06:41:56.575Z</time>
      </trkpt>
      <trkpt lat="45.69635" lon="5.80344">
        <ele>314</ele>
        <time>2021-07-20T06:41:57.576Z</time>
      </trkpt>
      <trkpt lat="45.69631" lon="5.80351">
        <ele>314</ele>
        <time>2021-07-20T06:41:58.576Z</time>
      </trkpt>
      <trkpt lat="45.69627" lon="5.80359">
        <ele>314</ele>
        <time>2021-07-20T06:41:59.575Z</time>
      </trkpt>
      <trkpt lat="45.69623" lon="5.80366">
        <ele>314</ele>
        <time>2021-07-20T06:42:00.576Z</time>
      </trkpt>
      <trkpt lat="45.69619" lon="5.80373">
        <ele>314</ele>
        <time>2021-07-20T06:42:01.576Z</time>
      </trkpt>
      <trkpt lat="45.69615" lon="5.80381">
        <ele>314</ele>
        <time>2021-07-20T06:42:02.575Z</time>
      </trkpt>
      <trkpt lat="45.69611" lon="5.80388">
        <ele>314</ele>
        <time>2021-07-20T06:42:03.575Z</time>
      </trkpt>
      <trkpt lat="45.69608" lon="5.80395">
        <ele>314</ele>
        <time>2021-07-20T06:42:04.575Z</time>
      </trkpt>
      <trkpt lat="45.69604" lon="5.80403">
        <ele>314</ele>
        <time>2021-07-20T06:42:05.575Z</time>
      </trkpt>
      <trkpt lat="45.696" lon="5.8041">
        <ele>314</ele>
        <time>2021-07-20T06:42:06.576Z</time>
      </trkpt>
      <trkpt lat="45.69596" lon="5.80418">
        <ele>313</ele>
        <time>2021-07-20T06:42:07.575Z</time>
      </trkpt>
      <trkpt lat="45.69592" lon="5.80425">
        <ele>313</ele>
        <time>2021-07-20T06:42:08.575Z</time>
      </trkpt>
      <trkpt lat="45.69588" lon="5.80432">
        <ele>312</ele>
        <time>2021-07-20T06:42:09.576Z</time>
      </trkpt>
      <trkpt lat="45.69584" lon="5.80439">
        <ele>311</ele>
        <time>2021-07-20T06:42:10.576Z</time>
      </trkpt>
      <trkpt lat="45.6958" lon="5.80447">
        <ele>311</ele>
        <time>2021-07-20T06:42:11.576Z</time>
      </trkpt>
      <trkpt lat="45.69576" lon="5.80454">
        <ele>311</ele>
        <time>2021-07-20T06:42:12.575Z</time>
      </trkpt>
      <trkpt lat="45.69572" lon="5.80462">
        <ele>311</ele>
        <time>2021-07-20T06:42:13.575Z</time>
      </trkpt>
      <trkpt lat="45.69568" lon="5.80469">
        <ele>311</ele>
        <time>2021-07-20T06:42:14.576Z</time>
      </trkpt>
      <trkpt lat="45.69564" lon="5.80477">
        <ele>311</ele>
        <time>2021-07-20T06:42:15.576Z</time>
      </trkpt>
      <trkpt lat="45.6956" lon="5.80484">
        <ele>310</ele>
        <time>2021-07-20T06:42:16.576Z</time>
      </trkpt>
      <trkpt lat="45.69556" lon="5.80491">
        <ele>310</ele>
        <time>2021-07-20T06:42:17.576Z</time>
      </trkpt>
      <trkpt lat="45.69553" lon="5.80499">
        <ele>309</ele>
        <time>2021-07-20T06:42:18.576Z</time>
      </trkpt>
      <trkpt lat="45.69549" lon="5.80506">
        <ele>310</ele>
        <time>2021-07-20T06:42:19.576Z</time>
      </trkpt>
      <trkpt lat="45.69545" lon="5.80514">
        <ele>310</ele>
        <time>2021-07-20T06:42:20.576Z</time>
      </trkpt>
      <trkpt lat="45.69541" lon="5.80521">
        <ele>310</ele>
        <time>2021-07-20T06:42:21.576Z</time>
      </trkpt>
      <trkpt lat="45.69538" lon="5.80528">
        <ele>310</ele>
        <time>2021-07-20T06:42:22.576Z</time>
      </trkpt>
      <trkpt lat="45.69534" lon="5.80535">
        <ele>309</ele>
        <time>2021-07-20T06:42:23.575Z</time>
      </trkpt>
      <trkpt lat="45.6953" lon="5.80542">
        <ele>309</ele>
        <time>2021-07-20T06:42:24.575Z</time>
      </trkpt>
      <trkpt lat="45.69526" lon="5.80549">
        <ele>309</ele>
        <time>2021-07-20T06:42:25.576Z</time>
      </trkpt>
      <trkpt lat="45.69523" lon="5.80557">
        <ele>309</ele>
        <time>2021-07-20T06:42:26.576Z</time>
      </trkpt>
      <trkpt lat="45.69519" lon="5.80563">
        <ele>309</ele>
        <time>2021-07-20T06:42:27.576Z</time>
      </trkpt>
      <trkpt lat="45.69515" lon="5.80571">
        <ele>309</ele>
        <time>2021-07-20T06:42:28.576Z</time>
      </trkpt>
      <trkpt lat="45.69511" lon="5.80578">
        <ele>309</ele>
        <time>2021-07-20T06:42:29.576Z</time>
      </trkpt>
      <trkpt lat="45.69508" lon="5.80584">
        <ele>310</ele>
        <time>2021-07-20T06:42:30.575Z</time>
      </trkpt>
      <trkpt lat="45.69504" lon="5.80591">
        <ele>309</ele>
        <time>2021-07-20T06:42:31.576Z</time>
      </trkpt>
      <trkpt lat="45.69501" lon="5.80598">
        <ele>309</ele>
        <time>2021-07-20T06:42:32.576Z</time>
      </trkpt>
      <trkpt lat="45.69497" lon="5.80604">
        <ele>310</ele>
        <time>2021-07-20T06:42:33.575Z</time>
      </trkpt>
      <trkpt lat="45.69493" lon="5.80611">
        <ele>310</ele>
        <time>2021-07-20T06:42:34.576Z</time>
      </trkpt>
      <trkpt lat="45.6949" lon="5.80618">
        <ele>310</ele>
        <time>2021-07-20T06:42:35.576Z</time>
      </trkpt>
      <trkpt lat="45.69486" lon="5.80624">
        <ele>311</ele>
        <time>2021-07-20T06:42:36.575Z</time>
      </trkpt>
      <trkpt lat="45.69483" lon="5.80631">
        <ele>311</ele>
        <time>2021-07-20T06:42:37.575Z</time>
      </trkpt>
      <trkpt lat="45.6948" lon="5.80638">
        <ele>311</ele>
        <time>2021-07-20T06:42:38.576Z</time>
      </trkpt>
      <trkpt lat="45.69476" lon="5.80645">
        <ele>312</ele>
        <time>2021-07-20T06:42:39.576Z</time>
      </trkpt>
      <trkpt lat="45.69473" lon="5.80652">
        <ele>312</ele>
        <time>2021-07-20T06:42:40.576Z</time>
      </trkpt>
      <trkpt lat="45.6947" lon="5.80658">
        <ele>313</ele>
        <time>2021-07-20T06:42:41.576Z</time>
      </trkpt>
      <trkpt lat="45.69466" lon="5.80665">
        <ele>313</ele>
        <time>2021-07-20T06:42:42.576Z</time>
      </trkpt>
      <trkpt lat="45.69463" lon="5.80671">
        <ele>313</ele>
        <time>2021-07-20T06:42:43.576Z</time>
      </trkpt>
      <trkpt lat="45.69459" lon="5.80677">
        <ele>313</ele>
        <time>2021-07-20T06:42:44.576Z</time>
      </trkpt>
      <trkpt lat="45.69455" lon="5.80683">
        <ele>313</ele>
        <time>2021-07-20T06:42:45.576Z</time>
      </trkpt>
      <trkpt lat="45.69452" lon="5.8069">
        <ele>313</ele>
        <time>2021-07-20T06:42:46.576Z</time>
      </trkpt>
      <trkpt lat="45.69448" lon="5.80697">
        <ele>314</ele>
        <time>2021-07-20T06:42:47.576Z</time>
      </trkpt>
      <trkpt lat="45.69445" lon="5.80704">
        <ele>314</ele>
        <time>2021-07-20T06:42:48.576Z</time>
      </trkpt>
      <trkpt lat="45.69441" lon="5.80711">
        <ele>315</ele>
        <time>2021-07-20T06:42:49.576Z</time>
      </trkpt>
      <trkpt lat="45.69438" lon="5.80718">
        <ele>315</ele>
        <time>2021-07-20T06:42:50.575Z</time>
      </trkpt>
      <trkpt lat="45.69434" lon="5.80725">
        <ele>316</ele>
        <time>2021-07-20T06:42:51.576Z</time>
      </trkpt>
      <trkpt lat="45.69431" lon="5.80731">
        <ele>317</ele>
        <time>2021-07-20T06:42:52.575Z</time>
      </trkpt>
      <trkpt lat="45.69427" lon="5.80738">
        <ele>317</ele>
        <time>2021-07-20T06:42:53.576Z</time>
      </trkpt>
      <trkpt lat="45.69424" lon="5.80744">
        <ele>318</ele>
        <time>2021-07-20T06:42:54.576Z</time>
      </trkpt>
      <trkpt lat="45.69421" lon="5.80751">
        <ele>318</ele>
        <time>2021-07-20T06:42:55.576Z</time>
      </trkpt>
      <trkpt lat="45.69417" lon="5.80757">
        <ele>318</ele>
        <time>2021-07-20T06:42:56.576Z</time>
      </trkpt>
      <trkpt lat="45.69414" lon="5.80764">
        <ele>317</ele>
        <time>2021-07-20T06:42:57.575Z</time>
      </trkpt>
      <trkpt lat="45.6941" lon="5.80771">
        <ele>317</ele>
        <time>2021-07-20T06:42:58.576Z</time>
      </trkpt>
      <trkpt lat="45.69407" lon="5.80777">
        <ele>317</ele>
        <time>2021-07-20T06:42:59.575Z</time>
      </trkpt>
      <trkpt lat="45.69404" lon="5.80784">
        <ele>317</ele>
        <time>2021-07-20T06:43:00.576Z</time>
      </trkpt>
      <trkpt lat="45.694" lon="5.8079">
        <ele>318</ele>
        <time>2021-07-20T06:43:01.576Z</time>
      </trkpt>
      <trkpt lat="45.69397" lon="5.80797">
        <ele>318</ele>
        <time>2021-07-20T06:43:02.575Z</time>
      </trkpt>
      <trkpt lat="45.69393" lon="5.80804">
        <ele>319</ele>
        <time>2021-07-20T06:43:03.576Z</time>
      </trkpt>
      <trkpt lat="45.6939" lon="5.80811">
        <ele>320</ele>
        <time>2021-07-20T06:43:04.575Z</time>
      </trkpt>
      <trkpt lat="45.69386" lon="5.80817">
        <ele>321</ele>
        <time>2021-07-20T06:43:05.576Z</time>
      </trkpt>
      <trkpt lat="45.69383" lon="5.80824">
        <ele>321</ele>
        <time>2021-07-20T06:43:06.576Z</time>
      </trkpt>
      <trkpt lat="45.6938" lon="5.8083">
        <ele>321</ele>
        <time>2021-07-20T06:43:07.576Z</time>
      </trkpt>
      <trkpt lat="45.69376" lon="5.80837">
        <ele>321</ele>
        <time>2021-07-20T06:43:08.576Z</time>
      </trkpt>
      <trkpt lat="45.69373" lon="5.80844">
        <ele>321</ele>
        <time>2021-07-20T06:43:09.576Z</time>
      </trkpt>
      <trkpt lat="45.69369" lon="5.8085">
        <ele>321</ele>
        <time>2021-07-20T06:43:10.576Z</time>
      </trkpt>
      <trkpt lat="45.69366" lon="5.80857">
        <ele>321</ele>
        <time>2021-07-20T06:43:11.576Z</time>
      </trkpt>
      <trkpt lat="45.69363" lon="5.80863">
        <ele>321</ele>
        <time>2021-07-20T06:43:12.576Z</time>
      </trkpt>
      <trkpt lat="45.69359" lon="5.8087">
        <ele>321</ele>
        <time>2021-07-20T06:43:13.576Z</time>
      </trkpt>
      <trkpt lat="45.69356" lon="5.80876">
        <ele>321</ele>
        <time>2021-07-20T06:43:14.576Z</time>
      </trkpt>
      <trkpt lat="45.69352" lon="5.80882">
        <ele>321</ele>
        <time>2021-07-20T06:43:15.575Z</time>
      </trkpt>
      <trkpt lat="45.69349" lon="5.80889">
        <ele>320</ele>
        <time>2021-07-20T06:43:16.576Z</time>
      </trkpt>
      <trkpt lat="45.69346" lon="5.80895">
        <ele>320</ele>
        <time>2021-07-20T06:43:17.575Z</time>
      </trkpt>
      <trkpt lat="45.69342" lon="5.80901">
        <ele>319</ele>
        <time>2021-07-20T06:43:18.575Z</time>
      </trkpt>
      <trkpt lat="45.69339" lon="5.80908">
        <ele>319</ele>
        <time>2021-07-20T06:43:19.575Z</time>
      </trkpt>
      <trkpt lat="45.69336" lon="5.80914">
        <ele>318</ele>
        <time>2021-07-20T06:43:20.575Z</time>
      </trkpt>
      <trkpt lat="45.69332" lon="5.80921">
        <ele>318</ele>
        <time>2021-07-20T06:43:21.575Z</time>
      </trkpt>
      <trkpt lat="45.69328" lon="5.80927">
        <ele>318</ele>
        <time>2021-07-20T06:43:22.576Z</time>
      </trkpt>
      <trkpt lat="45.69325" lon="5.80934">
        <ele>317</ele>
        <time>2021-07-20T06:43:23.576Z</time>
      </trkpt>
      <trkpt lat="45.69322" lon="5.80941">
        <ele>317</ele>
        <time>2021-07-20T06:43:24.575Z</time>
      </trkpt>
      <trkpt lat="45.69318" lon="5.80948">
        <ele>317</ele>
        <time>2021-07-20T06:43:25.575Z</time>
      </trkpt>
      <trkpt lat="45.69315" lon="5.80955">
        <ele>317</ele>
        <time>2021-07-20T06:43:26.576Z</time>
      </trkpt>
      <trkpt lat="45.69311" lon="5.80961">
        <ele>317</ele>
        <time>2021-07-20T06:43:27.575Z</time>
      </trkpt>
      <trkpt lat="45.69308" lon="5.80968">
        <ele>317</ele>
        <time>2021-07-20T06:43:28.575Z</time>
      </trkpt>
      <trkpt lat="45.69304" lon="5.80975">
        <ele>317</ele>
        <time>2021-07-20T06:43:29.576Z</time>
      </trkpt>
      <trkpt lat="45.69301" lon="5.80982">
        <ele>317</ele>
        <time>2021-07-20T06:43:30.575Z</time>
      </trkpt>
      <trkpt lat="45.69297" lon="5.80989">
        <ele>317</ele>
        <time>2021-07-20T06:43:31.576Z</time>
      </trkpt>
      <trkpt lat="45.69293" lon="5.80996">
        <ele>317</ele>
        <time>2021-07-20T06:43:32.576Z</time>
      </trkpt>
      <trkpt lat="45.6929" lon="5.81003">
        <ele>318</ele>
        <time>2021-07-20T06:43:33.575Z</time>
      </trkpt>
      <trkpt lat="45.69286" lon="5.8101">
        <ele>318</ele>
        <time>2021-07-20T06:43:34.576Z</time>
      </trkpt>
      <trkpt lat="45.69283" lon="5.81017">
        <ele>318</ele>
        <time>2021-07-20T06:43:35.576Z</time>
      </trkpt>
      <trkpt lat="45.69279" lon="5.81024">
        <ele>319</ele>
        <time>2021-07-20T06:43:36.576Z</time>
      </trkpt>
      <trkpt lat="45.69275" lon="5.81032">
        <ele>319</ele>
        <time>2021-07-20T06:43:37.575Z</time>
      </trkpt>
      <trkpt lat="45.69271" lon="5.81039">
        <ele>319</ele>
        <time>2021-07-20T06:43:38.575Z</time>
      </trkpt>
      <trkpt lat="45.69267" lon="5.81046">
        <ele>319</ele>
        <time>2021-07-20T06:43:39.576Z</time>
      </trkpt>
      <trkpt lat="45.69263" lon="5.81054">
        <ele>319</ele>
        <time>2021-07-20T06:43:40.576Z</time>
      </trkpt>
      <trkpt lat="45.6926" lon="5.81061">
        <ele>319</ele>
        <time>2021-07-20T06:43:41.576Z</time>
      </trkpt>
      <trkpt lat="45.69256" lon="5.81069">
        <ele>319</ele>
        <time>2021-07-20T06:43:42.576Z</time>
      </trkpt>
      <trkpt lat="45.69252" lon="5.81076">
        <ele>319</ele>
        <time>2021-07-20T06:43:43.576Z</time>
      </trkpt>
      <trkpt lat="45.69248" lon="5.81084">
        <ele>318</ele>
        <time>2021-07-20T06:43:44.576Z</time>
      </trkpt>
      <trkpt lat="45.69244" lon="5.81092">
        <ele>318</ele>
        <time>2021-07-20T06:43:45.576Z</time>
      </trkpt>
      <trkpt lat="45.6924" lon="5.811">
        <ele>318</ele>
        <time>2021-07-20T06:43:46.576Z</time>
      </trkpt>
      <trkpt lat="45.69236" lon="5.81107">
        <ele>318</ele>
        <time>2021-07-20T06:43:47.576Z</time>
      </trkpt>
      <trkpt lat="45.69232" lon="5.81115">
        <ele>317</ele>
        <time>2021-07-20T06:43:48.576Z</time>
      </trkpt>
      <trkpt lat="45.69228" lon="5.81123">
        <ele>317</ele>
        <time>2021-07-20T06:43:49.575Z</time>
      </trkpt>
      <trkpt lat="45.69224" lon="5.81131">
        <ele>317</ele>
        <time>2021-07-20T06:43:50.576Z</time>
      </trkpt>
      <trkpt lat="45.69219" lon="5.8114">
        <ele>317</ele>
        <time>2021-07-20T06:43:51.575Z</time>
      </trkpt>
      <trkpt lat="45.69215" lon="5.81148">
        <ele>318</ele>
        <time>2021-07-20T06:43:52.575Z</time>
      </trkpt>
      <trkpt lat="45.69211" lon="5.81156">
        <ele>318</ele>
        <time>2021-07-20T06:43:53.576Z</time>
      </trkpt>
      <trkpt lat="45.69206" lon="5.81164">
        <ele>318</ele>
        <time>2021-07-20T06:43:54.575Z</time>
      </trkpt>
      <trkpt lat="45.69202" lon="5.81172">
        <ele>319</ele>
        <time>2021-07-20T06:43:55.576Z</time>
      </trkpt>
      <trkpt lat="45.69197" lon="5.81181">
        <ele>319</ele>
        <time>2021-07-20T06:43:56.576Z</time>
      </trkpt>
      <trkpt lat="45.69193" lon="5.81189">
        <ele>320</ele>
        <time>2021-07-20T06:43:57.576Z</time>
      </trkpt>
      <trkpt lat="45.69188" lon="5.81198">
        <ele>320</ele>
        <time>2021-07-20T06:43:58.575Z</time>
      </trkpt>
      <trkpt lat="45.69184" lon="5.81207">
        <ele>320</ele>
        <time>2021-07-20T06:43:59.576Z</time>
      </trkpt>
      <trkpt lat="45.69179" lon="5.81215">
        <ele>320</ele>
        <time>2021-07-20T06:44:00.575Z</time>
      </trkpt>
      <trkpt lat="45.69175" lon="5.81224">
        <ele>320</ele>
        <time>2021-07-20T06:44:01.576Z</time>
      </trkpt>
      <trkpt lat="45.6917" lon="5.81233">
        <ele>320</ele>
        <time>2021-07-20T06:44:02.576Z</time>
      </trkpt>
      <trkpt lat="45.69165" lon="5.81241">
        <ele>320</ele>
        <time>2021-07-20T06:44:03.576Z</time>
      </trkpt>
      <trkpt lat="45.69161" lon="5.8125">
        <ele>320</ele>
        <time>2021-07-20T06:44:04.576Z</time>
      </trkpt>
      <trkpt lat="45.69156" lon="5.81259">
        <ele>320</ele>
        <time>2021-07-20T06:44:05.576Z</time>
      </trkpt>
      <trkpt lat="45.69152" lon="5.81267">
        <ele>320</ele>
        <time>2021-07-20T06:44:06.576Z</time>
      </trkpt>
      <trkpt lat="45.69147" lon="5.81276">
        <ele>320</ele>
        <time>2021-07-20T06:44:07.575Z</time>
      </trkpt>
      <trkpt lat="45.69143" lon="5.81285">
        <ele>320</ele>
        <time>2021-07-20T06:44:08.576Z</time>
      </trkpt>
      <trkpt lat="45.69138" lon="5.81293">
        <ele>320</ele>
        <time>2021-07-20T06:44:09.576Z</time>
      </trkpt>
      <trkpt lat="45.69134" lon="5.81302">
        <ele>321</ele>
        <time>2021-07-20T06:44:10.576Z</time>
      </trkpt>
      <trkpt lat="45.69129" lon="5.81311">
        <ele>321</ele>
        <time>2021-07-20T06:44:11.576Z</time>
      </trkpt>
      <trkpt lat="45.69124" lon="5.8132">
        <ele>321</ele>
        <time>2021-07-20T06:44:12.575Z</time>
      </trkpt>
      <trkpt lat="45.6912" lon="5.81329">
        <ele>320</ele>
        <time>2021-07-20T06:44:13.576Z</time>
      </trkpt>
      <trkpt lat="45.69115" lon="5.81338">
        <ele>320</ele>
        <time>2021-07-20T06:44:14.576Z</time>
      </trkpt>
      <trkpt lat="45.69111" lon="5.81347">
        <ele>320</ele>
        <time>2021-07-20T06:44:15.575Z</time>
      </trkpt>
      <trkpt lat="45.69106" lon="5.81355">
        <ele>320</ele>
        <time>2021-07-20T06:44:16.576Z</time>
      </trkpt>
      <trkpt lat="45.69102" lon="5.81364">
        <ele>320</ele>
        <time>2021-07-20T06:44:17.576Z</time>
      </trkpt>
      <trkpt lat="45.69097" lon="5.81373">
        <ele>321</ele>
        <time>2021-07-20T06:44:18.576Z</time>
      </trkpt>
      <trkpt lat="45.69093" lon="5.81382">
        <ele>321</ele>
        <time>2021-07-20T06:44:19.576Z</time>
      </trkpt>
      <trkpt lat="45.69089" lon="5.8139">
        <ele>322</ele>
        <time>2021-07-20T06:44:20.576Z</time>
      </trkpt>
      <trkpt lat="45.69085" lon="5.81398">
        <ele>323</ele>
        <time>2021-07-20T06:44:21.575Z</time>
      </trkpt>
      <trkpt lat="45.69081" lon="5.81406">
        <ele>323</ele>
        <time>2021-07-20T06:44:22.576Z</time>
      </trkpt>
      <trkpt lat="45.69077" lon="5.81414">
        <ele>324</ele>
        <time>2021-07-20T06:44:23.575Z</time>
      </trkpt>
      <trkpt lat="45.69072" lon="5.81422">
        <ele>324</ele>
        <time>2021-07-20T06:44:24.575Z</time>
      </trkpt>
      <trkpt lat="45.69068" lon="5.8143">
        <ele>325</ele>
        <time>2021-07-20T06:44:25.576Z</time>
      </trkpt>
      <trkpt lat="45.69064" lon="5.81438">
        <ele>326</ele>
        <time>2021-07-20T06:44:26.576Z</time>
      </trkpt>
      <trkpt lat="45.6906" lon="5.81445">
        <ele>326</ele>
        <time>2021-07-20T06:44:27.575Z</time>
      </trkpt>
      <trkpt lat="45.69056" lon="5.81453">
        <ele>326</ele>
        <time>2021-07-20T06:44:28.576Z</time>
      </trkpt>
      <trkpt lat="45.69053" lon="5.8146">
        <ele>326</ele>
        <time>2021-07-20T06:44:29.576Z</time>
      </trkpt>
      <trkpt lat="45.69049" lon="5.81468">
        <ele>326</ele>
        <time>2021-07-20T06:44:30.576Z</time>
      </trkpt>
      <trkpt lat="45.69045" lon="5.81475">
        <ele>325</ele>
        <time>2021-07-20T06:44:31.576Z</time>
      </trkpt>
      <trkpt lat="45.69042" lon="5.81482">
        <ele>324</ele>
        <time>2021-07-20T06:44:32.575Z</time>
      </trkpt>
      <trkpt lat="45.69039" lon="5.8149">
        <ele>324</ele>
        <time>2021-07-20T06:44:33.575Z</time>
      </trkpt>
      <trkpt lat="45.69036" lon="5.81497">
        <ele>324</ele>
        <time>2021-07-20T06:44:34.576Z</time>
      </trkpt>
      <trkpt lat="45.69033" lon="5.81504">
        <ele>323</ele>
        <time>2021-07-20T06:44:35.575Z</time>
      </trkpt>
      <trkpt lat="45.69031" lon="5.81511">
        <ele>323</ele>
        <time>2021-07-20T06:44:36.576Z</time>
      </trkpt>
      <trkpt lat="45.69029" lon="5.81518">
        <ele>322</ele>
        <time>2021-07-20T06:44:37.575Z</time>
      </trkpt>
      <trkpt lat="45.69027" lon="5.81525">
        <ele>322</ele>
        <time>2021-07-20T06:44:38.575Z</time>
      </trkpt>
      <trkpt lat="45.69024" lon="5.81532">
        <ele>322</ele>
        <time>2021-07-20T06:44:39.576Z</time>
      </trkpt>
      <trkpt lat="45.69022" lon="5.81538">
        <ele>323</ele>
        <time>2021-07-20T06:44:40.576Z</time>
      </trkpt>
      <trkpt lat="45.6902" lon="5.81545">
        <ele>323</ele>
        <time>2021-07-20T06:44:41.575Z</time>
      </trkpt>
      <trkpt lat="45.69019" lon="5.81552">
        <ele>323</ele>
        <time>2021-07-20T06:44:42.576Z</time>
      </trkpt>
      <trkpt lat="45.6902" lon="5.81559">
        <ele>323</ele>
        <time>2021-07-20T06:44:43.575Z</time>
      </trkpt>
      <trkpt lat="45.6902" lon="5.81566">
        <ele>323</ele>
        <time>2021-07-20T06:44:44.576Z</time>
      </trkpt>
      <trkpt lat="45.69021" lon="5.81574">
        <ele>322</ele>
        <time>2021-07-20T06:44:45.576Z</time>
      </trkpt>
      <trkpt lat="45.69021" lon="5.81581">
        <ele>322</ele>
        <time>2021-07-20T06:44:46.575Z</time>
      </trkpt>
      <trkpt lat="45.69022" lon="5.81589">
        <ele>323</ele>
        <time>2021-07-20T06:44:47.576Z</time>
      </trkpt>
      <trkpt lat="45.69022" lon="5.81596">
        <ele>323</ele>
        <time>2021-07-20T06:44:48.576Z</time>
      </trkpt>
      <trkpt lat="45.69024" lon="5.81603">
        <ele>323</ele>
        <time>2021-07-20T06:44:49.576Z</time>
      </trkpt>
      <trkpt lat="45.69025" lon="5.8161">
        <ele>323</ele>
        <time>2021-07-20T06:44:50.576Z</time>
      </trkpt>
      <trkpt lat="45.69026" lon="5.81617">
        <ele>322</ele>
        <time>2021-07-20T06:44:51.576Z</time>
      </trkpt>
      <trkpt lat="45.69028" lon="5.81624">
        <ele>322</ele>
        <time>2021-07-20T06:44:52.576Z</time>
      </trkpt>
      <trkpt lat="45.69029" lon="5.81631">
        <ele>323</ele>
        <time>2021-07-20T06:44:53.576Z</time>
      </trkpt>
      <trkpt lat="45.69031" lon="5.81638">
        <ele>323</ele>
        <time>2021-07-20T06:44:54.576Z</time>
      </trkpt>
      <trkpt lat="45.69033" lon="5.81645">
        <ele>323</ele>
        <time>2021-07-20T06:44:55.575Z</time>
      </trkpt>
      <trkpt lat="45.69034" lon="5.81652">
        <ele>324</ele>
        <time>2021-07-20T06:44:56.576Z</time>
      </trkpt>
      <trkpt lat="45.69036" lon="5.8166">
        <ele>325</ele>
        <time>2021-07-20T06:44:57.576Z</time>
      </trkpt>
      <trkpt lat="45.69037" lon="5.81667">
        <ele>325</ele>
        <time>2021-07-20T06:44:58.576Z</time>
      </trkpt>
      <trkpt lat="45.69038" lon="5.81674">
        <ele>326</ele>
        <time>2021-07-20T06:44:59.576Z</time>
      </trkpt>
      <trkpt lat="45.6904" lon="5.81682">
        <ele>326</ele>
        <time>2021-07-20T06:45:00.576Z</time>
      </trkpt>
      <trkpt lat="45.69041" lon="5.81689">
        <ele>327</ele>
        <time>2021-07-20T06:45:01.576Z</time>
      </trkpt>
      <trkpt lat="45.69042" lon="5.81696">
        <ele>327</ele>
        <time>2021-07-20T06:45:02.576Z</time>
      </trkpt>
      <trkpt lat="45.69043" lon="5.81704">
        <ele>327</ele>
        <time>2021-07-20T06:45:03.576Z</time>
      </trkpt>
      <trkpt lat="45.69045" lon="5.81712">
        <ele>328</ele>
        <time>2021-07-20T06:45:04.576Z</time>
      </trkpt>
      <trkpt lat="45.69046" lon="5.8172">
        <ele>327</ele>
        <time>2021-07-20T06:45:05.576Z</time>
      </trkpt>
      <trkpt lat="45.69047" lon="5.81728">
        <ele>327</ele>
        <time>2021-07-20T06:45:06.576Z</time>
      </trkpt>
      <trkpt lat="45.69048" lon="5.81736">
        <ele>327</ele>
        <time>2021-07-20T06:45:07.576Z</time>
      </trkpt>
      <trkpt lat="45.69049" lon="5.81744">
        <ele>328</ele>
        <time>2021-07-20T06:45:08.576Z</time>
      </trkpt>
      <trkpt lat="45.6905" lon="5.81752">
        <ele>328</ele>
        <time>2021-07-20T06:45:09.576Z</time>
      </trkpt>
      <trkpt lat="45.69051" lon="5.8176">
        <ele>328</ele>
        <time>2021-07-20T06:45:10.575Z</time>
      </trkpt>
      <trkpt lat="45.69052" lon="5.81768">
        <ele>328</ele>
        <time>2021-07-20T06:45:11.576Z</time>
      </trkpt>
      <trkpt lat="45.69053" lon="5.81776">
        <ele>328</ele>
        <time>2021-07-20T06:45:12.576Z</time>
      </trkpt>
      <trkpt lat="45.69054" lon="5.81784">
        <ele>328</ele>
        <time>2021-07-20T06:45:13.576Z</time>
      </trkpt>
      <trkpt lat="45.69056" lon="5.81791">
        <ele>327</ele>
        <time>2021-07-20T06:45:14.575Z</time>
      </trkpt>
      <trkpt lat="45.69057" lon="5.81799">
        <ele>327</ele>
        <time>2021-07-20T06:45:15.575Z</time>
      </trkpt>
      <trkpt lat="45.69058" lon="5.81807">
        <ele>327</ele>
        <time>2021-07-20T06:45:16.576Z</time>
      </trkpt>
      <trkpt lat="45.69059" lon="5.81814">
        <ele>327</ele>
        <time>2021-07-20T06:45:17.576Z</time>
      </trkpt>
      <trkpt lat="45.69059" lon="5.81821">
        <ele>327</ele>
        <time>2021-07-20T06:45:18.576Z</time>
      </trkpt>
      <trkpt lat="45.69059" lon="5.81829">
        <ele>327</ele>
        <time>2021-07-20T06:45:19.576Z</time>
      </trkpt>
      <trkpt lat="45.6906" lon="5.81836">
        <ele>327</ele>
        <time>2021-07-20T06:45:20.576Z</time>
      </trkpt>
      <trkpt lat="45.6906" lon="5.81843">
        <ele>327</ele>
        <time>2021-07-20T06:45:21.576Z</time>
      </trkpt>
      <trkpt lat="45.6906" lon="5.81851">
        <ele>327</ele>
        <time>2021-07-20T06:45:22.576Z</time>
      </trkpt>
      <trkpt lat="45.6906" lon="5.81858">
        <ele>327</ele>
        <time>2021-07-20T06:45:23.576Z</time>
      </trkpt>
      <trkpt lat="45.69059" lon="5.81865">
        <ele>328</ele>
        <time>2021-07-20T06:45:24.575Z</time>
      </trkpt>
      <trkpt lat="45.69058" lon="5.81872">
        <ele>328</ele>
        <time>2021-07-20T06:45:25.576Z</time>
      </trkpt>
      <trkpt lat="45.69057" lon="5.81879">
        <ele>328</ele>
        <time>2021-07-20T06:45:26.576Z</time>
      </trkpt>
      <trkpt lat="45.69056" lon="5.81886">
        <ele>329</ele>
        <time>2021-07-20T06:45:27.576Z</time>
      </trkpt>
      <trkpt lat="45.69055" lon="5.81893">
        <ele>329</ele>
        <time>2021-07-20T06:45:28.576Z</time>
      </trkpt>
      <trkpt lat="45.69054" lon="5.819">
        <ele>329</ele>
        <time>2021-07-20T06:45:29.576Z</time>
      </trkpt>
      <trkpt lat="45.69054" lon="5.81907">
        <ele>329</ele>
        <time>2021-07-20T06:45:30.576Z</time>
      </trkpt>
      <trkpt lat="45.69053" lon="5.81914">
        <ele>329</ele>
        <time>2021-07-20T06:45:31.576Z</time>
      </trkpt>
      <trkpt lat="45.69052" lon="5.8192">
        <ele>329</ele>
        <time>2021-07-20T06:45:32.576Z</time>
      </trkpt>
      <trkpt lat="45.69051" lon="5.81926">
        <ele>329</ele>
        <time>2021-07-20T06:45:33.576Z</time>
      </trkpt>
      <trkpt lat="45.6905" lon="5.81933">
        <ele>330</ele>
        <time>2021-07-20T06:45:34.576Z</time>
      </trkpt>
      <trkpt lat="45.69048" lon="5.81939">
        <ele>330</ele>
        <time>2021-07-20T06:45:35.576Z</time>
      </trkpt>
      <trkpt lat="45.69046" lon="5.81944">
        <ele>330</ele>
        <time>2021-07-20T06:45:36.576Z</time>
      </trkpt>
      <trkpt lat="45.69044" lon="5.81949">
        <ele>330</ele>
        <time>2021-07-20T06:45:37.576Z</time>
      </trkpt>
      <trkpt lat="45.69042" lon="5.81955">
        <ele>331</ele>
        <time>2021-07-20T06:45:38.576Z</time>
      </trkpt>
      <trkpt lat="45.6904" lon="5.8196">
        <ele>331</ele>
        <time>2021-07-20T06:45:39.575Z</time>
      </trkpt>
      <trkpt lat="45.69038" lon="5.81966">
        <ele>332</ele>
        <time>2021-07-20T06:45:40.576Z</time>
      </trkpt>
      <trkpt lat="45.69035" lon="5.81971">
        <ele>333</ele>
        <time>2021-07-20T06:45:41.576Z</time>
      </trkpt>
      <trkpt lat="45.69032" lon="5.81977">
        <ele>333</ele>
        <time>2021-07-20T06:45:42.576Z</time>
      </trkpt>
      <trkpt lat="45.6903" lon="5.81982">
        <ele>334</ele>
        <time>2021-07-20T06:45:43.576Z</time>
      </trkpt>
      <trkpt lat="45.69027" lon="5.81988">
        <ele>335</ele>
        <time>2021-07-20T06:45:44.576Z</time>
      </trkpt>
      <trkpt lat="45.69024" lon="5.81994">
        <ele>336</ele>
        <time>2021-07-20T06:45:45.576Z</time>
      </trkpt>
      <trkpt lat="45.69021" lon="5.81999">
        <ele>337</ele>
        <time>2021-07-20T06:45:46.576Z</time>
      </trkpt>
      <trkpt lat="45.69018" lon="5.82005">
        <ele>338</ele>
        <time>2021-07-20T06:45:47.576Z</time>
      </trkpt>
      <trkpt lat="45.69015" lon="5.8201">
        <ele>339</ele>
        <time>2021-07-20T06:45:48.575Z</time>
      </trkpt>
      <trkpt lat="45.69012" lon="5.82016">
        <ele>340</ele>
        <time>2021-07-20T06:45:49.575Z</time>
      </trkpt>
      <trkpt lat="45.6901" lon="5.82021">
        <ele>341</ele>
        <time>2021-07-20T06:45:50.576Z</time>
      </trkpt>
      <trkpt lat="45.69007" lon="5.82027">
        <ele>341</ele>
        <time>2021-07-20T06:45:51.576Z</time>
      </trkpt>
      <trkpt lat="45.69004" lon="5.82032">
        <ele>342</ele>
        <time>2021-07-20T06:45:52.576Z</time>
      </trkpt>
      <trkpt lat="45.69001" lon="5.82037">
        <ele>342</ele>
        <time>2021-07-20T06:45:53.576Z</time>
      </trkpt>
      <trkpt lat="45.68998" lon="5.82043">
        <ele>343</ele>
        <time>2021-07-20T06:45:54.576Z</time>
      </trkpt>
      <trkpt lat="45.68996" lon="5.82048">
        <ele>343</ele>
        <time>2021-07-20T06:45:55.576Z</time>
      </trkpt>
      <trkpt lat="45.68993" lon="5.82053">
        <ele>343</ele>
        <time>2021-07-20T06:45:56.575Z</time>
      </trkpt>
      <trkpt lat="45.68991" lon="5.82059">
        <ele>343</ele>
        <time>2021-07-20T06:45:57.576Z</time>
      </trkpt>
      <trkpt lat="45.68988" lon="5.82064">
        <ele>343</ele>
        <time>2021-07-20T06:45:58.576Z</time>
      </trkpt>
      <trkpt lat="45.68986" lon="5.82069">
        <ele>343</ele>
        <time>2021-07-20T06:45:59.576Z</time>
      </trkpt>
      <trkpt lat="45.68984" lon="5.82075">
        <ele>343</ele>
        <time>2021-07-20T06:46:00.576Z</time>
      </trkpt>
      <trkpt lat="45.68982" lon="5.8208">
        <ele>342</ele>
        <time>2021-07-20T06:46:01.575Z</time>
      </trkpt>
      <trkpt lat="45.6898" lon="5.82085">
        <ele>342</ele>
        <time>2021-07-20T06:46:02.575Z</time>
      </trkpt>
      <trkpt lat="45.68978" lon="5.8209">
        <ele>342</ele>
        <time>2021-07-20T06:46:03.575Z</time>
      </trkpt>
      <trkpt lat="45.68975" lon="5.82096">
        <ele>342</ele>
        <time>2021-07-20T06:46:04.576Z</time>
      </trkpt>
      <trkpt lat="45.68973" lon="5.82101">
        <ele>342</ele>
        <time>2021-07-20T06:46:05.575Z</time>
      </trkpt>
      <trkpt lat="45.6897" lon="5.82106">
        <ele>343</ele>
        <time>2021-07-20T06:46:06.576Z</time>
      </trkpt>
      <trkpt lat="45.68968" lon="5.82111">
        <ele>343</ele>
        <time>2021-07-20T06:46:07.576Z</time>
      </trkpt>
      <trkpt lat="45.68965" lon="5.82117">
        <ele>344</ele>
        <time>2021-07-20T06:46:08.576Z</time>
      </trkpt>
      <trkpt lat="45.68963" lon="5.82122">
        <ele>344</ele>
        <time>2021-07-20T06:46:09.575Z</time>
      </trkpt>
      <trkpt lat="45.6896" lon="5.82126">
        <ele>345</ele>
        <time>2021-07-20T06:46:10.576Z</time>
      </trkpt>
      <trkpt lat="45.68957" lon="5.82132">
        <ele>346</ele>
        <time>2021-07-20T06:46:11.576Z</time>
      </trkpt>
      <trkpt lat="45.68955" lon="5.82137">
        <ele>347</ele>
        <time>2021-07-20T06:46:12.576Z</time>
      </trkpt>
      <trkpt lat="45.68952" lon="5.82142">
        <ele>348</ele>
        <time>2021-07-20T06:46:13.575Z</time>
      </trkpt>
      <trkpt lat="45.68949" lon="5.82147">
        <ele>348</ele>
        <time>2021-07-20T06:46:14.575Z</time>
      </trkpt>
      <trkpt lat="45.68947" lon="5.82152">
        <ele>349</ele>
        <time>2021-07-20T06:46:15.576Z</time>
      </trkpt>
      <trkpt lat="45.68944" lon="5.82157">
        <ele>349</ele>
        <time>2021-07-20T06:46:16.576Z</time>
      </trkpt>
      <trkpt lat="45.68941" lon="5.82162">
        <ele>349</ele>
        <time>2021-07-20T06:46:17.576Z</time>
      </trkpt>
      <trkpt lat="45.68938" lon="5.82168">
        <ele>349</ele>
        <time>2021-07-20T06:46:18.575Z</time>
      </trkpt>
      <trkpt lat="45.68936" lon="5.82173">
        <ele>350</ele>
        <time>2021-07-20T06:46:19.576Z</time>
      </trkpt>
      <trkpt lat="45.68934" lon="5.82177">
        <ele>350</ele>
        <time>2021-07-20T06:46:20.576Z</time>
      </trkpt>
      <trkpt lat="45.68931" lon="5.82182">
        <ele>351</ele>
        <time>2021-07-20T06:46:21.576Z</time>
      </trkpt>
      <trkpt lat="45.68928" lon="5.82188">
        <ele>351</ele>
        <time>2021-07-20T06:46:22.575Z</time>
      </trkpt>
      <trkpt lat="45.68926" lon="5.82193">
        <ele>351</ele>
        <time>2021-07-20T06:46:23.576Z</time>
      </trkpt>
      <trkpt lat="45.68924" lon="5.82197">
        <ele>352</ele>
        <time>2021-07-20T06:46:24.575Z</time>
      </trkpt>
      <trkpt lat="45.68921" lon="5.82202">
        <ele>352</ele>
        <time>2021-07-20T06:46:25.576Z</time>
      </trkpt>
      <trkpt lat="45.68918" lon="5.82208">
        <ele>352</ele>
        <time>2021-07-20T06:46:26.575Z</time>
      </trkpt>
      <trkpt lat="45.68915" lon="5.82213">
        <ele>352</ele>
        <time>2021-07-20T06:46:27.576Z</time>
      </trkpt>
      <trkpt lat="45.68913" lon="5.82216">
        <ele>352</ele>
        <time>2021-07-20T06:46:28.576Z</time>
      </trkpt>
      <trkpt lat="45.68911" lon="5.82221">
        <ele>351</ele>
        <time>2021-07-20T06:46:29.576Z</time>
      </trkpt>
      <trkpt lat="45.68908" lon="5.82227">
        <ele>351</ele>
        <time>2021-07-20T06:46:30.576Z</time>
      </trkpt>
      <trkpt lat="45.68905" lon="5.82232">
        <ele>350</ele>
        <time>2021-07-20T06:46:31.576Z</time>
      </trkpt>
      <trkpt lat="45.68903" lon="5.82237">
        <ele>349</ele>
        <time>2021-07-20T06:46:32.575Z</time>
      </trkpt>
      <trkpt lat="45.689" lon="5.82242">
        <ele>349</ele>
        <time>2021-07-20T06:46:33.576Z</time>
      </trkpt>
      <trkpt lat="45.68899" lon="5.82247">
        <ele>348</ele>
        <time>2021-07-20T06:46:34.575Z</time>
      </trkpt>
      <trkpt lat="45.68896" lon="5.82253">
        <ele>348</ele>
        <time>2021-07-20T06:46:35.576Z</time>
      </trkpt>
      <trkpt lat="45.68894" lon="5.82258">
        <ele>348</ele>
        <time>2021-07-20T06:46:36.575Z</time>
      </trkpt>
      <trkpt lat="45.68892" lon="5.82263">
        <ele>348</ele>
        <time>2021-07-20T06:46:37.576Z</time>
      </trkpt>
      <trkpt lat="45.6889" lon="5.82268">
        <ele>348</ele>
        <time>2021-07-20T06:46:38.575Z</time>
      </trkpt>
      <trkpt lat="45.68888" lon="5.82273">
        <ele>349</ele>
        <time>2021-07-20T06:46:39.576Z</time>
      </trkpt>
      <trkpt lat="45.68886" lon="5.8228">
        <ele>349</ele>
        <time>2021-07-20T06:46:40.576Z</time>
      </trkpt>
      <trkpt lat="45.68884" lon="5.82286">
        <ele>349</ele>
        <time>2021-07-20T06:46:41.575Z</time>
      </trkpt>
      <trkpt lat="45.68882" lon="5.82291">
        <ele>349</ele>
        <time>2021-07-20T06:46:42.575Z</time>
      </trkpt>
      <trkpt lat="45.68881" lon="5.82296">
        <ele>350</ele>
        <time>2021-07-20T06:46:43.576Z</time>
      </trkpt>
      <trkpt lat="45.68879" lon="5.82303">
        <ele>351</ele>
        <time>2021-07-20T06:46:44.576Z</time>
      </trkpt>
      <trkpt lat="45.68877" lon="5.82309">
        <ele>351</ele>
        <time>2021-07-20T06:46:45.576Z</time>
      </trkpt>
      <trkpt lat="45.68876" lon="5.82315">
        <ele>351</ele>
        <time>2021-07-20T06:46:46.576Z</time>
      </trkpt>
      <trkpt lat="45.68875" lon="5.82319">
        <ele>351</ele>
        <time>2021-07-20T06:46:47.576Z</time>
      </trkpt>
      <trkpt lat="45.68874" lon="5.82325">
        <ele>352</ele>
        <time>2021-07-20T06:46:48.576Z</time>
      </trkpt>
      <trkpt lat="45.68873" lon="5.82332">
        <ele>352</ele>
        <time>2021-07-20T06:46:49.576Z</time>
      </trkpt>
      <trkpt lat="45.68873" lon="5.82339">
        <ele>352</ele>
        <time>2021-07-20T06:46:50.576Z</time>
      </trkpt>
      <trkpt lat="45.68873" lon="5.82346">
        <ele>351</ele>
        <time>2021-07-20T06:46:51.575Z</time>
      </trkpt>
      <trkpt lat="45.68873" lon="5.82351">
        <ele>351</ele>
        <time>2021-07-20T06:46:52.576Z</time>
      </trkpt>
      <trkpt lat="45.68874" lon="5.82358">
        <ele>351</ele>
        <time>2021-07-20T06:46:53.576Z</time>
      </trkpt>
      <trkpt lat="45.68875" lon="5.82364">
        <ele>351</ele>
        <time>2021-07-20T06:46:54.576Z</time>
      </trkpt>
      <trkpt lat="45.68876" lon="5.8237">
        <ele>351</ele>
        <time>2021-07-20T06:46:55.576Z</time>
      </trkpt>
      <trkpt lat="45.68877" lon="5.82375">
        <ele>352</ele>
        <time>2021-07-20T06:46:56.576Z</time>
      </trkpt>
      <trkpt lat="45.68878" lon="5.82381">
        <ele>352</ele>
        <time>2021-07-20T06:46:57.576Z</time>
      </trkpt>
      <trkpt lat="45.6888" lon="5.82388">
        <ele>352</ele>
        <time>2021-07-20T06:46:58.576Z</time>
      </trkpt>
      <trkpt lat="45.68882" lon="5.82394">
        <ele>353</ele>
        <time>2021-07-20T06:46:59.576Z</time>
      </trkpt>
      <trkpt lat="45.68883" lon="5.824">
        <ele>353</ele>
        <time>2021-07-20T06:47:00.576Z</time>
      </trkpt>
      <trkpt lat="45.68884" lon="5.82406">
        <ele>353</ele>
        <time>2021-07-20T06:47:01.576Z</time>
      </trkpt>
      <trkpt lat="45.68886" lon="5.82413">
        <ele>354</ele>
        <time>2021-07-20T06:47:02.576Z</time>
      </trkpt>
      <trkpt lat="45.68888" lon="5.82419">
        <ele>354</ele>
        <time>2021-07-20T06:47:03.575Z</time>
      </trkpt>
      <trkpt lat="45.68889" lon="5.82425">
        <ele>354</ele>
        <time>2021-07-20T06:47:04.576Z</time>
      </trkpt>
      <trkpt lat="45.6889" lon="5.82429">
        <ele>354</ele>
        <time>2021-07-20T06:47:05.575Z</time>
      </trkpt>
      <trkpt lat="45.68892" lon="5.82435">
        <ele>354</ele>
        <time>2021-07-20T06:47:06.576Z</time>
      </trkpt>
      <trkpt lat="45.68894" lon="5.82441">
        <ele>354</ele>
        <time>2021-07-20T06:47:07.576Z</time>
      </trkpt>
      <trkpt lat="45.68895" lon="5.82448">
        <ele>354</ele>
        <time>2021-07-20T06:47:08.575Z</time>
      </trkpt>
      <trkpt lat="45.68897" lon="5.82454">
        <ele>355</ele>
        <time>2021-07-20T06:47:09.576Z</time>
      </trkpt>
      <trkpt lat="45.68898" lon="5.82459">
        <ele>355</ele>
        <time>2021-07-20T06:47:10.575Z</time>
      </trkpt>
      <trkpt lat="45.689" lon="5.82466">
        <ele>356</ele>
        <time>2021-07-20T06:47:11.575Z</time>
      </trkpt>
      <trkpt lat="45.68902" lon="5.82472">
        <ele>357</ele>
        <time>2021-07-20T06:47:12.576Z</time>
      </trkpt>
      <trkpt lat="45.68904" lon="5.82478">
        <ele>358</ele>
        <time>2021-07-20T06:47:13.575Z</time>
      </trkpt>
      <trkpt lat="45.68906" lon="5.82482">
        <ele>358</ele>
        <time>2021-07-20T06:47:14.576Z</time>
      </trkpt>
      <trkpt lat="45.68909" lon="5.82489">
        <ele>358</ele>
        <time>2021-07-20T06:47:15.576Z</time>
      </trkpt>
      <trkpt lat="45.68911" lon="5.82495">
        <ele>359</ele>
        <time>2021-07-20T06:47:16.576Z</time>
      </trkpt>
      <trkpt lat="45.68914" lon="5.825">
        <ele>359</ele>
        <time>2021-07-20T06:47:17.576Z</time>
      </trkpt>
      <trkpt lat="45.68916" lon="5.82504">
        <ele>360</ele>
        <time>2021-07-20T06:47:18.576Z</time>
      </trkpt>
      <trkpt lat="45.68919" lon="5.82509">
        <ele>360</ele>
        <time>2021-07-20T06:47:19.576Z</time>
      </trkpt>
      <trkpt lat="45.68923" lon="5.82515">
        <ele>361</ele>
        <time>2021-07-20T06:47:20.576Z</time>
      </trkpt>
      <trkpt lat="45.68925" lon="5.82519">
        <ele>361</ele>
        <time>2021-07-20T06:47:21.575Z</time>
      </trkpt>
      <trkpt lat="45.68929" lon="5.82523">
        <ele>361</ele>
        <time>2021-07-20T06:47:22.576Z</time>
      </trkpt>
      <trkpt lat="45.68932" lon="5.82527">
        <ele>362</ele>
        <time>2021-07-20T06:47:23.576Z</time>
      </trkpt>
      <trkpt lat="45.68936" lon="5.82532">
        <ele>362</ele>
        <time>2021-07-20T06:47:24.576Z</time>
      </trkpt>
      <trkpt lat="45.6894" lon="5.82536">
        <ele>363</ele>
        <time>2021-07-20T06:47:25.575Z</time>
      </trkpt>
      <trkpt lat="45.68944" lon="5.8254">
        <ele>363</ele>
        <time>2021-07-20T06:47:26.576Z</time>
      </trkpt>
      <trkpt lat="45.68947" lon="5.82543">
        <ele>363</ele>
        <time>2021-07-20T06:47:27.576Z</time>
      </trkpt>
      <trkpt lat="45.68951" lon="5.82546">
        <ele>363</ele>
        <time>2021-07-20T06:47:28.576Z</time>
      </trkpt>
      <trkpt lat="45.68956" lon="5.8255">
        <ele>363</ele>
        <time>2021-07-20T06:47:29.576Z</time>
      </trkpt>
      <trkpt lat="45.6896" lon="5.82553">
        <ele>363</ele>
        <time>2021-07-20T06:47:30.576Z</time>
      </trkpt>
      <trkpt lat="45.68965" lon="5.82555">
        <ele>363</ele>
        <time>2021-07-20T06:47:31.576Z</time>
      </trkpt>
      <trkpt lat="45.68968" lon="5.82557">
        <ele>363</ele>
        <time>2021-07-20T06:47:32.576Z</time>
      </trkpt>
      <trkpt lat="45.68974" lon="5.8256">
        <ele>363</ele>
        <time>2021-07-20T06:47:33.576Z</time>
      </trkpt>
      <trkpt lat="45.68979" lon="5.82563">
        <ele>363</ele>
        <time>2021-07-20T06:47:34.575Z</time>
      </trkpt>
      <trkpt lat="45.68983" lon="5.82565">
        <ele>364</ele>
        <time>2021-07-20T06:47:35.576Z</time>
      </trkpt>
      <trkpt lat="45.68987" lon="5.82567">
        <ele>364</ele>
        <time>2021-07-20T06:47:36.576Z</time>
      </trkpt>
      <trkpt lat="45.68991" lon="5.8257">
        <ele>365</ele>
        <time>2021-07-20T06:47:37.576Z</time>
      </trkpt>
      <trkpt lat="45.68996" lon="5.82572">
        <ele>365</ele>
        <time>2021-07-20T06:47:38.576Z</time>
      </trkpt>
      <trkpt lat="45.69001" lon="5.82575">
        <ele>366</ele>
        <time>2021-07-20T06:47:39.576Z</time>
      </trkpt>
      <trkpt lat="45.69005" lon="5.82577">
        <ele>366</ele>
        <time>2021-07-20T06:47:40.576Z</time>
      </trkpt>
      <trkpt lat="45.6901" lon="5.82579">
        <ele>366</ele>
        <time>2021-07-20T06:47:41.575Z</time>
      </trkpt>
      <trkpt lat="45.69015" lon="5.82582">
        <ele>366</ele>
        <time>2021-07-20T06:47:42.575Z</time>
      </trkpt>
      <trkpt lat="45.69019" lon="5.82584">
        <ele>366</ele>
        <time>2021-07-20T06:47:43.576Z</time>
      </trkpt>
      <trkpt lat="45.69024" lon="5.82586">
        <ele>366</ele>
        <time>2021-07-20T06:47:44.576Z</time>
      </trkpt>
      <trkpt lat="45.69028" lon="5.82588">
        <ele>367</ele>
        <time>2021-07-20T06:47:45.576Z</time>
      </trkpt>
      <trkpt lat="45.69033" lon="5.82591">
        <ele>367</ele>
        <time>2021-07-20T06:47:46.576Z</time>
      </trkpt>
      <trkpt lat="45.69038" lon="5.82594">
        <ele>367</ele>
        <time>2021-07-20T06:47:47.575Z</time>
      </trkpt>
      <trkpt lat="45.69043" lon="5.82597">
        <ele>368</ele>
        <time>2021-07-20T06:47:48.576Z</time>
      </trkpt>
      <trkpt lat="45.69047" lon="5.82599">
        <ele>369</ele>
        <time>2021-07-20T06:47:49.576Z</time>
      </trkpt>
      <trkpt lat="45.69051" lon="5.82601">
        <ele>370</ele>
        <time>2021-07-20T06:47:50.576Z</time>
      </trkpt>
      <trkpt lat="45.69055" lon="5.82604">
        <ele>371</ele>
        <time>2021-07-20T06:47:51.576Z</time>
      </trkpt>
      <trkpt lat="45.6906" lon="5.82607">
        <ele>372</ele>
        <time>2021-07-20T06:47:52.576Z</time>
      </trkpt>
      <trkpt lat="45.69065" lon="5.82611">
        <ele>374</ele>
        <time>2021-07-20T06:47:53.576Z</time>
      </trkpt>
      <trkpt lat="45.69069" lon="5.82614">
        <ele>375</ele>
        <time>2021-07-20T06:47:54.576Z</time>
      </trkpt>
      <trkpt lat="45.69072" lon="5.82617">
        <ele>376</ele>
        <time>2021-07-20T06:47:55.576Z</time>
      </trkpt>
      <trkpt lat="45.69077" lon="5.82622">
        <ele>377</ele>
        <time>2021-07-20T06:47:56.576Z</time>
      </trkpt>
      <trkpt lat="45.6908" lon="5.82627">
        <ele>377</ele>
        <time>2021-07-20T06:47:57.576Z</time>
      </trkpt>
      <trkpt lat="45.69083" lon="5.82632">
        <ele>377</ele>
        <time>2021-07-20T06:47:58.576Z</time>
      </trkpt>
      <trkpt lat="45.69086" lon="5.82635">
        <ele>376</ele>
        <time>2021-07-20T06:47:59.576Z</time>
      </trkpt>
      <trkpt lat="45.69089" lon="5.8264">
        <ele>376</ele>
        <time>2021-07-20T06:48:00.576Z</time>
      </trkpt>
      <trkpt lat="45.69092" lon="5.82647">
        <ele>375</ele>
        <time>2021-07-20T06:48:01.576Z</time>
      </trkpt>
      <trkpt lat="45.69095" lon="5.82652">
        <ele>375</ele>
        <time>2021-07-20T06:48:02.575Z</time>
      </trkpt>
      <trkpt lat="45.69098" lon="5.82657">
        <ele>375</ele>
        <time>2021-07-20T06:48:03.576Z</time>
      </trkpt>
      <trkpt lat="45.691" lon="5.82661">
        <ele>375</ele>
        <time>2021-07-20T06:48:04.576Z</time>
      </trkpt>
      <trkpt lat="45.69103" lon="5.82666">
        <ele>375</ele>
        <time>2021-07-20T06:48:05.576Z</time>
      </trkpt>
      <trkpt lat="45.69107" lon="5.82673">
        <ele>375</ele>
        <time>2021-07-20T06:48:06.576Z</time>
      </trkpt>
      <trkpt lat="45.6911" lon="5.82678">
        <ele>375</ele>
        <time>2021-07-20T06:48:07.576Z</time>
      </trkpt>
      <trkpt lat="45.69112" lon="5.82682">
        <ele>375</ele>
        <time>2021-07-20T06:48:08.576Z</time>
      </trkpt>
      <trkpt lat="45.69114" lon="5.82688">
        <ele>375</ele>
        <time>2021-07-20T06:48:09.576Z</time>
      </trkpt>
      <trkpt lat="45.69117" lon="5.82694">
        <ele>375</ele>
        <time>2021-07-20T06:48:10.576Z</time>
      </trkpt>
      <trkpt lat="45.6912" lon="5.827">
        <ele>375</ele>
        <time>2021-07-20T06:48:11.576Z</time>
      </trkpt>
      <trkpt lat="45.69122" lon="5.82706">
        <ele>375</ele>
        <time>2021-07-20T06:48:12.576Z</time>
      </trkpt>
      <trkpt lat="45.69124" lon="5.82711">
        <ele>374</ele>
        <time>2021-07-20T06:48:13.576Z</time>
      </trkpt>
      <trkpt lat="45.69127" lon="5.82718">
        <ele>374</ele>
        <time>2021-07-20T06:48:14.576Z</time>
      </trkpt>
      <trkpt lat="45.69129" lon="5.82724">
        <ele>374</ele>
        <time>2021-07-20T06:48:15.576Z</time>
      </trkpt>
      <trkpt lat="45.69131" lon="5.8273">
        <ele>373</ele>
        <time>2021-07-20T06:48:16.576Z</time>
      </trkpt>
      <trkpt lat="45.69133" lon="5.82735">
        <ele>372</ele>
        <time>2021-07-20T06:48:17.575Z</time>
      </trkpt>
      <trkpt lat="45.69135" lon="5.82743">
        <ele>372</ele>
        <time>2021-07-20T06:48:18.576Z</time>
      </trkpt>
      <trkpt lat="45.69137" lon="5.82749">
        <ele>372</ele>
        <time>2021-07-20T06:48:19.576Z</time>
      </trkpt>
      <trkpt lat="45.69139" lon="5.82755">
        <ele>372</ele>
        <time>2021-07-20T06:48:20.576Z</time>
      </trkpt>
      <trkpt lat="45.69141" lon="5.82762">
        <ele>372</ele>
        <time>2021-07-20T06:48:21.576Z</time>
      </trkpt>
      <trkpt lat="45.69142" lon="5.82767">
        <ele>372</ele>
        <time>2021-07-20T06:48:22.576Z</time>
      </trkpt>
      <trkpt lat="45.69144" lon="5.82774">
        <ele>372</ele>
        <time>2021-07-20T06:48:23.576Z</time>
      </trkpt>
      <trkpt lat="45.69146" lon="5.8278">
        <ele>372</ele>
        <time>2021-07-20T06:48:24.576Z</time>
      </trkpt>
      <trkpt lat="45.69147" lon="5.82785">
        <ele>373</ele>
        <time>2021-07-20T06:48:25.576Z</time>
      </trkpt>
      <trkpt lat="45.69149" lon="5.82792">
        <ele>374</ele>
        <time>2021-07-20T06:48:26.575Z</time>
      </trkpt>
      <trkpt lat="45.69151" lon="5.82799">
        <ele>374</ele>
        <time>2021-07-20T06:48:27.576Z</time>
      </trkpt>
      <trkpt lat="45.69153" lon="5.82805">
        <ele>375</ele>
        <time>2021-07-20T06:48:28.576Z</time>
      </trkpt>
      <trkpt lat="45.69155" lon="5.82812">
        <ele>376</ele>
        <time>2021-07-20T06:48:29.576Z</time>
      </trkpt>
      <trkpt lat="45.69156" lon="5.82818">
        <ele>377</ele>
        <time>2021-07-20T06:48:30.576Z</time>
      </trkpt>
      <trkpt lat="45.69158" lon="5.82823">
        <ele>378</ele>
        <time>2021-07-20T06:48:31.575Z</time>
      </trkpt>
      <trkpt lat="45.6916" lon="5.8283">
        <ele>380</ele>
        <time>2021-07-20T06:48:32.576Z</time>
      </trkpt>
      <trkpt lat="45.69162" lon="5.82836">
        <ele>381</ele>
        <time>2021-07-20T06:48:33.576Z</time>
      </trkpt>
      <trkpt lat="45.69164" lon="5.82842">
        <ele>383</ele>
        <time>2021-07-20T06:48:34.576Z</time>
      </trkpt>
      <trkpt lat="45.69165" lon="5.82847">
        <ele>384</ele>
        <time>2021-07-20T06:48:35.576Z</time>
      </trkpt>
      <trkpt lat="45.69167" lon="5.82854">
        <ele>385</ele>
        <time>2021-07-20T06:48:36.576Z</time>
      </trkpt>
      <trkpt lat="45.69169" lon="5.8286">
        <ele>387</ele>
        <time>2021-07-20T06:48:37.576Z</time>
      </trkpt>
      <trkpt lat="45.69171" lon="5.82866">
        <ele>388</ele>
        <time>2021-07-20T06:48:38.576Z</time>
      </trkpt>
      <trkpt lat="45.69173" lon="5.82871">
        <ele>389</ele>
        <time>2021-07-20T06:48:39.576Z</time>
      </trkpt>
      <trkpt lat="45.69175" lon="5.82877">
        <ele>390</ele>
        <time>2021-07-20T06:48:40.575Z</time>
      </trkpt>
      <trkpt lat="45.69178" lon="5.82883">
        <ele>392</ele>
        <time>2021-07-20T06:48:41.576Z</time>
      </trkpt>
      <trkpt lat="45.69181" lon="5.82889">
        <ele>393</ele>
        <time>2021-07-20T06:48:42.576Z</time>
      </trkpt>
      <trkpt lat="45.69185" lon="5.82894">
        <ele>394</ele>
        <time>2021-07-20T06:48:43.576Z</time>
      </trkpt>
      <trkpt lat="45.69188" lon="5.82898">
        <ele>396</ele>
        <time>2021-07-20T06:48:44.576Z</time>
      </trkpt>
      <trkpt lat="45.69191" lon="5.82903">
        <ele>398</ele>
        <time>2021-07-20T06:48:45.575Z</time>
      </trkpt>
      <trkpt lat="45.69195" lon="5.82907">
        <ele>400</ele>
        <time>2021-07-20T06:48:46.576Z</time>
      </trkpt>
      <trkpt lat="45.69199" lon="5.82911">
        <ele>402</ele>
        <time>2021-07-20T06:48:47.576Z</time>
      </trkpt>
      <trkpt lat="45.69202" lon="5.82914">
        <ele>403</ele>
        <time>2021-07-20T06:48:48.576Z</time>
      </trkpt>
      <trkpt lat="45.69206" lon="5.82918">
        <ele>405</ele>
        <time>2021-07-20T06:48:49.576Z</time>
      </trkpt>
      <trkpt lat="45.69211" lon="5.82922">
        <ele>406</ele>
        <time>2021-07-20T06:48:50.576Z</time>
      </trkpt>
      <trkpt lat="45.69216" lon="5.82925">
        <ele>408</ele>
        <time>2021-07-20T06:48:51.575Z</time>
      </trkpt>
      <trkpt lat="45.6922" lon="5.82928">
        <ele>409</ele>
        <time>2021-07-20T06:48:52.575Z</time>
      </trkpt>
      <trkpt lat="45.69224" lon="5.82929">
        <ele>411</ele>
        <time>2021-07-20T06:48:53.575Z</time>
      </trkpt>
      <trkpt lat="45.69229" lon="5.82933">
        <ele>412</ele>
        <time>2021-07-20T06:48:54.576Z</time>
      </trkpt>
      <trkpt lat="45.69233" lon="5.82934">
        <ele>414</ele>
        <time>2021-07-20T06:48:55.576Z</time>
      </trkpt>
      <trkpt lat="45.69238" lon="5.82936">
        <ele>415</ele>
        <time>2021-07-20T06:48:56.575Z</time>
      </trkpt>
      <trkpt lat="45.69242" lon="5.82937">
        <ele>417</ele>
        <time>2021-07-20T06:48:57.576Z</time>
      </trkpt>
      <trkpt lat="45.69247" lon="5.82938">
        <ele>418</ele>
        <time>2021-07-20T06:48:58.575Z</time>
      </trkpt>
      <trkpt lat="45.69253" lon="5.82939">
        <ele>419</ele>
        <time>2021-07-20T06:48:59.575Z</time>
      </trkpt>
      <trkpt lat="45.69257" lon="5.8294">
        <ele>419</ele>
        <time>2021-07-20T06:49:00.576Z</time>
      </trkpt>
      <trkpt lat="45.69262" lon="5.82941">
        <ele>420</ele>
        <time>2021-07-20T06:49:01.575Z</time>
      </trkpt>
      <trkpt lat="45.69267" lon="5.82942">
        <ele>420</ele>
        <time>2021-07-20T06:49:02.576Z</time>
      </trkpt>
      <trkpt lat="45.69271" lon="5.82942">
        <ele>420</ele>
        <time>2021-07-20T06:49:03.576Z</time>
      </trkpt>
      <trkpt lat="45.69275" lon="5.82943">
        <ele>420</ele>
        <time>2021-07-20T06:49:04.576Z</time>
      </trkpt>
      <trkpt lat="45.6928" lon="5.82944">
        <ele>420</ele>
        <time>2021-07-20T06:49:05.575Z</time>
      </trkpt>
      <trkpt lat="45.69284" lon="5.82944">
        <ele>420</ele>
        <time>2021-07-20T06:49:06.575Z</time>
      </trkpt>
      <trkpt lat="45.69289" lon="5.82945">
        <ele>419</ele>
        <time>2021-07-20T06:49:07.575Z</time>
      </trkpt>
      <trkpt lat="45.69293" lon="5.82945">
        <ele>419</ele>
        <time>2021-07-20T06:49:08.575Z</time>
      </trkpt>
      <trkpt lat="45.69298" lon="5.82946">
        <ele>419</ele>
        <time>2021-07-20T06:49:09.575Z</time>
      </trkpt>
      <trkpt lat="45.69303" lon="5.82947">
        <ele>418</ele>
        <time>2021-07-20T06:49:10.576Z</time>
      </trkpt>
      <trkpt lat="45.69307" lon="5.82948">
        <ele>417</ele>
        <time>2021-07-20T06:49:11.576Z</time>
      </trkpt>
      <trkpt lat="45.69312" lon="5.82949">
        <ele>415</ele>
        <time>2021-07-20T06:49:12.576Z</time>
      </trkpt>
      <trkpt lat="45.69317" lon="5.82951">
        <ele>413</ele>
        <time>2021-07-20T06:49:13.576Z</time>
      </trkpt>
      <trkpt lat="45.69321" lon="5.82952">
        <ele>411</ele>
        <time>2021-07-20T06:49:14.576Z</time>
      </trkpt>
      <trkpt lat="45.69324" lon="5.82954">
        <ele>410</ele>
        <time>2021-07-20T06:49:15.576Z</time>
      </trkpt>
      <trkpt lat="45.69329" lon="5.82956">
        <ele>408</ele>
        <time>2021-07-20T06:49:16.576Z</time>
      </trkpt>
      <trkpt lat="45.69333" lon="5.8296">
        <ele>407</ele>
        <time>2021-07-20T06:49:17.575Z</time>
      </trkpt>
      <trkpt lat="45.69338" lon="5.82965">
        <ele>406</ele>
        <time>2021-07-20T06:49:18.576Z</time>
      </trkpt>
      <trkpt lat="45.6934" lon="5.82969">
        <ele>405</ele>
        <time>2021-07-20T06:49:19.575Z</time>
      </trkpt>
      <trkpt lat="45.69343" lon="5.82974">
        <ele>404</ele>
        <time>2021-07-20T06:49:20.576Z</time>
      </trkpt>
      <trkpt lat="45.69346" lon="5.82981">
        <ele>403</ele>
        <time>2021-07-20T06:49:21.576Z</time>
      </trkpt>
      <trkpt lat="45.69348" lon="5.82986">
        <ele>403</ele>
        <time>2021-07-20T06:49:22.576Z</time>
      </trkpt>
      <trkpt lat="45.6935" lon="5.82992">
        <ele>402</ele>
        <time>2021-07-20T06:49:23.576Z</time>
      </trkpt>
      <trkpt lat="45.69351" lon="5.82999">
        <ele>402</ele>
        <time>2021-07-20T06:49:24.576Z</time>
      </trkpt>
      <trkpt lat="45.69352" lon="5.83006">
        <ele>401</ele>
        <time>2021-07-20T06:49:25.576Z</time>
      </trkpt>
      <trkpt lat="45.69352" lon="5.83013">
        <ele>400</ele>
        <time>2021-07-20T06:49:26.576Z</time>
      </trkpt>
      <trkpt lat="45.69351" lon="5.83019">
        <ele>399</ele>
        <time>2021-07-20T06:49:27.576Z</time>
      </trkpt>
      <trkpt lat="45.6935" lon="5.83025">
        <ele>398</ele>
        <time>2021-07-20T06:49:28.576Z</time>
      </trkpt>
      <trkpt lat="45.69348" lon="5.83031">
        <ele>398</ele>
        <time>2021-07-20T06:49:29.576Z</time>
      </trkpt>
      <trkpt lat="45.69346" lon="5.83038">
        <ele>397</ele>
        <time>2021-07-20T06:49:30.575Z</time>
      </trkpt>
      <trkpt lat="45.69344" lon="5.83045">
        <ele>396</ele>
        <time>2021-07-20T06:49:31.575Z</time>
      </trkpt>
      <trkpt lat="45.69342" lon="5.83052">
        <ele>394</ele>
        <time>2021-07-20T06:49:32.575Z</time>
      </trkpt>
      <trkpt lat="45.69341" lon="5.83057">
        <ele>393</ele>
        <time>2021-07-20T06:49:33.576Z</time>
      </trkpt>
      <trkpt lat="45.69339" lon="5.83064">
        <ele>392</ele>
        <time>2021-07-20T06:49:34.575Z</time>
      </trkpt>
      <trkpt lat="45.69337" lon="5.83072">
        <ele>391</ele>
        <time>2021-07-20T06:49:35.576Z</time>
      </trkpt>
      <trkpt lat="45.69335" lon="5.83078">
        <ele>390</ele>
        <time>2021-07-20T06:49:36.576Z</time>
      </trkpt>
      <trkpt lat="45.69333" lon="5.83083">
        <ele>389</ele>
        <time>2021-07-20T06:49:37.576Z</time>
      </trkpt>
      <trkpt lat="45.69332" lon="5.8309">
        <ele>389</ele>
        <time>2021-07-20T06:49:38.575Z</time>
      </trkpt>
      <trkpt lat="45.6933" lon="5.83098">
        <ele>388</ele>
        <time>2021-07-20T06:49:39.576Z</time>
      </trkpt>
      <trkpt lat="45.69328" lon="5.83104">
        <ele>388</ele>
        <time>2021-07-20T06:49:40.576Z</time>
      </trkpt>
      <trkpt lat="45.69327" lon="5.8311">
        <ele>387</ele>
        <time>2021-07-20T06:49:41.576Z</time>
      </trkpt>
      <trkpt lat="45.69326" lon="5.83116">
        <ele>387</ele>
        <time>2021-07-20T06:49:42.576Z</time>
      </trkpt>
      <trkpt lat="45.69324" lon="5.83124">
        <ele>387</ele>
        <time>2021-07-20T06:49:43.576Z</time>
      </trkpt>
      <trkpt lat="45.69322" lon="5.83131">
        <ele>386</ele>
        <time>2021-07-20T06:49:44.576Z</time>
      </trkpt>
      <trkpt lat="45.6932" lon="5.83138">
        <ele>386</ele>
        <time>2021-07-20T06:49:45.576Z</time>
      </trkpt>
      <trkpt lat="45.69319" lon="5.83143">
        <ele>386</ele>
        <time>2021-07-20T06:49:46.576Z</time>
      </trkpt>
      <trkpt lat="45.69317" lon="5.83151">
        <ele>386</ele>
        <time>2021-07-20T06:49:47.576Z</time>
      </trkpt>
      <trkpt lat="45.69315" lon="5.83156">
        <ele>385</ele>
        <time>2021-07-20T06:49:48.576Z</time>
      </trkpt>
      <trkpt lat="45.69314" lon="5.83162">
        <ele>385</ele>
        <time>2021-07-20T06:49:49.576Z</time>
      </trkpt>
      <trkpt lat="45.69312" lon="5.83169">
        <ele>385</ele>
        <time>2021-07-20T06:49:50.575Z</time>
      </trkpt>
      <trkpt lat="45.6931" lon="5.83175">
        <ele>384</ele>
        <time>2021-07-20T06:49:51.575Z</time>
      </trkpt>
      <trkpt lat="45.69308" lon="5.83181">
        <ele>384</ele>
        <time>2021-07-20T06:49:52.576Z</time>
      </trkpt>
      <trkpt lat="45.69305" lon="5.83186">
        <ele>384</ele>
        <time>2021-07-20T06:49:53.575Z</time>
      </trkpt>
      <trkpt lat="45.69302" lon="5.83191">
        <ele>384</ele>
        <time>2021-07-20T06:49:54.575Z</time>
      </trkpt>
      <trkpt lat="45.69298" lon="5.83195">
        <ele>384</ele>
        <time>2021-07-20T06:49:55.576Z</time>
      </trkpt>
      <trkpt lat="45.69295" lon="5.832">
        <ele>384</ele>
        <time>2021-07-20T06:49:56.576Z</time>
      </trkpt>
      <trkpt lat="45.69291" lon="5.83204">
        <ele>385</ele>
        <time>2021-07-20T06:49:57.576Z</time>
      </trkpt>
      <trkpt lat="45.69286" lon="5.83208">
        <ele>386</ele>
        <time>2021-07-20T06:49:58.575Z</time>
      </trkpt>
      <trkpt lat="45.69281" lon="5.83211">
        <ele>386</ele>
        <time>2021-07-20T06:49:59.576Z</time>
      </trkpt>
      <trkpt lat="45.69276" lon="5.83214">
        <ele>388</ele>
        <time>2021-07-20T06:50:00.576Z</time>
      </trkpt>
      <trkpt lat="45.69272" lon="5.83217">
        <ele>389</ele>
        <time>2021-07-20T06:50:01.576Z</time>
      </trkpt>
      <trkpt lat="45.69267" lon="5.8322">
        <ele>390</ele>
        <time>2021-07-20T06:50:02.575Z</time>
      </trkpt>
      <trkpt lat="45.69262" lon="5.83222">
        <ele>392</ele>
        <time>2021-07-20T06:50:03.576Z</time>
      </trkpt>
      <trkpt lat="45.69257" lon="5.83225">
        <ele>393</ele>
        <time>2021-07-20T06:50:04.576Z</time>
      </trkpt>
      <trkpt lat="45.69253" lon="5.83227">
        <ele>394</ele>
        <time>2021-07-20T06:50:05.576Z</time>
      </trkpt>
      <trkpt lat="45.69247" lon="5.83229">
        <ele>395</ele>
        <time>2021-07-20T06:50:06.576Z</time>
      </trkpt>
      <trkpt lat="45.69241" lon="5.8323">
        <ele>396</ele>
        <time>2021-07-20T06:50:07.575Z</time>
      </trkpt>
      <trkpt lat="45.69236" lon="5.83231">
        <ele>397</ele>
        <time>2021-07-20T06:50:08.576Z</time>
      </trkpt>
      <trkpt lat="45.69231" lon="5.83231">
        <ele>398</ele>
        <time>2021-07-20T06:50:09.575Z</time>
      </trkpt>
      <trkpt lat="45.69226" lon="5.83231">
        <ele>399</ele>
        <time>2021-07-20T06:50:10.576Z</time>
      </trkpt>
      <trkpt lat="45.69221" lon="5.8323">
        <ele>400</ele>
        <time>2021-07-20T06:50:11.576Z</time>
      </trkpt>
      <trkpt lat="45.69217" lon="5.8323">
        <ele>401</ele>
        <time>2021-07-20T06:50:12.576Z</time>
      </trkpt>
      <trkpt lat="45.69211" lon="5.83229">
        <ele>402</ele>
        <time>2021-07-20T06:50:13.576Z</time>
      </trkpt>
      <trkpt lat="45.69206" lon="5.83228">
        <ele>402</ele>
        <time>2021-07-20T06:50:14.576Z</time>
      </trkpt>
      <trkpt lat="45.69201" lon="5.83227">
        <ele>403</ele>
        <time>2021-07-20T06:50:15.575Z</time>
      </trkpt>
      <trkpt lat="45.69194" lon="5.83226">
        <ele>403</ele>
        <time>2021-07-20T06:50:16.575Z</time>
      </trkpt>
      <trkpt lat="45.6919" lon="5.83224">
        <ele>402</ele>
        <time>2021-07-20T06:50:17.576Z</time>
      </trkpt>
      <trkpt lat="45.69185" lon="5.83223">
        <ele>402</ele>
        <time>2021-07-20T06:50:18.575Z</time>
      </trkpt>
      <trkpt lat="45.69178" lon="5.83222">
        <ele>402</ele>
        <time>2021-07-20T06:50:19.575Z</time>
      </trkpt>
      <trkpt lat="45.69173" lon="5.83221">
        <ele>402</ele>
        <time>2021-07-20T06:50:20.575Z</time>
      </trkpt>
      <trkpt lat="45.69167" lon="5.8322">
        <ele>401</ele>
        <time>2021-07-20T06:50:21.575Z</time>
      </trkpt>
      <trkpt lat="45.69162" lon="5.83219">
        <ele>401</ele>
        <time>2021-07-20T06:50:22.576Z</time>
      </trkpt>
      <trkpt lat="45.69157" lon="5.83218">
        <ele>401</ele>
        <time>2021-07-20T06:50:23.576Z</time>
      </trkpt>
      <trkpt lat="45.69151" lon="5.83218">
        <ele>401</ele>
        <time>2021-07-20T06:50:24.576Z</time>
      </trkpt>
      <trkpt lat="45.69144" lon="5.83217">
        <ele>401</ele>
        <time>2021-07-20T06:50:25.575Z</time>
      </trkpt>
      <trkpt lat="45.69139" lon="5.83217">
        <ele>401</ele>
        <time>2021-07-20T06:50:26.576Z</time>
      </trkpt>
      <trkpt lat="45.69133" lon="5.83216">
        <ele>402</ele>
        <time>2021-07-20T06:50:27.575Z</time>
      </trkpt>
      <trkpt lat="45.69127" lon="5.83215">
        <ele>402</ele>
        <time>2021-07-20T06:50:28.576Z</time>
      </trkpt>
      <trkpt lat="45.69121" lon="5.83215">
        <ele>402</ele>
        <time>2021-07-20T06:50:29.576Z</time>
      </trkpt>
      <trkpt lat="45.69115" lon="5.83214">
        <ele>402</ele>
        <time>2021-07-20T06:50:30.576Z</time>
      </trkpt>
      <trkpt lat="45.6911" lon="5.83213">
        <ele>402</ele>
        <time>2021-07-20T06:50:31.575Z</time>
      </trkpt>
      <trkpt lat="45.69104" lon="5.83213">
        <ele>402</ele>
        <time>2021-07-20T06:50:32.576Z</time>
      </trkpt>
      <trkpt lat="45.69098" lon="5.83213">
        <ele>403</ele>
        <time>2021-07-20T06:50:33.576Z</time>
      </trkpt>
      <trkpt lat="45.69092" lon="5.83212">
        <ele>404</ele>
        <time>2021-07-20T06:50:34.576Z</time>
      </trkpt>
      <trkpt lat="45.69087" lon="5.83212">
        <ele>404</ele>
        <time>2021-07-20T06:50:35.576Z</time>
      </trkpt>
      <trkpt lat="45.69081" lon="5.83211">
        <ele>405</ele>
        <time>2021-07-20T06:50:36.575Z</time>
      </trkpt>
      <trkpt lat="45.69075" lon="5.83211">
        <ele>405</ele>
        <time>2021-07-20T06:50:37.576Z</time>
      </trkpt>
      <trkpt lat="45.6907" lon="5.8321">
        <ele>405</ele>
        <time>2021-07-20T06:50:38.575Z</time>
      </trkpt>
      <trkpt lat="45.69064" lon="5.8321">
        <ele>406</ele>
        <time>2021-07-20T06:50:39.576Z</time>
      </trkpt>
      <trkpt lat="45.69057" lon="5.83211">
        <ele>406</ele>
        <time>2021-07-20T06:50:40.576Z</time>
      </trkpt>
      <trkpt lat="45.69052" lon="5.83212">
        <ele>406</ele>
        <time>2021-07-20T06:50:41.575Z</time>
      </trkpt>
      <trkpt lat="45.69047" lon="5.83214">
        <ele>406</ele>
        <time>2021-07-20T06:50:42.576Z</time>
      </trkpt>
      <trkpt lat="45.69041" lon="5.83218">
        <ele>407</ele>
        <time>2021-07-20T06:50:43.576Z</time>
      </trkpt>
      <trkpt lat="45.69036" lon="5.83222">
        <ele>407</ele>
        <time>2021-07-20T06:50:44.576Z</time>
      </trkpt>
      <trkpt lat="45.69031" lon="5.83227">
        <ele>407</ele>
        <time>2021-07-20T06:50:45.576Z</time>
      </trkpt>
      <trkpt lat="45.69028" lon="5.83231">
        <ele>407</ele>
        <time>2021-07-20T06:50:46.576Z</time>
      </trkpt>
      <trkpt lat="45.69024" lon="5.83237">
        <ele>406</ele>
        <time>2021-07-20T06:50:47.576Z</time>
      </trkpt>
      <trkpt lat="45.69021" lon="5.83244">
        <ele>406</ele>
        <time>2021-07-20T06:50:48.576Z</time>
      </trkpt>
      <trkpt lat="45.6902" lon="5.8325">
        <ele>406</ele>
        <time>2021-07-20T06:50:49.576Z</time>
      </trkpt>
      <trkpt lat="45.69018" lon="5.83258">
        <ele>406</ele>
        <time>2021-07-20T06:50:50.576Z</time>
      </trkpt>
      <trkpt lat="45.69017" lon="5.83266">
        <ele>406</ele>
        <time>2021-07-20T06:50:51.576Z</time>
      </trkpt>
      <trkpt lat="45.69017" lon="5.83274">
        <ele>405</ele>
        <time>2021-07-20T06:50:52.576Z</time>
      </trkpt>
      <trkpt lat="45.69015" lon="5.83281">
        <ele>405</ele>
        <time>2021-07-20T06:50:53.576Z</time>
      </trkpt>
      <trkpt lat="45.69013" lon="5.83288">
        <ele>405</ele>
        <time>2021-07-20T06:50:54.575Z</time>
      </trkpt>
      <trkpt lat="45.69012" lon="5.83294">
        <ele>405</ele>
        <time>2021-07-20T06:50:55.576Z</time>
      </trkpt>
      <trkpt lat="45.69012" lon="5.83302">
        <ele>405</ele>
        <time>2021-07-20T06:50:56.576Z</time>
      </trkpt>
      <trkpt lat="45.69014" lon="5.83308">
        <ele>405</ele>
        <time>2021-07-20T06:50:57.575Z</time>
      </trkpt>
      <trkpt lat="45.69017" lon="5.83312">
        <ele>405</ele>
        <time>2021-07-20T06:50:58.575Z</time>
      </trkpt>
      <trkpt lat="45.69022" lon="5.83314">
        <ele>405</ele>
        <time>2021-07-20T06:50:59.575Z</time>
      </trkpt>
      <trkpt lat="45.69027" lon="5.83314">
        <ele>405</ele>
        <time>2021-07-20T06:51:00.576Z</time>
      </trkpt>
      <trkpt lat="45.69034" lon="5.83313">
        <ele>406</ele>
        <time>2021-07-20T06:51:01.575Z</time>
      </trkpt>
      <trkpt lat="45.6904" lon="5.83313">
        <ele>406</ele>
        <time>2021-07-20T06:51:02.576Z</time>
      </trkpt>
      <trkpt lat="45.69047" lon="5.83317">
        <ele>406</ele>
        <time>2021-07-20T06:51:03.576Z</time>
      </trkpt>
      <trkpt lat="45.69052" lon="5.8332">
        <ele>406</ele>
        <time>2021-07-20T06:51:04.576Z</time>
      </trkpt>
      <trkpt lat="45.69056" lon="5.83326">
        <ele>406</ele>
        <time>2021-07-20T06:51:05.576Z</time>
      </trkpt>
      <trkpt lat="45.6906" lon="5.83335">
        <ele>406</ele>
        <time>2021-07-20T06:51:06.575Z</time>
      </trkpt>
      <trkpt lat="45.69062" lon="5.83343">
        <ele>406</ele>
        <time>2021-07-20T06:51:07.575Z</time>
      </trkpt>
      <trkpt lat="45.69063" lon="5.8335">
        <ele>406</ele>
        <time>2021-07-20T06:51:08.576Z</time>
      </trkpt>
      <trkpt lat="45.69063" lon="5.83359">
        <ele>406</ele>
        <time>2021-07-20T06:51:09.576Z</time>
      </trkpt>
      <trkpt lat="45.69063" lon="5.83367">
        <ele>407</ele>
        <time>2021-07-20T06:51:10.576Z</time>
      </trkpt>
      <trkpt lat="45.69062" lon="5.83377">
        <ele>407</ele>
        <time>2021-07-20T06:51:11.576Z</time>
      </trkpt>
      <trkpt lat="45.69062" lon="5.83384">
        <ele>407</ele>
        <time>2021-07-20T06:51:12.576Z</time>
      </trkpt>
      <trkpt lat="45.69062" lon="5.83392">
        <ele>407</ele>
        <time>2021-07-20T06:51:13.576Z</time>
      </trkpt>
      <trkpt lat="45.69063" lon="5.83399">
        <ele>407</ele>
        <time>2021-07-20T06:51:14.576Z</time>
      </trkpt>
      <trkpt lat="45.69065" lon="5.83407">
        <ele>407</ele>
        <time>2021-07-20T06:51:15.576Z</time>
      </trkpt>
      <trkpt lat="45.69067" lon="5.83414">
        <ele>407</ele>
        <time>2021-07-20T06:51:16.575Z</time>
      </trkpt>
      <trkpt lat="45.69069" lon="5.8342">
        <ele>408</ele>
        <time>2021-07-20T06:51:17.576Z</time>
      </trkpt>
      <trkpt lat="45.69072" lon="5.83425">
        <ele>408</ele>
        <time>2021-07-20T06:51:18.576Z</time>
      </trkpt>
      <trkpt lat="45.69076" lon="5.83429">
        <ele>408</ele>
        <time>2021-07-20T06:51:19.576Z</time>
      </trkpt>
      <trkpt lat="45.69079" lon="5.83434">
        <ele>408</ele>
        <time>2021-07-20T06:51:20.576Z</time>
      </trkpt>
      <trkpt lat="45.69081" lon="5.83439">
        <ele>409</ele>
        <time>2021-07-20T06:51:21.576Z</time>
      </trkpt>
      <trkpt lat="45.69081" lon="5.83442">
        <ele>409</ele>
        <time>2021-07-20T06:51:22.576Z</time>
      </trkpt>
      <trkpt lat="45.69081" lon="5.83447">
        <ele>409</ele>
        <time>2021-07-20T06:51:23.576Z</time>
      </trkpt>
      <trkpt lat="45.68487" lon="5.85216">
        <ele>409</ele>
        <time>2021-07-20T06:54:41.576Z</time>
      </trkpt>
      <trkpt lat="45.68484" lon="5.85218">
        <ele>408</ele>
        <time>2021-07-20T06:54:42.576Z</time>
      </trkpt>
      <trkpt lat="45.68481" lon="5.85217">
        <ele>408</ele>
        <time>2021-07-20T06:54:43.575Z</time>
      </trkpt>
      <trkpt lat="45.68477" lon="5.85216">
        <ele>409</ele>
        <time>2021-07-20T06:54:44.576Z</time>
      </trkpt>
      <trkpt lat="45.68472" lon="5.85215">
        <ele>409</ele>
        <time>2021-07-20T06:54:45.576Z</time>
      </trkpt>
      <trkpt lat="45.68466" lon="5.85211">
        <ele>408</ele>
        <time>2021-07-20T06:54:46.575Z</time>
      </trkpt>
      <trkpt lat="45.68462" lon="5.85208">
        <ele>408</ele>
        <time>2021-07-20T06:54:47.576Z</time>
      </trkpt>
      <trkpt lat="45.68456" lon="5.85205">
        <ele>408</ele>
        <time>2021-07-20T06:54:48.576Z</time>
      </trkpt>
      <trkpt lat="45.68451" lon="5.85201">
        <ele>407</ele>
        <time>2021-07-20T06:54:49.576Z</time>
      </trkpt>
      <trkpt lat="45.68446" lon="5.85198">
        <ele>407</ele>
        <time>2021-07-20T06:54:50.575Z</time>
      </trkpt>
      <trkpt lat="45.68441" lon="5.85194">
        <ele>406</ele>
        <time>2021-07-20T06:54:51.576Z</time>
      </trkpt>
      <trkpt lat="45.68436" lon="5.85191">
        <ele>405</ele>
        <time>2021-07-20T06:54:52.575Z</time>
      </trkpt>
      <trkpt lat="45.68431" lon="5.85189">
        <ele>404</ele>
        <time>2021-07-20T06:54:53.576Z</time>
      </trkpt>
      <trkpt lat="45.68428" lon="5.85187">
        <ele>403</ele>
        <time>2021-07-20T06:54:54.576Z</time>
      </trkpt>
      <trkpt lat="45.68426" lon="5.85184">
        <ele>402</ele>
        <time>2021-07-20T06:54:55.576Z</time>
      </trkpt>
      <trkpt lat="45.68425" lon="5.85183">
        <ele>401</ele>
        <time>2021-07-20T06:54:56.576Z</time>
      </trkpt>
      <trkpt lat="45.68425" lon="5.85182">
        <ele>400</ele>
        <time>2021-07-20T06:54:57.576Z</time>
      </trkpt>
      <trkpt lat="45.68426" lon="5.85182">
        <ele>400</ele>
        <time>2021-07-20T06:54:58.576Z</time>
      </trkpt>
      <trkpt lat="45.68426" lon="5.85182">
        <ele>401</ele>
        <time>2021-07-20T06:54:59.576Z</time>
      </trkpt>
      <trkpt lat="45.68425" lon="5.85176">
        <ele>400</ele>
        <time>2021-07-20T06:55:00.577Z</time>
      </trkpt>
      <trkpt lat="45.68424" lon="5.85174">
        <ele>399</ele>
        <time>2021-07-20T06:55:01.576Z</time>
      </trkpt>
      <trkpt lat="45.68423" lon="5.85172">
        <ele>399</ele>
        <time>2021-07-20T06:55:02.576Z</time>
      </trkpt>
      <trkpt lat="45.68421" lon="5.85169">
        <ele>398</ele>
        <time>2021-07-20T06:55:03.576Z</time>
      </trkpt>
      <trkpt lat="45.68418" lon="5.85166">
        <ele>398</ele>
        <time>2021-07-20T06:55:04.576Z</time>
      </trkpt>
      <trkpt lat="45.68414" lon="5.85163">
        <ele>398</ele>
        <time>2021-07-20T06:55:05.577Z</time>
      </trkpt>
      <trkpt lat="45.6841" lon="5.85159">
        <ele>397</ele>
        <time>2021-07-20T06:55:06.577Z</time>
      </trkpt>
      <trkpt lat="45.68404" lon="5.85156">
        <ele>397</ele>
        <time>2021-07-20T06:55:07.576Z</time>
      </trkpt>
      <trkpt lat="45.68398" lon="5.85153">
        <ele>396</ele>
        <time>2021-07-20T06:55:08.576Z</time>
      </trkpt>
      <trkpt lat="45.6839" lon="5.85149">
        <ele>396</ele>
        <time>2021-07-20T06:55:09.577Z</time>
      </trkpt>
      <trkpt lat="45.68382" lon="5.85146">
        <ele>396</ele>
        <time>2021-07-20T06:55:10.577Z</time>
      </trkpt>
      <trkpt lat="45.68374" lon="5.85143">
        <ele>395</ele>
        <time>2021-07-20T06:55:11.576Z</time>
      </trkpt>
      <trkpt lat="45.68365" lon="5.85139">
        <ele>395</ele>
        <time>2021-07-20T06:55:12.576Z</time>
      </trkpt>
      <trkpt lat="45.68354" lon="5.85135">
        <ele>395</ele>
        <time>2021-07-20T06:55:13.577Z</time>
      </trkpt>
      <trkpt lat="45.68347" lon="5.85132">
        <ele>395</ele>
        <time>2021-07-20T06:55:14.576Z</time>
      </trkpt>
      <trkpt lat="45.68337" lon="5.85129">
        <ele>395</ele>
        <time>2021-07-20T06:55:15.576Z</time>
      </trkpt>
      <trkpt lat="45.68327" lon="5.85125">
        <ele>395</ele>
        <time>2021-07-20T06:55:16.576Z</time>
      </trkpt>
      <trkpt lat="45.68317" lon="5.85122">
        <ele>395</ele>
        <time>2021-07-20T06:55:17.576Z</time>
      </trkpt>
      <trkpt lat="45.68307" lon="5.85119">
        <ele>395</ele>
        <time>2021-07-20T06:55:18.576Z</time>
      </trkpt>
      <trkpt lat="45.68296" lon="5.85116">
        <ele>395</ele>
        <time>2021-07-20T06:55:19.577Z</time>
      </trkpt>
      <trkpt lat="45.68286" lon="5.85113">
        <ele>395</ele>
        <time>2021-07-20T06:55:20.576Z</time>
      </trkpt>
      <trkpt lat="45.68275" lon="5.85111">
        <ele>394</ele>
        <time>2021-07-20T06:55:21.576Z</time>
      </trkpt>
      <trkpt lat="45.68264" lon="5.85108">
        <ele>395</ele>
        <time>2021-07-20T06:55:22.577Z</time>
      </trkpt>
      <trkpt lat="45.68253" lon="5.85105">
        <ele>395</ele>
        <time>2021-07-20T06:55:23.577Z</time>
      </trkpt>
      <trkpt lat="45.68241" lon="5.85102">
        <ele>395</ele>
        <time>2021-07-20T06:55:24.577Z</time>
      </trkpt>
      <trkpt lat="45.68229" lon="5.85098">
        <ele>394</ele>
        <time>2021-07-20T06:55:25.576Z</time>
      </trkpt>
      <trkpt lat="45.68217" lon="5.85097">
        <ele>394</ele>
        <time>2021-07-20T06:55:26.577Z</time>
      </trkpt>
      <trkpt lat="45.68205" lon="5.85095">
        <ele>393</ele>
        <time>2021-07-20T06:55:27.577Z</time>
      </trkpt>
      <trkpt lat="45.68193" lon="5.85095">
        <ele>393</ele>
        <time>2021-07-20T06:55:28.577Z</time>
      </trkpt>
      <trkpt lat="45.68181" lon="5.85093">
        <ele>392</ele>
        <time>2021-07-20T06:55:29.577Z</time>
      </trkpt>
      <trkpt lat="45.68169" lon="5.85093">
        <ele>391</ele>
        <time>2021-07-20T06:55:30.577Z</time>
      </trkpt>
      <trkpt lat="45.68156" lon="5.85092">
        <ele>390</ele>
        <time>2021-07-20T06:55:31.576Z</time>
      </trkpt>
      <trkpt lat="45.68145" lon="5.85091">
        <ele>390</ele>
        <time>2021-07-20T06:55:32.576Z</time>
      </trkpt>
      <trkpt lat="45.68133" lon="5.85091">
        <ele>389</ele>
        <time>2021-07-20T06:55:33.576Z</time>
      </trkpt>
      <trkpt lat="45.68121" lon="5.85092">
        <ele>388</ele>
        <time>2021-07-20T06:55:34.576Z</time>
      </trkpt>
      <trkpt lat="45.68109" lon="5.85093">
        <ele>388</ele>
        <time>2021-07-20T06:55:35.576Z</time>
      </trkpt>
      <trkpt lat="45.68097" lon="5.85095">
        <ele>387</ele>
        <time>2021-07-20T06:55:36.577Z</time>
      </trkpt>
      <trkpt lat="45.68084" lon="5.85096">
        <ele>386</ele>
        <time>2021-07-20T06:55:37.576Z</time>
      </trkpt>
      <trkpt lat="45.68072" lon="5.85097">
        <ele>385</ele>
        <time>2021-07-20T06:55:38.577Z</time>
      </trkpt>
      <trkpt lat="45.6806" lon="5.85099">
        <ele>385</ele>
        <time>2021-07-20T06:55:39.577Z</time>
      </trkpt>
      <trkpt lat="45.68047" lon="5.85101">
        <ele>384</ele>
        <time>2021-07-20T06:55:40.577Z</time>
      </trkpt>
      <trkpt lat="45.68035" lon="5.85104">
        <ele>384</ele>
        <time>2021-07-20T06:55:41.577Z</time>
      </trkpt>
      <trkpt lat="45.68022" lon="5.85107">
        <ele>384</ele>
        <time>2021-07-20T06:55:42.577Z</time>
      </trkpt>
      <trkpt lat="45.6801" lon="5.85108">
        <ele>384</ele>
        <time>2021-07-20T06:55:43.577Z</time>
      </trkpt>
      <trkpt lat="45.67998" lon="5.85109">
        <ele>383</ele>
        <time>2021-07-20T06:55:44.577Z</time>
      </trkpt>
      <trkpt lat="45.67985" lon="5.85106">
        <ele>383</ele>
        <time>2021-07-20T06:55:45.576Z</time>
      </trkpt>
      <trkpt lat="45.67974" lon="5.85101">
        <ele>383</ele>
        <time>2021-07-20T06:55:46.577Z</time>
      </trkpt>
      <trkpt lat="45.67963" lon="5.85094">
        <ele>382</ele>
        <time>2021-07-20T06:55:47.577Z</time>
      </trkpt>
      <trkpt lat="45.67952" lon="5.85085">
        <ele>381</ele>
        <time>2021-07-20T06:55:48.577Z</time>
      </trkpt>
      <trkpt lat="45.67941" lon="5.85077">
        <ele>381</ele>
        <time>2021-07-20T06:55:49.576Z</time>
      </trkpt>
      <trkpt lat="45.6793" lon="5.85069">
        <ele>381</ele>
        <time>2021-07-20T06:55:50.577Z</time>
      </trkpt>
      <trkpt lat="45.67919" lon="5.85061">
        <ele>381</ele>
        <time>2021-07-20T06:55:51.577Z</time>
      </trkpt>
      <trkpt lat="45.67908" lon="5.85055">
        <ele>380</ele>
        <time>2021-07-20T06:55:52.576Z</time>
      </trkpt>
      <trkpt lat="45.67896" lon="5.85051">
        <ele>380</ele>
        <time>2021-07-20T06:55:53.577Z</time>
      </trkpt>
      <trkpt lat="45.67884" lon="5.85048">
        <ele>379</ele>
        <time>2021-07-20T06:55:54.577Z</time>
      </trkpt>
      <trkpt lat="45.67872" lon="5.85046">
        <ele>378</ele>
        <time>2021-07-20T06:55:55.577Z</time>
      </trkpt>
      <trkpt lat="45.6786" lon="5.85046">
        <ele>377</ele>
        <time>2021-07-20T06:55:56.577Z</time>
      </trkpt>
      <trkpt lat="45.67847" lon="5.85046">
        <ele>377</ele>
        <time>2021-07-20T06:55:57.577Z</time>
      </trkpt>
      <trkpt lat="45.67835" lon="5.85046">
        <ele>377</ele>
        <time>2021-07-20T06:55:58.577Z</time>
      </trkpt>
      <trkpt lat="45.67823" lon="5.85047">
        <ele>376</ele>
        <time>2021-07-20T06:55:59.576Z</time>
      </trkpt>
      <trkpt lat="45.67811" lon="5.85048">
        <ele>376</ele>
        <time>2021-07-20T06:56:00.577Z</time>
      </trkpt>
      <trkpt lat="45.67798" lon="5.85049">
        <ele>376</ele>
        <time>2021-07-20T06:56:01.577Z</time>
      </trkpt>
      <trkpt lat="45.67787" lon="5.8505">
        <ele>375</ele>
        <time>2021-07-20T06:56:02.577Z</time>
      </trkpt>
      <trkpt lat="45.67774" lon="5.85052">
        <ele>375</ele>
        <time>2021-07-20T06:56:03.576Z</time>
      </trkpt>
      <trkpt lat="45.67762" lon="5.85056">
        <ele>374</ele>
        <time>2021-07-20T06:56:04.576Z</time>
      </trkpt>
      <trkpt lat="45.6775" lon="5.8506">
        <ele>374</ele>
        <time>2021-07-20T06:56:05.577Z</time>
      </trkpt>
      <trkpt lat="45.67739" lon="5.85068">
        <ele>374</ele>
        <time>2021-07-20T06:56:06.576Z</time>
      </trkpt>
      <trkpt lat="45.67728" lon="5.85076">
        <ele>374</ele>
        <time>2021-07-20T06:56:07.577Z</time>
      </trkpt>
      <trkpt lat="45.67718" lon="5.8509">
        <ele>374</ele>
        <time>2021-07-20T06:56:08.577Z</time>
      </trkpt>
      <trkpt lat="45.67709" lon="5.85102">
        <ele>373</ele>
        <time>2021-07-20T06:56:09.576Z</time>
      </trkpt>
      <trkpt lat="45.677" lon="5.85113">
        <ele>373</ele>
        <time>2021-07-20T06:56:10.577Z</time>
      </trkpt>
      <trkpt lat="45.67693" lon="5.85126">
        <ele>373</ele>
        <time>2021-07-20T06:56:11.577Z</time>
      </trkpt>
      <trkpt lat="45.67688" lon="5.85138">
        <ele>372</ele>
        <time>2021-07-20T06:56:12.577Z</time>
      </trkpt>
      <trkpt lat="45.67684" lon="5.85146">
        <ele>372</ele>
        <time>2021-07-20T06:56:13.576Z</time>
      </trkpt>
      <trkpt lat="45.67681" lon="5.85154">
        <ele>371</ele>
        <time>2021-07-20T06:56:14.577Z</time>
      </trkpt>
      <trkpt lat="45.67679" lon="5.85158">
        <ele>370</ele>
        <time>2021-07-20T06:56:15.577Z</time>
      </trkpt>
      <trkpt lat="45.67676" lon="5.85161">
        <ele>369</ele>
        <time>2021-07-20T06:56:16.576Z</time>
      </trkpt>
      <trkpt lat="45.67673" lon="5.85162">
        <ele>369</ele>
        <time>2021-07-20T06:56:17.576Z</time>
      </trkpt>
      <trkpt lat="45.6767" lon="5.85164">
        <ele>368</ele>
        <time>2021-07-20T06:56:18.576Z</time>
      </trkpt>
      <trkpt lat="45.67667" lon="5.85166">
        <ele>367</ele>
        <time>2021-07-20T06:56:19.576Z</time>
      </trkpt>
      <trkpt lat="45.67664" lon="5.8517">
        <ele>367</ele>
        <time>2021-07-20T06:56:20.577Z</time>
      </trkpt>
      <trkpt lat="45.67662" lon="5.85176">
        <ele>366</ele>
        <time>2021-07-20T06:56:21.576Z</time>
      </trkpt>
      <trkpt lat="45.6766" lon="5.85184">
        <ele>365</ele>
        <time>2021-07-20T06:56:22.576Z</time>
      </trkpt>
      <trkpt lat="45.67659" lon="5.85194">
        <ele>364</ele>
        <time>2021-07-20T06:56:23.577Z</time>
      </trkpt>
      <trkpt lat="45.67657" lon="5.85204">
        <ele>364</ele>
        <time>2021-07-20T06:56:24.577Z</time>
      </trkpt>
      <trkpt lat="45.67653" lon="5.85215">
        <ele>363</ele>
        <time>2021-07-20T06:56:25.577Z</time>
      </trkpt>
      <trkpt lat="45.67648" lon="5.85225">
        <ele>362</ele>
        <time>2021-07-20T06:56:26.576Z</time>
      </trkpt>
      <trkpt lat="45.67641" lon="5.85235">
        <ele>362</ele>
        <time>2021-07-20T06:56:27.577Z</time>
      </trkpt>
      <trkpt lat="45.67634" lon="5.85243">
        <ele>362</ele>
        <time>2021-07-20T06:56:28.577Z</time>
      </trkpt>
      <trkpt lat="45.67625" lon="5.85252">
        <ele>361</ele>
        <time>2021-07-20T06:56:29.577Z</time>
      </trkpt>
      <trkpt lat="45.67616" lon="5.8526">
        <ele>360</ele>
        <time>2021-07-20T06:56:30.577Z</time>
      </trkpt>
      <trkpt lat="45.67606" lon="5.85267">
        <ele>360</ele>
        <time>2021-07-20T06:56:31.577Z</time>
      </trkpt>
      <trkpt lat="45.67596" lon="5.85273">
        <ele>359</ele>
        <time>2021-07-20T06:56:32.576Z</time>
      </trkpt>
      <trkpt lat="45.67586" lon="5.8528">
        <ele>359</ele>
        <time>2021-07-20T06:56:33.576Z</time>
      </trkpt>
      <trkpt lat="45.67575" lon="5.85286">
        <ele>358</ele>
        <time>2021-07-20T06:56:34.576Z</time>
      </trkpt>
      <trkpt lat="45.67565" lon="5.85293">
        <ele>358</ele>
        <time>2021-07-20T06:56:35.576Z</time>
      </trkpt>
      <trkpt lat="45.67554" lon="5.853">
        <ele>358</ele>
        <time>2021-07-20T06:56:36.576Z</time>
      </trkpt>
      <trkpt lat="45.67544" lon="5.85307">
        <ele>357</ele>
        <time>2021-07-20T06:56:37.576Z</time>
      </trkpt>
      <trkpt lat="45.67533" lon="5.85313">
        <ele>357</ele>
        <time>2021-07-20T06:56:38.577Z</time>
      </trkpt>
      <trkpt lat="45.67522" lon="5.85317">
        <ele>356</ele>
        <time>2021-07-20T06:56:39.576Z</time>
      </trkpt>
      <trkpt lat="45.67511" lon="5.85321">
        <ele>356</ele>
        <time>2021-07-20T06:56:40.577Z</time>
      </trkpt>
      <trkpt lat="45.675" lon="5.85323">
        <ele>355</ele>
        <time>2021-07-20T06:56:41.576Z</time>
      </trkpt>
      <trkpt lat="45.67489" lon="5.85323">
        <ele>355</ele>
        <time>2021-07-20T06:56:42.577Z</time>
      </trkpt>
      <trkpt lat="45.67478" lon="5.85323">
        <ele>355</ele>
        <time>2021-07-20T06:56:43.577Z</time>
      </trkpt>
      <trkpt lat="45.67466" lon="5.85322">
        <ele>354</ele>
        <time>2021-07-20T06:56:44.577Z</time>
      </trkpt>
      <trkpt lat="45.67455" lon="5.85322">
        <ele>354</ele>
        <time>2021-07-20T06:56:45.577Z</time>
      </trkpt>
      <trkpt lat="45.67444" lon="5.85322">
        <ele>353</ele>
        <time>2021-07-20T06:56:46.577Z</time>
      </trkpt>
      <trkpt lat="45.67432" lon="5.85322">
        <ele>352</ele>
        <time>2021-07-20T06:56:47.577Z</time>
      </trkpt>
      <trkpt lat="45.6742" lon="5.85323">
        <ele>352</ele>
        <time>2021-07-20T06:56:48.576Z</time>
      </trkpt>
      <trkpt lat="45.67409" lon="5.85325">
        <ele>351</ele>
        <time>2021-07-20T06:56:49.577Z</time>
      </trkpt>
      <trkpt lat="45.67397" lon="5.85329">
        <ele>351</ele>
        <time>2021-07-20T06:56:50.577Z</time>
      </trkpt>
      <trkpt lat="45.67386" lon="5.85335">
        <ele>350</ele>
        <time>2021-07-20T06:56:51.577Z</time>
      </trkpt>
      <trkpt lat="45.67375" lon="5.85342">
        <ele>350</ele>
        <time>2021-07-20T06:56:52.577Z</time>
      </trkpt>
      <trkpt lat="45.67364" lon="5.8535">
        <ele>350</ele>
        <time>2021-07-20T06:56:53.577Z</time>
      </trkpt>
      <trkpt lat="45.67353" lon="5.85357">
        <ele>349</ele>
        <time>2021-07-20T06:56:54.576Z</time>
      </trkpt>
      <trkpt lat="45.67343" lon="5.85365">
        <ele>349</ele>
        <time>2021-07-20T06:56:55.577Z</time>
      </trkpt>
      <trkpt lat="45.67332" lon="5.85372">
        <ele>348</ele>
        <time>2021-07-20T06:56:56.576Z</time>
      </trkpt>
      <trkpt lat="45.67322" lon="5.8538">
        <ele>348</ele>
        <time>2021-07-20T06:56:57.577Z</time>
      </trkpt>
      <trkpt lat="45.67311" lon="5.85387">
        <ele>347</ele>
        <time>2021-07-20T06:56:58.576Z</time>
      </trkpt>
      <trkpt lat="45.673" lon="5.85394">
        <ele>347</ele>
        <time>2021-07-20T06:56:59.577Z</time>
      </trkpt>
      <trkpt lat="45.67289" lon="5.854">
        <ele>347</ele>
        <time>2021-07-20T06:57:00.577Z</time>
      </trkpt>
      <trkpt lat="45.67277" lon="5.85405">
        <ele>346</ele>
        <time>2021-07-20T06:57:01.577Z</time>
      </trkpt>
      <trkpt lat="45.67265" lon="5.85408">
        <ele>345</ele>
        <time>2021-07-20T06:57:02.576Z</time>
      </trkpt>
      <trkpt lat="45.67252" lon="5.85411">
        <ele>345</ele>
        <time>2021-07-20T06:57:03.576Z</time>
      </trkpt>
      <trkpt lat="45.6724" lon="5.85413">
        <ele>345</ele>
        <time>2021-07-20T06:57:04.577Z</time>
      </trkpt>
      <trkpt lat="45.67227" lon="5.85416">
        <ele>345</ele>
        <time>2021-07-20T06:57:05.577Z</time>
      </trkpt>
      <trkpt lat="45.67214" lon="5.85419">
        <ele>345</ele>
        <time>2021-07-20T06:57:06.577Z</time>
      </trkpt>
      <trkpt lat="45.67201" lon="5.85424">
        <ele>346</ele>
        <time>2021-07-20T06:57:07.576Z</time>
      </trkpt>
      <trkpt lat="45.67188" lon="5.8543">
        <ele>346</ele>
        <time>2021-07-20T06:57:08.577Z</time>
      </trkpt>
      <trkpt lat="45.67176" lon="5.85436">
        <ele>346</ele>
        <time>2021-07-20T06:57:09.576Z</time>
      </trkpt>
      <trkpt lat="45.67163" lon="5.85443">
        <ele>347</ele>
        <time>2021-07-20T06:57:10.577Z</time>
      </trkpt>
      <trkpt lat="45.6715" lon="5.85449">
        <ele>347</ele>
        <time>2021-07-20T06:57:11.576Z</time>
      </trkpt>
      <trkpt lat="45.67137" lon="5.85455">
        <ele>347</ele>
        <time>2021-07-20T06:57:12.577Z</time>
      </trkpt>
      <trkpt lat="45.67124" lon="5.8546">
        <ele>347</ele>
        <time>2021-07-20T06:57:13.576Z</time>
      </trkpt>
      <trkpt lat="45.6711" lon="5.85464">
        <ele>347</ele>
        <time>2021-07-20T06:57:14.577Z</time>
      </trkpt>
      <trkpt lat="45.67096" lon="5.85465">
        <ele>347</ele>
        <time>2021-07-20T06:57:15.576Z</time>
      </trkpt>
      <trkpt lat="45.67083" lon="5.85465">
        <ele>347</ele>
        <time>2021-07-20T06:57:16.577Z</time>
      </trkpt>
      <trkpt lat="45.67069" lon="5.85464">
        <ele>346</ele>
        <time>2021-07-20T06:57:17.577Z</time>
      </trkpt>
      <trkpt lat="45.67056" lon="5.85463">
        <ele>346</ele>
        <time>2021-07-20T06:57:18.576Z</time>
      </trkpt>
      <trkpt lat="45.67043" lon="5.85464">
        <ele>345</ele>
        <time>2021-07-20T06:57:19.577Z</time>
      </trkpt>
      <trkpt lat="45.6703" lon="5.85468">
        <ele>344</ele>
        <time>2021-07-20T06:57:20.577Z</time>
      </trkpt>
      <trkpt lat="45.67017" lon="5.85472">
        <ele>344</ele>
        <time>2021-07-20T06:57:21.576Z</time>
      </trkpt>
      <trkpt lat="45.67005" lon="5.85476">
        <ele>344</ele>
        <time>2021-07-20T06:57:22.576Z</time>
      </trkpt>
      <trkpt lat="45.66992" lon="5.8548">
        <ele>343</ele>
        <time>2021-07-20T06:57:23.576Z</time>
      </trkpt>
      <trkpt lat="45.6698" lon="5.85482">
        <ele>342</ele>
        <time>2021-07-20T06:57:24.577Z</time>
      </trkpt>
      <trkpt lat="45.66967" lon="5.85483">
        <ele>340</ele>
        <time>2021-07-20T06:57:25.577Z</time>
      </trkpt>
      <trkpt lat="45.66954" lon="5.85484">
        <ele>339</ele>
        <time>2021-07-20T06:57:26.577Z</time>
      </trkpt>
      <trkpt lat="45.66941" lon="5.85484">
        <ele>338</ele>
        <time>2021-07-20T06:57:27.577Z</time>
      </trkpt>
      <trkpt lat="45.66928" lon="5.85483">
        <ele>337</ele>
        <time>2021-07-20T06:57:28.576Z</time>
      </trkpt>
      <trkpt lat="45.66915" lon="5.85483">
        <ele>336</ele>
        <time>2021-07-20T06:57:29.576Z</time>
      </trkpt>
      <trkpt lat="45.66902" lon="5.85483">
        <ele>336</ele>
        <time>2021-07-20T06:57:30.577Z</time>
      </trkpt>
      <trkpt lat="45.66889" lon="5.85483">
        <ele>335</ele>
        <time>2021-07-20T06:57:31.577Z</time>
      </trkpt>
      <trkpt lat="45.66876" lon="5.85482">
        <ele>335</ele>
        <time>2021-07-20T06:57:32.577Z</time>
      </trkpt>
      <trkpt lat="45.66863" lon="5.8548">
        <ele>334</ele>
        <time>2021-07-20T06:57:33.576Z</time>
      </trkpt>
      <trkpt lat="45.66849" lon="5.85477">
        <ele>334</ele>
        <time>2021-07-20T06:57:34.576Z</time>
      </trkpt>
      <trkpt lat="45.66836" lon="5.85472">
        <ele>334</ele>
        <time>2021-07-20T06:57:35.577Z</time>
      </trkpt>
      <trkpt lat="45.66823" lon="5.85468">
        <ele>334</ele>
        <time>2021-07-20T06:57:36.576Z</time>
      </trkpt>
      <trkpt lat="45.6681" lon="5.85463">
        <ele>334</ele>
        <time>2021-07-20T06:57:37.577Z</time>
      </trkpt>
      <trkpt lat="45.66797" lon="5.85458">
        <ele>333</ele>
        <time>2021-07-20T06:57:38.576Z</time>
      </trkpt>
      <trkpt lat="45.66783" lon="5.85453">
        <ele>333</ele>
        <time>2021-07-20T06:57:39.576Z</time>
      </trkpt>
      <trkpt lat="45.6677" lon="5.85448">
        <ele>333</ele>
        <time>2021-07-20T06:57:40.576Z</time>
      </trkpt>
      <trkpt lat="45.66757" lon="5.85443">
        <ele>332</ele>
        <time>2021-07-20T06:57:41.577Z</time>
      </trkpt>
      <trkpt lat="45.66743" lon="5.85438">
        <ele>332</ele>
        <time>2021-07-20T06:57:42.577Z</time>
      </trkpt>
      <trkpt lat="45.6673" lon="5.85434">
        <ele>332</ele>
        <time>2021-07-20T06:57:43.577Z</time>
      </trkpt>
      <trkpt lat="45.66717" lon="5.85429">
        <ele>332</ele>
        <time>2021-07-20T06:57:44.576Z</time>
      </trkpt>
      <trkpt lat="45.66703" lon="5.85425">
        <ele>331</ele>
        <time>2021-07-20T06:57:45.576Z</time>
      </trkpt>
      <trkpt lat="45.6669" lon="5.8542">
        <ele>331</ele>
        <time>2021-07-20T06:57:46.577Z</time>
      </trkpt>
      <trkpt lat="45.66677" lon="5.85416">
        <ele>330</ele>
        <time>2021-07-20T06:57:47.576Z</time>
      </trkpt>
      <trkpt lat="45.66665" lon="5.85411">
        <ele>330</ele>
        <time>2021-07-20T06:57:48.576Z</time>
      </trkpt>
      <trkpt lat="45.66652" lon="5.85406">
        <ele>328</ele>
        <time>2021-07-20T06:57:49.577Z</time>
      </trkpt>
      <trkpt lat="45.6664" lon="5.85402">
        <ele>327</ele>
        <time>2021-07-20T06:57:50.576Z</time>
      </trkpt>
      <trkpt lat="45.66627" lon="5.85398">
        <ele>326</ele>
        <time>2021-07-20T06:57:51.576Z</time>
      </trkpt>
      <trkpt lat="45.66615" lon="5.85395">
        <ele>325</ele>
        <time>2021-07-20T06:57:52.577Z</time>
      </trkpt>
      <trkpt lat="45.66603" lon="5.85393">
        <ele>324</ele>
        <time>2021-07-20T06:57:53.577Z</time>
      </trkpt>
      <trkpt lat="45.6659" lon="5.85391">
        <ele>323</ele>
        <time>2021-07-20T06:57:54.577Z</time>
      </trkpt>
      <trkpt lat="45.66578" lon="5.8539">
        <ele>322</ele>
        <time>2021-07-20T06:57:55.577Z</time>
      </trkpt>
      <trkpt lat="45.66565" lon="5.85389">
        <ele>321</ele>
        <time>2021-07-20T06:57:56.577Z</time>
      </trkpt>
      <trkpt lat="45.66553" lon="5.85389">
        <ele>320</ele>
        <time>2021-07-20T06:57:57.577Z</time>
      </trkpt>
      <trkpt lat="45.66541" lon="5.85389">
        <ele>319</ele>
        <time>2021-07-20T06:57:58.576Z</time>
      </trkpt>
      <trkpt lat="45.66528" lon="5.85389">
        <ele>318</ele>
        <time>2021-07-20T06:57:59.577Z</time>
      </trkpt>
      <trkpt lat="45.66516" lon="5.85392">
        <ele>318</ele>
        <time>2021-07-20T06:58:00.577Z</time>
      </trkpt>
      <trkpt lat="45.66504" lon="5.85395">
        <ele>317</ele>
        <time>2021-07-20T06:58:01.576Z</time>
      </trkpt>
      <trkpt lat="45.66492" lon="5.85398">
        <ele>317</ele>
        <time>2021-07-20T06:58:02.576Z</time>
      </trkpt>
      <trkpt lat="45.6648" lon="5.85402">
        <ele>317</ele>
        <time>2021-07-20T06:58:03.576Z</time>
      </trkpt>
      <trkpt lat="45.66468" lon="5.85407">
        <ele>317</ele>
        <time>2021-07-20T06:58:04.576Z</time>
      </trkpt>
      <trkpt lat="45.66456" lon="5.85411">
        <ele>317</ele>
        <time>2021-07-20T06:58:05.577Z</time>
      </trkpt>
      <trkpt lat="45.66444" lon="5.85415">
        <ele>316</ele>
        <time>2021-07-20T06:58:06.577Z</time>
      </trkpt>
      <trkpt lat="45.66432" lon="5.8542">
        <ele>316</ele>
        <time>2021-07-20T06:58:07.577Z</time>
      </trkpt>
      <trkpt lat="45.66421" lon="5.85424">
        <ele>316</ele>
        <time>2021-07-20T06:58:08.576Z</time>
      </trkpt>
      <trkpt lat="45.66409" lon="5.85429">
        <ele>316</ele>
        <time>2021-07-20T06:58:09.576Z</time>
      </trkpt>
      <trkpt lat="45.66397" lon="5.85433">
        <ele>317</ele>
        <time>2021-07-20T06:58:10.576Z</time>
      </trkpt>
      <trkpt lat="45.66385" lon="5.85438">
        <ele>316</ele>
        <time>2021-07-20T06:58:11.577Z</time>
      </trkpt>
      <trkpt lat="45.66374" lon="5.85442">
        <ele>316</ele>
        <time>2021-07-20T06:58:12.576Z</time>
      </trkpt>
      <trkpt lat="45.66362" lon="5.85447">
        <ele>314</ele>
        <time>2021-07-20T06:58:13.576Z</time>
      </trkpt>
      <trkpt lat="45.66351" lon="5.85452">
        <ele>314</ele>
        <time>2021-07-20T06:58:14.577Z</time>
      </trkpt>
      <trkpt lat="45.6634" lon="5.85458">
        <ele>313</ele>
        <time>2021-07-20T06:58:15.577Z</time>
      </trkpt>
      <trkpt lat="45.66328" lon="5.85466">
        <ele>312</ele>
        <time>2021-07-20T06:58:16.577Z</time>
      </trkpt>
      <trkpt lat="45.66317" lon="5.85472">
        <ele>312</ele>
        <time>2021-07-20T06:58:17.577Z</time>
      </trkpt>
      <trkpt lat="45.66306" lon="5.8548">
        <ele>311</ele>
        <time>2021-07-20T06:58:18.576Z</time>
      </trkpt>
      <trkpt lat="45.66296" lon="5.85489">
        <ele>311</ele>
        <time>2021-07-20T06:58:19.577Z</time>
      </trkpt>
      <trkpt lat="45.66287" lon="5.85499">
        <ele>310</ele>
        <time>2021-07-20T06:58:20.577Z</time>
      </trkpt>
      <trkpt lat="45.66277" lon="5.8551">
        <ele>310</ele>
        <time>2021-07-20T06:58:21.576Z</time>
      </trkpt>
      <trkpt lat="45.66268" lon="5.85521">
        <ele>310</ele>
        <time>2021-07-20T06:58:22.576Z</time>
      </trkpt>
      <trkpt lat="45.66259" lon="5.85533">
        <ele>309</ele>
        <time>2021-07-20T06:58:23.576Z</time>
      </trkpt>
      <trkpt lat="45.66249" lon="5.85544">
        <ele>309</ele>
        <time>2021-07-20T06:58:24.576Z</time>
      </trkpt>
      <trkpt lat="45.6624" lon="5.85555">
        <ele>309</ele>
        <time>2021-07-20T06:58:25.576Z</time>
      </trkpt>
      <trkpt lat="45.6623" lon="5.85565">
        <ele>309</ele>
        <time>2021-07-20T06:58:26.577Z</time>
      </trkpt>
      <trkpt lat="45.66219" lon="5.85574">
        <ele>308</ele>
        <time>2021-07-20T06:58:27.577Z</time>
      </trkpt>
      <trkpt lat="45.66208" lon="5.85582">
        <ele>308</ele>
        <time>2021-07-20T06:58:28.576Z</time>
      </trkpt>
      <trkpt lat="45.66197" lon="5.85588">
        <ele>307</ele>
        <time>2021-07-20T06:58:29.577Z</time>
      </trkpt>
      <trkpt lat="45.66185" lon="5.85594">
        <ele>306</ele>
        <time>2021-07-20T06:58:30.577Z</time>
      </trkpt>
      <trkpt lat="45.66173" lon="5.85598">
        <ele>305</ele>
        <time>2021-07-20T06:58:31.577Z</time>
      </trkpt>
      <trkpt lat="45.66161" lon="5.85601">
        <ele>304</ele>
        <time>2021-07-20T06:58:32.576Z</time>
      </trkpt>
      <trkpt lat="45.66148" lon="5.85602">
        <ele>304</ele>
        <time>2021-07-20T06:58:33.577Z</time>
      </trkpt>
      <trkpt lat="45.66135" lon="5.85603">
        <ele>304</ele>
        <time>2021-07-20T06:58:34.576Z</time>
      </trkpt>
      <trkpt lat="45.66122" lon="5.85602">
        <ele>304</ele>
        <time>2021-07-20T06:58:35.576Z</time>
      </trkpt>
      <trkpt lat="45.6611" lon="5.856">
        <ele>304</ele>
        <time>2021-07-20T06:58:36.576Z</time>
      </trkpt>
      <trkpt lat="45.66097" lon="5.85597">
        <ele>304</ele>
        <time>2021-07-20T06:58:37.576Z</time>
      </trkpt>
      <trkpt lat="45.66084" lon="5.85593">
        <ele>304</ele>
        <time>2021-07-20T06:58:38.576Z</time>
      </trkpt>
      <trkpt lat="45.66072" lon="5.85587">
        <ele>303</ele>
        <time>2021-07-20T06:58:39.576Z</time>
      </trkpt>
      <trkpt lat="45.6606" lon="5.85581">
        <ele>303</ele>
        <time>2021-07-20T06:58:40.577Z</time>
      </trkpt>
      <trkpt lat="45.66048" lon="5.85574">
        <ele>303</ele>
        <time>2021-07-20T06:58:41.577Z</time>
      </trkpt>
      <trkpt lat="45.66035" lon="5.85567">
        <ele>303</ele>
        <time>2021-07-20T06:58:42.577Z</time>
      </trkpt>
      <trkpt lat="45.66023" lon="5.85561">
        <ele>302</ele>
        <time>2021-07-20T06:58:43.577Z</time>
      </trkpt>
      <trkpt lat="45.6601" lon="5.85556">
        <ele>302</ele>
        <time>2021-07-20T06:58:44.576Z</time>
      </trkpt>
      <trkpt lat="45.65997" lon="5.85552">
        <ele>302</ele>
        <time>2021-07-20T06:58:45.576Z</time>
      </trkpt>
      <trkpt lat="45.65984" lon="5.8555">
        <ele>302</ele>
        <time>2021-07-20T06:58:46.576Z</time>
      </trkpt>
      <trkpt lat="45.6597" lon="5.85548">
        <ele>301</ele>
        <time>2021-07-20T06:58:47.577Z</time>
      </trkpt>
      <trkpt lat="45.65957" lon="5.85546">
        <ele>300</ele>
        <time>2021-07-20T06:58:48.577Z</time>
      </trkpt>
      <trkpt lat="45.65943" lon="5.85547">
        <ele>300</ele>
        <time>2021-07-20T06:58:49.577Z</time>
      </trkpt>
      <trkpt lat="45.6593" lon="5.85549">
        <ele>299</ele>
        <time>2021-07-20T06:58:50.576Z</time>
      </trkpt>
      <trkpt lat="45.65917" lon="5.85552">
        <ele>298</ele>
        <time>2021-07-20T06:58:51.577Z</time>
      </trkpt>
      <trkpt lat="45.65904" lon="5.85557">
        <ele>297</ele>
        <time>2021-07-20T06:58:52.576Z</time>
      </trkpt>
      <trkpt lat="45.65891" lon="5.85562">
        <ele>296</ele>
        <time>2021-07-20T06:58:53.577Z</time>
      </trkpt>
      <trkpt lat="45.65879" lon="5.85568">
        <ele>294</ele>
        <time>2021-07-20T06:58:54.577Z</time>
      </trkpt>
      <trkpt lat="45.65866" lon="5.85573">
        <ele>292</ele>
        <time>2021-07-20T06:58:55.577Z</time>
      </trkpt>
      <trkpt lat="45.65853" lon="5.85579">
        <ele>291</ele>
        <time>2021-07-20T06:58:56.577Z</time>
      </trkpt>
      <trkpt lat="45.65841" lon="5.85585">
        <ele>289</ele>
        <time>2021-07-20T06:58:57.577Z</time>
      </trkpt>
      <trkpt lat="45.65828" lon="5.85591">
        <ele>288</ele>
        <time>2021-07-20T06:58:58.577Z</time>
      </trkpt>
      <trkpt lat="45.65815" lon="5.85597">
        <ele>287</ele>
        <time>2021-07-20T06:58:59.576Z</time>
      </trkpt>
      <trkpt lat="45.65801" lon="5.85603">
        <ele>286</ele>
        <time>2021-07-20T06:59:00.577Z</time>
      </trkpt>
      <trkpt lat="45.65788" lon="5.85609">
        <ele>284</ele>
        <time>2021-07-20T06:59:01.576Z</time>
      </trkpt>
      <trkpt lat="45.65775" lon="5.85616">
        <ele>283</ele>
        <time>2021-07-20T06:59:02.577Z</time>
      </trkpt>
      <trkpt lat="45.65761" lon="5.85622">
        <ele>283</ele>
        <time>2021-07-20T06:59:03.576Z</time>
      </trkpt>
      <trkpt lat="45.65748" lon="5.85628">
        <ele>282</ele>
        <time>2021-07-20T06:59:04.577Z</time>
      </trkpt>
      <trkpt lat="45.65735" lon="5.85635">
        <ele>281</ele>
        <time>2021-07-20T06:59:05.576Z</time>
      </trkpt>
      <trkpt lat="45.65721" lon="5.85644">
        <ele>280</ele>
        <time>2021-07-20T06:59:06.576Z</time>
      </trkpt>
      <trkpt lat="45.65708" lon="5.85653">
        <ele>280</ele>
        <time>2021-07-20T06:59:07.577Z</time>
      </trkpt>
      <trkpt lat="45.65696" lon="5.85662">
        <ele>279</ele>
        <time>2021-07-20T06:59:08.577Z</time>
      </trkpt>
      <trkpt lat="45.65684" lon="5.85672">
        <ele>278</ele>
        <time>2021-07-20T06:59:09.577Z</time>
      </trkpt>
      <trkpt lat="45.65673" lon="5.85682">
        <ele>277</ele>
        <time>2021-07-20T06:59:10.576Z</time>
      </trkpt>
      <trkpt lat="45.65662" lon="5.85692">
        <ele>276</ele>
        <time>2021-07-20T06:59:11.577Z</time>
      </trkpt>
      <trkpt lat="45.65651" lon="5.85702">
        <ele>275</ele>
        <time>2021-07-20T06:59:12.576Z</time>
      </trkpt>
      <trkpt lat="45.65639" lon="5.85713">
        <ele>274</ele>
        <time>2021-07-20T06:59:13.577Z</time>
      </trkpt>
      <trkpt lat="45.65628" lon="5.85724">
        <ele>273</ele>
        <time>2021-07-20T06:59:14.577Z</time>
      </trkpt>
      <trkpt lat="45.65617" lon="5.85734">
        <ele>272</ele>
        <time>2021-07-20T06:59:15.576Z</time>
      </trkpt>
      <trkpt lat="45.65606" lon="5.85744">
        <ele>271</ele>
        <time>2021-07-20T06:59:16.577Z</time>
      </trkpt>
      <trkpt lat="45.65595" lon="5.85754">
        <ele>270</ele>
        <time>2021-07-20T06:59:17.577Z</time>
      </trkpt>
      <trkpt lat="45.65585" lon="5.85764">
        <ele>268</ele>
        <time>2021-07-20T06:59:18.576Z</time>
      </trkpt>
      <trkpt lat="45.65574" lon="5.85774">
        <ele>267</ele>
        <time>2021-07-20T06:59:19.577Z</time>
      </trkpt>
      <trkpt lat="45.65564" lon="5.85784">
        <ele>266</ele>
        <time>2021-07-20T06:59:20.577Z</time>
      </trkpt>
      <trkpt lat="45.65553" lon="5.85793">
        <ele>264</ele>
        <time>2021-07-20T06:59:21.576Z</time>
      </trkpt>
      <trkpt lat="45.65543" lon="5.85803">
        <ele>263</ele>
        <time>2021-07-20T06:59:22.576Z</time>
      </trkpt>
      <trkpt lat="45.65533" lon="5.85812">
        <ele>262</ele>
        <time>2021-07-20T06:59:23.577Z</time>
      </trkpt>
      <trkpt lat="45.65522" lon="5.85822">
        <ele>261</ele>
        <time>2021-07-20T06:59:24.577Z</time>
      </trkpt>
      <trkpt lat="45.65512" lon="5.85831">
        <ele>261</ele>
        <time>2021-07-20T06:59:25.576Z</time>
      </trkpt>
      <trkpt lat="45.65502" lon="5.8584">
        <ele>260</ele>
        <time>2021-07-20T06:59:26.576Z</time>
      </trkpt>
      <trkpt lat="45.65492" lon="5.85848">
        <ele>260</ele>
        <time>2021-07-20T06:59:27.576Z</time>
      </trkpt>
      <trkpt lat="45.65483" lon="5.85855">
        <ele>260</ele>
        <time>2021-07-20T06:59:28.577Z</time>
      </trkpt>
      <trkpt lat="45.65474" lon="5.8586">
        <ele>260</ele>
        <time>2021-07-20T06:59:29.576Z</time>
      </trkpt>
      <trkpt lat="45.65466" lon="5.85863">
        <ele>260</ele>
        <time>2021-07-20T06:59:30.576Z</time>
      </trkpt>
      <trkpt lat="45.65458" lon="5.85865">
        <ele>260</ele>
        <time>2021-07-20T06:59:31.577Z</time>
      </trkpt>
      <trkpt lat="45.65451" lon="5.85867">
        <ele>259</ele>
        <time>2021-07-20T06:59:32.577Z</time>
      </trkpt>
      <trkpt lat="45.65445" lon="5.85868">
        <ele>259</ele>
        <time>2021-07-20T06:59:33.576Z</time>
      </trkpt>
      <trkpt lat="45.65439" lon="5.8587">
        <ele>258</ele>
        <time>2021-07-20T06:59:34.577Z</time>
      </trkpt>
      <trkpt lat="45.65434" lon="5.85871">
        <ele>258</ele>
        <time>2021-07-20T06:59:35.577Z</time>
      </trkpt>
      <trkpt lat="45.65429" lon="5.85872">
        <ele>257</ele>
        <time>2021-07-20T06:59:36.577Z</time>
      </trkpt>
      <trkpt lat="45.65424" lon="5.85873">
        <ele>256</ele>
        <time>2021-07-20T06:59:37.577Z</time>
      </trkpt>
      <trkpt lat="45.65418" lon="5.85874">
        <ele>255</ele>
        <time>2021-07-20T06:59:38.577Z</time>
      </trkpt>
      <trkpt lat="45.65413" lon="5.85876">
        <ele>255</ele>
        <time>2021-07-20T06:59:39.576Z</time>
      </trkpt>
      <trkpt lat="45.65407" lon="5.85878">
        <ele>255</ele>
        <time>2021-07-20T06:59:40.576Z</time>
      </trkpt>
      <trkpt lat="45.65401" lon="5.85879">
        <ele>254</ele>
        <time>2021-07-20T06:59:41.576Z</time>
      </trkpt>
      <trkpt lat="45.65395" lon="5.85881">
        <ele>254</ele>
        <time>2021-07-20T06:59:42.577Z</time>
      </trkpt>
      <trkpt lat="45.65388" lon="5.85883">
        <ele>254</ele>
        <time>2021-07-20T06:59:43.577Z</time>
      </trkpt>
      <trkpt lat="45.65382" lon="5.85884">
        <ele>254</ele>
        <time>2021-07-20T06:59:44.577Z</time>
      </trkpt>
      <trkpt lat="45.65375" lon="5.85885">
        <ele>254</ele>
        <time>2021-07-20T06:59:45.576Z</time>
      </trkpt>
      <trkpt lat="45.65368" lon="5.85887">
        <ele>254</ele>
        <time>2021-07-20T06:59:46.576Z</time>
      </trkpt>
      <trkpt lat="45.65361" lon="5.85889">
        <ele>254</ele>
        <time>2021-07-20T06:59:47.577Z</time>
      </trkpt>
      <trkpt lat="45.65353" lon="5.85891">
        <ele>253</ele>
        <time>2021-07-20T06:59:48.576Z</time>
      </trkpt>
      <trkpt lat="45.65345" lon="5.85893">
        <ele>253</ele>
        <time>2021-07-20T06:59:49.577Z</time>
      </trkpt>
      <trkpt lat="45.65336" lon="5.85895">
        <ele>252</ele>
        <time>2021-07-20T06:59:50.576Z</time>
      </trkpt>
      <trkpt lat="45.65327" lon="5.85897">
        <ele>252</ele>
        <time>2021-07-20T06:59:51.576Z</time>
      </trkpt>
      <trkpt lat="45.65318" lon="5.85899">
        <ele>251</ele>
        <time>2021-07-20T06:59:52.577Z</time>
      </trkpt>
      <trkpt lat="45.65309" lon="5.85901">
        <ele>251</ele>
        <time>2021-07-20T06:59:53.576Z</time>
      </trkpt>
      <trkpt lat="45.653" lon="5.85904">
        <ele>250</ele>
        <time>2021-07-20T06:59:54.577Z</time>
      </trkpt>
      <trkpt lat="45.6529" lon="5.85909">
        <ele>250</ele>
        <time>2021-07-20T06:59:55.577Z</time>
      </trkpt>
      <trkpt lat="45.65281" lon="5.85914">
        <ele>250</ele>
        <time>2021-07-20T06:59:56.577Z</time>
      </trkpt>
      <trkpt lat="45.65272" lon="5.85919">
        <ele>250</ele>
        <time>2021-07-20T06:59:57.576Z</time>
      </trkpt>
      <trkpt lat="45.65263" lon="5.85925">
        <ele>250</ele>
        <time>2021-07-20T06:59:58.576Z</time>
      </trkpt>
      <trkpt lat="45.65254" lon="5.85932">
        <ele>250</ele>
        <time>2021-07-20T06:59:59.577Z</time>
      </trkpt>
      <trkpt lat="45.65246" lon="5.85939">
        <ele>250</ele>
        <time>2021-07-20T07:00:00.576Z</time>
      </trkpt>
      <trkpt lat="45.65238" lon="5.85948">
        <ele>250</ele>
        <time>2021-07-20T07:00:01.577Z</time>
      </trkpt>
      <trkpt lat="45.6523" lon="5.85957">
        <ele>251</ele>
        <time>2021-07-20T07:00:02.577Z</time>
      </trkpt>
      <trkpt lat="45.65223" lon="5.85967">
        <ele>252</ele>
        <time>2021-07-20T07:00:03.577Z</time>
      </trkpt>
      <trkpt lat="45.65216" lon="5.85978">
        <ele>252</ele>
        <time>2021-07-20T07:00:04.576Z</time>
      </trkpt>
      <trkpt lat="45.6521" lon="5.85989">
        <ele>252</ele>
        <time>2021-07-20T07:00:05.576Z</time>
      </trkpt>
      <trkpt lat="45.65204" lon="5.86001">
        <ele>253</ele>
        <time>2021-07-20T07:00:06.577Z</time>
      </trkpt>
      <trkpt lat="45.65199" lon="5.86014">
        <ele>253</ele>
        <time>2021-07-20T07:00:07.577Z</time>
      </trkpt>
      <trkpt lat="45.65194" lon="5.86026">
        <ele>253</ele>
        <time>2021-07-20T07:00:08.577Z</time>
      </trkpt>
      <trkpt lat="45.65189" lon="5.86039">
        <ele>253</ele>
        <time>2021-07-20T07:00:09.577Z</time>
      </trkpt>
      <trkpt lat="45.65185" lon="5.86053">
        <ele>252</ele>
        <time>2021-07-20T07:00:10.577Z</time>
      </trkpt>
      <trkpt lat="45.65181" lon="5.86067">
        <ele>252</ele>
        <time>2021-07-20T07:00:11.577Z</time>
      </trkpt>
      <trkpt lat="45.65177" lon="5.86081">
        <ele>251</ele>
        <time>2021-07-20T07:00:12.577Z</time>
      </trkpt>
      <trkpt lat="45.65174" lon="5.86094">
        <ele>250</ele>
        <time>2021-07-20T07:00:13.576Z</time>
      </trkpt>
      <trkpt lat="45.6517" lon="5.86109">
        <ele>250</ele>
        <time>2021-07-20T07:00:14.577Z</time>
      </trkpt>
      <trkpt lat="45.65166" lon="5.86122">
        <ele>249</ele>
        <time>2021-07-20T07:00:15.576Z</time>
      </trkpt>
      <trkpt lat="45.65163" lon="5.86136">
        <ele>248</ele>
        <time>2021-07-20T07:00:16.577Z</time>
      </trkpt>
      <trkpt lat="45.6516" lon="5.8615">
        <ele>247</ele>
        <time>2021-07-20T07:00:17.577Z</time>
      </trkpt>
      <trkpt lat="45.65156" lon="5.86164">
        <ele>247</ele>
        <time>2021-07-20T07:00:18.577Z</time>
      </trkpt>
      <trkpt lat="45.65153" lon="5.86179">
        <ele>246</ele>
        <time>2021-07-20T07:00:19.577Z</time>
      </trkpt>
      <trkpt lat="45.65149" lon="5.86193">
        <ele>246</ele>
        <time>2021-07-20T07:00:20.577Z</time>
      </trkpt>
      <trkpt lat="45.65146" lon="5.86207">
        <ele>245</ele>
        <time>2021-07-20T07:00:21.577Z</time>
      </trkpt>
      <trkpt lat="45.65142" lon="5.86221">
        <ele>245</ele>
        <time>2021-07-20T07:00:22.576Z</time>
      </trkpt>
      <trkpt lat="45.65139" lon="5.86235">
        <ele>245</ele>
        <time>2021-07-20T07:00:23.577Z</time>
      </trkpt>
      <trkpt lat="45.65135" lon="5.86249">
        <ele>245</ele>
        <time>2021-07-20T07:00:24.577Z</time>
      </trkpt>
      <trkpt lat="45.65131" lon="5.86263">
        <ele>245</ele>
        <time>2021-07-20T07:00:25.576Z</time>
      </trkpt>
      <trkpt lat="45.65126" lon="5.86277">
        <ele>244</ele>
        <time>2021-07-20T07:00:26.577Z</time>
      </trkpt>
      <trkpt lat="45.65122" lon="5.86291">
        <ele>244</ele>
        <time>2021-07-20T07:00:27.576Z</time>
      </trkpt>
      <trkpt lat="45.65117" lon="5.86305">
        <ele>244</ele>
        <time>2021-07-20T07:00:28.576Z</time>
      </trkpt>
      <trkpt lat="45.6511" lon="5.86321">
        <ele>244</ele>
        <time>2021-07-20T07:00:29.577Z</time>
      </trkpt>
      <trkpt lat="45.65103" lon="5.86334">
        <ele>243</ele>
        <time>2021-07-20T07:00:30.576Z</time>
      </trkpt>
      <trkpt lat="45.65098" lon="5.86344">
        <ele>243</ele>
        <time>2021-07-20T07:00:31.577Z</time>
      </trkpt>
      <trkpt lat="45.65092" lon="5.86356">
        <ele>242</ele>
        <time>2021-07-20T07:00:32.576Z</time>
      </trkpt>
      <trkpt lat="45.65085" lon="5.86368">
        <ele>241</ele>
        <time>2021-07-20T07:00:33.576Z</time>
      </trkpt>
      <trkpt lat="45.65077" lon="5.86379">
        <ele>241</ele>
        <time>2021-07-20T07:00:34.576Z</time>
      </trkpt>
      <trkpt lat="45.65068" lon="5.86393">
        <ele>241</ele>
        <time>2021-07-20T07:00:35.576Z</time>
      </trkpt>
      <trkpt lat="45.65061" lon="5.86401">
        <ele>241</ele>
        <time>2021-07-20T07:00:36.576Z</time>
      </trkpt>
      <trkpt lat="45.65053" lon="5.86411">
        <ele>240</ele>
        <time>2021-07-20T07:00:37.576Z</time>
      </trkpt>
      <trkpt lat="45.65042" lon="5.86422">
        <ele>240</ele>
        <time>2021-07-20T07:00:38.577Z</time>
      </trkpt>
      <trkpt lat="45.65033" lon="5.86431">
        <ele>240</ele>
        <time>2021-07-20T07:00:39.577Z</time>
      </trkpt>
      <trkpt lat="45.65026" lon="5.86437">
        <ele>240</ele>
        <time>2021-07-20T07:00:40.577Z</time>
      </trkpt>
      <trkpt lat="45.65016" lon="5.86445">
        <ele>240</ele>
        <time>2021-07-20T07:00:41.577Z</time>
      </trkpt>
      <trkpt lat="45.65007" lon="5.86452">
        <ele>241</ele>
        <time>2021-07-20T07:00:42.577Z</time>
      </trkpt>
      <trkpt lat="45.64997" lon="5.86459">
        <ele>241</ele>
        <time>2021-07-20T07:00:43.576Z</time>
      </trkpt>
      <trkpt lat="45.64987" lon="5.86465">
        <ele>242</ele>
        <time>2021-07-20T07:00:44.577Z</time>
      </trkpt>
      <trkpt lat="45.64977" lon="5.8647">
        <ele>243</ele>
        <time>2021-07-20T07:00:45.577Z</time>
      </trkpt>
      <trkpt lat="45.64967" lon="5.86475">
        <ele>243</ele>
        <time>2021-07-20T07:00:46.577Z</time>
      </trkpt>
      <trkpt lat="45.64957" lon="5.86479">
        <ele>244</ele>
        <time>2021-07-20T07:00:47.577Z</time>
      </trkpt>
      <trkpt lat="45.64947" lon="5.86483">
        <ele>244</ele>
        <time>2021-07-20T07:00:48.577Z</time>
      </trkpt>
      <trkpt lat="45.64937" lon="5.86486">
        <ele>245</ele>
        <time>2021-07-20T07:00:49.577Z</time>
      </trkpt>
      <trkpt lat="45.64926" lon="5.86488">
        <ele>245</ele>
        <time>2021-07-20T07:00:50.576Z</time>
      </trkpt>
      <trkpt lat="45.64916" lon="5.86489">
        <ele>245</ele>
        <time>2021-07-20T07:00:51.577Z</time>
      </trkpt>
      <trkpt lat="45.64906" lon="5.8649">
        <ele>245</ele>
        <time>2021-07-20T07:00:52.576Z</time>
      </trkpt>
      <trkpt lat="45.64896" lon="5.8649">
        <ele>245</ele>
        <time>2021-07-20T07:00:53.577Z</time>
      </trkpt>
      <trkpt lat="45.64886" lon="5.8649">
        <ele>245</ele>
        <time>2021-07-20T07:00:54.577Z</time>
      </trkpt>
      <trkpt lat="45.64877" lon="5.86488">
        <ele>245</ele>
        <time>2021-07-20T07:00:55.577Z</time>
      </trkpt>
      <trkpt lat="45.64867" lon="5.86487">
        <ele>245</ele>
        <time>2021-07-20T07:00:56.576Z</time>
      </trkpt>
      <trkpt lat="45.64857" lon="5.86485">
        <ele>245</ele>
        <time>2021-07-20T07:00:57.577Z</time>
      </trkpt>
      <trkpt lat="45.64848" lon="5.86483">
        <ele>245</ele>
        <time>2021-07-20T07:00:58.577Z</time>
      </trkpt>
      <trkpt lat="45.64839" lon="5.86481">
        <ele>244</ele>
        <time>2021-07-20T07:00:59.576Z</time>
      </trkpt>
      <trkpt lat="45.64829" lon="5.86478">
        <ele>244</ele>
        <time>2021-07-20T07:01:00.577Z</time>
      </trkpt>
      <trkpt lat="45.6482" lon="5.86476">
        <ele>244</ele>
        <time>2021-07-20T07:01:01.577Z</time>
      </trkpt>
      <trkpt lat="45.64811" lon="5.86474">
        <ele>244</ele>
        <time>2021-07-20T07:01:02.577Z</time>
      </trkpt>
      <trkpt lat="45.64802" lon="5.86471">
        <ele>243</ele>
        <time>2021-07-20T07:01:03.576Z</time>
      </trkpt>
      <trkpt lat="45.64793" lon="5.86469">
        <ele>243</ele>
        <time>2021-07-20T07:01:04.576Z</time>
      </trkpt>
      <trkpt lat="45.64783" lon="5.86467">
        <ele>243</ele>
        <time>2021-07-20T07:01:05.576Z</time>
      </trkpt>
      <trkpt lat="45.64774" lon="5.86465">
        <ele>243</ele>
        <time>2021-07-20T07:01:06.576Z</time>
      </trkpt>
      <trkpt lat="45.64765" lon="5.86463">
        <ele>243</ele>
        <time>2021-07-20T07:01:07.576Z</time>
      </trkpt>
      <trkpt lat="45.64756" lon="5.8646">
        <ele>243</ele>
        <time>2021-07-20T07:01:08.577Z</time>
      </trkpt>
      <trkpt lat="45.64746" lon="5.86459">
        <ele>243</ele>
        <time>2021-07-20T07:01:09.577Z</time>
      </trkpt>
      <trkpt lat="45.64737" lon="5.86457">
        <ele>244</ele>
        <time>2021-07-20T07:01:10.576Z</time>
      </trkpt>
      <trkpt lat="45.64727" lon="5.86455">
        <ele>244</ele>
        <time>2021-07-20T07:01:11.577Z</time>
      </trkpt>
      <trkpt lat="45.64718" lon="5.86453">
        <ele>245</ele>
        <time>2021-07-20T07:01:12.577Z</time>
      </trkpt>
      <trkpt lat="45.64708" lon="5.8645">
        <ele>245</ele>
        <time>2021-07-20T07:01:13.577Z</time>
      </trkpt>
      <trkpt lat="45.64699" lon="5.86448">
        <ele>245</ele>
        <time>2021-07-20T07:01:14.577Z</time>
      </trkpt>
      <trkpt lat="45.6469" lon="5.86445">
        <ele>246</ele>
        <time>2021-07-20T07:01:15.576Z</time>
      </trkpt>
      <trkpt lat="45.6468" lon="5.86443">
        <ele>246</ele>
        <time>2021-07-20T07:01:16.576Z</time>
      </trkpt>
      <trkpt lat="45.64671" lon="5.8644">
        <ele>246</ele>
        <time>2021-07-20T07:01:17.577Z</time>
      </trkpt>
      <trkpt lat="45.64662" lon="5.86437">
        <ele>245</ele>
        <time>2021-07-20T07:01:18.577Z</time>
      </trkpt>
      <trkpt lat="45.64652" lon="5.86434">
        <ele>245</ele>
        <time>2021-07-20T07:01:19.577Z</time>
      </trkpt>
      <trkpt lat="45.64643" lon="5.86431">
        <ele>245</ele>
        <time>2021-07-20T07:01:20.576Z</time>
      </trkpt>
      <trkpt lat="45.64633" lon="5.86428">
        <ele>245</ele>
        <time>2021-07-20T07:01:21.577Z</time>
      </trkpt>
      <trkpt lat="45.64623" lon="5.86426">
        <ele>245</ele>
        <time>2021-07-20T07:01:22.577Z</time>
      </trkpt>
      <trkpt lat="45.64614" lon="5.86423">
        <ele>245</ele>
        <time>2021-07-20T07:01:23.577Z</time>
      </trkpt>
      <trkpt lat="45.64604" lon="5.86421">
        <ele>245</ele>
        <time>2021-07-20T07:01:24.577Z</time>
      </trkpt>
      <trkpt lat="45.64594" lon="5.86418">
        <ele>245</ele>
        <time>2021-07-20T07:01:25.577Z</time>
      </trkpt>
      <trkpt lat="45.64584" lon="5.86416">
        <ele>244</ele>
        <time>2021-07-20T07:01:26.576Z</time>
      </trkpt>
      <trkpt lat="45.64575" lon="5.86413">
        <ele>244</ele>
        <time>2021-07-20T07:01:27.576Z</time>
      </trkpt>
      <trkpt lat="45.64565" lon="5.86411">
        <ele>244</ele>
        <time>2021-07-20T07:01:28.577Z</time>
      </trkpt>
      <trkpt lat="45.64555" lon="5.86408">
        <ele>243</ele>
        <time>2021-07-20T07:01:29.577Z</time>
      </trkpt>
      <trkpt lat="45.64545" lon="5.86405">
        <ele>243</ele>
        <time>2021-07-20T07:01:30.576Z</time>
      </trkpt>
      <trkpt lat="45.64536" lon="5.86402">
        <ele>242</ele>
        <time>2021-07-20T07:01:31.577Z</time>
      </trkpt>
      <trkpt lat="45.64526" lon="5.864">
        <ele>242</ele>
        <time>2021-07-20T07:01:32.577Z</time>
      </trkpt>
      <trkpt lat="45.64516" lon="5.86397">
        <ele>242</ele>
        <time>2021-07-20T07:01:33.577Z</time>
      </trkpt>
      <trkpt lat="45.64506" lon="5.86394">
        <ele>242</ele>
        <time>2021-07-20T07:01:34.576Z</time>
      </trkpt>
      <trkpt lat="45.64497" lon="5.86391">
        <ele>241</ele>
        <time>2021-07-20T07:01:35.577Z</time>
      </trkpt>
      <trkpt lat="45.64487" lon="5.86388">
        <ele>241</ele>
        <time>2021-07-20T07:01:36.576Z</time>
      </trkpt>
      <trkpt lat="45.64478" lon="5.86385">
        <ele>242</ele>
        <time>2021-07-20T07:01:37.576Z</time>
      </trkpt>
      <trkpt lat="45.64468" lon="5.86383">
        <ele>242</ele>
        <time>2021-07-20T07:01:38.576Z</time>
      </trkpt>
      <trkpt lat="45.64459" lon="5.86381">
        <ele>242</ele>
        <time>2021-07-20T07:01:39.577Z</time>
      </trkpt>
      <trkpt lat="45.6445" lon="5.86378">
        <ele>242</ele>
        <time>2021-07-20T07:01:40.576Z</time>
      </trkpt>
      <trkpt lat="45.64441" lon="5.86375">
        <ele>243</ele>
        <time>2021-07-20T07:01:41.577Z</time>
      </trkpt>
      <trkpt lat="45.64432" lon="5.86372">
        <ele>243</ele>
        <time>2021-07-20T07:01:42.576Z</time>
      </trkpt>
      <trkpt lat="45.64423" lon="5.8637">
        <ele>243</ele>
        <time>2021-07-20T07:01:43.577Z</time>
      </trkpt>
      <trkpt lat="45.64414" lon="5.86367">
        <ele>243</ele>
        <time>2021-07-20T07:01:44.576Z</time>
      </trkpt>
      <trkpt lat="45.64405" lon="5.86365">
        <ele>243</ele>
        <time>2021-07-20T07:01:45.577Z</time>
      </trkpt>
      <trkpt lat="45.64396" lon="5.86363">
        <ele>243</ele>
        <time>2021-07-20T07:01:46.576Z</time>
      </trkpt>
      <trkpt lat="45.64388" lon="5.8636">
        <ele>243</ele>
        <time>2021-07-20T07:01:47.576Z</time>
      </trkpt>
      <trkpt lat="45.6438" lon="5.86358">
        <ele>244</ele>
        <time>2021-07-20T07:01:48.576Z</time>
      </trkpt>
      <trkpt lat="45.64372" lon="5.86356">
        <ele>244</ele>
        <time>2021-07-20T07:01:49.577Z</time>
      </trkpt>
      <trkpt lat="45.64365" lon="5.86353">
        <ele>244</ele>
        <time>2021-07-20T07:01:50.577Z</time>
      </trkpt>
      <trkpt lat="45.64358" lon="5.8635">
        <ele>244</ele>
        <time>2021-07-20T07:01:51.577Z</time>
      </trkpt>
      <trkpt lat="45.64351" lon="5.86348">
        <ele>244</ele>
        <time>2021-07-20T07:01:52.576Z</time>
      </trkpt>
      <trkpt lat="45.64345" lon="5.86347">
        <ele>243</ele>
        <time>2021-07-20T07:01:53.576Z</time>
      </trkpt>
      <trkpt lat="45.64339" lon="5.86346">
        <ele>243</ele>
        <time>2021-07-20T07:01:54.577Z</time>
      </trkpt>
      <trkpt lat="45.64333" lon="5.86346">
        <ele>242</ele>
        <time>2021-07-20T07:01:55.577Z</time>
      </trkpt>
      <trkpt lat="45.64328" lon="5.86346">
        <ele>243</ele>
        <time>2021-07-20T07:01:56.577Z</time>
      </trkpt>
      <trkpt lat="45.64323" lon="5.86347">
        <ele>243</ele>
        <time>2021-07-20T07:01:57.577Z</time>
      </trkpt>
      <trkpt lat="45.64318" lon="5.86347">
        <ele>243</ele>
        <time>2021-07-20T07:01:58.577Z</time>
      </trkpt>
      <trkpt lat="45.64313" lon="5.86344">
        <ele>243</ele>
        <time>2021-07-20T07:01:59.577Z</time>
      </trkpt>
      <trkpt lat="45.64308" lon="5.8634">
        <ele>243</ele>
        <time>2021-07-20T07:02:00.577Z</time>
      </trkpt>
      <trkpt lat="45.64303" lon="5.86335">
        <ele>243</ele>
        <time>2021-07-20T07:02:01.577Z</time>
      </trkpt>
      <trkpt lat="45.64299" lon="5.8633">
        <ele>244</ele>
        <time>2021-07-20T07:02:02.577Z</time>
      </trkpt>
      <trkpt lat="45.64294" lon="5.86325">
        <ele>244</ele>
        <time>2021-07-20T07:02:03.576Z</time>
      </trkpt>
      <trkpt lat="45.64288" lon="5.86322">
        <ele>244</ele>
        <time>2021-07-20T07:02:04.576Z</time>
      </trkpt>
      <trkpt lat="45.64282" lon="5.86321">
        <ele>245</ele>
        <time>2021-07-20T07:02:05.576Z</time>
      </trkpt>
      <trkpt lat="45.64276" lon="5.86322">
        <ele>245</ele>
        <time>2021-07-20T07:02:06.577Z</time>
      </trkpt>
      <trkpt lat="45.6427" lon="5.86325">
        <ele>245</ele>
        <time>2021-07-20T07:02:07.576Z</time>
      </trkpt>
      <trkpt lat="45.64266" lon="5.86331">
        <ele>244</ele>
        <time>2021-07-20T07:02:08.576Z</time>
      </trkpt>
      <trkpt lat="45.64262" lon="5.86338">
        <ele>244</ele>
        <time>2021-07-20T07:02:09.576Z</time>
      </trkpt>
      <trkpt lat="45.6426" lon="5.86347">
        <ele>243</ele>
        <time>2021-07-20T07:02:10.577Z</time>
      </trkpt>
      <trkpt lat="45.6426" lon="5.86356">
        <ele>243</ele>
        <time>2021-07-20T07:02:11.577Z</time>
      </trkpt>
      <trkpt lat="45.64262" lon="5.86366">
        <ele>243</ele>
        <time>2021-07-20T07:02:12.576Z</time>
      </trkpt>
      <trkpt lat="45.64266" lon="5.86377">
        <ele>243</ele>
        <time>2021-07-20T07:02:13.576Z</time>
      </trkpt>
      <trkpt lat="45.64273" lon="5.86387">
        <ele>243</ele>
        <time>2021-07-20T07:02:14.576Z</time>
      </trkpt>
      <trkpt lat="45.64278" lon="5.86395">
        <ele>243</ele>
        <time>2021-07-20T07:02:15.577Z</time>
      </trkpt>
      <trkpt lat="45.64284" lon="5.86404">
        <ele>243</ele>
        <time>2021-07-20T07:02:16.576Z</time>
      </trkpt>
      <trkpt lat="45.64291" lon="5.86412">
        <ele>243</ele>
        <time>2021-07-20T07:02:17.576Z</time>
      </trkpt>
      <trkpt lat="45.64296" lon="5.8642">
        <ele>243</ele>
        <time>2021-07-20T07:02:18.576Z</time>
      </trkpt>
      <trkpt lat="45.64303" lon="5.86427">
        <ele>244</ele>
        <time>2021-07-20T07:02:19.576Z</time>
      </trkpt>
      <trkpt lat="45.6431" lon="5.86433">
        <ele>244</ele>
        <time>2021-07-20T07:02:20.577Z</time>
      </trkpt>
      <trkpt lat="45.64316" lon="5.86439">
        <ele>244</ele>
        <time>2021-07-20T07:02:21.577Z</time>
      </trkpt>
      <trkpt lat="45.64323" lon="5.86445">
        <ele>244</ele>
        <time>2021-07-20T07:02:22.577Z</time>
      </trkpt>
      <trkpt lat="45.6433" lon="5.86451">
        <ele>245</ele>
        <time>2021-07-20T07:02:23.576Z</time>
      </trkpt>
      <trkpt lat="45.64336" lon="5.86459">
        <ele>245</ele>
        <time>2021-07-20T07:02:24.577Z</time>
      </trkpt>
      <trkpt lat="45.64342" lon="5.86467">
        <ele>245</ele>
        <time>2021-07-20T07:02:25.576Z</time>
      </trkpt>
      <trkpt lat="45.64347" lon="5.86477">
        <ele>245</ele>
        <time>2021-07-20T07:02:26.576Z</time>
      </trkpt>
      <trkpt lat="45.64352" lon="5.86487">
        <ele>245</ele>
        <time>2021-07-20T07:02:27.577Z</time>
      </trkpt>
      <trkpt lat="45.64356" lon="5.86498">
        <ele>245</ele>
        <time>2021-07-20T07:02:28.577Z</time>
      </trkpt>
      <trkpt lat="45.6436" lon="5.86509">
        <ele>245</ele>
        <time>2021-07-20T07:02:29.576Z</time>
      </trkpt>
      <trkpt lat="45.64363" lon="5.86519">
        <ele>245</ele>
        <time>2021-07-20T07:02:30.577Z</time>
      </trkpt>
      <trkpt lat="45.64367" lon="5.8653">
        <ele>246</ele>
        <time>2021-07-20T07:02:31.577Z</time>
      </trkpt>
      <trkpt lat="45.64371" lon="5.86541">
        <ele>246</ele>
        <time>2021-07-20T07:02:32.576Z</time>
      </trkpt>
      <trkpt lat="45.64375" lon="5.86551">
        <ele>246</ele>
        <time>2021-07-20T07:02:33.576Z</time>
      </trkpt>
      <trkpt lat="45.64379" lon="5.86562">
        <ele>247</ele>
        <time>2021-07-20T07:02:34.576Z</time>
      </trkpt>
      <trkpt lat="45.64382" lon="5.86572">
        <ele>247</ele>
        <time>2021-07-20T07:02:35.577Z</time>
      </trkpt>
      <trkpt lat="45.64386" lon="5.86582">
        <ele>248</ele>
        <time>2021-07-20T07:02:36.576Z</time>
      </trkpt>
      <trkpt lat="45.64389" lon="5.86592">
        <ele>248</ele>
        <time>2021-07-20T07:02:37.576Z</time>
      </trkpt>
      <trkpt lat="45.64393" lon="5.86602">
        <ele>249</ele>
        <time>2021-07-20T07:02:38.577Z</time>
      </trkpt>
      <trkpt lat="45.64395" lon="5.86612">
        <ele>249</ele>
        <time>2021-07-20T07:02:39.576Z</time>
      </trkpt>
      <trkpt lat="45.64398" lon="5.86621">
        <ele>250</ele>
        <time>2021-07-20T07:02:40.577Z</time>
      </trkpt>
      <trkpt lat="45.644" lon="5.8663">
        <ele>250</ele>
        <time>2021-07-20T07:02:41.576Z</time>
      </trkpt>
      <trkpt lat="45.64402" lon="5.86639">
        <ele>250</ele>
        <time>2021-07-20T07:02:42.577Z</time>
      </trkpt>
      <trkpt lat="45.64404" lon="5.86648">
        <ele>250</ele>
        <time>2021-07-20T07:02:43.577Z</time>
      </trkpt>
      <trkpt lat="45.64405" lon="5.86657">
        <ele>249</ele>
        <time>2021-07-20T07:02:44.577Z</time>
      </trkpt>
      <trkpt lat="45.64407" lon="5.86666">
        <ele>249</ele>
        <time>2021-07-20T07:02:45.577Z</time>
      </trkpt>
      <trkpt lat="45.64409" lon="5.86674">
        <ele>249</ele>
        <time>2021-07-20T07:02:46.577Z</time>
      </trkpt>
      <trkpt lat="45.6441" lon="5.86683">
        <ele>248</ele>
        <time>2021-07-20T07:02:47.576Z</time>
      </trkpt>
      <trkpt lat="45.64412" lon="5.86691">
        <ele>248</ele>
        <time>2021-07-20T07:02:48.577Z</time>
      </trkpt>
      <trkpt lat="45.64413" lon="5.867">
        <ele>248</ele>
        <time>2021-07-20T07:02:49.577Z</time>
      </trkpt>
      <trkpt lat="45.64415" lon="5.86709">
        <ele>248</ele>
        <time>2021-07-20T07:02:50.576Z</time>
      </trkpt>
      <trkpt lat="45.64417" lon="5.86719">
        <ele>248</ele>
        <time>2021-07-20T07:02:51.576Z</time>
      </trkpt>
      <trkpt lat="45.6442" lon="5.86729">
        <ele>248</ele>
        <time>2021-07-20T07:02:52.577Z</time>
      </trkpt>
      <trkpt lat="45.64422" lon="5.8674">
        <ele>248</ele>
        <time>2021-07-20T07:02:53.576Z</time>
      </trkpt>
      <trkpt lat="45.64424" lon="5.86751">
        <ele>247</ele>
        <time>2021-07-20T07:02:54.576Z</time>
      </trkpt>
      <trkpt lat="45.64426" lon="5.86762">
        <ele>245</ele>
        <time>2021-07-20T07:02:55.577Z</time>
      </trkpt>
      <trkpt lat="45.64428" lon="5.86773">
        <ele>244</ele>
        <time>2021-07-20T07:02:56.576Z</time>
      </trkpt>
      <trkpt lat="45.6443" lon="5.86784">
        <ele>243</ele>
        <time>2021-07-20T07:02:57.577Z</time>
      </trkpt>
      <trkpt lat="45.64432" lon="5.86794">
        <ele>242</ele>
        <time>2021-07-20T07:02:58.576Z</time>
      </trkpt>
      <trkpt lat="45.64434" lon="5.86805">
        <ele>241</ele>
        <time>2021-07-20T07:02:59.577Z</time>
      </trkpt>
      <trkpt lat="45.64436" lon="5.86815">
        <ele>241</ele>
        <time>2021-07-20T07:03:00.577Z</time>
      </trkpt>
      <trkpt lat="45.64438" lon="5.86826">
        <ele>240</ele>
        <time>2021-07-20T07:03:01.577Z</time>
      </trkpt>
      <trkpt lat="45.64441" lon="5.86837">
        <ele>239</ele>
        <time>2021-07-20T07:03:02.576Z</time>
      </trkpt>
      <trkpt lat="45.64443" lon="5.86848">
        <ele>238</ele>
        <time>2021-07-20T07:03:03.576Z</time>
      </trkpt>
      <trkpt lat="45.64445" lon="5.86859">
        <ele>238</ele>
        <time>2021-07-20T07:03:04.577Z</time>
      </trkpt>
      <trkpt lat="45.64448" lon="5.8687">
        <ele>238</ele>
        <time>2021-07-20T07:03:05.576Z</time>
      </trkpt>
      <trkpt lat="45.6445" lon="5.86882">
        <ele>238</ele>
        <time>2021-07-20T07:03:06.577Z</time>
      </trkpt>
      <trkpt lat="45.64453" lon="5.86893">
        <ele>238</ele>
        <time>2021-07-20T07:03:07.576Z</time>
      </trkpt>
      <trkpt lat="45.64455" lon="5.86904">
        <ele>238</ele>
        <time>2021-07-20T07:03:08.576Z</time>
      </trkpt>
      <trkpt lat="45.64457" lon="5.86915">
        <ele>239</ele>
        <time>2021-07-20T07:03:09.576Z</time>
      </trkpt>
      <trkpt lat="45.64459" lon="5.86925">
        <ele>240</ele>
        <time>2021-07-20T07:03:10.576Z</time>
      </trkpt>
      <trkpt lat="45.64461" lon="5.86936">
        <ele>241</ele>
        <time>2021-07-20T07:03:11.577Z</time>
      </trkpt>
      <trkpt lat="45.64461" lon="5.86946">
        <ele>242</ele>
        <time>2021-07-20T07:03:12.577Z</time>
      </trkpt>
      <trkpt lat="45.64458" lon="5.86956">
        <ele>243</ele>
        <time>2021-07-20T07:03:13.577Z</time>
      </trkpt>
      <trkpt lat="45.64454" lon="5.86964">
        <ele>243</ele>
        <time>2021-07-20T07:03:14.576Z</time>
      </trkpt>
      <trkpt lat="45.64449" lon="5.8697">
        <ele>243</ele>
        <time>2021-07-20T07:03:15.577Z</time>
      </trkpt>
      <trkpt lat="45.64442" lon="5.86973">
        <ele>243</ele>
        <time>2021-07-20T07:03:16.577Z</time>
      </trkpt>
      <trkpt lat="45.64434" lon="5.86977">
        <ele>243</ele>
        <time>2021-07-20T07:03:17.577Z</time>
      </trkpt>
      <trkpt lat="45.64427" lon="5.8698">
        <ele>243</ele>
        <time>2021-07-20T07:03:18.576Z</time>
      </trkpt>
      <trkpt lat="45.64418" lon="5.86982">
        <ele>243</ele>
        <time>2021-07-20T07:03:19.576Z</time>
      </trkpt>
      <trkpt lat="45.6441" lon="5.86984">
        <ele>243</ele>
        <time>2021-07-20T07:03:20.576Z</time>
      </trkpt>
      <trkpt lat="45.64403" lon="5.86987">
        <ele>242</ele>
        <time>2021-07-20T07:03:21.576Z</time>
      </trkpt>
      <trkpt lat="45.64395" lon="5.86989">
        <ele>242</ele>
        <time>2021-07-20T07:03:22.576Z</time>
      </trkpt>
      <trkpt lat="45.64388" lon="5.86992">
        <ele>242</ele>
        <time>2021-07-20T07:03:23.577Z</time>
      </trkpt>
      <trkpt lat="45.64381" lon="5.86994">
        <ele>242</ele>
        <time>2021-07-20T07:03:24.576Z</time>
      </trkpt>
      <trkpt lat="45.64373" lon="5.86997">
        <ele>242</ele>
        <time>2021-07-20T07:03:25.577Z</time>
      </trkpt>
      <trkpt lat="45.64366" lon="5.87">
        <ele>241</ele>
        <time>2021-07-20T07:03:26.577Z</time>
      </trkpt>
      <trkpt lat="45.64358" lon="5.87002">
        <ele>241</ele>
        <time>2021-07-20T07:03:27.577Z</time>
      </trkpt>
      <trkpt lat="45.64351" lon="5.87005">
        <ele>240</ele>
        <time>2021-07-20T07:03:28.576Z</time>
      </trkpt>
      <trkpt lat="45.64344" lon="5.87008">
        <ele>241</ele>
        <time>2021-07-20T07:03:29.576Z</time>
      </trkpt>
      <trkpt lat="45.64337" lon="5.8701">
        <ele>241</ele>
        <time>2021-07-20T07:03:30.576Z</time>
      </trkpt>
      <trkpt lat="45.6433" lon="5.87012">
        <ele>241</ele>
        <time>2021-07-20T07:03:31.577Z</time>
      </trkpt>
      <trkpt lat="45.64323" lon="5.87012">
        <ele>241</ele>
        <time>2021-07-20T07:03:32.576Z</time>
      </trkpt>
      <trkpt lat="45.64316" lon="5.87012">
        <ele>242</ele>
        <time>2021-07-20T07:03:33.576Z</time>
      </trkpt>
      <trkpt lat="45.64309" lon="5.87012">
        <ele>242</ele>
        <time>2021-07-20T07:03:34.576Z</time>
      </trkpt>
      <trkpt lat="45.64303" lon="5.87015">
        <ele>242</ele>
        <time>2021-07-20T07:03:35.577Z</time>
      </trkpt>
      <trkpt lat="45.64296" lon="5.87019">
        <ele>242</ele>
        <time>2021-07-20T07:03:36.577Z</time>
      </trkpt>
      <trkpt lat="45.6429" lon="5.87023">
        <ele>242</ele>
        <time>2021-07-20T07:03:37.576Z</time>
      </trkpt>
      <trkpt lat="45.64284" lon="5.87028">
        <ele>242</ele>
        <time>2021-07-20T07:03:38.576Z</time>
      </trkpt>
      <trkpt lat="45.64277" lon="5.87032">
        <ele>242</ele>
        <time>2021-07-20T07:03:39.576Z</time>
      </trkpt>
      <trkpt lat="45.6427" lon="5.87035">
        <ele>242</ele>
        <time>2021-07-20T07:03:40.576Z</time>
      </trkpt>
      <trkpt lat="45.64264" lon="5.87037">
        <ele>243</ele>
        <time>2021-07-20T07:03:41.577Z</time>
      </trkpt>
      <trkpt lat="45.64256" lon="5.87041">
        <ele>243</ele>
        <time>2021-07-20T07:03:42.577Z</time>
      </trkpt>
      <trkpt lat="45.64248" lon="5.87044">
        <ele>244</ele>
        <time>2021-07-20T07:03:43.576Z</time>
      </trkpt>
      <trkpt lat="45.64241" lon="5.87048">
        <ele>244</ele>
        <time>2021-07-20T07:03:44.577Z</time>
      </trkpt>
      <trkpt lat="45.64234" lon="5.87051">
        <ele>244</ele>
        <time>2021-07-20T07:03:45.577Z</time>
      </trkpt>
      <trkpt lat="45.64228" lon="5.87054">
        <ele>244</ele>
        <time>2021-07-20T07:03:46.577Z</time>
      </trkpt>
      <trkpt lat="45.64222" lon="5.87056">
        <ele>244</ele>
        <time>2021-07-20T07:03:47.577Z</time>
      </trkpt>
      <trkpt lat="45.64215" lon="5.87057">
        <ele>244</ele>
        <time>2021-07-20T07:03:48.577Z</time>
      </trkpt>
      <trkpt lat="45.64209" lon="5.87059">
        <ele>244</ele>
        <time>2021-07-20T07:03:49.577Z</time>
      </trkpt>
      <trkpt lat="45.64202" lon="5.87061">
        <ele>244</ele>
        <time>2021-07-20T07:03:50.576Z</time>
      </trkpt>
      <trkpt lat="45.64196" lon="5.87063">
        <ele>244</ele>
        <time>2021-07-20T07:03:51.576Z</time>
      </trkpt>
      <trkpt lat="45.64189" lon="5.87065">
        <ele>244</ele>
        <time>2021-07-20T07:03:52.576Z</time>
      </trkpt>
      <trkpt lat="45.64183" lon="5.87067">
        <ele>244</ele>
        <time>2021-07-20T07:03:53.576Z</time>
      </trkpt>
      <trkpt lat="45.64176" lon="5.8707">
        <ele>244</ele>
        <time>2021-07-20T07:03:54.576Z</time>
      </trkpt>
      <trkpt lat="45.6417" lon="5.87072">
        <ele>244</ele>
        <time>2021-07-20T07:03:55.576Z</time>
      </trkpt>
      <trkpt lat="45.64165" lon="5.87074">
        <ele>244</ele>
        <time>2021-07-20T07:03:56.576Z</time>
      </trkpt>
      <trkpt lat="45.64159" lon="5.87077">
        <ele>243</ele>
        <time>2021-07-20T07:03:57.577Z</time>
      </trkpt>
      <trkpt lat="45.64155" lon="5.87082">
        <ele>243</ele>
        <time>2021-07-20T07:03:58.577Z</time>
      </trkpt>
      <trkpt lat="45.64152" lon="5.87087">
        <ele>242</ele>
        <time>2021-07-20T07:03:59.576Z</time>
      </trkpt>
      <trkpt lat="45.6415" lon="5.87093">
        <ele>242</ele>
        <time>2021-07-20T07:04:00.577Z</time>
      </trkpt>
      <trkpt lat="45.6415" lon="5.871">
        <ele>242</ele>
        <time>2021-07-20T07:04:01.576Z</time>
      </trkpt>
      <trkpt lat="45.64151" lon="5.87108">
        <ele>241</ele>
        <time>2021-07-20T07:04:02.576Z</time>
      </trkpt>
      <trkpt lat="45.64153" lon="5.87116">
        <ele>242</ele>
        <time>2021-07-20T07:04:03.577Z</time>
      </trkpt>
      <trkpt lat="45.64156" lon="5.87125">
        <ele>242</ele>
        <time>2021-07-20T07:04:04.577Z</time>
      </trkpt>
      <trkpt lat="45.64158" lon="5.87134">
        <ele>241</ele>
        <time>2021-07-20T07:04:05.576Z</time>
      </trkpt>
      <trkpt lat="45.6416" lon="5.87144">
        <ele>241</ele>
        <time>2021-07-20T07:04:06.576Z</time>
      </trkpt>
      <trkpt lat="45.64162" lon="5.87153">
        <ele>241</ele>
        <time>2021-07-20T07:04:07.576Z</time>
      </trkpt>
      <trkpt lat="45.64164" lon="5.87163">
        <ele>240</ele>
        <time>2021-07-20T07:04:08.576Z</time>
      </trkpt>
      <trkpt lat="45.64166" lon="5.87172">
        <ele>240</ele>
        <time>2021-07-20T07:04:09.576Z</time>
      </trkpt>
      <trkpt lat="45.64167" lon="5.87181">
        <ele>240</ele>
        <time>2021-07-20T07:04:10.576Z</time>
      </trkpt>
      <trkpt lat="45.64168" lon="5.8719">
        <ele>240</ele>
        <time>2021-07-20T07:04:11.577Z</time>
      </trkpt>
      <trkpt lat="45.64169" lon="5.87198">
        <ele>240</ele>
        <time>2021-07-20T07:04:12.577Z</time>
      </trkpt>
      <trkpt lat="45.6417" lon="5.87207">
        <ele>240</ele>
        <time>2021-07-20T07:04:13.577Z</time>
      </trkpt>
      <trkpt lat="45.64171" lon="5.87215">
        <ele>240</ele>
        <time>2021-07-20T07:04:14.577Z</time>
      </trkpt>
      <trkpt lat="45.64172" lon="5.87223">
        <ele>240</ele>
        <time>2021-07-20T07:04:15.577Z</time>
      </trkpt>
      <trkpt lat="45.64173" lon="5.87231">
        <ele>240</ele>
        <time>2021-07-20T07:04:16.577Z</time>
      </trkpt>
      <trkpt lat="45.64174" lon="5.87239">
        <ele>241</ele>
        <time>2021-07-20T07:04:17.577Z</time>
      </trkpt>
      <trkpt lat="45.64175" lon="5.87246">
        <ele>241</ele>
        <time>2021-07-20T07:04:18.576Z</time>
      </trkpt>
      <trkpt lat="45.64176" lon="5.87253">
        <ele>242</ele>
        <time>2021-07-20T07:04:19.577Z</time>
      </trkpt>
      <trkpt lat="45.64177" lon="5.87259">
        <ele>243</ele>
        <time>2021-07-20T07:04:20.576Z</time>
      </trkpt>
      <trkpt lat="45.64178" lon="5.87265">
        <ele>244</ele>
        <time>2021-07-20T07:04:21.576Z</time>
      </trkpt>
      <trkpt lat="45.6418" lon="5.87271">
        <ele>245</ele>
        <time>2021-07-20T07:04:22.576Z</time>
      </trkpt>
      <trkpt lat="45.64181" lon="5.87277">
        <ele>246</ele>
        <time>2021-07-20T07:04:23.577Z</time>
      </trkpt>
      <trkpt lat="45.64182" lon="5.87283">
        <ele>247</ele>
        <time>2021-07-20T07:04:24.576Z</time>
      </trkpt>
      <trkpt lat="45.64184" lon="5.87289">
        <ele>249</ele>
        <time>2021-07-20T07:04:25.576Z</time>
      </trkpt>
      <trkpt lat="45.64186" lon="5.87295">
        <ele>250</ele>
        <time>2021-07-20T07:04:26.576Z</time>
      </trkpt>
      <trkpt lat="45.64187" lon="5.87302">
        <ele>251</ele>
        <time>2021-07-20T07:04:27.576Z</time>
      </trkpt>
      <trkpt lat="45.64189" lon="5.87308">
        <ele>252</ele>
        <time>2021-07-20T07:04:28.577Z</time>
      </trkpt>
      <trkpt lat="45.6419" lon="5.87314">
        <ele>253</ele>
        <time>2021-07-20T07:04:29.577Z</time>
      </trkpt>
      <trkpt lat="45.64189" lon="5.87318">
        <ele>255</ele>
        <time>2021-07-20T07:04:30.576Z</time>
      </trkpt>
      <trkpt lat="45.64187" lon="5.87321">
        <ele>256</ele>
        <time>2021-07-20T07:04:31.576Z</time>
      </trkpt>
      <trkpt lat="45.64186" lon="5.87322">
        <ele>257</ele>
        <time>2021-07-20T07:04:32.576Z</time>
      </trkpt>
      <trkpt lat="45.64182" lon="5.87324">
        <ele>258</ele>
        <time>2021-07-20T07:04:33.577Z</time>
      </trkpt>
      <trkpt lat="45.64179" lon="5.87324">
        <ele>260</ele>
        <time>2021-07-20T07:04:34.577Z</time>
      </trkpt>
      <trkpt lat="45.64173" lon="5.87325">
        <ele>261</ele>
        <time>2021-07-20T07:04:35.577Z</time>
      </trkpt>
      <trkpt lat="45.64168" lon="5.87325">
        <ele>262</ele>
        <time>2021-07-20T07:04:36.577Z</time>
      </trkpt>
      <trkpt lat="45.64164" lon="5.87326">
        <ele>263</ele>
        <time>2021-07-20T07:04:37.577Z</time>
      </trkpt>
      <trkpt lat="45.6416" lon="5.87326">
        <ele>264</ele>
        <time>2021-07-20T07:04:38.577Z</time>
      </trkpt>
      <trkpt lat="45.64157" lon="5.87327">
        <ele>265</ele>
        <time>2021-07-20T07:04:39.577Z</time>
      </trkpt>
      <trkpt lat="45.64156" lon="5.87327">
        <ele>266</ele>
        <time>2021-07-20T07:04:40.577Z</time>
      </trkpt>
      <trkpt lat="45.64155" lon="5.87326">
        <ele>267</ele>
        <time>2021-07-20T07:04:41.577Z</time>
      </trkpt>
      <trkpt lat="45.64154" lon="5.87327">
        <ele>268</ele>
        <time>2021-07-20T07:04:42.577Z</time>
      </trkpt>
    </trkseg>
  </trk>
</gpx>